<?xml version="1.0" encoding="UTF-8"?>
<gpx version="1.1" creator="https://www.youtrack.es" xsi:schemaLocation="http://www.topografix.com/GPX/1/1 http://www.topografix.com/GPX/1/1/gpx.xsd http://www.garmin.com/xmlschemas/GpxExtensions/v3 http://www.garmin.com/xmlschemas/GpxExtensionsv3.xsd http://www.garmin.com/xmlschemas/TrackPointExtension/v1 http://www.garmin.com/xmlschemas/TrackPointExtensionv1.xsd" xmlns:gpxtpx="http://www.garmin.com/xmlschemas/TrackPointExtension/v1" xmlns:gpxx="http://www.garmin.com/xmlschemas/GpxExtensions/v3" xmlns:xsi="http://www.w3.org/2001/XMLSchema-instance">
  <metadata>
    <link href="https://www.youtrack.es">
      <text>YouTrack.es</text>
    </link>
    <time>2026-05-07T20:55:31Z</time>
  </metadata>
  <trk>
    <src>https://www.youtrack.es</src>
    <link href="https://www.youtrack.es/ruta/17382-gandia-anada-i-tornada-">
      <text>YouTrack.es</text>
    </link>
    <trkseg>
      <trkpt lat="38.8221310" lon="-0.5495280">
        <ele>412.6</ele>
        <time>2020-11-14T07:03:25Z</time>
      </trkpt>
      <trkpt lat="38.8221140" lon="-0.5495500">
        <ele>412.6</ele>
        <time>2020-11-14T07:03:26Z</time>
      </trkpt>
      <trkpt lat="38.8219750" lon="-0.5502680">
        <ele>412.6</ele>
        <time>2020-11-14T07:03:41Z</time>
      </trkpt>
      <trkpt lat="38.8218730" lon="-0.5510020">
        <ele>412.4</ele>
        <time>2020-11-14T07:03:54Z</time>
      </trkpt>
      <trkpt lat="38.8219120" lon="-0.5513890">
        <ele>412.3</ele>
        <time>2020-11-14T07:03:59Z</time>
      </trkpt>
      <trkpt lat="38.8220620" lon="-0.5521360">
        <ele>411.2</ele>
        <time>2020-11-14T07:04:08Z</time>
      </trkpt>
      <trkpt lat="38.8222100" lon="-0.5528800">
        <ele>410.8</ele>
        <time>2020-11-14T07:04:17Z</time>
      </trkpt>
      <trkpt lat="38.8222530" lon="-0.5530390">
        <ele>410.9</ele>
        <time>2020-11-14T07:04:19Z</time>
      </trkpt>
      <trkpt lat="38.8223530" lon="-0.5531260">
        <ele>411.1</ele>
        <time>2020-11-14T07:04:21Z</time>
      </trkpt>
      <trkpt lat="38.8224780" lon="-0.5530460">
        <ele>409.5</ele>
        <time>2020-11-14T07:04:23Z</time>
      </trkpt>
      <trkpt lat="38.8225640" lon="-0.5528530">
        <ele>407.7</ele>
        <time>2020-11-14T07:04:25Z</time>
      </trkpt>
      <trkpt lat="38.8227860" lon="-0.5520840">
        <ele>400.7</ele>
        <time>2020-11-14T07:04:31Z</time>
      </trkpt>
      <trkpt lat="38.8229890" lon="-0.5513910">
        <ele>395.4</ele>
        <time>2020-11-14T07:04:36Z</time>
      </trkpt>
      <trkpt lat="38.8231540" lon="-0.5507320">
        <ele>391.8</ele>
        <time>2020-11-14T07:04:44Z</time>
      </trkpt>
      <trkpt lat="38.8231430" lon="-0.5506150">
        <ele>391.5</ele>
        <time>2020-11-14T07:04:56Z</time>
      </trkpt>
      <trkpt lat="38.8231610" lon="-0.5505640">
        <ele>391.3</ele>
        <time>2020-11-14T07:05:11Z</time>
      </trkpt>
      <trkpt lat="38.8233830" lon="-0.5498910">
        <ele>389.9</ele>
        <time>2020-11-14T07:05:26Z</time>
      </trkpt>
      <trkpt lat="38.8234860" lon="-0.5495770">
        <ele>389.6</ele>
        <time>2020-11-14T07:05:31Z</time>
      </trkpt>
      <trkpt lat="38.8237830" lon="-0.5489460">
        <ele>389.3</ele>
        <time>2020-11-14T07:05:42Z</time>
      </trkpt>
      <trkpt lat="38.8240050" lon="-0.5485150">
        <ele>389.4</ele>
        <time>2020-11-14T07:05:50Z</time>
      </trkpt>
      <trkpt lat="38.8243400" lon="-0.5479040">
        <ele>389.3</ele>
        <time>2020-11-14T07:06:01Z</time>
      </trkpt>
      <trkpt lat="38.8246350" lon="-0.5473020">
        <ele>389.2</ele>
        <time>2020-11-14T07:06:11Z</time>
      </trkpt>
      <trkpt lat="38.8248290" lon="-0.5469660">
        <ele>389.2</ele>
        <time>2020-11-14T07:06:17Z</time>
      </trkpt>
      <trkpt lat="38.8248600" lon="-0.5469060">
        <ele>389.2</ele>
        <time>2020-11-14T07:06:18Z</time>
      </trkpt>
      <trkpt lat="38.8248900" lon="-0.5468440">
        <ele>389.2</ele>
        <time>2020-11-14T07:06:19Z</time>
      </trkpt>
      <trkpt lat="38.8249210" lon="-0.5467830">
        <ele>389.2</ele>
        <time>2020-11-14T07:06:20Z</time>
      </trkpt>
      <trkpt lat="38.8249550" lon="-0.5467240">
        <ele>389.3</ele>
        <time>2020-11-14T07:06:21Z</time>
      </trkpt>
      <trkpt lat="38.8251240" lon="-0.5463550">
        <ele>389.3</ele>
        <time>2020-11-14T07:06:27Z</time>
      </trkpt>
      <trkpt lat="38.8251770" lon="-0.5462300">
        <ele>389.4</ele>
        <time>2020-11-14T07:06:29Z</time>
      </trkpt>
      <trkpt lat="38.8252020" lon="-0.5461650">
        <ele>389.4</ele>
        <time>2020-11-14T07:06:30Z</time>
      </trkpt>
      <trkpt lat="38.8252490" lon="-0.5460410">
        <ele>389.4</ele>
        <time>2020-11-14T07:06:32Z</time>
      </trkpt>
      <trkpt lat="38.8253130" lon="-0.5458630">
        <ele>389.2</ele>
        <time>2020-11-14T07:06:35Z</time>
      </trkpt>
      <trkpt lat="38.8253310" lon="-0.5458030">
        <ele>389.0</ele>
        <time>2020-11-14T07:06:36Z</time>
      </trkpt>
      <trkpt lat="38.8253490" lon="-0.5457430">
        <ele>388.8</ele>
        <time>2020-11-14T07:06:37Z</time>
      </trkpt>
      <trkpt lat="38.8253930" lon="-0.5456310">
        <ele>388.7</ele>
        <time>2020-11-14T07:06:39Z</time>
      </trkpt>
      <trkpt lat="38.8254930" lon="-0.5454800">
        <ele>388.3</ele>
        <time>2020-11-14T07:06:42Z</time>
      </trkpt>
      <trkpt lat="38.8256040" lon="-0.5453950">
        <ele>387.6</ele>
        <time>2020-11-14T07:06:44Z</time>
      </trkpt>
      <trkpt lat="38.8257290" lon="-0.5453050">
        <ele>386.7</ele>
        <time>2020-11-14T07:06:46Z</time>
      </trkpt>
      <trkpt lat="38.8259200" lon="-0.5451490">
        <ele>385.2</ele>
        <time>2020-11-14T07:06:49Z</time>
      </trkpt>
      <trkpt lat="38.8261830" lon="-0.5448400">
        <ele>382.7</ele>
        <time>2020-11-14T07:06:53Z</time>
      </trkpt>
      <trkpt lat="38.8263260" lon="-0.5446830">
        <ele>381.4</ele>
        <time>2020-11-14T07:06:55Z</time>
      </trkpt>
      <trkpt lat="38.8263980" lon="-0.5445960">
        <ele>380.7</ele>
        <time>2020-11-14T07:06:56Z</time>
      </trkpt>
      <trkpt lat="38.8264690" lon="-0.5445060">
        <ele>380.0</ele>
        <time>2020-11-14T07:06:57Z</time>
      </trkpt>
      <trkpt lat="38.8266090" lon="-0.5443160">
        <ele>378.5</ele>
        <time>2020-11-14T07:06:59Z</time>
      </trkpt>
      <trkpt lat="38.8269990" lon="-0.5437910">
        <ele>374.0</ele>
        <time>2020-11-14T07:07:04Z</time>
      </trkpt>
      <trkpt lat="38.8274110" lon="-0.5432300">
        <ele>369.0</ele>
        <time>2020-11-14T07:07:09Z</time>
      </trkpt>
      <trkpt lat="38.8278420" lon="-0.5426510">
        <ele>364.3</ele>
        <time>2020-11-14T07:07:14Z</time>
      </trkpt>
      <trkpt lat="38.8279360" lon="-0.5425420">
        <ele>363.4</ele>
        <time>2020-11-14T07:07:15Z</time>
      </trkpt>
      <trkpt lat="38.8281590" lon="-0.5424010">
        <ele>361.7</ele>
        <time>2020-11-14T07:07:17Z</time>
      </trkpt>
      <trkpt lat="38.8285400" lon="-0.5423460">
        <ele>359.2</ele>
        <time>2020-11-14T07:07:20Z</time>
      </trkpt>
      <trkpt lat="38.8287870" lon="-0.5422370">
        <ele>357.7</ele>
        <time>2020-11-14T07:07:22Z</time>
      </trkpt>
      <trkpt lat="38.8293550" lon="-0.5418890">
        <ele>354.9</ele>
        <time>2020-11-14T07:07:27Z</time>
      </trkpt>
      <trkpt lat="38.8299010" lon="-0.5416240">
        <ele>351.9</ele>
        <time>2020-11-14T07:07:32Z</time>
      </trkpt>
      <trkpt lat="38.8304210" lon="-0.5412480">
        <ele>348.1</ele>
        <time>2020-11-14T07:07:37Z</time>
      </trkpt>
      <trkpt lat="38.8309010" lon="-0.5407320">
        <ele>344.2</ele>
        <time>2020-11-14T07:07:42Z</time>
      </trkpt>
      <trkpt lat="38.8310630" lon="-0.5404870">
        <ele>342.8</ele>
        <time>2020-11-14T07:07:44Z</time>
      </trkpt>
      <trkpt lat="38.8311400" lon="-0.5402190">
        <ele>341.5</ele>
        <time>2020-11-14T07:07:46Z</time>
      </trkpt>
      <trkpt lat="38.8311000" lon="-0.5399450">
        <ele>340.2</ele>
        <time>2020-11-14T07:07:48Z</time>
      </trkpt>
      <trkpt lat="38.8307570" lon="-0.5393870">
        <ele>335.3</ele>
        <time>2020-11-14T07:07:53Z</time>
      </trkpt>
      <trkpt lat="38.8305660" lon="-0.5390050">
        <ele>332.2</ele>
        <time>2020-11-14T07:07:56Z</time>
      </trkpt>
      <trkpt lat="38.8305110" lon="-0.5387120">
        <ele>329.9</ele>
        <time>2020-11-14T07:07:58Z</time>
      </trkpt>
      <trkpt lat="38.8305540" lon="-0.5384080">
        <ele>327.2</ele>
        <time>2020-11-14T07:08:00Z</time>
      </trkpt>
      <trkpt lat="38.8306710" lon="-0.5381070">
        <ele>324.9</ele>
        <time>2020-11-14T07:08:02Z</time>
      </trkpt>
      <trkpt lat="38.8309920" lon="-0.5373580">
        <ele>323.2</ele>
        <time>2020-11-14T07:08:07Z</time>
      </trkpt>
      <trkpt lat="38.8311140" lon="-0.5370910">
        <ele>323.6</ele>
        <time>2020-11-14T07:08:09Z</time>
      </trkpt>
      <trkpt lat="38.8312660" lon="-0.5368930">
        <ele>323.9</ele>
        <time>2020-11-14T07:08:11Z</time>
      </trkpt>
      <trkpt lat="38.8314500" lon="-0.5367980">
        <ele>324.3</ele>
        <time>2020-11-14T07:08:13Z</time>
      </trkpt>
      <trkpt lat="38.8316460" lon="-0.5367850">
        <ele>324.9</ele>
        <time>2020-11-14T07:08:15Z</time>
      </trkpt>
      <trkpt lat="38.8322260" lon="-0.5367840">
        <ele>326.9</ele>
        <time>2020-11-14T07:08:22Z</time>
      </trkpt>
      <trkpt lat="38.8323710" lon="-0.5367600">
        <ele>327.3</ele>
        <time>2020-11-14T07:08:24Z</time>
      </trkpt>
      <trkpt lat="38.8325040" lon="-0.5366980">
        <ele>327.6</ele>
        <time>2020-11-14T07:08:26Z</time>
      </trkpt>
      <trkpt lat="38.8329400" lon="-0.5361860">
        <ele>328.1</ele>
        <time>2020-11-14T07:08:34Z</time>
      </trkpt>
      <trkpt lat="38.8333030" lon="-0.5355770">
        <ele>328.2</ele>
        <time>2020-11-14T07:08:42Z</time>
      </trkpt>
      <trkpt lat="38.8334420" lon="-0.5353590">
        <ele>328.2</ele>
        <time>2020-11-14T07:08:45Z</time>
      </trkpt>
      <trkpt lat="38.8334890" lon="-0.5352860">
        <ele>328.2</ele>
        <time>2020-11-14T07:08:46Z</time>
      </trkpt>
      <trkpt lat="38.8338570" lon="-0.5347010">
        <ele>328.3</ele>
        <time>2020-11-14T07:08:54Z</time>
      </trkpt>
      <trkpt lat="38.8342120" lon="-0.5341160">
        <ele>328.4</ele>
        <time>2020-11-14T07:09:02Z</time>
      </trkpt>
      <trkpt lat="38.8345630" lon="-0.5335260">
        <ele>328.4</ele>
        <time>2020-11-14T07:09:10Z</time>
      </trkpt>
      <trkpt lat="38.8347950" lon="-0.5331600">
        <ele>328.5</ele>
        <time>2020-11-14T07:09:15Z</time>
      </trkpt>
      <trkpt lat="38.8350740" lon="-0.5327280">
        <ele>328.4</ele>
        <time>2020-11-14T07:09:21Z</time>
      </trkpt>
      <trkpt lat="38.8354540" lon="-0.5321470">
        <ele>328.4</ele>
        <time>2020-11-14T07:09:29Z</time>
      </trkpt>
      <trkpt lat="38.8357040" lon="-0.5317780">
        <ele>328.3</ele>
        <time>2020-11-14T07:09:34Z</time>
      </trkpt>
      <trkpt lat="38.8358560" lon="-0.5315570">
        <ele>328.2</ele>
        <time>2020-11-14T07:09:37Z</time>
      </trkpt>
      <trkpt lat="38.8360500" lon="-0.5312280">
        <ele>327.8</ele>
        <time>2020-11-14T07:09:41Z</time>
      </trkpt>
      <trkpt lat="38.8360890" lon="-0.5311350">
        <ele>327.6</ele>
        <time>2020-11-14T07:09:42Z</time>
      </trkpt>
      <trkpt lat="38.8361410" lon="-0.5309300">
        <ele>327.3</ele>
        <time>2020-11-14T07:09:44Z</time>
      </trkpt>
      <trkpt lat="38.8361150" lon="-0.5307250">
        <ele>327.0</ele>
        <time>2020-11-14T07:09:46Z</time>
      </trkpt>
      <trkpt lat="38.8360680" lon="-0.5306310">
        <ele>326.7</ele>
        <time>2020-11-14T07:09:47Z</time>
      </trkpt>
      <trkpt lat="38.8360170" lon="-0.5305480">
        <ele>326.5</ele>
        <time>2020-11-14T07:09:48Z</time>
      </trkpt>
      <trkpt lat="38.8358840" lon="-0.5304100">
        <ele>325.8</ele>
        <time>2020-11-14T07:09:50Z</time>
      </trkpt>
      <trkpt lat="38.8356520" lon="-0.5302240">
        <ele>324.1</ele>
        <time>2020-11-14T07:09:53Z</time>
      </trkpt>
      <trkpt lat="38.8351510" lon="-0.5298200">
        <ele>320.8</ele>
        <time>2020-11-14T07:09:59Z</time>
      </trkpt>
      <trkpt lat="38.8346980" lon="-0.5294280">
        <ele>319.2</ele>
        <time>2020-11-14T07:10:04Z</time>
      </trkpt>
      <trkpt lat="38.8342000" lon="-0.5290100">
        <ele>319.6</ele>
        <time>2020-11-14T07:10:10Z</time>
      </trkpt>
      <trkpt lat="38.8337120" lon="-0.5286190">
        <ele>322.0</ele>
        <time>2020-11-14T07:10:17Z</time>
      </trkpt>
      <trkpt lat="38.8335290" lon="-0.5284860">
        <ele>322.3</ele>
        <time>2020-11-14T07:10:20Z</time>
      </trkpt>
      <trkpt lat="38.8333960" lon="-0.5284440">
        <ele>322.7</ele>
        <time>2020-11-14T07:10:22Z</time>
      </trkpt>
      <trkpt lat="38.8332810" lon="-0.5283730">
        <ele>323.6</ele>
        <time>2020-11-14T07:10:24Z</time>
      </trkpt>
      <trkpt lat="38.8332270" lon="-0.5282300">
        <ele>324.8</ele>
        <time>2020-11-14T07:10:26Z</time>
      </trkpt>
      <trkpt lat="38.8332440" lon="-0.5280540">
        <ele>325.3</ele>
        <time>2020-11-14T07:10:28Z</time>
      </trkpt>
      <trkpt lat="38.8333270" lon="-0.5276930">
        <ele>325.6</ele>
        <time>2020-11-14T07:10:32Z</time>
      </trkpt>
      <trkpt lat="38.8333970" lon="-0.5275350">
        <ele>325.9</ele>
        <time>2020-11-14T07:10:34Z</time>
      </trkpt>
      <trkpt lat="38.8334950" lon="-0.5273880">
        <ele>326.2</ele>
        <time>2020-11-14T07:10:36Z</time>
      </trkpt>
      <trkpt lat="38.8339240" lon="-0.5268690">
        <ele>327.4</ele>
        <time>2020-11-14T07:10:44Z</time>
      </trkpt>
      <trkpt lat="38.8343410" lon="-0.5263740">
        <ele>328.1</ele>
        <time>2020-11-14T07:10:52Z</time>
      </trkpt>
      <trkpt lat="38.8347610" lon="-0.5258800">
        <ele>328.8</ele>
        <time>2020-11-14T07:11:00Z</time>
      </trkpt>
      <trkpt lat="38.8349160" lon="-0.5256950">
        <ele>329.1</ele>
        <time>2020-11-14T07:11:03Z</time>
      </trkpt>
      <trkpt lat="38.8349680" lon="-0.5256340">
        <ele>329.2</ele>
        <time>2020-11-14T07:11:04Z</time>
      </trkpt>
      <trkpt lat="38.8350190" lon="-0.5255730">
        <ele>329.3</ele>
        <time>2020-11-14T07:11:05Z</time>
      </trkpt>
      <trkpt lat="38.8350710" lon="-0.5255120">
        <ele>329.4</ele>
        <time>2020-11-14T07:11:06Z</time>
      </trkpt>
      <trkpt lat="38.8351720" lon="-0.5253940">
        <ele>329.6</ele>
        <time>2020-11-14T07:11:08Z</time>
      </trkpt>
      <trkpt lat="38.8353620" lon="-0.5251660">
        <ele>329.9</ele>
        <time>2020-11-14T07:11:12Z</time>
      </trkpt>
      <trkpt lat="38.8354490" lon="-0.5250470">
        <ele>330.0</ele>
        <time>2020-11-14T07:11:14Z</time>
      </trkpt>
      <trkpt lat="38.8354870" lon="-0.5249790">
        <ele>330.1</ele>
        <time>2020-11-14T07:11:15Z</time>
      </trkpt>
      <trkpt lat="38.8355160" lon="-0.5249060">
        <ele>330.2</ele>
        <time>2020-11-14T07:11:16Z</time>
      </trkpt>
      <trkpt lat="38.8355620" lon="-0.5247590">
        <ele>330.4</ele>
        <time>2020-11-14T07:11:18Z</time>
      </trkpt>
      <trkpt lat="38.8355960" lon="-0.5246960">
        <ele>330.4</ele>
        <time>2020-11-14T07:11:19Z</time>
      </trkpt>
      <trkpt lat="38.8356940" lon="-0.5246340">
        <ele>330.2</ele>
        <time>2020-11-14T07:11:21Z</time>
      </trkpt>
      <trkpt lat="38.8358060" lon="-0.5245760">
        <ele>330.0</ele>
        <time>2020-11-14T07:11:23Z</time>
      </trkpt>
      <trkpt lat="38.8360160" lon="-0.5243800">
        <ele>329.8</ele>
        <time>2020-11-14T07:11:27Z</time>
      </trkpt>
      <trkpt lat="38.8362700" lon="-0.5240970">
        <ele>329.5</ele>
        <time>2020-11-14T07:11:32Z</time>
      </trkpt>
      <trkpt lat="38.8366820" lon="-0.5236240">
        <ele>328.5</ele>
        <time>2020-11-14T07:11:40Z</time>
      </trkpt>
      <trkpt lat="38.8368870" lon="-0.5233790">
        <ele>328.2</ele>
        <time>2020-11-14T07:11:44Z</time>
      </trkpt>
      <trkpt lat="38.8369860" lon="-0.5232570">
        <ele>328.1</ele>
        <time>2020-11-14T07:11:46Z</time>
      </trkpt>
      <trkpt lat="38.8372880" lon="-0.5229330">
        <ele>327.7</ele>
        <time>2020-11-14T07:11:52Z</time>
      </trkpt>
      <trkpt lat="38.8375040" lon="-0.5227460">
        <ele>327.5</ele>
        <time>2020-11-14T07:11:56Z</time>
      </trkpt>
      <trkpt lat="38.8379910" lon="-0.5223910">
        <ele>327.1</ele>
        <time>2020-11-14T07:12:05Z</time>
      </trkpt>
      <trkpt lat="38.8384700" lon="-0.5220560">
        <ele>326.6</ele>
        <time>2020-11-14T07:12:14Z</time>
      </trkpt>
      <trkpt lat="38.8385600" lon="-0.5219550">
        <ele>326.8</ele>
        <time>2020-11-14T07:12:16Z</time>
      </trkpt>
      <trkpt lat="38.8386240" lon="-0.5218200">
        <ele>327.0</ele>
        <time>2020-11-14T07:12:18Z</time>
      </trkpt>
      <trkpt lat="38.8386770" lon="-0.5216930">
        <ele>327.2</ele>
        <time>2020-11-14T07:12:20Z</time>
      </trkpt>
      <trkpt lat="38.8387290" lon="-0.5215600">
        <ele>327.2</ele>
        <time>2020-11-14T07:12:22Z</time>
      </trkpt>
      <trkpt lat="38.8387290" lon="-0.5214090">
        <ele>327.2</ele>
        <time>2020-11-14T07:12:24Z</time>
      </trkpt>
      <trkpt lat="38.8385010" lon="-0.5207450">
        <ele>327.3</ele>
        <time>2020-11-14T07:12:34Z</time>
      </trkpt>
      <trkpt lat="38.8382450" lon="-0.5200740">
        <ele>327.2</ele>
        <time>2020-11-14T07:12:44Z</time>
      </trkpt>
      <trkpt lat="38.8381460" lon="-0.5198970">
        <ele>327.1</ele>
        <time>2020-11-14T07:12:47Z</time>
      </trkpt>
      <trkpt lat="38.8378600" lon="-0.5195850">
        <ele>326.7</ele>
        <time>2020-11-14T07:12:53Z</time>
      </trkpt>
      <trkpt lat="38.8376980" lon="-0.5194460">
        <ele>326.4</ele>
        <time>2020-11-14T07:12:56Z</time>
      </trkpt>
      <trkpt lat="38.8372340" lon="-0.5189720">
        <ele>325.2</ele>
        <time>2020-11-14T07:13:05Z</time>
      </trkpt>
      <trkpt lat="38.8370620" lon="-0.5186660">
        <ele>325.2</ele>
        <time>2020-11-14T07:13:09Z</time>
      </trkpt>
      <trkpt lat="38.8369550" lon="-0.5185690">
        <ele>325.4</ele>
        <time>2020-11-14T07:13:11Z</time>
      </trkpt>
      <trkpt lat="38.8365420" lon="-0.5181130">
        <ele>327.1</ele>
        <time>2020-11-14T07:13:20Z</time>
      </trkpt>
      <trkpt lat="38.8361560" lon="-0.5176110">
        <ele>330.2</ele>
        <time>2020-11-14T07:13:30Z</time>
      </trkpt>
      <trkpt lat="38.8358450" lon="-0.5169930">
        <ele>333.0</ele>
        <time>2020-11-14T07:13:40Z</time>
      </trkpt>
      <trkpt lat="38.8357010" lon="-0.5162950">
        <ele>335.8</ele>
        <time>2020-11-14T07:13:51Z</time>
      </trkpt>
      <trkpt lat="38.8355900" lon="-0.5156320">
        <ele>338.2</ele>
        <time>2020-11-14T07:14:02Z</time>
      </trkpt>
      <trkpt lat="38.8355970" lon="-0.5155200">
        <ele>338.7</ele>
        <time>2020-11-14T07:14:04Z</time>
      </trkpt>
      <trkpt lat="38.8356090" lon="-0.5154020">
        <ele>339.2</ele>
        <time>2020-11-14T07:14:06Z</time>
      </trkpt>
      <trkpt lat="38.8356980" lon="-0.5147290">
        <ele>341.9</ele>
        <time>2020-11-14T07:14:17Z</time>
      </trkpt>
      <trkpt lat="38.8357340" lon="-0.5144650">
        <ele>343.0</ele>
        <time>2020-11-14T07:14:22Z</time>
      </trkpt>
      <trkpt lat="38.8357420" lon="-0.5143570">
        <ele>343.4</ele>
        <time>2020-11-14T07:14:24Z</time>
      </trkpt>
      <trkpt lat="38.8357460" lon="-0.5141520">
        <ele>344.3</ele>
        <time>2020-11-14T07:14:28Z</time>
      </trkpt>
      <trkpt lat="38.8356740" lon="-0.5134290">
        <ele>347.2</ele>
        <time>2020-11-14T07:14:42Z</time>
      </trkpt>
      <trkpt lat="38.8355700" lon="-0.5127480">
        <ele>348.9</ele>
        <time>2020-11-14T07:14:55Z</time>
      </trkpt>
      <trkpt lat="38.8354500" lon="-0.5120200">
        <ele>351.1</ele>
        <time>2020-11-14T07:15:08Z</time>
      </trkpt>
      <trkpt lat="38.8353660" lon="-0.5117370">
        <ele>352.3</ele>
        <time>2020-11-14T07:15:13Z</time>
      </trkpt>
      <trkpt lat="38.8353100" lon="-0.5116500">
        <ele>352.7</ele>
        <time>2020-11-14T07:15:15Z</time>
      </trkpt>
      <trkpt lat="38.8352040" lon="-0.5115560">
        <ele>353.4</ele>
        <time>2020-11-14T07:15:18Z</time>
      </trkpt>
      <trkpt lat="38.8351230" lon="-0.5115210">
        <ele>353.8</ele>
        <time>2020-11-14T07:15:20Z</time>
      </trkpt>
      <trkpt lat="38.8350360" lon="-0.5115090">
        <ele>354.4</ele>
        <time>2020-11-14T07:15:22Z</time>
      </trkpt>
      <trkpt lat="38.8344970" lon="-0.5116560">
        <ele>357.7</ele>
        <time>2020-11-14T07:15:35Z</time>
      </trkpt>
      <trkpt lat="38.8339470" lon="-0.5116720">
        <ele>360.7</ele>
        <time>2020-11-14T07:15:48Z</time>
      </trkpt>
      <trkpt lat="38.8337350" lon="-0.5117550">
        <ele>361.5</ele>
        <time>2020-11-14T07:15:53Z</time>
      </trkpt>
      <trkpt lat="38.8332700" lon="-0.5121640">
        <ele>362.9</ele>
        <time>2020-11-14T07:16:05Z</time>
      </trkpt>
      <trkpt lat="38.8328430" lon="-0.5126040">
        <ele>364.0</ele>
        <time>2020-11-14T07:16:16Z</time>
      </trkpt>
      <trkpt lat="38.8324840" lon="-0.5129680">
        <ele>365.3</ele>
        <time>2020-11-14T07:16:25Z</time>
      </trkpt>
      <trkpt lat="38.8322090" lon="-0.5130950">
        <ele>366.2</ele>
        <time>2020-11-14T07:16:31Z</time>
      </trkpt>
      <trkpt lat="38.8321100" lon="-0.5131020">
        <ele>366.6</ele>
        <time>2020-11-14T07:16:33Z</time>
      </trkpt>
      <trkpt lat="38.8315460" lon="-0.5130670">
        <ele>369.2</ele>
        <time>2020-11-14T07:16:45Z</time>
      </trkpt>
      <trkpt lat="38.8314570" lon="-0.5130830">
        <ele>369.7</ele>
        <time>2020-11-14T07:16:47Z</time>
      </trkpt>
      <trkpt lat="38.8313300" lon="-0.5131530">
        <ele>370.5</ele>
        <time>2020-11-14T07:16:50Z</time>
      </trkpt>
      <trkpt lat="38.8311760" lon="-0.5132770">
        <ele>371.4</ele>
        <time>2020-11-14T07:16:54Z</time>
      </trkpt>
      <trkpt lat="38.8310920" lon="-0.5133010">
        <ele>371.8</ele>
        <time>2020-11-14T07:16:56Z</time>
      </trkpt>
      <trkpt lat="38.8310080" lon="-0.5132810">
        <ele>372.2</ele>
        <time>2020-11-14T07:16:58Z</time>
      </trkpt>
      <trkpt lat="38.8309340" lon="-0.5132200">
        <ele>372.5</ele>
        <time>2020-11-14T07:17:00Z</time>
      </trkpt>
      <trkpt lat="38.8307390" lon="-0.5129040">
        <ele>373.9</ele>
        <time>2020-11-14T07:17:07Z</time>
      </trkpt>
      <trkpt lat="38.8305440" lon="-0.5125990">
        <ele>374.8</ele>
        <time>2020-11-14T07:17:13Z</time>
      </trkpt>
      <trkpt lat="38.8304470" lon="-0.5125180">
        <ele>374.9</ele>
        <time>2020-11-14T07:17:15Z</time>
      </trkpt>
      <trkpt lat="38.8300160" lon="-0.5122530">
        <ele>375.4</ele>
        <time>2020-11-14T07:17:24Z</time>
      </trkpt>
      <trkpt lat="38.8299740" lon="-0.5122170">
        <ele>375.6</ele>
        <time>2020-11-14T07:17:25Z</time>
      </trkpt>
      <trkpt lat="38.8298400" lon="-0.5121180">
        <ele>376.1</ele>
        <time>2020-11-14T07:17:28Z</time>
      </trkpt>
      <trkpt lat="38.8297590" lon="-0.5120600">
        <ele>376.5</ele>
        <time>2020-11-14T07:17:30Z</time>
      </trkpt>
      <trkpt lat="38.8296450" lon="-0.5119800">
        <ele>377.2</ele>
        <time>2020-11-14T07:17:33Z</time>
      </trkpt>
      <trkpt lat="38.8295330" lon="-0.5119090">
        <ele>378.0</ele>
        <time>2020-11-14T07:17:36Z</time>
      </trkpt>
      <trkpt lat="38.8291430" lon="-0.5117350">
        <ele>381.0</ele>
        <time>2020-11-14T07:17:46Z</time>
      </trkpt>
      <trkpt lat="38.8291020" lon="-0.5117290">
        <ele>381.3</ele>
        <time>2020-11-14T07:17:47Z</time>
      </trkpt>
      <trkpt lat="38.8289440" lon="-0.5116890">
        <ele>382.5</ele>
        <time>2020-11-14T07:17:51Z</time>
      </trkpt>
      <trkpt lat="38.8287450" lon="-0.5116570">
        <ele>384.0</ele>
        <time>2020-11-14T07:17:56Z</time>
      </trkpt>
      <trkpt lat="38.8284990" lon="-0.5116180">
        <ele>385.7</ele>
        <time>2020-11-14T07:18:02Z</time>
      </trkpt>
      <trkpt lat="38.8283420" lon="-0.5115470">
        <ele>386.7</ele>
        <time>2020-11-14T07:18:06Z</time>
      </trkpt>
      <trkpt lat="38.8278620" lon="-0.5111730">
        <ele>389.1</ele>
        <time>2020-11-14T07:18:20Z</time>
      </trkpt>
      <trkpt lat="38.8276540" lon="-0.5110230">
        <ele>390.2</ele>
        <time>2020-11-14T07:18:26Z</time>
      </trkpt>
      <trkpt lat="38.8274380" lon="-0.5108450">
        <ele>391.1</ele>
        <time>2020-11-14T07:18:32Z</time>
      </trkpt>
      <trkpt lat="38.8273470" lon="-0.5108140">
        <ele>391.2</ele>
        <time>2020-11-14T07:18:34Z</time>
      </trkpt>
      <trkpt lat="38.8270970" lon="-0.5108020">
        <ele>391.3</ele>
        <time>2020-11-14T07:18:39Z</time>
      </trkpt>
      <trkpt lat="38.8269920" lon="-0.5107570">
        <ele>391.3</ele>
        <time>2020-11-14T07:18:41Z</time>
      </trkpt>
      <trkpt lat="38.8269410" lon="-0.5107190">
        <ele>391.3</ele>
        <time>2020-11-14T07:18:42Z</time>
      </trkpt>
      <trkpt lat="38.8268940" lon="-0.5106800">
        <ele>391.2</ele>
        <time>2020-11-14T07:18:43Z</time>
      </trkpt>
      <trkpt lat="38.8268500" lon="-0.5106300">
        <ele>391.2</ele>
        <time>2020-11-14T07:18:44Z</time>
      </trkpt>
      <trkpt lat="38.8268100" lon="-0.5105750">
        <ele>391.2</ele>
        <time>2020-11-14T07:18:45Z</time>
      </trkpt>
      <trkpt lat="38.8267760" lon="-0.5105090">
        <ele>391.1</ele>
        <time>2020-11-14T07:18:46Z</time>
      </trkpt>
      <trkpt lat="38.8267470" lon="-0.5104380">
        <ele>391.1</ele>
        <time>2020-11-14T07:18:47Z</time>
      </trkpt>
      <trkpt lat="38.8267070" lon="-0.5102830">
        <ele>391.0</ele>
        <time>2020-11-14T07:18:49Z</time>
      </trkpt>
      <trkpt lat="38.8266970" lon="-0.5101280">
        <ele>391.0</ele>
        <time>2020-11-14T07:18:51Z</time>
      </trkpt>
      <trkpt lat="38.8267170" lon="-0.5099780">
        <ele>391.1</ele>
        <time>2020-11-14T07:18:53Z</time>
      </trkpt>
      <trkpt lat="38.8267650" lon="-0.5098420">
        <ele>391.2</ele>
        <time>2020-11-14T07:18:55Z</time>
      </trkpt>
      <trkpt lat="38.8268810" lon="-0.5096870">
        <ele>391.2</ele>
        <time>2020-11-14T07:18:58Z</time>
      </trkpt>
      <trkpt lat="38.8270290" lon="-0.5095800">
        <ele>391.0</ele>
        <time>2020-11-14T07:19:00Z</time>
      </trkpt>
      <trkpt lat="38.8271340" lon="-0.5094900">
        <ele>390.8</ele>
        <time>2020-11-14T07:19:03Z</time>
      </trkpt>
      <trkpt lat="38.8272750" lon="-0.5093070">
        <ele>390.4</ele>
        <time>2020-11-14T07:19:06Z</time>
      </trkpt>
      <trkpt lat="38.8273840" lon="-0.5092090">
        <ele>389.9</ele>
        <time>2020-11-14T07:19:08Z</time>
      </trkpt>
      <trkpt lat="38.8275110" lon="-0.5091400">
        <ele>389.7</ele>
        <time>2020-11-14T07:19:10Z</time>
      </trkpt>
      <trkpt lat="38.8276390" lon="-0.5090730">
        <ele>389.6</ele>
        <time>2020-11-14T07:19:12Z</time>
      </trkpt>
      <trkpt lat="38.8281130" lon="-0.5086970">
        <ele>389.7</ele>
        <time>2020-11-14T07:19:20Z</time>
      </trkpt>
      <trkpt lat="38.8284870" lon="-0.5081830">
        <ele>390.5</ele>
        <time>2020-11-14T07:19:28Z</time>
      </trkpt>
      <trkpt lat="38.8288280" lon="-0.5076340">
        <ele>391.9</ele>
        <time>2020-11-14T07:19:36Z</time>
      </trkpt>
      <trkpt lat="38.8291860" lon="-0.5072520">
        <ele>393.2</ele>
        <time>2020-11-14T07:19:43Z</time>
      </trkpt>
      <trkpt lat="38.8292650" lon="-0.5071200">
        <ele>393.5</ele>
        <time>2020-11-14T07:19:45Z</time>
      </trkpt>
      <trkpt lat="38.8294970" lon="-0.5064380">
        <ele>395.1</ele>
        <time>2020-11-14T07:19:54Z</time>
      </trkpt>
      <trkpt lat="38.8297120" lon="-0.5057990">
        <ele>397.0</ele>
        <time>2020-11-14T07:20:03Z</time>
      </trkpt>
      <trkpt lat="38.8298650" lon="-0.5051250">
        <ele>400.4</ele>
        <time>2020-11-14T07:20:14Z</time>
      </trkpt>
      <trkpt lat="38.8299270" lon="-0.5047870">
        <ele>402.4</ele>
        <time>2020-11-14T07:20:20Z</time>
      </trkpt>
      <trkpt lat="38.8299750" lon="-0.5044160">
        <ele>404.5</ele>
        <time>2020-11-14T07:20:27Z</time>
      </trkpt>
      <trkpt lat="38.8299870" lon="-0.5042560">
        <ele>405.3</ele>
        <time>2020-11-14T07:20:30Z</time>
      </trkpt>
      <trkpt lat="38.8300010" lon="-0.5040030">
        <ele>406.6</ele>
        <time>2020-11-14T07:20:35Z</time>
      </trkpt>
      <trkpt lat="38.8300020" lon="-0.5037880">
        <ele>407.6</ele>
        <time>2020-11-14T07:20:39Z</time>
      </trkpt>
      <trkpt lat="38.8299730" lon="-0.5034990">
        <ele>408.8</ele>
        <time>2020-11-14T07:20:45Z</time>
      </trkpt>
      <trkpt lat="38.8299290" lon="-0.5032990">
        <ele>409.5</ele>
        <time>2020-11-14T07:20:49Z</time>
      </trkpt>
      <trkpt lat="38.8299250" lon="-0.5031880">
        <ele>409.8</ele>
        <time>2020-11-14T07:20:51Z</time>
      </trkpt>
      <trkpt lat="38.8299170" lon="-0.5029430">
        <ele>410.6</ele>
        <time>2020-11-14T07:20:55Z</time>
      </trkpt>
      <trkpt lat="38.8299270" lon="-0.5026820">
        <ele>411.0</ele>
        <time>2020-11-14T07:20:59Z</time>
      </trkpt>
      <trkpt lat="38.8299180" lon="-0.5020820">
        <ele>412.2</ele>
        <time>2020-11-14T07:21:09Z</time>
      </trkpt>
      <trkpt lat="38.8299510" lon="-0.5016270">
        <ele>413.5</ele>
        <time>2020-11-14T07:21:17Z</time>
      </trkpt>
      <trkpt lat="38.8299640" lon="-0.5014520">
        <ele>413.8</ele>
        <time>2020-11-14T07:21:20Z</time>
      </trkpt>
      <trkpt lat="38.8300270" lon="-0.5007460">
        <ele>413.4</ele>
        <time>2020-11-14T07:21:31Z</time>
      </trkpt>
      <trkpt lat="38.8300480" lon="-0.5006130">
        <ele>413.2</ele>
        <time>2020-11-14T07:21:33Z</time>
      </trkpt>
      <trkpt lat="38.8300580" lon="-0.5005470">
        <ele>413.1</ele>
        <time>2020-11-14T07:21:34Z</time>
      </trkpt>
      <trkpt lat="38.8300730" lon="-0.5004840">
        <ele>413.0</ele>
        <time>2020-11-14T07:21:35Z</time>
      </trkpt>
      <trkpt lat="38.8300890" lon="-0.5004190">
        <ele>412.9</ele>
        <time>2020-11-14T07:21:36Z</time>
      </trkpt>
      <trkpt lat="38.8301540" lon="-0.5001390">
        <ele>412.5</ele>
        <time>2020-11-14T07:21:40Z</time>
      </trkpt>
      <trkpt lat="38.8302450" lon="-0.4998480">
        <ele>412.0</ele>
        <time>2020-11-14T07:21:44Z</time>
      </trkpt>
      <trkpt lat="38.8302700" lon="-0.4997750">
        <ele>411.9</ele>
        <time>2020-11-14T07:21:45Z</time>
      </trkpt>
      <trkpt lat="38.8303370" lon="-0.4996390">
        <ele>411.7</ele>
        <time>2020-11-14T07:21:47Z</time>
      </trkpt>
      <trkpt lat="38.8304280" lon="-0.4995270">
        <ele>411.2</ele>
        <time>2020-11-14T07:21:49Z</time>
      </trkpt>
      <trkpt lat="38.8305910" lon="-0.4993860">
        <ele>410.7</ele>
        <time>2020-11-14T07:21:52Z</time>
      </trkpt>
      <trkpt lat="38.8308540" lon="-0.4991460">
        <ele>410.1</ele>
        <time>2020-11-14T07:21:57Z</time>
      </trkpt>
      <trkpt lat="38.8309620" lon="-0.4990400">
        <ele>409.8</ele>
        <time>2020-11-14T07:21:59Z</time>
      </trkpt>
      <trkpt lat="38.8310140" lon="-0.4989890">
        <ele>409.6</ele>
        <time>2020-11-14T07:22:00Z</time>
      </trkpt>
      <trkpt lat="38.8314760" lon="-0.4985490">
        <ele>408.2</ele>
        <time>2020-11-14T07:22:08Z</time>
      </trkpt>
      <trkpt lat="38.8315910" lon="-0.4984170">
        <ele>407.5</ele>
        <time>2020-11-14T07:22:10Z</time>
      </trkpt>
      <trkpt lat="38.8317240" lon="-0.4983280">
        <ele>407.0</ele>
        <time>2020-11-14T07:22:12Z</time>
      </trkpt>
      <trkpt lat="38.8319400" lon="-0.4982310">
        <ele>406.2</ele>
        <time>2020-11-14T07:22:15Z</time>
      </trkpt>
      <trkpt lat="38.8324280" lon="-0.4977160">
        <ele>402.6</ele>
        <time>2020-11-14T07:22:22Z</time>
      </trkpt>
      <trkpt lat="38.8328770" lon="-0.4972820">
        <ele>399.8</ele>
        <time>2020-11-14T07:22:28Z</time>
      </trkpt>
      <trkpt lat="38.8329160" lon="-0.4972070">
        <ele>399.5</ele>
        <time>2020-11-14T07:22:29Z</time>
      </trkpt>
      <trkpt lat="38.8329690" lon="-0.4970670">
        <ele>398.6</ele>
        <time>2020-11-14T07:22:31Z</time>
      </trkpt>
      <trkpt lat="38.8328840" lon="-0.4969230">
        <ele>398.3</ele>
        <time>2020-11-14T07:22:33Z</time>
      </trkpt>
      <trkpt lat="38.8328280" lon="-0.4967840">
        <ele>398.2</ele>
        <time>2020-11-14T07:22:35Z</time>
      </trkpt>
      <trkpt lat="38.8328230" lon="-0.4966380">
        <ele>398.1</ele>
        <time>2020-11-14T07:22:37Z</time>
      </trkpt>
      <trkpt lat="38.8328670" lon="-0.4965040">
        <ele>398.0</ele>
        <time>2020-11-14T07:22:39Z</time>
      </trkpt>
      <trkpt lat="38.8329530" lon="-0.4963780">
        <ele>397.8</ele>
        <time>2020-11-14T07:22:41Z</time>
      </trkpt>
      <trkpt lat="38.8330700" lon="-0.4962730">
        <ele>397.5</ele>
        <time>2020-11-14T07:22:43Z</time>
      </trkpt>
      <trkpt lat="38.8332610" lon="-0.4961370">
        <ele>396.9</ele>
        <time>2020-11-14T07:22:46Z</time>
      </trkpt>
      <trkpt lat="38.8337810" lon="-0.4957850">
        <ele>394.9</ele>
        <time>2020-11-14T07:22:53Z</time>
      </trkpt>
      <trkpt lat="38.8341990" lon="-0.4953960">
        <ele>392.8</ele>
        <time>2020-11-14T07:22:59Z</time>
      </trkpt>
      <trkpt lat="38.8347010" lon="-0.4949180">
        <ele>389.7</ele>
        <time>2020-11-14T07:23:06Z</time>
      </trkpt>
      <trkpt lat="38.8351240" lon="-0.4944230">
        <ele>386.6</ele>
        <time>2020-11-14T07:23:12Z</time>
      </trkpt>
      <trkpt lat="38.8355500" lon="-0.4939000">
        <ele>383.6</ele>
        <time>2020-11-14T07:23:18Z</time>
      </trkpt>
      <trkpt lat="38.8360570" lon="-0.4934210">
        <ele>380.5</ele>
        <time>2020-11-14T07:23:24Z</time>
      </trkpt>
      <trkpt lat="38.8362350" lon="-0.4932580">
        <ele>379.6</ele>
        <time>2020-11-14T07:23:26Z</time>
      </trkpt>
      <trkpt lat="38.8363650" lon="-0.4930280">
        <ele>378.4</ele>
        <time>2020-11-14T07:23:28Z</time>
      </trkpt>
      <trkpt lat="38.8363580" lon="-0.4927470">
        <ele>377.2</ele>
        <time>2020-11-14T07:23:30Z</time>
      </trkpt>
      <trkpt lat="38.8362500" lon="-0.4920260">
        <ele>374.9</ele>
        <time>2020-11-14T07:23:35Z</time>
      </trkpt>
      <trkpt lat="38.8364070" lon="-0.4913390">
        <ele>374.8</ele>
        <time>2020-11-14T07:23:40Z</time>
      </trkpt>
      <trkpt lat="38.8365900" lon="-0.4905930">
        <ele>375.0</ele>
        <time>2020-11-14T07:23:46Z</time>
      </trkpt>
      <trkpt lat="38.8366500" lon="-0.4903540">
        <ele>375.1</ele>
        <time>2020-11-14T07:23:48Z</time>
      </trkpt>
      <trkpt lat="38.8366790" lon="-0.4902380">
        <ele>375.1</ele>
        <time>2020-11-14T07:23:49Z</time>
      </trkpt>
      <trkpt lat="38.8367090" lon="-0.4901230">
        <ele>375.2</ele>
        <time>2020-11-14T07:23:50Z</time>
      </trkpt>
      <trkpt lat="38.8367390" lon="-0.4900120">
        <ele>375.3</ele>
        <time>2020-11-14T07:23:51Z</time>
      </trkpt>
      <trkpt lat="38.8368370" lon="-0.4895780">
        <ele>375.6</ele>
        <time>2020-11-14T07:23:55Z</time>
      </trkpt>
      <trkpt lat="38.8368550" lon="-0.4888820">
        <ele>375.7</ele>
        <time>2020-11-14T07:24:02Z</time>
      </trkpt>
      <trkpt lat="38.8367810" lon="-0.4881270">
        <ele>375.8</ele>
        <time>2020-11-14T07:24:10Z</time>
      </trkpt>
      <trkpt lat="38.8367610" lon="-0.4880310">
        <ele>375.8</ele>
        <time>2020-11-14T07:24:11Z</time>
      </trkpt>
      <trkpt lat="38.8366880" lon="-0.4878580">
        <ele>375.8</ele>
        <time>2020-11-14T07:24:13Z</time>
      </trkpt>
      <trkpt lat="38.8365710" lon="-0.4877370">
        <ele>375.8</ele>
        <time>2020-11-14T07:24:15Z</time>
      </trkpt>
      <trkpt lat="38.8363680" lon="-0.4875850">
        <ele>375.8</ele>
        <time>2020-11-14T07:24:18Z</time>
      </trkpt>
      <trkpt lat="38.8362740" lon="-0.4874280">
        <ele>375.9</ele>
        <time>2020-11-14T07:24:20Z</time>
      </trkpt>
      <trkpt lat="38.8362770" lon="-0.4871240">
        <ele>375.9</ele>
        <time>2020-11-14T07:24:23Z</time>
      </trkpt>
      <trkpt lat="38.8363860" lon="-0.4867170">
        <ele>375.6</ele>
        <time>2020-11-14T07:24:27Z</time>
      </trkpt>
      <trkpt lat="38.8366180" lon="-0.4861170">
        <ele>374.0</ele>
        <time>2020-11-14T07:24:33Z</time>
      </trkpt>
      <trkpt lat="38.8367470" lon="-0.4854230">
        <ele>372.3</ele>
        <time>2020-11-14T07:24:39Z</time>
      </trkpt>
      <trkpt lat="38.8367510" lon="-0.4851840">
        <ele>371.9</ele>
        <time>2020-11-14T07:24:41Z</time>
      </trkpt>
      <trkpt lat="38.8367400" lon="-0.4849610">
        <ele>371.6</ele>
        <time>2020-11-14T07:24:43Z</time>
      </trkpt>
      <trkpt lat="38.8368020" lon="-0.4847700">
        <ele>371.6</ele>
        <time>2020-11-14T07:24:45Z</time>
      </trkpt>
      <trkpt lat="38.8371100" lon="-0.4844040">
        <ele>371.6</ele>
        <time>2020-11-14T07:24:50Z</time>
      </trkpt>
      <trkpt lat="38.8372080" lon="-0.4842340">
        <ele>371.6</ele>
        <time>2020-11-14T07:24:52Z</time>
      </trkpt>
      <trkpt lat="38.8374530" lon="-0.4835610">
        <ele>370.7</ele>
        <time>2020-11-14T07:24:59Z</time>
      </trkpt>
      <trkpt lat="38.8376160" lon="-0.4830850">
        <ele>369.0</ele>
        <time>2020-11-14T07:25:04Z</time>
      </trkpt>
      <trkpt lat="38.8378070" lon="-0.4824260">
        <ele>366.2</ele>
        <time>2020-11-14T07:25:10Z</time>
      </trkpt>
      <trkpt lat="38.8378240" lon="-0.4823020">
        <ele>365.9</ele>
        <time>2020-11-14T07:25:11Z</time>
      </trkpt>
      <trkpt lat="38.8378950" lon="-0.4816920">
        <ele>365.1</ele>
        <time>2020-11-14T07:25:16Z</time>
      </trkpt>
      <trkpt lat="38.8379440" lon="-0.4811330">
        <ele>364.8</ele>
        <time>2020-11-14T07:25:21Z</time>
      </trkpt>
      <trkpt lat="38.8379440" lon="-0.4809200">
        <ele>364.6</ele>
        <time>2020-11-14T07:25:23Z</time>
      </trkpt>
      <trkpt lat="38.8379150" lon="-0.4807180">
        <ele>364.2</ele>
        <time>2020-11-14T07:25:25Z</time>
      </trkpt>
      <trkpt lat="38.8378070" lon="-0.4801300">
        <ele>361.8</ele>
        <time>2020-11-14T07:25:31Z</time>
      </trkpt>
      <trkpt lat="38.8376510" lon="-0.4795910">
        <ele>360.0</ele>
        <time>2020-11-14T07:25:36Z</time>
      </trkpt>
      <trkpt lat="38.8376820" lon="-0.4793650">
        <ele>359.7</ele>
        <time>2020-11-14T07:25:38Z</time>
      </trkpt>
      <trkpt lat="38.8377730" lon="-0.4791690">
        <ele>359.5</ele>
        <time>2020-11-14T07:25:40Z</time>
      </trkpt>
      <trkpt lat="38.8379920" lon="-0.4788110">
        <ele>358.8</ele>
        <time>2020-11-14T07:25:44Z</time>
      </trkpt>
      <trkpt lat="38.8383800" lon="-0.4782220">
        <ele>356.2</ele>
        <time>2020-11-14T07:25:51Z</time>
      </trkpt>
      <trkpt lat="38.8386560" lon="-0.4778830">
        <ele>354.3</ele>
        <time>2020-11-14T07:25:55Z</time>
      </trkpt>
      <trkpt lat="38.8387440" lon="-0.4776500">
        <ele>353.4</ele>
        <time>2020-11-14T07:25:57Z</time>
      </trkpt>
      <trkpt lat="38.8389070" lon="-0.4769080">
        <ele>350.0</ele>
        <time>2020-11-14T07:26:03Z</time>
      </trkpt>
      <trkpt lat="38.8392280" lon="-0.4762000">
        <ele>345.8</ele>
        <time>2020-11-14T07:26:09Z</time>
      </trkpt>
      <trkpt lat="38.8393460" lon="-0.4759540">
        <ele>344.6</ele>
        <time>2020-11-14T07:26:11Z</time>
      </trkpt>
      <trkpt lat="38.8396320" lon="-0.4753370">
        <ele>342.2</ele>
        <time>2020-11-14T07:26:16Z</time>
      </trkpt>
      <trkpt lat="38.8399000" lon="-0.4747590">
        <ele>340.0</ele>
        <time>2020-11-14T07:26:21Z</time>
      </trkpt>
      <trkpt lat="38.8399370" lon="-0.4746340">
        <ele>339.8</ele>
        <time>2020-11-14T07:26:22Z</time>
      </trkpt>
      <trkpt lat="38.8399970" lon="-0.4742530">
        <ele>339.2</ele>
        <time>2020-11-14T07:26:25Z</time>
      </trkpt>
      <trkpt lat="38.8400440" lon="-0.4741380">
        <ele>339.0</ele>
        <time>2020-11-14T07:26:26Z</time>
      </trkpt>
      <trkpt lat="38.8401010" lon="-0.4740320">
        <ele>338.9</ele>
        <time>2020-11-14T07:26:27Z</time>
      </trkpt>
      <trkpt lat="38.8402200" lon="-0.4738280">
        <ele>338.6</ele>
        <time>2020-11-14T07:26:29Z</time>
      </trkpt>
      <trkpt lat="38.8402690" lon="-0.4737180">
        <ele>338.4</ele>
        <time>2020-11-14T07:26:30Z</time>
      </trkpt>
      <trkpt lat="38.8403320" lon="-0.4734830">
        <ele>338.1</ele>
        <time>2020-11-14T07:26:32Z</time>
      </trkpt>
      <trkpt lat="38.8403270" lon="-0.4732410">
        <ele>337.8</ele>
        <time>2020-11-14T07:26:34Z</time>
      </trkpt>
      <trkpt lat="38.8402590" lon="-0.4730200">
        <ele>337.4</ele>
        <time>2020-11-14T07:26:36Z</time>
      </trkpt>
      <trkpt lat="38.8400790" lon="-0.4727550">
        <ele>337.0</ele>
        <time>2020-11-14T07:26:39Z</time>
      </trkpt>
      <trkpt lat="38.8399490" lon="-0.4725900">
        <ele>336.7</ele>
        <time>2020-11-14T07:26:41Z</time>
      </trkpt>
      <trkpt lat="38.8398880" lon="-0.4723860">
        <ele>336.6</ele>
        <time>2020-11-14T07:26:43Z</time>
      </trkpt>
      <trkpt lat="38.8399150" lon="-0.4721830">
        <ele>336.4</ele>
        <time>2020-11-14T07:26:45Z</time>
      </trkpt>
      <trkpt lat="38.8400460" lon="-0.4718110">
        <ele>336.1</ele>
        <time>2020-11-14T07:26:49Z</time>
      </trkpt>
      <trkpt lat="38.8403260" lon="-0.4711730">
        <ele>336.2</ele>
        <time>2020-11-14T07:26:56Z</time>
      </trkpt>
      <trkpt lat="38.8406410" lon="-0.4705570">
        <ele>336.3</ele>
        <time>2020-11-14T07:27:04Z</time>
      </trkpt>
      <trkpt lat="38.8408940" lon="-0.4699780">
        <ele>336.2</ele>
        <time>2020-11-14T07:27:11Z</time>
      </trkpt>
      <trkpt lat="38.8411540" lon="-0.4693250">
        <ele>336.1</ele>
        <time>2020-11-14T07:27:19Z</time>
      </trkpt>
      <trkpt lat="38.8413070" lon="-0.4686980">
        <ele>335.5</ele>
        <time>2020-11-14T07:27:26Z</time>
      </trkpt>
      <trkpt lat="38.8412420" lon="-0.4679530">
        <ele>335.1</ele>
        <time>2020-11-14T07:27:34Z</time>
      </trkpt>
      <trkpt lat="38.8411960" lon="-0.4675950">
        <ele>335.2</ele>
        <time>2020-11-14T07:27:38Z</time>
      </trkpt>
      <trkpt lat="38.8411830" lon="-0.4672570">
        <ele>335.6</ele>
        <time>2020-11-14T07:27:42Z</time>
      </trkpt>
      <trkpt lat="38.8413640" lon="-0.4666080">
        <ele>337.4</ele>
        <time>2020-11-14T07:27:51Z</time>
      </trkpt>
      <trkpt lat="38.8416760" lon="-0.4659800">
        <ele>340.9</ele>
        <time>2020-11-14T07:28:02Z</time>
      </trkpt>
      <trkpt lat="38.8419700" lon="-0.4653370">
        <ele>344.7</ele>
        <time>2020-11-14T07:28:15Z</time>
      </trkpt>
      <trkpt lat="38.8419940" lon="-0.4652870">
        <ele>345.1</ele>
        <time>2020-11-14T07:28:16Z</time>
      </trkpt>
      <trkpt lat="38.8421950" lon="-0.4648520">
        <ele>347.6</ele>
        <time>2020-11-14T07:28:25Z</time>
      </trkpt>
      <trkpt lat="38.8422170" lon="-0.4648020">
        <ele>347.8</ele>
        <time>2020-11-14T07:28:26Z</time>
      </trkpt>
      <trkpt lat="38.8422380" lon="-0.4647520">
        <ele>348.1</ele>
        <time>2020-11-14T07:28:27Z</time>
      </trkpt>
      <trkpt lat="38.8422610" lon="-0.4647040">
        <ele>348.3</ele>
        <time>2020-11-14T07:28:28Z</time>
      </trkpt>
      <trkpt lat="38.8423290" lon="-0.4645610">
        <ele>348.6</ele>
        <time>2020-11-14T07:28:31Z</time>
      </trkpt>
      <trkpt lat="38.8423910" lon="-0.4644180">
        <ele>349.1</ele>
        <time>2020-11-14T07:28:34Z</time>
      </trkpt>
      <trkpt lat="38.8426770" lon="-0.4637900">
        <ele>349.5</ele>
        <time>2020-11-14T07:28:45Z</time>
      </trkpt>
      <trkpt lat="38.8427840" lon="-0.4635190">
        <ele>349.1</ele>
        <time>2020-11-14T07:28:49Z</time>
      </trkpt>
      <trkpt lat="38.8428520" lon="-0.4632100">
        <ele>348.7</ele>
        <time>2020-11-14T07:28:53Z</time>
      </trkpt>
      <trkpt lat="38.8428630" lon="-0.4627080">
        <ele>347.9</ele>
        <time>2020-11-14T07:28:59Z</time>
      </trkpt>
      <trkpt lat="38.8428070" lon="-0.4621130">
        <ele>347.0</ele>
        <time>2020-11-14T07:29:06Z</time>
      </trkpt>
      <trkpt lat="38.8427570" lon="-0.4616840">
        <ele>346.3</ele>
        <time>2020-11-14T07:29:11Z</time>
      </trkpt>
      <trkpt lat="38.8427040" lon="-0.4615150">
        <ele>346.0</ele>
        <time>2020-11-14T07:29:13Z</time>
      </trkpt>
      <trkpt lat="38.8426110" lon="-0.4613750">
        <ele>345.7</ele>
        <time>2020-11-14T07:29:15Z</time>
      </trkpt>
      <trkpt lat="38.8424850" lon="-0.4612870">
        <ele>345.5</ele>
        <time>2020-11-14T07:29:17Z</time>
      </trkpt>
      <trkpt lat="38.8423410" lon="-0.4612560">
        <ele>345.2</ele>
        <time>2020-11-14T07:29:19Z</time>
      </trkpt>
      <trkpt lat="38.8421940" lon="-0.4612690">
        <ele>344.9</ele>
        <time>2020-11-14T07:29:21Z</time>
      </trkpt>
      <trkpt lat="38.8417640" lon="-0.4613950">
        <ele>343.8</ele>
        <time>2020-11-14T07:29:27Z</time>
      </trkpt>
      <trkpt lat="38.8416090" lon="-0.4614000">
        <ele>343.4</ele>
        <time>2020-11-14T07:29:29Z</time>
      </trkpt>
      <trkpt lat="38.8414610" lon="-0.4613370">
        <ele>343.1</ele>
        <time>2020-11-14T07:29:31Z</time>
      </trkpt>
      <trkpt lat="38.8413430" lon="-0.4612020">
        <ele>343.0</ele>
        <time>2020-11-14T07:29:33Z</time>
      </trkpt>
      <trkpt lat="38.8412990" lon="-0.4611200">
        <ele>342.9</ele>
        <time>2020-11-14T07:29:34Z</time>
      </trkpt>
      <trkpt lat="38.8409850" lon="-0.4605090">
        <ele>344.0</ele>
        <time>2020-11-14T07:29:42Z</time>
      </trkpt>
      <trkpt lat="38.8407140" lon="-0.4599030">
        <ele>347.2</ele>
        <time>2020-11-14T07:29:52Z</time>
      </trkpt>
      <trkpt lat="38.8406760" lon="-0.4597810">
        <ele>347.8</ele>
        <time>2020-11-14T07:29:54Z</time>
      </trkpt>
      <trkpt lat="38.8406500" lon="-0.4596440">
        <ele>348.3</ele>
        <time>2020-11-14T07:29:56Z</time>
      </trkpt>
      <trkpt lat="38.8406580" lon="-0.4594590">
        <ele>349.0</ele>
        <time>2020-11-14T07:29:59Z</time>
      </trkpt>
      <trkpt lat="38.8406990" lon="-0.4593420">
        <ele>349.5</ele>
        <time>2020-11-14T07:30:01Z</time>
      </trkpt>
      <trkpt lat="38.8407620" lon="-0.4592430">
        <ele>350.1</ele>
        <time>2020-11-14T07:30:03Z</time>
      </trkpt>
      <trkpt lat="38.8411140" lon="-0.4589360">
        <ele>352.3</ele>
        <time>2020-11-14T07:30:11Z</time>
      </trkpt>
      <trkpt lat="38.8416670" lon="-0.4587780">
        <ele>353.9</ele>
        <time>2020-11-14T07:30:21Z</time>
      </trkpt>
      <trkpt lat="38.8420450" lon="-0.4587620">
        <ele>353.5</ele>
        <time>2020-11-14T07:30:27Z</time>
      </trkpt>
      <trkpt lat="38.8421700" lon="-0.4587180">
        <ele>353.3</ele>
        <time>2020-11-14T07:30:29Z</time>
      </trkpt>
      <trkpt lat="38.8422880" lon="-0.4586190">
        <ele>353.1</ele>
        <time>2020-11-14T07:30:31Z</time>
      </trkpt>
      <trkpt lat="38.8423730" lon="-0.4584690">
        <ele>353.0</ele>
        <time>2020-11-14T07:30:33Z</time>
      </trkpt>
      <trkpt lat="38.8424280" lon="-0.4582990">
        <ele>352.8</ele>
        <time>2020-11-14T07:30:35Z</time>
      </trkpt>
      <trkpt lat="38.8424980" lon="-0.4579380">
        <ele>352.6</ele>
        <time>2020-11-14T07:30:39Z</time>
      </trkpt>
      <trkpt lat="38.8425060" lon="-0.4578470">
        <ele>352.5</ele>
        <time>2020-11-14T07:30:40Z</time>
      </trkpt>
      <trkpt lat="38.8424900" lon="-0.4576630">
        <ele>352.4</ele>
        <time>2020-11-14T07:30:42Z</time>
      </trkpt>
      <trkpt lat="38.8424250" lon="-0.4574970">
        <ele>352.2</ele>
        <time>2020-11-14T07:30:44Z</time>
      </trkpt>
      <trkpt lat="38.8421820" lon="-0.4571480">
        <ele>351.7</ele>
        <time>2020-11-14T07:30:49Z</time>
      </trkpt>
      <trkpt lat="38.8420290" lon="-0.4569410">
        <ele>351.4</ele>
        <time>2020-11-14T07:30:52Z</time>
      </trkpt>
      <trkpt lat="38.8416460" lon="-0.4564170">
        <ele>350.8</ele>
        <time>2020-11-14T07:30:59Z</time>
      </trkpt>
      <trkpt lat="38.8415940" lon="-0.4563430">
        <ele>350.8</ele>
        <time>2020-11-14T07:31:00Z</time>
      </trkpt>
      <trkpt lat="38.8415440" lon="-0.4562730">
        <ele>350.7</ele>
        <time>2020-11-14T07:31:01Z</time>
      </trkpt>
      <trkpt lat="38.8414940" lon="-0.4562040">
        <ele>350.7</ele>
        <time>2020-11-14T07:31:02Z</time>
      </trkpt>
      <trkpt lat="38.8413970" lon="-0.4560630">
        <ele>350.6</ele>
        <time>2020-11-14T07:31:04Z</time>
      </trkpt>
      <trkpt lat="38.8410600" lon="-0.4555840">
        <ele>350.5</ele>
        <time>2020-11-14T07:31:11Z</time>
      </trkpt>
      <trkpt lat="38.8410230" lon="-0.4555050">
        <ele>350.6</ele>
        <time>2020-11-14T07:31:12Z</time>
      </trkpt>
      <trkpt lat="38.8409780" lon="-0.4553400">
        <ele>350.9</ele>
        <time>2020-11-14T07:31:14Z</time>
      </trkpt>
      <trkpt lat="38.8409720" lon="-0.4551790">
        <ele>351.1</ele>
        <time>2020-11-14T07:31:16Z</time>
      </trkpt>
      <trkpt lat="38.8410220" lon="-0.4550200">
        <ele>351.2</ele>
        <time>2020-11-14T07:31:18Z</time>
      </trkpt>
      <trkpt lat="38.8411480" lon="-0.4548410">
        <ele>351.4</ele>
        <time>2020-11-14T07:31:20Z</time>
      </trkpt>
      <trkpt lat="38.8416160" lon="-0.4544850">
        <ele>352.3</ele>
        <time>2020-11-14T07:31:29Z</time>
      </trkpt>
      <trkpt lat="38.8421520" lon="-0.4542980">
        <ele>352.5</ele>
        <time>2020-11-14T07:31:37Z</time>
      </trkpt>
      <trkpt lat="38.8427030" lon="-0.4539910">
        <ele>351.6</ele>
        <time>2020-11-14T07:31:45Z</time>
      </trkpt>
      <trkpt lat="38.8432420" lon="-0.4536190">
        <ele>350.3</ele>
        <time>2020-11-14T07:31:53Z</time>
      </trkpt>
      <trkpt lat="38.8433660" lon="-0.4534950">
        <ele>349.8</ele>
        <time>2020-11-14T07:31:55Z</time>
      </trkpt>
      <trkpt lat="38.8434770" lon="-0.4533460">
        <ele>349.4</ele>
        <time>2020-11-14T07:31:57Z</time>
      </trkpt>
      <trkpt lat="38.8438340" lon="-0.4527780">
        <ele>348.0</ele>
        <time>2020-11-14T07:32:04Z</time>
      </trkpt>
      <trkpt lat="38.8440660" lon="-0.4524720">
        <ele>347.4</ele>
        <time>2020-11-14T07:32:08Z</time>
      </trkpt>
      <trkpt lat="38.8444160" lon="-0.4522110">
        <ele>347.2</ele>
        <time>2020-11-14T07:32:13Z</time>
      </trkpt>
      <trkpt lat="38.8449020" lon="-0.4518560">
        <ele>347.3</ele>
        <time>2020-11-14T07:32:20Z</time>
      </trkpt>
      <trkpt lat="38.8450130" lon="-0.4517000">
        <ele>347.3</ele>
        <time>2020-11-14T07:32:22Z</time>
      </trkpt>
      <trkpt lat="38.8450990" lon="-0.4515160">
        <ele>347.1</ele>
        <time>2020-11-14T07:32:24Z</time>
      </trkpt>
      <trkpt lat="38.8451480" lon="-0.4513160">
        <ele>346.8</ele>
        <time>2020-11-14T07:32:26Z</time>
      </trkpt>
      <trkpt lat="38.8451530" lon="-0.4511010">
        <ele>346.6</ele>
        <time>2020-11-14T07:32:28Z</time>
      </trkpt>
      <trkpt lat="38.8449950" lon="-0.4503590">
        <ele>345.7</ele>
        <time>2020-11-14T07:32:35Z</time>
      </trkpt>
      <trkpt lat="38.8448240" lon="-0.4498470">
        <ele>345.0</ele>
        <time>2020-11-14T07:32:40Z</time>
      </trkpt>
      <trkpt lat="38.8446580" lon="-0.4495890">
        <ele>344.7</ele>
        <time>2020-11-14T07:32:43Z</time>
      </trkpt>
      <trkpt lat="38.8443010" lon="-0.4493170">
        <ele>344.5</ele>
        <time>2020-11-14T07:32:48Z</time>
      </trkpt>
      <trkpt lat="38.8441960" lon="-0.4491590">
        <ele>344.4</ele>
        <time>2020-11-14T07:32:50Z</time>
      </trkpt>
      <trkpt lat="38.8441440" lon="-0.4489710">
        <ele>344.4</ele>
        <time>2020-11-14T07:32:52Z</time>
      </trkpt>
      <trkpt lat="38.8441480" lon="-0.4487740">
        <ele>344.4</ele>
        <time>2020-11-14T07:32:54Z</time>
      </trkpt>
      <trkpt lat="38.8442330" lon="-0.4484790">
        <ele>344.5</ele>
        <time>2020-11-14T07:32:57Z</time>
      </trkpt>
      <trkpt lat="38.8443460" lon="-0.4481820">
        <ele>344.6</ele>
        <time>2020-11-14T07:33:00Z</time>
      </trkpt>
      <trkpt lat="38.8444600" lon="-0.4480240">
        <ele>344.9</ele>
        <time>2020-11-14T07:33:02Z</time>
      </trkpt>
      <trkpt lat="38.8449130" lon="-0.4476200">
        <ele>346.5</ele>
        <time>2020-11-14T07:33:09Z</time>
      </trkpt>
      <trkpt lat="38.8453070" lon="-0.4471270">
        <ele>348.2</ele>
        <time>2020-11-14T07:33:17Z</time>
      </trkpt>
      <trkpt lat="38.8455960" lon="-0.4464760">
        <ele>350.0</ele>
        <time>2020-11-14T07:33:26Z</time>
      </trkpt>
      <trkpt lat="38.8458630" lon="-0.4458410">
        <ele>351.7</ele>
        <time>2020-11-14T07:33:35Z</time>
      </trkpt>
      <trkpt lat="38.8461510" lon="-0.4452330">
        <ele>353.0</ele>
        <time>2020-11-14T07:33:44Z</time>
      </trkpt>
      <trkpt lat="38.8465870" lon="-0.4448330">
        <ele>353.6</ele>
        <time>2020-11-14T07:33:53Z</time>
      </trkpt>
      <trkpt lat="38.8471150" lon="-0.4446490">
        <ele>353.4</ele>
        <time>2020-11-14T07:34:01Z</time>
      </trkpt>
      <trkpt lat="38.8477030" lon="-0.4444440">
        <ele>352.8</ele>
        <time>2020-11-14T07:34:10Z</time>
      </trkpt>
      <trkpt lat="38.8482570" lon="-0.4442570">
        <ele>351.9</ele>
        <time>2020-11-14T07:34:18Z</time>
      </trkpt>
      <trkpt lat="38.8484590" lon="-0.4441620">
        <ele>351.2</ele>
        <time>2020-11-14T07:34:21Z</time>
      </trkpt>
      <trkpt lat="38.8485800" lon="-0.4440510">
        <ele>350.6</ele>
        <time>2020-11-14T07:34:23Z</time>
      </trkpt>
      <trkpt lat="38.8486830" lon="-0.4438910">
        <ele>349.8</ele>
        <time>2020-11-14T07:34:25Z</time>
      </trkpt>
      <trkpt lat="38.8487500" lon="-0.4436930">
        <ele>349.0</ele>
        <time>2020-11-14T07:34:27Z</time>
      </trkpt>
      <trkpt lat="38.8488020" lon="-0.4433610">
        <ele>347.8</ele>
        <time>2020-11-14T07:34:30Z</time>
      </trkpt>
      <trkpt lat="38.8488150" lon="-0.4432470">
        <ele>347.4</ele>
        <time>2020-11-14T07:34:31Z</time>
      </trkpt>
      <trkpt lat="38.8488280" lon="-0.4431340">
        <ele>347.1</ele>
        <time>2020-11-14T07:34:32Z</time>
      </trkpt>
      <trkpt lat="38.8488410" lon="-0.4430210">
        <ele>346.7</ele>
        <time>2020-11-14T07:34:33Z</time>
      </trkpt>
      <trkpt lat="38.8489180" lon="-0.4423330">
        <ele>344.2</ele>
        <time>2020-11-14T07:34:39Z</time>
      </trkpt>
      <trkpt lat="38.8489850" lon="-0.4416240">
        <ele>341.6</ele>
        <time>2020-11-14T07:34:45Z</time>
      </trkpt>
      <trkpt lat="38.8489990" lon="-0.4412640">
        <ele>340.5</ele>
        <time>2020-11-14T07:34:48Z</time>
      </trkpt>
      <trkpt lat="38.8489640" lon="-0.4407780">
        <ele>339.0</ele>
        <time>2020-11-14T07:34:52Z</time>
      </trkpt>
      <trkpt lat="38.8488650" lon="-0.4400770">
        <ele>337.2</ele>
        <time>2020-11-14T07:34:58Z</time>
      </trkpt>
      <trkpt lat="38.8488670" lon="-0.4393740">
        <ele>336.4</ele>
        <time>2020-11-14T07:35:04Z</time>
      </trkpt>
      <trkpt lat="38.8489200" lon="-0.4390430">
        <ele>336.8</ele>
        <time>2020-11-14T07:35:07Z</time>
      </trkpt>
      <trkpt lat="38.8490130" lon="-0.4388800">
        <ele>337.2</ele>
        <time>2020-11-14T07:35:09Z</time>
      </trkpt>
      <trkpt lat="38.8491600" lon="-0.4387890">
        <ele>337.8</ele>
        <time>2020-11-14T07:35:11Z</time>
      </trkpt>
      <trkpt lat="38.8497250" lon="-0.4386610">
        <ele>340.5</ele>
        <time>2020-11-14T07:35:19Z</time>
      </trkpt>
      <trkpt lat="38.8497820" lon="-0.4386390">
        <ele>340.5</ele>
        <time>2020-11-14T07:35:20Z</time>
      </trkpt>
      <trkpt lat="38.8498390" lon="-0.4385300">
        <ele>340.6</ele>
        <time>2020-11-14T07:35:22Z</time>
      </trkpt>
      <trkpt lat="38.8498280" lon="-0.4383860">
        <ele>340.9</ele>
        <time>2020-11-14T07:35:24Z</time>
      </trkpt>
      <trkpt lat="38.8497730" lon="-0.4382490">
        <ele>341.0</ele>
        <time>2020-11-14T07:35:26Z</time>
      </trkpt>
      <trkpt lat="38.8496560" lon="-0.4381870">
        <ele>341.1</ele>
        <time>2020-11-14T07:35:28Z</time>
      </trkpt>
      <trkpt lat="38.8495250" lon="-0.4382010">
        <ele>341.2</ele>
        <time>2020-11-14T07:35:30Z</time>
      </trkpt>
      <trkpt lat="38.8489660" lon="-0.4384080">
        <ele>342.8</ele>
        <time>2020-11-14T07:35:39Z</time>
      </trkpt>
      <trkpt lat="38.8484100" lon="-0.4385870">
        <ele>345.3</ele>
        <time>2020-11-14T07:35:49Z</time>
      </trkpt>
      <trkpt lat="38.8478480" lon="-0.4386880">
        <ele>347.8</ele>
        <time>2020-11-14T07:36:00Z</time>
      </trkpt>
      <trkpt lat="38.8472900" lon="-0.4387140">
        <ele>351.5</ele>
        <time>2020-11-14T07:36:13Z</time>
      </trkpt>
      <trkpt lat="38.8467360" lon="-0.4386320">
        <ele>355.4</ele>
        <time>2020-11-14T07:36:29Z</time>
      </trkpt>
      <trkpt lat="38.8461740" lon="-0.4385670">
        <ele>358.9</ele>
        <time>2020-11-14T07:36:44Z</time>
      </trkpt>
      <trkpt lat="38.8458950" lon="-0.4385640">
        <ele>360.5</ele>
        <time>2020-11-14T07:36:51Z</time>
      </trkpt>
      <trkpt lat="38.8454230" lon="-0.4385790">
        <ele>362.7</ele>
        <time>2020-11-14T07:37:02Z</time>
      </trkpt>
      <trkpt lat="38.8452340" lon="-0.4385240">
        <ele>363.3</ele>
        <time>2020-11-14T07:37:06Z</time>
      </trkpt>
      <trkpt lat="38.8450970" lon="-0.4384280">
        <ele>363.4</ele>
        <time>2020-11-14T07:37:09Z</time>
      </trkpt>
      <trkpt lat="38.8447400" lon="-0.4379910">
        <ele>362.7</ele>
        <time>2020-11-14T07:37:17Z</time>
      </trkpt>
      <trkpt lat="38.8443610" lon="-0.4374530">
        <ele>362.0</ele>
        <time>2020-11-14T07:37:25Z</time>
      </trkpt>
      <trkpt lat="38.8440130" lon="-0.4368650">
        <ele>360.9</ele>
        <time>2020-11-14T07:37:33Z</time>
      </trkpt>
      <trkpt lat="38.8439570" lon="-0.4368040">
        <ele>360.8</ele>
        <time>2020-11-14T07:37:34Z</time>
      </trkpt>
      <trkpt lat="38.8438280" lon="-0.4367060">
        <ele>360.4</ele>
        <time>2020-11-14T07:37:36Z</time>
      </trkpt>
      <trkpt lat="38.8437530" lon="-0.4366760">
        <ele>360.2</ele>
        <time>2020-11-14T07:37:37Z</time>
      </trkpt>
      <trkpt lat="38.8436760" lon="-0.4366570">
        <ele>359.9</ele>
        <time>2020-11-14T07:37:38Z</time>
      </trkpt>
      <trkpt lat="38.8433660" lon="-0.4365540">
        <ele>358.8</ele>
        <time>2020-11-14T07:37:42Z</time>
      </trkpt>
      <trkpt lat="38.8430750" lon="-0.4363690">
        <ele>357.4</ele>
        <time>2020-11-14T07:37:46Z</time>
      </trkpt>
      <trkpt lat="38.8426500" lon="-0.4361490">
        <ele>355.5</ele>
        <time>2020-11-14T07:37:51Z</time>
      </trkpt>
      <trkpt lat="38.8425180" lon="-0.4359620">
        <ele>355.3</ele>
        <time>2020-11-14T07:37:53Z</time>
      </trkpt>
      <trkpt lat="38.8424410" lon="-0.4357440">
        <ele>355.4</ele>
        <time>2020-11-14T07:37:55Z</time>
      </trkpt>
      <trkpt lat="38.8423800" lon="-0.4352810">
        <ele>356.5</ele>
        <time>2020-11-14T07:38:00Z</time>
      </trkpt>
      <trkpt lat="38.8423640" lon="-0.4349860">
        <ele>357.6</ele>
        <time>2020-11-14T07:38:04Z</time>
      </trkpt>
      <trkpt lat="38.8423680" lon="-0.4347850">
        <ele>358.6</ele>
        <time>2020-11-14T07:38:07Z</time>
      </trkpt>
      <trkpt lat="38.8424020" lon="-0.4346570">
        <ele>359.3</ele>
        <time>2020-11-14T07:38:09Z</time>
      </trkpt>
      <trkpt lat="38.8427130" lon="-0.4340320">
        <ele>363.2</ele>
        <time>2020-11-14T07:38:20Z</time>
      </trkpt>
      <trkpt lat="38.8428060" lon="-0.4338660">
        <ele>364.1</ele>
        <time>2020-11-14T07:38:23Z</time>
      </trkpt>
      <trkpt lat="38.8428510" lon="-0.4337390">
        <ele>364.6</ele>
        <time>2020-11-14T07:38:25Z</time>
      </trkpt>
      <trkpt lat="38.8428690" lon="-0.4336040">
        <ele>365.1</ele>
        <time>2020-11-14T07:38:27Z</time>
      </trkpt>
      <trkpt lat="38.8428630" lon="-0.4334750">
        <ele>365.5</ele>
        <time>2020-11-14T07:38:29Z</time>
      </trkpt>
      <trkpt lat="38.8428270" lon="-0.4333540">
        <ele>365.8</ele>
        <time>2020-11-14T07:38:31Z</time>
      </trkpt>
      <trkpt lat="38.8427270" lon="-0.4331370">
        <ele>366.5</ele>
        <time>2020-11-14T07:38:35Z</time>
      </trkpt>
      <trkpt lat="38.8425810" lon="-0.4328860">
        <ele>367.5</ele>
        <time>2020-11-14T07:38:40Z</time>
      </trkpt>
      <trkpt lat="38.8424180" lon="-0.4325650">
        <ele>368.8</ele>
        <time>2020-11-14T07:38:46Z</time>
      </trkpt>
      <trkpt lat="38.8424020" lon="-0.4324400">
        <ele>369.2</ele>
        <time>2020-11-14T07:38:48Z</time>
      </trkpt>
      <trkpt lat="38.8424100" lon="-0.4323160">
        <ele>369.7</ele>
        <time>2020-11-14T07:38:50Z</time>
      </trkpt>
      <trkpt lat="38.8424490" lon="-0.4321340">
        <ele>370.4</ele>
        <time>2020-11-14T07:38:53Z</time>
      </trkpt>
      <trkpt lat="38.8424880" lon="-0.4320220">
        <ele>370.8</ele>
        <time>2020-11-14T07:38:55Z</time>
      </trkpt>
      <trkpt lat="38.8426100" lon="-0.4317610">
        <ele>372.0</ele>
        <time>2020-11-14T07:39:00Z</time>
      </trkpt>
      <trkpt lat="38.8426360" lon="-0.4317100">
        <ele>372.2</ele>
        <time>2020-11-14T07:39:01Z</time>
      </trkpt>
      <trkpt lat="38.8427540" lon="-0.4314550">
        <ele>373.3</ele>
        <time>2020-11-14T07:39:06Z</time>
      </trkpt>
      <trkpt lat="38.8428270" lon="-0.4313130">
        <ele>374.0</ele>
        <time>2020-11-14T07:39:09Z</time>
      </trkpt>
      <trkpt lat="38.8428530" lon="-0.4312640">
        <ele>374.2</ele>
        <time>2020-11-14T07:39:10Z</time>
      </trkpt>
      <trkpt lat="38.8429010" lon="-0.4311640">
        <ele>374.7</ele>
        <time>2020-11-14T07:39:12Z</time>
      </trkpt>
      <trkpt lat="38.8429250" lon="-0.4311140">
        <ele>374.9</ele>
        <time>2020-11-14T07:39:13Z</time>
      </trkpt>
      <trkpt lat="38.8429830" lon="-0.4310230">
        <ele>375.4</ele>
        <time>2020-11-14T07:39:15Z</time>
      </trkpt>
      <trkpt lat="38.8431320" lon="-0.4308990">
        <ele>376.3</ele>
        <time>2020-11-14T07:39:19Z</time>
      </trkpt>
      <trkpt lat="38.8432160" lon="-0.4308510">
        <ele>376.8</ele>
        <time>2020-11-14T07:39:21Z</time>
      </trkpt>
      <trkpt lat="38.8432990" lon="-0.4308050">
        <ele>377.3</ele>
        <time>2020-11-14T07:39:23Z</time>
      </trkpt>
      <trkpt lat="38.8435100" lon="-0.4307070">
        <ele>378.3</ele>
        <time>2020-11-14T07:39:28Z</time>
      </trkpt>
      <trkpt lat="38.8436250" lon="-0.4306180">
        <ele>378.9</ele>
        <time>2020-11-14T07:39:31Z</time>
      </trkpt>
      <trkpt lat="38.8436880" lon="-0.4305380">
        <ele>379.2</ele>
        <time>2020-11-14T07:39:33Z</time>
      </trkpt>
      <trkpt lat="38.8437380" lon="-0.4304390">
        <ele>379.6</ele>
        <time>2020-11-14T07:39:35Z</time>
      </trkpt>
      <trkpt lat="38.8437770" lon="-0.4302030">
        <ele>379.9</ele>
        <time>2020-11-14T07:39:39Z</time>
      </trkpt>
      <trkpt lat="38.8437700" lon="-0.4300800">
        <ele>379.8</ele>
        <time>2020-11-14T07:39:41Z</time>
      </trkpt>
      <trkpt lat="38.8437560" lon="-0.4299470">
        <ele>379.7</ele>
        <time>2020-11-14T07:39:43Z</time>
      </trkpt>
      <trkpt lat="38.8437320" lon="-0.4297260">
        <ele>379.3</ele>
        <time>2020-11-14T07:39:46Z</time>
      </trkpt>
      <trkpt lat="38.8437120" lon="-0.4295690">
        <ele>378.9</ele>
        <time>2020-11-14T07:39:48Z</time>
      </trkpt>
      <trkpt lat="38.8436490" lon="-0.4291380">
        <ele>377.4</ele>
        <time>2020-11-14T07:39:53Z</time>
      </trkpt>
      <trkpt lat="38.8435840" lon="-0.4289720">
        <ele>376.4</ele>
        <time>2020-11-14T07:39:55Z</time>
      </trkpt>
      <trkpt lat="38.8434320" lon="-0.4287410">
        <ele>374.7</ele>
        <time>2020-11-14T07:39:58Z</time>
      </trkpt>
      <trkpt lat="38.8432050" lon="-0.4285650">
        <ele>372.7</ele>
        <time>2020-11-14T07:40:00Z</time>
      </trkpt>
      <trkpt lat="38.8429240" lon="-0.4284870">
        <ele>370.4</ele>
        <time>2020-11-14T07:40:04Z</time>
      </trkpt>
      <trkpt lat="38.8424030" lon="-0.4285320">
        <ele>367.3</ele>
        <time>2020-11-14T07:40:09Z</time>
      </trkpt>
      <trkpt lat="38.8423010" lon="-0.4285180">
        <ele>367.2</ele>
        <time>2020-11-14T07:40:10Z</time>
      </trkpt>
      <trkpt lat="38.8421170" lon="-0.4283900">
        <ele>367.6</ele>
        <time>2020-11-14T07:40:12Z</time>
      </trkpt>
      <trkpt lat="38.8420070" lon="-0.4281800">
        <ele>367.4</ele>
        <time>2020-11-14T07:40:14Z</time>
      </trkpt>
      <trkpt lat="38.8420330" lon="-0.4279560">
        <ele>367.9</ele>
        <time>2020-11-14T07:40:16Z</time>
      </trkpt>
      <trkpt lat="38.8421270" lon="-0.4277510">
        <ele>368.7</ele>
        <time>2020-11-14T07:40:18Z</time>
      </trkpt>
      <trkpt lat="38.8425260" lon="-0.4271600">
        <ele>371.9</ele>
        <time>2020-11-14T07:40:26Z</time>
      </trkpt>
      <trkpt lat="38.8427740" lon="-0.4268400">
        <ele>373.0</ele>
        <time>2020-11-14T07:40:31Z</time>
      </trkpt>
      <trkpt lat="38.8431810" lon="-0.4262830">
        <ele>374.4</ele>
        <time>2020-11-14T07:40:41Z</time>
      </trkpt>
      <trkpt lat="38.8433570" lon="-0.4260720">
        <ele>374.8</ele>
        <time>2020-11-14T07:40:45Z</time>
      </trkpt>
      <trkpt lat="38.8434690" lon="-0.4259930">
        <ele>374.9</ele>
        <time>2020-11-14T07:40:47Z</time>
      </trkpt>
      <trkpt lat="38.8435950" lon="-0.4259370">
        <ele>375.2</ele>
        <time>2020-11-14T07:40:49Z</time>
      </trkpt>
      <trkpt lat="38.8441490" lon="-0.4257840">
        <ele>377.1</ele>
        <time>2020-11-14T07:40:58Z</time>
      </trkpt>
      <trkpt lat="38.8443490" lon="-0.4257090">
        <ele>378.0</ele>
        <time>2020-11-14T07:41:02Z</time>
      </trkpt>
      <trkpt lat="38.8444310" lon="-0.4256300">
        <ele>378.3</ele>
        <time>2020-11-14T07:41:04Z</time>
      </trkpt>
      <trkpt lat="38.8444880" lon="-0.4255180">
        <ele>378.6</ele>
        <time>2020-11-14T07:41:06Z</time>
      </trkpt>
      <trkpt lat="38.8445190" lon="-0.4253840">
        <ele>378.9</ele>
        <time>2020-11-14T07:41:08Z</time>
      </trkpt>
      <trkpt lat="38.8445150" lon="-0.4252500">
        <ele>379.1</ele>
        <time>2020-11-14T07:41:10Z</time>
      </trkpt>
      <trkpt lat="38.8443690" lon="-0.4248130">
        <ele>379.5</ele>
        <time>2020-11-14T07:41:17Z</time>
      </trkpt>
      <trkpt lat="38.8442990" lon="-0.4247120">
        <ele>379.4</ele>
        <time>2020-11-14T07:41:19Z</time>
      </trkpt>
      <trkpt lat="38.8442150" lon="-0.4246330">
        <ele>379.2</ele>
        <time>2020-11-14T07:41:21Z</time>
      </trkpt>
      <trkpt lat="38.8441170" lon="-0.4245800">
        <ele>378.8</ele>
        <time>2020-11-14T07:41:23Z</time>
      </trkpt>
      <trkpt lat="38.8435880" lon="-0.4244270">
        <ele>375.6</ele>
        <time>2020-11-14T07:41:31Z</time>
      </trkpt>
      <trkpt lat="38.8430970" lon="-0.4242510">
        <ele>372.0</ele>
        <time>2020-11-14T07:41:37Z</time>
      </trkpt>
      <trkpt lat="38.8429620" lon="-0.4240940">
        <ele>370.7</ele>
        <time>2020-11-14T07:41:39Z</time>
      </trkpt>
      <trkpt lat="38.8428870" lon="-0.4238530">
        <ele>369.5</ele>
        <time>2020-11-14T07:41:41Z</time>
      </trkpt>
      <trkpt lat="38.8429090" lon="-0.4230380">
        <ele>368.2</ele>
        <time>2020-11-14T07:41:47Z</time>
      </trkpt>
      <trkpt lat="38.8430000" lon="-0.4227980">
        <ele>368.9</ele>
        <time>2020-11-14T07:41:49Z</time>
      </trkpt>
      <trkpt lat="38.8431430" lon="-0.4226440">
        <ele>369.9</ele>
        <time>2020-11-14T07:41:51Z</time>
      </trkpt>
      <trkpt lat="38.8434310" lon="-0.4224850">
        <ele>371.8</ele>
        <time>2020-11-14T07:41:55Z</time>
      </trkpt>
      <trkpt lat="38.8435390" lon="-0.4223900">
        <ele>372.4</ele>
        <time>2020-11-14T07:41:57Z</time>
      </trkpt>
      <trkpt lat="38.8436220" lon="-0.4222580">
        <ele>372.6</ele>
        <time>2020-11-14T07:41:59Z</time>
      </trkpt>
      <trkpt lat="38.8437020" lon="-0.4220240">
        <ele>372.3</ele>
        <time>2020-11-14T07:42:02Z</time>
      </trkpt>
      <trkpt lat="38.8437750" lon="-0.4216580">
        <ele>371.4</ele>
        <time>2020-11-14T07:42:06Z</time>
      </trkpt>
      <trkpt lat="38.8437920" lon="-0.4215610">
        <ele>371.1</ele>
        <time>2020-11-14T07:42:07Z</time>
      </trkpt>
      <trkpt lat="38.8438130" lon="-0.4214630">
        <ele>370.8</ele>
        <time>2020-11-14T07:42:08Z</time>
      </trkpt>
      <trkpt lat="38.8439020" lon="-0.4211820">
        <ele>369.9</ele>
        <time>2020-11-14T07:42:11Z</time>
      </trkpt>
      <trkpt lat="38.8440020" lon="-0.4210270">
        <ele>369.1</ele>
        <time>2020-11-14T07:42:13Z</time>
      </trkpt>
      <trkpt lat="38.8441540" lon="-0.4209280">
        <ele>368.4</ele>
        <time>2020-11-14T07:42:15Z</time>
      </trkpt>
      <trkpt lat="38.8443310" lon="-0.4209010">
        <ele>367.8</ele>
        <time>2020-11-14T07:42:17Z</time>
      </trkpt>
      <trkpt lat="38.8448770" lon="-0.4211370">
        <ele>366.0</ele>
        <time>2020-11-14T07:42:23Z</time>
      </trkpt>
      <trkpt lat="38.8452500" lon="-0.4212860">
        <ele>365.9</ele>
        <time>2020-11-14T07:42:27Z</time>
      </trkpt>
      <trkpt lat="38.8454360" lon="-0.4213070">
        <ele>366.0</ele>
        <time>2020-11-14T07:42:29Z</time>
      </trkpt>
      <trkpt lat="38.8456110" lon="-0.4212620">
        <ele>366.3</ele>
        <time>2020-11-14T07:42:31Z</time>
      </trkpt>
      <trkpt lat="38.8461150" lon="-0.4209720">
        <ele>367.4</ele>
        <time>2020-11-14T07:42:38Z</time>
      </trkpt>
      <trkpt lat="38.8462940" lon="-0.4208290">
        <ele>368.0</ele>
        <time>2020-11-14T07:42:41Z</time>
      </trkpt>
      <trkpt lat="38.8463850" lon="-0.4207020">
        <ele>368.5</ele>
        <time>2020-11-14T07:42:43Z</time>
      </trkpt>
      <trkpt lat="38.8464960" lon="-0.4203210">
        <ele>369.8</ele>
        <time>2020-11-14T07:42:48Z</time>
      </trkpt>
      <trkpt lat="38.8464970" lon="-0.4195980">
        <ele>372.0</ele>
        <time>2020-11-14T07:42:58Z</time>
      </trkpt>
      <trkpt lat="38.8465120" lon="-0.4191940">
        <ele>373.3</ele>
        <time>2020-11-14T07:43:04Z</time>
      </trkpt>
      <trkpt lat="38.8465640" lon="-0.4189970">
        <ele>373.9</ele>
        <time>2020-11-14T07:43:07Z</time>
      </trkpt>
      <trkpt lat="38.8466190" lon="-0.4188730">
        <ele>374.2</ele>
        <time>2020-11-14T07:43:09Z</time>
      </trkpt>
      <trkpt lat="38.8466980" lon="-0.4187700">
        <ele>374.5</ele>
        <time>2020-11-14T07:43:11Z</time>
      </trkpt>
      <trkpt lat="38.8467970" lon="-0.4186950">
        <ele>374.8</ele>
        <time>2020-11-14T07:43:13Z</time>
      </trkpt>
      <trkpt lat="38.8469600" lon="-0.4186270">
        <ele>375.3</ele>
        <time>2020-11-14T07:43:16Z</time>
      </trkpt>
      <trkpt lat="38.8475020" lon="-0.4184430">
        <ele>376.6</ele>
        <time>2020-11-14T07:43:26Z</time>
      </trkpt>
      <trkpt lat="38.8479990" lon="-0.4181470">
        <ele>377.8</ele>
        <time>2020-11-14T07:43:36Z</time>
      </trkpt>
      <trkpt lat="38.8484760" lon="-0.4177740">
        <ele>378.8</ele>
        <time>2020-11-14T07:43:46Z</time>
      </trkpt>
      <trkpt lat="38.8489780" lon="-0.4173800">
        <ele>379.7</ele>
        <time>2020-11-14T07:43:57Z</time>
      </trkpt>
      <trkpt lat="38.8492000" lon="-0.4171860">
        <ele>380.0</ele>
        <time>2020-11-14T07:44:01Z</time>
      </trkpt>
      <trkpt lat="38.8492270" lon="-0.4171350">
        <ele>380.1</ele>
        <time>2020-11-14T07:44:03Z</time>
      </trkpt>
      <trkpt lat="38.8492440" lon="-0.4170250">
        <ele>380.2</ele>
        <time>2020-11-14T07:44:05Z</time>
      </trkpt>
      <trkpt lat="38.8492220" lon="-0.4168710">
        <ele>380.6</ele>
        <time>2020-11-14T07:44:08Z</time>
      </trkpt>
      <trkpt lat="38.8492100" lon="-0.4167460">
        <ele>380.2</ele>
        <time>2020-11-14T07:44:10Z</time>
      </trkpt>
      <trkpt lat="38.8491630" lon="-0.4166100">
        <ele>379.8</ele>
        <time>2020-11-14T07:44:12Z</time>
      </trkpt>
      <trkpt lat="38.8490290" lon="-0.4164300">
        <ele>379.3</ele>
        <time>2020-11-14T07:44:15Z</time>
      </trkpt>
      <trkpt lat="38.8485830" lon="-0.4159040">
        <ele>377.7</ele>
        <time>2020-11-14T07:44:24Z</time>
      </trkpt>
      <trkpt lat="38.8484420" lon="-0.4158380">
        <ele>377.2</ele>
        <time>2020-11-14T07:44:26Z</time>
      </trkpt>
      <trkpt lat="38.8482890" lon="-0.4158300">
        <ele>376.7</ele>
        <time>2020-11-14T07:44:28Z</time>
      </trkpt>
      <trkpt lat="38.8480600" lon="-0.4158160">
        <ele>375.6</ele>
        <time>2020-11-14T07:44:31Z</time>
      </trkpt>
      <trkpt lat="38.8479360" lon="-0.4156870">
        <ele>375.0</ele>
        <time>2020-11-14T07:44:33Z</time>
      </trkpt>
      <trkpt lat="38.8478680" lon="-0.4155000">
        <ele>374.7</ele>
        <time>2020-11-14T07:44:35Z</time>
      </trkpt>
      <trkpt lat="38.8479270" lon="-0.4153060">
        <ele>374.6</ele>
        <time>2020-11-14T07:44:37Z</time>
      </trkpt>
      <trkpt lat="38.8480540" lon="-0.4151480">
        <ele>374.6</ele>
        <time>2020-11-14T07:44:39Z</time>
      </trkpt>
      <trkpt lat="38.8484030" lon="-0.4148780">
        <ele>375.4</ele>
        <time>2020-11-14T07:44:44Z</time>
      </trkpt>
      <trkpt lat="38.8489160" lon="-0.4145140">
        <ele>378.2</ele>
        <time>2020-11-14T07:44:53Z</time>
      </trkpt>
      <trkpt lat="38.8491940" lon="-0.4143350">
        <ele>380.4</ele>
        <time>2020-11-14T07:44:59Z</time>
      </trkpt>
      <trkpt lat="38.8494030" lon="-0.4142020">
        <ele>382.1</ele>
        <time>2020-11-14T07:45:04Z</time>
      </trkpt>
      <trkpt lat="38.8494810" lon="-0.4141520">
        <ele>382.7</ele>
        <time>2020-11-14T07:45:06Z</time>
      </trkpt>
      <trkpt lat="38.8495230" lon="-0.4141200">
        <ele>383.0</ele>
        <time>2020-11-14T07:45:07Z</time>
      </trkpt>
      <trkpt lat="38.8495620" lon="-0.4140870">
        <ele>383.4</ele>
        <time>2020-11-14T07:45:08Z</time>
      </trkpt>
      <trkpt lat="38.8495970" lon="-0.4140520">
        <ele>383.7</ele>
        <time>2020-11-14T07:45:09Z</time>
      </trkpt>
      <trkpt lat="38.8496260" lon="-0.4140140">
        <ele>384.0</ele>
        <time>2020-11-14T07:45:10Z</time>
      </trkpt>
      <trkpt lat="38.8496570" lon="-0.4139730">
        <ele>384.4</ele>
        <time>2020-11-14T07:45:11Z</time>
      </trkpt>
      <trkpt lat="38.8497140" lon="-0.4138860">
        <ele>385.0</ele>
        <time>2020-11-14T07:45:13Z</time>
      </trkpt>
      <trkpt lat="38.8498300" lon="-0.4136540">
        <ele>386.5</ele>
        <time>2020-11-14T07:45:18Z</time>
      </trkpt>
      <trkpt lat="38.8499180" lon="-0.4134550">
        <ele>387.6</ele>
        <time>2020-11-14T07:45:22Z</time>
      </trkpt>
      <trkpt lat="38.8499630" lon="-0.4133590">
        <ele>388.1</ele>
        <time>2020-11-14T07:45:24Z</time>
      </trkpt>
      <trkpt lat="38.8500060" lon="-0.4132610">
        <ele>388.5</ele>
        <time>2020-11-14T07:45:26Z</time>
      </trkpt>
      <trkpt lat="38.8500790" lon="-0.4131200">
        <ele>389.1</ele>
        <time>2020-11-14T07:45:29Z</time>
      </trkpt>
      <trkpt lat="38.8501640" lon="-0.4129850">
        <ele>389.7</ele>
        <time>2020-11-14T07:45:32Z</time>
      </trkpt>
      <trkpt lat="38.8501940" lon="-0.4129370">
        <ele>389.9</ele>
        <time>2020-11-14T07:45:33Z</time>
      </trkpt>
      <trkpt lat="38.8502580" lon="-0.4128350">
        <ele>390.2</ele>
        <time>2020-11-14T07:45:35Z</time>
      </trkpt>
      <trkpt lat="38.8504290" lon="-0.4126040">
        <ele>391.1</ele>
        <time>2020-11-14T07:45:40Z</time>
      </trkpt>
      <trkpt lat="38.8505440" lon="-0.4124110">
        <ele>391.6</ele>
        <time>2020-11-14T07:45:44Z</time>
      </trkpt>
      <trkpt lat="38.8505700" lon="-0.4123610">
        <ele>391.8</ele>
        <time>2020-11-14T07:45:45Z</time>
      </trkpt>
      <trkpt lat="38.8506200" lon="-0.4122590">
        <ele>392.0</ele>
        <time>2020-11-14T07:45:47Z</time>
      </trkpt>
      <trkpt lat="38.8506970" lon="-0.4121070">
        <ele>392.4</ele>
        <time>2020-11-14T07:45:50Z</time>
      </trkpt>
      <trkpt lat="38.8507190" lon="-0.4120550">
        <ele>392.5</ele>
        <time>2020-11-14T07:45:51Z</time>
      </trkpt>
      <trkpt lat="38.8507400" lon="-0.4120010">
        <ele>392.6</ele>
        <time>2020-11-14T07:45:52Z</time>
      </trkpt>
      <trkpt lat="38.8508450" lon="-0.4117000">
        <ele>392.9</ele>
        <time>2020-11-14T07:45:57Z</time>
      </trkpt>
      <trkpt lat="38.8508680" lon="-0.4116380">
        <ele>393.0</ele>
        <time>2020-11-14T07:45:58Z</time>
      </trkpt>
      <trkpt lat="38.8508900" lon="-0.4115750">
        <ele>393.0</ele>
        <time>2020-11-14T07:45:59Z</time>
      </trkpt>
      <trkpt lat="38.8510840" lon="-0.4110800">
        <ele>393.5</ele>
        <time>2020-11-14T07:46:07Z</time>
      </trkpt>
      <trkpt lat="38.8512460" lon="-0.4107000">
        <ele>393.9</ele>
        <time>2020-11-14T07:46:13Z</time>
      </trkpt>
      <trkpt lat="38.8513780" lon="-0.4103900">
        <ele>394.3</ele>
        <time>2020-11-14T07:46:18Z</time>
      </trkpt>
      <trkpt lat="38.8514330" lon="-0.4102700">
        <ele>394.5</ele>
        <time>2020-11-14T07:46:20Z</time>
      </trkpt>
      <trkpt lat="38.8517020" lon="-0.4096660">
        <ele>395.9</ele>
        <time>2020-11-14T07:46:30Z</time>
      </trkpt>
      <trkpt lat="38.8519000" lon="-0.4091720">
        <ele>397.2</ele>
        <time>2020-11-14T07:46:38Z</time>
      </trkpt>
      <trkpt lat="38.8518860" lon="-0.4090420">
        <ele>397.6</ele>
        <time>2020-11-14T07:46:40Z</time>
      </trkpt>
      <trkpt lat="38.8518150" lon="-0.4089590">
        <ele>398.1</ele>
        <time>2020-11-14T07:46:42Z</time>
      </trkpt>
      <trkpt lat="38.8517260" lon="-0.4089220">
        <ele>398.5</ele>
        <time>2020-11-14T07:46:44Z</time>
      </trkpt>
      <trkpt lat="38.8513010" lon="-0.4088770">
        <ele>400.8</ele>
        <time>2020-11-14T07:46:54Z</time>
      </trkpt>
      <trkpt lat="38.8511400" lon="-0.4088520">
        <ele>401.9</ele>
        <time>2020-11-14T07:46:58Z</time>
      </trkpt>
      <trkpt lat="38.8505890" lon="-0.4088050">
        <ele>405.1</ele>
        <time>2020-11-14T07:47:12Z</time>
      </trkpt>
      <trkpt lat="38.8503510" lon="-0.4087660">
        <ele>406.3</ele>
        <time>2020-11-14T07:47:18Z</time>
      </trkpt>
      <trkpt lat="38.8499030" lon="-0.4083790">
        <ele>408.5</ele>
        <time>2020-11-14T07:47:32Z</time>
      </trkpt>
      <trkpt lat="38.8498520" lon="-0.4082770">
        <ele>408.8</ele>
        <time>2020-11-14T07:47:34Z</time>
      </trkpt>
      <trkpt lat="38.8498190" lon="-0.4081170">
        <ele>409.2</ele>
        <time>2020-11-14T07:47:37Z</time>
      </trkpt>
      <trkpt lat="38.8498580" lon="-0.4079730">
        <ele>408.6</ele>
        <time>2020-11-14T07:47:40Z</time>
      </trkpt>
      <trkpt lat="38.8499180" lon="-0.4078910">
        <ele>408.0</ele>
        <time>2020-11-14T07:47:42Z</time>
      </trkpt>
      <trkpt lat="38.8500180" lon="-0.4078230">
        <ele>407.3</ele>
        <time>2020-11-14T07:47:44Z</time>
      </trkpt>
      <trkpt lat="38.8503030" lon="-0.4077080">
        <ele>405.3</ele>
        <time>2020-11-14T07:47:48Z</time>
      </trkpt>
      <trkpt lat="38.8509300" lon="-0.4075520">
        <ele>400.3</ele>
        <time>2020-11-14T07:47:55Z</time>
      </trkpt>
      <trkpt lat="38.8515290" lon="-0.4073900">
        <ele>394.7</ele>
        <time>2020-11-14T07:48:00Z</time>
      </trkpt>
      <trkpt lat="38.8520710" lon="-0.4071460">
        <ele>388.5</ele>
        <time>2020-11-14T07:48:04Z</time>
      </trkpt>
      <trkpt lat="38.8526340" lon="-0.4067700">
        <ele>382.6</ele>
        <time>2020-11-14T07:48:08Z</time>
      </trkpt>
      <trkpt lat="38.8531970" lon="-0.4063290">
        <ele>378.1</ele>
        <time>2020-11-14T07:48:12Z</time>
      </trkpt>
      <trkpt lat="38.8533460" lon="-0.4062430">
        <ele>377.2</ele>
        <time>2020-11-14T07:48:13Z</time>
      </trkpt>
      <trkpt lat="38.8537740" lon="-0.4060200">
        <ele>374.8</ele>
        <time>2020-11-14T07:48:16Z</time>
      </trkpt>
      <trkpt lat="38.8539850" lon="-0.4057570">
        <ele>372.9</ele>
        <time>2020-11-14T07:48:18Z</time>
      </trkpt>
      <trkpt lat="38.8542060" lon="-0.4052850">
        <ele>369.9</ele>
        <time>2020-11-14T07:48:21Z</time>
      </trkpt>
      <trkpt lat="38.8544080" lon="-0.4050560">
        <ele>368.1</ele>
        <time>2020-11-14T07:48:23Z</time>
      </trkpt>
      <trkpt lat="38.8549240" lon="-0.4047230">
        <ele>363.7</ele>
        <time>2020-11-14T07:48:27Z</time>
      </trkpt>
      <trkpt lat="38.8550440" lon="-0.4046110">
        <ele>362.5</ele>
        <time>2020-11-14T07:48:28Z</time>
      </trkpt>
      <trkpt lat="38.8553520" lon="-0.4042900">
        <ele>359.5</ele>
        <time>2020-11-14T07:48:31Z</time>
      </trkpt>
      <trkpt lat="38.8555790" lon="-0.4042260">
        <ele>358.2</ele>
        <time>2020-11-14T07:48:33Z</time>
      </trkpt>
      <trkpt lat="38.8558010" lon="-0.4042730">
        <ele>356.8</ele>
        <time>2020-11-14T07:48:35Z</time>
      </trkpt>
      <trkpt lat="38.8560030" lon="-0.4044550">
        <ele>355.2</ele>
        <time>2020-11-14T07:48:37Z</time>
      </trkpt>
      <trkpt lat="38.8561400" lon="-0.4047660">
        <ele>353.6</ele>
        <time>2020-11-14T07:48:39Z</time>
      </trkpt>
      <trkpt lat="38.8563320" lon="-0.4050130">
        <ele>352.3</ele>
        <time>2020-11-14T07:48:41Z</time>
      </trkpt>
      <trkpt lat="38.8565680" lon="-0.4051610">
        <ele>351.2</ele>
        <time>2020-11-14T07:48:43Z</time>
      </trkpt>
      <trkpt lat="38.8572140" lon="-0.4052140">
        <ele>350.0</ele>
        <time>2020-11-14T07:48:48Z</time>
      </trkpt>
      <trkpt lat="38.8574730" lon="-0.4051870">
        <ele>349.6</ele>
        <time>2020-11-14T07:48:50Z</time>
      </trkpt>
      <trkpt lat="38.8579540" lon="-0.4050430">
        <ele>348.3</ele>
        <time>2020-11-14T07:48:54Z</time>
      </trkpt>
      <trkpt lat="38.8580730" lon="-0.4050020">
        <ele>347.8</ele>
        <time>2020-11-14T07:48:55Z</time>
      </trkpt>
      <trkpt lat="38.8581880" lon="-0.4049470">
        <ele>347.3</ele>
        <time>2020-11-14T07:48:56Z</time>
      </trkpt>
      <trkpt lat="38.8583010" lon="-0.4048810">
        <ele>346.7</ele>
        <time>2020-11-14T07:48:57Z</time>
      </trkpt>
      <trkpt lat="38.8584080" lon="-0.4047890">
        <ele>346.2</ele>
        <time>2020-11-14T07:48:58Z</time>
      </trkpt>
      <trkpt lat="38.8588410" lon="-0.4042150">
        <ele>343.8</ele>
        <time>2020-11-14T07:49:03Z</time>
      </trkpt>
      <trkpt lat="38.8593220" lon="-0.4037210">
        <ele>340.8</ele>
        <time>2020-11-14T07:49:08Z</time>
      </trkpt>
      <trkpt lat="38.8597230" lon="-0.4033650">
        <ele>337.5</ele>
        <time>2020-11-14T07:49:12Z</time>
      </trkpt>
      <trkpt lat="38.8599580" lon="-0.4032480">
        <ele>335.8</ele>
        <time>2020-11-14T07:49:14Z</time>
      </trkpt>
      <trkpt lat="38.8606020" lon="-0.4030610">
        <ele>332.3</ele>
        <time>2020-11-14T07:49:19Z</time>
      </trkpt>
      <trkpt lat="38.8610920" lon="-0.4028610">
        <ele>330.3</ele>
        <time>2020-11-14T07:49:23Z</time>
      </trkpt>
      <trkpt lat="38.8613940" lon="-0.4025790">
        <ele>328.3</ele>
        <time>2020-11-14T07:49:26Z</time>
      </trkpt>
      <trkpt lat="38.8618750" lon="-0.4020310">
        <ele>324.8</ele>
        <time>2020-11-14T07:49:31Z</time>
      </trkpt>
      <trkpt lat="38.8624060" lon="-0.4015270">
        <ele>321.4</ele>
        <time>2020-11-14T07:49:36Z</time>
      </trkpt>
      <trkpt lat="38.8628610" lon="-0.4011520">
        <ele>318.6</ele>
        <time>2020-11-14T07:49:40Z</time>
      </trkpt>
      <trkpt lat="38.8631650" lon="-0.4008060">
        <ele>316.3</ele>
        <time>2020-11-14T07:49:43Z</time>
      </trkpt>
      <trkpt lat="38.8633030" lon="-0.4005000">
        <ele>314.7</ele>
        <time>2020-11-14T07:49:45Z</time>
      </trkpt>
      <trkpt lat="38.8633570" lon="-0.4001360">
        <ele>313.0</ele>
        <time>2020-11-14T07:49:47Z</time>
      </trkpt>
      <trkpt lat="38.8633400" lon="-0.3997600">
        <ele>311.5</ele>
        <time>2020-11-14T07:49:49Z</time>
      </trkpt>
      <trkpt lat="38.8632190" lon="-0.3990490">
        <ele>309.6</ele>
        <time>2020-11-14T07:49:53Z</time>
      </trkpt>
      <trkpt lat="38.8631880" lon="-0.3985560">
        <ele>308.4</ele>
        <time>2020-11-14T07:49:56Z</time>
      </trkpt>
      <trkpt lat="38.8632940" lon="-0.3977970">
        <ele>305.5</ele>
        <time>2020-11-14T07:50:01Z</time>
      </trkpt>
      <trkpt lat="38.8634450" lon="-0.3970540">
        <ele>302.2</ele>
        <time>2020-11-14T07:50:06Z</time>
      </trkpt>
      <trkpt lat="38.8634970" lon="-0.3969200">
        <ele>301.5</ele>
        <time>2020-11-14T07:50:07Z</time>
      </trkpt>
      <trkpt lat="38.8636380" lon="-0.3966950">
        <ele>300.3</ele>
        <time>2020-11-14T07:50:09Z</time>
      </trkpt>
      <trkpt lat="38.8640310" lon="-0.3962040">
        <ele>297.2</ele>
        <time>2020-11-14T07:50:14Z</time>
      </trkpt>
      <trkpt lat="38.8642080" lon="-0.3960080">
        <ele>295.7</ele>
        <time>2020-11-14T07:50:16Z</time>
      </trkpt>
      <trkpt lat="38.8644290" lon="-0.3958590">
        <ele>294.0</ele>
        <time>2020-11-14T07:50:18Z</time>
      </trkpt>
      <trkpt lat="38.8650380" lon="-0.3957910">
        <ele>290.6</ele>
        <time>2020-11-14T07:50:23Z</time>
      </trkpt>
      <trkpt lat="38.8652990" lon="-0.3959010">
        <ele>289.2</ele>
        <time>2020-11-14T07:50:25Z</time>
      </trkpt>
      <trkpt lat="38.8657870" lon="-0.3961860">
        <ele>284.5</ele>
        <time>2020-11-14T07:50:30Z</time>
      </trkpt>
      <trkpt lat="38.8659570" lon="-0.3961640">
        <ele>283.7</ele>
        <time>2020-11-14T07:50:32Z</time>
      </trkpt>
      <trkpt lat="38.8661250" lon="-0.3960260">
        <ele>283.0</ele>
        <time>2020-11-14T07:50:34Z</time>
      </trkpt>
      <trkpt lat="38.8662690" lon="-0.3958060">
        <ele>282.7</ele>
        <time>2020-11-14T07:50:36Z</time>
      </trkpt>
      <trkpt lat="38.8665580" lon="-0.3951030">
        <ele>282.5</ele>
        <time>2020-11-14T07:50:42Z</time>
      </trkpt>
      <trkpt lat="38.8666820" lon="-0.3949130">
        <ele>282.7</ele>
        <time>2020-11-14T07:50:44Z</time>
      </trkpt>
      <trkpt lat="38.8668270" lon="-0.3947740">
        <ele>283.1</ele>
        <time>2020-11-14T07:50:46Z</time>
      </trkpt>
      <trkpt lat="38.8669810" lon="-0.3946960">
        <ele>283.4</ele>
        <time>2020-11-14T07:50:48Z</time>
      </trkpt>
      <trkpt lat="38.8671370" lon="-0.3946680">
        <ele>283.7</ele>
        <time>2020-11-14T07:50:50Z</time>
      </trkpt>
      <trkpt lat="38.8672810" lon="-0.3947000">
        <ele>283.8</ele>
        <time>2020-11-14T07:50:52Z</time>
      </trkpt>
      <trkpt lat="38.8673500" lon="-0.3947280">
        <ele>284.0</ele>
        <time>2020-11-14T07:50:53Z</time>
      </trkpt>
      <trkpt lat="38.8674180" lon="-0.3947650">
        <ele>284.1</ele>
        <time>2020-11-14T07:50:54Z</time>
      </trkpt>
      <trkpt lat="38.8674850" lon="-0.3948050">
        <ele>284.2</ele>
        <time>2020-11-14T07:50:55Z</time>
      </trkpt>
      <trkpt lat="38.8675530" lon="-0.3948410">
        <ele>284.3</ele>
        <time>2020-11-14T07:50:56Z</time>
      </trkpt>
      <trkpt lat="38.8676200" lon="-0.3948700">
        <ele>284.4</ele>
        <time>2020-11-14T07:50:57Z</time>
      </trkpt>
      <trkpt lat="38.8677610" lon="-0.3948630">
        <ele>284.4</ele>
        <time>2020-11-14T07:50:59Z</time>
      </trkpt>
      <trkpt lat="38.8679080" lon="-0.3946520">
        <ele>283.9</ele>
        <time>2020-11-14T07:51:02Z</time>
      </trkpt>
      <trkpt lat="38.8681060" lon="-0.3939650">
        <ele>282.5</ele>
        <time>2020-11-14T07:51:09Z</time>
      </trkpt>
      <trkpt lat="38.8681630" lon="-0.3937620">
        <ele>282.5</ele>
        <time>2020-11-14T07:51:11Z</time>
      </trkpt>
      <trkpt lat="38.8682140" lon="-0.3934700">
        <ele>282.5</ele>
        <time>2020-11-14T07:51:14Z</time>
      </trkpt>
      <trkpt lat="38.8682250" lon="-0.3931860">
        <ele>282.9</ele>
        <time>2020-11-14T07:51:17Z</time>
      </trkpt>
      <trkpt lat="38.8682920" lon="-0.3930470">
        <ele>283.0</ele>
        <time>2020-11-14T07:51:19Z</time>
      </trkpt>
      <trkpt lat="38.8684540" lon="-0.3927990">
        <ele>283.5</ele>
        <time>2020-11-14T07:51:23Z</time>
      </trkpt>
      <trkpt lat="38.8686300" lon="-0.3922960">
        <ele>284.9</ele>
        <time>2020-11-14T07:51:30Z</time>
      </trkpt>
      <trkpt lat="38.8687350" lon="-0.3918490">
        <ele>285.9</ele>
        <time>2020-11-14T07:51:36Z</time>
      </trkpt>
      <trkpt lat="38.8688030" lon="-0.3915450">
        <ele>286.6</ele>
        <time>2020-11-14T07:51:40Z</time>
      </trkpt>
      <trkpt lat="38.8689540" lon="-0.3909470">
        <ele>287.7</ele>
        <time>2020-11-14T07:51:48Z</time>
      </trkpt>
      <trkpt lat="38.8689880" lon="-0.3908020">
        <ele>288.0</ele>
        <time>2020-11-14T07:51:50Z</time>
      </trkpt>
      <trkpt lat="38.8690070" lon="-0.3907320">
        <ele>288.1</ele>
        <time>2020-11-14T07:51:51Z</time>
      </trkpt>
      <trkpt lat="38.8690600" lon="-0.3905240">
        <ele>288.6</ele>
        <time>2020-11-14T07:51:54Z</time>
      </trkpt>
      <trkpt lat="38.8691450" lon="-0.3901850">
        <ele>289.2</ele>
        <time>2020-11-14T07:51:59Z</time>
      </trkpt>
      <trkpt lat="38.8692210" lon="-0.3899210">
        <ele>289.7</ele>
        <time>2020-11-14T07:52:03Z</time>
      </trkpt>
      <trkpt lat="38.8695160" lon="-0.3893160">
        <ele>291.0</ele>
        <time>2020-11-14T07:52:13Z</time>
      </trkpt>
      <trkpt lat="38.8695740" lon="-0.3891960">
        <ele>291.3</ele>
        <time>2020-11-14T07:52:15Z</time>
      </trkpt>
      <trkpt lat="38.8696220" lon="-0.3890720">
        <ele>291.6</ele>
        <time>2020-11-14T07:52:17Z</time>
      </trkpt>
      <trkpt lat="38.8696490" lon="-0.3890140">
        <ele>291.6</ele>
        <time>2020-11-14T07:52:18Z</time>
      </trkpt>
      <trkpt lat="38.8697190" lon="-0.3889200">
        <ele>291.8</ele>
        <time>2020-11-14T07:52:20Z</time>
      </trkpt>
      <trkpt lat="38.8698040" lon="-0.3888420">
        <ele>291.8</ele>
        <time>2020-11-14T07:52:22Z</time>
      </trkpt>
      <trkpt lat="38.8698780" lon="-0.3887430">
        <ele>291.9</ele>
        <time>2020-11-14T07:52:24Z</time>
      </trkpt>
      <trkpt lat="38.8702660" lon="-0.3881850">
        <ele>293.1</ele>
        <time>2020-11-14T07:52:35Z</time>
      </trkpt>
      <trkpt lat="38.8703100" lon="-0.3880570">
        <ele>293.5</ele>
        <time>2020-11-14T07:52:37Z</time>
      </trkpt>
      <trkpt lat="38.8703780" lon="-0.3878720">
        <ele>294.0</ele>
        <time>2020-11-14T07:52:40Z</time>
      </trkpt>
      <trkpt lat="38.8704660" lon="-0.3878070">
        <ele>294.1</ele>
        <time>2020-11-14T07:52:42Z</time>
      </trkpt>
      <trkpt lat="38.8706390" lon="-0.3877880">
        <ele>294.0</ele>
        <time>2020-11-14T07:52:45Z</time>
      </trkpt>
      <trkpt lat="38.8707460" lon="-0.3877420">
        <ele>293.9</ele>
        <time>2020-11-14T07:52:47Z</time>
      </trkpt>
      <trkpt lat="38.8708340" lon="-0.3876710">
        <ele>293.9</ele>
        <time>2020-11-14T07:52:49Z</time>
      </trkpt>
      <trkpt lat="38.8712650" lon="-0.3872500">
        <ele>295.1</ele>
        <time>2020-11-14T07:53:00Z</time>
      </trkpt>
      <trkpt lat="38.8716830" lon="-0.3867150">
        <ele>297.1</ele>
        <time>2020-11-14T07:53:11Z</time>
      </trkpt>
      <trkpt lat="38.8720250" lon="-0.3861560">
        <ele>299.9</ele>
        <time>2020-11-14T07:53:22Z</time>
      </trkpt>
      <trkpt lat="38.8723150" lon="-0.3855410">
        <ele>302.9</ele>
        <time>2020-11-14T07:53:34Z</time>
      </trkpt>
      <trkpt lat="38.8723510" lon="-0.3854530">
        <ele>303.4</ele>
        <time>2020-11-14T07:53:36Z</time>
      </trkpt>
      <trkpt lat="38.8724870" lon="-0.3851800">
        <ele>305.0</ele>
        <time>2020-11-14T07:53:42Z</time>
      </trkpt>
      <trkpt lat="38.8727650" lon="-0.3845480">
        <ele>308.5</ele>
        <time>2020-11-14T07:53:56Z</time>
      </trkpt>
      <trkpt lat="38.8729760" lon="-0.3841740">
        <ele>310.9</ele>
        <time>2020-11-14T07:54:06Z</time>
      </trkpt>
      <trkpt lat="38.8733680" lon="-0.3837130">
        <ele>314.2</ele>
        <time>2020-11-14T07:54:23Z</time>
      </trkpt>
      <trkpt lat="38.8733960" lon="-0.3836480">
        <ele>314.2</ele>
        <time>2020-11-14T07:54:28Z</time>
      </trkpt>
      <trkpt lat="38.8734160" lon="-0.3834700">
        <ele>314.1</ele>
        <time>2020-11-14T07:54:32Z</time>
      </trkpt>
      <trkpt lat="38.8734340" lon="-0.3832940">
        <ele>314.0</ele>
        <time>2020-11-14T07:54:35Z</time>
      </trkpt>
      <trkpt lat="38.8734470" lon="-0.3831590">
        <ele>313.8</ele>
        <time>2020-11-14T07:54:37Z</time>
      </trkpt>
      <trkpt lat="38.8734460" lon="-0.3830880">
        <ele>313.8</ele>
        <time>2020-11-14T07:54:38Z</time>
      </trkpt>
      <trkpt lat="38.8734470" lon="-0.3830240">
        <ele>313.7</ele>
        <time>2020-11-14T07:54:39Z</time>
      </trkpt>
      <trkpt lat="38.8734500" lon="-0.3829500">
        <ele>313.6</ele>
        <time>2020-11-14T07:54:40Z</time>
      </trkpt>
      <trkpt lat="38.8735270" lon="-0.3821850">
        <ele>312.4</ele>
        <time>2020-11-14T07:54:50Z</time>
      </trkpt>
      <trkpt lat="38.8735350" lon="-0.3821080">
        <ele>312.3</ele>
        <time>2020-11-14T07:54:51Z</time>
      </trkpt>
      <trkpt lat="38.8735980" lon="-0.3813790">
        <ele>311.2</ele>
        <time>2020-11-14T07:55:00Z</time>
      </trkpt>
      <trkpt lat="38.8736210" lon="-0.3811180">
        <ele>310.8</ele>
        <time>2020-11-14T07:55:03Z</time>
      </trkpt>
      <trkpt lat="38.8736890" lon="-0.3804260">
        <ele>310.3</ele>
        <time>2020-11-14T07:55:11Z</time>
      </trkpt>
      <trkpt lat="38.8737040" lon="-0.3802600">
        <ele>310.2</ele>
        <time>2020-11-14T07:55:13Z</time>
      </trkpt>
      <trkpt lat="38.8737650" lon="-0.3795590">
        <ele>310.1</ele>
        <time>2020-11-14T07:55:21Z</time>
      </trkpt>
      <trkpt lat="38.8737990" lon="-0.3788580">
        <ele>310.1</ele>
        <time>2020-11-14T07:55:29Z</time>
      </trkpt>
      <trkpt lat="38.8738390" lon="-0.3781540">
        <ele>310.1</ele>
        <time>2020-11-14T07:55:37Z</time>
      </trkpt>
      <trkpt lat="38.8738920" lon="-0.3773840">
        <ele>309.9</ele>
        <time>2020-11-14T07:55:46Z</time>
      </trkpt>
      <trkpt lat="38.8739450" lon="-0.3766780">
        <ele>309.9</ele>
        <time>2020-11-14T07:55:54Z</time>
      </trkpt>
      <trkpt lat="38.8739920" lon="-0.3760830">
        <ele>309.8</ele>
        <time>2020-11-14T07:56:01Z</time>
      </trkpt>
      <trkpt lat="38.8740060" lon="-0.3759170">
        <ele>310.2</ele>
        <time>2020-11-14T07:56:03Z</time>
      </trkpt>
      <trkpt lat="38.8740510" lon="-0.3753810">
        <ele>312.4</ele>
        <time>2020-11-14T07:56:11Z</time>
      </trkpt>
      <trkpt lat="38.8740900" lon="-0.3749220">
        <ele>314.9</ele>
        <time>2020-11-14T07:56:19Z</time>
      </trkpt>
      <trkpt lat="38.8740980" lon="-0.3747220">
        <ele>315.9</ele>
        <time>2020-11-14T07:56:23Z</time>
      </trkpt>
      <trkpt lat="38.8741020" lon="-0.3746230">
        <ele>316.4</ele>
        <time>2020-11-14T07:56:25Z</time>
      </trkpt>
      <trkpt lat="38.8741520" lon="-0.3738950">
        <ele>320.5</ele>
        <time>2020-11-14T07:56:40Z</time>
      </trkpt>
      <trkpt lat="38.8741690" lon="-0.3736650">
        <ele>321.8</ele>
        <time>2020-11-14T07:56:45Z</time>
      </trkpt>
      <trkpt lat="38.8741720" lon="-0.3736180">
        <ele>322.1</ele>
        <time>2020-11-14T07:56:46Z</time>
      </trkpt>
      <trkpt lat="38.8741800" lon="-0.3734740">
        <ele>322.9</ele>
        <time>2020-11-14T07:56:49Z</time>
      </trkpt>
      <trkpt lat="38.8742060" lon="-0.3731390">
        <ele>324.7</ele>
        <time>2020-11-14T07:56:56Z</time>
      </trkpt>
      <trkpt lat="38.8742650" lon="-0.3724290">
        <ele>328.5</ele>
        <time>2020-11-14T07:57:11Z</time>
      </trkpt>
      <trkpt lat="38.8742720" lon="-0.3722930">
        <ele>329.2</ele>
        <time>2020-11-14T07:57:14Z</time>
      </trkpt>
      <trkpt lat="38.8742750" lon="-0.3722480">
        <ele>329.5</ele>
        <time>2020-11-14T07:57:15Z</time>
      </trkpt>
      <trkpt lat="38.8743600" lon="-0.3717300">
        <ele>332.1</ele>
        <time>2020-11-14T07:57:26Z</time>
      </trkpt>
      <trkpt lat="38.8744190" lon="-0.3715130">
        <ele>332.8</ele>
        <time>2020-11-14T07:57:30Z</time>
      </trkpt>
      <trkpt lat="38.8744400" lon="-0.3714570">
        <ele>332.9</ele>
        <time>2020-11-14T07:57:31Z</time>
      </trkpt>
      <trkpt lat="38.8744790" lon="-0.3713460">
        <ele>333.1</ele>
        <time>2020-11-14T07:57:33Z</time>
      </trkpt>
      <trkpt lat="38.8745280" lon="-0.3712260">
        <ele>333.0</ele>
        <time>2020-11-14T07:57:35Z</time>
      </trkpt>
      <trkpt lat="38.8747110" lon="-0.3708510">
        <ele>332.6</ele>
        <time>2020-11-14T07:57:41Z</time>
      </trkpt>
      <trkpt lat="38.8750350" lon="-0.3702380">
        <ele>331.9</ele>
        <time>2020-11-14T07:57:50Z</time>
      </trkpt>
      <trkpt lat="38.8752300" lon="-0.3698750">
        <ele>331.7</ele>
        <time>2020-11-14T07:57:55Z</time>
      </trkpt>
      <trkpt lat="38.8755630" lon="-0.3692530">
        <ele>333.8</ele>
        <time>2020-11-14T07:58:04Z</time>
      </trkpt>
      <trkpt lat="38.8757760" lon="-0.3688570">
        <ele>335.8</ele>
        <time>2020-11-14T07:58:10Z</time>
      </trkpt>
      <trkpt lat="38.8760900" lon="-0.3682800">
        <ele>338.1</ele>
        <time>2020-11-14T07:58:20Z</time>
      </trkpt>
      <trkpt lat="38.8763810" lon="-0.3676550">
        <ele>338.3</ele>
        <time>2020-11-14T07:58:29Z</time>
      </trkpt>
      <trkpt lat="38.8766220" lon="-0.3669600">
        <ele>336.3</ele>
        <time>2020-11-14T07:58:37Z</time>
      </trkpt>
      <trkpt lat="38.8768470" lon="-0.3663160">
        <ele>333.4</ele>
        <time>2020-11-14T07:58:43Z</time>
      </trkpt>
      <trkpt lat="38.8770730" lon="-0.3658780">
        <ele>331.1</ele>
        <time>2020-11-14T07:58:47Z</time>
      </trkpt>
      <trkpt lat="38.8774510" lon="-0.3653570">
        <ele>328.2</ele>
        <time>2020-11-14T07:58:52Z</time>
      </trkpt>
      <trkpt lat="38.8778020" lon="-0.3649710">
        <ele>325.8</ele>
        <time>2020-11-14T07:58:56Z</time>
      </trkpt>
      <trkpt lat="38.8783250" lon="-0.3645850">
        <ele>322.7</ele>
        <time>2020-11-14T07:59:01Z</time>
      </trkpt>
      <trkpt lat="38.8788930" lon="-0.3642370">
        <ele>319.9</ele>
        <time>2020-11-14T07:59:06Z</time>
      </trkpt>
      <trkpt lat="38.8794690" lon="-0.3639420">
        <ele>317.9</ele>
        <time>2020-11-14T07:59:11Z</time>
      </trkpt>
      <trkpt lat="38.8800300" lon="-0.3636370">
        <ele>316.6</ele>
        <time>2020-11-14T07:59:16Z</time>
      </trkpt>
      <trkpt lat="38.8805670" lon="-0.3633310">
        <ele>315.1</ele>
        <time>2020-11-14T07:59:21Z</time>
      </trkpt>
      <trkpt lat="38.8811170" lon="-0.3630400">
        <ele>314.3</ele>
        <time>2020-11-14T07:59:26Z</time>
      </trkpt>
      <trkpt lat="38.8816540" lon="-0.3627460">
        <ele>314.2</ele>
        <time>2020-11-14T07:59:31Z</time>
      </trkpt>
      <trkpt lat="38.8820590" lon="-0.3625210">
        <ele>314.5</ele>
        <time>2020-11-14T07:59:35Z</time>
      </trkpt>
      <trkpt lat="38.8825980" lon="-0.3621110">
        <ele>314.8</ele>
        <time>2020-11-14T07:59:41Z</time>
      </trkpt>
      <trkpt lat="38.8829250" lon="-0.3615020">
        <ele>313.0</ele>
        <time>2020-11-14T07:59:47Z</time>
      </trkpt>
      <trkpt lat="38.8830440" lon="-0.3611240">
        <ele>311.2</ele>
        <time>2020-11-14T07:59:50Z</time>
      </trkpt>
      <trkpt lat="38.8831270" lon="-0.3608600">
        <ele>310.3</ele>
        <time>2020-11-14T07:59:52Z</time>
      </trkpt>
      <trkpt lat="38.8832130" lon="-0.3605900">
        <ele>309.0</ele>
        <time>2020-11-14T07:59:54Z</time>
      </trkpt>
      <trkpt lat="38.8832580" lon="-0.3604520">
        <ele>308.3</ele>
        <time>2020-11-14T07:59:55Z</time>
      </trkpt>
      <trkpt lat="38.8833020" lon="-0.3603120">
        <ele>307.5</ele>
        <time>2020-11-14T07:59:56Z</time>
      </trkpt>
      <trkpt lat="38.8835420" lon="-0.3595830">
        <ele>303.6</ele>
        <time>2020-11-14T08:00:01Z</time>
      </trkpt>
      <trkpt lat="38.8837950" lon="-0.3588220">
        <ele>300.3</ele>
        <time>2020-11-14T08:00:06Z</time>
      </trkpt>
      <trkpt lat="38.8838800" lon="-0.3585090">
        <ele>299.1</ele>
        <time>2020-11-14T08:00:08Z</time>
      </trkpt>
      <trkpt lat="38.8839090" lon="-0.3581800">
        <ele>297.7</ele>
        <time>2020-11-14T08:00:10Z</time>
      </trkpt>
      <trkpt lat="38.8837680" lon="-0.3573790">
        <ele>294.7</ele>
        <time>2020-11-14T08:00:15Z</time>
      </trkpt>
      <trkpt lat="38.8836600" lon="-0.3567540">
        <ele>292.1</ele>
        <time>2020-11-14T08:00:19Z</time>
      </trkpt>
      <trkpt lat="38.8836630" lon="-0.3564330">
        <ele>290.8</ele>
        <time>2020-11-14T08:00:21Z</time>
      </trkpt>
      <trkpt lat="38.8837600" lon="-0.3556290">
        <ele>287.5</ele>
        <time>2020-11-14T08:00:26Z</time>
      </trkpt>
      <trkpt lat="38.8838200" lon="-0.3551410">
        <ele>285.7</ele>
        <time>2020-11-14T08:00:29Z</time>
      </trkpt>
      <trkpt lat="38.8839200" lon="-0.3543260">
        <ele>283.5</ele>
        <time>2020-11-14T08:00:34Z</time>
      </trkpt>
      <trkpt lat="38.8839790" lon="-0.3538500">
        <ele>282.4</ele>
        <time>2020-11-14T08:00:37Z</time>
      </trkpt>
      <trkpt lat="38.8840870" lon="-0.3533960">
        <ele>281.4</ele>
        <time>2020-11-14T08:00:40Z</time>
      </trkpt>
      <trkpt lat="38.8842080" lon="-0.3531300">
        <ele>280.8</ele>
        <time>2020-11-14T08:00:42Z</time>
      </trkpt>
      <trkpt lat="38.8843700" lon="-0.3529050">
        <ele>280.2</ele>
        <time>2020-11-14T08:00:44Z</time>
      </trkpt>
      <trkpt lat="38.8848430" lon="-0.3524170">
        <ele>278.6</ele>
        <time>2020-11-14T08:00:49Z</time>
      </trkpt>
      <trkpt lat="38.8853170" lon="-0.3519310">
        <ele>276.9</ele>
        <time>2020-11-14T08:00:54Z</time>
      </trkpt>
      <trkpt lat="38.8857620" lon="-0.3514100">
        <ele>275.7</ele>
        <time>2020-11-14T08:00:59Z</time>
      </trkpt>
      <trkpt lat="38.8860710" lon="-0.3507840">
        <ele>275.1</ele>
        <time>2020-11-14T08:01:04Z</time>
      </trkpt>
      <trkpt lat="38.8863250" lon="-0.3501670">
        <ele>274.7</ele>
        <time>2020-11-14T08:01:09Z</time>
      </trkpt>
      <trkpt lat="38.8865540" lon="-0.3495690">
        <ele>274.4</ele>
        <time>2020-11-14T08:01:14Z</time>
      </trkpt>
      <trkpt lat="38.8866000" lon="-0.3494520">
        <ele>274.4</ele>
        <time>2020-11-14T08:01:15Z</time>
      </trkpt>
      <trkpt lat="38.8866440" lon="-0.3493360">
        <ele>274.3</ele>
        <time>2020-11-14T08:01:16Z</time>
      </trkpt>
      <trkpt lat="38.8866880" lon="-0.3492210">
        <ele>274.2</ele>
        <time>2020-11-14T08:01:17Z</time>
      </trkpt>
      <trkpt lat="38.8869490" lon="-0.3485460">
        <ele>273.7</ele>
        <time>2020-11-14T08:01:23Z</time>
      </trkpt>
      <trkpt lat="38.8871640" lon="-0.3480070">
        <ele>273.0</ele>
        <time>2020-11-14T08:01:28Z</time>
      </trkpt>
      <trkpt lat="38.8872070" lon="-0.3478990">
        <ele>272.7</ele>
        <time>2020-11-14T08:01:29Z</time>
      </trkpt>
      <trkpt lat="38.8874870" lon="-0.3471910">
        <ele>270.8</ele>
        <time>2020-11-14T08:01:35Z</time>
      </trkpt>
      <trkpt lat="38.8875850" lon="-0.3469520">
        <ele>271.4</ele>
        <time>2020-11-14T08:01:37Z</time>
      </trkpt>
      <trkpt lat="38.8878620" lon="-0.3462900">
        <ele>275.3</ele>
        <time>2020-11-14T08:01:44Z</time>
      </trkpt>
      <trkpt lat="38.8880910" lon="-0.3457190">
        <ele>278.4</ele>
        <time>2020-11-14T08:01:52Z</time>
      </trkpt>
      <trkpt lat="38.8882240" lon="-0.3453820">
        <ele>278.4</ele>
        <time>2020-11-14T08:01:57Z</time>
      </trkpt>
      <trkpt lat="38.8883630" lon="-0.3449780">
        <ele>276.4</ele>
        <time>2020-11-14T08:02:02Z</time>
      </trkpt>
      <trkpt lat="38.8884410" lon="-0.3447780">
        <ele>274.9</ele>
        <time>2020-11-14T08:02:04Z</time>
      </trkpt>
      <trkpt lat="38.8884830" lon="-0.3446670">
        <ele>274.2</ele>
        <time>2020-11-14T08:02:05Z</time>
      </trkpt>
      <trkpt lat="38.8885730" lon="-0.3444360">
        <ele>272.9</ele>
        <time>2020-11-14T08:02:07Z</time>
      </trkpt>
      <trkpt lat="38.8887070" lon="-0.3440830">
        <ele>272.1</ele>
        <time>2020-11-14T08:02:10Z</time>
      </trkpt>
      <trkpt lat="38.8888850" lon="-0.3436370">
        <ele>272.1</ele>
        <time>2020-11-14T08:02:14Z</time>
      </trkpt>
      <trkpt lat="38.8889720" lon="-0.3434270">
        <ele>272.2</ele>
        <time>2020-11-14T08:02:16Z</time>
      </trkpt>
      <trkpt lat="38.8890600" lon="-0.3432200">
        <ele>272.3</ele>
        <time>2020-11-14T08:02:18Z</time>
      </trkpt>
      <trkpt lat="38.8892660" lon="-0.3427740">
        <ele>272.0</ele>
        <time>2020-11-14T08:02:23Z</time>
      </trkpt>
      <trkpt lat="38.8896780" lon="-0.3422860">
        <ele>271.7</ele>
        <time>2020-11-14T08:02:30Z</time>
      </trkpt>
      <trkpt lat="38.8901700" lon="-0.3419460">
        <ele>271.5</ele>
        <time>2020-11-14T08:02:37Z</time>
      </trkpt>
      <trkpt lat="38.8903220" lon="-0.3418660">
        <ele>271.3</ele>
        <time>2020-11-14T08:02:39Z</time>
      </trkpt>
      <trkpt lat="38.8905390" lon="-0.3417320">
        <ele>271.0</ele>
        <time>2020-11-14T08:02:42Z</time>
      </trkpt>
      <trkpt lat="38.8908930" lon="-0.3414480">
        <ele>270.3</ele>
        <time>2020-11-14T08:02:47Z</time>
      </trkpt>
      <trkpt lat="38.8912780" lon="-0.3409160">
        <ele>269.2</ele>
        <time>2020-11-14T08:02:54Z</time>
      </trkpt>
      <trkpt lat="38.8916280" lon="-0.3403730">
        <ele>266.0</ele>
        <time>2020-11-14T08:03:01Z</time>
      </trkpt>
      <trkpt lat="38.8918470" lon="-0.3397950">
        <ele>262.4</ele>
        <time>2020-11-14T08:03:06Z</time>
      </trkpt>
      <trkpt lat="38.8919350" lon="-0.3391050">
        <ele>258.0</ele>
        <time>2020-11-14T08:03:12Z</time>
      </trkpt>
      <trkpt lat="38.8920140" lon="-0.3383520">
        <ele>253.3</ele>
        <time>2020-11-14T08:03:20Z</time>
      </trkpt>
      <trkpt lat="38.8920900" lon="-0.3376010">
        <ele>249.9</ele>
        <time>2020-11-14T08:03:26Z</time>
      </trkpt>
      <trkpt lat="38.8921550" lon="-0.3368960">
        <ele>249.1</ele>
        <time>2020-11-14T08:03:31Z</time>
      </trkpt>
      <trkpt lat="38.8922440" lon="-0.3361390">
        <ele>247.3</ele>
        <time>2020-11-14T08:03:37Z</time>
      </trkpt>
      <trkpt lat="38.8923310" lon="-0.3353430">
        <ele>242.4</ele>
        <time>2020-11-14T08:03:43Z</time>
      </trkpt>
      <trkpt lat="38.8923600" lon="-0.3347400">
        <ele>239.4</ele>
        <time>2020-11-14T08:03:47Z</time>
      </trkpt>
      <trkpt lat="38.8923140" lon="-0.3344230">
        <ele>237.4</ele>
        <time>2020-11-14T08:03:49Z</time>
      </trkpt>
      <trkpt lat="38.8920730" lon="-0.3336410">
        <ele>234.0</ele>
        <time>2020-11-14T08:03:54Z</time>
      </trkpt>
      <trkpt lat="38.8918280" lon="-0.3329190">
        <ele>231.5</ele>
        <time>2020-11-14T08:03:59Z</time>
      </trkpt>
      <trkpt lat="38.8915940" lon="-0.3322170">
        <ele>227.4</ele>
        <time>2020-11-14T08:04:04Z</time>
      </trkpt>
      <trkpt lat="38.8913620" lon="-0.3314710">
        <ele>222.4</ele>
        <time>2020-11-14T08:04:09Z</time>
      </trkpt>
      <trkpt lat="38.8913550" lon="-0.3311510">
        <ele>220.6</ele>
        <time>2020-11-14T08:04:11Z</time>
      </trkpt>
      <trkpt lat="38.8914670" lon="-0.3308740">
        <ele>219.2</ele>
        <time>2020-11-14T08:04:13Z</time>
      </trkpt>
      <trkpt lat="38.8918800" lon="-0.3302830">
        <ele>218.6</ele>
        <time>2020-11-14T08:04:18Z</time>
      </trkpt>
      <trkpt lat="38.8922560" lon="-0.3297530">
        <ele>219.3</ele>
        <time>2020-11-14T08:04:23Z</time>
      </trkpt>
      <trkpt lat="38.8926650" lon="-0.3291790">
        <ele>220.7</ele>
        <time>2020-11-14T08:04:29Z</time>
      </trkpt>
      <trkpt lat="38.8930540" lon="-0.3286790">
        <ele>221.2</ele>
        <time>2020-11-14T08:04:35Z</time>
      </trkpt>
      <trkpt lat="38.8933720" lon="-0.3282410">
        <ele>221.4</ele>
        <time>2020-11-14T08:04:40Z</time>
      </trkpt>
      <trkpt lat="38.8937440" lon="-0.3277200">
        <ele>221.9</ele>
        <time>2020-11-14T08:04:46Z</time>
      </trkpt>
      <trkpt lat="38.8941040" lon="-0.3272010">
        <ele>222.5</ele>
        <time>2020-11-14T08:04:52Z</time>
      </trkpt>
      <trkpt lat="38.8945030" lon="-0.3266330">
        <ele>223.0</ele>
        <time>2020-11-14T08:04:59Z</time>
      </trkpt>
      <trkpt lat="38.8949150" lon="-0.3260410">
        <ele>222.7</ele>
        <time>2020-11-14T08:05:06Z</time>
      </trkpt>
      <trkpt lat="38.8951680" lon="-0.3256890">
        <ele>222.8</ele>
        <time>2020-11-14T08:05:10Z</time>
      </trkpt>
      <trkpt lat="38.8953510" lon="-0.3254180">
        <ele>223.1</ele>
        <time>2020-11-14T08:05:13Z</time>
      </trkpt>
      <trkpt lat="38.8954150" lon="-0.3253300">
        <ele>223.2</ele>
        <time>2020-11-14T08:05:14Z</time>
      </trkpt>
      <trkpt lat="38.8954790" lon="-0.3252420">
        <ele>223.3</ele>
        <time>2020-11-14T08:05:15Z</time>
      </trkpt>
      <trkpt lat="38.8955430" lon="-0.3251540">
        <ele>223.6</ele>
        <time>2020-11-14T08:05:16Z</time>
      </trkpt>
      <trkpt lat="38.8956040" lon="-0.3250690">
        <ele>223.9</ele>
        <time>2020-11-14T08:05:17Z</time>
      </trkpt>
      <trkpt lat="38.8958950" lon="-0.3246040">
        <ele>225.2</ele>
        <time>2020-11-14T08:05:23Z</time>
      </trkpt>
      <trkpt lat="38.8959850" lon="-0.3244630">
        <ele>225.5</ele>
        <time>2020-11-14T08:05:25Z</time>
      </trkpt>
      <trkpt lat="38.8960330" lon="-0.3244000">
        <ele>225.7</ele>
        <time>2020-11-14T08:05:26Z</time>
      </trkpt>
      <trkpt lat="38.8961350" lon="-0.3242800">
        <ele>226.0</ele>
        <time>2020-11-14T08:05:28Z</time>
      </trkpt>
      <trkpt lat="38.8961910" lon="-0.3242210">
        <ele>226.1</ele>
        <time>2020-11-14T08:05:29Z</time>
      </trkpt>
      <trkpt lat="38.8962870" lon="-0.3240920">
        <ele>226.2</ele>
        <time>2020-11-14T08:05:31Z</time>
      </trkpt>
      <trkpt lat="38.8966330" lon="-0.3235300">
        <ele>225.8</ele>
        <time>2020-11-14T08:05:39Z</time>
      </trkpt>
      <trkpt lat="38.8969800" lon="-0.3230380">
        <ele>224.9</ele>
        <time>2020-11-14T08:05:46Z</time>
      </trkpt>
      <trkpt lat="38.8974040" lon="-0.3225200">
        <ele>222.4</ele>
        <time>2020-11-14T08:05:53Z</time>
      </trkpt>
      <trkpt lat="38.8978230" lon="-0.3219450">
        <ele>219.9</ele>
        <time>2020-11-14T08:05:59Z</time>
      </trkpt>
      <trkpt lat="38.8981900" lon="-0.3214330">
        <ele>218.3</ele>
        <time>2020-11-14T08:06:04Z</time>
      </trkpt>
      <trkpt lat="38.8985800" lon="-0.3208590">
        <ele>219.0</ele>
        <time>2020-11-14T08:06:11Z</time>
      </trkpt>
      <trkpt lat="38.8988280" lon="-0.3204190">
        <ele>219.1</ele>
        <time>2020-11-14T08:06:17Z</time>
      </trkpt>
      <trkpt lat="38.8992090" lon="-0.3198360">
        <ele>217.7</ele>
        <time>2020-11-14T08:06:24Z</time>
      </trkpt>
      <trkpt lat="38.8996160" lon="-0.3192380">
        <ele>215.6</ele>
        <time>2020-11-14T08:06:31Z</time>
      </trkpt>
      <trkpt lat="38.8999850" lon="-0.3186830">
        <ele>213.2</ele>
        <time>2020-11-14T08:06:37Z</time>
      </trkpt>
      <trkpt lat="38.9003770" lon="-0.3181300">
        <ele>211.2</ele>
        <time>2020-11-14T08:06:43Z</time>
      </trkpt>
      <trkpt lat="38.9005770" lon="-0.3178700">
        <ele>209.6</ele>
        <time>2020-11-14T08:06:46Z</time>
      </trkpt>
      <trkpt lat="38.9009930" lon="-0.3173040">
        <ele>205.8</ele>
        <time>2020-11-14T08:06:52Z</time>
      </trkpt>
      <trkpt lat="38.9014170" lon="-0.3167070">
        <ele>201.8</ele>
        <time>2020-11-14T08:06:58Z</time>
      </trkpt>
      <trkpt lat="38.9017970" lon="-0.3162090">
        <ele>198.3</ele>
        <time>2020-11-14T08:07:03Z</time>
      </trkpt>
      <trkpt lat="38.9021760" lon="-0.3156930">
        <ele>195.3</ele>
        <time>2020-11-14T08:07:08Z</time>
      </trkpt>
      <trkpt lat="38.9025680" lon="-0.3151990">
        <ele>192.0</ele>
        <time>2020-11-14T08:07:13Z</time>
      </trkpt>
      <trkpt lat="38.9029550" lon="-0.3146890">
        <ele>188.6</ele>
        <time>2020-11-14T08:07:18Z</time>
      </trkpt>
      <trkpt lat="38.9033300" lon="-0.3141540">
        <ele>185.4</ele>
        <time>2020-11-14T08:07:23Z</time>
      </trkpt>
      <trkpt lat="38.9037070" lon="-0.3136130">
        <ele>184.0</ele>
        <time>2020-11-14T08:07:28Z</time>
      </trkpt>
      <trkpt lat="38.9041230" lon="-0.3129980">
        <ele>185.3</ele>
        <time>2020-11-14T08:07:34Z</time>
      </trkpt>
      <trkpt lat="38.9042460" lon="-0.3128010">
        <ele>186.0</ele>
        <time>2020-11-14T08:07:36Z</time>
      </trkpt>
      <trkpt lat="38.9044900" lon="-0.3124470">
        <ele>186.5</ele>
        <time>2020-11-14T08:07:40Z</time>
      </trkpt>
      <trkpt lat="38.9047120" lon="-0.3121340">
        <ele>188.2</ele>
        <time>2020-11-14T08:07:44Z</time>
      </trkpt>
      <trkpt lat="38.9050460" lon="-0.3116490">
        <ele>190.3</ele>
        <time>2020-11-14T08:07:51Z</time>
      </trkpt>
      <trkpt lat="38.9051820" lon="-0.3114550">
        <ele>190.9</ele>
        <time>2020-11-14T08:07:54Z</time>
      </trkpt>
      <trkpt lat="38.9055770" lon="-0.3109060">
        <ele>193.8</ele>
        <time>2020-11-14T08:08:04Z</time>
      </trkpt>
      <trkpt lat="38.9056240" lon="-0.3108010">
        <ele>194.2</ele>
        <time>2020-11-14T08:08:06Z</time>
      </trkpt>
      <trkpt lat="38.9056780" lon="-0.3105650">
        <ele>195.0</ele>
        <time>2020-11-14T08:08:10Z</time>
      </trkpt>
      <trkpt lat="38.9056980" lon="-0.3103840">
        <ele>195.4</ele>
        <time>2020-11-14T08:08:13Z</time>
      </trkpt>
      <trkpt lat="38.9057690" lon="-0.3100210">
        <ele>198.3</ele>
        <time>2020-11-14T08:08:21Z</time>
      </trkpt>
      <trkpt lat="38.9058390" lon="-0.3098900">
        <ele>199.7</ele>
        <time>2020-11-14T08:08:25Z</time>
      </trkpt>
      <trkpt lat="38.9059940" lon="-0.3096680">
        <ele>201.8</ele>
        <time>2020-11-14T08:08:33Z</time>
      </trkpt>
      <trkpt lat="38.9061070" lon="-0.3094820">
        <ele>202.8</ele>
        <time>2020-11-14T08:08:38Z</time>
      </trkpt>
      <trkpt lat="38.9061930" lon="-0.3093090">
        <ele>203.4</ele>
        <time>2020-11-14T08:08:42Z</time>
      </trkpt>
      <trkpt lat="38.9062800" lon="-0.3091280">
        <ele>204.0</ele>
        <time>2020-11-14T08:08:46Z</time>
      </trkpt>
      <trkpt lat="38.9063930" lon="-0.3088610">
        <ele>204.9</ele>
        <time>2020-11-14T08:08:52Z</time>
      </trkpt>
      <trkpt lat="38.9064950" lon="-0.3086500">
        <ele>205.7</ele>
        <time>2020-11-14T08:08:57Z</time>
      </trkpt>
      <trkpt lat="38.9066530" lon="-0.3082320">
        <ele>206.8</ele>
        <time>2020-11-14T08:09:05Z</time>
      </trkpt>
      <trkpt lat="38.9066630" lon="-0.3081100">
        <ele>207.0</ele>
        <time>2020-11-14T08:09:07Z</time>
      </trkpt>
      <trkpt lat="38.9066250" lon="-0.3079960">
        <ele>207.1</ele>
        <time>2020-11-14T08:09:09Z</time>
      </trkpt>
      <trkpt lat="38.9063920" lon="-0.3075910">
        <ele>207.1</ele>
        <time>2020-11-14T08:09:16Z</time>
      </trkpt>
      <trkpt lat="38.9063650" lon="-0.3075170">
        <ele>207.1</ele>
        <time>2020-11-14T08:09:17Z</time>
      </trkpt>
      <trkpt lat="38.9063540" lon="-0.3074360">
        <ele>207.1</ele>
        <time>2020-11-14T08:09:18Z</time>
      </trkpt>
      <trkpt lat="38.9063580" lon="-0.3073540">
        <ele>207.2</ele>
        <time>2020-11-14T08:09:19Z</time>
      </trkpt>
      <trkpt lat="38.9063800" lon="-0.3072770">
        <ele>207.2</ele>
        <time>2020-11-14T08:09:20Z</time>
      </trkpt>
      <trkpt lat="38.9064130" lon="-0.3072100">
        <ele>207.3</ele>
        <time>2020-11-14T08:09:21Z</time>
      </trkpt>
      <trkpt lat="38.9064530" lon="-0.3071520">
        <ele>207.4</ele>
        <time>2020-11-14T08:09:22Z</time>
      </trkpt>
      <trkpt lat="38.9065000" lon="-0.3071090">
        <ele>207.6</ele>
        <time>2020-11-14T08:09:23Z</time>
      </trkpt>
      <trkpt lat="38.9065500" lon="-0.3070840">
        <ele>207.7</ele>
        <time>2020-11-14T08:09:24Z</time>
      </trkpt>
      <trkpt lat="38.9066510" lon="-0.3070640">
        <ele>208.1</ele>
        <time>2020-11-14T08:09:26Z</time>
      </trkpt>
      <trkpt lat="38.9067680" lon="-0.3069950">
        <ele>208.9</ele>
        <time>2020-11-14T08:09:29Z</time>
      </trkpt>
      <trkpt lat="38.9067980" lon="-0.3069640">
        <ele>209.2</ele>
        <time>2020-11-14T08:09:30Z</time>
      </trkpt>
      <trkpt lat="38.9069020" lon="-0.3067940">
        <ele>209.8</ele>
        <time>2020-11-14T08:09:35Z</time>
      </trkpt>
      <trkpt lat="38.9069620" lon="-0.3067320">
        <ele>209.3</ele>
        <time>2020-11-14T08:09:37Z</time>
      </trkpt>
      <trkpt lat="38.9070750" lon="-0.3066820">
        <ele>207.7</ele>
        <time>2020-11-14T08:09:39Z</time>
      </trkpt>
      <trkpt lat="38.9071560" lon="-0.3066600">
        <ele>206.0</ele>
        <time>2020-11-14T08:09:40Z</time>
      </trkpt>
      <trkpt lat="38.9072480" lon="-0.3066280">
        <ele>204.0</ele>
        <time>2020-11-14T08:09:41Z</time>
      </trkpt>
      <trkpt lat="38.9074460" lon="-0.3065000">
        <ele>200.4</ele>
        <time>2020-11-14T08:09:43Z</time>
      </trkpt>
      <trkpt lat="38.9078470" lon="-0.3059890">
        <ele>199.5</ele>
        <time>2020-11-14T08:09:48Z</time>
      </trkpt>
      <trkpt lat="38.9079080" lon="-0.3059100">
        <ele>200.5</ele>
        <time>2020-11-14T08:09:49Z</time>
      </trkpt>
      <trkpt lat="38.9080260" lon="-0.3057990">
        <ele>202.4</ele>
        <time>2020-11-14T08:09:51Z</time>
      </trkpt>
      <trkpt lat="38.9081740" lon="-0.3056520">
        <ele>204.6</ele>
        <time>2020-11-14T08:09:54Z</time>
      </trkpt>
      <trkpt lat="38.9082640" lon="-0.3055480">
        <ele>205.8</ele>
        <time>2020-11-14T08:09:56Z</time>
      </trkpt>
      <trkpt lat="38.9083030" lon="-0.3054960">
        <ele>206.3</ele>
        <time>2020-11-14T08:09:57Z</time>
      </trkpt>
      <trkpt lat="38.9086730" lon="-0.3049300">
        <ele>210.0</ele>
        <time>2020-11-14T08:10:08Z</time>
      </trkpt>
      <trkpt lat="38.9088010" lon="-0.3046860">
        <ele>210.3</ele>
        <time>2020-11-14T08:10:12Z</time>
      </trkpt>
      <trkpt lat="38.9088760" lon="-0.3044810">
        <ele>210.7</ele>
        <time>2020-11-14T08:10:15Z</time>
      </trkpt>
      <trkpt lat="38.9089510" lon="-0.3041120">
        <ele>211.4</ele>
        <time>2020-11-14T08:10:20Z</time>
      </trkpt>
      <trkpt lat="38.9089720" lon="-0.3038900">
        <ele>212.1</ele>
        <time>2020-11-14T08:10:23Z</time>
      </trkpt>
      <trkpt lat="38.9089580" lon="-0.3035330">
        <ele>212.9</ele>
        <time>2020-11-14T08:10:28Z</time>
      </trkpt>
      <trkpt lat="38.9089630" lon="-0.3033800">
        <ele>212.9</ele>
        <time>2020-11-14T08:10:30Z</time>
      </trkpt>
      <trkpt lat="38.9089630" lon="-0.3033020">
        <ele>212.8</ele>
        <time>2020-11-14T08:10:31Z</time>
      </trkpt>
      <trkpt lat="38.9089730" lon="-0.3031400">
        <ele>212.6</ele>
        <time>2020-11-14T08:10:33Z</time>
      </trkpt>
      <trkpt lat="38.9090100" lon="-0.3028850">
        <ele>212.2</ele>
        <time>2020-11-14T08:10:36Z</time>
      </trkpt>
      <trkpt lat="38.9090340" lon="-0.3028000">
        <ele>212.0</ele>
        <time>2020-11-14T08:10:37Z</time>
      </trkpt>
      <trkpt lat="38.9090610" lon="-0.3027150">
        <ele>211.9</ele>
        <time>2020-11-14T08:10:38Z</time>
      </trkpt>
      <trkpt lat="38.9091370" lon="-0.3024610">
        <ele>211.7</ele>
        <time>2020-11-14T08:10:41Z</time>
      </trkpt>
      <trkpt lat="38.9091570" lon="-0.3023730">
        <ele>211.7</ele>
        <time>2020-11-14T08:10:42Z</time>
      </trkpt>
      <trkpt lat="38.9091710" lon="-0.3022820">
        <ele>211.6</ele>
        <time>2020-11-14T08:10:43Z</time>
      </trkpt>
      <trkpt lat="38.9091890" lon="-0.3020020">
        <ele>211.1</ele>
        <time>2020-11-14T08:10:46Z</time>
      </trkpt>
      <trkpt lat="38.9091930" lon="-0.3018020">
        <ele>210.5</ele>
        <time>2020-11-14T08:10:48Z</time>
      </trkpt>
      <trkpt lat="38.9092260" lon="-0.3015960">
        <ele>209.7</ele>
        <time>2020-11-14T08:10:50Z</time>
      </trkpt>
      <trkpt lat="38.9093070" lon="-0.3014190">
        <ele>208.8</ele>
        <time>2020-11-14T08:10:52Z</time>
      </trkpt>
      <trkpt lat="38.9093760" lon="-0.3013320">
        <ele>208.1</ele>
        <time>2020-11-14T08:10:53Z</time>
      </trkpt>
      <trkpt lat="38.9094420" lon="-0.3012470">
        <ele>207.4</ele>
        <time>2020-11-14T08:10:54Z</time>
      </trkpt>
      <trkpt lat="38.9096950" lon="-0.3009520">
        <ele>202.8</ele>
        <time>2020-11-14T08:10:58Z</time>
      </trkpt>
      <trkpt lat="38.9098200" lon="-0.3008760">
        <ele>200.8</ele>
        <time>2020-11-14T08:11:00Z</time>
      </trkpt>
      <trkpt lat="38.9098860" lon="-0.3008700">
        <ele>199.9</ele>
        <time>2020-11-14T08:11:01Z</time>
      </trkpt>
      <trkpt lat="38.9099530" lon="-0.3008820">
        <ele>199.0</ele>
        <time>2020-11-14T08:11:02Z</time>
      </trkpt>
      <trkpt lat="38.9101230" lon="-0.3009220">
        <ele>197.3</ele>
        <time>2020-11-14T08:11:05Z</time>
      </trkpt>
      <trkpt lat="38.9101690" lon="-0.3009090">
        <ele>196.4</ele>
        <time>2020-11-14T08:11:06Z</time>
      </trkpt>
      <trkpt lat="38.9102010" lon="-0.3008730">
        <ele>196.0</ele>
        <time>2020-11-14T08:11:07Z</time>
      </trkpt>
      <trkpt lat="38.9102230" lon="-0.3008150">
        <ele>195.7</ele>
        <time>2020-11-14T08:11:08Z</time>
      </trkpt>
      <trkpt lat="38.9102370" lon="-0.3007440">
        <ele>195.3</ele>
        <time>2020-11-14T08:11:09Z</time>
      </trkpt>
      <trkpt lat="38.9104090" lon="-0.2999770">
        <ele>192.0</ele>
        <time>2020-11-14T08:11:17Z</time>
      </trkpt>
      <trkpt lat="38.9105980" lon="-0.2992030">
        <ele>189.2</ele>
        <time>2020-11-14T08:11:24Z</time>
      </trkpt>
      <trkpt lat="38.9107220" lon="-0.2984480">
        <ele>186.5</ele>
        <time>2020-11-14T08:11:30Z</time>
      </trkpt>
      <trkpt lat="38.9107200" lon="-0.2983130">
        <ele>185.9</ele>
        <time>2020-11-14T08:11:31Z</time>
      </trkpt>
      <trkpt lat="38.9106770" lon="-0.2980410">
        <ele>184.7</ele>
        <time>2020-11-14T08:11:33Z</time>
      </trkpt>
      <trkpt lat="38.9105900" lon="-0.2977770">
        <ele>182.9</ele>
        <time>2020-11-14T08:11:35Z</time>
      </trkpt>
      <trkpt lat="38.9102400" lon="-0.2971800">
        <ele>178.1</ele>
        <time>2020-11-14T08:11:40Z</time>
      </trkpt>
      <trkpt lat="38.9100240" lon="-0.2968430">
        <ele>175.6</ele>
        <time>2020-11-14T08:11:43Z</time>
      </trkpt>
      <trkpt lat="38.9099610" lon="-0.2966080">
        <ele>174.4</ele>
        <time>2020-11-14T08:11:45Z</time>
      </trkpt>
      <trkpt lat="38.9100080" lon="-0.2962520">
        <ele>173.7</ele>
        <time>2020-11-14T08:11:48Z</time>
      </trkpt>
      <trkpt lat="38.9100450" lon="-0.2960120">
        <ele>173.4</ele>
        <time>2020-11-14T08:11:50Z</time>
      </trkpt>
      <trkpt lat="38.9101670" lon="-0.2958440">
        <ele>173.4</ele>
        <time>2020-11-14T08:11:52Z</time>
      </trkpt>
      <trkpt lat="38.9103140" lon="-0.2958050">
        <ele>173.5</ele>
        <time>2020-11-14T08:11:54Z</time>
      </trkpt>
      <trkpt lat="38.9104170" lon="-0.2958780">
        <ele>173.6</ele>
        <time>2020-11-14T08:11:56Z</time>
      </trkpt>
      <trkpt lat="38.9104620" lon="-0.2960120">
        <ele>173.6</ele>
        <time>2020-11-14T08:11:58Z</time>
      </trkpt>
      <trkpt lat="38.9104370" lon="-0.2961690">
        <ele>173.4</ele>
        <time>2020-11-14T08:12:00Z</time>
      </trkpt>
      <trkpt lat="38.9103610" lon="-0.2962990">
        <ele>173.6</ele>
        <time>2020-11-14T08:12:02Z</time>
      </trkpt>
      <trkpt lat="38.9102440" lon="-0.2963390">
        <ele>173.8</ele>
        <time>2020-11-14T08:12:04Z</time>
      </trkpt>
      <trkpt lat="38.9101370" lon="-0.2962800">
        <ele>173.9</ele>
        <time>2020-11-14T08:12:06Z</time>
      </trkpt>
      <trkpt lat="38.9100750" lon="-0.2961490">
        <ele>173.6</ele>
        <time>2020-11-14T08:12:08Z</time>
      </trkpt>
      <trkpt lat="38.9101130" lon="-0.2959990">
        <ele>173.4</ele>
        <time>2020-11-14T08:12:10Z</time>
      </trkpt>
      <trkpt lat="38.9102170" lon="-0.2958980">
        <ele>173.3</ele>
        <time>2020-11-14T08:12:12Z</time>
      </trkpt>
      <trkpt lat="38.9103920" lon="-0.2957820">
        <ele>173.3</ele>
        <time>2020-11-14T08:12:15Z</time>
      </trkpt>
      <trkpt lat="38.9104980" lon="-0.2956700">
        <ele>173.1</ele>
        <time>2020-11-14T08:12:17Z</time>
      </trkpt>
      <trkpt lat="38.9108760" lon="-0.2950860">
        <ele>172.5</ele>
        <time>2020-11-14T08:12:25Z</time>
      </trkpt>
      <trkpt lat="38.9112480" lon="-0.2944690">
        <ele>168.4</ele>
        <time>2020-11-14T08:12:32Z</time>
      </trkpt>
      <trkpt lat="38.9114140" lon="-0.2942290">
        <ele>166.6</ele>
        <time>2020-11-14T08:12:35Z</time>
      </trkpt>
      <trkpt lat="38.9116180" lon="-0.2940240">
        <ele>164.0</ele>
        <time>2020-11-14T08:12:38Z</time>
      </trkpt>
      <trkpt lat="38.9117200" lon="-0.2938310">
        <ele>162.8</ele>
        <time>2020-11-14T08:12:40Z</time>
      </trkpt>
      <trkpt lat="38.9118510" lon="-0.2935070">
        <ele>160.6</ele>
        <time>2020-11-14T08:12:43Z</time>
      </trkpt>
      <trkpt lat="38.9118770" lon="-0.2932510">
        <ele>158.4</ele>
        <time>2020-11-14T08:12:45Z</time>
      </trkpt>
      <trkpt lat="38.9118280" lon="-0.2925200">
        <ele>154.6</ele>
        <time>2020-11-14T08:12:50Z</time>
      </trkpt>
      <trkpt lat="38.9118010" lon="-0.2920540">
        <ele>153.1</ele>
        <time>2020-11-14T08:12:53Z</time>
      </trkpt>
      <trkpt lat="38.9117600" lon="-0.2913160">
        <ele>152.3</ele>
        <time>2020-11-14T08:12:58Z</time>
      </trkpt>
      <trkpt lat="38.9117430" lon="-0.2910460">
        <ele>152.2</ele>
        <time>2020-11-14T08:13:00Z</time>
      </trkpt>
      <trkpt lat="38.9117370" lon="-0.2909140">
        <ele>152.2</ele>
        <time>2020-11-14T08:13:01Z</time>
      </trkpt>
      <trkpt lat="38.9117000" lon="-0.2904170">
        <ele>152.1</ele>
        <time>2020-11-14T08:13:05Z</time>
      </trkpt>
      <trkpt lat="38.9116200" lon="-0.2902100">
        <ele>152.3</ele>
        <time>2020-11-14T08:13:07Z</time>
      </trkpt>
      <trkpt lat="38.9115640" lon="-0.2900090">
        <ele>152.4</ele>
        <time>2020-11-14T08:13:09Z</time>
      </trkpt>
      <trkpt lat="38.9116060" lon="-0.2898410">
        <ele>152.5</ele>
        <time>2020-11-14T08:13:11Z</time>
      </trkpt>
      <trkpt lat="38.9117990" lon="-0.2897160">
        <ele>152.1</ele>
        <time>2020-11-14T08:13:14Z</time>
      </trkpt>
      <trkpt lat="38.9119120" lon="-0.2895750">
        <ele>151.5</ele>
        <time>2020-11-14T08:13:16Z</time>
      </trkpt>
      <trkpt lat="38.9120900" lon="-0.2889150">
        <ele>149.7</ele>
        <time>2020-11-14T08:13:22Z</time>
      </trkpt>
      <trkpt lat="38.9122770" lon="-0.2881590">
        <ele>148.2</ele>
        <time>2020-11-14T08:13:29Z</time>
      </trkpt>
      <trkpt lat="38.9124690" lon="-0.2874070">
        <ele>147.3</ele>
        <time>2020-11-14T08:13:36Z</time>
      </trkpt>
      <trkpt lat="38.9126480" lon="-0.2867570">
        <ele>147.3</ele>
        <time>2020-11-14T08:13:42Z</time>
      </trkpt>
      <trkpt lat="38.9128280" lon="-0.2860470">
        <ele>148.5</ele>
        <time>2020-11-14T08:13:50Z</time>
      </trkpt>
      <trkpt lat="38.9130220" lon="-0.2853180">
        <ele>149.4</ele>
        <time>2020-11-14T08:13:59Z</time>
      </trkpt>
      <trkpt lat="38.9131980" lon="-0.2846800">
        <ele>149.3</ele>
        <time>2020-11-14T08:14:07Z</time>
      </trkpt>
      <trkpt lat="38.9133840" lon="-0.2839790">
        <ele>148.8</ele>
        <time>2020-11-14T08:14:15Z</time>
      </trkpt>
      <trkpt lat="38.9135560" lon="-0.2832680">
        <ele>148.4</ele>
        <time>2020-11-14T08:14:23Z</time>
      </trkpt>
      <trkpt lat="38.9137160" lon="-0.2825200">
        <ele>147.8</ele>
        <time>2020-11-14T08:14:31Z</time>
      </trkpt>
      <trkpt lat="38.9138830" lon="-0.2818570">
        <ele>147.3</ele>
        <time>2020-11-14T08:14:38Z</time>
      </trkpt>
      <trkpt lat="38.9140500" lon="-0.2814190">
        <ele>147.1</ele>
        <time>2020-11-14T08:14:43Z</time>
      </trkpt>
      <trkpt lat="38.9140880" lon="-0.2813350">
        <ele>147.0</ele>
        <time>2020-11-14T08:14:44Z</time>
      </trkpt>
      <trkpt lat="38.9142060" lon="-0.2810890">
        <ele>146.8</ele>
        <time>2020-11-14T08:14:47Z</time>
      </trkpt>
      <trkpt lat="38.9142910" lon="-0.2809260">
        <ele>146.7</ele>
        <time>2020-11-14T08:14:49Z</time>
      </trkpt>
      <trkpt lat="38.9143340" lon="-0.2808410">
        <ele>146.6</ele>
        <time>2020-11-14T08:14:50Z</time>
      </trkpt>
      <trkpt lat="38.9144200" lon="-0.2806670">
        <ele>146.5</ele>
        <time>2020-11-14T08:14:52Z</time>
      </trkpt>
      <trkpt lat="38.9144640" lon="-0.2805810">
        <ele>146.4</ele>
        <time>2020-11-14T08:14:53Z</time>
      </trkpt>
      <trkpt lat="38.9146380" lon="-0.2802430">
        <ele>146.3</ele>
        <time>2020-11-14T08:14:57Z</time>
      </trkpt>
      <trkpt lat="38.9147270" lon="-0.2800740">
        <ele>146.2</ele>
        <time>2020-11-14T08:14:59Z</time>
      </trkpt>
      <trkpt lat="38.9149040" lon="-0.2797400">
        <ele>146.2</ele>
        <time>2020-11-14T08:15:03Z</time>
      </trkpt>
      <trkpt lat="38.9152120" lon="-0.2791530">
        <ele>146.1</ele>
        <time>2020-11-14T08:15:10Z</time>
      </trkpt>
      <trkpt lat="38.9152550" lon="-0.2790700">
        <ele>146.0</ele>
        <time>2020-11-14T08:15:11Z</time>
      </trkpt>
      <trkpt lat="38.9152990" lon="-0.2789860">
        <ele>146.0</ele>
        <time>2020-11-14T08:15:12Z</time>
      </trkpt>
      <trkpt lat="38.9156020" lon="-0.2784040">
        <ele>145.6</ele>
        <time>2020-11-14T08:15:19Z</time>
      </trkpt>
      <trkpt lat="38.9157720" lon="-0.2780810">
        <ele>145.3</ele>
        <time>2020-11-14T08:15:23Z</time>
      </trkpt>
      <trkpt lat="38.9159850" lon="-0.2776820">
        <ele>145.1</ele>
        <time>2020-11-14T08:15:28Z</time>
      </trkpt>
      <trkpt lat="38.9163170" lon="-0.2770570">
        <ele>144.9</ele>
        <time>2020-11-14T08:15:36Z</time>
      </trkpt>
      <trkpt lat="38.9164810" lon="-0.2767430">
        <ele>145.1</ele>
        <time>2020-11-14T08:15:40Z</time>
      </trkpt>
      <trkpt lat="38.9166770" lon="-0.2763700">
        <ele>145.6</ele>
        <time>2020-11-14T08:15:45Z</time>
      </trkpt>
      <trkpt lat="38.9167130" lon="-0.2762990">
        <ele>145.7</ele>
        <time>2020-11-14T08:15:46Z</time>
      </trkpt>
      <trkpt lat="38.9168200" lon="-0.2760830">
        <ele>146.1</ele>
        <time>2020-11-14T08:15:49Z</time>
      </trkpt>
      <trkpt lat="38.9171270" lon="-0.2754750">
        <ele>147.1</ele>
        <time>2020-11-14T08:15:58Z</time>
      </trkpt>
      <trkpt lat="38.9174270" lon="-0.2748950">
        <ele>147.9</ele>
        <time>2020-11-14T08:16:07Z</time>
      </trkpt>
      <trkpt lat="38.9177360" lon="-0.2743040">
        <ele>149.5</ele>
        <time>2020-11-14T08:16:17Z</time>
      </trkpt>
      <trkpt lat="38.9181560" lon="-0.2738330">
        <ele>152.2</ele>
        <time>2020-11-14T08:16:28Z</time>
      </trkpt>
      <trkpt lat="38.9185250" lon="-0.2735790">
        <ele>154.2</ele>
        <time>2020-11-14T08:16:37Z</time>
      </trkpt>
      <trkpt lat="38.9186740" lon="-0.2734790">
        <ele>155.2</ele>
        <time>2020-11-14T08:16:41Z</time>
      </trkpt>
      <trkpt lat="38.9187460" lon="-0.2734270">
        <ele>155.7</ele>
        <time>2020-11-14T08:16:43Z</time>
      </trkpt>
      <trkpt lat="38.9190680" lon="-0.2732210">
        <ele>158.1</ele>
        <time>2020-11-14T08:16:52Z</time>
      </trkpt>
      <trkpt lat="38.9193490" lon="-0.2731000">
        <ele>160.2</ele>
        <time>2020-11-14T08:17:00Z</time>
      </trkpt>
      <trkpt lat="38.9198870" lon="-0.2730580">
        <ele>163.8</ele>
        <time>2020-11-14T08:17:15Z</time>
      </trkpt>
      <trkpt lat="38.9199970" lon="-0.2730780">
        <ele>164.5</ele>
        <time>2020-11-14T08:17:18Z</time>
      </trkpt>
      <trkpt lat="38.9200720" lon="-0.2730960">
        <ele>165.0</ele>
        <time>2020-11-14T08:17:20Z</time>
      </trkpt>
      <trkpt lat="38.9201830" lon="-0.2731220">
        <ele>165.7</ele>
        <time>2020-11-14T08:17:23Z</time>
      </trkpt>
      <trkpt lat="38.9202700" lon="-0.2731440">
        <ele>166.3</ele>
        <time>2020-11-14T08:17:25Z</time>
      </trkpt>
      <trkpt lat="38.9203630" lon="-0.2731840">
        <ele>167.0</ele>
        <time>2020-11-14T08:17:27Z</time>
      </trkpt>
      <trkpt lat="38.9208600" lon="-0.2729860">
        <ele>169.7</ele>
        <time>2020-11-14T08:17:41Z</time>
      </trkpt>
      <trkpt lat="38.9209120" lon="-0.2728440">
        <ele>170.1</ele>
        <time>2020-11-14T08:17:44Z</time>
      </trkpt>
      <trkpt lat="38.9209250" lon="-0.2727340">
        <ele>170.2</ele>
        <time>2020-11-14T08:17:46Z</time>
      </trkpt>
      <trkpt lat="38.9209070" lon="-0.2726210">
        <ele>170.3</ele>
        <time>2020-11-14T08:17:48Z</time>
      </trkpt>
      <trkpt lat="38.9208080" lon="-0.2724020">
        <ele>170.6</ele>
        <time>2020-11-14T08:17:52Z</time>
      </trkpt>
      <trkpt lat="38.9207770" lon="-0.2722760">
        <ele>170.7</ele>
        <time>2020-11-14T08:17:54Z</time>
      </trkpt>
      <trkpt lat="38.9207770" lon="-0.2721450">
        <ele>170.7</ele>
        <time>2020-11-14T08:17:56Z</time>
      </trkpt>
      <trkpt lat="38.9208320" lon="-0.2720280">
        <ele>170.6</ele>
        <time>2020-11-14T08:17:58Z</time>
      </trkpt>
      <trkpt lat="38.9210640" lon="-0.2717930">
        <ele>169.8</ele>
        <time>2020-11-14T08:18:03Z</time>
      </trkpt>
      <trkpt lat="38.9214500" lon="-0.2711660">
        <ele>168.7</ele>
        <time>2020-11-14T08:18:11Z</time>
      </trkpt>
      <trkpt lat="38.9217220" lon="-0.2707900">
        <ele>168.3</ele>
        <time>2020-11-14T08:18:16Z</time>
      </trkpt>
      <trkpt lat="38.9220300" lon="-0.2703510">
        <ele>167.6</ele>
        <time>2020-11-14T08:18:22Z</time>
      </trkpt>
      <trkpt lat="38.9222540" lon="-0.2699400">
        <ele>166.6</ele>
        <time>2020-11-14T08:18:27Z</time>
      </trkpt>
      <trkpt lat="38.9225680" lon="-0.2692890">
        <ele>163.9</ele>
        <time>2020-11-14T08:18:34Z</time>
      </trkpt>
      <trkpt lat="38.9226460" lon="-0.2690760">
        <ele>162.7</ele>
        <time>2020-11-14T08:18:36Z</time>
      </trkpt>
      <trkpt lat="38.9226870" lon="-0.2689650">
        <ele>162.0</ele>
        <time>2020-11-14T08:18:37Z</time>
      </trkpt>
      <trkpt lat="38.9228180" lon="-0.2686140">
        <ele>159.7</ele>
        <time>2020-11-14T08:18:40Z</time>
      </trkpt>
      <trkpt lat="38.9230510" lon="-0.2679690">
        <ele>155.7</ele>
        <time>2020-11-14T08:18:45Z</time>
      </trkpt>
      <trkpt lat="38.9233080" lon="-0.2672660">
        <ele>151.0</ele>
        <time>2020-11-14T08:18:50Z</time>
      </trkpt>
      <trkpt lat="38.9235220" lon="-0.2666570">
        <ele>147.0</ele>
        <time>2020-11-14T08:18:54Z</time>
      </trkpt>
      <trkpt lat="38.9237530" lon="-0.2660150">
        <ele>142.8</ele>
        <time>2020-11-14T08:18:58Z</time>
      </trkpt>
      <trkpt lat="38.9239790" lon="-0.2653590">
        <ele>138.6</ele>
        <time>2020-11-14T08:19:02Z</time>
      </trkpt>
      <trkpt lat="38.9241760" lon="-0.2648120">
        <ele>135.4</ele>
        <time>2020-11-14T08:19:06Z</time>
      </trkpt>
      <trkpt lat="38.9242880" lon="-0.2646080">
        <ele>135.0</ele>
        <time>2020-11-14T08:19:08Z</time>
      </trkpt>
      <trkpt lat="38.9245100" lon="-0.2643650">
        <ele>133.7</ele>
        <time>2020-11-14T08:19:11Z</time>
      </trkpt>
      <trkpt lat="38.9246030" lon="-0.2641270">
        <ele>131.9</ele>
        <time>2020-11-14T08:19:13Z</time>
      </trkpt>
      <trkpt lat="38.9247870" lon="-0.2634720">
        <ele>129.7</ele>
        <time>2020-11-14T08:19:18Z</time>
      </trkpt>
      <trkpt lat="38.9250890" lon="-0.2628770">
        <ele>127.3</ele>
        <time>2020-11-14T08:19:23Z</time>
      </trkpt>
      <trkpt lat="38.9255370" lon="-0.2624470">
        <ele>124.5</ele>
        <time>2020-11-14T08:19:28Z</time>
      </trkpt>
      <trkpt lat="38.9260490" lon="-0.2620890">
        <ele>121.3</ele>
        <time>2020-11-14T08:19:33Z</time>
      </trkpt>
      <trkpt lat="38.9265580" lon="-0.2617390">
        <ele>117.9</ele>
        <time>2020-11-14T08:19:38Z</time>
      </trkpt>
      <trkpt lat="38.9270810" lon="-0.2613750">
        <ele>114.5</ele>
        <time>2020-11-14T08:19:43Z</time>
      </trkpt>
      <trkpt lat="38.9275770" lon="-0.2610140">
        <ele>111.9</ele>
        <time>2020-11-14T08:19:48Z</time>
      </trkpt>
      <trkpt lat="38.9280600" lon="-0.2606650">
        <ele>108.3</ele>
        <time>2020-11-14T08:19:53Z</time>
      </trkpt>
      <trkpt lat="38.9285390" lon="-0.2603250">
        <ele>105.1</ele>
        <time>2020-11-14T08:19:58Z</time>
      </trkpt>
      <trkpt lat="38.9290120" lon="-0.2599880">
        <ele>102.4</ele>
        <time>2020-11-14T08:20:03Z</time>
      </trkpt>
      <trkpt lat="38.9295480" lon="-0.2596020">
        <ele>101.0</ele>
        <time>2020-11-14T08:20:09Z</time>
      </trkpt>
      <trkpt lat="38.9297520" lon="-0.2594430">
        <ele>101.2</ele>
        <time>2020-11-14T08:20:12Z</time>
      </trkpt>
      <trkpt lat="38.9299220" lon="-0.2592910">
        <ele>101.4</ele>
        <time>2020-11-14T08:20:15Z</time>
      </trkpt>
      <trkpt lat="38.9303160" lon="-0.2590260">
        <ele>101.9</ele>
        <time>2020-11-14T08:20:21Z</time>
      </trkpt>
      <trkpt lat="38.9307510" lon="-0.2586920">
        <ele>102.7</ele>
        <time>2020-11-14T08:20:29Z</time>
      </trkpt>
      <trkpt lat="38.9310790" lon="-0.2580970">
        <ele>103.5</ele>
        <time>2020-11-14T08:20:39Z</time>
      </trkpt>
      <trkpt lat="38.9313270" lon="-0.2574020">
        <ele>103.9</ele>
        <time>2020-11-14T08:20:49Z</time>
      </trkpt>
      <trkpt lat="38.9315700" lon="-0.2567450">
        <ele>104.2</ele>
        <time>2020-11-14T08:20:58Z</time>
      </trkpt>
      <trkpt lat="38.9318400" lon="-0.2561410">
        <ele>103.7</ele>
        <time>2020-11-14T08:21:06Z</time>
      </trkpt>
      <trkpt lat="38.9320750" lon="-0.2555020">
        <ele>102.9</ele>
        <time>2020-11-14T08:21:16Z</time>
      </trkpt>
      <trkpt lat="38.9321510" lon="-0.2552720">
        <ele>102.6</ele>
        <time>2020-11-14T08:21:19Z</time>
      </trkpt>
      <trkpt lat="38.9323990" lon="-0.2545680">
        <ele>101.2</ele>
        <time>2020-11-14T08:21:28Z</time>
      </trkpt>
      <trkpt lat="38.9325230" lon="-0.2542460">
        <ele>100.2</ele>
        <time>2020-11-14T08:21:32Z</time>
      </trkpt>
      <trkpt lat="38.9327840" lon="-0.2535920">
        <ele>96.4</ele>
        <time>2020-11-14T08:21:39Z</time>
      </trkpt>
      <trkpt lat="38.9330620" lon="-0.2529950">
        <ele>91.7</ele>
        <time>2020-11-14T08:21:45Z</time>
      </trkpt>
      <trkpt lat="38.9331850" lon="-0.2527100">
        <ele>90.4</ele>
        <time>2020-11-14T08:21:48Z</time>
      </trkpt>
      <trkpt lat="38.9332130" lon="-0.2525440">
        <ele>89.9</ele>
        <time>2020-11-14T08:21:50Z</time>
      </trkpt>
      <trkpt lat="38.9331880" lon="-0.2523050">
        <ele>88.7</ele>
        <time>2020-11-14T08:21:53Z</time>
      </trkpt>
      <trkpt lat="38.9332390" lon="-0.2521430">
        <ele>86.1</ele>
        <time>2020-11-14T08:21:55Z</time>
      </trkpt>
      <trkpt lat="38.9333550" lon="-0.2520640">
        <ele>86.1</ele>
        <time>2020-11-14T08:21:57Z</time>
      </trkpt>
      <trkpt lat="38.9334740" lon="-0.2520920">
        <ele>86.2</ele>
        <time>2020-11-14T08:21:59Z</time>
      </trkpt>
      <trkpt lat="38.9336470" lon="-0.2521590">
        <ele>85.3</ele>
        <time>2020-11-14T08:22:02Z</time>
      </trkpt>
      <trkpt lat="38.9337340" lon="-0.2520690">
        <ele>84.6</ele>
        <time>2020-11-14T08:22:04Z</time>
      </trkpt>
      <trkpt lat="38.9337530" lon="-0.2518870">
        <ele>83.8</ele>
        <time>2020-11-14T08:22:06Z</time>
      </trkpt>
      <trkpt lat="38.9337440" lon="-0.2515820">
        <ele>82.9</ele>
        <time>2020-11-14T08:22:09Z</time>
      </trkpt>
      <trkpt lat="38.9337900" lon="-0.2513900">
        <ele>82.5</ele>
        <time>2020-11-14T08:22:11Z</time>
      </trkpt>
      <trkpt lat="38.9340580" lon="-0.2507590">
        <ele>81.4</ele>
        <time>2020-11-14T08:22:18Z</time>
      </trkpt>
      <trkpt lat="38.9343510" lon="-0.2500900">
        <ele>80.3</ele>
        <time>2020-11-14T08:22:25Z</time>
      </trkpt>
      <trkpt lat="38.9346430" lon="-0.2493940">
        <ele>79.4</ele>
        <time>2020-11-14T08:22:32Z</time>
      </trkpt>
      <trkpt lat="38.9349420" lon="-0.2487170">
        <ele>78.5</ele>
        <time>2020-11-14T08:22:39Z</time>
      </trkpt>
      <trkpt lat="38.9352370" lon="-0.2480330">
        <ele>77.6</ele>
        <time>2020-11-14T08:22:46Z</time>
      </trkpt>
      <trkpt lat="38.9355280" lon="-0.2473590">
        <ele>77.2</ele>
        <time>2020-11-14T08:22:53Z</time>
      </trkpt>
      <trkpt lat="38.9356870" lon="-0.2469850">
        <ele>77.0</ele>
        <time>2020-11-14T08:22:57Z</time>
      </trkpt>
      <trkpt lat="38.9357240" lon="-0.2468920">
        <ele>77.0</ele>
        <time>2020-11-14T08:22:58Z</time>
      </trkpt>
      <trkpt lat="38.9358440" lon="-0.2466220">
        <ele>77.0</ele>
        <time>2020-11-14T08:23:01Z</time>
      </trkpt>
      <trkpt lat="38.9359620" lon="-0.2463560">
        <ele>77.0</ele>
        <time>2020-11-14T08:23:04Z</time>
      </trkpt>
      <trkpt lat="38.9362400" lon="-0.2457410">
        <ele>76.7</ele>
        <time>2020-11-14T08:23:11Z</time>
      </trkpt>
      <trkpt lat="38.9364340" lon="-0.2452990">
        <ele>76.5</ele>
        <time>2020-11-14T08:23:16Z</time>
      </trkpt>
      <trkpt lat="38.9367060" lon="-0.2446750">
        <ele>76.1</ele>
        <time>2020-11-14T08:23:23Z</time>
      </trkpt>
      <trkpt lat="38.9368230" lon="-0.2444060">
        <ele>75.9</ele>
        <time>2020-11-14T08:23:26Z</time>
      </trkpt>
      <trkpt lat="38.9370970" lon="-0.2437860">
        <ele>75.5</ele>
        <time>2020-11-14T08:23:33Z</time>
      </trkpt>
      <trkpt lat="38.9373660" lon="-0.2431740">
        <ele>75.0</ele>
        <time>2020-11-14T08:23:40Z</time>
      </trkpt>
      <trkpt lat="38.9375990" lon="-0.2426460">
        <ele>74.6</ele>
        <time>2020-11-14T08:23:46Z</time>
      </trkpt>
      <trkpt lat="38.9376770" lon="-0.2424660">
        <ele>74.5</ele>
        <time>2020-11-14T08:23:48Z</time>
      </trkpt>
      <trkpt lat="38.9379590" lon="-0.2418310">
        <ele>74.0</ele>
        <time>2020-11-14T08:23:55Z</time>
      </trkpt>
      <trkpt lat="38.9382420" lon="-0.2411810">
        <ele>73.4</ele>
        <time>2020-11-14T08:24:02Z</time>
      </trkpt>
      <trkpt lat="38.9385280" lon="-0.2405260">
        <ele>73.0</ele>
        <time>2020-11-14T08:24:09Z</time>
      </trkpt>
      <trkpt lat="38.9387930" lon="-0.2398580">
        <ele>72.5</ele>
        <time>2020-11-14T08:24:16Z</time>
      </trkpt>
      <trkpt lat="38.9390410" lon="-0.2391640">
        <ele>72.0</ele>
        <time>2020-11-14T08:24:23Z</time>
      </trkpt>
      <trkpt lat="38.9392430" lon="-0.2384530">
        <ele>71.5</ele>
        <time>2020-11-14T08:24:30Z</time>
      </trkpt>
      <trkpt lat="38.9393880" lon="-0.2377240">
        <ele>71.1</ele>
        <time>2020-11-14T08:24:37Z</time>
      </trkpt>
      <trkpt lat="38.9394940" lon="-0.2369910">
        <ele>70.8</ele>
        <time>2020-11-14T08:24:44Z</time>
      </trkpt>
      <trkpt lat="38.9395840" lon="-0.2362730">
        <ele>70.3</ele>
        <time>2020-11-14T08:24:51Z</time>
      </trkpt>
      <trkpt lat="38.9396590" lon="-0.2355850">
        <ele>69.7</ele>
        <time>2020-11-14T08:24:58Z</time>
      </trkpt>
      <trkpt lat="38.9397090" lon="-0.2348430">
        <ele>69.2</ele>
        <time>2020-11-14T08:25:05Z</time>
      </trkpt>
      <trkpt lat="38.9397460" lon="-0.2341190">
        <ele>68.5</ele>
        <time>2020-11-14T08:25:12Z</time>
      </trkpt>
      <trkpt lat="38.9397770" lon="-0.2334030">
        <ele>67.9</ele>
        <time>2020-11-14T08:25:19Z</time>
      </trkpt>
      <trkpt lat="38.9397860" lon="-0.2331090">
        <ele>67.7</ele>
        <time>2020-11-14T08:25:22Z</time>
      </trkpt>
      <trkpt lat="38.9397920" lon="-0.2328160">
        <ele>67.4</ele>
        <time>2020-11-14T08:25:25Z</time>
      </trkpt>
      <trkpt lat="38.9397970" lon="-0.2326210">
        <ele>67.2</ele>
        <time>2020-11-14T08:25:27Z</time>
      </trkpt>
      <trkpt lat="38.9398280" lon="-0.2318400">
        <ele>66.4</ele>
        <time>2020-11-14T08:25:35Z</time>
      </trkpt>
      <trkpt lat="38.9398560" lon="-0.2311480">
        <ele>65.7</ele>
        <time>2020-11-14T08:25:42Z</time>
      </trkpt>
      <trkpt lat="38.9399260" lon="-0.2304570">
        <ele>65.4</ele>
        <time>2020-11-14T08:25:49Z</time>
      </trkpt>
      <trkpt lat="38.9401100" lon="-0.2298060">
        <ele>65.9</ele>
        <time>2020-11-14T08:25:56Z</time>
      </trkpt>
      <trkpt lat="38.9401740" lon="-0.2296410">
        <ele>66.5</ele>
        <time>2020-11-14T08:25:58Z</time>
      </trkpt>
      <trkpt lat="38.9402600" lon="-0.2295170">
        <ele>67.2</ele>
        <time>2020-11-14T08:26:00Z</time>
      </trkpt>
      <trkpt lat="38.9403750" lon="-0.2293740">
        <ele>68.2</ele>
        <time>2020-11-14T08:26:03Z</time>
      </trkpt>
      <trkpt lat="38.9404140" lon="-0.2292650">
        <ele>68.6</ele>
        <time>2020-11-14T08:26:05Z</time>
      </trkpt>
      <trkpt lat="38.9404050" lon="-0.2291410">
        <ele>69.0</ele>
        <time>2020-11-14T08:26:07Z</time>
      </trkpt>
      <trkpt lat="38.9403350" lon="-0.2290660">
        <ele>69.4</ele>
        <time>2020-11-14T08:26:09Z</time>
      </trkpt>
      <trkpt lat="38.9402390" lon="-0.2290570">
        <ele>69.6</ele>
        <time>2020-11-14T08:26:11Z</time>
      </trkpt>
      <trkpt lat="38.9401330" lon="-0.2290600">
        <ele>70.2</ele>
        <time>2020-11-14T08:26:13Z</time>
      </trkpt>
      <trkpt lat="38.9400370" lon="-0.2290030">
        <ele>70.8</ele>
        <time>2020-11-14T08:26:15Z</time>
      </trkpt>
      <trkpt lat="38.9399630" lon="-0.2289080">
        <ele>71.2</ele>
        <time>2020-11-14T08:26:17Z</time>
      </trkpt>
      <trkpt lat="38.9398680" lon="-0.2288360">
        <ele>71.4</ele>
        <time>2020-11-14T08:26:19Z</time>
      </trkpt>
      <trkpt lat="38.9394090" lon="-0.2288160">
        <ele>71.5</ele>
        <time>2020-11-14T08:26:27Z</time>
      </trkpt>
      <trkpt lat="38.9392970" lon="-0.2288880">
        <ele>71.5</ele>
        <time>2020-11-14T08:26:29Z</time>
      </trkpt>
      <trkpt lat="38.9391920" lon="-0.2289810">
        <ele>71.4</ele>
        <time>2020-11-14T08:26:31Z</time>
      </trkpt>
      <trkpt lat="38.9390030" lon="-0.2290490">
        <ele>71.1</ele>
        <time>2020-11-14T08:26:34Z</time>
      </trkpt>
      <trkpt lat="38.9389030" lon="-0.2291700">
        <ele>69.6</ele>
        <time>2020-11-14T08:26:36Z</time>
      </trkpt>
      <trkpt lat="38.9389030" lon="-0.2293650">
        <ele>68.6</ele>
        <time>2020-11-14T08:26:38Z</time>
      </trkpt>
      <trkpt lat="38.9389930" lon="-0.2295450">
        <ele>67.7</ele>
        <time>2020-11-14T08:26:40Z</time>
      </trkpt>
      <trkpt lat="38.9391260" lon="-0.2297740">
        <ele>66.7</ele>
        <time>2020-11-14T08:26:43Z</time>
      </trkpt>
      <trkpt lat="38.9390370" lon="-0.2298210">
        <ele>66.4</ele>
        <time>2020-11-14T08:26:48Z</time>
      </trkpt>
      <trkpt lat="38.9388310" lon="-0.2295770">
        <ele>65.8</ele>
        <time>2020-11-14T08:26:53Z</time>
      </trkpt>
      <trkpt lat="38.9387600" lon="-0.2294460">
        <ele>65.5</ele>
        <time>2020-11-14T08:26:55Z</time>
      </trkpt>
      <trkpt lat="38.9387390" lon="-0.2293670">
        <ele>65.4</ele>
        <time>2020-11-14T08:26:56Z</time>
      </trkpt>
      <trkpt lat="38.9387210" lon="-0.2292040">
        <ele>65.0</ele>
        <time>2020-11-14T08:26:58Z</time>
      </trkpt>
      <trkpt lat="38.9387140" lon="-0.2284410">
        <ele>65.3</ele>
        <time>2020-11-14T08:27:07Z</time>
      </trkpt>
      <trkpt lat="38.9387770" lon="-0.2283160">
        <ele>65.3</ele>
        <time>2020-11-14T08:27:09Z</time>
      </trkpt>
      <trkpt lat="38.9390210" lon="-0.2280330">
        <ele>65.1</ele>
        <time>2020-11-14T08:27:14Z</time>
      </trkpt>
      <trkpt lat="38.9391400" lon="-0.2277190">
        <ele>64.9</ele>
        <time>2020-11-14T08:27:18Z</time>
      </trkpt>
      <trkpt lat="38.9392960" lon="-0.2270360">
        <ele>64.0</ele>
        <time>2020-11-14T08:27:26Z</time>
      </trkpt>
      <trkpt lat="38.9393470" lon="-0.2267690">
        <ele>63.4</ele>
        <time>2020-11-14T08:27:29Z</time>
      </trkpt>
      <trkpt lat="38.9394220" lon="-0.2261670">
        <ele>61.9</ele>
        <time>2020-11-14T08:27:35Z</time>
      </trkpt>
      <trkpt lat="38.9394100" lon="-0.2254290">
        <ele>60.9</ele>
        <time>2020-11-14T08:27:42Z</time>
      </trkpt>
      <trkpt lat="38.9393720" lon="-0.2250300">
        <ele>60.5</ele>
        <time>2020-11-14T08:27:46Z</time>
      </trkpt>
      <trkpt lat="38.9392370" lon="-0.2243410">
        <ele>59.7</ele>
        <time>2020-11-14T08:27:53Z</time>
      </trkpt>
      <trkpt lat="38.9390010" lon="-0.2236730">
        <ele>58.8</ele>
        <time>2020-11-14T08:28:00Z</time>
      </trkpt>
      <trkpt lat="38.9387310" lon="-0.2231300">
        <ele>57.8</ele>
        <time>2020-11-14T08:28:06Z</time>
      </trkpt>
      <trkpt lat="38.9383950" lon="-0.2226190">
        <ele>56.5</ele>
        <time>2020-11-14T08:28:12Z</time>
      </trkpt>
      <trkpt lat="38.9383300" lon="-0.2225400">
        <ele>56.2</ele>
        <time>2020-11-14T08:28:13Z</time>
      </trkpt>
      <trkpt lat="38.9382630" lon="-0.2224630">
        <ele>56.0</ele>
        <time>2020-11-14T08:28:14Z</time>
      </trkpt>
      <trkpt lat="38.9381960" lon="-0.2223880">
        <ele>55.8</ele>
        <time>2020-11-14T08:28:15Z</time>
      </trkpt>
      <trkpt lat="38.9377100" lon="-0.2218840">
        <ele>54.7</ele>
        <time>2020-11-14T08:28:22Z</time>
      </trkpt>
      <trkpt lat="38.9374500" lon="-0.2216070">
        <ele>54.4</ele>
        <time>2020-11-14T08:28:26Z</time>
      </trkpt>
      <trkpt lat="38.9372530" lon="-0.2214020">
        <ele>54.0</ele>
        <time>2020-11-14T08:28:29Z</time>
      </trkpt>
      <trkpt lat="38.9369830" lon="-0.2211250">
        <ele>53.3</ele>
        <time>2020-11-14T08:28:33Z</time>
      </trkpt>
      <trkpt lat="38.9366390" lon="-0.2207760">
        <ele>52.8</ele>
        <time>2020-11-14T08:28:38Z</time>
      </trkpt>
      <trkpt lat="38.9361600" lon="-0.2203110">
        <ele>52.6</ele>
        <time>2020-11-14T08:28:45Z</time>
      </trkpt>
      <trkpt lat="38.9357400" lon="-0.2199200">
        <ele>52.0</ele>
        <time>2020-11-14T08:28:51Z</time>
      </trkpt>
      <trkpt lat="38.9355230" lon="-0.2197270">
        <ele>51.7</ele>
        <time>2020-11-14T08:28:54Z</time>
      </trkpt>
      <trkpt lat="38.9350540" lon="-0.2192960">
        <ele>51.8</ele>
        <time>2020-11-14T08:29:01Z</time>
      </trkpt>
      <trkpt lat="38.9346190" lon="-0.2188560">
        <ele>52.3</ele>
        <time>2020-11-14T08:29:08Z</time>
      </trkpt>
      <trkpt lat="38.9341870" lon="-0.2184170">
        <ele>55.0</ele>
        <time>2020-11-14T08:29:16Z</time>
      </trkpt>
      <trkpt lat="38.9337210" lon="-0.2179960">
        <ele>55.4</ele>
        <time>2020-11-14T08:29:25Z</time>
      </trkpt>
      <trkpt lat="38.9333950" lon="-0.2176510">
        <ele>55.0</ele>
        <time>2020-11-14T08:29:32Z</time>
      </trkpt>
      <trkpt lat="38.9332280" lon="-0.2175780">
        <ele>54.5</ele>
        <time>2020-11-14T08:29:35Z</time>
      </trkpt>
      <trkpt lat="38.9331030" lon="-0.2176300">
        <ele>54.1</ele>
        <time>2020-11-14T08:29:37Z</time>
      </trkpt>
      <trkpt lat="38.9326930" lon="-0.2181680">
        <ele>52.4</ele>
        <time>2020-11-14T08:29:45Z</time>
      </trkpt>
      <trkpt lat="38.9323860" lon="-0.2185530">
        <ele>51.3</ele>
        <time>2020-11-14T08:29:51Z</time>
      </trkpt>
      <trkpt lat="38.9322410" lon="-0.2186520">
        <ele>51.1</ele>
        <time>2020-11-14T08:29:53Z</time>
      </trkpt>
      <trkpt lat="38.9316940" lon="-0.2189120">
        <ele>50.7</ele>
        <time>2020-11-14T08:30:01Z</time>
      </trkpt>
      <trkpt lat="38.9311770" lon="-0.2191670">
        <ele>50.2</ele>
        <time>2020-11-14T08:30:10Z</time>
      </trkpt>
      <trkpt lat="38.9310280" lon="-0.2192500">
        <ele>50.1</ele>
        <time>2020-11-14T08:30:13Z</time>
      </trkpt>
      <trkpt lat="38.9309210" lon="-0.2192450">
        <ele>50.1</ele>
        <time>2020-11-14T08:30:15Z</time>
      </trkpt>
      <trkpt lat="38.9308290" lon="-0.2191740">
        <ele>50.0</ele>
        <time>2020-11-14T08:30:17Z</time>
      </trkpt>
      <trkpt lat="38.9307980" lon="-0.2190450">
        <ele>49.7</ele>
        <time>2020-11-14T08:30:19Z</time>
      </trkpt>
      <trkpt lat="38.9308310" lon="-0.2189210">
        <ele>49.7</ele>
        <time>2020-11-14T08:30:21Z</time>
      </trkpt>
      <trkpt lat="38.9309180" lon="-0.2188480">
        <ele>49.8</ele>
        <time>2020-11-14T08:30:23Z</time>
      </trkpt>
      <trkpt lat="38.9310270" lon="-0.2188720">
        <ele>49.9</ele>
        <time>2020-11-14T08:30:25Z</time>
      </trkpt>
      <trkpt lat="38.9311010" lon="-0.2189740">
        <ele>50.1</ele>
        <time>2020-11-14T08:30:27Z</time>
      </trkpt>
      <trkpt lat="38.9311020" lon="-0.2191110">
        <ele>50.1</ele>
        <time>2020-11-14T08:30:29Z</time>
      </trkpt>
      <trkpt lat="38.9310390" lon="-0.2192160">
        <ele>50.2</ele>
        <time>2020-11-14T08:30:31Z</time>
      </trkpt>
      <trkpt lat="38.9309300" lon="-0.2192600">
        <ele>50.1</ele>
        <time>2020-11-14T08:30:33Z</time>
      </trkpt>
      <trkpt lat="38.9308120" lon="-0.2192440">
        <ele>50.0</ele>
        <time>2020-11-14T08:30:35Z</time>
      </trkpt>
      <trkpt lat="38.9306860" lon="-0.2192240">
        <ele>49.8</ele>
        <time>2020-11-14T08:30:37Z</time>
      </trkpt>
      <trkpt lat="38.9301310" lon="-0.2192220">
        <ele>49.3</ele>
        <time>2020-11-14T08:30:45Z</time>
      </trkpt>
      <trkpt lat="38.9295910" lon="-0.2192760">
        <ele>50.2</ele>
        <time>2020-11-14T08:30:53Z</time>
      </trkpt>
      <trkpt lat="38.9290530" lon="-0.2193490">
        <ele>52.8</ele>
        <time>2020-11-14T08:31:02Z</time>
      </trkpt>
      <trkpt lat="38.9287600" lon="-0.2194100">
        <ele>54.5</ele>
        <time>2020-11-14T08:31:08Z</time>
      </trkpt>
      <trkpt lat="38.9285590" lon="-0.2195000">
        <ele>55.1</ele>
        <time>2020-11-14T08:31:14Z</time>
      </trkpt>
      <trkpt lat="38.9286280" lon="-0.2193490">
        <ele>54.9</ele>
        <time>2020-11-14T08:31:18Z</time>
      </trkpt>
      <trkpt lat="38.9292170" lon="-0.2192410">
        <ele>51.9</ele>
        <time>2020-11-14T08:31:27Z</time>
      </trkpt>
      <trkpt lat="38.9295800" lon="-0.2192110">
        <ele>50.2</ele>
        <time>2020-11-14T08:31:31Z</time>
      </trkpt>
      <trkpt lat="38.9301530" lon="-0.2191680">
        <ele>49.3</ele>
        <time>2020-11-14T08:31:37Z</time>
      </trkpt>
      <trkpt lat="38.9306270" lon="-0.2191080">
        <ele>49.6</ele>
        <time>2020-11-14T08:31:43Z</time>
      </trkpt>
      <trkpt lat="38.9307410" lon="-0.2190090">
        <ele>49.6</ele>
        <time>2020-11-14T08:31:45Z</time>
      </trkpt>
      <trkpt lat="38.9308240" lon="-0.2188720">
        <ele>49.7</ele>
        <time>2020-11-14T08:31:47Z</time>
      </trkpt>
      <trkpt lat="38.9308790" lon="-0.2188170">
        <ele>49.8</ele>
        <time>2020-11-14T08:31:48Z</time>
      </trkpt>
      <trkpt lat="38.9309870" lon="-0.2187180">
        <ele>49.7</ele>
        <time>2020-11-14T08:31:50Z</time>
      </trkpt>
      <trkpt lat="38.9313320" lon="-0.2181000">
        <ele>50.2</ele>
        <time>2020-11-14T08:31:58Z</time>
      </trkpt>
      <trkpt lat="38.9316520" lon="-0.2175130">
        <ele>52.0</ele>
        <time>2020-11-14T08:32:06Z</time>
      </trkpt>
      <trkpt lat="38.9318910" lon="-0.2170700">
        <ele>54.6</ele>
        <time>2020-11-14T08:32:12Z</time>
      </trkpt>
      <trkpt lat="38.9321960" lon="-0.2164980">
        <ele>57.1</ele>
        <time>2020-11-14T08:32:21Z</time>
      </trkpt>
      <trkpt lat="38.9322200" lon="-0.2164390">
        <ele>57.1</ele>
        <time>2020-11-14T08:32:22Z</time>
      </trkpt>
      <trkpt lat="38.9322460" lon="-0.2163140">
        <ele>57.1</ele>
        <time>2020-11-14T08:32:24Z</time>
      </trkpt>
      <trkpt lat="38.9322490" lon="-0.2161770">
        <ele>57.6</ele>
        <time>2020-11-14T08:32:26Z</time>
      </trkpt>
      <trkpt lat="38.9322010" lon="-0.2159000">
        <ele>58.3</ele>
        <time>2020-11-14T08:32:30Z</time>
      </trkpt>
      <trkpt lat="38.9321970" lon="-0.2157600">
        <ele>58.6</ele>
        <time>2020-11-14T08:32:32Z</time>
      </trkpt>
      <trkpt lat="38.9322210" lon="-0.2156230">
        <ele>58.8</ele>
        <time>2020-11-14T08:32:34Z</time>
      </trkpt>
      <trkpt lat="38.9322780" lon="-0.2155000">
        <ele>59.0</ele>
        <time>2020-11-14T08:32:36Z</time>
      </trkpt>
      <trkpt lat="38.9323640" lon="-0.2154080">
        <ele>59.1</ele>
        <time>2020-11-14T08:32:38Z</time>
      </trkpt>
      <trkpt lat="38.9324680" lon="-0.2153560">
        <ele>59.3</ele>
        <time>2020-11-14T08:32:40Z</time>
      </trkpt>
      <trkpt lat="38.9325780" lon="-0.2153430">
        <ele>59.4</ele>
        <time>2020-11-14T08:32:42Z</time>
      </trkpt>
      <trkpt lat="38.9327520" lon="-0.2153420">
        <ele>58.8</ele>
        <time>2020-11-14T08:32:45Z</time>
      </trkpt>
      <trkpt lat="38.9329150" lon="-0.2152090">
        <ele>58.0</ele>
        <time>2020-11-14T08:32:48Z</time>
      </trkpt>
      <trkpt lat="38.9332200" lon="-0.2145370">
        <ele>55.3</ele>
        <time>2020-11-14T08:32:55Z</time>
      </trkpt>
      <trkpt lat="38.9334900" lon="-0.2139020">
        <ele>54.4</ele>
        <time>2020-11-14T08:33:01Z</time>
      </trkpt>
      <trkpt lat="38.9337520" lon="-0.2132920">
        <ele>54.0</ele>
        <time>2020-11-14T08:33:07Z</time>
      </trkpt>
      <trkpt lat="38.9339660" lon="-0.2127940">
        <ele>53.8</ele>
        <time>2020-11-14T08:33:12Z</time>
      </trkpt>
      <trkpt lat="38.9342580" lon="-0.2121070">
        <ele>53.2</ele>
        <time>2020-11-14T08:33:19Z</time>
      </trkpt>
      <trkpt lat="38.9345280" lon="-0.2114570">
        <ele>53.2</ele>
        <time>2020-11-14T08:33:26Z</time>
      </trkpt>
      <trkpt lat="38.9345520" lon="-0.2113600">
        <ele>53.2</ele>
        <time>2020-11-14T08:33:27Z</time>
      </trkpt>
      <trkpt lat="38.9345650" lon="-0.2112590">
        <ele>53.1</ele>
        <time>2020-11-14T08:33:28Z</time>
      </trkpt>
      <trkpt lat="38.9345640" lon="-0.2109570">
        <ele>52.8</ele>
        <time>2020-11-14T08:33:31Z</time>
      </trkpt>
      <trkpt lat="38.9346250" lon="-0.2107780">
        <ele>52.5</ele>
        <time>2020-11-14T08:33:33Z</time>
      </trkpt>
      <trkpt lat="38.9347430" lon="-0.2106770">
        <ele>52.5</ele>
        <time>2020-11-14T08:33:35Z</time>
      </trkpt>
      <trkpt lat="38.9348060" lon="-0.2106360">
        <ele>52.6</ele>
        <time>2020-11-14T08:33:36Z</time>
      </trkpt>
      <trkpt lat="38.9348640" lon="-0.2105840">
        <ele>52.6</ele>
        <time>2020-11-14T08:33:37Z</time>
      </trkpt>
      <trkpt lat="38.9349610" lon="-0.2104480">
        <ele>52.6</ele>
        <time>2020-11-14T08:33:39Z</time>
      </trkpt>
      <trkpt lat="38.9352540" lon="-0.2097850">
        <ele>52.3</ele>
        <time>2020-11-14T08:33:47Z</time>
      </trkpt>
      <trkpt lat="38.9354830" lon="-0.2092510">
        <ele>51.5</ele>
        <time>2020-11-14T08:33:53Z</time>
      </trkpt>
      <trkpt lat="38.9357790" lon="-0.2085640">
        <ele>50.2</ele>
        <time>2020-11-14T08:34:00Z</time>
      </trkpt>
      <trkpt lat="38.9360500" lon="-0.2079350">
        <ele>49.1</ele>
        <time>2020-11-14T08:34:06Z</time>
      </trkpt>
      <trkpt lat="38.9363200" lon="-0.2073050">
        <ele>48.7</ele>
        <time>2020-11-14T08:34:12Z</time>
      </trkpt>
      <trkpt lat="38.9365890" lon="-0.2066840">
        <ele>48.3</ele>
        <time>2020-11-14T08:34:18Z</time>
      </trkpt>
      <trkpt lat="38.9368750" lon="-0.2060730">
        <ele>48.0</ele>
        <time>2020-11-14T08:34:24Z</time>
      </trkpt>
      <trkpt lat="38.9371580" lon="-0.2055990">
        <ele>47.7</ele>
        <time>2020-11-14T08:34:29Z</time>
      </trkpt>
      <trkpt lat="38.9373520" lon="-0.2053330">
        <ele>47.6</ele>
        <time>2020-11-14T08:34:32Z</time>
      </trkpt>
      <trkpt lat="38.9377710" lon="-0.2048760">
        <ele>47.6</ele>
        <time>2020-11-14T08:34:38Z</time>
      </trkpt>
      <trkpt lat="38.9382860" lon="-0.2044400">
        <ele>47.3</ele>
        <time>2020-11-14T08:34:45Z</time>
      </trkpt>
      <trkpt lat="38.9388170" lon="-0.2040330">
        <ele>47.0</ele>
        <time>2020-11-14T08:34:52Z</time>
      </trkpt>
      <trkpt lat="38.9393430" lon="-0.2036290">
        <ele>46.7</ele>
        <time>2020-11-14T08:34:59Z</time>
      </trkpt>
      <trkpt lat="38.9398680" lon="-0.2032240">
        <ele>46.4</ele>
        <time>2020-11-14T08:35:06Z</time>
      </trkpt>
      <trkpt lat="38.9403790" lon="-0.2028120">
        <ele>46.0</ele>
        <time>2020-11-14T08:35:13Z</time>
      </trkpt>
      <trkpt lat="38.9408770" lon="-0.2024310">
        <ele>45.7</ele>
        <time>2020-11-14T08:35:20Z</time>
      </trkpt>
      <trkpt lat="38.9409670" lon="-0.2022600">
        <ele>45.6</ele>
        <time>2020-11-14T08:35:22Z</time>
      </trkpt>
      <trkpt lat="38.9410680" lon="-0.2021000">
        <ele>45.5</ele>
        <time>2020-11-14T08:35:24Z</time>
      </trkpt>
      <trkpt lat="38.9412220" lon="-0.2020250">
        <ele>45.4</ele>
        <time>2020-11-14T08:35:26Z</time>
      </trkpt>
      <trkpt lat="38.9414750" lon="-0.2019190">
        <ele>45.2</ele>
        <time>2020-11-14T08:35:29Z</time>
      </trkpt>
      <trkpt lat="38.9419620" lon="-0.2015900">
        <ele>44.8</ele>
        <time>2020-11-14T08:35:35Z</time>
      </trkpt>
      <trkpt lat="38.9424460" lon="-0.2012370">
        <ele>44.4</ele>
        <time>2020-11-14T08:35:41Z</time>
      </trkpt>
      <trkpt lat="38.9429250" lon="-0.2008580">
        <ele>44.1</ele>
        <time>2020-11-14T08:35:47Z</time>
      </trkpt>
      <trkpt lat="38.9434140" lon="-0.2004820">
        <ele>44.0</ele>
        <time>2020-11-14T08:35:53Z</time>
      </trkpt>
      <trkpt lat="38.9438910" lon="-0.2001110">
        <ele>44.1</ele>
        <time>2020-11-14T08:35:59Z</time>
      </trkpt>
      <trkpt lat="38.9443610" lon="-0.1997470">
        <ele>44.2</ele>
        <time>2020-11-14T08:36:05Z</time>
      </trkpt>
      <trkpt lat="38.9448250" lon="-0.1993880">
        <ele>44.2</ele>
        <time>2020-11-14T08:36:11Z</time>
      </trkpt>
      <trkpt lat="38.9453700" lon="-0.1989670">
        <ele>44.4</ele>
        <time>2020-11-14T08:36:18Z</time>
      </trkpt>
      <trkpt lat="38.9458660" lon="-0.1985820">
        <ele>44.7</ele>
        <time>2020-11-14T08:36:24Z</time>
      </trkpt>
      <trkpt lat="38.9463710" lon="-0.1981960">
        <ele>44.7</ele>
        <time>2020-11-14T08:36:30Z</time>
      </trkpt>
      <trkpt lat="38.9468450" lon="-0.1978390">
        <ele>44.7</ele>
        <time>2020-11-14T08:36:36Z</time>
      </trkpt>
      <trkpt lat="38.9469830" lon="-0.1977330">
        <ele>44.6</ele>
        <time>2020-11-14T08:36:38Z</time>
      </trkpt>
      <trkpt lat="38.9474500" lon="-0.1973210">
        <ele>44.2</ele>
        <time>2020-11-14T08:36:45Z</time>
      </trkpt>
      <trkpt lat="38.9475830" lon="-0.1970620">
        <ele>44.0</ele>
        <time>2020-11-14T08:36:48Z</time>
      </trkpt>
      <trkpt lat="38.9477200" lon="-0.1969520">
        <ele>43.8</ele>
        <time>2020-11-14T08:36:50Z</time>
      </trkpt>
      <trkpt lat="38.9480680" lon="-0.1968320">
        <ele>42.4</ele>
        <time>2020-11-14T08:36:54Z</time>
      </trkpt>
      <trkpt lat="38.9485770" lon="-0.1964550">
        <ele>41.2</ele>
        <time>2020-11-14T08:37:00Z</time>
      </trkpt>
      <trkpt lat="38.9490660" lon="-0.1960610">
        <ele>40.2</ele>
        <time>2020-11-14T08:37:06Z</time>
      </trkpt>
      <trkpt lat="38.9495450" lon="-0.1957000">
        <ele>39.8</ele>
        <time>2020-11-14T08:37:12Z</time>
      </trkpt>
      <trkpt lat="38.9500830" lon="-0.1952820">
        <ele>39.3</ele>
        <time>2020-11-14T08:37:19Z</time>
      </trkpt>
      <trkpt lat="38.9506050" lon="-0.1948750">
        <ele>38.8</ele>
        <time>2020-11-14T08:37:26Z</time>
      </trkpt>
      <trkpt lat="38.9508930" lon="-0.1946480">
        <ele>38.7</ele>
        <time>2020-11-14T08:37:30Z</time>
      </trkpt>
      <trkpt lat="38.9511120" lon="-0.1944840">
        <ele>38.4</ele>
        <time>2020-11-14T08:37:33Z</time>
      </trkpt>
      <trkpt lat="38.9514550" lon="-0.1941950">
        <ele>38.2</ele>
        <time>2020-11-14T08:37:38Z</time>
      </trkpt>
      <trkpt lat="38.9515920" lon="-0.1939370">
        <ele>38.0</ele>
        <time>2020-11-14T08:37:41Z</time>
      </trkpt>
      <trkpt lat="38.9517170" lon="-0.1938460">
        <ele>38.0</ele>
        <time>2020-11-14T08:37:43Z</time>
      </trkpt>
      <trkpt lat="38.9519520" lon="-0.1937870">
        <ele>37.6</ele>
        <time>2020-11-14T08:37:46Z</time>
      </trkpt>
      <trkpt lat="38.9522470" lon="-0.1935770">
        <ele>37.4</ele>
        <time>2020-11-14T08:37:50Z</time>
      </trkpt>
      <trkpt lat="38.9524650" lon="-0.1934050">
        <ele>37.1</ele>
        <time>2020-11-14T08:37:53Z</time>
      </trkpt>
      <trkpt lat="38.9526080" lon="-0.1932950">
        <ele>36.9</ele>
        <time>2020-11-14T08:37:55Z</time>
      </trkpt>
      <trkpt lat="38.9527490" lon="-0.1931900">
        <ele>36.7</ele>
        <time>2020-11-14T08:37:57Z</time>
      </trkpt>
      <trkpt lat="38.9532380" lon="-0.1928060">
        <ele>36.1</ele>
        <time>2020-11-14T08:38:04Z</time>
      </trkpt>
      <trkpt lat="38.9537180" lon="-0.1924350">
        <ele>35.6</ele>
        <time>2020-11-14T08:38:11Z</time>
      </trkpt>
      <trkpt lat="38.9538530" lon="-0.1923330">
        <ele>35.4</ele>
        <time>2020-11-14T08:38:13Z</time>
      </trkpt>
      <trkpt lat="38.9539230" lon="-0.1922790">
        <ele>35.3</ele>
        <time>2020-11-14T08:38:14Z</time>
      </trkpt>
      <trkpt lat="38.9539930" lon="-0.1922270">
        <ele>35.3</ele>
        <time>2020-11-14T08:38:15Z</time>
      </trkpt>
      <trkpt lat="38.9540610" lon="-0.1921750">
        <ele>35.2</ele>
        <time>2020-11-14T08:38:16Z</time>
      </trkpt>
      <trkpt lat="38.9541290" lon="-0.1921230">
        <ele>35.2</ele>
        <time>2020-11-14T08:38:17Z</time>
      </trkpt>
      <trkpt lat="38.9546160" lon="-0.1917590">
        <ele>34.7</ele>
        <time>2020-11-14T08:38:24Z</time>
      </trkpt>
      <trkpt lat="38.9550820" lon="-0.1913980">
        <ele>34.4</ele>
        <time>2020-11-14T08:38:31Z</time>
      </trkpt>
      <trkpt lat="38.9555470" lon="-0.1910240">
        <ele>33.9</ele>
        <time>2020-11-14T08:38:38Z</time>
      </trkpt>
      <trkpt lat="38.9560200" lon="-0.1906500">
        <ele>33.4</ele>
        <time>2020-11-14T08:38:45Z</time>
      </trkpt>
      <trkpt lat="38.9561890" lon="-0.1904470">
        <ele>33.2</ele>
        <time>2020-11-14T08:38:48Z</time>
      </trkpt>
      <trkpt lat="38.9563450" lon="-0.1900690">
        <ele>33.1</ele>
        <time>2020-11-14T08:38:52Z</time>
      </trkpt>
      <trkpt lat="38.9564620" lon="-0.1899160">
        <ele>33.0</ele>
        <time>2020-11-14T08:38:54Z</time>
      </trkpt>
      <trkpt lat="38.9565930" lon="-0.1898080">
        <ele>32.8</ele>
        <time>2020-11-14T08:38:56Z</time>
      </trkpt>
      <trkpt lat="38.9567670" lon="-0.1898170">
        <ele>32.6</ele>
        <time>2020-11-14T08:38:58Z</time>
      </trkpt>
      <trkpt lat="38.9569420" lon="-0.1898530">
        <ele>32.3</ele>
        <time>2020-11-14T08:39:00Z</time>
      </trkpt>
      <trkpt lat="38.9571100" lon="-0.1898010">
        <ele>32.1</ele>
        <time>2020-11-14T08:39:02Z</time>
      </trkpt>
      <trkpt lat="38.9576190" lon="-0.1894050">
        <ele>31.4</ele>
        <time>2020-11-14T08:39:09Z</time>
      </trkpt>
      <trkpt lat="38.9581030" lon="-0.1890300">
        <ele>30.9</ele>
        <time>2020-11-14T08:39:16Z</time>
      </trkpt>
      <trkpt lat="38.9585260" lon="-0.1886530">
        <ele>30.5</ele>
        <time>2020-11-14T08:39:23Z</time>
      </trkpt>
      <trkpt lat="38.9586650" lon="-0.1885950">
        <ele>30.3</ele>
        <time>2020-11-14T08:39:25Z</time>
      </trkpt>
      <trkpt lat="38.9591910" lon="-0.1882090">
        <ele>29.6</ele>
        <time>2020-11-14T08:39:33Z</time>
      </trkpt>
      <trkpt lat="38.9595690" lon="-0.1879000">
        <ele>29.3</ele>
        <time>2020-11-14T08:39:40Z</time>
      </trkpt>
      <trkpt lat="38.9596840" lon="-0.1878030">
        <ele>29.2</ele>
        <time>2020-11-14T08:39:42Z</time>
      </trkpt>
      <trkpt lat="38.9598130" lon="-0.1877390">
        <ele>29.1</ele>
        <time>2020-11-14T08:39:44Z</time>
      </trkpt>
      <trkpt lat="38.9601400" lon="-0.1874950">
        <ele>28.7</ele>
        <time>2020-11-14T08:39:49Z</time>
      </trkpt>
      <trkpt lat="38.9604130" lon="-0.1873060">
        <ele>28.4</ele>
        <time>2020-11-14T08:39:53Z</time>
      </trkpt>
      <trkpt lat="38.9606030" lon="-0.1871490">
        <ele>28.2</ele>
        <time>2020-11-14T08:39:56Z</time>
      </trkpt>
      <trkpt lat="38.9607360" lon="-0.1870460">
        <ele>28.1</ele>
        <time>2020-11-14T08:39:58Z</time>
      </trkpt>
      <trkpt lat="38.9612080" lon="-0.1866910">
        <ele>27.6</ele>
        <time>2020-11-14T08:40:05Z</time>
      </trkpt>
      <trkpt lat="38.9616710" lon="-0.1863020">
        <ele>27.2</ele>
        <time>2020-11-14T08:40:12Z</time>
      </trkpt>
      <trkpt lat="38.9621250" lon="-0.1859590">
        <ele>26.8</ele>
        <time>2020-11-14T08:40:19Z</time>
      </trkpt>
      <trkpt lat="38.9623860" lon="-0.1857360">
        <ele>26.7</ele>
        <time>2020-11-14T08:40:24Z</time>
      </trkpt>
      <trkpt lat="38.9624120" lon="-0.1856180">
        <ele>26.7</ele>
        <time>2020-11-14T08:40:26Z</time>
      </trkpt>
      <trkpt lat="38.9624580" lon="-0.1855100">
        <ele>26.7</ele>
        <time>2020-11-14T08:40:28Z</time>
      </trkpt>
      <trkpt lat="38.9625420" lon="-0.1854660">
        <ele>26.7</ele>
        <time>2020-11-14T08:40:30Z</time>
      </trkpt>
      <trkpt lat="38.9626400" lon="-0.1854840">
        <ele>26.7</ele>
        <time>2020-11-14T08:40:32Z</time>
      </trkpt>
      <trkpt lat="38.9628040" lon="-0.1854160">
        <ele>26.5</ele>
        <time>2020-11-14T08:40:35Z</time>
      </trkpt>
      <trkpt lat="38.9632720" lon="-0.1850600">
        <ele>26.3</ele>
        <time>2020-11-14T08:40:44Z</time>
      </trkpt>
      <trkpt lat="38.9635360" lon="-0.1848600">
        <ele>26.1</ele>
        <time>2020-11-14T08:40:49Z</time>
      </trkpt>
      <trkpt lat="38.9636570" lon="-0.1847990">
        <ele>26.0</ele>
        <time>2020-11-14T08:40:50Z</time>
      </trkpt>
      <trkpt lat="38.9641780" lon="-0.1846000">
        <ele>25.8</ele>
        <time>2020-11-14T08:41:00Z</time>
      </trkpt>
      <trkpt lat="38.9644110" lon="-0.1845140">
        <ele>25.7</ele>
        <time>2020-11-14T08:41:04Z</time>
      </trkpt>
      <trkpt lat="38.9647960" lon="-0.1844370">
        <ele>25.5</ele>
        <time>2020-11-14T08:41:10Z</time>
      </trkpt>
      <trkpt lat="38.9649840" lon="-0.1843650">
        <ele>25.4</ele>
        <time>2020-11-14T08:41:13Z</time>
      </trkpt>
      <trkpt lat="38.9653020" lon="-0.1842890">
        <ele>25.4</ele>
        <time>2020-11-14T08:41:18Z</time>
      </trkpt>
      <trkpt lat="38.9658310" lon="-0.1841600">
        <ele>25.5</ele>
        <time>2020-11-14T08:41:33Z</time>
      </trkpt>
      <trkpt lat="38.9663990" lon="-0.1840150">
        <ele>24.6</ele>
        <time>2020-11-14T08:41:43Z</time>
      </trkpt>
      <trkpt lat="38.9669600" lon="-0.1838890">
        <ele>24.4</ele>
        <time>2020-11-14T08:41:52Z</time>
      </trkpt>
      <trkpt lat="38.9673890" lon="-0.1837860">
        <ele>24.2</ele>
        <time>2020-11-14T08:41:59Z</time>
      </trkpt>
      <trkpt lat="38.9679830" lon="-0.1836240">
        <ele>23.9</ele>
        <time>2020-11-14T08:42:08Z</time>
      </trkpt>
      <trkpt lat="38.9685410" lon="-0.1834840">
        <ele>23.9</ele>
        <time>2020-11-14T08:42:16Z</time>
      </trkpt>
      <trkpt lat="38.9686540" lon="-0.1835020">
        <ele>23.8</ele>
        <time>2020-11-14T08:42:23Z</time>
      </trkpt>
      <trkpt lat="38.9686530" lon="-0.1835240">
        <ele>23.8</ele>
        <time>2020-11-14T08:42:27Z</time>
      </trkpt>
      <trkpt lat="38.9687030" lon="-0.1835150">
        <ele>23.8</ele>
        <time>2020-11-14T08:42:31Z</time>
      </trkpt>
      <trkpt lat="38.9692670" lon="-0.1833050">
        <ele>23.2</ele>
        <time>2020-11-14T08:42:42Z</time>
      </trkpt>
      <trkpt lat="38.9698560" lon="-0.1831630">
        <ele>23.2</ele>
        <time>2020-11-14T08:42:51Z</time>
      </trkpt>
      <trkpt lat="38.9701890" lon="-0.1830870">
        <ele>23.1</ele>
        <time>2020-11-14T08:42:56Z</time>
      </trkpt>
      <trkpt lat="38.9703210" lon="-0.1830610">
        <ele>23.0</ele>
        <time>2020-11-14T08:42:59Z</time>
      </trkpt>
      <trkpt lat="38.9704240" lon="-0.1830450">
        <ele>22.9</ele>
        <time>2020-11-14T08:43:04Z</time>
      </trkpt>
      <trkpt lat="38.9705060" lon="-0.1830260">
        <ele>22.8</ele>
        <time>2020-11-14T08:43:06Z</time>
      </trkpt>
      <trkpt lat="38.9710980" lon="-0.1829440">
        <ele>22.2</ele>
        <time>2020-11-14T08:43:16Z</time>
      </trkpt>
      <trkpt lat="38.9716620" lon="-0.1828100">
        <ele>22.0</ele>
        <time>2020-11-14T08:43:25Z</time>
      </trkpt>
      <trkpt lat="38.9722070" lon="-0.1826640">
        <ele>21.7</ele>
        <time>2020-11-14T08:43:34Z</time>
      </trkpt>
      <trkpt lat="38.9723850" lon="-0.1825110">
        <ele>21.7</ele>
        <time>2020-11-14T08:43:37Z</time>
      </trkpt>
      <trkpt lat="38.9727080" lon="-0.1820420">
        <ele>21.8</ele>
        <time>2020-11-14T08:43:43Z</time>
      </trkpt>
      <trkpt lat="38.9727500" lon="-0.1818950">
        <ele>22.1</ele>
        <time>2020-11-14T08:43:45Z</time>
      </trkpt>
      <trkpt lat="38.9728100" lon="-0.1817530">
        <ele>22.1</ele>
        <time>2020-11-14T08:43:47Z</time>
      </trkpt>
      <trkpt lat="38.9728980" lon="-0.1816640">
        <ele>22.1</ele>
        <time>2020-11-14T08:43:49Z</time>
      </trkpt>
      <trkpt lat="38.9730940" lon="-0.1815820">
        <ele>21.9</ele>
        <time>2020-11-14T08:43:52Z</time>
      </trkpt>
      <trkpt lat="38.9732240" lon="-0.1814380">
        <ele>21.9</ele>
        <time>2020-11-14T08:43:54Z</time>
      </trkpt>
      <trkpt lat="38.9735950" lon="-0.1808540">
        <ele>21.6</ele>
        <time>2020-11-14T08:44:01Z</time>
      </trkpt>
      <trkpt lat="38.9739120" lon="-0.1802860">
        <ele>21.0</ele>
        <time>2020-11-14T08:44:09Z</time>
      </trkpt>
      <trkpt lat="38.9742970" lon="-0.1797370">
        <ele>20.4</ele>
        <time>2020-11-14T08:44:18Z</time>
      </trkpt>
      <trkpt lat="38.9746310" lon="-0.1791390">
        <ele>19.9</ele>
        <time>2020-11-14T08:44:26Z</time>
      </trkpt>
      <trkpt lat="38.9749530" lon="-0.1785380">
        <ele>19.4</ele>
        <time>2020-11-14T08:44:34Z</time>
      </trkpt>
      <trkpt lat="38.9752950" lon="-0.1779370">
        <ele>18.9</ele>
        <time>2020-11-14T08:44:42Z</time>
      </trkpt>
      <trkpt lat="38.9753410" lon="-0.1778160">
        <ele>18.8</ele>
        <time>2020-11-14T08:44:43Z</time>
      </trkpt>
      <trkpt lat="38.9753460" lon="-0.1777640">
        <ele>18.8</ele>
        <time>2020-11-14T08:44:45Z</time>
      </trkpt>
      <trkpt lat="38.9753300" lon="-0.1776150">
        <ele>18.8</ele>
        <time>2020-11-14T08:44:48Z</time>
      </trkpt>
      <trkpt lat="38.9753070" lon="-0.1775070">
        <ele>18.7</ele>
        <time>2020-11-14T08:44:50Z</time>
      </trkpt>
      <trkpt lat="38.9753160" lon="-0.1773910">
        <ele>18.6</ele>
        <time>2020-11-14T08:44:52Z</time>
      </trkpt>
      <trkpt lat="38.9753510" lon="-0.1772750">
        <ele>18.5</ele>
        <time>2020-11-14T08:44:54Z</time>
      </trkpt>
      <trkpt lat="38.9754110" lon="-0.1771030">
        <ele>18.4</ele>
        <time>2020-11-14T08:44:57Z</time>
      </trkpt>
      <trkpt lat="38.9754110" lon="-0.1769730">
        <ele>18.3</ele>
        <time>2020-11-14T08:44:59Z</time>
      </trkpt>
      <trkpt lat="38.9751950" lon="-0.1762720">
        <ele>18.0</ele>
        <time>2020-11-14T08:45:09Z</time>
      </trkpt>
      <trkpt lat="38.9749810" lon="-0.1755660">
        <ele>17.8</ele>
        <time>2020-11-14T08:45:18Z</time>
      </trkpt>
      <trkpt lat="38.9748600" lon="-0.1752000">
        <ele>17.8</ele>
        <time>2020-11-14T08:45:25Z</time>
      </trkpt>
      <trkpt lat="38.9748090" lon="-0.1751200">
        <ele>17.8</ele>
        <time>2020-11-14T08:45:27Z</time>
      </trkpt>
      <trkpt lat="38.9747310" lon="-0.1749610">
        <ele>17.9</ele>
        <time>2020-11-14T08:45:30Z</time>
      </trkpt>
      <trkpt lat="38.9747410" lon="-0.1748250">
        <ele>17.9</ele>
        <time>2020-11-14T08:45:32Z</time>
      </trkpt>
      <trkpt lat="38.9748160" lon="-0.1747350">
        <ele>17.9</ele>
        <time>2020-11-14T08:45:34Z</time>
      </trkpt>
      <trkpt lat="38.9749810" lon="-0.1746870">
        <ele>18.0</ele>
        <time>2020-11-14T08:45:37Z</time>
      </trkpt>
      <trkpt lat="38.9754540" lon="-0.1743350">
        <ele>17.5</ele>
        <time>2020-11-14T08:45:45Z</time>
      </trkpt>
      <trkpt lat="38.9756890" lon="-0.1741030">
        <ele>17.2</ele>
        <time>2020-11-14T08:45:49Z</time>
      </trkpt>
      <trkpt lat="38.9757500" lon="-0.1740480">
        <ele>17.2</ele>
        <time>2020-11-14T08:45:50Z</time>
      </trkpt>
      <trkpt lat="38.9758110" lon="-0.1739950">
        <ele>17.2</ele>
        <time>2020-11-14T08:45:51Z</time>
      </trkpt>
      <trkpt lat="38.9759500" lon="-0.1738890">
        <ele>17.1</ele>
        <time>2020-11-14T08:45:52Z</time>
      </trkpt>
      <trkpt lat="38.9762030" lon="-0.1736690">
        <ele>16.9</ele>
        <time>2020-11-14T08:45:57Z</time>
      </trkpt>
      <trkpt lat="38.9764060" lon="-0.1734870">
        <ele>16.8</ele>
        <time>2020-11-14T08:46:00Z</time>
      </trkpt>
      <trkpt lat="38.9768860" lon="-0.1730780">
        <ele>16.4</ele>
        <time>2020-11-14T08:46:07Z</time>
      </trkpt>
      <trkpt lat="38.9770230" lon="-0.1729660">
        <ele>16.4</ele>
        <time>2020-11-14T08:46:09Z</time>
      </trkpt>
      <trkpt lat="38.9775030" lon="-0.1725570">
        <ele>16.0</ele>
        <time>2020-11-14T08:46:16Z</time>
      </trkpt>
      <trkpt lat="38.9779700" lon="-0.1721580">
        <ele>15.8</ele>
        <time>2020-11-14T08:46:23Z</time>
      </trkpt>
      <trkpt lat="38.9784620" lon="-0.1717030">
        <ele>15.4</ele>
        <time>2020-11-14T08:46:31Z</time>
      </trkpt>
      <trkpt lat="38.9787110" lon="-0.1714910">
        <ele>15.2</ele>
        <time>2020-11-14T08:46:35Z</time>
      </trkpt>
      <trkpt lat="38.9791560" lon="-0.1710970">
        <ele>14.8</ele>
        <time>2020-11-14T08:46:42Z</time>
      </trkpt>
      <trkpt lat="38.9796430" lon="-0.1706860">
        <ele>14.4</ele>
        <time>2020-11-14T08:46:49Z</time>
      </trkpt>
      <trkpt lat="38.9800550" lon="-0.1703330">
        <ele>14.1</ele>
        <time>2020-11-14T08:46:55Z</time>
      </trkpt>
      <trkpt lat="38.9804100" lon="-0.1700500">
        <ele>13.9</ele>
        <time>2020-11-14T08:47:00Z</time>
      </trkpt>
      <trkpt lat="38.9808710" lon="-0.1696510">
        <ele>13.7</ele>
        <time>2020-11-14T08:47:07Z</time>
      </trkpt>
      <trkpt lat="38.9812880" lon="-0.1692630">
        <ele>13.5</ele>
        <time>2020-11-14T08:47:14Z</time>
      </trkpt>
      <trkpt lat="38.9813400" lon="-0.1691180">
        <ele>13.5</ele>
        <time>2020-11-14T08:47:16Z</time>
      </trkpt>
      <trkpt lat="38.9812900" lon="-0.1689670">
        <ele>13.3</ele>
        <time>2020-11-14T08:47:18Z</time>
      </trkpt>
      <trkpt lat="38.9809880" lon="-0.1683650">
        <ele>12.8</ele>
        <time>2020-11-14T08:47:26Z</time>
      </trkpt>
      <trkpt lat="38.9808170" lon="-0.1680060">
        <ele>13.2</ele>
        <time>2020-11-14T08:47:31Z</time>
      </trkpt>
      <trkpt lat="38.9806150" lon="-0.1676180">
        <ele>13.4</ele>
        <time>2020-11-14T08:47:39Z</time>
      </trkpt>
      <trkpt lat="38.9810460" lon="-0.1671940">
        <ele>13.2</ele>
        <time>2020-11-14T08:47:51Z</time>
      </trkpt>
      <trkpt lat="38.9815360" lon="-0.1667260">
        <ele>12.9</ele>
        <time>2020-11-14T08:47:59Z</time>
      </trkpt>
      <trkpt lat="38.9816530" lon="-0.1666040">
        <ele>12.8</ele>
        <time>2020-11-14T08:48:01Z</time>
      </trkpt>
      <trkpt lat="38.9818230" lon="-0.1664180">
        <ele>12.6</ele>
        <time>2020-11-14T08:48:04Z</time>
      </trkpt>
      <trkpt lat="38.9819900" lon="-0.1662270">
        <ele>12.6</ele>
        <time>2020-11-14T08:48:07Z</time>
      </trkpt>
      <trkpt lat="38.9822250" lon="-0.1659950">
        <ele>12.7</ele>
        <time>2020-11-14T08:48:11Z</time>
      </trkpt>
      <trkpt lat="38.9827260" lon="-0.1656960">
        <ele>12.7</ele>
        <time>2020-11-14T08:48:23Z</time>
      </trkpt>
      <trkpt lat="38.9832860" lon="-0.1654650">
        <ele>12.7</ele>
        <time>2020-11-14T08:48:33Z</time>
      </trkpt>
      <trkpt lat="38.9838130" lon="-0.1652400">
        <ele>12.6</ele>
        <time>2020-11-14T08:48:42Z</time>
      </trkpt>
      <trkpt lat="38.9839240" lon="-0.1652540">
        <ele>12.5</ele>
        <time>2020-11-14T08:48:44Z</time>
      </trkpt>
      <trkpt lat="38.9840420" lon="-0.1652940">
        <ele>12.4</ele>
        <time>2020-11-14T08:48:46Z</time>
      </trkpt>
      <trkpt lat="38.9841600" lon="-0.1652930">
        <ele>12.3</ele>
        <time>2020-11-14T08:48:48Z</time>
      </trkpt>
      <trkpt lat="38.9842490" lon="-0.1652550">
        <ele>12.2</ele>
        <time>2020-11-14T08:48:50Z</time>
      </trkpt>
      <trkpt lat="38.9842900" lon="-0.1651940">
        <ele>12.2</ele>
        <time>2020-11-14T08:48:53Z</time>
      </trkpt>
      <trkpt lat="38.9842280" lon="-0.1651920">
        <ele>11.8</ele>
        <time>2020-11-14T08:49:00Z</time>
      </trkpt>
      <trkpt lat="38.9840860" lon="-0.1652190">
        <ele>11.1</ele>
        <time>2020-11-14T08:49:05Z</time>
      </trkpt>
      <trkpt lat="38.9839970" lon="-0.1651900">
        <ele>11.1</ele>
        <time>2020-11-14T08:49:07Z</time>
      </trkpt>
      <trkpt lat="38.9839130" lon="-0.1651030">
        <ele>11.1</ele>
        <time>2020-11-14T08:49:09Z</time>
      </trkpt>
      <trkpt lat="38.9838670" lon="-0.1649650">
        <ele>11.3</ele>
        <time>2020-11-14T08:49:11Z</time>
      </trkpt>
      <trkpt lat="38.9838800" lon="-0.1648130">
        <ele>11.3</ele>
        <time>2020-11-14T08:49:13Z</time>
      </trkpt>
      <trkpt lat="38.9839530" lon="-0.1646880">
        <ele>11.2</ele>
        <time>2020-11-14T08:49:15Z</time>
      </trkpt>
      <trkpt lat="38.9840680" lon="-0.1646250">
        <ele>11.2</ele>
        <time>2020-11-14T08:49:17Z</time>
      </trkpt>
      <trkpt lat="38.9841990" lon="-0.1646290">
        <ele>11.1</ele>
        <time>2020-11-14T08:49:19Z</time>
      </trkpt>
      <trkpt lat="38.9843430" lon="-0.1646270">
        <ele>11.0</ele>
        <time>2020-11-14T08:49:21Z</time>
      </trkpt>
      <trkpt lat="38.9844920" lon="-0.1645790">
        <ele>10.8</ele>
        <time>2020-11-14T08:49:23Z</time>
      </trkpt>
      <trkpt lat="38.9849440" lon="-0.1643630">
        <ele>10.4</ele>
        <time>2020-11-14T08:49:29Z</time>
      </trkpt>
      <trkpt lat="38.9855120" lon="-0.1640810">
        <ele>9.8</ele>
        <time>2020-11-14T08:49:36Z</time>
      </trkpt>
      <trkpt lat="38.9860200" lon="-0.1638370">
        <ele>9.3</ele>
        <time>2020-11-14T08:49:42Z</time>
      </trkpt>
      <trkpt lat="38.9865250" lon="-0.1635850">
        <ele>8.9</ele>
        <time>2020-11-14T08:49:48Z</time>
      </trkpt>
      <trkpt lat="38.9869450" lon="-0.1633780">
        <ele>8.6</ele>
        <time>2020-11-14T08:49:53Z</time>
      </trkpt>
      <trkpt lat="38.9875210" lon="-0.1631000">
        <ele>8.5</ele>
        <time>2020-11-14T08:50:00Z</time>
      </trkpt>
      <trkpt lat="38.9880700" lon="-0.1628350">
        <ele>8.2</ele>
        <time>2020-11-14T08:50:07Z</time>
      </trkpt>
      <trkpt lat="38.9882230" lon="-0.1627590">
        <ele>8.2</ele>
        <time>2020-11-14T08:50:09Z</time>
      </trkpt>
      <trkpt lat="38.9887410" lon="-0.1624990">
        <ele>8.1</ele>
        <time>2020-11-14T08:50:16Z</time>
      </trkpt>
      <trkpt lat="38.9892480" lon="-0.1622550">
        <ele>7.9</ele>
        <time>2020-11-14T08:50:23Z</time>
      </trkpt>
      <trkpt lat="38.9897560" lon="-0.1620060">
        <ele>7.6</ele>
        <time>2020-11-14T08:50:30Z</time>
      </trkpt>
      <trkpt lat="38.9903190" lon="-0.1617030">
        <ele>7.6</ele>
        <time>2020-11-14T08:50:38Z</time>
      </trkpt>
      <trkpt lat="38.9903880" lon="-0.1616690">
        <ele>7.6</ele>
        <time>2020-11-14T08:50:39Z</time>
      </trkpt>
      <trkpt lat="38.9906020" lon="-0.1616080">
        <ele>7.6</ele>
        <time>2020-11-14T08:50:42Z</time>
      </trkpt>
      <trkpt lat="38.9907400" lon="-0.1615350">
        <ele>7.6</ele>
        <time>2020-11-14T08:50:44Z</time>
      </trkpt>
      <trkpt lat="38.9912290" lon="-0.1610750">
        <ele>7.6</ele>
        <time>2020-11-14T08:50:52Z</time>
      </trkpt>
      <trkpt lat="38.9916960" lon="-0.1606620">
        <ele>6.8</ele>
        <time>2020-11-14T08:51:00Z</time>
      </trkpt>
      <trkpt lat="38.9917790" lon="-0.1606840">
        <ele>6.9</ele>
        <time>2020-11-14T08:51:02Z</time>
      </trkpt>
      <trkpt lat="38.9919100" lon="-0.1608070">
        <ele>7.3</ele>
        <time>2020-11-14T08:51:05Z</time>
      </trkpt>
      <trkpt lat="38.9924010" lon="-0.1611760">
        <ele>7.3</ele>
        <time>2020-11-14T08:51:14Z</time>
      </trkpt>
      <trkpt lat="38.9927580" lon="-0.1613940">
        <ele>7.1</ele>
        <time>2020-11-14T08:51:20Z</time>
      </trkpt>
      <trkpt lat="38.9928920" lon="-0.1614290">
        <ele>6.9</ele>
        <time>2020-11-14T08:51:22Z</time>
      </trkpt>
      <trkpt lat="38.9930340" lon="-0.1614440">
        <ele>6.7</ele>
        <time>2020-11-14T08:51:24Z</time>
      </trkpt>
      <trkpt lat="38.9936240" lon="-0.1612720">
        <ele>6.2</ele>
        <time>2020-11-14T08:51:32Z</time>
      </trkpt>
      <trkpt lat="38.9941860" lon="-0.1610960">
        <ele>6.0</ele>
        <time>2020-11-14T08:51:40Z</time>
      </trkpt>
      <trkpt lat="38.9942480" lon="-0.1610610">
        <ele>6.0</ele>
        <time>2020-11-14T08:51:41Z</time>
      </trkpt>
      <trkpt lat="38.9945250" lon="-0.1608260">
        <ele>5.7</ele>
        <time>2020-11-14T08:51:46Z</time>
      </trkpt>
      <trkpt lat="38.9946070" lon="-0.1606790">
        <ele>5.7</ele>
        <time>2020-11-14T08:51:48Z</time>
      </trkpt>
      <trkpt lat="38.9948540" lon="-0.1600260">
        <ele>5.5</ele>
        <time>2020-11-14T08:51:55Z</time>
      </trkpt>
      <trkpt lat="38.9951330" lon="-0.1593120">
        <ele>5.5</ele>
        <time>2020-11-14T08:52:02Z</time>
      </trkpt>
      <trkpt lat="38.9953970" lon="-0.1586840">
        <ele>5.5</ele>
        <time>2020-11-14T08:52:09Z</time>
      </trkpt>
      <trkpt lat="38.9956560" lon="-0.1580740">
        <ele>5.7</ele>
        <time>2020-11-14T08:52:16Z</time>
      </trkpt>
      <trkpt lat="38.9959490" lon="-0.1573820">
        <ele>5.8</ele>
        <time>2020-11-14T08:52:24Z</time>
      </trkpt>
      <trkpt lat="38.9962150" lon="-0.1567400">
        <ele>6.2</ele>
        <time>2020-11-14T08:52:32Z</time>
      </trkpt>
      <trkpt lat="38.9962860" lon="-0.1566000">
        <ele>6.3</ele>
        <time>2020-11-14T08:52:34Z</time>
      </trkpt>
      <trkpt lat="38.9963700" lon="-0.1564960">
        <ele>6.4</ele>
        <time>2020-11-14T08:52:36Z</time>
      </trkpt>
      <trkpt lat="38.9964520" lon="-0.1564710">
        <ele>6.4</ele>
        <time>2020-11-14T08:52:38Z</time>
      </trkpt>
      <trkpt lat="38.9965430" lon="-0.1565270">
        <ele>6.4</ele>
        <time>2020-11-14T08:52:40Z</time>
      </trkpt>
      <trkpt lat="38.9968480" lon="-0.1567730">
        <ele>6.4</ele>
        <time>2020-11-14T08:52:46Z</time>
      </trkpt>
      <trkpt lat="38.9973310" lon="-0.1571430">
        <ele>6.5</ele>
        <time>2020-11-14T08:52:56Z</time>
      </trkpt>
      <trkpt lat="38.9976470" lon="-0.1573840">
        <ele>6.5</ele>
        <time>2020-11-14T08:53:03Z</time>
      </trkpt>
      <trkpt lat="38.9981110" lon="-0.1577380">
        <ele>6.6</ele>
        <time>2020-11-14T08:53:16Z</time>
      </trkpt>
      <trkpt lat="38.9984920" lon="-0.1580130">
        <ele>6.6</ele>
        <time>2020-11-14T08:53:24Z</time>
      </trkpt>
      <trkpt lat="38.9985870" lon="-0.1580680">
        <ele>6.6</ele>
        <time>2020-11-14T08:53:26Z</time>
      </trkpt>
      <trkpt lat="38.9989420" lon="-0.1583090">
        <ele>6.7</ele>
        <time>2020-11-14T08:53:34Z</time>
      </trkpt>
      <trkpt lat="38.9993700" lon="-0.1585750">
        <ele>6.7</ele>
        <time>2020-11-14T08:53:48Z</time>
      </trkpt>
      <trkpt lat="38.9993700" lon="-0.1585790">
        <ele>6.7</ele>
        <time>2020-11-14T08:53:53Z</time>
      </trkpt>
      <trkpt lat="38.9993700" lon="-0.1585790">
        <ele>6.7</ele>
        <time>2020-11-14T08:55:21Z</time>
      </trkpt>
      <trkpt lat="38.9993700" lon="-0.1585790">
        <ele>6.7</ele>
        <time>2020-11-14T08:55:22Z</time>
      </trkpt>
      <trkpt lat="38.9993850" lon="-0.1585800">
        <ele>6.7</ele>
        <time>2020-11-14T08:55:26Z</time>
      </trkpt>
      <trkpt lat="38.9994570" lon="-0.1586240">
        <ele>6.7</ele>
        <time>2020-11-14T08:55:29Z</time>
      </trkpt>
      <trkpt lat="38.9995600" lon="-0.1587150">
        <ele>6.7</ele>
        <time>2020-11-14T08:55:31Z</time>
      </trkpt>
      <trkpt lat="38.9996950" lon="-0.1588690">
        <ele>6.7</ele>
        <time>2020-11-14T08:55:34Z</time>
      </trkpt>
      <trkpt lat="39.0001620" lon="-0.1592740">
        <ele>6.7</ele>
        <time>2020-11-14T08:55:45Z</time>
      </trkpt>
      <trkpt lat="39.0003320" lon="-0.1593950">
        <ele>6.7</ele>
        <time>2020-11-14T08:55:49Z</time>
      </trkpt>
      <trkpt lat="39.0003800" lon="-0.1594270">
        <ele>6.7</ele>
        <time>2020-11-14T08:55:50Z</time>
      </trkpt>
      <trkpt lat="39.0004660" lon="-0.1594850">
        <ele>6.7</ele>
        <time>2020-11-14T08:55:52Z</time>
      </trkpt>
      <trkpt lat="39.0005120" lon="-0.1595340">
        <ele>6.7</ele>
        <time>2020-11-14T08:55:53Z</time>
      </trkpt>
      <trkpt lat="39.0006040" lon="-0.1596230">
        <ele>6.8</ele>
        <time>2020-11-14T08:55:55Z</time>
      </trkpt>
      <trkpt lat="39.0006470" lon="-0.1596570">
        <ele>6.8</ele>
        <time>2020-11-14T08:55:56Z</time>
      </trkpt>
      <trkpt lat="39.0007230" lon="-0.1597320">
        <ele>6.8</ele>
        <time>2020-11-14T08:55:58Z</time>
      </trkpt>
      <trkpt lat="39.0009020" lon="-0.1598960">
        <ele>6.7</ele>
        <time>2020-11-14T08:56:04Z</time>
      </trkpt>
      <trkpt lat="39.0009650" lon="-0.1599540">
        <ele>6.7</ele>
        <time>2020-11-14T08:56:06Z</time>
      </trkpt>
      <trkpt lat="39.0010420" lon="-0.1600130">
        <ele>6.7</ele>
        <time>2020-11-14T08:56:08Z</time>
      </trkpt>
      <trkpt lat="39.0014820" lon="-0.1604170">
        <ele>6.7</ele>
        <time>2020-11-14T08:56:18Z</time>
      </trkpt>
      <trkpt lat="39.0016180" lon="-0.1605430">
        <ele>6.7</ele>
        <time>2020-11-14T08:56:21Z</time>
      </trkpt>
      <trkpt lat="39.0018150" lon="-0.1606920">
        <ele>6.7</ele>
        <time>2020-11-14T08:56:25Z</time>
      </trkpt>
      <trkpt lat="39.0019610" lon="-0.1608200">
        <ele>6.8</ele>
        <time>2020-11-14T08:56:28Z</time>
      </trkpt>
      <trkpt lat="39.0020050" lon="-0.1608650">
        <ele>6.8</ele>
        <time>2020-11-14T08:56:29Z</time>
      </trkpt>
      <trkpt lat="39.0022080" lon="-0.1610510">
        <ele>6.8</ele>
        <time>2020-11-14T08:56:34Z</time>
      </trkpt>
      <trkpt lat="39.0022530" lon="-0.1610840">
        <ele>6.8</ele>
        <time>2020-11-14T08:56:35Z</time>
      </trkpt>
      <trkpt lat="39.0023330" lon="-0.1611410">
        <ele>6.8</ele>
        <time>2020-11-14T08:56:37Z</time>
      </trkpt>
      <trkpt lat="39.0024090" lon="-0.1612100">
        <ele>6.8</ele>
        <time>2020-11-14T08:56:39Z</time>
      </trkpt>
      <trkpt lat="39.0024410" lon="-0.1612440">
        <ele>6.8</ele>
        <time>2020-11-14T08:56:40Z</time>
      </trkpt>
      <trkpt lat="39.0024730" lon="-0.1612770">
        <ele>6.8</ele>
        <time>2020-11-14T08:56:41Z</time>
      </trkpt>
      <trkpt lat="39.0024880" lon="-0.1613070">
        <ele>6.8</ele>
        <time>2020-11-14T08:56:42Z</time>
      </trkpt>
      <trkpt lat="39.0024920" lon="-0.1613320">
        <ele>6.5</ele>
        <time>2020-11-14T08:56:43Z</time>
      </trkpt>
      <trkpt lat="39.0023980" lon="-0.1616170">
        <ele>5.8</ele>
        <time>2020-11-14T08:56:53Z</time>
      </trkpt>
      <trkpt lat="39.0023020" lon="-0.1618490">
        <ele>5.3</ele>
        <time>2020-11-14T08:56:58Z</time>
      </trkpt>
      <trkpt lat="39.0019960" lon="-0.1624260">
        <ele>4.7</ele>
        <time>2020-11-14T08:57:08Z</time>
      </trkpt>
      <trkpt lat="39.0017880" lon="-0.1627190">
        <ele>4.6</ele>
        <time>2020-11-14T08:57:20Z</time>
      </trkpt>
      <trkpt lat="39.0017350" lon="-0.1629520">
        <ele>4.5</ele>
        <time>2020-11-14T09:39:04Z</time>
      </trkpt>
      <trkpt lat="39.0017150" lon="-0.1629950">
        <ele>4.5</ele>
        <time>2020-11-14T09:39:05Z</time>
      </trkpt>
      <trkpt lat="39.0017090" lon="-0.1630100">
        <ele>4.5</ele>
        <time>2020-11-14T09:39:06Z</time>
      </trkpt>
      <trkpt lat="39.0016970" lon="-0.1630430">
        <ele>4.5</ele>
        <time>2020-11-14T09:39:07Z</time>
      </trkpt>
      <trkpt lat="39.0016840" lon="-0.1630820">
        <ele>4.5</ele>
        <time>2020-11-14T09:39:08Z</time>
      </trkpt>
      <trkpt lat="39.0016690" lon="-0.1631200">
        <ele>4.5</ele>
        <time>2020-11-14T09:39:09Z</time>
      </trkpt>
      <trkpt lat="39.0016500" lon="-0.1631570">
        <ele>4.5</ele>
        <time>2020-11-14T09:39:10Z</time>
      </trkpt>
      <trkpt lat="39.0016300" lon="-0.1631900">
        <ele>4.5</ele>
        <time>2020-11-14T09:39:11Z</time>
      </trkpt>
      <trkpt lat="39.0016080" lon="-0.1632230">
        <ele>4.5</ele>
        <time>2020-11-14T09:39:12Z</time>
      </trkpt>
      <trkpt lat="39.0015900" lon="-0.1632530">
        <ele>4.5</ele>
        <time>2020-11-14T09:39:13Z</time>
      </trkpt>
      <trkpt lat="39.0015700" lon="-0.1632800">
        <ele>4.5</ele>
        <time>2020-11-14T09:39:14Z</time>
      </trkpt>
      <trkpt lat="39.0015530" lon="-0.1633090">
        <ele>4.5</ele>
        <time>2020-11-14T09:39:15Z</time>
      </trkpt>
      <trkpt lat="39.0015330" lon="-0.1633370">
        <ele>4.5</ele>
        <time>2020-11-14T09:39:16Z</time>
      </trkpt>
      <trkpt lat="39.0015100" lon="-0.1633700">
        <ele>4.5</ele>
        <time>2020-11-14T09:39:17Z</time>
      </trkpt>
      <trkpt lat="39.0015040" lon="-0.1633830">
        <ele>4.5</ele>
        <time>2020-11-14T09:39:18Z</time>
      </trkpt>
      <trkpt lat="39.0014910" lon="-0.1634300">
        <ele>4.5</ele>
        <time>2020-11-14T09:39:19Z</time>
      </trkpt>
      <trkpt lat="39.0014880" lon="-0.1634450">
        <ele>4.5</ele>
        <time>2020-11-14T09:39:20Z</time>
      </trkpt>
      <trkpt lat="39.0014730" lon="-0.1634920">
        <ele>4.5</ele>
        <time>2020-11-14T09:39:21Z</time>
      </trkpt>
      <trkpt lat="39.0014650" lon="-0.1635080">
        <ele>4.5</ele>
        <time>2020-11-14T09:39:22Z</time>
      </trkpt>
      <trkpt lat="39.0014460" lon="-0.1635430">
        <ele>4.5</ele>
        <time>2020-11-14T09:39:23Z</time>
      </trkpt>
      <trkpt lat="39.0014230" lon="-0.1635750">
        <ele>4.6</ele>
        <time>2020-11-14T09:39:24Z</time>
      </trkpt>
      <trkpt lat="39.0014020" lon="-0.1636080">
        <ele>4.6</ele>
        <time>2020-11-14T09:39:25Z</time>
      </trkpt>
      <trkpt lat="39.0013800" lon="-0.1636450">
        <ele>4.6</ele>
        <time>2020-11-14T09:39:26Z</time>
      </trkpt>
      <trkpt lat="39.0013610" lon="-0.1636790">
        <ele>4.6</ele>
        <time>2020-11-14T09:39:27Z</time>
      </trkpt>
      <trkpt lat="39.0013410" lon="-0.1637130">
        <ele>4.7</ele>
        <time>2020-11-14T09:39:28Z</time>
      </trkpt>
      <trkpt lat="39.0013230" lon="-0.1637430">
        <ele>4.7</ele>
        <time>2020-11-14T09:39:29Z</time>
      </trkpt>
      <trkpt lat="39.0013000" lon="-0.1637700">
        <ele>4.7</ele>
        <time>2020-11-14T09:39:30Z</time>
      </trkpt>
      <trkpt lat="39.0012770" lon="-0.1637950">
        <ele>4.8</ele>
        <time>2020-11-14T09:39:31Z</time>
      </trkpt>
      <trkpt lat="39.0012560" lon="-0.1638230">
        <ele>4.8</ele>
        <time>2020-11-14T09:39:32Z</time>
      </trkpt>
      <trkpt lat="39.0012360" lon="-0.1638520">
        <ele>4.8</ele>
        <time>2020-11-14T09:39:33Z</time>
      </trkpt>
      <trkpt lat="39.0012160" lon="-0.1638830">
        <ele>4.8</ele>
        <time>2020-11-14T09:39:34Z</time>
      </trkpt>
      <trkpt lat="39.0011950" lon="-0.1639180">
        <ele>4.9</ele>
        <time>2020-11-14T09:39:35Z</time>
      </trkpt>
      <trkpt lat="39.0011730" lon="-0.1639570">
        <ele>4.9</ele>
        <time>2020-11-14T09:39:36Z</time>
      </trkpt>
      <trkpt lat="39.0011540" lon="-0.1639990">
        <ele>4.9</ele>
        <time>2020-11-14T09:39:37Z</time>
      </trkpt>
      <trkpt lat="39.0011360" lon="-0.1640450">
        <ele>5.0</ele>
        <time>2020-11-14T09:39:38Z</time>
      </trkpt>
      <trkpt lat="39.0011140" lon="-0.1640910">
        <ele>5.0</ele>
        <time>2020-11-14T09:39:39Z</time>
      </trkpt>
      <trkpt lat="39.0010810" lon="-0.1641300">
        <ele>5.0</ele>
        <time>2020-11-14T09:39:40Z</time>
      </trkpt>
      <trkpt lat="39.0010590" lon="-0.1641760">
        <ele>4.9</ele>
        <time>2020-11-14T09:39:41Z</time>
      </trkpt>
      <trkpt lat="39.0010390" lon="-0.1642290">
        <ele>4.9</ele>
        <time>2020-11-14T09:39:42Z</time>
      </trkpt>
      <trkpt lat="39.0010210" lon="-0.1642820">
        <ele>4.8</ele>
        <time>2020-11-14T09:39:43Z</time>
      </trkpt>
      <trkpt lat="39.0009770" lon="-0.1643100">
        <ele>4.8</ele>
        <time>2020-11-14T09:39:44Z</time>
      </trkpt>
      <trkpt lat="39.0009530" lon="-0.1643580">
        <ele>4.7</ele>
        <time>2020-11-14T09:39:45Z</time>
      </trkpt>
      <trkpt lat="39.0009130" lon="-0.1644140">
        <ele>4.7</ele>
        <time>2020-11-14T09:39:46Z</time>
      </trkpt>
      <trkpt lat="39.0008990" lon="-0.1644700">
        <ele>4.6</ele>
        <time>2020-11-14T09:39:47Z</time>
      </trkpt>
      <trkpt lat="39.0008730" lon="-0.1645230">
        <ele>4.6</ele>
        <time>2020-11-14T09:39:48Z</time>
      </trkpt>
      <trkpt lat="39.0008630" lon="-0.1645830">
        <ele>4.6</ele>
        <time>2020-11-14T09:39:49Z</time>
      </trkpt>
      <trkpt lat="39.0008470" lon="-0.1646310">
        <ele>4.6</ele>
        <time>2020-11-14T09:39:50Z</time>
      </trkpt>
      <trkpt lat="39.0008250" lon="-0.1646810">
        <ele>4.5</ele>
        <time>2020-11-14T09:39:51Z</time>
      </trkpt>
      <trkpt lat="39.0008120" lon="-0.1647210">
        <ele>4.5</ele>
        <time>2020-11-14T09:39:52Z</time>
      </trkpt>
      <trkpt lat="39.0007830" lon="-0.1647600">
        <ele>4.5</ele>
        <time>2020-11-14T09:39:53Z</time>
      </trkpt>
      <trkpt lat="39.0007600" lon="-0.1648030">
        <ele>4.5</ele>
        <time>2020-11-14T09:39:54Z</time>
      </trkpt>
      <trkpt lat="39.0007420" lon="-0.1648410">
        <ele>4.5</ele>
        <time>2020-11-14T09:39:55Z</time>
      </trkpt>
      <trkpt lat="39.0007160" lon="-0.1648890">
        <ele>4.6</ele>
        <time>2020-11-14T09:39:56Z</time>
      </trkpt>
      <trkpt lat="39.0006940" lon="-0.1649400">
        <ele>4.6</ele>
        <time>2020-11-14T09:39:57Z</time>
      </trkpt>
      <trkpt lat="39.0006670" lon="-0.1649900">
        <ele>4.6</ele>
        <time>2020-11-14T09:39:58Z</time>
      </trkpt>
      <trkpt lat="39.0006350" lon="-0.1650210">
        <ele>4.6</ele>
        <time>2020-11-14T09:39:59Z</time>
      </trkpt>
      <trkpt lat="39.0006010" lon="-0.1650740">
        <ele>4.6</ele>
        <time>2020-11-14T09:40:00Z</time>
      </trkpt>
      <trkpt lat="39.0005750" lon="-0.1651260">
        <ele>4.6</ele>
        <time>2020-11-14T09:40:01Z</time>
      </trkpt>
      <trkpt lat="39.0005560" lon="-0.1651710">
        <ele>4.6</ele>
        <time>2020-11-14T09:40:02Z</time>
      </trkpt>
      <trkpt lat="39.0005200" lon="-0.1652030">
        <ele>4.6</ele>
        <time>2020-11-14T09:40:03Z</time>
      </trkpt>
      <trkpt lat="39.0005100" lon="-0.1652540">
        <ele>4.6</ele>
        <time>2020-11-14T09:40:04Z</time>
      </trkpt>
      <trkpt lat="39.0004780" lon="-0.1652940">
        <ele>4.6</ele>
        <time>2020-11-14T09:40:05Z</time>
      </trkpt>
      <trkpt lat="39.0004620" lon="-0.1653390">
        <ele>4.7</ele>
        <time>2020-11-14T09:40:06Z</time>
      </trkpt>
      <trkpt lat="39.0004340" lon="-0.1653890">
        <ele>4.7</ele>
        <time>2020-11-14T09:40:07Z</time>
      </trkpt>
      <trkpt lat="39.0004170" lon="-0.1654410">
        <ele>4.8</ele>
        <time>2020-11-14T09:40:08Z</time>
      </trkpt>
      <trkpt lat="39.0003950" lon="-0.1654830">
        <ele>4.9</ele>
        <time>2020-11-14T09:40:09Z</time>
      </trkpt>
      <trkpt lat="39.0003720" lon="-0.1655200">
        <ele>4.9</ele>
        <time>2020-11-14T09:40:10Z</time>
      </trkpt>
      <trkpt lat="39.0003420" lon="-0.1655550">
        <ele>4.8</ele>
        <time>2020-11-14T09:40:11Z</time>
      </trkpt>
      <trkpt lat="39.0003140" lon="-0.1655880">
        <ele>4.8</ele>
        <time>2020-11-14T09:40:12Z</time>
      </trkpt>
      <trkpt lat="39.0002870" lon="-0.1656190">
        <ele>4.7</ele>
        <time>2020-11-14T09:40:13Z</time>
      </trkpt>
      <trkpt lat="39.0002610" lon="-0.1656470">
        <ele>4.7</ele>
        <time>2020-11-14T09:40:14Z</time>
      </trkpt>
      <trkpt lat="39.0002290" lon="-0.1656680">
        <ele>4.7</ele>
        <time>2020-11-14T09:40:15Z</time>
      </trkpt>
      <trkpt lat="39.0001900" lon="-0.1656730">
        <ele>4.7</ele>
        <time>2020-11-14T09:40:16Z</time>
      </trkpt>
      <trkpt lat="39.0001550" lon="-0.1656580">
        <ele>4.8</ele>
        <time>2020-11-14T09:40:17Z</time>
      </trkpt>
      <trkpt lat="39.0001240" lon="-0.1656290">
        <ele>4.8</ele>
        <time>2020-11-14T09:40:18Z</time>
      </trkpt>
      <trkpt lat="39.0000940" lon="-0.1655950">
        <ele>4.9</ele>
        <time>2020-11-14T09:40:19Z</time>
      </trkpt>
      <trkpt lat="39.0000620" lon="-0.1655620">
        <ele>5.0</ele>
        <time>2020-11-14T09:40:20Z</time>
      </trkpt>
      <trkpt lat="39.0000300" lon="-0.1655280">
        <ele>5.0</ele>
        <time>2020-11-14T09:40:21Z</time>
      </trkpt>
      <trkpt lat="38.9999980" lon="-0.1654970">
        <ele>5.1</ele>
        <time>2020-11-14T09:40:22Z</time>
      </trkpt>
      <trkpt lat="38.9999660" lon="-0.1654720">
        <ele>5.1</ele>
        <time>2020-11-14T09:40:23Z</time>
      </trkpt>
      <trkpt lat="38.9999310" lon="-0.1654490">
        <ele>5.2</ele>
        <time>2020-11-14T09:40:24Z</time>
      </trkpt>
      <trkpt lat="38.9999070" lon="-0.1654250">
        <ele>5.2</ele>
        <time>2020-11-14T09:40:25Z</time>
      </trkpt>
      <trkpt lat="38.9998670" lon="-0.1653970">
        <ele>5.2</ele>
        <time>2020-11-14T09:40:26Z</time>
      </trkpt>
      <trkpt lat="38.9998190" lon="-0.1653760">
        <ele>5.2</ele>
        <time>2020-11-14T09:40:27Z</time>
      </trkpt>
      <trkpt lat="38.9997730" lon="-0.1653590">
        <ele>5.2</ele>
        <time>2020-11-14T09:40:28Z</time>
      </trkpt>
      <trkpt lat="38.9997280" lon="-0.1653320">
        <ele>5.2</ele>
        <time>2020-11-14T09:40:29Z</time>
      </trkpt>
      <trkpt lat="38.9996860" lon="-0.1653040">
        <ele>5.2</ele>
        <time>2020-11-14T09:40:30Z</time>
      </trkpt>
      <trkpt lat="38.9996440" lon="-0.1652690">
        <ele>5.3</ele>
        <time>2020-11-14T09:40:31Z</time>
      </trkpt>
      <trkpt lat="38.9996090" lon="-0.1652400">
        <ele>5.3</ele>
        <time>2020-11-14T09:40:32Z</time>
      </trkpt>
      <trkpt lat="38.9995690" lon="-0.1652150">
        <ele>5.3</ele>
        <time>2020-11-14T09:40:33Z</time>
      </trkpt>
      <trkpt lat="38.9995240" lon="-0.1651820">
        <ele>5.3</ele>
        <time>2020-11-14T09:40:34Z</time>
      </trkpt>
      <trkpt lat="38.9994810" lon="-0.1651510">
        <ele>5.3</ele>
        <time>2020-11-14T09:40:35Z</time>
      </trkpt>
      <trkpt lat="38.9994370" lon="-0.1651180">
        <ele>5.3</ele>
        <time>2020-11-14T09:40:36Z</time>
      </trkpt>
      <trkpt lat="38.9993870" lon="-0.1650910">
        <ele>5.3</ele>
        <time>2020-11-14T09:40:37Z</time>
      </trkpt>
      <trkpt lat="38.9993410" lon="-0.1650610">
        <ele>5.3</ele>
        <time>2020-11-14T09:40:38Z</time>
      </trkpt>
      <trkpt lat="38.9992840" lon="-0.1650260">
        <ele>5.3</ele>
        <time>2020-11-14T09:40:39Z</time>
      </trkpt>
      <trkpt lat="38.9992380" lon="-0.1649940">
        <ele>5.3</ele>
        <time>2020-11-14T09:40:40Z</time>
      </trkpt>
      <trkpt lat="38.9991840" lon="-0.1649630">
        <ele>5.3</ele>
        <time>2020-11-14T09:40:41Z</time>
      </trkpt>
      <trkpt lat="38.9991260" lon="-0.1649200">
        <ele>5.3</ele>
        <time>2020-11-14T09:40:42Z</time>
      </trkpt>
      <trkpt lat="38.9990780" lon="-0.1648810">
        <ele>5.3</ele>
        <time>2020-11-14T09:40:43Z</time>
      </trkpt>
      <trkpt lat="38.9990240" lon="-0.1648420">
        <ele>5.3</ele>
        <time>2020-11-14T09:40:44Z</time>
      </trkpt>
      <trkpt lat="38.9989800" lon="-0.1647920">
        <ele>5.3</ele>
        <time>2020-11-14T09:40:45Z</time>
      </trkpt>
      <trkpt lat="38.9989280" lon="-0.1647600">
        <ele>5.3</ele>
        <time>2020-11-14T09:40:46Z</time>
      </trkpt>
      <trkpt lat="38.9988700" lon="-0.1647230">
        <ele>5.3</ele>
        <time>2020-11-14T09:40:47Z</time>
      </trkpt>
      <trkpt lat="38.9988100" lon="-0.1646860">
        <ele>5.3</ele>
        <time>2020-11-14T09:40:48Z</time>
      </trkpt>
      <trkpt lat="38.9987450" lon="-0.1646540">
        <ele>5.3</ele>
        <time>2020-11-14T09:40:49Z</time>
      </trkpt>
      <trkpt lat="38.9986900" lon="-0.1646200">
        <ele>5.3</ele>
        <time>2020-11-14T09:40:50Z</time>
      </trkpt>
      <trkpt lat="38.9986360" lon="-0.1645880">
        <ele>5.3</ele>
        <time>2020-11-14T09:40:51Z</time>
      </trkpt>
      <trkpt lat="38.9985800" lon="-0.1645550">
        <ele>5.3</ele>
        <time>2020-11-14T09:40:52Z</time>
      </trkpt>
      <trkpt lat="38.9985240" lon="-0.1645120">
        <ele>5.3</ele>
        <time>2020-11-14T09:40:53Z</time>
      </trkpt>
      <trkpt lat="38.9984710" lon="-0.1644740">
        <ele>5.3</ele>
        <time>2020-11-14T09:40:54Z</time>
      </trkpt>
      <trkpt lat="38.9984190" lon="-0.1644360">
        <ele>5.3</ele>
        <time>2020-11-14T09:40:55Z</time>
      </trkpt>
      <trkpt lat="38.9983610" lon="-0.1644110">
        <ele>5.3</ele>
        <time>2020-11-14T09:40:56Z</time>
      </trkpt>
      <trkpt lat="38.9983050" lon="-0.1643820">
        <ele>5.3</ele>
        <time>2020-11-14T09:40:57Z</time>
      </trkpt>
      <trkpt lat="38.9982490" lon="-0.1643410">
        <ele>5.3</ele>
        <time>2020-11-14T09:40:58Z</time>
      </trkpt>
      <trkpt lat="38.9981980" lon="-0.1642940">
        <ele>5.3</ele>
        <time>2020-11-14T09:40:59Z</time>
      </trkpt>
      <trkpt lat="38.9981480" lon="-0.1642590">
        <ele>5.3</ele>
        <time>2020-11-14T09:41:00Z</time>
      </trkpt>
      <trkpt lat="38.9980930" lon="-0.1642270">
        <ele>5.3</ele>
        <time>2020-11-14T09:41:01Z</time>
      </trkpt>
      <trkpt lat="38.9980330" lon="-0.1641860">
        <ele>5.2</ele>
        <time>2020-11-14T09:41:02Z</time>
      </trkpt>
      <trkpt lat="38.9979780" lon="-0.1641490">
        <ele>5.2</ele>
        <time>2020-11-14T09:41:03Z</time>
      </trkpt>
      <trkpt lat="38.9979200" lon="-0.1641080">
        <ele>5.2</ele>
        <time>2020-11-14T09:41:04Z</time>
      </trkpt>
      <trkpt lat="38.9978620" lon="-0.1640710">
        <ele>5.2</ele>
        <time>2020-11-14T09:41:05Z</time>
      </trkpt>
      <trkpt lat="38.9978040" lon="-0.1640260">
        <ele>5.2</ele>
        <time>2020-11-14T09:41:06Z</time>
      </trkpt>
      <trkpt lat="38.9977480" lon="-0.1639860">
        <ele>5.2</ele>
        <time>2020-11-14T09:41:07Z</time>
      </trkpt>
      <trkpt lat="38.9976890" lon="-0.1639600">
        <ele>5.2</ele>
        <time>2020-11-14T09:41:08Z</time>
      </trkpt>
      <trkpt lat="38.9976350" lon="-0.1639270">
        <ele>5.2</ele>
        <time>2020-11-14T09:41:09Z</time>
      </trkpt>
      <trkpt lat="38.9975770" lon="-0.1638890">
        <ele>5.2</ele>
        <time>2020-11-14T09:41:10Z</time>
      </trkpt>
      <trkpt lat="38.9975270" lon="-0.1638570">
        <ele>5.2</ele>
        <time>2020-11-14T09:41:11Z</time>
      </trkpt>
      <trkpt lat="38.9974770" lon="-0.1638180">
        <ele>5.3</ele>
        <time>2020-11-14T09:41:12Z</time>
      </trkpt>
      <trkpt lat="38.9974310" lon="-0.1637800">
        <ele>5.3</ele>
        <time>2020-11-14T09:41:13Z</time>
      </trkpt>
      <trkpt lat="38.9973820" lon="-0.1637430">
        <ele>5.3</ele>
        <time>2020-11-14T09:41:14Z</time>
      </trkpt>
      <trkpt lat="38.9973320" lon="-0.1636970">
        <ele>5.3</ele>
        <time>2020-11-14T09:41:15Z</time>
      </trkpt>
      <trkpt lat="38.9972830" lon="-0.1636550">
        <ele>5.3</ele>
        <time>2020-11-14T09:41:16Z</time>
      </trkpt>
      <trkpt lat="38.9972330" lon="-0.1636210">
        <ele>5.3</ele>
        <time>2020-11-14T09:41:17Z</time>
      </trkpt>
      <trkpt lat="38.9971800" lon="-0.1635770">
        <ele>5.2</ele>
        <time>2020-11-14T09:41:18Z</time>
      </trkpt>
      <trkpt lat="38.9971270" lon="-0.1635350">
        <ele>5.2</ele>
        <time>2020-11-14T09:41:19Z</time>
      </trkpt>
      <trkpt lat="38.9970730" lon="-0.1634940">
        <ele>5.2</ele>
        <time>2020-11-14T09:41:20Z</time>
      </trkpt>
      <trkpt lat="38.9970180" lon="-0.1634610">
        <ele>5.2</ele>
        <time>2020-11-14T09:41:21Z</time>
      </trkpt>
      <trkpt lat="38.9969630" lon="-0.1634330">
        <ele>5.2</ele>
        <time>2020-11-14T09:41:22Z</time>
      </trkpt>
      <trkpt lat="38.9969060" lon="-0.1634110">
        <ele>5.2</ele>
        <time>2020-11-14T09:41:23Z</time>
      </trkpt>
      <trkpt lat="38.9968620" lon="-0.1633840">
        <ele>5.2</ele>
        <time>2020-11-14T09:41:24Z</time>
      </trkpt>
      <trkpt lat="38.9968140" lon="-0.1633400">
        <ele>5.3</ele>
        <time>2020-11-14T09:41:25Z</time>
      </trkpt>
      <trkpt lat="38.9967640" lon="-0.1632920">
        <ele>5.3</ele>
        <time>2020-11-14T09:41:26Z</time>
      </trkpt>
      <trkpt lat="38.9967110" lon="-0.1632540">
        <ele>5.4</ele>
        <time>2020-11-14T09:41:27Z</time>
      </trkpt>
      <trkpt lat="38.9966600" lon="-0.1632160">
        <ele>5.4</ele>
        <time>2020-11-14T09:41:28Z</time>
      </trkpt>
      <trkpt lat="38.9966040" lon="-0.1631730">
        <ele>5.4</ele>
        <time>2020-11-14T09:41:29Z</time>
      </trkpt>
      <trkpt lat="38.9965560" lon="-0.1631390">
        <ele>5.4</ele>
        <time>2020-11-14T09:41:30Z</time>
      </trkpt>
      <trkpt lat="38.9965130" lon="-0.1631220">
        <ele>5.4</ele>
        <time>2020-11-14T09:41:31Z</time>
      </trkpt>
      <trkpt lat="38.9964660" lon="-0.1630760">
        <ele>5.4</ele>
        <time>2020-11-14T09:41:32Z</time>
      </trkpt>
      <trkpt lat="38.9964210" lon="-0.1630450">
        <ele>5.4</ele>
        <time>2020-11-14T09:41:33Z</time>
      </trkpt>
      <trkpt lat="38.9963730" lon="-0.1630120">
        <ele>5.4</ele>
        <time>2020-11-14T09:41:34Z</time>
      </trkpt>
      <trkpt lat="38.9963300" lon="-0.1629820">
        <ele>5.4</ele>
        <time>2020-11-14T09:41:35Z</time>
      </trkpt>
      <trkpt lat="38.9962970" lon="-0.1629230">
        <ele>5.4</ele>
        <time>2020-11-14T09:41:36Z</time>
      </trkpt>
      <trkpt lat="38.9962500" lon="-0.1628840">
        <ele>5.4</ele>
        <time>2020-11-14T09:41:37Z</time>
      </trkpt>
      <trkpt lat="38.9961920" lon="-0.1628480">
        <ele>5.4</ele>
        <time>2020-11-14T09:41:38Z</time>
      </trkpt>
      <trkpt lat="38.9961430" lon="-0.1628170">
        <ele>5.4</ele>
        <time>2020-11-14T09:41:39Z</time>
      </trkpt>
      <trkpt lat="38.9960980" lon="-0.1627940">
        <ele>5.4</ele>
        <time>2020-11-14T09:41:40Z</time>
      </trkpt>
      <trkpt lat="38.9960440" lon="-0.1627580">
        <ele>5.4</ele>
        <time>2020-11-14T09:41:41Z</time>
      </trkpt>
      <trkpt lat="38.9960030" lon="-0.1627470">
        <ele>5.4</ele>
        <time>2020-11-14T09:41:42Z</time>
      </trkpt>
      <trkpt lat="38.9959600" lon="-0.1627110">
        <ele>5.4</ele>
        <time>2020-11-14T09:41:43Z</time>
      </trkpt>
      <trkpt lat="38.9959160" lon="-0.1626820">
        <ele>5.4</ele>
        <time>2020-11-14T09:41:44Z</time>
      </trkpt>
      <trkpt lat="38.9958810" lon="-0.1626640">
        <ele>5.4</ele>
        <time>2020-11-14T09:41:45Z</time>
      </trkpt>
      <trkpt lat="38.9958480" lon="-0.1626250">
        <ele>5.5</ele>
        <time>2020-11-14T09:41:46Z</time>
      </trkpt>
      <trkpt lat="38.9958100" lon="-0.1625980">
        <ele>5.5</ele>
        <time>2020-11-14T09:41:47Z</time>
      </trkpt>
      <trkpt lat="38.9957860" lon="-0.1625710">
        <ele>5.5</ele>
        <time>2020-11-14T09:41:48Z</time>
      </trkpt>
      <trkpt lat="38.9957530" lon="-0.1625520">
        <ele>5.5</ele>
        <time>2020-11-14T09:41:49Z</time>
      </trkpt>
      <trkpt lat="38.9957200" lon="-0.1625260">
        <ele>5.5</ele>
        <time>2020-11-14T09:41:50Z</time>
      </trkpt>
      <trkpt lat="38.9956740" lon="-0.1625210">
        <ele>5.5</ele>
        <time>2020-11-14T09:41:51Z</time>
      </trkpt>
      <trkpt lat="38.9956460" lon="-0.1625250">
        <ele>5.5</ele>
        <time>2020-11-14T09:41:52Z</time>
      </trkpt>
      <trkpt lat="38.9956120" lon="-0.1625030">
        <ele>5.5</ele>
        <time>2020-11-14T09:41:53Z</time>
      </trkpt>
      <trkpt lat="38.9955800" lon="-0.1624770">
        <ele>5.5</ele>
        <time>2020-11-14T09:41:54Z</time>
      </trkpt>
      <trkpt lat="38.9955430" lon="-0.1624580">
        <ele>5.5</ele>
        <time>2020-11-14T09:41:55Z</time>
      </trkpt>
      <trkpt lat="38.9955030" lon="-0.1624650">
        <ele>5.5</ele>
        <time>2020-11-14T09:41:56Z</time>
      </trkpt>
      <trkpt lat="38.9954660" lon="-0.1624800">
        <ele>5.3</ele>
        <time>2020-11-14T09:41:57Z</time>
      </trkpt>
      <trkpt lat="38.9954320" lon="-0.1625090">
        <ele>5.3</ele>
        <time>2020-11-14T09:41:58Z</time>
      </trkpt>
      <trkpt lat="38.9954050" lon="-0.1625450">
        <ele>5.3</ele>
        <time>2020-11-14T09:41:59Z</time>
      </trkpt>
      <trkpt lat="38.9953770" lon="-0.1625800">
        <ele>5.3</ele>
        <time>2020-11-14T09:42:00Z</time>
      </trkpt>
      <trkpt lat="38.9953500" lon="-0.1626290">
        <ele>5.3</ele>
        <time>2020-11-14T09:42:01Z</time>
      </trkpt>
      <trkpt lat="38.9953350" lon="-0.1626520">
        <ele>5.3</ele>
        <time>2020-11-14T09:42:02Z</time>
      </trkpt>
      <trkpt lat="38.9953000" lon="-0.1627040">
        <ele>5.4</ele>
        <time>2020-11-14T09:42:03Z</time>
      </trkpt>
      <trkpt lat="38.9952670" lon="-0.1627590">
        <ele>5.4</ele>
        <time>2020-11-14T09:42:04Z</time>
      </trkpt>
      <trkpt lat="38.9952440" lon="-0.1628160">
        <ele>5.4</ele>
        <time>2020-11-14T09:42:05Z</time>
      </trkpt>
      <trkpt lat="38.9952220" lon="-0.1628690">
        <ele>5.4</ele>
        <time>2020-11-14T09:42:06Z</time>
      </trkpt>
      <trkpt lat="38.9951980" lon="-0.1629250">
        <ele>5.4</ele>
        <time>2020-11-14T09:42:07Z</time>
      </trkpt>
      <trkpt lat="38.9951680" lon="-0.1629650">
        <ele>5.4</ele>
        <time>2020-11-14T09:42:08Z</time>
      </trkpt>
      <trkpt lat="38.9951520" lon="-0.1630250">
        <ele>5.4</ele>
        <time>2020-11-14T09:42:09Z</time>
      </trkpt>
      <trkpt lat="38.9951250" lon="-0.1630780">
        <ele>5.4</ele>
        <time>2020-11-14T09:42:10Z</time>
      </trkpt>
      <trkpt lat="38.9950950" lon="-0.1631350">
        <ele>5.4</ele>
        <time>2020-11-14T09:42:11Z</time>
      </trkpt>
      <trkpt lat="38.9950760" lon="-0.1631980">
        <ele>5.4</ele>
        <time>2020-11-14T09:42:12Z</time>
      </trkpt>
      <trkpt lat="38.9950500" lon="-0.1632590">
        <ele>5.4</ele>
        <time>2020-11-14T09:42:13Z</time>
      </trkpt>
      <trkpt lat="38.9950290" lon="-0.1633230">
        <ele>5.4</ele>
        <time>2020-11-14T09:42:14Z</time>
      </trkpt>
      <trkpt lat="38.9950060" lon="-0.1633810">
        <ele>5.4</ele>
        <time>2020-11-14T09:42:15Z</time>
      </trkpt>
      <trkpt lat="38.9949930" lon="-0.1634520">
        <ele>5.3</ele>
        <time>2020-11-14T09:42:16Z</time>
      </trkpt>
      <trkpt lat="38.9949820" lon="-0.1635170">
        <ele>5.3</ele>
        <time>2020-11-14T09:42:17Z</time>
      </trkpt>
      <trkpt lat="38.9949750" lon="-0.1635810">
        <ele>5.3</ele>
        <time>2020-11-14T09:42:18Z</time>
      </trkpt>
      <trkpt lat="38.9949490" lon="-0.1636360">
        <ele>5.4</ele>
        <time>2020-11-14T09:42:19Z</time>
      </trkpt>
      <trkpt lat="38.9949180" lon="-0.1636860">
        <ele>5.3</ele>
        <time>2020-11-14T09:42:20Z</time>
      </trkpt>
      <trkpt lat="38.9948760" lon="-0.1637220">
        <ele>5.3</ele>
        <time>2020-11-14T09:42:21Z</time>
      </trkpt>
      <trkpt lat="38.9948340" lon="-0.1637280">
        <ele>5.2</ele>
        <time>2020-11-14T09:42:22Z</time>
      </trkpt>
      <trkpt lat="38.9947850" lon="-0.1637180">
        <ele>5.2</ele>
        <time>2020-11-14T09:42:23Z</time>
      </trkpt>
      <trkpt lat="38.9947420" lon="-0.1636790">
        <ele>5.3</ele>
        <time>2020-11-14T09:42:24Z</time>
      </trkpt>
      <trkpt lat="38.9947130" lon="-0.1636260">
        <ele>5.3</ele>
        <time>2020-11-14T09:42:25Z</time>
      </trkpt>
      <trkpt lat="38.9946830" lon="-0.1635630">
        <ele>5.4</ele>
        <time>2020-11-14T09:42:26Z</time>
      </trkpt>
      <trkpt lat="38.9946690" lon="-0.1634910">
        <ele>5.4</ele>
        <time>2020-11-14T09:42:27Z</time>
      </trkpt>
      <trkpt lat="38.9946640" lon="-0.1634310">
        <ele>5.4</ele>
        <time>2020-11-14T09:42:28Z</time>
      </trkpt>
      <trkpt lat="38.9946610" lon="-0.1633650">
        <ele>5.3</ele>
        <time>2020-11-14T09:42:29Z</time>
      </trkpt>
      <trkpt lat="38.9946500" lon="-0.1633170">
        <ele>5.3</ele>
        <time>2020-11-14T09:42:30Z</time>
      </trkpt>
      <trkpt lat="38.9946390" lon="-0.1632690">
        <ele>5.3</ele>
        <time>2020-11-14T09:42:31Z</time>
      </trkpt>
      <trkpt lat="38.9945960" lon="-0.1632110">
        <ele>5.3</ele>
        <time>2020-11-14T09:42:32Z</time>
      </trkpt>
      <trkpt lat="38.9945320" lon="-0.1631720">
        <ele>5.3</ele>
        <time>2020-11-14T09:42:33Z</time>
      </trkpt>
      <trkpt lat="38.9945000" lon="-0.1631090">
        <ele>5.3</ele>
        <time>2020-11-14T09:42:34Z</time>
      </trkpt>
      <trkpt lat="38.9944440" lon="-0.1630650">
        <ele>5.3</ele>
        <time>2020-11-14T09:42:35Z</time>
      </trkpt>
      <trkpt lat="38.9943840" lon="-0.1630200">
        <ele>5.3</ele>
        <time>2020-11-14T09:42:36Z</time>
      </trkpt>
      <trkpt lat="38.9943430" lon="-0.1629830">
        <ele>5.3</ele>
        <time>2020-11-14T09:42:37Z</time>
      </trkpt>
      <trkpt lat="38.9942970" lon="-0.1629380">
        <ele>5.3</ele>
        <time>2020-11-14T09:42:38Z</time>
      </trkpt>
      <trkpt lat="38.9942390" lon="-0.1629000">
        <ele>5.3</ele>
        <time>2020-11-14T09:42:39Z</time>
      </trkpt>
      <trkpt lat="38.9941910" lon="-0.1628540">
        <ele>5.3</ele>
        <time>2020-11-14T09:42:40Z</time>
      </trkpt>
      <trkpt lat="38.9941450" lon="-0.1628410">
        <ele>5.3</ele>
        <time>2020-11-14T09:42:41Z</time>
      </trkpt>
      <trkpt lat="38.9940960" lon="-0.1628100">
        <ele>5.3</ele>
        <time>2020-11-14T09:42:42Z</time>
      </trkpt>
      <trkpt lat="38.9940550" lon="-0.1628140">
        <ele>5.4</ele>
        <time>2020-11-14T09:42:43Z</time>
      </trkpt>
      <trkpt lat="38.9939960" lon="-0.1628730">
        <ele>5.3</ele>
        <time>2020-11-14T09:42:44Z</time>
      </trkpt>
      <trkpt lat="38.9939590" lon="-0.1629360">
        <ele>5.3</ele>
        <time>2020-11-14T09:42:45Z</time>
      </trkpt>
      <trkpt lat="38.9939270" lon="-0.1630060">
        <ele>5.3</ele>
        <time>2020-11-14T09:42:46Z</time>
      </trkpt>
      <trkpt lat="38.9938960" lon="-0.1630730">
        <ele>5.3</ele>
        <time>2020-11-14T09:42:47Z</time>
      </trkpt>
      <trkpt lat="38.9938610" lon="-0.1631430">
        <ele>5.4</ele>
        <time>2020-11-14T09:42:48Z</time>
      </trkpt>
      <trkpt lat="38.9938190" lon="-0.1632060">
        <ele>5.4</ele>
        <time>2020-11-14T09:42:49Z</time>
      </trkpt>
      <trkpt lat="38.9937730" lon="-0.1632710">
        <ele>5.4</ele>
        <time>2020-11-14T09:42:50Z</time>
      </trkpt>
      <trkpt lat="38.9937080" lon="-0.1633050">
        <ele>5.4</ele>
        <time>2020-11-14T09:42:51Z</time>
      </trkpt>
      <trkpt lat="38.9936640" lon="-0.1633650">
        <ele>5.5</ele>
        <time>2020-11-14T09:42:52Z</time>
      </trkpt>
      <trkpt lat="38.9936360" lon="-0.1634290">
        <ele>5.5</ele>
        <time>2020-11-14T09:42:53Z</time>
      </trkpt>
      <trkpt lat="38.9935890" lon="-0.1635010">
        <ele>5.5</ele>
        <time>2020-11-14T09:42:54Z</time>
      </trkpt>
      <trkpt lat="38.9935460" lon="-0.1635350">
        <ele>5.5</ele>
        <time>2020-11-14T09:42:55Z</time>
      </trkpt>
      <trkpt lat="38.9935040" lon="-0.1635890">
        <ele>5.5</ele>
        <time>2020-11-14T09:42:56Z</time>
      </trkpt>
      <trkpt lat="38.9934560" lon="-0.1636400">
        <ele>5.5</ele>
        <time>2020-11-14T09:42:57Z</time>
      </trkpt>
      <trkpt lat="38.9934160" lon="-0.1637080">
        <ele>5.5</ele>
        <time>2020-11-14T09:42:58Z</time>
      </trkpt>
      <trkpt lat="38.9933790" lon="-0.1637680">
        <ele>5.6</ele>
        <time>2020-11-14T09:42:59Z</time>
      </trkpt>
      <trkpt lat="38.9933330" lon="-0.1638230">
        <ele>5.6</ele>
        <time>2020-11-14T09:43:00Z</time>
      </trkpt>
      <trkpt lat="38.9932960" lon="-0.1638880">
        <ele>5.6</ele>
        <time>2020-11-14T09:43:01Z</time>
      </trkpt>
      <trkpt lat="38.9932540" lon="-0.1639320">
        <ele>5.6</ele>
        <time>2020-11-14T09:43:02Z</time>
      </trkpt>
      <trkpt lat="38.9932170" lon="-0.1639840">
        <ele>5.7</ele>
        <time>2020-11-14T09:43:03Z</time>
      </trkpt>
      <trkpt lat="38.9931890" lon="-0.1640500">
        <ele>5.7</ele>
        <time>2020-11-14T09:43:04Z</time>
      </trkpt>
      <trkpt lat="38.9931510" lon="-0.1641070">
        <ele>5.8</ele>
        <time>2020-11-14T09:43:05Z</time>
      </trkpt>
      <trkpt lat="38.9931150" lon="-0.1641670">
        <ele>5.8</ele>
        <time>2020-11-14T09:43:06Z</time>
      </trkpt>
      <trkpt lat="38.9930680" lon="-0.1642230">
        <ele>5.8</ele>
        <time>2020-11-14T09:43:07Z</time>
      </trkpt>
      <trkpt lat="38.9930220" lon="-0.1642710">
        <ele>5.9</ele>
        <time>2020-11-14T09:43:08Z</time>
      </trkpt>
      <trkpt lat="38.9929770" lon="-0.1643060">
        <ele>5.9</ele>
        <time>2020-11-14T09:43:09Z</time>
      </trkpt>
      <trkpt lat="38.9929260" lon="-0.1643260">
        <ele>6.0</ele>
        <time>2020-11-14T09:43:10Z</time>
      </trkpt>
      <trkpt lat="38.9928740" lon="-0.1643190">
        <ele>6.1</ele>
        <time>2020-11-14T09:43:11Z</time>
      </trkpt>
      <trkpt lat="38.9928250" lon="-0.1642800">
        <ele>6.1</ele>
        <time>2020-11-14T09:43:12Z</time>
      </trkpt>
      <trkpt lat="38.9927860" lon="-0.1642270">
        <ele>6.2</ele>
        <time>2020-11-14T09:43:13Z</time>
      </trkpt>
      <trkpt lat="38.9927500" lon="-0.1641670">
        <ele>6.3</ele>
        <time>2020-11-14T09:43:14Z</time>
      </trkpt>
      <trkpt lat="38.9927010" lon="-0.1641160">
        <ele>6.3</ele>
        <time>2020-11-14T09:43:15Z</time>
      </trkpt>
      <trkpt lat="38.9926630" lon="-0.1640730">
        <ele>6.3</ele>
        <time>2020-11-14T09:43:16Z</time>
      </trkpt>
      <trkpt lat="38.9926270" lon="-0.1640350">
        <ele>6.3</ele>
        <time>2020-11-14T09:43:17Z</time>
      </trkpt>
      <trkpt lat="38.9925870" lon="-0.1639890">
        <ele>6.3</ele>
        <time>2020-11-14T09:43:18Z</time>
      </trkpt>
      <trkpt lat="38.9925140" lon="-0.1639700">
        <ele>6.3</ele>
        <time>2020-11-14T09:43:19Z</time>
      </trkpt>
      <trkpt lat="38.9924600" lon="-0.1639280">
        <ele>6.3</ele>
        <time>2020-11-14T09:43:20Z</time>
      </trkpt>
      <trkpt lat="38.9924030" lon="-0.1638950">
        <ele>6.3</ele>
        <time>2020-11-14T09:43:21Z</time>
      </trkpt>
      <trkpt lat="38.9923560" lon="-0.1638670">
        <ele>6.2</ele>
        <time>2020-11-14T09:43:22Z</time>
      </trkpt>
      <trkpt lat="38.9923170" lon="-0.1638360">
        <ele>6.2</ele>
        <time>2020-11-14T09:43:23Z</time>
      </trkpt>
      <trkpt lat="38.9922800" lon="-0.1638070">
        <ele>6.1</ele>
        <time>2020-11-14T09:43:24Z</time>
      </trkpt>
      <trkpt lat="38.9922360" lon="-0.1637720">
        <ele>6.1</ele>
        <time>2020-11-14T09:43:25Z</time>
      </trkpt>
      <trkpt lat="38.9922100" lon="-0.1637590">
        <ele>6.0</ele>
        <time>2020-11-14T09:43:26Z</time>
      </trkpt>
      <trkpt lat="38.9921760" lon="-0.1637250">
        <ele>6.0</ele>
        <time>2020-11-14T09:43:27Z</time>
      </trkpt>
      <trkpt lat="38.9921340" lon="-0.1636980">
        <ele>6.1</ele>
        <time>2020-11-14T09:43:28Z</time>
      </trkpt>
      <trkpt lat="38.9920910" lon="-0.1636610">
        <ele>5.8</ele>
        <time>2020-11-14T09:43:29Z</time>
      </trkpt>
      <trkpt lat="38.9920430" lon="-0.1636170">
        <ele>5.8</ele>
        <time>2020-11-14T09:43:30Z</time>
      </trkpt>
      <trkpt lat="38.9919920" lon="-0.1635810">
        <ele>5.8</ele>
        <time>2020-11-14T09:43:31Z</time>
      </trkpt>
      <trkpt lat="38.9919540" lon="-0.1635580">
        <ele>5.9</ele>
        <time>2020-11-14T09:43:32Z</time>
      </trkpt>
      <trkpt lat="38.9919060" lon="-0.1635320">
        <ele>5.9</ele>
        <time>2020-11-14T09:43:33Z</time>
      </trkpt>
      <trkpt lat="38.9918520" lon="-0.1634860">
        <ele>5.9</ele>
        <time>2020-11-14T09:43:34Z</time>
      </trkpt>
      <trkpt lat="38.9917990" lon="-0.1634460">
        <ele>6.0</ele>
        <time>2020-11-14T09:43:35Z</time>
      </trkpt>
      <trkpt lat="38.9917290" lon="-0.1633810">
        <ele>6.1</ele>
        <time>2020-11-14T09:43:36Z</time>
      </trkpt>
      <trkpt lat="38.9916760" lon="-0.1633420">
        <ele>6.1</ele>
        <time>2020-11-14T09:43:37Z</time>
      </trkpt>
      <trkpt lat="38.9916270" lon="-0.1632930">
        <ele>6.1</ele>
        <time>2020-11-14T09:43:38Z</time>
      </trkpt>
      <trkpt lat="38.9915860" lon="-0.1632280">
        <ele>6.2</ele>
        <time>2020-11-14T09:43:39Z</time>
      </trkpt>
      <trkpt lat="38.9915310" lon="-0.1631920">
        <ele>6.2</ele>
        <time>2020-11-14T09:43:40Z</time>
      </trkpt>
      <trkpt lat="38.9914720" lon="-0.1631560">
        <ele>6.2</ele>
        <time>2020-11-14T09:43:41Z</time>
      </trkpt>
      <trkpt lat="38.9914190" lon="-0.1631200">
        <ele>6.2</ele>
        <time>2020-11-14T09:43:42Z</time>
      </trkpt>
      <trkpt lat="38.9913660" lon="-0.1630780">
        <ele>6.3</ele>
        <time>2020-11-14T09:43:43Z</time>
      </trkpt>
      <trkpt lat="38.9913130" lon="-0.1630370">
        <ele>6.3</ele>
        <time>2020-11-14T09:43:44Z</time>
      </trkpt>
      <trkpt lat="38.9912580" lon="-0.1629930">
        <ele>6.4</ele>
        <time>2020-11-14T09:43:45Z</time>
      </trkpt>
      <trkpt lat="38.9912040" lon="-0.1629430">
        <ele>6.4</ele>
        <time>2020-11-14T09:43:46Z</time>
      </trkpt>
      <trkpt lat="38.9911520" lon="-0.1628950">
        <ele>6.5</ele>
        <time>2020-11-14T09:43:47Z</time>
      </trkpt>
      <trkpt lat="38.9911040" lon="-0.1628440">
        <ele>6.5</ele>
        <time>2020-11-14T09:43:48Z</time>
      </trkpt>
      <trkpt lat="38.9910570" lon="-0.1627860">
        <ele>6.5</ele>
        <time>2020-11-14T09:43:49Z</time>
      </trkpt>
      <trkpt lat="38.9910190" lon="-0.1627280">
        <ele>6.6</ele>
        <time>2020-11-14T09:43:50Z</time>
      </trkpt>
      <trkpt lat="38.9909810" lon="-0.1626600">
        <ele>6.6</ele>
        <time>2020-11-14T09:43:51Z</time>
      </trkpt>
      <trkpt lat="38.9909390" lon="-0.1625930">
        <ele>6.7</ele>
        <time>2020-11-14T09:43:52Z</time>
      </trkpt>
      <trkpt lat="38.9909030" lon="-0.1625300">
        <ele>6.7</ele>
        <time>2020-11-14T09:43:53Z</time>
      </trkpt>
      <trkpt lat="38.9908620" lon="-0.1624640">
        <ele>6.7</ele>
        <time>2020-11-14T09:43:54Z</time>
      </trkpt>
      <trkpt lat="38.9908280" lon="-0.1624040">
        <ele>6.8</ele>
        <time>2020-11-14T09:43:55Z</time>
      </trkpt>
      <trkpt lat="38.9907890" lon="-0.1623400">
        <ele>6.8</ele>
        <time>2020-11-14T09:43:56Z</time>
      </trkpt>
      <trkpt lat="38.9907490" lon="-0.1622670">
        <ele>6.9</ele>
        <time>2020-11-14T09:43:57Z</time>
      </trkpt>
      <trkpt lat="38.9907030" lon="-0.1622160">
        <ele>6.9</ele>
        <time>2020-11-14T09:43:58Z</time>
      </trkpt>
      <trkpt lat="38.9906530" lon="-0.1621780">
        <ele>7.0</ele>
        <time>2020-11-14T09:43:59Z</time>
      </trkpt>
      <trkpt lat="38.9905930" lon="-0.1621450">
        <ele>7.1</ele>
        <time>2020-11-14T09:44:00Z</time>
      </trkpt>
      <trkpt lat="38.9905350" lon="-0.1621250">
        <ele>7.2</ele>
        <time>2020-11-14T09:44:01Z</time>
      </trkpt>
      <trkpt lat="38.9904770" lon="-0.1621040">
        <ele>7.3</ele>
        <time>2020-11-14T09:44:02Z</time>
      </trkpt>
      <trkpt lat="38.9904250" lon="-0.1620810">
        <ele>7.3</ele>
        <time>2020-11-14T09:44:03Z</time>
      </trkpt>
      <trkpt lat="38.9903670" lon="-0.1620440">
        <ele>7.4</ele>
        <time>2020-11-14T09:44:04Z</time>
      </trkpt>
      <trkpt lat="38.9903090" lon="-0.1620060">
        <ele>7.5</ele>
        <time>2020-11-14T09:44:05Z</time>
      </trkpt>
      <trkpt lat="38.9902530" lon="-0.1619730">
        <ele>7.6</ele>
        <time>2020-11-14T09:44:06Z</time>
      </trkpt>
      <trkpt lat="38.9901950" lon="-0.1619720">
        <ele>7.7</ele>
        <time>2020-11-14T09:44:07Z</time>
      </trkpt>
      <trkpt lat="38.9901360" lon="-0.1619870">
        <ele>7.7</ele>
        <time>2020-11-14T09:44:08Z</time>
      </trkpt>
      <trkpt lat="38.9900880" lon="-0.1619690">
        <ele>7.8</ele>
        <time>2020-11-14T09:44:09Z</time>
      </trkpt>
      <trkpt lat="38.9900280" lon="-0.1620070">
        <ele>7.9</ele>
        <time>2020-11-14T09:44:10Z</time>
      </trkpt>
      <trkpt lat="38.9899660" lon="-0.1620450">
        <ele>7.9</ele>
        <time>2020-11-14T09:44:11Z</time>
      </trkpt>
      <trkpt lat="38.9899030" lon="-0.1620830">
        <ele>7.9</ele>
        <time>2020-11-14T09:44:12Z</time>
      </trkpt>
      <trkpt lat="38.9898360" lon="-0.1621230">
        <ele>7.9</ele>
        <time>2020-11-14T09:44:13Z</time>
      </trkpt>
      <trkpt lat="38.9897720" lon="-0.1621540">
        <ele>7.8</ele>
        <time>2020-11-14T09:44:14Z</time>
      </trkpt>
      <trkpt lat="38.9897120" lon="-0.1622010">
        <ele>7.8</ele>
        <time>2020-11-14T09:44:15Z</time>
      </trkpt>
      <trkpt lat="38.9896530" lon="-0.1622320">
        <ele>7.8</ele>
        <time>2020-11-14T09:44:16Z</time>
      </trkpt>
      <trkpt lat="38.9895810" lon="-0.1622580">
        <ele>7.8</ele>
        <time>2020-11-14T09:44:17Z</time>
      </trkpt>
      <trkpt lat="38.9895180" lon="-0.1622970">
        <ele>7.8</ele>
        <time>2020-11-14T09:44:18Z</time>
      </trkpt>
      <trkpt lat="38.9894490" lon="-0.1623290">
        <ele>7.8</ele>
        <time>2020-11-14T09:44:19Z</time>
      </trkpt>
      <trkpt lat="38.9893870" lon="-0.1623700">
        <ele>7.9</ele>
        <time>2020-11-14T09:44:20Z</time>
      </trkpt>
      <trkpt lat="38.9893210" lon="-0.1623950">
        <ele>7.9</ele>
        <time>2020-11-14T09:44:21Z</time>
      </trkpt>
      <trkpt lat="38.9892500" lon="-0.1624310">
        <ele>7.9</ele>
        <time>2020-11-14T09:44:22Z</time>
      </trkpt>
      <trkpt lat="38.9891860" lon="-0.1624550">
        <ele>8.0</ele>
        <time>2020-11-14T09:44:23Z</time>
      </trkpt>
      <trkpt lat="38.9891190" lon="-0.1624840">
        <ele>8.0</ele>
        <time>2020-11-14T09:44:24Z</time>
      </trkpt>
      <trkpt lat="38.9890570" lon="-0.1625160">
        <ele>8.0</ele>
        <time>2020-11-14T09:44:25Z</time>
      </trkpt>
      <trkpt lat="38.9889890" lon="-0.1625470">
        <ele>8.1</ele>
        <time>2020-11-14T09:44:26Z</time>
      </trkpt>
      <trkpt lat="38.9889190" lon="-0.1625840">
        <ele>8.1</ele>
        <time>2020-11-14T09:44:27Z</time>
      </trkpt>
      <trkpt lat="38.9888490" lon="-0.1626150">
        <ele>8.2</ele>
        <time>2020-11-14T09:44:28Z</time>
      </trkpt>
      <trkpt lat="38.9887820" lon="-0.1626470">
        <ele>8.2</ele>
        <time>2020-11-14T09:44:29Z</time>
      </trkpt>
      <trkpt lat="38.9887100" lon="-0.1626850">
        <ele>8.2</ele>
        <time>2020-11-14T09:44:30Z</time>
      </trkpt>
      <trkpt lat="38.9886440" lon="-0.1627260">
        <ele>8.1</ele>
        <time>2020-11-14T09:44:31Z</time>
      </trkpt>
      <trkpt lat="38.9885700" lon="-0.1627650">
        <ele>8.1</ele>
        <time>2020-11-14T09:44:32Z</time>
      </trkpt>
      <trkpt lat="38.9885010" lon="-0.1627990">
        <ele>8.2</ele>
        <time>2020-11-14T09:44:33Z</time>
      </trkpt>
      <trkpt lat="38.9884280" lon="-0.1628310">
        <ele>8.2</ele>
        <time>2020-11-14T09:44:34Z</time>
      </trkpt>
      <trkpt lat="38.9883640" lon="-0.1628610">
        <ele>8.2</ele>
        <time>2020-11-14T09:44:35Z</time>
      </trkpt>
      <trkpt lat="38.9882910" lon="-0.1629020">
        <ele>8.2</ele>
        <time>2020-11-14T09:44:36Z</time>
      </trkpt>
      <trkpt lat="38.9882230" lon="-0.1629330">
        <ele>8.2</ele>
        <time>2020-11-14T09:44:37Z</time>
      </trkpt>
      <trkpt lat="38.9881500" lon="-0.1629750">
        <ele>8.3</ele>
        <time>2020-11-14T09:44:38Z</time>
      </trkpt>
      <trkpt lat="38.9880780" lon="-0.1630040">
        <ele>8.3</ele>
        <time>2020-11-14T09:44:39Z</time>
      </trkpt>
      <trkpt lat="38.9880060" lon="-0.1630420">
        <ele>8.3</ele>
        <time>2020-11-14T09:44:40Z</time>
      </trkpt>
      <trkpt lat="38.9879430" lon="-0.1630860">
        <ele>8.4</ele>
        <time>2020-11-14T09:44:41Z</time>
      </trkpt>
      <trkpt lat="38.9878730" lon="-0.1631180">
        <ele>8.4</ele>
        <time>2020-11-14T09:44:42Z</time>
      </trkpt>
      <trkpt lat="38.9878040" lon="-0.1631500">
        <ele>8.5</ele>
        <time>2020-11-14T09:44:43Z</time>
      </trkpt>
      <trkpt lat="38.9877320" lon="-0.1631870">
        <ele>8.5</ele>
        <time>2020-11-14T09:44:44Z</time>
      </trkpt>
      <trkpt lat="38.9876680" lon="-0.1632190">
        <ele>8.5</ele>
        <time>2020-11-14T09:44:45Z</time>
      </trkpt>
      <trkpt lat="38.9876030" lon="-0.1632550">
        <ele>8.5</ele>
        <time>2020-11-14T09:44:46Z</time>
      </trkpt>
      <trkpt lat="38.9875340" lon="-0.1632870">
        <ele>8.6</ele>
        <time>2020-11-14T09:44:47Z</time>
      </trkpt>
      <trkpt lat="38.9874660" lon="-0.1633280">
        <ele>8.6</ele>
        <time>2020-11-14T09:44:48Z</time>
      </trkpt>
      <trkpt lat="38.9873980" lon="-0.1633630">
        <ele>8.6</ele>
        <time>2020-11-14T09:44:49Z</time>
      </trkpt>
      <trkpt lat="38.9873270" lon="-0.1634010">
        <ele>8.6</ele>
        <time>2020-11-14T09:44:50Z</time>
      </trkpt>
      <trkpt lat="38.9872630" lon="-0.1634330">
        <ele>8.6</ele>
        <time>2020-11-14T09:44:51Z</time>
      </trkpt>
      <trkpt lat="38.9871990" lon="-0.1634640">
        <ele>8.7</ele>
        <time>2020-11-14T09:44:52Z</time>
      </trkpt>
      <trkpt lat="38.9871350" lon="-0.1634930">
        <ele>8.7</ele>
        <time>2020-11-14T09:44:53Z</time>
      </trkpt>
      <trkpt lat="38.9870640" lon="-0.1635230">
        <ele>8.7</ele>
        <time>2020-11-14T09:44:54Z</time>
      </trkpt>
      <trkpt lat="38.9869970" lon="-0.1635510">
        <ele>8.8</ele>
        <time>2020-11-14T09:44:55Z</time>
      </trkpt>
      <trkpt lat="38.9869240" lon="-0.1635850">
        <ele>8.8</ele>
        <time>2020-11-14T09:44:56Z</time>
      </trkpt>
      <trkpt lat="38.9868610" lon="-0.1636220">
        <ele>8.9</ele>
        <time>2020-11-14T09:44:57Z</time>
      </trkpt>
      <trkpt lat="38.9867910" lon="-0.1636540">
        <ele>8.9</ele>
        <time>2020-11-14T09:44:58Z</time>
      </trkpt>
      <trkpt lat="38.9867180" lon="-0.1636790">
        <ele>9.0</ele>
        <time>2020-11-14T09:44:59Z</time>
      </trkpt>
      <trkpt lat="38.9866490" lon="-0.1637140">
        <ele>9.0</ele>
        <time>2020-11-14T09:45:00Z</time>
      </trkpt>
      <trkpt lat="38.9865860" lon="-0.1637410">
        <ele>9.0</ele>
        <time>2020-11-14T09:45:01Z</time>
      </trkpt>
      <trkpt lat="38.9865220" lon="-0.1637770">
        <ele>9.1</ele>
        <time>2020-11-14T09:45:02Z</time>
      </trkpt>
      <trkpt lat="38.9864520" lon="-0.1638080">
        <ele>9.1</ele>
        <time>2020-11-14T09:45:03Z</time>
      </trkpt>
      <trkpt lat="38.9863790" lon="-0.1638410">
        <ele>9.2</ele>
        <time>2020-11-14T09:45:04Z</time>
      </trkpt>
      <trkpt lat="38.9863060" lon="-0.1638760">
        <ele>9.2</ele>
        <time>2020-11-14T09:45:05Z</time>
      </trkpt>
      <trkpt lat="38.9862370" lon="-0.1639140">
        <ele>9.3</ele>
        <time>2020-11-14T09:45:06Z</time>
      </trkpt>
      <trkpt lat="38.9861630" lon="-0.1639500">
        <ele>9.3</ele>
        <time>2020-11-14T09:45:07Z</time>
      </trkpt>
      <trkpt lat="38.9861020" lon="-0.1639760">
        <ele>9.4</ele>
        <time>2020-11-14T09:45:08Z</time>
      </trkpt>
      <trkpt lat="38.9860310" lon="-0.1640050">
        <ele>9.4</ele>
        <time>2020-11-14T09:45:09Z</time>
      </trkpt>
      <trkpt lat="38.9859640" lon="-0.1640370">
        <ele>9.5</ele>
        <time>2020-11-14T09:45:10Z</time>
      </trkpt>
      <trkpt lat="38.9858970" lon="-0.1640760">
        <ele>9.5</ele>
        <time>2020-11-14T09:45:11Z</time>
      </trkpt>
      <trkpt lat="38.9858280" lon="-0.1641080">
        <ele>9.6</ele>
        <time>2020-11-14T09:45:12Z</time>
      </trkpt>
      <trkpt lat="38.9857560" lon="-0.1641350">
        <ele>9.7</ele>
        <time>2020-11-14T09:45:13Z</time>
      </trkpt>
      <trkpt lat="38.9856860" lon="-0.1641660">
        <ele>9.7</ele>
        <time>2020-11-14T09:45:14Z</time>
      </trkpt>
      <trkpt lat="38.9856180" lon="-0.1642020">
        <ele>9.8</ele>
        <time>2020-11-14T09:45:15Z</time>
      </trkpt>
      <trkpt lat="38.9855500" lon="-0.1642410">
        <ele>9.8</ele>
        <time>2020-11-14T09:45:16Z</time>
      </trkpt>
      <trkpt lat="38.9854850" lon="-0.1642680">
        <ele>9.9</ele>
        <time>2020-11-14T09:45:17Z</time>
      </trkpt>
      <trkpt lat="38.9854200" lon="-0.1643000">
        <ele>9.9</ele>
        <time>2020-11-14T09:45:18Z</time>
      </trkpt>
      <trkpt lat="38.9853550" lon="-0.1643390">
        <ele>9.9</ele>
        <time>2020-11-14T09:45:19Z</time>
      </trkpt>
      <trkpt lat="38.9852860" lon="-0.1643740">
        <ele>10.0</ele>
        <time>2020-11-14T09:45:20Z</time>
      </trkpt>
      <trkpt lat="38.9852140" lon="-0.1644100">
        <ele>10.1</ele>
        <time>2020-11-14T09:45:21Z</time>
      </trkpt>
      <trkpt lat="38.9851560" lon="-0.1644380">
        <ele>10.1</ele>
        <time>2020-11-14T09:45:22Z</time>
      </trkpt>
      <trkpt lat="38.9850850" lon="-0.1644710">
        <ele>10.1</ele>
        <time>2020-11-14T09:45:23Z</time>
      </trkpt>
      <trkpt lat="38.9850140" lon="-0.1644970">
        <ele>10.1</ele>
        <time>2020-11-14T09:45:24Z</time>
      </trkpt>
      <trkpt lat="38.9849530" lon="-0.1645410">
        <ele>10.2</ele>
        <time>2020-11-14T09:45:25Z</time>
      </trkpt>
      <trkpt lat="38.9848840" lon="-0.1645740">
        <ele>10.2</ele>
        <time>2020-11-14T09:45:26Z</time>
      </trkpt>
      <trkpt lat="38.9848240" lon="-0.1646150">
        <ele>10.2</ele>
        <time>2020-11-14T09:45:27Z</time>
      </trkpt>
      <trkpt lat="38.9847610" lon="-0.1646440">
        <ele>10.3</ele>
        <time>2020-11-14T09:45:28Z</time>
      </trkpt>
      <trkpt lat="38.9846970" lon="-0.1646620">
        <ele>10.3</ele>
        <time>2020-11-14T09:45:29Z</time>
      </trkpt>
      <trkpt lat="38.9846260" lon="-0.1646870">
        <ele>10.4</ele>
        <time>2020-11-14T09:45:30Z</time>
      </trkpt>
      <trkpt lat="38.9845600" lon="-0.1647150">
        <ele>10.4</ele>
        <time>2020-11-14T09:45:31Z</time>
      </trkpt>
      <trkpt lat="38.9844930" lon="-0.1647600">
        <ele>10.5</ele>
        <time>2020-11-14T09:45:32Z</time>
      </trkpt>
      <trkpt lat="38.9844350" lon="-0.1648150">
        <ele>10.6</ele>
        <time>2020-11-14T09:45:33Z</time>
      </trkpt>
      <trkpt lat="38.9843830" lon="-0.1648710">
        <ele>10.7</ele>
        <time>2020-11-14T09:45:34Z</time>
      </trkpt>
      <trkpt lat="38.9843380" lon="-0.1649440">
        <ele>10.7</ele>
        <time>2020-11-14T09:45:35Z</time>
      </trkpt>
      <trkpt lat="38.9842930" lon="-0.1650170">
        <ele>10.8</ele>
        <time>2020-11-14T09:45:36Z</time>
      </trkpt>
      <trkpt lat="38.9842480" lon="-0.1650850">
        <ele>10.9</ele>
        <time>2020-11-14T09:45:37Z</time>
      </trkpt>
      <trkpt lat="38.9841910" lon="-0.1651360">
        <ele>11.1</ele>
        <time>2020-11-14T09:45:38Z</time>
      </trkpt>
      <trkpt lat="38.9841290" lon="-0.1651750">
        <ele>11.1</ele>
        <time>2020-11-14T09:45:39Z</time>
      </trkpt>
      <trkpt lat="38.9840680" lon="-0.1651910">
        <ele>11.1</ele>
        <time>2020-11-14T09:45:40Z</time>
      </trkpt>
      <trkpt lat="38.9839960" lon="-0.1651900">
        <ele>11.1</ele>
        <time>2020-11-14T09:45:41Z</time>
      </trkpt>
      <trkpt lat="38.9839220" lon="-0.1651700">
        <ele>11.1</ele>
        <time>2020-11-14T09:45:42Z</time>
      </trkpt>
      <trkpt lat="38.9838530" lon="-0.1651520">
        <ele>11.1</ele>
        <time>2020-11-14T09:45:43Z</time>
      </trkpt>
      <trkpt lat="38.9837750" lon="-0.1651460">
        <ele>11.2</ele>
        <time>2020-11-14T09:45:44Z</time>
      </trkpt>
      <trkpt lat="38.9837030" lon="-0.1651580">
        <ele>11.2</ele>
        <time>2020-11-14T09:45:45Z</time>
      </trkpt>
      <trkpt lat="38.9836280" lon="-0.1651790">
        <ele>11.3</ele>
        <time>2020-11-14T09:45:46Z</time>
      </trkpt>
      <trkpt lat="38.9835610" lon="-0.1652140">
        <ele>11.4</ele>
        <time>2020-11-14T09:45:47Z</time>
      </trkpt>
      <trkpt lat="38.9834950" lon="-0.1652480">
        <ele>11.4</ele>
        <time>2020-11-14T09:45:48Z</time>
      </trkpt>
      <trkpt lat="38.9834230" lon="-0.1652840">
        <ele>11.5</ele>
        <time>2020-11-14T09:45:49Z</time>
      </trkpt>
      <trkpt lat="38.9833580" lon="-0.1653290">
        <ele>11.5</ele>
        <time>2020-11-14T09:45:50Z</time>
      </trkpt>
      <trkpt lat="38.9832960" lon="-0.1653560">
        <ele>11.6</ele>
        <time>2020-11-14T09:45:51Z</time>
      </trkpt>
      <trkpt lat="38.9832280" lon="-0.1653980">
        <ele>11.6</ele>
        <time>2020-11-14T09:45:52Z</time>
      </trkpt>
      <trkpt lat="38.9831580" lon="-0.1654370">
        <ele>11.7</ele>
        <time>2020-11-14T09:45:53Z</time>
      </trkpt>
      <trkpt lat="38.9830890" lon="-0.1654660">
        <ele>11.8</ele>
        <time>2020-11-14T09:45:54Z</time>
      </trkpt>
      <trkpt lat="38.9830250" lon="-0.1654960">
        <ele>11.8</ele>
        <time>2020-11-14T09:45:55Z</time>
      </trkpt>
      <trkpt lat="38.9829600" lon="-0.1655330">
        <ele>11.8</ele>
        <time>2020-11-14T09:45:56Z</time>
      </trkpt>
      <trkpt lat="38.9828950" lon="-0.1655500">
        <ele>11.9</ele>
        <time>2020-11-14T09:45:57Z</time>
      </trkpt>
      <trkpt lat="38.9828270" lon="-0.1655820">
        <ele>11.9</ele>
        <time>2020-11-14T09:45:58Z</time>
      </trkpt>
      <trkpt lat="38.9827530" lon="-0.1656090">
        <ele>11.9</ele>
        <time>2020-11-14T09:45:59Z</time>
      </trkpt>
      <trkpt lat="38.9826800" lon="-0.1656420">
        <ele>12.0</ele>
        <time>2020-11-14T09:46:00Z</time>
      </trkpt>
      <trkpt lat="38.9826130" lon="-0.1656700">
        <ele>12.0</ele>
        <time>2020-11-14T09:46:01Z</time>
      </trkpt>
      <trkpt lat="38.9825480" lon="-0.1657030">
        <ele>12.0</ele>
        <time>2020-11-14T09:46:02Z</time>
      </trkpt>
      <trkpt lat="38.9824740" lon="-0.1657370">
        <ele>12.0</ele>
        <time>2020-11-14T09:46:03Z</time>
      </trkpt>
      <trkpt lat="38.9824090" lon="-0.1657630">
        <ele>12.1</ele>
        <time>2020-11-14T09:46:04Z</time>
      </trkpt>
      <trkpt lat="38.9823420" lon="-0.1658040">
        <ele>12.1</ele>
        <time>2020-11-14T09:46:05Z</time>
      </trkpt>
      <trkpt lat="38.9822700" lon="-0.1658260">
        <ele>12.1</ele>
        <time>2020-11-14T09:46:06Z</time>
      </trkpt>
      <trkpt lat="38.9822010" lon="-0.1658360">
        <ele>12.2</ele>
        <time>2020-11-14T09:46:07Z</time>
      </trkpt>
      <trkpt lat="38.9821300" lon="-0.1658690">
        <ele>12.3</ele>
        <time>2020-11-14T09:46:08Z</time>
      </trkpt>
      <trkpt lat="38.9820530" lon="-0.1658960">
        <ele>12.3</ele>
        <time>2020-11-14T09:46:09Z</time>
      </trkpt>
      <trkpt lat="38.9819760" lon="-0.1659270">
        <ele>12.4</ele>
        <time>2020-11-14T09:46:10Z</time>
      </trkpt>
      <trkpt lat="38.9818980" lon="-0.1659610">
        <ele>12.5</ele>
        <time>2020-11-14T09:46:11Z</time>
      </trkpt>
      <trkpt lat="38.9818410" lon="-0.1659740">
        <ele>12.5</ele>
        <time>2020-11-14T09:46:12Z</time>
      </trkpt>
      <trkpt lat="38.9817720" lon="-0.1660100">
        <ele>12.6</ele>
        <time>2020-11-14T09:46:13Z</time>
      </trkpt>
      <trkpt lat="38.9817030" lon="-0.1660440">
        <ele>12.6</ele>
        <time>2020-11-14T09:46:14Z</time>
      </trkpt>
      <trkpt lat="38.9816270" lon="-0.1660770">
        <ele>12.7</ele>
        <time>2020-11-14T09:46:15Z</time>
      </trkpt>
      <trkpt lat="38.9815550" lon="-0.1661090">
        <ele>12.7</ele>
        <time>2020-11-14T09:46:16Z</time>
      </trkpt>
      <trkpt lat="38.9814800" lon="-0.1661410">
        <ele>12.8</ele>
        <time>2020-11-14T09:46:17Z</time>
      </trkpt>
      <trkpt lat="38.9814180" lon="-0.1661660">
        <ele>12.8</ele>
        <time>2020-11-14T09:46:18Z</time>
      </trkpt>
      <trkpt lat="38.9813450" lon="-0.1662040">
        <ele>12.9</ele>
        <time>2020-11-14T09:46:19Z</time>
      </trkpt>
      <trkpt lat="38.9812760" lon="-0.1662390">
        <ele>12.9</ele>
        <time>2020-11-14T09:46:20Z</time>
      </trkpt>
      <trkpt lat="38.9812090" lon="-0.1662730">
        <ele>13.0</ele>
        <time>2020-11-14T09:46:21Z</time>
      </trkpt>
      <trkpt lat="38.9811440" lon="-0.1663190">
        <ele>13.0</ele>
        <time>2020-11-14T09:46:22Z</time>
      </trkpt>
      <trkpt lat="38.9810860" lon="-0.1663520">
        <ele>13.0</ele>
        <time>2020-11-14T09:46:23Z</time>
      </trkpt>
      <trkpt lat="38.9810190" lon="-0.1663990">
        <ele>13.1</ele>
        <time>2020-11-14T09:46:24Z</time>
      </trkpt>
      <trkpt lat="38.9809560" lon="-0.1664510">
        <ele>13.1</ele>
        <time>2020-11-14T09:46:25Z</time>
      </trkpt>
      <trkpt lat="38.9808990" lon="-0.1665100">
        <ele>13.2</ele>
        <time>2020-11-14T09:46:26Z</time>
      </trkpt>
      <trkpt lat="38.9808310" lon="-0.1665650">
        <ele>13.2</ele>
        <time>2020-11-14T09:46:27Z</time>
      </trkpt>
      <trkpt lat="38.9807680" lon="-0.1666130">
        <ele>13.2</ele>
        <time>2020-11-14T09:46:28Z</time>
      </trkpt>
      <trkpt lat="38.9807070" lon="-0.1666670">
        <ele>13.3</ele>
        <time>2020-11-14T09:46:29Z</time>
      </trkpt>
      <trkpt lat="38.9806480" lon="-0.1667290">
        <ele>13.3</ele>
        <time>2020-11-14T09:46:30Z</time>
      </trkpt>
      <trkpt lat="38.9805800" lon="-0.1667980">
        <ele>13.3</ele>
        <time>2020-11-14T09:46:31Z</time>
      </trkpt>
      <trkpt lat="38.9805270" lon="-0.1668670">
        <ele>13.4</ele>
        <time>2020-11-14T09:46:32Z</time>
      </trkpt>
      <trkpt lat="38.9804780" lon="-0.1669300">
        <ele>13.4</ele>
        <time>2020-11-14T09:46:33Z</time>
      </trkpt>
      <trkpt lat="38.9804240" lon="-0.1670040">
        <ele>13.4</ele>
        <time>2020-11-14T09:46:34Z</time>
      </trkpt>
      <trkpt lat="38.9803710" lon="-0.1670720">
        <ele>13.5</ele>
        <time>2020-11-14T09:46:35Z</time>
      </trkpt>
      <trkpt lat="38.9803150" lon="-0.1671390">
        <ele>13.5</ele>
        <time>2020-11-14T09:46:36Z</time>
      </trkpt>
      <trkpt lat="38.9802610" lon="-0.1672080">
        <ele>13.5</ele>
        <time>2020-11-14T09:46:37Z</time>
      </trkpt>
      <trkpt lat="38.9802080" lon="-0.1672770">
        <ele>13.5</ele>
        <time>2020-11-14T09:46:38Z</time>
      </trkpt>
      <trkpt lat="38.9801560" lon="-0.1673470">
        <ele>13.5</ele>
        <time>2020-11-14T09:46:39Z</time>
      </trkpt>
      <trkpt lat="38.9801020" lon="-0.1674190">
        <ele>13.6</ele>
        <time>2020-11-14T09:46:40Z</time>
      </trkpt>
      <trkpt lat="38.9800450" lon="-0.1674940">
        <ele>13.6</ele>
        <time>2020-11-14T09:46:41Z</time>
      </trkpt>
      <trkpt lat="38.9799920" lon="-0.1675660">
        <ele>13.6</ele>
        <time>2020-11-14T09:46:42Z</time>
      </trkpt>
      <trkpt lat="38.9799400" lon="-0.1676340">
        <ele>13.7</ele>
        <time>2020-11-14T09:46:43Z</time>
      </trkpt>
      <trkpt lat="38.9798820" lon="-0.1677020">
        <ele>13.7</ele>
        <time>2020-11-14T09:46:44Z</time>
      </trkpt>
      <trkpt lat="38.9798360" lon="-0.1677730">
        <ele>13.7</ele>
        <time>2020-11-14T09:46:45Z</time>
      </trkpt>
      <trkpt lat="38.9797770" lon="-0.1678400">
        <ele>13.8</ele>
        <time>2020-11-14T09:46:46Z</time>
      </trkpt>
      <trkpt lat="38.9797260" lon="-0.1679110">
        <ele>13.8</ele>
        <time>2020-11-14T09:46:47Z</time>
      </trkpt>
      <trkpt lat="38.9796720" lon="-0.1679890">
        <ele>13.9</ele>
        <time>2020-11-14T09:46:48Z</time>
      </trkpt>
      <trkpt lat="38.9796150" lon="-0.1680600">
        <ele>13.9</ele>
        <time>2020-11-14T09:46:49Z</time>
      </trkpt>
      <trkpt lat="38.9795560" lon="-0.1681210">
        <ele>14.0</ele>
        <time>2020-11-14T09:46:50Z</time>
      </trkpt>
      <trkpt lat="38.9795040" lon="-0.1681870">
        <ele>14.0</ele>
        <time>2020-11-14T09:46:51Z</time>
      </trkpt>
      <trkpt lat="38.9794450" lon="-0.1682600">
        <ele>14.1</ele>
        <time>2020-11-14T09:46:52Z</time>
      </trkpt>
      <trkpt lat="38.9793940" lon="-0.1683270">
        <ele>14.1</ele>
        <time>2020-11-14T09:46:53Z</time>
      </trkpt>
      <trkpt lat="38.9793490" lon="-0.1684060">
        <ele>14.2</ele>
        <time>2020-11-14T09:46:54Z</time>
      </trkpt>
      <trkpt lat="38.9792980" lon="-0.1684800">
        <ele>14.2</ele>
        <time>2020-11-14T09:46:55Z</time>
      </trkpt>
      <trkpt lat="38.9792470" lon="-0.1685540">
        <ele>14.2</ele>
        <time>2020-11-14T09:46:56Z</time>
      </trkpt>
      <trkpt lat="38.9791960" lon="-0.1686290">
        <ele>14.3</ele>
        <time>2020-11-14T09:46:57Z</time>
      </trkpt>
      <trkpt lat="38.9791440" lon="-0.1687010">
        <ele>14.3</ele>
        <time>2020-11-14T09:46:58Z</time>
      </trkpt>
      <trkpt lat="38.9791000" lon="-0.1687730">
        <ele>14.3</ele>
        <time>2020-11-14T09:46:59Z</time>
      </trkpt>
      <trkpt lat="38.9790510" lon="-0.1688580">
        <ele>14.4</ele>
        <time>2020-11-14T09:47:00Z</time>
      </trkpt>
      <trkpt lat="38.9790000" lon="-0.1689320">
        <ele>14.4</ele>
        <time>2020-11-14T09:47:01Z</time>
      </trkpt>
      <trkpt lat="38.9789460" lon="-0.1690130">
        <ele>14.5</ele>
        <time>2020-11-14T09:47:02Z</time>
      </trkpt>
      <trkpt lat="38.9788920" lon="-0.1690880">
        <ele>14.5</ele>
        <time>2020-11-14T09:47:03Z</time>
      </trkpt>
      <trkpt lat="38.9788460" lon="-0.1691590">
        <ele>14.6</ele>
        <time>2020-11-14T09:47:04Z</time>
      </trkpt>
      <trkpt lat="38.9787990" lon="-0.1692360">
        <ele>14.7</ele>
        <time>2020-11-14T09:47:05Z</time>
      </trkpt>
      <trkpt lat="38.9787480" lon="-0.1693070">
        <ele>14.7</ele>
        <time>2020-11-14T09:47:06Z</time>
      </trkpt>
      <trkpt lat="38.9786950" lon="-0.1693800">
        <ele>14.8</ele>
        <time>2020-11-14T09:47:07Z</time>
      </trkpt>
      <trkpt lat="38.9786300" lon="-0.1694400">
        <ele>14.8</ele>
        <time>2020-11-14T09:47:08Z</time>
      </trkpt>
      <trkpt lat="38.9785710" lon="-0.1694990">
        <ele>14.9</ele>
        <time>2020-11-14T09:47:09Z</time>
      </trkpt>
      <trkpt lat="38.9785150" lon="-0.1695660">
        <ele>15.0</ele>
        <time>2020-11-14T09:47:10Z</time>
      </trkpt>
      <trkpt lat="38.9784610" lon="-0.1696340">
        <ele>15.1</ele>
        <time>2020-11-14T09:47:11Z</time>
      </trkpt>
      <trkpt lat="38.9784020" lon="-0.1696940">
        <ele>15.2</ele>
        <time>2020-11-14T09:47:12Z</time>
      </trkpt>
      <trkpt lat="38.9783510" lon="-0.1697630">
        <ele>15.2</ele>
        <time>2020-11-14T09:47:13Z</time>
      </trkpt>
      <trkpt lat="38.9782980" lon="-0.1698240">
        <ele>15.3</ele>
        <time>2020-11-14T09:47:14Z</time>
      </trkpt>
      <trkpt lat="38.9782360" lon="-0.1698780">
        <ele>15.4</ele>
        <time>2020-11-14T09:47:15Z</time>
      </trkpt>
      <trkpt lat="38.9781740" lon="-0.1699370">
        <ele>15.4</ele>
        <time>2020-11-14T09:47:16Z</time>
      </trkpt>
      <trkpt lat="38.9781170" lon="-0.1699950">
        <ele>15.4</ele>
        <time>2020-11-14T09:47:17Z</time>
      </trkpt>
      <trkpt lat="38.9780520" lon="-0.1700530">
        <ele>15.4</ele>
        <time>2020-11-14T09:47:18Z</time>
      </trkpt>
      <trkpt lat="38.9779890" lon="-0.1701060">
        <ele>15.4</ele>
        <time>2020-11-14T09:47:19Z</time>
      </trkpt>
      <trkpt lat="38.9779310" lon="-0.1701600">
        <ele>15.4</ele>
        <time>2020-11-14T09:47:20Z</time>
      </trkpt>
      <trkpt lat="38.9778730" lon="-0.1702130">
        <ele>15.5</ele>
        <time>2020-11-14T09:47:21Z</time>
      </trkpt>
      <trkpt lat="38.9778130" lon="-0.1702730">
        <ele>15.5</ele>
        <time>2020-11-14T09:47:22Z</time>
      </trkpt>
      <trkpt lat="38.9777470" lon="-0.1703280">
        <ele>15.6</ele>
        <time>2020-11-14T09:47:23Z</time>
      </trkpt>
      <trkpt lat="38.9776850" lon="-0.1703730">
        <ele>15.6</ele>
        <time>2020-11-14T09:47:24Z</time>
      </trkpt>
      <trkpt lat="38.9776180" lon="-0.1704300">
        <ele>15.6</ele>
        <time>2020-11-14T09:47:25Z</time>
      </trkpt>
      <trkpt lat="38.9775530" lon="-0.1704790">
        <ele>15.7</ele>
        <time>2020-11-14T09:47:26Z</time>
      </trkpt>
      <trkpt lat="38.9774840" lon="-0.1705320">
        <ele>15.7</ele>
        <time>2020-11-14T09:47:27Z</time>
      </trkpt>
      <trkpt lat="38.9774200" lon="-0.1705790">
        <ele>15.7</ele>
        <time>2020-11-14T09:47:28Z</time>
      </trkpt>
      <trkpt lat="38.9773580" lon="-0.1706330">
        <ele>15.8</ele>
        <time>2020-11-14T09:47:29Z</time>
      </trkpt>
      <trkpt lat="38.9773000" lon="-0.1706950">
        <ele>15.8</ele>
        <time>2020-11-14T09:47:30Z</time>
      </trkpt>
      <trkpt lat="38.9772490" lon="-0.1707600">
        <ele>15.8</ele>
        <time>2020-11-14T09:47:31Z</time>
      </trkpt>
      <trkpt lat="38.9771880" lon="-0.1708270">
        <ele>15.9</ele>
        <time>2020-11-14T09:47:32Z</time>
      </trkpt>
      <trkpt lat="38.9771350" lon="-0.1708960">
        <ele>15.9</ele>
        <time>2020-11-14T09:47:33Z</time>
      </trkpt>
      <trkpt lat="38.9770780" lon="-0.1709600">
        <ele>15.9</ele>
        <time>2020-11-14T09:47:34Z</time>
      </trkpt>
      <trkpt lat="38.9770270" lon="-0.1710280">
        <ele>16.0</ele>
        <time>2020-11-14T09:47:35Z</time>
      </trkpt>
      <trkpt lat="38.9769660" lon="-0.1710950">
        <ele>16.0</ele>
        <time>2020-11-14T09:47:36Z</time>
      </trkpt>
      <trkpt lat="38.9769120" lon="-0.1711550">
        <ele>16.1</ele>
        <time>2020-11-14T09:47:37Z</time>
      </trkpt>
      <trkpt lat="38.9768490" lon="-0.1712200">
        <ele>16.1</ele>
        <time>2020-11-14T09:47:38Z</time>
      </trkpt>
      <trkpt lat="38.9767960" lon="-0.1712770">
        <ele>16.2</ele>
        <time>2020-11-14T09:47:39Z</time>
      </trkpt>
      <trkpt lat="38.9767370" lon="-0.1713400">
        <ele>16.3</ele>
        <time>2020-11-14T09:47:40Z</time>
      </trkpt>
      <trkpt lat="38.9766770" lon="-0.1714030">
        <ele>16.3</ele>
        <time>2020-11-14T09:47:41Z</time>
      </trkpt>
      <trkpt lat="38.9766110" lon="-0.1714600">
        <ele>16.3</ele>
        <time>2020-11-14T09:47:42Z</time>
      </trkpt>
      <trkpt lat="38.9765490" lon="-0.1715120">
        <ele>16.4</ele>
        <time>2020-11-14T09:47:43Z</time>
      </trkpt>
      <trkpt lat="38.9764840" lon="-0.1715700">
        <ele>16.4</ele>
        <time>2020-11-14T09:47:44Z</time>
      </trkpt>
      <trkpt lat="38.9764170" lon="-0.1716190">
        <ele>16.4</ele>
        <time>2020-11-14T09:47:45Z</time>
      </trkpt>
      <trkpt lat="38.9763510" lon="-0.1716630">
        <ele>16.5</ele>
        <time>2020-11-14T09:47:46Z</time>
      </trkpt>
      <trkpt lat="38.9762860" lon="-0.1717070">
        <ele>16.5</ele>
        <time>2020-11-14T09:47:47Z</time>
      </trkpt>
      <trkpt lat="38.9762210" lon="-0.1717530">
        <ele>16.5</ele>
        <time>2020-11-14T09:47:48Z</time>
      </trkpt>
      <trkpt lat="38.9761510" lon="-0.1717930">
        <ele>16.6</ele>
        <time>2020-11-14T09:47:49Z</time>
      </trkpt>
      <trkpt lat="38.9760850" lon="-0.1718360">
        <ele>16.6</ele>
        <time>2020-11-14T09:47:50Z</time>
      </trkpt>
      <trkpt lat="38.9760210" lon="-0.1718770">
        <ele>16.6</ele>
        <time>2020-11-14T09:47:51Z</time>
      </trkpt>
      <trkpt lat="38.9759540" lon="-0.1719150">
        <ele>16.6</ele>
        <time>2020-11-14T09:47:52Z</time>
      </trkpt>
      <trkpt lat="38.9758860" lon="-0.1719560">
        <ele>16.7</ele>
        <time>2020-11-14T09:47:53Z</time>
      </trkpt>
      <trkpt lat="38.9758200" lon="-0.1719900">
        <ele>16.7</ele>
        <time>2020-11-14T09:47:54Z</time>
      </trkpt>
      <trkpt lat="38.9757510" lon="-0.1720310">
        <ele>16.7</ele>
        <time>2020-11-14T09:47:55Z</time>
      </trkpt>
      <trkpt lat="38.9756790" lon="-0.1720620">
        <ele>16.8</ele>
        <time>2020-11-14T09:47:56Z</time>
      </trkpt>
      <trkpt lat="38.9756060" lon="-0.1720920">
        <ele>16.8</ele>
        <time>2020-11-14T09:47:57Z</time>
      </trkpt>
      <trkpt lat="38.9755320" lon="-0.1721220">
        <ele>16.9</ele>
        <time>2020-11-14T09:47:58Z</time>
      </trkpt>
      <trkpt lat="38.9754610" lon="-0.1721580">
        <ele>16.9</ele>
        <time>2020-11-14T09:47:59Z</time>
      </trkpt>
      <trkpt lat="38.9753940" lon="-0.1721870">
        <ele>16.9</ele>
        <time>2020-11-14T09:48:00Z</time>
      </trkpt>
      <trkpt lat="38.9753240" lon="-0.1722240">
        <ele>16.9</ele>
        <time>2020-11-14T09:48:01Z</time>
      </trkpt>
      <trkpt lat="38.9752540" lon="-0.1722550">
        <ele>17.0</ele>
        <time>2020-11-14T09:48:02Z</time>
      </trkpt>
      <trkpt lat="38.9751830" lon="-0.1722820">
        <ele>17.0</ele>
        <time>2020-11-14T09:48:03Z</time>
      </trkpt>
      <trkpt lat="38.9751110" lon="-0.1723110">
        <ele>17.0</ele>
        <time>2020-11-14T09:48:04Z</time>
      </trkpt>
      <trkpt lat="38.9750380" lon="-0.1723360">
        <ele>17.1</ele>
        <time>2020-11-14T09:48:05Z</time>
      </trkpt>
      <trkpt lat="38.9749650" lon="-0.1723640">
        <ele>17.1</ele>
        <time>2020-11-14T09:48:06Z</time>
      </trkpt>
      <trkpt lat="38.9748930" lon="-0.1723930">
        <ele>17.2</ele>
        <time>2020-11-14T09:48:07Z</time>
      </trkpt>
      <trkpt lat="38.9748210" lon="-0.1724140">
        <ele>17.2</ele>
        <time>2020-11-14T09:48:08Z</time>
      </trkpt>
      <trkpt lat="38.9747490" lon="-0.1724460">
        <ele>17.3</ele>
        <time>2020-11-14T09:48:09Z</time>
      </trkpt>
      <trkpt lat="38.9746820" lon="-0.1724730">
        <ele>17.3</ele>
        <time>2020-11-14T09:48:10Z</time>
      </trkpt>
      <trkpt lat="38.9746080" lon="-0.1725040">
        <ele>17.4</ele>
        <time>2020-11-14T09:48:11Z</time>
      </trkpt>
      <trkpt lat="38.9745380" lon="-0.1725280">
        <ele>17.5</ele>
        <time>2020-11-14T09:48:12Z</time>
      </trkpt>
      <trkpt lat="38.9744710" lon="-0.1725610">
        <ele>17.5</ele>
        <time>2020-11-14T09:48:13Z</time>
      </trkpt>
      <trkpt lat="38.9744070" lon="-0.1725970">
        <ele>17.6</ele>
        <time>2020-11-14T09:48:14Z</time>
      </trkpt>
      <trkpt lat="38.9743460" lon="-0.1726310">
        <ele>17.7</ele>
        <time>2020-11-14T09:48:15Z</time>
      </trkpt>
      <trkpt lat="38.9742920" lon="-0.1726710">
        <ele>17.8</ele>
        <time>2020-11-14T09:48:16Z</time>
      </trkpt>
      <trkpt lat="38.9742340" lon="-0.1727150">
        <ele>17.9</ele>
        <time>2020-11-14T09:48:17Z</time>
      </trkpt>
      <trkpt lat="38.9741740" lon="-0.1727550">
        <ele>18.0</ele>
        <time>2020-11-14T09:48:18Z</time>
      </trkpt>
      <trkpt lat="38.9741120" lon="-0.1727980">
        <ele>18.1</ele>
        <time>2020-11-14T09:48:19Z</time>
      </trkpt>
      <trkpt lat="38.9740680" lon="-0.1728450">
        <ele>18.2</ele>
        <time>2020-11-14T09:48:20Z</time>
      </trkpt>
      <trkpt lat="38.9740190" lon="-0.1728880">
        <ele>18.4</ele>
        <time>2020-11-14T09:48:21Z</time>
      </trkpt>
      <trkpt lat="38.9739760" lon="-0.1729240">
        <ele>18.5</ele>
        <time>2020-11-14T09:48:22Z</time>
      </trkpt>
      <trkpt lat="38.9739400" lon="-0.1729590">
        <ele>18.5</ele>
        <time>2020-11-14T09:48:23Z</time>
      </trkpt>
      <trkpt lat="38.9739470" lon="-0.1730000">
        <ele>18.5</ele>
        <time>2020-11-14T09:48:24Z</time>
      </trkpt>
      <trkpt lat="38.9739280" lon="-0.1730330">
        <ele>18.5</ele>
        <time>2020-11-14T09:48:25Z</time>
      </trkpt>
      <trkpt lat="38.9739320" lon="-0.1731010">
        <ele>18.5</ele>
        <time>2020-11-14T09:48:26Z</time>
      </trkpt>
      <trkpt lat="38.9739290" lon="-0.1731500">
        <ele>18.5</ele>
        <time>2020-11-14T09:48:27Z</time>
      </trkpt>
      <trkpt lat="38.9739270" lon="-0.1732070">
        <ele>18.5</ele>
        <time>2020-11-14T09:48:28Z</time>
      </trkpt>
      <trkpt lat="38.9739290" lon="-0.1732690">
        <ele>18.5</ele>
        <time>2020-11-14T09:48:29Z</time>
      </trkpt>
      <trkpt lat="38.9739350" lon="-0.1733410">
        <ele>18.4</ele>
        <time>2020-11-14T09:48:30Z</time>
      </trkpt>
      <trkpt lat="38.9739570" lon="-0.1734140">
        <ele>18.4</ele>
        <time>2020-11-14T09:48:31Z</time>
      </trkpt>
      <trkpt lat="38.9739870" lon="-0.1734910">
        <ele>18.4</ele>
        <time>2020-11-14T09:48:32Z</time>
      </trkpt>
      <trkpt lat="38.9740390" lon="-0.1735590">
        <ele>18.3</ele>
        <time>2020-11-14T09:48:33Z</time>
      </trkpt>
      <trkpt lat="38.9740930" lon="-0.1736380">
        <ele>18.2</ele>
        <time>2020-11-14T09:48:34Z</time>
      </trkpt>
      <trkpt lat="38.9741360" lon="-0.1737020">
        <ele>18.1</ele>
        <time>2020-11-14T09:48:35Z</time>
      </trkpt>
      <trkpt lat="38.9741830" lon="-0.1737750">
        <ele>18.1</ele>
        <time>2020-11-14T09:48:36Z</time>
      </trkpt>
      <trkpt lat="38.9742260" lon="-0.1738520">
        <ele>18.1</ele>
        <time>2020-11-14T09:48:37Z</time>
      </trkpt>
      <trkpt lat="38.9742740" lon="-0.1739250">
        <ele>18.0</ele>
        <time>2020-11-14T09:48:38Z</time>
      </trkpt>
      <trkpt lat="38.9743180" lon="-0.1739910">
        <ele>18.0</ele>
        <time>2020-11-14T09:48:39Z</time>
      </trkpt>
      <trkpt lat="38.9743660" lon="-0.1740680">
        <ele>18.0</ele>
        <time>2020-11-14T09:48:40Z</time>
      </trkpt>
      <trkpt lat="38.9744130" lon="-0.1741480">
        <ele>17.9</ele>
        <time>2020-11-14T09:48:41Z</time>
      </trkpt>
      <trkpt lat="38.9744640" lon="-0.1742160">
        <ele>17.9</ele>
        <time>2020-11-14T09:48:42Z</time>
      </trkpt>
      <trkpt lat="38.9744990" lon="-0.1742940">
        <ele>17.9</ele>
        <time>2020-11-14T09:48:43Z</time>
      </trkpt>
      <trkpt lat="38.9745420" lon="-0.1743790">
        <ele>17.9</ele>
        <time>2020-11-14T09:48:44Z</time>
      </trkpt>
      <trkpt lat="38.9745990" lon="-0.1744530">
        <ele>17.9</ele>
        <time>2020-11-14T09:48:45Z</time>
      </trkpt>
      <trkpt lat="38.9746400" lon="-0.1745130">
        <ele>17.9</ele>
        <time>2020-11-14T09:48:46Z</time>
      </trkpt>
      <trkpt lat="38.9746750" lon="-0.1745730">
        <ele>17.9</ele>
        <time>2020-11-14T09:48:47Z</time>
      </trkpt>
      <trkpt lat="38.9747060" lon="-0.1746230">
        <ele>17.9</ele>
        <time>2020-11-14T09:48:48Z</time>
      </trkpt>
      <trkpt lat="38.9747350" lon="-0.1746670">
        <ele>17.9</ele>
        <time>2020-11-14T09:48:49Z</time>
      </trkpt>
      <trkpt lat="38.9747590" lon="-0.1747010">
        <ele>17.9</ele>
        <time>2020-11-14T09:48:50Z</time>
      </trkpt>
      <trkpt lat="38.9747840" lon="-0.1747320">
        <ele>17.9</ele>
        <time>2020-11-14T09:48:51Z</time>
      </trkpt>
      <trkpt lat="38.9748130" lon="-0.1747640">
        <ele>17.9</ele>
        <time>2020-11-14T09:48:52Z</time>
      </trkpt>
      <trkpt lat="38.9748480" lon="-0.1747910">
        <ele>17.9</ele>
        <time>2020-11-14T09:48:53Z</time>
      </trkpt>
      <trkpt lat="38.9748920" lon="-0.1748000">
        <ele>17.9</ele>
        <time>2020-11-14T09:48:54Z</time>
      </trkpt>
      <trkpt lat="38.9749430" lon="-0.1747870">
        <ele>17.9</ele>
        <time>2020-11-14T09:48:55Z</time>
      </trkpt>
      <trkpt lat="38.9749890" lon="-0.1748160">
        <ele>17.8</ele>
        <time>2020-11-14T09:48:56Z</time>
      </trkpt>
      <trkpt lat="38.9750260" lon="-0.1748520">
        <ele>17.8</ele>
        <time>2020-11-14T09:48:57Z</time>
      </trkpt>
      <trkpt lat="38.9750530" lon="-0.1749020">
        <ele>17.8</ele>
        <time>2020-11-14T09:48:58Z</time>
      </trkpt>
      <trkpt lat="38.9750610" lon="-0.1749650">
        <ele>17.8</ele>
        <time>2020-11-14T09:48:59Z</time>
      </trkpt>
      <trkpt lat="38.9750510" lon="-0.1750270">
        <ele>17.7</ele>
        <time>2020-11-14T09:49:00Z</time>
      </trkpt>
      <trkpt lat="38.9750340" lon="-0.1750980">
        <ele>17.7</ele>
        <time>2020-11-14T09:49:01Z</time>
      </trkpt>
      <trkpt lat="38.9750130" lon="-0.1751660">
        <ele>17.8</ele>
        <time>2020-11-14T09:49:02Z</time>
      </trkpt>
      <trkpt lat="38.9749880" lon="-0.1752480">
        <ele>17.8</ele>
        <time>2020-11-14T09:49:03Z</time>
      </trkpt>
      <trkpt lat="38.9749850" lon="-0.1753380">
        <ele>17.8</ele>
        <time>2020-11-14T09:49:04Z</time>
      </trkpt>
      <trkpt lat="38.9750020" lon="-0.1754130">
        <ele>17.8</ele>
        <time>2020-11-14T09:49:05Z</time>
      </trkpt>
      <trkpt lat="38.9750230" lon="-0.1754990">
        <ele>17.8</ele>
        <time>2020-11-14T09:49:06Z</time>
      </trkpt>
      <trkpt lat="38.9750480" lon="-0.1755830">
        <ele>17.8</ele>
        <time>2020-11-14T09:49:07Z</time>
      </trkpt>
      <trkpt lat="38.9750690" lon="-0.1756650">
        <ele>17.8</ele>
        <time>2020-11-14T09:49:08Z</time>
      </trkpt>
      <trkpt lat="38.9750850" lon="-0.1757460">
        <ele>17.8</ele>
        <time>2020-11-14T09:49:09Z</time>
      </trkpt>
      <trkpt lat="38.9751140" lon="-0.1758300">
        <ele>17.8</ele>
        <time>2020-11-14T09:49:10Z</time>
      </trkpt>
      <trkpt lat="38.9751310" lon="-0.1759100">
        <ele>17.9</ele>
        <time>2020-11-14T09:49:11Z</time>
      </trkpt>
      <trkpt lat="38.9751460" lon="-0.1759870">
        <ele>17.9</ele>
        <time>2020-11-14T09:49:12Z</time>
      </trkpt>
      <trkpt lat="38.9751640" lon="-0.1760670">
        <ele>17.9</ele>
        <time>2020-11-14T09:49:13Z</time>
      </trkpt>
      <trkpt lat="38.9751970" lon="-0.1761580">
        <ele>18.0</ele>
        <time>2020-11-14T09:49:14Z</time>
      </trkpt>
      <trkpt lat="38.9752140" lon="-0.1762360">
        <ele>18.0</ele>
        <time>2020-11-14T09:49:15Z</time>
      </trkpt>
      <trkpt lat="38.9752430" lon="-0.1763080">
        <ele>18.0</ele>
        <time>2020-11-14T09:49:16Z</time>
      </trkpt>
      <trkpt lat="38.9752730" lon="-0.1764020">
        <ele>18.1</ele>
        <time>2020-11-14T09:49:17Z</time>
      </trkpt>
      <trkpt lat="38.9752940" lon="-0.1764860">
        <ele>18.1</ele>
        <time>2020-11-14T09:49:18Z</time>
      </trkpt>
      <trkpt lat="38.9753220" lon="-0.1765700">
        <ele>18.1</ele>
        <time>2020-11-14T09:49:19Z</time>
      </trkpt>
      <trkpt lat="38.9753440" lon="-0.1766630">
        <ele>18.2</ele>
        <time>2020-11-14T09:49:20Z</time>
      </trkpt>
      <trkpt lat="38.9753760" lon="-0.1767430">
        <ele>18.2</ele>
        <time>2020-11-14T09:49:21Z</time>
      </trkpt>
      <trkpt lat="38.9753930" lon="-0.1768220">
        <ele>18.2</ele>
        <time>2020-11-14T09:49:22Z</time>
      </trkpt>
      <trkpt lat="38.9754170" lon="-0.1769000">
        <ele>18.3</ele>
        <time>2020-11-14T09:49:23Z</time>
      </trkpt>
      <trkpt lat="38.9754290" lon="-0.1769690">
        <ele>18.3</ele>
        <time>2020-11-14T09:49:24Z</time>
      </trkpt>
      <trkpt lat="38.9754570" lon="-0.1770390">
        <ele>18.3</ele>
        <time>2020-11-14T09:49:25Z</time>
      </trkpt>
      <trkpt lat="38.9754800" lon="-0.1771040">
        <ele>18.3</ele>
        <time>2020-11-14T09:49:26Z</time>
      </trkpt>
      <trkpt lat="38.9755290" lon="-0.1771470">
        <ele>18.3</ele>
        <time>2020-11-14T09:49:27Z</time>
      </trkpt>
      <trkpt lat="38.9755790" lon="-0.1771740">
        <ele>18.3</ele>
        <time>2020-11-14T09:49:28Z</time>
      </trkpt>
      <trkpt lat="38.9756300" lon="-0.1772000">
        <ele>18.3</ele>
        <time>2020-11-14T09:49:29Z</time>
      </trkpt>
      <trkpt lat="38.9756930" lon="-0.1772440">
        <ele>18.3</ele>
        <time>2020-11-14T09:49:30Z</time>
      </trkpt>
      <trkpt lat="38.9757480" lon="-0.1772940">
        <ele>18.3</ele>
        <time>2020-11-14T09:49:31Z</time>
      </trkpt>
      <trkpt lat="38.9757860" lon="-0.1773530">
        <ele>18.3</ele>
        <time>2020-11-14T09:49:32Z</time>
      </trkpt>
      <trkpt lat="38.9758210" lon="-0.1774250">
        <ele>18.2</ele>
        <time>2020-11-14T09:49:33Z</time>
      </trkpt>
      <trkpt lat="38.9758300" lon="-0.1775110">
        <ele>18.2</ele>
        <time>2020-11-14T09:49:34Z</time>
      </trkpt>
      <trkpt lat="38.9758190" lon="-0.1775910">
        <ele>18.3</ele>
        <time>2020-11-14T09:49:35Z</time>
      </trkpt>
      <trkpt lat="38.9757990" lon="-0.1776650">
        <ele>18.3</ele>
        <time>2020-11-14T09:49:36Z</time>
      </trkpt>
      <trkpt lat="38.9757740" lon="-0.1777240">
        <ele>18.3</ele>
        <time>2020-11-14T09:49:37Z</time>
      </trkpt>
      <trkpt lat="38.9757260" lon="-0.1777890">
        <ele>18.4</ele>
        <time>2020-11-14T09:49:38Z</time>
      </trkpt>
      <trkpt lat="38.9756790" lon="-0.1778340">
        <ele>18.4</ele>
        <time>2020-11-14T09:49:39Z</time>
      </trkpt>
      <trkpt lat="38.9756150" lon="-0.1778570">
        <ele>18.4</ele>
        <time>2020-11-14T09:49:40Z</time>
      </trkpt>
      <trkpt lat="38.9755490" lon="-0.1778700">
        <ele>18.6</ele>
        <time>2020-11-14T09:49:41Z</time>
      </trkpt>
      <trkpt lat="38.9754820" lon="-0.1778850">
        <ele>18.7</ele>
        <time>2020-11-14T09:49:42Z</time>
      </trkpt>
      <trkpt lat="38.9754140" lon="-0.1779190">
        <ele>18.8</ele>
        <time>2020-11-14T09:49:43Z</time>
      </trkpt>
      <trkpt lat="38.9753580" lon="-0.1779610">
        <ele>18.9</ele>
        <time>2020-11-14T09:49:44Z</time>
      </trkpt>
      <trkpt lat="38.9753080" lon="-0.1780190">
        <ele>18.9</ele>
        <time>2020-11-14T09:49:45Z</time>
      </trkpt>
      <trkpt lat="38.9752590" lon="-0.1780920">
        <ele>19.0</ele>
        <time>2020-11-14T09:49:46Z</time>
      </trkpt>
      <trkpt lat="38.9752130" lon="-0.1781560">
        <ele>19.0</ele>
        <time>2020-11-14T09:49:47Z</time>
      </trkpt>
      <trkpt lat="38.9751630" lon="-0.1782220">
        <ele>19.1</ele>
        <time>2020-11-14T09:49:48Z</time>
      </trkpt>
      <trkpt lat="38.9751200" lon="-0.1782850">
        <ele>19.2</ele>
        <time>2020-11-14T09:49:49Z</time>
      </trkpt>
      <trkpt lat="38.9750780" lon="-0.1783510">
        <ele>19.2</ele>
        <time>2020-11-14T09:49:50Z</time>
      </trkpt>
      <trkpt lat="38.9750370" lon="-0.1784230">
        <ele>19.3</ele>
        <time>2020-11-14T09:49:51Z</time>
      </trkpt>
      <trkpt lat="38.9749970" lon="-0.1784930">
        <ele>19.4</ele>
        <time>2020-11-14T09:49:52Z</time>
      </trkpt>
      <trkpt lat="38.9749490" lon="-0.1785670">
        <ele>19.5</ele>
        <time>2020-11-14T09:49:53Z</time>
      </trkpt>
      <trkpt lat="38.9749020" lon="-0.1786410">
        <ele>19.5</ele>
        <time>2020-11-14T09:49:54Z</time>
      </trkpt>
      <trkpt lat="38.9748560" lon="-0.1787160">
        <ele>19.6</ele>
        <time>2020-11-14T09:49:55Z</time>
      </trkpt>
      <trkpt lat="38.9748190" lon="-0.1787900">
        <ele>19.6</ele>
        <time>2020-11-14T09:49:56Z</time>
      </trkpt>
      <trkpt lat="38.9747740" lon="-0.1788580">
        <ele>19.7</ele>
        <time>2020-11-14T09:49:57Z</time>
      </trkpt>
      <trkpt lat="38.9747430" lon="-0.1789300">
        <ele>19.7</ele>
        <time>2020-11-14T09:49:58Z</time>
      </trkpt>
      <trkpt lat="38.9747010" lon="-0.1790100">
        <ele>19.8</ele>
        <time>2020-11-14T09:49:59Z</time>
      </trkpt>
      <trkpt lat="38.9746550" lon="-0.1790850">
        <ele>19.9</ele>
        <time>2020-11-14T09:50:00Z</time>
      </trkpt>
      <trkpt lat="38.9746080" lon="-0.1791620">
        <ele>20.0</ele>
        <time>2020-11-14T09:50:01Z</time>
      </trkpt>
      <trkpt lat="38.9745610" lon="-0.1792350">
        <ele>20.0</ele>
        <time>2020-11-14T09:50:02Z</time>
      </trkpt>
      <trkpt lat="38.9745140" lon="-0.1793050">
        <ele>20.1</ele>
        <time>2020-11-14T09:50:03Z</time>
      </trkpt>
      <trkpt lat="38.9744690" lon="-0.1793810">
        <ele>20.2</ele>
        <time>2020-11-14T09:50:04Z</time>
      </trkpt>
      <trkpt lat="38.9744360" lon="-0.1794570">
        <ele>20.2</ele>
        <time>2020-11-14T09:50:05Z</time>
      </trkpt>
      <trkpt lat="38.9744110" lon="-0.1795340">
        <ele>20.3</ele>
        <time>2020-11-14T09:50:06Z</time>
      </trkpt>
      <trkpt lat="38.9743720" lon="-0.1796090">
        <ele>20.3</ele>
        <time>2020-11-14T09:50:07Z</time>
      </trkpt>
      <trkpt lat="38.9743250" lon="-0.1796850">
        <ele>20.4</ele>
        <time>2020-11-14T09:50:08Z</time>
      </trkpt>
      <trkpt lat="38.9742810" lon="-0.1797590">
        <ele>20.4</ele>
        <time>2020-11-14T09:50:09Z</time>
      </trkpt>
      <trkpt lat="38.9742340" lon="-0.1798380">
        <ele>20.5</ele>
        <time>2020-11-14T09:50:10Z</time>
      </trkpt>
      <trkpt lat="38.9741870" lon="-0.1799050">
        <ele>20.5</ele>
        <time>2020-11-14T09:50:11Z</time>
      </trkpt>
      <trkpt lat="38.9741310" lon="-0.1799670">
        <ele>20.6</ele>
        <time>2020-11-14T09:50:12Z</time>
      </trkpt>
      <trkpt lat="38.9740770" lon="-0.1800270">
        <ele>20.7</ele>
        <time>2020-11-14T09:50:13Z</time>
      </trkpt>
      <trkpt lat="38.9740350" lon="-0.1800970">
        <ele>20.8</ele>
        <time>2020-11-14T09:50:14Z</time>
      </trkpt>
      <trkpt lat="38.9739900" lon="-0.1801590">
        <ele>20.9</ele>
        <time>2020-11-14T09:50:15Z</time>
      </trkpt>
      <trkpt lat="38.9739530" lon="-0.1802200">
        <ele>20.9</ele>
        <time>2020-11-14T09:50:16Z</time>
      </trkpt>
      <trkpt lat="38.9739200" lon="-0.1802820">
        <ele>21.0</ele>
        <time>2020-11-14T09:50:17Z</time>
      </trkpt>
      <trkpt lat="38.9739050" lon="-0.1803420">
        <ele>21.1</ele>
        <time>2020-11-14T09:50:18Z</time>
      </trkpt>
      <trkpt lat="38.9738800" lon="-0.1803790">
        <ele>21.1</ele>
        <time>2020-11-14T09:50:19Z</time>
      </trkpt>
      <trkpt lat="38.9738850" lon="-0.1804270">
        <ele>21.1</ele>
        <time>2020-11-14T09:50:20Z</time>
      </trkpt>
      <trkpt lat="38.9738900" lon="-0.1804740">
        <ele>21.4</ele>
        <time>2020-11-14T09:50:21Z</time>
      </trkpt>
      <trkpt lat="38.9738820" lon="-0.1805180">
        <ele>21.5</ele>
        <time>2020-11-14T09:50:22Z</time>
      </trkpt>
      <trkpt lat="38.9739010" lon="-0.1805870">
        <ele>21.7</ele>
        <time>2020-11-14T09:50:23Z</time>
      </trkpt>
      <trkpt lat="38.9738880" lon="-0.1806540">
        <ele>21.8</ele>
        <time>2020-11-14T09:50:24Z</time>
      </trkpt>
      <trkpt lat="38.9738670" lon="-0.1807180">
        <ele>22.0</ele>
        <time>2020-11-14T09:50:25Z</time>
      </trkpt>
      <trkpt lat="38.9738290" lon="-0.1807680">
        <ele>22.0</ele>
        <time>2020-11-14T09:50:26Z</time>
      </trkpt>
      <trkpt lat="38.9737850" lon="-0.1807980">
        <ele>22.0</ele>
        <time>2020-11-14T09:50:27Z</time>
      </trkpt>
      <trkpt lat="38.9737240" lon="-0.1808110">
        <ele>22.1</ele>
        <time>2020-11-14T09:50:28Z</time>
      </trkpt>
      <trkpt lat="38.9736520" lon="-0.1808170">
        <ele>22.1</ele>
        <time>2020-11-14T09:50:29Z</time>
      </trkpt>
      <trkpt lat="38.9735740" lon="-0.1808150">
        <ele>22.1</ele>
        <time>2020-11-14T09:50:30Z</time>
      </trkpt>
      <trkpt lat="38.9735290" lon="-0.1808690">
        <ele>22.1</ele>
        <time>2020-11-14T09:50:31Z</time>
      </trkpt>
      <trkpt lat="38.9735190" lon="-0.1809640">
        <ele>22.0</ele>
        <time>2020-11-14T09:50:32Z</time>
      </trkpt>
      <trkpt lat="38.9734860" lon="-0.1810400">
        <ele>22.0</ele>
        <time>2020-11-14T09:50:33Z</time>
      </trkpt>
      <trkpt lat="38.9734540" lon="-0.1811010">
        <ele>21.9</ele>
        <time>2020-11-14T09:50:34Z</time>
      </trkpt>
      <trkpt lat="38.9734070" lon="-0.1811650">
        <ele>21.9</ele>
        <time>2020-11-14T09:50:35Z</time>
      </trkpt>
      <trkpt lat="38.9733690" lon="-0.1812230">
        <ele>21.9</ele>
        <time>2020-11-14T09:50:36Z</time>
      </trkpt>
      <trkpt lat="38.9733280" lon="-0.1812860">
        <ele>21.8</ele>
        <time>2020-11-14T09:50:37Z</time>
      </trkpt>
      <trkpt lat="38.9732870" lon="-0.1813450">
        <ele>21.8</ele>
        <time>2020-11-14T09:50:38Z</time>
      </trkpt>
      <trkpt lat="38.9732590" lon="-0.1814110">
        <ele>21.8</ele>
        <time>2020-11-14T09:50:39Z</time>
      </trkpt>
      <trkpt lat="38.9732230" lon="-0.1814670">
        <ele>21.8</ele>
        <time>2020-11-14T09:50:40Z</time>
      </trkpt>
      <trkpt lat="38.9731860" lon="-0.1815210">
        <ele>21.8</ele>
        <time>2020-11-14T09:50:41Z</time>
      </trkpt>
      <trkpt lat="38.9731390" lon="-0.1815670">
        <ele>21.7</ele>
        <time>2020-11-14T09:50:42Z</time>
      </trkpt>
      <trkpt lat="38.9731060" lon="-0.1816240">
        <ele>21.7</ele>
        <time>2020-11-14T09:50:43Z</time>
      </trkpt>
      <trkpt lat="38.9730930" lon="-0.1816960">
        <ele>21.7</ele>
        <time>2020-11-14T09:50:44Z</time>
      </trkpt>
      <trkpt lat="38.9730840" lon="-0.1817680">
        <ele>21.7</ele>
        <time>2020-11-14T09:50:45Z</time>
      </trkpt>
      <trkpt lat="38.9730830" lon="-0.1818420">
        <ele>21.7</ele>
        <time>2020-11-14T09:50:46Z</time>
      </trkpt>
      <trkpt lat="38.9730720" lon="-0.1819130">
        <ele>21.8</ele>
        <time>2020-11-14T09:50:47Z</time>
      </trkpt>
      <trkpt lat="38.9730420" lon="-0.1819800">
        <ele>21.8</ele>
        <time>2020-11-14T09:50:48Z</time>
      </trkpt>
      <trkpt lat="38.9730040" lon="-0.1820360">
        <ele>21.8</ele>
        <time>2020-11-14T09:50:49Z</time>
      </trkpt>
      <trkpt lat="38.9729530" lon="-0.1820780">
        <ele>21.8</ele>
        <time>2020-11-14T09:50:50Z</time>
      </trkpt>
      <trkpt lat="38.9728950" lon="-0.1821050">
        <ele>21.9</ele>
        <time>2020-11-14T09:50:51Z</time>
      </trkpt>
      <trkpt lat="38.9728370" lon="-0.1821250">
        <ele>21.9</ele>
        <time>2020-11-14T09:50:52Z</time>
      </trkpt>
      <trkpt lat="38.9727720" lon="-0.1821440">
        <ele>21.8</ele>
        <time>2020-11-14T09:50:53Z</time>
      </trkpt>
      <trkpt lat="38.9727090" lon="-0.1821690">
        <ele>21.7</ele>
        <time>2020-11-14T09:50:54Z</time>
      </trkpt>
      <trkpt lat="38.9726710" lon="-0.1822440">
        <ele>21.6</ele>
        <time>2020-11-14T09:50:55Z</time>
      </trkpt>
      <trkpt lat="38.9726370" lon="-0.1823080">
        <ele>21.6</ele>
        <time>2020-11-14T09:50:56Z</time>
      </trkpt>
      <trkpt lat="38.9726000" lon="-0.1823700">
        <ele>21.6</ele>
        <time>2020-11-14T09:50:57Z</time>
      </trkpt>
      <trkpt lat="38.9725560" lon="-0.1824310">
        <ele>21.6</ele>
        <time>2020-11-14T09:50:58Z</time>
      </trkpt>
      <trkpt lat="38.9725140" lon="-0.1824950">
        <ele>21.6</ele>
        <time>2020-11-14T09:50:59Z</time>
      </trkpt>
      <trkpt lat="38.9724710" lon="-0.1825580">
        <ele>21.7</ele>
        <time>2020-11-14T09:51:00Z</time>
      </trkpt>
      <trkpt lat="38.9724330" lon="-0.1826250">
        <ele>21.7</ele>
        <time>2020-11-14T09:51:01Z</time>
      </trkpt>
      <trkpt lat="38.9723880" lon="-0.1826830">
        <ele>21.7</ele>
        <time>2020-11-14T09:51:02Z</time>
      </trkpt>
      <trkpt lat="38.9723450" lon="-0.1827440">
        <ele>21.7</ele>
        <time>2020-11-14T09:51:03Z</time>
      </trkpt>
      <trkpt lat="38.9723020" lon="-0.1828100">
        <ele>21.8</ele>
        <time>2020-11-14T09:51:04Z</time>
      </trkpt>
      <trkpt lat="38.9722630" lon="-0.1828720">
        <ele>21.8</ele>
        <time>2020-11-14T09:51:05Z</time>
      </trkpt>
      <trkpt lat="38.9722210" lon="-0.1829280">
        <ele>21.8</ele>
        <time>2020-11-14T09:51:06Z</time>
      </trkpt>
      <trkpt lat="38.9721850" lon="-0.1829920">
        <ele>21.8</ele>
        <time>2020-11-14T09:51:07Z</time>
      </trkpt>
      <trkpt lat="38.9721520" lon="-0.1830570">
        <ele>21.8</ele>
        <time>2020-11-14T09:51:08Z</time>
      </trkpt>
      <trkpt lat="38.9721200" lon="-0.1831210">
        <ele>21.8</ele>
        <time>2020-11-14T09:51:09Z</time>
      </trkpt>
      <trkpt lat="38.9721000" lon="-0.1831930">
        <ele>21.9</ele>
        <time>2020-11-14T09:51:10Z</time>
      </trkpt>
      <trkpt lat="38.9720700" lon="-0.1832560">
        <ele>21.9</ele>
        <time>2020-11-14T09:51:11Z</time>
      </trkpt>
      <trkpt lat="38.9720410" lon="-0.1833220">
        <ele>21.9</ele>
        <time>2020-11-14T09:51:12Z</time>
      </trkpt>
      <trkpt lat="38.9720040" lon="-0.1833980">
        <ele>21.9</ele>
        <time>2020-11-14T09:51:13Z</time>
      </trkpt>
      <trkpt lat="38.9719760" lon="-0.1834690">
        <ele>21.9</ele>
        <time>2020-11-14T09:51:14Z</time>
      </trkpt>
      <trkpt lat="38.9719370" lon="-0.1835330">
        <ele>21.9</ele>
        <time>2020-11-14T09:51:15Z</time>
      </trkpt>
      <trkpt lat="38.9718910" lon="-0.1835670">
        <ele>21.9</ele>
        <time>2020-11-14T09:51:16Z</time>
      </trkpt>
      <trkpt lat="38.9718530" lon="-0.1836310">
        <ele>21.8</ele>
        <time>2020-11-14T09:51:17Z</time>
      </trkpt>
      <trkpt lat="38.9718140" lon="-0.1836900">
        <ele>21.8</ele>
        <time>2020-11-14T09:51:18Z</time>
      </trkpt>
      <trkpt lat="38.9717880" lon="-0.1837470">
        <ele>21.8</ele>
        <time>2020-11-14T09:51:19Z</time>
      </trkpt>
      <trkpt lat="38.9717460" lon="-0.1838040">
        <ele>21.8</ele>
        <time>2020-11-14T09:51:20Z</time>
      </trkpt>
      <trkpt lat="38.9717010" lon="-0.1838680">
        <ele>21.8</ele>
        <time>2020-11-14T09:51:21Z</time>
      </trkpt>
      <trkpt lat="38.9716570" lon="-0.1839200">
        <ele>21.9</ele>
        <time>2020-11-14T09:51:22Z</time>
      </trkpt>
      <trkpt lat="38.9716280" lon="-0.1839730">
        <ele>21.9</ele>
        <time>2020-11-14T09:51:23Z</time>
      </trkpt>
      <trkpt lat="38.9715900" lon="-0.1840280">
        <ele>21.9</ele>
        <time>2020-11-14T09:51:24Z</time>
      </trkpt>
      <trkpt lat="38.9715610" lon="-0.1841000">
        <ele>21.9</ele>
        <time>2020-11-14T09:51:25Z</time>
      </trkpt>
      <trkpt lat="38.9715160" lon="-0.1841520">
        <ele>21.9</ele>
        <time>2020-11-14T09:51:26Z</time>
      </trkpt>
      <trkpt lat="38.9714670" lon="-0.1842120">
        <ele>21.9</ele>
        <time>2020-11-14T09:51:27Z</time>
      </trkpt>
      <trkpt lat="38.9714230" lon="-0.1842570">
        <ele>21.9</ele>
        <time>2020-11-14T09:51:28Z</time>
      </trkpt>
      <trkpt lat="38.9713750" lon="-0.1843010">
        <ele>22.0</ele>
        <time>2020-11-14T09:51:29Z</time>
      </trkpt>
      <trkpt lat="38.9713480" lon="-0.1843730">
        <ele>22.0</ele>
        <time>2020-11-14T09:51:30Z</time>
      </trkpt>
      <trkpt lat="38.9713380" lon="-0.1844450">
        <ele>22.0</ele>
        <time>2020-11-14T09:51:31Z</time>
      </trkpt>
      <trkpt lat="38.9713290" lon="-0.1845100">
        <ele>22.1</ele>
        <time>2020-11-14T09:51:32Z</time>
      </trkpt>
      <trkpt lat="38.9713510" lon="-0.1845900">
        <ele>22.0</ele>
        <time>2020-11-14T09:51:33Z</time>
      </trkpt>
      <trkpt lat="38.9713580" lon="-0.1846550">
        <ele>22.0</ele>
        <time>2020-11-14T09:51:34Z</time>
      </trkpt>
      <trkpt lat="38.9713660" lon="-0.1847270">
        <ele>22.0</ele>
        <time>2020-11-14T09:51:35Z</time>
      </trkpt>
      <trkpt lat="38.9713600" lon="-0.1847940">
        <ele>22.0</ele>
        <time>2020-11-14T09:51:36Z</time>
      </trkpt>
      <trkpt lat="38.9713290" lon="-0.1848530">
        <ele>22.1</ele>
        <time>2020-11-14T09:51:37Z</time>
      </trkpt>
      <trkpt lat="38.9712970" lon="-0.1849070">
        <ele>22.1</ele>
        <time>2020-11-14T09:51:38Z</time>
      </trkpt>
      <trkpt lat="38.9712550" lon="-0.1849520">
        <ele>22.1</ele>
        <time>2020-11-14T09:51:39Z</time>
      </trkpt>
      <trkpt lat="38.9712090" lon="-0.1850010">
        <ele>22.1</ele>
        <time>2020-11-14T09:51:40Z</time>
      </trkpt>
      <trkpt lat="38.9711450" lon="-0.1850240">
        <ele>22.1</ele>
        <time>2020-11-14T09:51:41Z</time>
      </trkpt>
      <trkpt lat="38.9710900" lon="-0.1850570">
        <ele>22.2</ele>
        <time>2020-11-14T09:51:42Z</time>
      </trkpt>
      <trkpt lat="38.9710310" lon="-0.1850790">
        <ele>22.2</ele>
        <time>2020-11-14T09:51:43Z</time>
      </trkpt>
      <trkpt lat="38.9709710" lon="-0.1850970">
        <ele>22.2</ele>
        <time>2020-11-14T09:51:44Z</time>
      </trkpt>
      <trkpt lat="38.9709060" lon="-0.1851090">
        <ele>22.2</ele>
        <time>2020-11-14T09:51:45Z</time>
      </trkpt>
      <trkpt lat="38.9708460" lon="-0.1851170">
        <ele>22.3</ele>
        <time>2020-11-14T09:51:46Z</time>
      </trkpt>
      <trkpt lat="38.9708000" lon="-0.1851210">
        <ele>22.3</ele>
        <time>2020-11-14T09:51:47Z</time>
      </trkpt>
      <trkpt lat="38.9707480" lon="-0.1851120">
        <ele>22.3</ele>
        <time>2020-11-14T09:51:48Z</time>
      </trkpt>
      <trkpt lat="38.9706950" lon="-0.1851010">
        <ele>22.4</ele>
        <time>2020-11-14T09:51:49Z</time>
      </trkpt>
      <trkpt lat="38.9706450" lon="-0.1850620">
        <ele>22.4</ele>
        <time>2020-11-14T09:51:50Z</time>
      </trkpt>
      <trkpt lat="38.9706020" lon="-0.1850200">
        <ele>22.5</ele>
        <time>2020-11-14T09:51:51Z</time>
      </trkpt>
      <trkpt lat="38.9705660" lon="-0.1849850">
        <ele>22.5</ele>
        <time>2020-11-14T09:51:52Z</time>
      </trkpt>
      <trkpt lat="38.9705290" lon="-0.1849610">
        <ele>22.5</ele>
        <time>2020-11-14T09:51:53Z</time>
      </trkpt>
      <trkpt lat="38.9704940" lon="-0.1849510">
        <ele>22.4</ele>
        <time>2020-11-14T09:51:54Z</time>
      </trkpt>
      <trkpt lat="38.9704490" lon="-0.1849530">
        <ele>22.5</ele>
        <time>2020-11-14T09:51:55Z</time>
      </trkpt>
      <trkpt lat="38.9703960" lon="-0.1849730">
        <ele>22.5</ele>
        <time>2020-11-14T09:51:56Z</time>
      </trkpt>
      <trkpt lat="38.9703370" lon="-0.1849810">
        <ele>22.5</ele>
        <time>2020-11-14T09:51:57Z</time>
      </trkpt>
      <trkpt lat="38.9702740" lon="-0.1849930">
        <ele>22.6</ele>
        <time>2020-11-14T09:51:58Z</time>
      </trkpt>
      <trkpt lat="38.9702320" lon="-0.1850080">
        <ele>22.6</ele>
        <time>2020-11-14T09:51:59Z</time>
      </trkpt>
      <trkpt lat="38.9701960" lon="-0.1850180">
        <ele>22.6</ele>
        <time>2020-11-14T09:52:00Z</time>
      </trkpt>
      <trkpt lat="38.9701570" lon="-0.1850250">
        <ele>22.6</ele>
        <time>2020-11-14T09:52:01Z</time>
      </trkpt>
      <trkpt lat="38.9701450" lon="-0.1850270">
        <ele>22.6</ele>
        <time>2020-11-14T09:52:02Z</time>
      </trkpt>
      <trkpt lat="38.9701330" lon="-0.1850120">
        <ele>22.6</ele>
        <time>2020-11-14T09:52:03Z</time>
      </trkpt>
      <trkpt lat="38.9701240" lon="-0.1850180">
        <ele>22.6</ele>
        <time>2020-11-14T09:52:04Z</time>
      </trkpt>
      <trkpt lat="38.9701050" lon="-0.1850140">
        <ele>22.7</ele>
        <time>2020-11-14T09:52:05Z</time>
      </trkpt>
      <trkpt lat="38.9700930" lon="-0.1850060">
        <ele>22.7</ele>
        <time>2020-11-14T09:52:06Z</time>
      </trkpt>
      <trkpt lat="38.9700820" lon="-0.1849970">
        <ele>22.7</ele>
        <time>2020-11-14T09:52:07Z</time>
      </trkpt>
      <trkpt lat="38.9700610" lon="-0.1849920">
        <ele>22.7</ele>
        <time>2020-11-14T09:52:08Z</time>
      </trkpt>
      <trkpt lat="38.9700510" lon="-0.1849940">
        <ele>22.7</ele>
        <time>2020-11-14T09:52:09Z</time>
      </trkpt>
      <trkpt lat="38.9700210" lon="-0.1849910">
        <ele>22.7</ele>
        <time>2020-11-14T09:52:10Z</time>
      </trkpt>
      <trkpt lat="38.9700130" lon="-0.1849910">
        <ele>22.7</ele>
        <time>2020-11-14T09:52:11Z</time>
      </trkpt>
      <trkpt lat="38.9700220" lon="-0.1849850">
        <ele>22.7</ele>
        <time>2020-11-14T09:52:12Z</time>
      </trkpt>
      <trkpt lat="38.9700180" lon="-0.1849880">
        <ele>22.7</ele>
        <time>2020-11-14T09:52:13Z</time>
      </trkpt>
      <trkpt lat="38.9700120" lon="-0.1849900">
        <ele>22.7</ele>
        <time>2020-11-14T09:52:14Z</time>
      </trkpt>
      <trkpt lat="38.9699990" lon="-0.1849820">
        <ele>22.7</ele>
        <time>2020-11-14T09:52:15Z</time>
      </trkpt>
      <trkpt lat="38.9699900" lon="-0.1849710">
        <ele>22.7</ele>
        <time>2020-11-14T09:52:16Z</time>
      </trkpt>
      <trkpt lat="38.9699840" lon="-0.1849690">
        <ele>22.7</ele>
        <time>2020-11-14T09:52:17Z</time>
      </trkpt>
      <trkpt lat="38.9699790" lon="-0.1849720">
        <ele>22.7</ele>
        <time>2020-11-14T09:52:18Z</time>
      </trkpt>
      <trkpt lat="38.9699790" lon="-0.1849720">
        <ele>22.7</ele>
        <time>2020-11-14T09:52:19Z</time>
      </trkpt>
      <trkpt lat="38.9699790" lon="-0.1849720">
        <ele>22.7</ele>
        <time>2020-11-14T09:52:20Z</time>
      </trkpt>
      <trkpt lat="38.9699790" lon="-0.1849720">
        <ele>22.7</ele>
        <time>2020-11-14T09:52:21Z</time>
      </trkpt>
      <trkpt lat="38.9699790" lon="-0.1849720">
        <ele>22.7</ele>
        <time>2020-11-14T09:52:22Z</time>
      </trkpt>
      <trkpt lat="38.9699620" lon="-0.1849970">
        <ele>22.7</ele>
        <time>2020-11-14T09:52:23Z</time>
      </trkpt>
      <trkpt lat="38.9699650" lon="-0.1850040">
        <ele>22.7</ele>
        <time>2020-11-14T09:52:24Z</time>
      </trkpt>
      <trkpt lat="38.9699690" lon="-0.1850120">
        <ele>22.8</ele>
        <time>2020-11-14T09:52:25Z</time>
      </trkpt>
      <trkpt lat="38.9699720" lon="-0.1850190">
        <ele>22.8</ele>
        <time>2020-11-14T09:52:26Z</time>
      </trkpt>
      <trkpt lat="38.9699760" lon="-0.1850260">
        <ele>22.8</ele>
        <time>2020-11-14T09:52:27Z</time>
      </trkpt>
      <trkpt lat="38.9699790" lon="-0.1850330">
        <ele>22.8</ele>
        <time>2020-11-14T09:52:28Z</time>
      </trkpt>
      <trkpt lat="38.9699830" lon="-0.1850410">
        <ele>22.8</ele>
        <time>2020-11-14T09:52:29Z</time>
      </trkpt>
      <trkpt lat="38.9699860" lon="-0.1850480">
        <ele>22.8</ele>
        <time>2020-11-14T09:52:30Z</time>
      </trkpt>
      <trkpt lat="38.9699860" lon="-0.1850480">
        <ele>22.8</ele>
        <time>2020-11-14T09:52:31Z</time>
      </trkpt>
      <trkpt lat="38.9699860" lon="-0.1850480">
        <ele>22.8</ele>
        <time>2020-11-14T09:52:32Z</time>
      </trkpt>
      <trkpt lat="38.9699860" lon="-0.1850480">
        <ele>22.8</ele>
        <time>2020-11-14T09:52:33Z</time>
      </trkpt>
      <trkpt lat="38.9699860" lon="-0.1850480">
        <ele>22.8</ele>
        <time>2020-11-14T09:52:34Z</time>
      </trkpt>
      <trkpt lat="38.9699140" lon="-0.1850640">
        <ele>22.8</ele>
        <time>2020-11-14T09:52:46Z</time>
      </trkpt>
      <trkpt lat="38.9698840" lon="-0.1850750">
        <ele>22.8</ele>
        <time>2020-11-14T09:52:47Z</time>
      </trkpt>
      <trkpt lat="38.9698450" lon="-0.1850890">
        <ele>22.8</ele>
        <time>2020-11-14T09:52:48Z</time>
      </trkpt>
      <trkpt lat="38.9698030" lon="-0.1851080">
        <ele>22.8</ele>
        <time>2020-11-14T09:52:49Z</time>
      </trkpt>
      <trkpt lat="38.9697570" lon="-0.1851210">
        <ele>22.9</ele>
        <time>2020-11-14T09:52:50Z</time>
      </trkpt>
      <trkpt lat="38.9697060" lon="-0.1851280">
        <ele>22.9</ele>
        <time>2020-11-14T09:52:51Z</time>
      </trkpt>
      <trkpt lat="38.9696420" lon="-0.1851340">
        <ele>22.9</ele>
        <time>2020-11-14T09:52:52Z</time>
      </trkpt>
      <trkpt lat="38.9695990" lon="-0.1851520">
        <ele>22.9</ele>
        <time>2020-11-14T09:52:53Z</time>
      </trkpt>
      <trkpt lat="38.9695550" lon="-0.1851750">
        <ele>23.0</ele>
        <time>2020-11-14T09:52:54Z</time>
      </trkpt>
      <trkpt lat="38.9695020" lon="-0.1851980">
        <ele>23.0</ele>
        <time>2020-11-14T09:52:55Z</time>
      </trkpt>
      <trkpt lat="38.9694460" lon="-0.1852130">
        <ele>23.0</ele>
        <time>2020-11-14T09:52:56Z</time>
      </trkpt>
      <trkpt lat="38.9694010" lon="-0.1852350">
        <ele>23.1</ele>
        <time>2020-11-14T09:52:57Z</time>
      </trkpt>
      <trkpt lat="38.9693690" lon="-0.1852660">
        <ele>23.1</ele>
        <time>2020-11-14T09:52:58Z</time>
      </trkpt>
      <trkpt lat="38.9693080" lon="-0.1852540">
        <ele>23.1</ele>
        <time>2020-11-14T09:52:59Z</time>
      </trkpt>
      <trkpt lat="38.9692720" lon="-0.1852460">
        <ele>23.1</ele>
        <time>2020-11-14T09:53:00Z</time>
      </trkpt>
      <trkpt lat="38.9692360" lon="-0.1852370">
        <ele>23.2</ele>
        <time>2020-11-14T09:53:01Z</time>
      </trkpt>
      <trkpt lat="38.9692230" lon="-0.1852340">
        <ele>23.2</ele>
        <time>2020-11-14T09:53:02Z</time>
      </trkpt>
      <trkpt lat="38.9692310" lon="-0.1852570">
        <ele>23.2</ele>
        <time>2020-11-14T09:53:03Z</time>
      </trkpt>
      <trkpt lat="38.9692270" lon="-0.1852530">
        <ele>23.2</ele>
        <time>2020-11-14T09:53:04Z</time>
      </trkpt>
      <trkpt lat="38.9692170" lon="-0.1852530">
        <ele>23.2</ele>
        <time>2020-11-14T09:53:05Z</time>
      </trkpt>
      <trkpt lat="38.9692070" lon="-0.1852520">
        <ele>23.2</ele>
        <time>2020-11-14T09:53:06Z</time>
      </trkpt>
      <trkpt lat="38.9691930" lon="-0.1852540">
        <ele>23.2</ele>
        <time>2020-11-14T09:53:07Z</time>
      </trkpt>
      <trkpt lat="38.9691530" lon="-0.1852740">
        <ele>23.2</ele>
        <time>2020-11-14T09:53:08Z</time>
      </trkpt>
      <trkpt lat="38.9691330" lon="-0.1852780">
        <ele>23.3</ele>
        <time>2020-11-14T09:53:09Z</time>
      </trkpt>
      <trkpt lat="38.9690760" lon="-0.1852940">
        <ele>23.3</ele>
        <time>2020-11-14T09:53:10Z</time>
      </trkpt>
      <trkpt lat="38.9690360" lon="-0.1853160">
        <ele>23.3</ele>
        <time>2020-11-14T09:53:11Z</time>
      </trkpt>
      <trkpt lat="38.9689870" lon="-0.1853380">
        <ele>23.4</ele>
        <time>2020-11-14T09:53:12Z</time>
      </trkpt>
      <trkpt lat="38.9689290" lon="-0.1853470">
        <ele>23.4</ele>
        <time>2020-11-14T09:53:13Z</time>
      </trkpt>
      <trkpt lat="38.9688680" lon="-0.1853630">
        <ele>23.4</ele>
        <time>2020-11-14T09:53:14Z</time>
      </trkpt>
      <trkpt lat="38.9688030" lon="-0.1853760">
        <ele>23.5</ele>
        <time>2020-11-14T09:53:15Z</time>
      </trkpt>
      <trkpt lat="38.9687280" lon="-0.1853890">
        <ele>23.5</ele>
        <time>2020-11-14T09:53:16Z</time>
      </trkpt>
      <trkpt lat="38.9686820" lon="-0.1854260">
        <ele>23.5</ele>
        <time>2020-11-14T09:53:17Z</time>
      </trkpt>
      <trkpt lat="38.9686320" lon="-0.1854700">
        <ele>23.5</ele>
        <time>2020-11-14T09:53:18Z</time>
      </trkpt>
      <trkpt lat="38.9685800" lon="-0.1855030">
        <ele>23.5</ele>
        <time>2020-11-14T09:53:19Z</time>
      </trkpt>
      <trkpt lat="38.9685070" lon="-0.1855170">
        <ele>23.5</ele>
        <time>2020-11-14T09:53:20Z</time>
      </trkpt>
      <trkpt lat="38.9684220" lon="-0.1855190">
        <ele>23.5</ele>
        <time>2020-11-14T09:53:21Z</time>
      </trkpt>
      <trkpt lat="38.9683580" lon="-0.1855450">
        <ele>23.5</ele>
        <time>2020-11-14T09:53:22Z</time>
      </trkpt>
      <trkpt lat="38.9683090" lon="-0.1855790">
        <ele>23.5</ele>
        <time>2020-11-14T09:53:23Z</time>
      </trkpt>
      <trkpt lat="38.9682060" lon="-0.1855600">
        <ele>23.6</ele>
        <time>2020-11-14T09:53:24Z</time>
      </trkpt>
      <trkpt lat="38.9681370" lon="-0.1855720">
        <ele>23.6</ele>
        <time>2020-11-14T09:53:25Z</time>
      </trkpt>
      <trkpt lat="38.9680660" lon="-0.1855940">
        <ele>23.7</ele>
        <time>2020-11-14T09:53:26Z</time>
      </trkpt>
      <trkpt lat="38.9679970" lon="-0.1856140">
        <ele>23.7</ele>
        <time>2020-11-14T09:53:27Z</time>
      </trkpt>
      <trkpt lat="38.9679170" lon="-0.1856200">
        <ele>23.8</ele>
        <time>2020-11-14T09:53:28Z</time>
      </trkpt>
      <trkpt lat="38.9678240" lon="-0.1856110">
        <ele>23.9</ele>
        <time>2020-11-14T09:53:29Z</time>
      </trkpt>
      <trkpt lat="38.9677270" lon="-0.1855910">
        <ele>23.9</ele>
        <time>2020-11-14T09:53:30Z</time>
      </trkpt>
      <trkpt lat="38.9676420" lon="-0.1855940">
        <ele>24.0</ele>
        <time>2020-11-14T09:53:31Z</time>
      </trkpt>
      <trkpt lat="38.9675920" lon="-0.1856530">
        <ele>24.0</ele>
        <time>2020-11-14T09:53:32Z</time>
      </trkpt>
      <trkpt lat="38.9675380" lon="-0.1856960">
        <ele>24.0</ele>
        <time>2020-11-14T09:53:33Z</time>
      </trkpt>
      <trkpt lat="38.9674970" lon="-0.1857490">
        <ele>24.0</ele>
        <time>2020-11-14T09:53:34Z</time>
      </trkpt>
      <trkpt lat="38.9674380" lon="-0.1857720">
        <ele>24.0</ele>
        <time>2020-11-14T09:53:35Z</time>
      </trkpt>
      <trkpt lat="38.9673890" lon="-0.1858080">
        <ele>24.0</ele>
        <time>2020-11-14T09:53:36Z</time>
      </trkpt>
      <trkpt lat="38.9673180" lon="-0.1858150">
        <ele>24.0</ele>
        <time>2020-11-14T09:53:37Z</time>
      </trkpt>
      <trkpt lat="38.9672420" lon="-0.1858220">
        <ele>24.0</ele>
        <time>2020-11-14T09:53:38Z</time>
      </trkpt>
      <trkpt lat="38.9671660" lon="-0.1858380">
        <ele>24.1</ele>
        <time>2020-11-14T09:53:39Z</time>
      </trkpt>
      <trkpt lat="38.9670930" lon="-0.1858500">
        <ele>24.2</ele>
        <time>2020-11-14T09:53:40Z</time>
      </trkpt>
      <trkpt lat="38.9670390" lon="-0.1858750">
        <ele>24.2</ele>
        <time>2020-11-14T09:53:41Z</time>
      </trkpt>
      <trkpt lat="38.9669720" lon="-0.1858980">
        <ele>24.3</ele>
        <time>2020-11-14T09:53:42Z</time>
      </trkpt>
      <trkpt lat="38.9669090" lon="-0.1859160">
        <ele>24.4</ele>
        <time>2020-11-14T09:53:43Z</time>
      </trkpt>
      <trkpt lat="38.9668380" lon="-0.1859280">
        <ele>24.5</ele>
        <time>2020-11-14T09:53:44Z</time>
      </trkpt>
      <trkpt lat="38.9667840" lon="-0.1859440">
        <ele>24.5</ele>
        <time>2020-11-14T09:53:45Z</time>
      </trkpt>
      <trkpt lat="38.9667330" lon="-0.1859710">
        <ele>24.6</ele>
        <time>2020-11-14T09:53:46Z</time>
      </trkpt>
      <trkpt lat="38.9666730" lon="-0.1859980">
        <ele>24.6</ele>
        <time>2020-11-14T09:53:47Z</time>
      </trkpt>
      <trkpt lat="38.9666140" lon="-0.1860150">
        <ele>24.7</ele>
        <time>2020-11-14T09:53:48Z</time>
      </trkpt>
      <trkpt lat="38.9665430" lon="-0.1860210">
        <ele>24.8</ele>
        <time>2020-11-14T09:53:49Z</time>
      </trkpt>
      <trkpt lat="38.9665040" lon="-0.1860310">
        <ele>24.9</ele>
        <time>2020-11-14T09:53:50Z</time>
      </trkpt>
      <trkpt lat="38.9664700" lon="-0.1860410">
        <ele>24.9</ele>
        <time>2020-11-14T09:53:51Z</time>
      </trkpt>
      <trkpt lat="38.9664520" lon="-0.1860700">
        <ele>24.9</ele>
        <time>2020-11-14T09:53:52Z</time>
      </trkpt>
      <trkpt lat="38.9664170" lon="-0.1860680">
        <ele>25.0</ele>
        <time>2020-11-14T09:53:53Z</time>
      </trkpt>
      <trkpt lat="38.9664230" lon="-0.1861020">
        <ele>25.0</ele>
        <time>2020-11-14T09:53:54Z</time>
      </trkpt>
      <trkpt lat="38.9664250" lon="-0.1861140">
        <ele>25.0</ele>
        <time>2020-11-14T09:53:55Z</time>
      </trkpt>
      <trkpt lat="38.9664240" lon="-0.1861240">
        <ele>25.0</ele>
        <time>2020-11-14T09:53:56Z</time>
      </trkpt>
      <trkpt lat="38.9664150" lon="-0.1861280">
        <ele>25.0</ele>
        <time>2020-11-14T09:53:57Z</time>
      </trkpt>
      <trkpt lat="38.9664060" lon="-0.1861250">
        <ele>25.0</ele>
        <time>2020-11-14T09:53:58Z</time>
      </trkpt>
      <trkpt lat="38.9664040" lon="-0.1861280">
        <ele>25.0</ele>
        <time>2020-11-14T09:53:59Z</time>
      </trkpt>
      <trkpt lat="38.9663930" lon="-0.1861330">
        <ele>25.0</ele>
        <time>2020-11-14T09:54:00Z</time>
      </trkpt>
      <trkpt lat="38.9663810" lon="-0.1861460">
        <ele>25.0</ele>
        <time>2020-11-14T09:54:01Z</time>
      </trkpt>
      <trkpt lat="38.9663670" lon="-0.1861560">
        <ele>25.0</ele>
        <time>2020-11-14T09:54:02Z</time>
      </trkpt>
      <trkpt lat="38.9663580" lon="-0.1861620">
        <ele>25.6</ele>
        <time>2020-11-14T09:54:03Z</time>
      </trkpt>
      <trkpt lat="38.9663610" lon="-0.1861750">
        <ele>25.6</ele>
        <time>2020-11-14T09:54:04Z</time>
      </trkpt>
      <trkpt lat="38.9663580" lon="-0.1861910">
        <ele>25.7</ele>
        <time>2020-11-14T09:54:05Z</time>
      </trkpt>
      <trkpt lat="38.9663450" lon="-0.1862330">
        <ele>25.8</ele>
        <time>2020-11-14T09:54:06Z</time>
      </trkpt>
      <trkpt lat="38.9663420" lon="-0.1862520">
        <ele>25.8</ele>
        <time>2020-11-14T09:54:07Z</time>
      </trkpt>
      <trkpt lat="38.9663320" lon="-0.1862950">
        <ele>25.9</ele>
        <time>2020-11-14T09:54:08Z</time>
      </trkpt>
      <trkpt lat="38.9663170" lon="-0.1863390">
        <ele>26.0</ele>
        <time>2020-11-14T09:54:09Z</time>
      </trkpt>
      <trkpt lat="38.9662900" lon="-0.1863840">
        <ele>26.1</ele>
        <time>2020-11-14T09:54:10Z</time>
      </trkpt>
      <trkpt lat="38.9662270" lon="-0.1864140">
        <ele>26.1</ele>
        <time>2020-11-14T09:54:11Z</time>
      </trkpt>
      <trkpt lat="38.9661880" lon="-0.1864460">
        <ele>26.2</ele>
        <time>2020-11-14T09:54:12Z</time>
      </trkpt>
      <trkpt lat="38.9661360" lon="-0.1864670">
        <ele>26.1</ele>
        <time>2020-11-14T09:54:13Z</time>
      </trkpt>
      <trkpt lat="38.9660850" lon="-0.1864700">
        <ele>25.9</ele>
        <time>2020-11-14T09:54:14Z</time>
      </trkpt>
      <trkpt lat="38.9660220" lon="-0.1864520">
        <ele>25.3</ele>
        <time>2020-11-14T09:54:15Z</time>
      </trkpt>
      <trkpt lat="38.9659720" lon="-0.1864270">
        <ele>25.3</ele>
        <time>2020-11-14T09:54:16Z</time>
      </trkpt>
      <trkpt lat="38.9659280" lon="-0.1863890">
        <ele>25.2</ele>
        <time>2020-11-14T09:54:17Z</time>
      </trkpt>
      <trkpt lat="38.9658720" lon="-0.1863430">
        <ele>25.2</ele>
        <time>2020-11-14T09:54:18Z</time>
      </trkpt>
      <trkpt lat="38.9658330" lon="-0.1863020">
        <ele>25.1</ele>
        <time>2020-11-14T09:54:19Z</time>
      </trkpt>
      <trkpt lat="38.9657960" lon="-0.1862740">
        <ele>25.1</ele>
        <time>2020-11-14T09:54:20Z</time>
      </trkpt>
      <trkpt lat="38.9657600" lon="-0.1862490">
        <ele>25.1</ele>
        <time>2020-11-14T09:54:21Z</time>
      </trkpt>
      <trkpt lat="38.9657090" lon="-0.1862890">
        <ele>25.1</ele>
        <time>2020-11-14T09:54:22Z</time>
      </trkpt>
      <trkpt lat="38.9656660" lon="-0.1863050">
        <ele>25.1</ele>
        <time>2020-11-14T09:54:23Z</time>
      </trkpt>
      <trkpt lat="38.9656140" lon="-0.1863200">
        <ele>25.1</ele>
        <time>2020-11-14T09:54:24Z</time>
      </trkpt>
      <trkpt lat="38.9655600" lon="-0.1863330">
        <ele>25.1</ele>
        <time>2020-11-14T09:54:25Z</time>
      </trkpt>
      <trkpt lat="38.9655090" lon="-0.1863490">
        <ele>25.1</ele>
        <time>2020-11-14T09:54:26Z</time>
      </trkpt>
      <trkpt lat="38.9654700" lon="-0.1863530">
        <ele>25.1</ele>
        <time>2020-11-14T09:54:27Z</time>
      </trkpt>
      <trkpt lat="38.9654380" lon="-0.1863560">
        <ele>25.1</ele>
        <time>2020-11-14T09:54:28Z</time>
      </trkpt>
      <trkpt lat="38.9654310" lon="-0.1863570">
        <ele>25.1</ele>
        <time>2020-11-14T09:54:29Z</time>
      </trkpt>
      <trkpt lat="38.9654180" lon="-0.1863680">
        <ele>25.1</ele>
        <time>2020-11-14T09:54:30Z</time>
      </trkpt>
      <trkpt lat="38.9654020" lon="-0.1863730">
        <ele>25.1</ele>
        <time>2020-11-14T09:54:31Z</time>
      </trkpt>
      <trkpt lat="38.9653700" lon="-0.1863820">
        <ele>25.2</ele>
        <time>2020-11-14T09:54:32Z</time>
      </trkpt>
      <trkpt lat="38.9653590" lon="-0.1863860">
        <ele>25.2</ele>
        <time>2020-11-14T09:54:33Z</time>
      </trkpt>
      <trkpt lat="38.9653200" lon="-0.1863960">
        <ele>25.2</ele>
        <time>2020-11-14T09:54:34Z</time>
      </trkpt>
      <trkpt lat="38.9653070" lon="-0.1863980">
        <ele>25.2</ele>
        <time>2020-11-14T09:54:35Z</time>
      </trkpt>
      <trkpt lat="38.9652800" lon="-0.1864000">
        <ele>25.2</ele>
        <time>2020-11-14T09:54:36Z</time>
      </trkpt>
      <trkpt lat="38.9652520" lon="-0.1864050">
        <ele>25.3</ele>
        <time>2020-11-14T09:54:37Z</time>
      </trkpt>
      <trkpt lat="38.9652230" lon="-0.1864100">
        <ele>25.3</ele>
        <time>2020-11-14T09:54:38Z</time>
      </trkpt>
      <trkpt lat="38.9651950" lon="-0.1864140">
        <ele>25.3</ele>
        <time>2020-11-14T09:54:39Z</time>
      </trkpt>
      <trkpt lat="38.9651850" lon="-0.1864150">
        <ele>25.3</ele>
        <time>2020-11-14T09:54:40Z</time>
      </trkpt>
      <trkpt lat="38.9651560" lon="-0.1864270">
        <ele>25.4</ele>
        <time>2020-11-14T09:54:41Z</time>
      </trkpt>
      <trkpt lat="38.9651440" lon="-0.1864320">
        <ele>25.4</ele>
        <time>2020-11-14T09:54:42Z</time>
      </trkpt>
      <trkpt lat="38.9651170" lon="-0.1864430">
        <ele>25.4</ele>
        <time>2020-11-14T09:54:43Z</time>
      </trkpt>
      <trkpt lat="38.9650780" lon="-0.1864610">
        <ele>25.5</ele>
        <time>2020-11-14T09:54:44Z</time>
      </trkpt>
      <trkpt lat="38.9650310" lon="-0.1864780">
        <ele>25.5</ele>
        <time>2020-11-14T09:54:45Z</time>
      </trkpt>
      <trkpt lat="38.9649840" lon="-0.1864910">
        <ele>25.6</ele>
        <time>2020-11-14T09:54:46Z</time>
      </trkpt>
      <trkpt lat="38.9649220" lon="-0.1865080">
        <ele>25.6</ele>
        <time>2020-11-14T09:54:47Z</time>
      </trkpt>
      <trkpt lat="38.9648590" lon="-0.1865200">
        <ele>25.6</ele>
        <time>2020-11-14T09:54:48Z</time>
      </trkpt>
      <trkpt lat="38.9647850" lon="-0.1865460">
        <ele>25.7</ele>
        <time>2020-11-14T09:54:49Z</time>
      </trkpt>
      <trkpt lat="38.9647140" lon="-0.1865690">
        <ele>25.7</ele>
        <time>2020-11-14T09:54:50Z</time>
      </trkpt>
      <trkpt lat="38.9646410" lon="-0.1865880">
        <ele>25.8</ele>
        <time>2020-11-14T09:54:51Z</time>
      </trkpt>
      <trkpt lat="38.9645740" lon="-0.1866140">
        <ele>25.8</ele>
        <time>2020-11-14T09:54:52Z</time>
      </trkpt>
      <trkpt lat="38.9645090" lon="-0.1866150">
        <ele>25.9</ele>
        <time>2020-11-14T09:54:53Z</time>
      </trkpt>
      <trkpt lat="38.9644870" lon="-0.1866780">
        <ele>26.0</ele>
        <time>2020-11-14T09:54:54Z</time>
      </trkpt>
      <trkpt lat="38.9644580" lon="-0.1867120">
        <ele>26.2</ele>
        <time>2020-11-14T09:54:55Z</time>
      </trkpt>
      <trkpt lat="38.9644260" lon="-0.1867610">
        <ele>26.3</ele>
        <time>2020-11-14T09:54:56Z</time>
      </trkpt>
      <trkpt lat="38.9644310" lon="-0.1868250">
        <ele>26.3</ele>
        <time>2020-11-14T09:54:57Z</time>
      </trkpt>
      <trkpt lat="38.9644080" lon="-0.1868760">
        <ele>26.4</ele>
        <time>2020-11-14T09:54:58Z</time>
      </trkpt>
      <trkpt lat="38.9643800" lon="-0.1869220">
        <ele>26.4</ele>
        <time>2020-11-14T09:54:59Z</time>
      </trkpt>
      <trkpt lat="38.9643370" lon="-0.1869560">
        <ele>26.4</ele>
        <time>2020-11-14T09:55:00Z</time>
      </trkpt>
      <trkpt lat="38.9642850" lon="-0.1869880">
        <ele>26.4</ele>
        <time>2020-11-14T09:55:01Z</time>
      </trkpt>
      <trkpt lat="38.9642310" lon="-0.1870090">
        <ele>26.4</ele>
        <time>2020-11-14T09:55:02Z</time>
      </trkpt>
      <trkpt lat="38.9641840" lon="-0.1870340">
        <ele>26.4</ele>
        <time>2020-11-14T09:55:03Z</time>
      </trkpt>
      <trkpt lat="38.9641240" lon="-0.1870540">
        <ele>26.5</ele>
        <time>2020-11-14T09:55:04Z</time>
      </trkpt>
      <trkpt lat="38.9640820" lon="-0.1870900">
        <ele>26.5</ele>
        <time>2020-11-14T09:55:05Z</time>
      </trkpt>
      <trkpt lat="38.9640270" lon="-0.1871020">
        <ele>26.5</ele>
        <time>2020-11-14T09:55:06Z</time>
      </trkpt>
      <trkpt lat="38.9639830" lon="-0.1871250">
        <ele>26.5</ele>
        <time>2020-11-14T09:55:07Z</time>
      </trkpt>
      <trkpt lat="38.9639390" lon="-0.1871420">
        <ele>26.5</ele>
        <time>2020-11-14T09:55:08Z</time>
      </trkpt>
      <trkpt lat="38.9638680" lon="-0.1871560">
        <ele>26.4</ele>
        <time>2020-11-14T09:55:09Z</time>
      </trkpt>
      <trkpt lat="38.9638270" lon="-0.1871950">
        <ele>26.4</ele>
        <time>2020-11-14T09:55:10Z</time>
      </trkpt>
      <trkpt lat="38.9637740" lon="-0.1872190">
        <ele>26.4</ele>
        <time>2020-11-14T09:55:11Z</time>
      </trkpt>
      <trkpt lat="38.9637170" lon="-0.1872320">
        <ele>26.3</ele>
        <time>2020-11-14T09:55:12Z</time>
      </trkpt>
      <trkpt lat="38.9636600" lon="-0.1872450">
        <ele>26.3</ele>
        <time>2020-11-14T09:55:13Z</time>
      </trkpt>
      <trkpt lat="38.9635840" lon="-0.1872450">
        <ele>26.2</ele>
        <time>2020-11-14T09:55:14Z</time>
      </trkpt>
      <trkpt lat="38.9635230" lon="-0.1872700">
        <ele>26.2</ele>
        <time>2020-11-14T09:55:15Z</time>
      </trkpt>
      <trkpt lat="38.9634720" lon="-0.1873040">
        <ele>26.2</ele>
        <time>2020-11-14T09:55:16Z</time>
      </trkpt>
      <trkpt lat="38.9634430" lon="-0.1873410">
        <ele>26.2</ele>
        <time>2020-11-14T09:55:17Z</time>
      </trkpt>
      <trkpt lat="38.9634030" lon="-0.1873690">
        <ele>26.2</ele>
        <time>2020-11-14T09:55:18Z</time>
      </trkpt>
      <trkpt lat="38.9633380" lon="-0.1873850">
        <ele>26.2</ele>
        <time>2020-11-14T09:55:19Z</time>
      </trkpt>
      <trkpt lat="38.9632860" lon="-0.1874160">
        <ele>26.3</ele>
        <time>2020-11-14T09:55:20Z</time>
      </trkpt>
      <trkpt lat="38.9632170" lon="-0.1874200">
        <ele>26.3</ele>
        <time>2020-11-14T09:55:21Z</time>
      </trkpt>
      <trkpt lat="38.9631610" lon="-0.1874360">
        <ele>26.3</ele>
        <time>2020-11-14T09:55:22Z</time>
      </trkpt>
      <trkpt lat="38.9631030" lon="-0.1874530">
        <ele>26.4</ele>
        <time>2020-11-14T09:55:23Z</time>
      </trkpt>
      <trkpt lat="38.9630620" lon="-0.1874770">
        <ele>26.4</ele>
        <time>2020-11-14T09:55:24Z</time>
      </trkpt>
      <trkpt lat="38.9630330" lon="-0.1875020">
        <ele>26.4</ele>
        <time>2020-11-14T09:55:25Z</time>
      </trkpt>
      <trkpt lat="38.9630050" lon="-0.1875060">
        <ele>26.5</ele>
        <time>2020-11-14T09:55:26Z</time>
      </trkpt>
      <trkpt lat="38.9629640" lon="-0.1875260">
        <ele>26.5</ele>
        <time>2020-11-14T09:55:27Z</time>
      </trkpt>
      <trkpt lat="38.9629430" lon="-0.1875260">
        <ele>26.6</ele>
        <time>2020-11-14T09:55:28Z</time>
      </trkpt>
      <trkpt lat="38.9629100" lon="-0.1875560">
        <ele>26.7</ele>
        <time>2020-11-14T09:55:29Z</time>
      </trkpt>
      <trkpt lat="38.9628660" lon="-0.1875860">
        <ele>26.8</ele>
        <time>2020-11-14T09:55:30Z</time>
      </trkpt>
      <trkpt lat="38.9628230" lon="-0.1876040">
        <ele>26.9</ele>
        <time>2020-11-14T09:55:31Z</time>
      </trkpt>
      <trkpt lat="38.9627690" lon="-0.1876200">
        <ele>27.1</ele>
        <time>2020-11-14T09:55:32Z</time>
      </trkpt>
      <trkpt lat="38.9627310" lon="-0.1876500">
        <ele>27.2</ele>
        <time>2020-11-14T09:55:33Z</time>
      </trkpt>
      <trkpt lat="38.9626880" lon="-0.1876670">
        <ele>27.3</ele>
        <time>2020-11-14T09:55:34Z</time>
      </trkpt>
      <trkpt lat="38.9626340" lon="-0.1876830">
        <ele>27.5</ele>
        <time>2020-11-14T09:55:35Z</time>
      </trkpt>
      <trkpt lat="38.9625990" lon="-0.1877020">
        <ele>27.6</ele>
        <time>2020-11-14T09:55:36Z</time>
      </trkpt>
      <trkpt lat="38.9625560" lon="-0.1877350">
        <ele>27.8</ele>
        <time>2020-11-14T09:55:37Z</time>
      </trkpt>
      <trkpt lat="38.9625070" lon="-0.1877580">
        <ele>27.9</ele>
        <time>2020-11-14T09:55:38Z</time>
      </trkpt>
      <trkpt lat="38.9624710" lon="-0.1877950">
        <ele>28.0</ele>
        <time>2020-11-14T09:55:39Z</time>
      </trkpt>
      <trkpt lat="38.9624220" lon="-0.1878200">
        <ele>28.1</ele>
        <time>2020-11-14T09:55:40Z</time>
      </trkpt>
      <trkpt lat="38.9623590" lon="-0.1878360">
        <ele>28.1</ele>
        <time>2020-11-14T09:55:41Z</time>
      </trkpt>
      <trkpt lat="38.9623070" lon="-0.1878500">
        <ele>28.1</ele>
        <time>2020-11-14T09:55:42Z</time>
      </trkpt>
      <trkpt lat="38.9622560" lon="-0.1878770">
        <ele>28.1</ele>
        <time>2020-11-14T09:55:43Z</time>
      </trkpt>
      <trkpt lat="38.9622010" lon="-0.1878870">
        <ele>28.1</ele>
        <time>2020-11-14T09:55:44Z</time>
      </trkpt>
      <trkpt lat="38.9621650" lon="-0.1879400">
        <ele>28.0</ele>
        <time>2020-11-14T09:55:45Z</time>
      </trkpt>
      <trkpt lat="38.9621230" lon="-0.1879670">
        <ele>28.0</ele>
        <time>2020-11-14T09:55:46Z</time>
      </trkpt>
      <trkpt lat="38.9620660" lon="-0.1879930">
        <ele>28.0</ele>
        <time>2020-11-14T09:55:47Z</time>
      </trkpt>
      <trkpt lat="38.9620120" lon="-0.1880230">
        <ele>28.1</ele>
        <time>2020-11-14T09:55:48Z</time>
      </trkpt>
      <trkpt lat="38.9619520" lon="-0.1880370">
        <ele>28.1</ele>
        <time>2020-11-14T09:55:49Z</time>
      </trkpt>
      <trkpt lat="38.9619040" lon="-0.1880710">
        <ele>28.1</ele>
        <time>2020-11-14T09:55:50Z</time>
      </trkpt>
      <trkpt lat="38.9618530" lon="-0.1880940">
        <ele>28.2</ele>
        <time>2020-11-14T09:55:51Z</time>
      </trkpt>
      <trkpt lat="38.9617960" lon="-0.1881180">
        <ele>28.2</ele>
        <time>2020-11-14T09:55:52Z</time>
      </trkpt>
      <trkpt lat="38.9617420" lon="-0.1881520">
        <ele>28.3</ele>
        <time>2020-11-14T09:55:53Z</time>
      </trkpt>
      <trkpt lat="38.9616900" lon="-0.1881760">
        <ele>28.3</ele>
        <time>2020-11-14T09:55:54Z</time>
      </trkpt>
      <trkpt lat="38.9616300" lon="-0.1881950">
        <ele>28.3</ele>
        <time>2020-11-14T09:55:55Z</time>
      </trkpt>
      <trkpt lat="38.9615770" lon="-0.1882260">
        <ele>28.3</ele>
        <time>2020-11-14T09:55:56Z</time>
      </trkpt>
      <trkpt lat="38.9615180" lon="-0.1882510">
        <ele>28.2</ele>
        <time>2020-11-14T09:55:57Z</time>
      </trkpt>
      <trkpt lat="38.9614570" lon="-0.1882760">
        <ele>28.2</ele>
        <time>2020-11-14T09:55:58Z</time>
      </trkpt>
      <trkpt lat="38.9613950" lon="-0.1882990">
        <ele>28.2</ele>
        <time>2020-11-14T09:55:59Z</time>
      </trkpt>
      <trkpt lat="38.9613370" lon="-0.1883250">
        <ele>28.2</ele>
        <time>2020-11-14T09:56:00Z</time>
      </trkpt>
      <trkpt lat="38.9612810" lon="-0.1883530">
        <ele>28.2</ele>
        <time>2020-11-14T09:56:01Z</time>
      </trkpt>
      <trkpt lat="38.9612220" lon="-0.1883890">
        <ele>28.3</ele>
        <time>2020-11-14T09:56:02Z</time>
      </trkpt>
      <trkpt lat="38.9611650" lon="-0.1884270">
        <ele>28.3</ele>
        <time>2020-11-14T09:56:03Z</time>
      </trkpt>
      <trkpt lat="38.9611050" lon="-0.1884520">
        <ele>28.4</ele>
        <time>2020-11-14T09:56:04Z</time>
      </trkpt>
      <trkpt lat="38.9610470" lon="-0.1884830">
        <ele>28.5</ele>
        <time>2020-11-14T09:56:05Z</time>
      </trkpt>
      <trkpt lat="38.9609950" lon="-0.1885130">
        <ele>28.6</ele>
        <time>2020-11-14T09:56:06Z</time>
      </trkpt>
      <trkpt lat="38.9609360" lon="-0.1885400">
        <ele>28.7</ele>
        <time>2020-11-14T09:56:07Z</time>
      </trkpt>
      <trkpt lat="38.9608770" lon="-0.1885660">
        <ele>28.8</ele>
        <time>2020-11-14T09:56:08Z</time>
      </trkpt>
      <trkpt lat="38.9608250" lon="-0.1885930">
        <ele>28.9</ele>
        <time>2020-11-14T09:56:09Z</time>
      </trkpt>
      <trkpt lat="38.9607680" lon="-0.1886230">
        <ele>28.9</ele>
        <time>2020-11-14T09:56:10Z</time>
      </trkpt>
      <trkpt lat="38.9607130" lon="-0.1886480">
        <ele>29.0</ele>
        <time>2020-11-14T09:56:11Z</time>
      </trkpt>
      <trkpt lat="38.9606560" lon="-0.1886750">
        <ele>29.0</ele>
        <time>2020-11-14T09:56:12Z</time>
      </trkpt>
      <trkpt lat="38.9606030" lon="-0.1886890">
        <ele>28.9</ele>
        <time>2020-11-14T09:56:13Z</time>
      </trkpt>
      <trkpt lat="38.9605430" lon="-0.1887250">
        <ele>28.9</ele>
        <time>2020-11-14T09:56:14Z</time>
      </trkpt>
      <trkpt lat="38.9604840" lon="-0.1887530">
        <ele>28.9</ele>
        <time>2020-11-14T09:56:15Z</time>
      </trkpt>
      <trkpt lat="38.9604290" lon="-0.1887790">
        <ele>28.9</ele>
        <time>2020-11-14T09:56:16Z</time>
      </trkpt>
      <trkpt lat="38.9603820" lon="-0.1888180">
        <ele>28.9</ele>
        <time>2020-11-14T09:56:17Z</time>
      </trkpt>
      <trkpt lat="38.9603340" lon="-0.1888520">
        <ele>28.9</ele>
        <time>2020-11-14T09:56:18Z</time>
      </trkpt>
      <trkpt lat="38.9602880" lon="-0.1888700">
        <ele>28.9</ele>
        <time>2020-11-14T09:56:19Z</time>
      </trkpt>
      <trkpt lat="38.9602310" lon="-0.1888910">
        <ele>28.9</ele>
        <time>2020-11-14T09:56:20Z</time>
      </trkpt>
      <trkpt lat="38.9601850" lon="-0.1889280">
        <ele>29.0</ele>
        <time>2020-11-14T09:56:21Z</time>
      </trkpt>
      <trkpt lat="38.9601350" lon="-0.1889560">
        <ele>29.0</ele>
        <time>2020-11-14T09:56:22Z</time>
      </trkpt>
      <trkpt lat="38.9600950" lon="-0.1889710">
        <ele>29.1</ele>
        <time>2020-11-14T09:56:23Z</time>
      </trkpt>
      <trkpt lat="38.9600610" lon="-0.1889990">
        <ele>29.1</ele>
        <time>2020-11-14T09:56:24Z</time>
      </trkpt>
      <trkpt lat="38.9600500" lon="-0.1890120">
        <ele>29.2</ele>
        <time>2020-11-14T09:56:25Z</time>
      </trkpt>
      <trkpt lat="38.9600480" lon="-0.1890720">
        <ele>29.3</ele>
        <time>2020-11-14T09:56:26Z</time>
      </trkpt>
      <trkpt lat="38.9600610" lon="-0.1891180">
        <ele>29.3</ele>
        <time>2020-11-14T09:56:27Z</time>
      </trkpt>
      <trkpt lat="38.9600720" lon="-0.1891600">
        <ele>29.3</ele>
        <time>2020-11-14T09:56:28Z</time>
      </trkpt>
      <trkpt lat="38.9600840" lon="-0.1892030">
        <ele>29.3</ele>
        <time>2020-11-14T09:56:29Z</time>
      </trkpt>
      <trkpt lat="38.9601020" lon="-0.1892510">
        <ele>29.3</ele>
        <time>2020-11-14T09:56:30Z</time>
      </trkpt>
      <trkpt lat="38.9601320" lon="-0.1892990">
        <ele>29.3</ele>
        <time>2020-11-14T09:56:31Z</time>
      </trkpt>
      <trkpt lat="38.9601660" lon="-0.1893370">
        <ele>29.3</ele>
        <time>2020-11-14T09:56:32Z</time>
      </trkpt>
      <trkpt lat="38.9601990" lon="-0.1893800">
        <ele>29.2</ele>
        <time>2020-11-14T09:56:33Z</time>
      </trkpt>
      <trkpt lat="38.9602290" lon="-0.1894320">
        <ele>29.2</ele>
        <time>2020-11-14T09:56:34Z</time>
      </trkpt>
      <trkpt lat="38.9602410" lon="-0.1894960">
        <ele>29.1</ele>
        <time>2020-11-14T09:56:35Z</time>
      </trkpt>
      <trkpt lat="38.9602400" lon="-0.1895710">
        <ele>29.1</ele>
        <time>2020-11-14T09:56:36Z</time>
      </trkpt>
      <trkpt lat="38.9602380" lon="-0.1896480">
        <ele>29.3</ele>
        <time>2020-11-14T09:56:37Z</time>
      </trkpt>
      <trkpt lat="38.9602500" lon="-0.1897270">
        <ele>29.4</ele>
        <time>2020-11-14T09:56:38Z</time>
      </trkpt>
      <trkpt lat="38.9602760" lon="-0.1898090">
        <ele>29.6</ele>
        <time>2020-11-14T09:56:39Z</time>
      </trkpt>
      <trkpt lat="38.9603050" lon="-0.1898850">
        <ele>29.7</ele>
        <time>2020-11-14T09:56:40Z</time>
      </trkpt>
      <trkpt lat="38.9603320" lon="-0.1899620">
        <ele>29.8</ele>
        <time>2020-11-14T09:56:41Z</time>
      </trkpt>
      <trkpt lat="38.9603580" lon="-0.1900310">
        <ele>29.8</ele>
        <time>2020-11-14T09:56:42Z</time>
      </trkpt>
      <trkpt lat="38.9603690" lon="-0.1901100">
        <ele>29.9</ele>
        <time>2020-11-14T09:56:43Z</time>
      </trkpt>
      <trkpt lat="38.9604010" lon="-0.1901840">
        <ele>30.0</ele>
        <time>2020-11-14T09:56:44Z</time>
      </trkpt>
      <trkpt lat="38.9604230" lon="-0.1902530">
        <ele>30.1</ele>
        <time>2020-11-14T09:56:45Z</time>
      </trkpt>
      <trkpt lat="38.9604500" lon="-0.1903270">
        <ele>30.3</ele>
        <time>2020-11-14T09:56:46Z</time>
      </trkpt>
      <trkpt lat="38.9604720" lon="-0.1903970">
        <ele>30.4</ele>
        <time>2020-11-14T09:56:47Z</time>
      </trkpt>
      <trkpt lat="38.9605060" lon="-0.1904700">
        <ele>30.5</ele>
        <time>2020-11-14T09:56:48Z</time>
      </trkpt>
      <trkpt lat="38.9605270" lon="-0.1905350">
        <ele>30.6</ele>
        <time>2020-11-14T09:56:49Z</time>
      </trkpt>
      <trkpt lat="38.9605390" lon="-0.1905940">
        <ele>30.7</ele>
        <time>2020-11-14T09:56:50Z</time>
      </trkpt>
      <trkpt lat="38.9605390" lon="-0.1906300">
        <ele>30.8</ele>
        <time>2020-11-14T09:56:51Z</time>
      </trkpt>
      <trkpt lat="38.9605460" lon="-0.1906730">
        <ele>30.9</ele>
        <time>2020-11-14T09:56:52Z</time>
      </trkpt>
      <trkpt lat="38.9605130" lon="-0.1907150">
        <ele>30.8</ele>
        <time>2020-11-14T09:56:53Z</time>
      </trkpt>
      <trkpt lat="38.9604760" lon="-0.1907490">
        <ele>30.8</ele>
        <time>2020-11-14T09:56:54Z</time>
      </trkpt>
      <trkpt lat="38.9604330" lon="-0.1907820">
        <ele>30.7</ele>
        <time>2020-11-14T09:56:55Z</time>
      </trkpt>
      <trkpt lat="38.9603870" lon="-0.1908070">
        <ele>30.7</ele>
        <time>2020-11-14T09:56:56Z</time>
      </trkpt>
      <trkpt lat="38.9603220" lon="-0.1908260">
        <ele>30.7</ele>
        <time>2020-11-14T09:56:57Z</time>
      </trkpt>
      <trkpt lat="38.9602510" lon="-0.1908530">
        <ele>30.7</ele>
        <time>2020-11-14T09:56:58Z</time>
      </trkpt>
      <trkpt lat="38.9601860" lon="-0.1908780">
        <ele>30.7</ele>
        <time>2020-11-14T09:56:59Z</time>
      </trkpt>
      <trkpt lat="38.9601180" lon="-0.1908890">
        <ele>30.7</ele>
        <time>2020-11-14T09:57:00Z</time>
      </trkpt>
      <trkpt lat="38.9600470" lon="-0.1909090">
        <ele>30.7</ele>
        <time>2020-11-14T09:57:01Z</time>
      </trkpt>
      <trkpt lat="38.9599810" lon="-0.1909330">
        <ele>30.7</ele>
        <time>2020-11-14T09:57:02Z</time>
      </trkpt>
      <trkpt lat="38.9599160" lon="-0.1909520">
        <ele>30.7</ele>
        <time>2020-11-14T09:57:03Z</time>
      </trkpt>
      <trkpt lat="38.9598670" lon="-0.1909890">
        <ele>30.7</ele>
        <time>2020-11-14T09:57:04Z</time>
      </trkpt>
      <trkpt lat="38.9598090" lon="-0.1910300">
        <ele>30.8</ele>
        <time>2020-11-14T09:57:05Z</time>
      </trkpt>
      <trkpt lat="38.9597560" lon="-0.1910820">
        <ele>30.8</ele>
        <time>2020-11-14T09:57:06Z</time>
      </trkpt>
      <trkpt lat="38.9597620" lon="-0.1911500">
        <ele>30.9</ele>
        <time>2020-11-14T09:57:07Z</time>
      </trkpt>
      <trkpt lat="38.9597640" lon="-0.1912060">
        <ele>30.9</ele>
        <time>2020-11-14T09:57:08Z</time>
      </trkpt>
      <trkpt lat="38.9597720" lon="-0.1912680">
        <ele>30.9</ele>
        <time>2020-11-14T09:57:09Z</time>
      </trkpt>
      <trkpt lat="38.9598020" lon="-0.1913330">
        <ele>30.9</ele>
        <time>2020-11-14T09:57:10Z</time>
      </trkpt>
      <trkpt lat="38.9598220" lon="-0.1914020">
        <ele>31.0</ele>
        <time>2020-11-14T09:57:11Z</time>
      </trkpt>
      <trkpt lat="38.9598350" lon="-0.1914730">
        <ele>31.0</ele>
        <time>2020-11-14T09:57:12Z</time>
      </trkpt>
      <trkpt lat="38.9598530" lon="-0.1915510">
        <ele>31.0</ele>
        <time>2020-11-14T09:57:13Z</time>
      </trkpt>
      <trkpt lat="38.9598890" lon="-0.1916390">
        <ele>31.1</ele>
        <time>2020-11-14T09:57:14Z</time>
      </trkpt>
      <trkpt lat="38.9599130" lon="-0.1917140">
        <ele>31.2</ele>
        <time>2020-11-14T09:57:15Z</time>
      </trkpt>
      <trkpt lat="38.9599510" lon="-0.1917610">
        <ele>31.3</ele>
        <time>2020-11-14T09:57:16Z</time>
      </trkpt>
      <trkpt lat="38.9599770" lon="-0.1918380">
        <ele>31.4</ele>
        <time>2020-11-14T09:57:17Z</time>
      </trkpt>
      <trkpt lat="38.9599930" lon="-0.1919120">
        <ele>31.4</ele>
        <time>2020-11-14T09:57:18Z</time>
      </trkpt>
      <trkpt lat="38.9600030" lon="-0.1919780">
        <ele>31.5</ele>
        <time>2020-11-14T09:57:19Z</time>
      </trkpt>
      <trkpt lat="38.9600190" lon="-0.1920390">
        <ele>31.6</ele>
        <time>2020-11-14T09:57:20Z</time>
      </trkpt>
      <trkpt lat="38.9600330" lon="-0.1921100">
        <ele>31.6</ele>
        <time>2020-11-14T09:57:21Z</time>
      </trkpt>
      <trkpt lat="38.9600520" lon="-0.1921840">
        <ele>31.7</ele>
        <time>2020-11-14T09:57:22Z</time>
      </trkpt>
      <trkpt lat="38.9600710" lon="-0.1922540">
        <ele>31.7</ele>
        <time>2020-11-14T09:57:23Z</time>
      </trkpt>
      <trkpt lat="38.9600960" lon="-0.1923360">
        <ele>31.7</ele>
        <time>2020-11-14T09:57:24Z</time>
      </trkpt>
      <trkpt lat="38.9601270" lon="-0.1924030">
        <ele>31.7</ele>
        <time>2020-11-14T09:57:25Z</time>
      </trkpt>
      <trkpt lat="38.9601440" lon="-0.1924740">
        <ele>31.7</ele>
        <time>2020-11-14T09:57:26Z</time>
      </trkpt>
      <trkpt lat="38.9601590" lon="-0.1925400">
        <ele>31.7</ele>
        <time>2020-11-14T09:57:27Z</time>
      </trkpt>
      <trkpt lat="38.9601760" lon="-0.1926070">
        <ele>31.7</ele>
        <time>2020-11-14T09:57:28Z</time>
      </trkpt>
      <trkpt lat="38.9601920" lon="-0.1926830">
        <ele>31.7</ele>
        <time>2020-11-14T09:57:29Z</time>
      </trkpt>
      <trkpt lat="38.9602110" lon="-0.1927530">
        <ele>31.7</ele>
        <time>2020-11-14T09:57:30Z</time>
      </trkpt>
      <trkpt lat="38.9602140" lon="-0.1928430">
        <ele>31.6</ele>
        <time>2020-11-14T09:57:31Z</time>
      </trkpt>
      <trkpt lat="38.9602430" lon="-0.1929100">
        <ele>31.6</ele>
        <time>2020-11-14T09:57:32Z</time>
      </trkpt>
      <trkpt lat="38.9602480" lon="-0.1929750">
        <ele>31.6</ele>
        <time>2020-11-14T09:57:33Z</time>
      </trkpt>
      <trkpt lat="38.9602610" lon="-0.1930460">
        <ele>31.6</ele>
        <time>2020-11-14T09:57:34Z</time>
      </trkpt>
      <trkpt lat="38.9602750" lon="-0.1930900">
        <ele>31.6</ele>
        <time>2020-11-14T09:57:35Z</time>
      </trkpt>
      <trkpt lat="38.9603130" lon="-0.1931320">
        <ele>31.5</ele>
        <time>2020-11-14T09:57:36Z</time>
      </trkpt>
      <trkpt lat="38.9603240" lon="-0.1931680">
        <ele>31.5</ele>
        <time>2020-11-14T09:57:37Z</time>
      </trkpt>
      <trkpt lat="38.9603350" lon="-0.1932220">
        <ele>31.5</ele>
        <time>2020-11-14T09:57:38Z</time>
      </trkpt>
      <trkpt lat="38.9603480" lon="-0.1932780">
        <ele>31.5</ele>
        <time>2020-11-14T09:57:39Z</time>
      </trkpt>
      <trkpt lat="38.9603570" lon="-0.1933380">
        <ele>31.5</ele>
        <time>2020-11-14T09:57:40Z</time>
      </trkpt>
      <trkpt lat="38.9603570" lon="-0.1933930">
        <ele>31.5</ele>
        <time>2020-11-14T09:57:41Z</time>
      </trkpt>
      <trkpt lat="38.9603730" lon="-0.1934530">
        <ele>31.5</ele>
        <time>2020-11-14T09:57:42Z</time>
      </trkpt>
      <trkpt lat="38.9603840" lon="-0.1935140">
        <ele>31.5</ele>
        <time>2020-11-14T09:57:43Z</time>
      </trkpt>
      <trkpt lat="38.9604080" lon="-0.1935680">
        <ele>31.5</ele>
        <time>2020-11-14T09:57:44Z</time>
      </trkpt>
      <trkpt lat="38.9604180" lon="-0.1936280">
        <ele>31.5</ele>
        <time>2020-11-14T09:57:45Z</time>
      </trkpt>
      <trkpt lat="38.9604410" lon="-0.1936990">
        <ele>31.5</ele>
        <time>2020-11-14T09:57:46Z</time>
      </trkpt>
      <trkpt lat="38.9604570" lon="-0.1937700">
        <ele>31.5</ele>
        <time>2020-11-14T09:57:47Z</time>
      </trkpt>
      <trkpt lat="38.9604720" lon="-0.1938380">
        <ele>31.5</ele>
        <time>2020-11-14T09:57:48Z</time>
      </trkpt>
      <trkpt lat="38.9604820" lon="-0.1939090">
        <ele>31.5</ele>
        <time>2020-11-14T09:57:49Z</time>
      </trkpt>
      <trkpt lat="38.9605050" lon="-0.1939770">
        <ele>31.5</ele>
        <time>2020-11-14T09:57:50Z</time>
      </trkpt>
      <trkpt lat="38.9605440" lon="-0.1940520">
        <ele>31.5</ele>
        <time>2020-11-14T09:57:51Z</time>
      </trkpt>
      <trkpt lat="38.9605610" lon="-0.1941180">
        <ele>31.5</ele>
        <time>2020-11-14T09:57:52Z</time>
      </trkpt>
      <trkpt lat="38.9605740" lon="-0.1941900">
        <ele>31.5</ele>
        <time>2020-11-14T09:57:53Z</time>
      </trkpt>
      <trkpt lat="38.9605930" lon="-0.1942590">
        <ele>31.5</ele>
        <time>2020-11-14T09:57:54Z</time>
      </trkpt>
      <trkpt lat="38.9606110" lon="-0.1943290">
        <ele>31.5</ele>
        <time>2020-11-14T09:57:55Z</time>
      </trkpt>
      <trkpt lat="38.9606350" lon="-0.1944110">
        <ele>31.5</ele>
        <time>2020-11-14T09:57:56Z</time>
      </trkpt>
      <trkpt lat="38.9606450" lon="-0.1944900">
        <ele>31.5</ele>
        <time>2020-11-14T09:57:57Z</time>
      </trkpt>
      <trkpt lat="38.9606630" lon="-0.1945610">
        <ele>31.5</ele>
        <time>2020-11-14T09:57:58Z</time>
      </trkpt>
      <trkpt lat="38.9606780" lon="-0.1946390">
        <ele>31.5</ele>
        <time>2020-11-14T09:57:59Z</time>
      </trkpt>
      <trkpt lat="38.9606950" lon="-0.1947070">
        <ele>31.6</ele>
        <time>2020-11-14T09:58:00Z</time>
      </trkpt>
      <trkpt lat="38.9607260" lon="-0.1947710">
        <ele>31.6</ele>
        <time>2020-11-14T09:58:01Z</time>
      </trkpt>
      <trkpt lat="38.9607470" lon="-0.1948320">
        <ele>31.6</ele>
        <time>2020-11-14T09:58:02Z</time>
      </trkpt>
      <trkpt lat="38.9607590" lon="-0.1949080">
        <ele>31.7</ele>
        <time>2020-11-14T09:58:03Z</time>
      </trkpt>
      <trkpt lat="38.9607840" lon="-0.1949790">
        <ele>31.7</ele>
        <time>2020-11-14T09:58:04Z</time>
      </trkpt>
      <trkpt lat="38.9608250" lon="-0.1950520">
        <ele>31.7</ele>
        <time>2020-11-14T09:58:05Z</time>
      </trkpt>
      <trkpt lat="38.9608870" lon="-0.1950960">
        <ele>31.8</ele>
        <time>2020-11-14T09:58:06Z</time>
      </trkpt>
      <trkpt lat="38.9609440" lon="-0.1951160">
        <ele>31.8</ele>
        <time>2020-11-14T09:58:07Z</time>
      </trkpt>
      <trkpt lat="38.9609870" lon="-0.1951220">
        <ele>31.8</ele>
        <time>2020-11-14T09:58:08Z</time>
      </trkpt>
      <trkpt lat="38.9610490" lon="-0.1950990">
        <ele>31.8</ele>
        <time>2020-11-14T09:58:09Z</time>
      </trkpt>
      <trkpt lat="38.9611120" lon="-0.1950770">
        <ele>31.8</ele>
        <time>2020-11-14T09:58:10Z</time>
      </trkpt>
      <trkpt lat="38.9611760" lon="-0.1950520">
        <ele>31.8</ele>
        <time>2020-11-14T09:58:11Z</time>
      </trkpt>
      <trkpt lat="38.9612340" lon="-0.1950210">
        <ele>31.8</ele>
        <time>2020-11-14T09:58:12Z</time>
      </trkpt>
      <trkpt lat="38.9612970" lon="-0.1950040">
        <ele>31.8</ele>
        <time>2020-11-14T09:58:13Z</time>
      </trkpt>
      <trkpt lat="38.9613560" lon="-0.1949850">
        <ele>31.9</ele>
        <time>2020-11-14T09:58:14Z</time>
      </trkpt>
      <trkpt lat="38.9614180" lon="-0.1949570">
        <ele>31.9</ele>
        <time>2020-11-14T09:58:15Z</time>
      </trkpt>
      <trkpt lat="38.9614710" lon="-0.1949290">
        <ele>31.9</ele>
        <time>2020-11-14T09:58:16Z</time>
      </trkpt>
      <trkpt lat="38.9615290" lon="-0.1949080">
        <ele>31.9</ele>
        <time>2020-11-14T09:58:17Z</time>
      </trkpt>
      <trkpt lat="38.9615830" lon="-0.1948770">
        <ele>31.9</ele>
        <time>2020-11-14T09:58:18Z</time>
      </trkpt>
      <trkpt lat="38.9616360" lon="-0.1948530">
        <ele>32.0</ele>
        <time>2020-11-14T09:58:19Z</time>
      </trkpt>
      <trkpt lat="38.9616880" lon="-0.1948360">
        <ele>32.0</ele>
        <time>2020-11-14T09:58:20Z</time>
      </trkpt>
      <trkpt lat="38.9617400" lon="-0.1948140">
        <ele>32.0</ele>
        <time>2020-11-14T09:58:21Z</time>
      </trkpt>
      <trkpt lat="38.9617970" lon="-0.1947810">
        <ele>32.0</ele>
        <time>2020-11-14T09:58:22Z</time>
      </trkpt>
      <trkpt lat="38.9618570" lon="-0.1947520">
        <ele>32.0</ele>
        <time>2020-11-14T09:58:23Z</time>
      </trkpt>
      <trkpt lat="38.9619060" lon="-0.1947200">
        <ele>32.0</ele>
        <time>2020-11-14T09:58:24Z</time>
      </trkpt>
      <trkpt lat="38.9619710" lon="-0.1946960">
        <ele>32.0</ele>
        <time>2020-11-14T09:58:25Z</time>
      </trkpt>
      <trkpt lat="38.9620470" lon="-0.1946800">
        <ele>32.0</ele>
        <time>2020-11-14T09:58:26Z</time>
      </trkpt>
      <trkpt lat="38.9621020" lon="-0.1946460">
        <ele>32.0</ele>
        <time>2020-11-14T09:58:27Z</time>
      </trkpt>
      <trkpt lat="38.9621600" lon="-0.1946190">
        <ele>31.9</ele>
        <time>2020-11-14T09:58:28Z</time>
      </trkpt>
      <trkpt lat="38.9622110" lon="-0.1945920">
        <ele>31.9</ele>
        <time>2020-11-14T09:58:29Z</time>
      </trkpt>
      <trkpt lat="38.9622670" lon="-0.1945660">
        <ele>31.8</ele>
        <time>2020-11-14T09:58:30Z</time>
      </trkpt>
      <trkpt lat="38.9623250" lon="-0.1945410">
        <ele>31.8</ele>
        <time>2020-11-14T09:58:31Z</time>
      </trkpt>
      <trkpt lat="38.9623810" lon="-0.1945050">
        <ele>31.7</ele>
        <time>2020-11-14T09:58:32Z</time>
      </trkpt>
      <trkpt lat="38.9624310" lon="-0.1944680">
        <ele>31.7</ele>
        <time>2020-11-14T09:58:33Z</time>
      </trkpt>
      <trkpt lat="38.9624810" lon="-0.1944370">
        <ele>31.6</ele>
        <time>2020-11-14T09:58:34Z</time>
      </trkpt>
      <trkpt lat="38.9625210" lon="-0.1944080">
        <ele>31.6</ele>
        <time>2020-11-14T09:58:35Z</time>
      </trkpt>
      <trkpt lat="38.9625780" lon="-0.1943780">
        <ele>31.5</ele>
        <time>2020-11-14T09:58:36Z</time>
      </trkpt>
      <trkpt lat="38.9626320" lon="-0.1943460">
        <ele>31.5</ele>
        <time>2020-11-14T09:58:37Z</time>
      </trkpt>
      <trkpt lat="38.9626830" lon="-0.1943160">
        <ele>31.5</ele>
        <time>2020-11-14T09:58:38Z</time>
      </trkpt>
      <trkpt lat="38.9627390" lon="-0.1942920">
        <ele>31.4</ele>
        <time>2020-11-14T09:58:39Z</time>
      </trkpt>
      <trkpt lat="38.9627880" lon="-0.1942700">
        <ele>31.4</ele>
        <time>2020-11-14T09:58:40Z</time>
      </trkpt>
      <trkpt lat="38.9628310" lon="-0.1942460">
        <ele>31.4</ele>
        <time>2020-11-14T09:58:41Z</time>
      </trkpt>
      <trkpt lat="38.9628610" lon="-0.1942300">
        <ele>31.4</ele>
        <time>2020-11-14T09:58:42Z</time>
      </trkpt>
      <trkpt lat="38.9629070" lon="-0.1942360">
        <ele>31.4</ele>
        <time>2020-11-14T09:58:43Z</time>
      </trkpt>
      <trkpt lat="38.9629320" lon="-0.1942500">
        <ele>31.4</ele>
        <time>2020-11-14T09:58:44Z</time>
      </trkpt>
      <trkpt lat="38.9629540" lon="-0.1942810">
        <ele>31.4</ele>
        <time>2020-11-14T09:58:45Z</time>
      </trkpt>
      <trkpt lat="38.9629810" lon="-0.1943280">
        <ele>31.4</ele>
        <time>2020-11-14T09:58:46Z</time>
      </trkpt>
      <trkpt lat="38.9630100" lon="-0.1943730">
        <ele>31.4</ele>
        <time>2020-11-14T09:58:47Z</time>
      </trkpt>
      <trkpt lat="38.9630370" lon="-0.1944220">
        <ele>31.4</ele>
        <time>2020-11-14T09:58:48Z</time>
      </trkpt>
      <trkpt lat="38.9630580" lon="-0.1944670">
        <ele>31.4</ele>
        <time>2020-11-14T09:58:49Z</time>
      </trkpt>
      <trkpt lat="38.9630870" lon="-0.1945040">
        <ele>31.4</ele>
        <time>2020-11-14T09:58:50Z</time>
      </trkpt>
      <trkpt lat="38.9631170" lon="-0.1945370">
        <ele>31.4</ele>
        <time>2020-11-14T09:58:51Z</time>
      </trkpt>
      <trkpt lat="38.9631460" lon="-0.1945640">
        <ele>31.4</ele>
        <time>2020-11-14T09:58:52Z</time>
      </trkpt>
      <trkpt lat="38.9631760" lon="-0.1945830">
        <ele>31.4</ele>
        <time>2020-11-14T09:58:53Z</time>
      </trkpt>
      <trkpt lat="38.9632060" lon="-0.1945890">
        <ele>31.4</ele>
        <time>2020-11-14T09:58:54Z</time>
      </trkpt>
      <trkpt lat="38.9632400" lon="-0.1945880">
        <ele>31.4</ele>
        <time>2020-11-14T09:58:55Z</time>
      </trkpt>
      <trkpt lat="38.9632610" lon="-0.1945480">
        <ele>31.4</ele>
        <time>2020-11-14T09:58:56Z</time>
      </trkpt>
      <trkpt lat="38.9632900" lon="-0.1945180">
        <ele>31.4</ele>
        <time>2020-11-14T09:58:57Z</time>
      </trkpt>
      <trkpt lat="38.9633210" lon="-0.1944930">
        <ele>31.3</ele>
        <time>2020-11-14T09:58:58Z</time>
      </trkpt>
      <trkpt lat="38.9633520" lon="-0.1944650">
        <ele>31.3</ele>
        <time>2020-11-14T09:58:59Z</time>
      </trkpt>
      <trkpt lat="38.9633870" lon="-0.1944330">
        <ele>31.3</ele>
        <time>2020-11-14T09:59:00Z</time>
      </trkpt>
      <trkpt lat="38.9634270" lon="-0.1943900">
        <ele>31.3</ele>
        <time>2020-11-14T09:59:01Z</time>
      </trkpt>
      <trkpt lat="38.9634610" lon="-0.1943470">
        <ele>31.3</ele>
        <time>2020-11-14T09:59:02Z</time>
      </trkpt>
      <trkpt lat="38.9635000" lon="-0.1943110">
        <ele>31.3</ele>
        <time>2020-11-14T09:59:03Z</time>
      </trkpt>
      <trkpt lat="38.9635470" lon="-0.1942740">
        <ele>31.3</ele>
        <time>2020-11-14T09:59:04Z</time>
      </trkpt>
      <trkpt lat="38.9635880" lon="-0.1942290">
        <ele>31.3</ele>
        <time>2020-11-14T09:59:05Z</time>
      </trkpt>
      <trkpt lat="38.9636340" lon="-0.1941950">
        <ele>31.3</ele>
        <time>2020-11-14T09:59:06Z</time>
      </trkpt>
      <trkpt lat="38.9636730" lon="-0.1941500">
        <ele>31.3</ele>
        <time>2020-11-14T09:59:07Z</time>
      </trkpt>
      <trkpt lat="38.9636890" lon="-0.1940860">
        <ele>31.3</ele>
        <time>2020-11-14T09:59:08Z</time>
      </trkpt>
      <trkpt lat="38.9636920" lon="-0.1940260">
        <ele>31.3</ele>
        <time>2020-11-14T09:59:09Z</time>
      </trkpt>
      <trkpt lat="38.9636950" lon="-0.1939680">
        <ele>31.2</ele>
        <time>2020-11-14T09:59:10Z</time>
      </trkpt>
      <trkpt lat="38.9636220" lon="-0.1938900">
        <ele>31.2</ele>
        <time>2020-11-14T09:59:11Z</time>
      </trkpt>
      <trkpt lat="38.9635970" lon="-0.1938260">
        <ele>31.2</ele>
        <time>2020-11-14T09:59:12Z</time>
      </trkpt>
      <trkpt lat="38.9635830" lon="-0.1937540">
        <ele>31.2</ele>
        <time>2020-11-14T09:59:13Z</time>
      </trkpt>
      <trkpt lat="38.9635610" lon="-0.1936810">
        <ele>31.1</ele>
        <time>2020-11-14T09:59:14Z</time>
      </trkpt>
      <trkpt lat="38.9635390" lon="-0.1936000">
        <ele>31.1</ele>
        <time>2020-11-14T09:59:15Z</time>
      </trkpt>
      <trkpt lat="38.9635190" lon="-0.1935120">
        <ele>31.1</ele>
        <time>2020-11-14T09:59:16Z</time>
      </trkpt>
      <trkpt lat="38.9635030" lon="-0.1934280">
        <ele>31.0</ele>
        <time>2020-11-14T09:59:17Z</time>
      </trkpt>
      <trkpt lat="38.9634900" lon="-0.1933570">
        <ele>31.0</ele>
        <time>2020-11-14T09:59:18Z</time>
      </trkpt>
      <trkpt lat="38.9634740" lon="-0.1932850">
        <ele>30.9</ele>
        <time>2020-11-14T09:59:19Z</time>
      </trkpt>
      <trkpt lat="38.9634460" lon="-0.1932030">
        <ele>30.9</ele>
        <time>2020-11-14T09:59:20Z</time>
      </trkpt>
      <trkpt lat="38.9634260" lon="-0.1931190">
        <ele>30.8</ele>
        <time>2020-11-14T09:59:21Z</time>
      </trkpt>
      <trkpt lat="38.9633990" lon="-0.1930250">
        <ele>30.7</ele>
        <time>2020-11-14T09:59:22Z</time>
      </trkpt>
      <trkpt lat="38.9633820" lon="-0.1929460">
        <ele>30.6</ele>
        <time>2020-11-14T09:59:23Z</time>
      </trkpt>
      <trkpt lat="38.9633690" lon="-0.1928720">
        <ele>30.6</ele>
        <time>2020-11-14T09:59:24Z</time>
      </trkpt>
      <trkpt lat="38.9633490" lon="-0.1927930">
        <ele>30.5</ele>
        <time>2020-11-14T09:59:25Z</time>
      </trkpt>
      <trkpt lat="38.9633290" lon="-0.1927090">
        <ele>30.4</ele>
        <time>2020-11-14T09:59:26Z</time>
      </trkpt>
      <trkpt lat="38.9633090" lon="-0.1926230">
        <ele>30.3</ele>
        <time>2020-11-14T09:59:27Z</time>
      </trkpt>
      <trkpt lat="38.9632790" lon="-0.1925260">
        <ele>30.1</ele>
        <time>2020-11-14T09:59:28Z</time>
      </trkpt>
      <trkpt lat="38.9632560" lon="-0.1924430">
        <ele>30.0</ele>
        <time>2020-11-14T09:59:29Z</time>
      </trkpt>
      <trkpt lat="38.9632360" lon="-0.1923650">
        <ele>29.9</ele>
        <time>2020-11-14T09:59:30Z</time>
      </trkpt>
      <trkpt lat="38.9632170" lon="-0.1922780">
        <ele>29.7</ele>
        <time>2020-11-14T09:59:31Z</time>
      </trkpt>
      <trkpt lat="38.9631980" lon="-0.1922050">
        <ele>29.6</ele>
        <time>2020-11-14T09:59:32Z</time>
      </trkpt>
      <trkpt lat="38.9631780" lon="-0.1921240">
        <ele>29.6</ele>
        <time>2020-11-14T09:59:33Z</time>
      </trkpt>
      <trkpt lat="38.9631540" lon="-0.1920580">
        <ele>29.5</ele>
        <time>2020-11-14T09:59:34Z</time>
      </trkpt>
      <trkpt lat="38.9631400" lon="-0.1919920">
        <ele>29.5</ele>
        <time>2020-11-14T09:59:35Z</time>
      </trkpt>
      <trkpt lat="38.9631280" lon="-0.1919140">
        <ele>29.5</ele>
        <time>2020-11-14T09:59:36Z</time>
      </trkpt>
      <trkpt lat="38.9631250" lon="-0.1918470">
        <ele>29.4</ele>
        <time>2020-11-14T09:59:37Z</time>
      </trkpt>
      <trkpt lat="38.9631360" lon="-0.1917730">
        <ele>29.4</ele>
        <time>2020-11-14T09:59:38Z</time>
      </trkpt>
      <trkpt lat="38.9631730" lon="-0.1917450">
        <ele>29.4</ele>
        <time>2020-11-14T09:59:39Z</time>
      </trkpt>
      <trkpt lat="38.9632050" lon="-0.1917430">
        <ele>29.4</ele>
        <time>2020-11-14T09:59:40Z</time>
      </trkpt>
      <trkpt lat="38.9632390" lon="-0.1917520">
        <ele>29.4</ele>
        <time>2020-11-14T09:59:41Z</time>
      </trkpt>
      <trkpt lat="38.9632800" lon="-0.1917950">
        <ele>29.4</ele>
        <time>2020-11-14T09:59:42Z</time>
      </trkpt>
      <trkpt lat="38.9633200" lon="-0.1918390">
        <ele>29.3</ele>
        <time>2020-11-14T09:59:43Z</time>
      </trkpt>
      <trkpt lat="38.9633720" lon="-0.1918640">
        <ele>29.2</ele>
        <time>2020-11-14T09:59:44Z</time>
      </trkpt>
      <trkpt lat="38.9634250" lon="-0.1918900">
        <ele>29.1</ele>
        <time>2020-11-14T09:59:45Z</time>
      </trkpt>
      <trkpt lat="38.9634800" lon="-0.1919110">
        <ele>29.0</ele>
        <time>2020-11-14T09:59:46Z</time>
      </trkpt>
      <trkpt lat="38.9635360" lon="-0.1919520">
        <ele>28.9</ele>
        <time>2020-11-14T09:59:47Z</time>
      </trkpt>
      <trkpt lat="38.9635920" lon="-0.1919770">
        <ele>28.8</ele>
        <time>2020-11-14T09:59:48Z</time>
      </trkpt>
      <trkpt lat="38.9636470" lon="-0.1920070">
        <ele>28.7</ele>
        <time>2020-11-14T09:59:49Z</time>
      </trkpt>
      <trkpt lat="38.9636940" lon="-0.1920250">
        <ele>28.6</ele>
        <time>2020-11-14T09:59:50Z</time>
      </trkpt>
      <trkpt lat="38.9637530" lon="-0.1920510">
        <ele>28.5</ele>
        <time>2020-11-14T09:59:51Z</time>
      </trkpt>
      <trkpt lat="38.9638160" lon="-0.1920790">
        <ele>28.5</ele>
        <time>2020-11-14T09:59:52Z</time>
      </trkpt>
      <trkpt lat="38.9638640" lon="-0.1921110">
        <ele>28.4</ele>
        <time>2020-11-14T09:59:53Z</time>
      </trkpt>
      <trkpt lat="38.9639140" lon="-0.1921510">
        <ele>28.4</ele>
        <time>2020-11-14T09:59:54Z</time>
      </trkpt>
      <trkpt lat="38.9639660" lon="-0.1921910">
        <ele>28.3</ele>
        <time>2020-11-14T09:59:55Z</time>
      </trkpt>
      <trkpt lat="38.9640140" lon="-0.1922240">
        <ele>28.3</ele>
        <time>2020-11-14T09:59:56Z</time>
      </trkpt>
      <trkpt lat="38.9640680" lon="-0.1922610">
        <ele>28.2</ele>
        <time>2020-11-14T09:59:57Z</time>
      </trkpt>
      <trkpt lat="38.9641210" lon="-0.1922900">
        <ele>28.1</ele>
        <time>2020-11-14T09:59:58Z</time>
      </trkpt>
      <trkpt lat="38.9641700" lon="-0.1923140">
        <ele>28.0</ele>
        <time>2020-11-14T09:59:59Z</time>
      </trkpt>
      <trkpt lat="38.9642180" lon="-0.1923100">
        <ele>27.9</ele>
        <time>2020-11-14T10:00:00Z</time>
      </trkpt>
      <trkpt lat="38.9642720" lon="-0.1922840">
        <ele>27.7</ele>
        <time>2020-11-14T10:00:01Z</time>
      </trkpt>
      <trkpt lat="38.9643130" lon="-0.1922510">
        <ele>27.6</ele>
        <time>2020-11-14T10:00:02Z</time>
      </trkpt>
      <trkpt lat="38.9643400" lon="-0.1921880">
        <ele>27.6</ele>
        <time>2020-11-14T10:00:03Z</time>
      </trkpt>
      <trkpt lat="38.9643370" lon="-0.1921190">
        <ele>27.6</ele>
        <time>2020-11-14T10:00:04Z</time>
      </trkpt>
      <trkpt lat="38.9643310" lon="-0.1920530">
        <ele>27.6</ele>
        <time>2020-11-14T10:00:05Z</time>
      </trkpt>
      <trkpt lat="38.9643260" lon="-0.1919620">
        <ele>27.5</ele>
        <time>2020-11-14T10:00:06Z</time>
      </trkpt>
      <trkpt lat="38.9643200" lon="-0.1918900">
        <ele>27.5</ele>
        <time>2020-11-14T10:00:07Z</time>
      </trkpt>
      <trkpt lat="38.9643130" lon="-0.1918170">
        <ele>27.5</ele>
        <time>2020-11-14T10:00:08Z</time>
      </trkpt>
      <trkpt lat="38.9642950" lon="-0.1917340">
        <ele>27.5</ele>
        <time>2020-11-14T10:00:09Z</time>
      </trkpt>
      <trkpt lat="38.9642760" lon="-0.1916360">
        <ele>27.4</ele>
        <time>2020-11-14T10:00:10Z</time>
      </trkpt>
      <trkpt lat="38.9642650" lon="-0.1915580">
        <ele>27.4</ele>
        <time>2020-11-14T10:00:11Z</time>
      </trkpt>
      <trkpt lat="38.9642490" lon="-0.1914850">
        <ele>27.4</ele>
        <time>2020-11-14T10:00:12Z</time>
      </trkpt>
      <trkpt lat="38.9642350" lon="-0.1913970">
        <ele>27.4</ele>
        <time>2020-11-14T10:00:13Z</time>
      </trkpt>
      <trkpt lat="38.9642200" lon="-0.1913130">
        <ele>27.3</ele>
        <time>2020-11-14T10:00:14Z</time>
      </trkpt>
      <trkpt lat="38.9642000" lon="-0.1912280">
        <ele>27.3</ele>
        <time>2020-11-14T10:00:15Z</time>
      </trkpt>
      <trkpt lat="38.9641820" lon="-0.1911420">
        <ele>27.3</ele>
        <time>2020-11-14T10:00:16Z</time>
      </trkpt>
      <trkpt lat="38.9641700" lon="-0.1910650">
        <ele>27.2</ele>
        <time>2020-11-14T10:00:17Z</time>
      </trkpt>
      <trkpt lat="38.9641600" lon="-0.1909900">
        <ele>27.2</ele>
        <time>2020-11-14T10:00:18Z</time>
      </trkpt>
      <trkpt lat="38.9641510" lon="-0.1909000">
        <ele>27.1</ele>
        <time>2020-11-14T10:00:19Z</time>
      </trkpt>
      <trkpt lat="38.9641410" lon="-0.1908200">
        <ele>27.0</ele>
        <time>2020-11-14T10:00:20Z</time>
      </trkpt>
      <trkpt lat="38.9641250" lon="-0.1907380">
        <ele>27.0</ele>
        <time>2020-11-14T10:00:21Z</time>
      </trkpt>
      <trkpt lat="38.9641070" lon="-0.1906520">
        <ele>26.9</ele>
        <time>2020-11-14T10:00:22Z</time>
      </trkpt>
      <trkpt lat="38.9640900" lon="-0.1905590">
        <ele>26.9</ele>
        <time>2020-11-14T10:00:23Z</time>
      </trkpt>
      <trkpt lat="38.9640780" lon="-0.1904730">
        <ele>26.8</ele>
        <time>2020-11-14T10:00:24Z</time>
      </trkpt>
      <trkpt lat="38.9640610" lon="-0.1903850">
        <ele>26.8</ele>
        <time>2020-11-14T10:00:25Z</time>
      </trkpt>
      <trkpt lat="38.9640410" lon="-0.1902990">
        <ele>26.8</ele>
        <time>2020-11-14T10:00:26Z</time>
      </trkpt>
      <trkpt lat="38.9640260" lon="-0.1902200">
        <ele>26.8</ele>
        <time>2020-11-14T10:00:27Z</time>
      </trkpt>
      <trkpt lat="38.9640160" lon="-0.1901390">
        <ele>26.7</ele>
        <time>2020-11-14T10:00:28Z</time>
      </trkpt>
      <trkpt lat="38.9640130" lon="-0.1900620">
        <ele>26.7</ele>
        <time>2020-11-14T10:00:29Z</time>
      </trkpt>
      <trkpt lat="38.9639950" lon="-0.1899780">
        <ele>26.7</ele>
        <time>2020-11-14T10:00:30Z</time>
      </trkpt>
      <trkpt lat="38.9639850" lon="-0.1898900">
        <ele>26.6</ele>
        <time>2020-11-14T10:00:31Z</time>
      </trkpt>
      <trkpt lat="38.9639760" lon="-0.1898080">
        <ele>26.6</ele>
        <time>2020-11-14T10:00:32Z</time>
      </trkpt>
      <trkpt lat="38.9639650" lon="-0.1897310">
        <ele>26.6</ele>
        <time>2020-11-14T10:00:33Z</time>
      </trkpt>
      <trkpt lat="38.9639530" lon="-0.1896510">
        <ele>26.5</ele>
        <time>2020-11-14T10:00:34Z</time>
      </trkpt>
      <trkpt lat="38.9639370" lon="-0.1895680">
        <ele>26.5</ele>
        <time>2020-11-14T10:00:35Z</time>
      </trkpt>
      <trkpt lat="38.9639240" lon="-0.1894880">
        <ele>26.5</ele>
        <time>2020-11-14T10:00:36Z</time>
      </trkpt>
      <trkpt lat="38.9639070" lon="-0.1894190">
        <ele>26.5</ele>
        <time>2020-11-14T10:00:37Z</time>
      </trkpt>
      <trkpt lat="38.9639020" lon="-0.1893520">
        <ele>26.5</ele>
        <time>2020-11-14T10:00:38Z</time>
      </trkpt>
      <trkpt lat="38.9638910" lon="-0.1892910">
        <ele>26.5</ele>
        <time>2020-11-14T10:00:39Z</time>
      </trkpt>
      <trkpt lat="38.9638760" lon="-0.1892350">
        <ele>26.5</ele>
        <time>2020-11-14T10:00:40Z</time>
      </trkpt>
      <trkpt lat="38.9638610" lon="-0.1891710">
        <ele>26.5</ele>
        <time>2020-11-14T10:00:41Z</time>
      </trkpt>
      <trkpt lat="38.9638420" lon="-0.1891230">
        <ele>26.5</ele>
        <time>2020-11-14T10:00:42Z</time>
      </trkpt>
      <trkpt lat="38.9638080" lon="-0.1890800">
        <ele>26.6</ele>
        <time>2020-11-14T10:00:43Z</time>
      </trkpt>
      <trkpt lat="38.9637570" lon="-0.1890550">
        <ele>26.6</ele>
        <time>2020-11-14T10:00:44Z</time>
      </trkpt>
      <trkpt lat="38.9637000" lon="-0.1890530">
        <ele>26.6</ele>
        <time>2020-11-14T10:00:45Z</time>
      </trkpt>
      <trkpt lat="38.9636310" lon="-0.1890530">
        <ele>26.6</ele>
        <time>2020-11-14T10:00:46Z</time>
      </trkpt>
      <trkpt lat="38.9635580" lon="-0.1890560">
        <ele>26.6</ele>
        <time>2020-11-14T10:00:47Z</time>
      </trkpt>
      <trkpt lat="38.9634860" lon="-0.1890650">
        <ele>26.6</ele>
        <time>2020-11-14T10:00:48Z</time>
      </trkpt>
      <trkpt lat="38.9634170" lon="-0.1890710">
        <ele>26.6</ele>
        <time>2020-11-14T10:00:49Z</time>
      </trkpt>
      <trkpt lat="38.9633530" lon="-0.1890860">
        <ele>26.6</ele>
        <time>2020-11-14T10:00:50Z</time>
      </trkpt>
      <trkpt lat="38.9632840" lon="-0.1891030">
        <ele>26.6</ele>
        <time>2020-11-14T10:00:51Z</time>
      </trkpt>
      <trkpt lat="38.9632150" lon="-0.1891160">
        <ele>26.6</ele>
        <time>2020-11-14T10:00:52Z</time>
      </trkpt>
      <trkpt lat="38.9631540" lon="-0.1891280">
        <ele>26.7</ele>
        <time>2020-11-14T10:00:53Z</time>
      </trkpt>
      <trkpt lat="38.9630920" lon="-0.1891390">
        <ele>26.7</ele>
        <time>2020-11-14T10:00:54Z</time>
      </trkpt>
      <trkpt lat="38.9630290" lon="-0.1891370">
        <ele>26.7</ele>
        <time>2020-11-14T10:00:55Z</time>
      </trkpt>
      <trkpt lat="38.9629540" lon="-0.1891540">
        <ele>26.7</ele>
        <time>2020-11-14T10:00:56Z</time>
      </trkpt>
      <trkpt lat="38.9628900" lon="-0.1891620">
        <ele>26.7</ele>
        <time>2020-11-14T10:00:57Z</time>
      </trkpt>
      <trkpt lat="38.9628340" lon="-0.1891680">
        <ele>26.8</ele>
        <time>2020-11-14T10:00:58Z</time>
      </trkpt>
      <trkpt lat="38.9627680" lon="-0.1891710">
        <ele>26.8</ele>
        <time>2020-11-14T10:00:59Z</time>
      </trkpt>
      <trkpt lat="38.9627050" lon="-0.1891760">
        <ele>26.9</ele>
        <time>2020-11-14T10:01:00Z</time>
      </trkpt>
      <trkpt lat="38.9626340" lon="-0.1891850">
        <ele>26.9</ele>
        <time>2020-11-14T10:01:01Z</time>
      </trkpt>
      <trkpt lat="38.9625690" lon="-0.1891880">
        <ele>26.9</ele>
        <time>2020-11-14T10:01:02Z</time>
      </trkpt>
      <trkpt lat="38.9625050" lon="-0.1891930">
        <ele>27.0</ele>
        <time>2020-11-14T10:01:03Z</time>
      </trkpt>
      <trkpt lat="38.9624470" lon="-0.1891910">
        <ele>27.0</ele>
        <time>2020-11-14T10:01:04Z</time>
      </trkpt>
      <trkpt lat="38.9623810" lon="-0.1892080">
        <ele>27.1</ele>
        <time>2020-11-14T10:01:05Z</time>
      </trkpt>
      <trkpt lat="38.9623170" lon="-0.1892250">
        <ele>27.1</ele>
        <time>2020-11-14T10:01:06Z</time>
      </trkpt>
      <trkpt lat="38.9622460" lon="-0.1892270">
        <ele>27.1</ele>
        <time>2020-11-14T10:01:07Z</time>
      </trkpt>
      <trkpt lat="38.9621880" lon="-0.1892420">
        <ele>27.2</ele>
        <time>2020-11-14T10:01:08Z</time>
      </trkpt>
      <trkpt lat="38.9621240" lon="-0.1892480">
        <ele>27.2</ele>
        <time>2020-11-14T10:01:09Z</time>
      </trkpt>
      <trkpt lat="38.9620610" lon="-0.1892660">
        <ele>27.2</ele>
        <time>2020-11-14T10:01:10Z</time>
      </trkpt>
      <trkpt lat="38.9619990" lon="-0.1892810">
        <ele>27.2</ele>
        <time>2020-11-14T10:01:11Z</time>
      </trkpt>
      <trkpt lat="38.9619410" lon="-0.1892990">
        <ele>27.2</ele>
        <time>2020-11-14T10:01:12Z</time>
      </trkpt>
      <trkpt lat="38.9618770" lon="-0.1893150">
        <ele>27.2</ele>
        <time>2020-11-14T10:01:13Z</time>
      </trkpt>
      <trkpt lat="38.9618220" lon="-0.1893190">
        <ele>27.2</ele>
        <time>2020-11-14T10:01:14Z</time>
      </trkpt>
      <trkpt lat="38.9617610" lon="-0.1893500">
        <ele>27.2</ele>
        <time>2020-11-14T10:01:15Z</time>
      </trkpt>
      <trkpt lat="38.9617060" lon="-0.1893830">
        <ele>27.1</ele>
        <time>2020-11-14T10:01:16Z</time>
      </trkpt>
      <trkpt lat="38.9616470" lon="-0.1894210">
        <ele>27.2</ele>
        <time>2020-11-14T10:01:17Z</time>
      </trkpt>
      <trkpt lat="38.9615830" lon="-0.1894370">
        <ele>27.3</ele>
        <time>2020-11-14T10:01:18Z</time>
      </trkpt>
      <trkpt lat="38.9615240" lon="-0.1894310">
        <ele>27.4</ele>
        <time>2020-11-14T10:01:19Z</time>
      </trkpt>
      <trkpt lat="38.9614610" lon="-0.1894140">
        <ele>27.5</ele>
        <time>2020-11-14T10:01:20Z</time>
      </trkpt>
      <trkpt lat="38.9614010" lon="-0.1893920">
        <ele>27.6</ele>
        <time>2020-11-14T10:01:21Z</time>
      </trkpt>
      <trkpt lat="38.9613360" lon="-0.1893810">
        <ele>27.8</ele>
        <time>2020-11-14T10:01:22Z</time>
      </trkpt>
      <trkpt lat="38.9612710" lon="-0.1893740">
        <ele>27.9</ele>
        <time>2020-11-14T10:01:23Z</time>
      </trkpt>
      <trkpt lat="38.9612060" lon="-0.1893790">
        <ele>28.0</ele>
        <time>2020-11-14T10:01:24Z</time>
      </trkpt>
      <trkpt lat="38.9611450" lon="-0.1893820">
        <ele>28.1</ele>
        <time>2020-11-14T10:01:25Z</time>
      </trkpt>
      <trkpt lat="38.9610780" lon="-0.1893770">
        <ele>28.2</ele>
        <time>2020-11-14T10:01:26Z</time>
      </trkpt>
      <trkpt lat="38.9610140" lon="-0.1893790">
        <ele>28.2</ele>
        <time>2020-11-14T10:01:27Z</time>
      </trkpt>
      <trkpt lat="38.9609480" lon="-0.1893810">
        <ele>28.3</ele>
        <time>2020-11-14T10:01:28Z</time>
      </trkpt>
      <trkpt lat="38.9608830" lon="-0.1893880">
        <ele>28.4</ele>
        <time>2020-11-14T10:01:29Z</time>
      </trkpt>
      <trkpt lat="38.9608200" lon="-0.1893970">
        <ele>28.4</ele>
        <time>2020-11-14T10:01:30Z</time>
      </trkpt>
      <trkpt lat="38.9607590" lon="-0.1894090">
        <ele>28.5</ele>
        <time>2020-11-14T10:01:31Z</time>
      </trkpt>
      <trkpt lat="38.9606950" lon="-0.1894060">
        <ele>28.6</ele>
        <time>2020-11-14T10:01:32Z</time>
      </trkpt>
      <trkpt lat="38.9606300" lon="-0.1894140">
        <ele>28.7</ele>
        <time>2020-11-14T10:01:33Z</time>
      </trkpt>
      <trkpt lat="38.9605690" lon="-0.1894230">
        <ele>28.7</ele>
        <time>2020-11-14T10:01:34Z</time>
      </trkpt>
      <trkpt lat="38.9605080" lon="-0.1894350">
        <ele>28.8</ele>
        <time>2020-11-14T10:01:35Z</time>
      </trkpt>
      <trkpt lat="38.9604430" lon="-0.1894520">
        <ele>28.9</ele>
        <time>2020-11-14T10:01:36Z</time>
      </trkpt>
      <trkpt lat="38.9603850" lon="-0.1894650">
        <ele>28.9</ele>
        <time>2020-11-14T10:01:37Z</time>
      </trkpt>
      <trkpt lat="38.9603300" lon="-0.1895010">
        <ele>29.0</ele>
        <time>2020-11-14T10:01:38Z</time>
      </trkpt>
      <trkpt lat="38.9602750" lon="-0.1895300">
        <ele>29.1</ele>
        <time>2020-11-14T10:01:39Z</time>
      </trkpt>
      <trkpt lat="38.9602230" lon="-0.1895630">
        <ele>29.2</ele>
        <time>2020-11-14T10:01:40Z</time>
      </trkpt>
      <trkpt lat="38.9601670" lon="-0.1895560">
        <ele>29.2</ele>
        <time>2020-11-14T10:01:41Z</time>
      </trkpt>
      <trkpt lat="38.9601070" lon="-0.1895620">
        <ele>29.3</ele>
        <time>2020-11-14T10:01:42Z</time>
      </trkpt>
      <trkpt lat="38.9600570" lon="-0.1895260">
        <ele>29.3</ele>
        <time>2020-11-14T10:01:43Z</time>
      </trkpt>
      <trkpt lat="38.9600290" lon="-0.1894600">
        <ele>29.3</ele>
        <time>2020-11-14T10:01:44Z</time>
      </trkpt>
      <trkpt lat="38.9600210" lon="-0.1893960">
        <ele>29.3</ele>
        <time>2020-11-14T10:01:45Z</time>
      </trkpt>
      <trkpt lat="38.9600230" lon="-0.1893350">
        <ele>29.3</ele>
        <time>2020-11-14T10:01:46Z</time>
      </trkpt>
      <trkpt lat="38.9600200" lon="-0.1892630">
        <ele>29.3</ele>
        <time>2020-11-14T10:01:47Z</time>
      </trkpt>
      <trkpt lat="38.9600100" lon="-0.1891940">
        <ele>29.3</ele>
        <time>2020-11-14T10:01:48Z</time>
      </trkpt>
      <trkpt lat="38.9599800" lon="-0.1891150">
        <ele>29.3</ele>
        <time>2020-11-14T10:01:49Z</time>
      </trkpt>
      <trkpt lat="38.9599570" lon="-0.1890380">
        <ele>29.3</ele>
        <time>2020-11-14T10:01:50Z</time>
      </trkpt>
      <trkpt lat="38.9599390" lon="-0.1889660">
        <ele>29.2</ele>
        <time>2020-11-14T10:01:51Z</time>
      </trkpt>
      <trkpt lat="38.9599210" lon="-0.1888900">
        <ele>29.2</ele>
        <time>2020-11-14T10:01:52Z</time>
      </trkpt>
      <trkpt lat="38.9598990" lon="-0.1888120">
        <ele>29.2</ele>
        <time>2020-11-14T10:01:53Z</time>
      </trkpt>
      <trkpt lat="38.9598780" lon="-0.1887360">
        <ele>29.2</ele>
        <time>2020-11-14T10:01:54Z</time>
      </trkpt>
      <trkpt lat="38.9598580" lon="-0.1886550">
        <ele>29.2</ele>
        <time>2020-11-14T10:01:55Z</time>
      </trkpt>
      <trkpt lat="38.9598300" lon="-0.1885830">
        <ele>29.2</ele>
        <time>2020-11-14T10:01:56Z</time>
      </trkpt>
      <trkpt lat="38.9598030" lon="-0.1885040">
        <ele>29.1</ele>
        <time>2020-11-14T10:01:57Z</time>
      </trkpt>
      <trkpt lat="38.9597790" lon="-0.1884240">
        <ele>29.1</ele>
        <time>2020-11-14T10:01:58Z</time>
      </trkpt>
      <trkpt lat="38.9597650" lon="-0.1883510">
        <ele>29.1</ele>
        <time>2020-11-14T10:01:59Z</time>
      </trkpt>
      <trkpt lat="38.9597440" lon="-0.1882810">
        <ele>29.1</ele>
        <time>2020-11-14T10:02:00Z</time>
      </trkpt>
      <trkpt lat="38.9597170" lon="-0.1882090">
        <ele>29.1</ele>
        <time>2020-11-14T10:02:01Z</time>
      </trkpt>
      <trkpt lat="38.9596840" lon="-0.1881130">
        <ele>29.2</ele>
        <time>2020-11-14T10:02:02Z</time>
      </trkpt>
      <trkpt lat="38.9596450" lon="-0.1880340">
        <ele>29.2</ele>
        <time>2020-11-14T10:02:03Z</time>
      </trkpt>
      <trkpt lat="38.9596130" lon="-0.1879790">
        <ele>29.2</ele>
        <time>2020-11-14T10:02:04Z</time>
      </trkpt>
      <trkpt lat="38.9595250" lon="-0.1880190">
        <ele>29.3</ele>
        <time>2020-11-14T10:02:05Z</time>
      </trkpt>
      <trkpt lat="38.9594590" lon="-0.1880330">
        <ele>29.4</ele>
        <time>2020-11-14T10:02:06Z</time>
      </trkpt>
      <trkpt lat="38.9594030" lon="-0.1880470">
        <ele>29.4</ele>
        <time>2020-11-14T10:02:07Z</time>
      </trkpt>
      <trkpt lat="38.9593340" lon="-0.1881170">
        <ele>29.5</ele>
        <time>2020-11-14T10:02:08Z</time>
      </trkpt>
      <trkpt lat="38.9592840" lon="-0.1881640">
        <ele>29.5</ele>
        <time>2020-11-14T10:02:09Z</time>
      </trkpt>
      <trkpt lat="38.9592280" lon="-0.1882190">
        <ele>29.6</ele>
        <time>2020-11-14T10:02:10Z</time>
      </trkpt>
      <trkpt lat="38.9591660" lon="-0.1882750">
        <ele>29.6</ele>
        <time>2020-11-14T10:02:11Z</time>
      </trkpt>
      <trkpt lat="38.9591150" lon="-0.1883200">
        <ele>29.7</ele>
        <time>2020-11-14T10:02:12Z</time>
      </trkpt>
      <trkpt lat="38.9590570" lon="-0.1883620">
        <ele>29.7</ele>
        <time>2020-11-14T10:02:13Z</time>
      </trkpt>
      <trkpt lat="38.9590050" lon="-0.1884060">
        <ele>29.8</ele>
        <time>2020-11-14T10:02:14Z</time>
      </trkpt>
      <trkpt lat="38.9589440" lon="-0.1884600">
        <ele>29.8</ele>
        <time>2020-11-14T10:02:15Z</time>
      </trkpt>
      <trkpt lat="38.9588850" lon="-0.1885030">
        <ele>29.9</ele>
        <time>2020-11-14T10:02:16Z</time>
      </trkpt>
      <trkpt lat="38.9588360" lon="-0.1885440">
        <ele>30.0</ele>
        <time>2020-11-14T10:02:17Z</time>
      </trkpt>
      <trkpt lat="38.9587810" lon="-0.1885810">
        <ele>30.1</ele>
        <time>2020-11-14T10:02:18Z</time>
      </trkpt>
      <trkpt lat="38.9587320" lon="-0.1886280">
        <ele>30.2</ele>
        <time>2020-11-14T10:02:19Z</time>
      </trkpt>
      <trkpt lat="38.9586800" lon="-0.1886750">
        <ele>30.3</ele>
        <time>2020-11-14T10:02:20Z</time>
      </trkpt>
      <trkpt lat="38.9586310" lon="-0.1887190">
        <ele>30.4</ele>
        <time>2020-11-14T10:02:21Z</time>
      </trkpt>
      <trkpt lat="38.9585940" lon="-0.1887810">
        <ele>30.5</ele>
        <time>2020-11-14T10:02:22Z</time>
      </trkpt>
      <trkpt lat="38.9585440" lon="-0.1888270">
        <ele>30.6</ele>
        <time>2020-11-14T10:02:23Z</time>
      </trkpt>
      <trkpt lat="38.9584910" lon="-0.1888650">
        <ele>30.6</ele>
        <time>2020-11-14T10:02:24Z</time>
      </trkpt>
      <trkpt lat="38.9584320" lon="-0.1888980">
        <ele>30.6</ele>
        <time>2020-11-14T10:02:25Z</time>
      </trkpt>
      <trkpt lat="38.9583750" lon="-0.1889300">
        <ele>30.7</ele>
        <time>2020-11-14T10:02:26Z</time>
      </trkpt>
      <trkpt lat="38.9583170" lon="-0.1889720">
        <ele>30.7</ele>
        <time>2020-11-14T10:02:27Z</time>
      </trkpt>
      <trkpt lat="38.9582610" lon="-0.1890190">
        <ele>30.8</ele>
        <time>2020-11-14T10:02:28Z</time>
      </trkpt>
      <trkpt lat="38.9582020" lon="-0.1890620">
        <ele>30.8</ele>
        <time>2020-11-14T10:02:29Z</time>
      </trkpt>
      <trkpt lat="38.9581450" lon="-0.1891040">
        <ele>30.9</ele>
        <time>2020-11-14T10:02:30Z</time>
      </trkpt>
      <trkpt lat="38.9580910" lon="-0.1891430">
        <ele>30.9</ele>
        <time>2020-11-14T10:02:31Z</time>
      </trkpt>
      <trkpt lat="38.9580380" lon="-0.1891870">
        <ele>31.0</ele>
        <time>2020-11-14T10:02:32Z</time>
      </trkpt>
      <trkpt lat="38.9579810" lon="-0.1892330">
        <ele>31.0</ele>
        <time>2020-11-14T10:02:33Z</time>
      </trkpt>
      <trkpt lat="38.9579240" lon="-0.1892790">
        <ele>31.1</ele>
        <time>2020-11-14T10:02:34Z</time>
      </trkpt>
      <trkpt lat="38.9578630" lon="-0.1893200">
        <ele>31.2</ele>
        <time>2020-11-14T10:02:35Z</time>
      </trkpt>
      <trkpt lat="38.9577980" lon="-0.1893660">
        <ele>31.2</ele>
        <time>2020-11-14T10:02:36Z</time>
      </trkpt>
      <trkpt lat="38.9577440" lon="-0.1894160">
        <ele>31.3</ele>
        <time>2020-11-14T10:02:37Z</time>
      </trkpt>
      <trkpt lat="38.9576930" lon="-0.1894560">
        <ele>31.4</ele>
        <time>2020-11-14T10:02:38Z</time>
      </trkpt>
      <trkpt lat="38.9576330" lon="-0.1894980">
        <ele>31.4</ele>
        <time>2020-11-14T10:02:39Z</time>
      </trkpt>
      <trkpt lat="38.9575770" lon="-0.1895340">
        <ele>31.5</ele>
        <time>2020-11-14T10:02:40Z</time>
      </trkpt>
      <trkpt lat="38.9575220" lon="-0.1895740">
        <ele>31.6</ele>
        <time>2020-11-14T10:02:41Z</time>
      </trkpt>
      <trkpt lat="38.9574720" lon="-0.1896120">
        <ele>31.6</ele>
        <time>2020-11-14T10:02:42Z</time>
      </trkpt>
      <trkpt lat="38.9574160" lon="-0.1896550">
        <ele>31.7</ele>
        <time>2020-11-14T10:02:43Z</time>
      </trkpt>
      <trkpt lat="38.9573600" lon="-0.1897020">
        <ele>31.8</ele>
        <time>2020-11-14T10:02:44Z</time>
      </trkpt>
      <trkpt lat="38.9573090" lon="-0.1897430">
        <ele>31.9</ele>
        <time>2020-11-14T10:02:45Z</time>
      </trkpt>
      <trkpt lat="38.9572550" lon="-0.1897860">
        <ele>32.0</ele>
        <time>2020-11-14T10:02:46Z</time>
      </trkpt>
      <trkpt lat="38.9572030" lon="-0.1898240">
        <ele>32.1</ele>
        <time>2020-11-14T10:02:47Z</time>
      </trkpt>
      <trkpt lat="38.9571450" lon="-0.1898730">
        <ele>32.1</ele>
        <time>2020-11-14T10:02:48Z</time>
      </trkpt>
      <trkpt lat="38.9570980" lon="-0.1899180">
        <ele>32.2</ele>
        <time>2020-11-14T10:02:49Z</time>
      </trkpt>
      <trkpt lat="38.9570510" lon="-0.1899790">
        <ele>32.2</ele>
        <time>2020-11-14T10:02:50Z</time>
      </trkpt>
      <trkpt lat="38.9570160" lon="-0.1900380">
        <ele>32.3</ele>
        <time>2020-11-14T10:02:51Z</time>
      </trkpt>
      <trkpt lat="38.9569800" lon="-0.1901020">
        <ele>32.3</ele>
        <time>2020-11-14T10:02:52Z</time>
      </trkpt>
      <trkpt lat="38.9569570" lon="-0.1901900">
        <ele>32.4</ele>
        <time>2020-11-14T10:02:53Z</time>
      </trkpt>
      <trkpt lat="38.9569380" lon="-0.1902740">
        <ele>32.5</ele>
        <time>2020-11-14T10:02:54Z</time>
      </trkpt>
      <trkpt lat="38.9569120" lon="-0.1903570">
        <ele>32.5</ele>
        <time>2020-11-14T10:02:55Z</time>
      </trkpt>
      <trkpt lat="38.9568790" lon="-0.1904330">
        <ele>32.5</ele>
        <time>2020-11-14T10:02:56Z</time>
      </trkpt>
      <trkpt lat="38.9568410" lon="-0.1904990">
        <ele>32.6</ele>
        <time>2020-11-14T10:02:57Z</time>
      </trkpt>
      <trkpt lat="38.9568010" lon="-0.1905630">
        <ele>32.6</ele>
        <time>2020-11-14T10:02:58Z</time>
      </trkpt>
      <trkpt lat="38.9567500" lon="-0.1906130">
        <ele>32.7</ele>
        <time>2020-11-14T10:02:59Z</time>
      </trkpt>
      <trkpt lat="38.9566910" lon="-0.1906560">
        <ele>32.7</ele>
        <time>2020-11-14T10:03:00Z</time>
      </trkpt>
      <trkpt lat="38.9566250" lon="-0.1906730">
        <ele>32.8</ele>
        <time>2020-11-14T10:03:01Z</time>
      </trkpt>
      <trkpt lat="38.9565600" lon="-0.1906920">
        <ele>32.9</ele>
        <time>2020-11-14T10:03:02Z</time>
      </trkpt>
      <trkpt lat="38.9564870" lon="-0.1907030">
        <ele>32.9</ele>
        <time>2020-11-14T10:03:03Z</time>
      </trkpt>
      <trkpt lat="38.9564260" lon="-0.1906720">
        <ele>33.0</ele>
        <time>2020-11-14T10:03:04Z</time>
      </trkpt>
      <trkpt lat="38.9563560" lon="-0.1906430">
        <ele>33.0</ele>
        <time>2020-11-14T10:03:05Z</time>
      </trkpt>
      <trkpt lat="38.9562900" lon="-0.1906400">
        <ele>33.1</ele>
        <time>2020-11-14T10:03:06Z</time>
      </trkpt>
      <trkpt lat="38.9562230" lon="-0.1906440">
        <ele>33.2</ele>
        <time>2020-11-14T10:03:07Z</time>
      </trkpt>
      <trkpt lat="38.9561530" lon="-0.1906720">
        <ele>33.3</ele>
        <time>2020-11-14T10:03:08Z</time>
      </trkpt>
      <trkpt lat="38.9560910" lon="-0.1907000">
        <ele>33.3</ele>
        <time>2020-11-14T10:03:09Z</time>
      </trkpt>
      <trkpt lat="38.9560350" lon="-0.1907760">
        <ele>33.4</ele>
        <time>2020-11-14T10:03:10Z</time>
      </trkpt>
      <trkpt lat="38.9559760" lon="-0.1908170">
        <ele>33.4</ele>
        <time>2020-11-14T10:03:11Z</time>
      </trkpt>
      <trkpt lat="38.9559170" lon="-0.1908610">
        <ele>33.5</ele>
        <time>2020-11-14T10:03:12Z</time>
      </trkpt>
      <trkpt lat="38.9558510" lon="-0.1909230">
        <ele>33.6</ele>
        <time>2020-11-14T10:03:13Z</time>
      </trkpt>
      <trkpt lat="38.9557930" lon="-0.1909660">
        <ele>33.7</ele>
        <time>2020-11-14T10:03:14Z</time>
      </trkpt>
      <trkpt lat="38.9557320" lon="-0.1910100">
        <ele>33.8</ele>
        <time>2020-11-14T10:03:15Z</time>
      </trkpt>
      <trkpt lat="38.9556730" lon="-0.1910630">
        <ele>33.8</ele>
        <time>2020-11-14T10:03:16Z</time>
      </trkpt>
      <trkpt lat="38.9556120" lon="-0.1911090">
        <ele>33.9</ele>
        <time>2020-11-14T10:03:17Z</time>
      </trkpt>
      <trkpt lat="38.9555600" lon="-0.1911580">
        <ele>33.9</ele>
        <time>2020-11-14T10:03:18Z</time>
      </trkpt>
      <trkpt lat="38.9555020" lon="-0.1912010">
        <ele>34.0</ele>
        <time>2020-11-14T10:03:19Z</time>
      </trkpt>
      <trkpt lat="38.9554430" lon="-0.1912460">
        <ele>34.0</ele>
        <time>2020-11-14T10:03:20Z</time>
      </trkpt>
      <trkpt lat="38.9553830" lon="-0.1912890">
        <ele>34.1</ele>
        <time>2020-11-14T10:03:21Z</time>
      </trkpt>
      <trkpt lat="38.9553210" lon="-0.1913330">
        <ele>34.2</ele>
        <time>2020-11-14T10:03:22Z</time>
      </trkpt>
      <trkpt lat="38.9552570" lon="-0.1913620">
        <ele>34.2</ele>
        <time>2020-11-14T10:03:23Z</time>
      </trkpt>
      <trkpt lat="38.9551990" lon="-0.1914060">
        <ele>34.3</ele>
        <time>2020-11-14T10:03:24Z</time>
      </trkpt>
      <trkpt lat="38.9551620" lon="-0.1914400">
        <ele>34.3</ele>
        <time>2020-11-14T10:03:25Z</time>
      </trkpt>
      <trkpt lat="38.9551040" lon="-0.1914890">
        <ele>34.4</ele>
        <time>2020-11-14T10:03:26Z</time>
      </trkpt>
      <trkpt lat="38.9550440" lon="-0.1915360">
        <ele>34.4</ele>
        <time>2020-11-14T10:03:27Z</time>
      </trkpt>
      <trkpt lat="38.9549860" lon="-0.1915900">
        <ele>34.5</ele>
        <time>2020-11-14T10:03:28Z</time>
      </trkpt>
      <trkpt lat="38.9549280" lon="-0.1916450">
        <ele>34.5</ele>
        <time>2020-11-14T10:03:29Z</time>
      </trkpt>
      <trkpt lat="38.9548560" lon="-0.1916990">
        <ele>34.6</ele>
        <time>2020-11-14T10:03:30Z</time>
      </trkpt>
      <trkpt lat="38.9547990" lon="-0.1917460">
        <ele>34.6</ele>
        <time>2020-11-14T10:03:31Z</time>
      </trkpt>
      <trkpt lat="38.9547340" lon="-0.1918000">
        <ele>34.6</ele>
        <time>2020-11-14T10:03:32Z</time>
      </trkpt>
      <trkpt lat="38.9546720" lon="-0.1918510">
        <ele>34.7</ele>
        <time>2020-11-14T10:03:33Z</time>
      </trkpt>
      <trkpt lat="38.9546160" lon="-0.1919010">
        <ele>34.8</ele>
        <time>2020-11-14T10:03:34Z</time>
      </trkpt>
      <trkpt lat="38.9545570" lon="-0.1919540">
        <ele>34.8</ele>
        <time>2020-11-14T10:03:35Z</time>
      </trkpt>
      <trkpt lat="38.9544940" lon="-0.1920040">
        <ele>34.9</ele>
        <time>2020-11-14T10:03:36Z</time>
      </trkpt>
      <trkpt lat="38.9544340" lon="-0.1920440">
        <ele>34.9</ele>
        <time>2020-11-14T10:03:37Z</time>
      </trkpt>
      <trkpt lat="38.9543740" lon="-0.1920960">
        <ele>35.0</ele>
        <time>2020-11-14T10:03:38Z</time>
      </trkpt>
      <trkpt lat="38.9543140" lon="-0.1921390">
        <ele>35.1</ele>
        <time>2020-11-14T10:03:39Z</time>
      </trkpt>
      <trkpt lat="38.9542630" lon="-0.1921750">
        <ele>35.1</ele>
        <time>2020-11-14T10:03:40Z</time>
      </trkpt>
      <trkpt lat="38.9542040" lon="-0.1922160">
        <ele>35.1</ele>
        <time>2020-11-14T10:03:41Z</time>
      </trkpt>
      <trkpt lat="38.9541430" lon="-0.1922570">
        <ele>35.2</ele>
        <time>2020-11-14T10:03:42Z</time>
      </trkpt>
      <trkpt lat="38.9540830" lon="-0.1923070">
        <ele>35.2</ele>
        <time>2020-11-14T10:03:43Z</time>
      </trkpt>
      <trkpt lat="38.9540220" lon="-0.1923550">
        <ele>35.3</ele>
        <time>2020-11-14T10:03:44Z</time>
      </trkpt>
      <trkpt lat="38.9539660" lon="-0.1923940">
        <ele>35.3</ele>
        <time>2020-11-14T10:03:45Z</time>
      </trkpt>
      <trkpt lat="38.9539070" lon="-0.1924510">
        <ele>35.4</ele>
        <time>2020-11-14T10:03:46Z</time>
      </trkpt>
      <trkpt lat="38.9538530" lon="-0.1924890">
        <ele>35.5</ele>
        <time>2020-11-14T10:03:47Z</time>
      </trkpt>
      <trkpt lat="38.9537920" lon="-0.1925320">
        <ele>35.6</ele>
        <time>2020-11-14T10:03:48Z</time>
      </trkpt>
      <trkpt lat="38.9537420" lon="-0.1925860">
        <ele>35.6</ele>
        <time>2020-11-14T10:03:49Z</time>
      </trkpt>
      <trkpt lat="38.9536790" lon="-0.1926250">
        <ele>35.7</ele>
        <time>2020-11-14T10:03:50Z</time>
      </trkpt>
      <trkpt lat="38.9536190" lon="-0.1926640">
        <ele>35.8</ele>
        <time>2020-11-14T10:03:51Z</time>
      </trkpt>
      <trkpt lat="38.9535550" lon="-0.1927050">
        <ele>35.9</ele>
        <time>2020-11-14T10:03:52Z</time>
      </trkpt>
      <trkpt lat="38.9534950" lon="-0.1927570">
        <ele>35.9</ele>
        <time>2020-11-14T10:03:53Z</time>
      </trkpt>
      <trkpt lat="38.9534360" lon="-0.1928040">
        <ele>36.0</ele>
        <time>2020-11-14T10:03:54Z</time>
      </trkpt>
      <trkpt lat="38.9533790" lon="-0.1928650">
        <ele>36.0</ele>
        <time>2020-11-14T10:03:55Z</time>
      </trkpt>
      <trkpt lat="38.9533200" lon="-0.1929170">
        <ele>36.1</ele>
        <time>2020-11-14T10:03:56Z</time>
      </trkpt>
      <trkpt lat="38.9532550" lon="-0.1929640">
        <ele>36.2</ele>
        <time>2020-11-14T10:03:57Z</time>
      </trkpt>
      <trkpt lat="38.9531860" lon="-0.1930080">
        <ele>36.2</ele>
        <time>2020-11-14T10:03:58Z</time>
      </trkpt>
      <trkpt lat="38.9531230" lon="-0.1930540">
        <ele>36.3</ele>
        <time>2020-11-14T10:03:59Z</time>
      </trkpt>
      <trkpt lat="38.9530630" lon="-0.1930980">
        <ele>36.4</ele>
        <time>2020-11-14T10:04:00Z</time>
      </trkpt>
      <trkpt lat="38.9530130" lon="-0.1931290">
        <ele>36.5</ele>
        <time>2020-11-14T10:04:01Z</time>
      </trkpt>
      <trkpt lat="38.9529470" lon="-0.1931790">
        <ele>36.6</ele>
        <time>2020-11-14T10:04:02Z</time>
      </trkpt>
      <trkpt lat="38.9528820" lon="-0.1932250">
        <ele>36.6</ele>
        <time>2020-11-14T10:04:03Z</time>
      </trkpt>
      <trkpt lat="38.9528070" lon="-0.1932710">
        <ele>36.7</ele>
        <time>2020-11-14T10:04:04Z</time>
      </trkpt>
      <trkpt lat="38.9527470" lon="-0.1933200">
        <ele>36.8</ele>
        <time>2020-11-14T10:04:05Z</time>
      </trkpt>
      <trkpt lat="38.9526770" lon="-0.1933610">
        <ele>36.8</ele>
        <time>2020-11-14T10:04:06Z</time>
      </trkpt>
      <trkpt lat="38.9526140" lon="-0.1934120">
        <ele>36.9</ele>
        <time>2020-11-14T10:04:07Z</time>
      </trkpt>
      <trkpt lat="38.9525530" lon="-0.1934600">
        <ele>37.0</ele>
        <time>2020-11-14T10:04:08Z</time>
      </trkpt>
      <trkpt lat="38.9524890" lon="-0.1935160">
        <ele>37.1</ele>
        <time>2020-11-14T10:04:09Z</time>
      </trkpt>
      <trkpt lat="38.9524380" lon="-0.1935530">
        <ele>37.2</ele>
        <time>2020-11-14T10:04:10Z</time>
      </trkpt>
      <trkpt lat="38.9523720" lon="-0.1936050">
        <ele>37.3</ele>
        <time>2020-11-14T10:04:11Z</time>
      </trkpt>
      <trkpt lat="38.9523090" lon="-0.1936510">
        <ele>37.4</ele>
        <time>2020-11-14T10:04:12Z</time>
      </trkpt>
      <trkpt lat="38.9522490" lon="-0.1936980">
        <ele>37.4</ele>
        <time>2020-11-14T10:04:13Z</time>
      </trkpt>
      <trkpt lat="38.9521900" lon="-0.1937430">
        <ele>37.5</ele>
        <time>2020-11-14T10:04:14Z</time>
      </trkpt>
      <trkpt lat="38.9521270" lon="-0.1937820">
        <ele>37.5</ele>
        <time>2020-11-14T10:04:15Z</time>
      </trkpt>
      <trkpt lat="38.9520610" lon="-0.1938230">
        <ele>37.6</ele>
        <time>2020-11-14T10:04:16Z</time>
      </trkpt>
      <trkpt lat="38.9520020" lon="-0.1938720">
        <ele>37.6</ele>
        <time>2020-11-14T10:04:17Z</time>
      </trkpt>
      <trkpt lat="38.9519400" lon="-0.1939280">
        <ele>37.7</ele>
        <time>2020-11-14T10:04:18Z</time>
      </trkpt>
      <trkpt lat="38.9518860" lon="-0.1939970">
        <ele>37.8</ele>
        <time>2020-11-14T10:04:19Z</time>
      </trkpt>
      <trkpt lat="38.9518470" lon="-0.1940690">
        <ele>37.9</ele>
        <time>2020-11-14T10:04:20Z</time>
      </trkpt>
      <trkpt lat="38.9518090" lon="-0.1941430">
        <ele>38.0</ele>
        <time>2020-11-14T10:04:21Z</time>
      </trkpt>
      <trkpt lat="38.9517610" lon="-0.1942100">
        <ele>38.0</ele>
        <time>2020-11-14T10:04:22Z</time>
      </trkpt>
      <trkpt lat="38.9517030" lon="-0.1942560">
        <ele>38.2</ele>
        <time>2020-11-14T10:04:23Z</time>
      </trkpt>
      <trkpt lat="38.9516340" lon="-0.1942870">
        <ele>38.2</ele>
        <time>2020-11-14T10:04:24Z</time>
      </trkpt>
      <trkpt lat="38.9515610" lon="-0.1943000">
        <ele>38.2</ele>
        <time>2020-11-14T10:04:25Z</time>
      </trkpt>
      <trkpt lat="38.9514870" lon="-0.1943180">
        <ele>38.2</ele>
        <time>2020-11-14T10:04:26Z</time>
      </trkpt>
      <trkpt lat="38.9514310" lon="-0.1943580">
        <ele>38.2</ele>
        <time>2020-11-14T10:04:27Z</time>
      </trkpt>
      <trkpt lat="38.9513600" lon="-0.1944040">
        <ele>38.3</ele>
        <time>2020-11-14T10:04:28Z</time>
      </trkpt>
      <trkpt lat="38.9512910" lon="-0.1944510">
        <ele>38.3</ele>
        <time>2020-11-14T10:04:29Z</time>
      </trkpt>
      <trkpt lat="38.9512310" lon="-0.1945070">
        <ele>38.4</ele>
        <time>2020-11-14T10:04:30Z</time>
      </trkpt>
      <trkpt lat="38.9511670" lon="-0.1945460">
        <ele>38.4</ele>
        <time>2020-11-14T10:04:31Z</time>
      </trkpt>
      <trkpt lat="38.9511020" lon="-0.1945800">
        <ele>38.5</ele>
        <time>2020-11-14T10:04:32Z</time>
      </trkpt>
      <trkpt lat="38.9510420" lon="-0.1946300">
        <ele>38.6</ele>
        <time>2020-11-14T10:04:33Z</time>
      </trkpt>
      <trkpt lat="38.9509800" lon="-0.1946790">
        <ele>38.6</ele>
        <time>2020-11-14T10:04:34Z</time>
      </trkpt>
      <trkpt lat="38.9509230" lon="-0.1947180">
        <ele>38.7</ele>
        <time>2020-11-14T10:04:35Z</time>
      </trkpt>
      <trkpt lat="38.9508640" lon="-0.1947690">
        <ele>38.7</ele>
        <time>2020-11-14T10:04:36Z</time>
      </trkpt>
      <trkpt lat="38.9507970" lon="-0.1948210">
        <ele>38.7</ele>
        <time>2020-11-14T10:04:37Z</time>
      </trkpt>
      <trkpt lat="38.9507470" lon="-0.1948760">
        <ele>38.7</ele>
        <time>2020-11-14T10:04:38Z</time>
      </trkpt>
      <trkpt lat="38.9506840" lon="-0.1949290">
        <ele>38.8</ele>
        <time>2020-11-14T10:04:39Z</time>
      </trkpt>
      <trkpt lat="38.9506200" lon="-0.1949720">
        <ele>38.8</ele>
        <time>2020-11-14T10:04:40Z</time>
      </trkpt>
      <trkpt lat="38.9505550" lon="-0.1950170">
        <ele>38.9</ele>
        <time>2020-11-14T10:04:41Z</time>
      </trkpt>
      <trkpt lat="38.9504920" lon="-0.1950730">
        <ele>38.9</ele>
        <time>2020-11-14T10:04:42Z</time>
      </trkpt>
      <trkpt lat="38.9504320" lon="-0.1951210">
        <ele>39.0</ele>
        <time>2020-11-14T10:04:43Z</time>
      </trkpt>
      <trkpt lat="38.9503700" lon="-0.1951720">
        <ele>39.0</ele>
        <time>2020-11-14T10:04:44Z</time>
      </trkpt>
      <trkpt lat="38.9502990" lon="-0.1952190">
        <ele>39.1</ele>
        <time>2020-11-14T10:04:45Z</time>
      </trkpt>
      <trkpt lat="38.9502390" lon="-0.1952680">
        <ele>39.1</ele>
        <time>2020-11-14T10:04:46Z</time>
      </trkpt>
      <trkpt lat="38.9501880" lon="-0.1953230">
        <ele>39.2</ele>
        <time>2020-11-14T10:04:47Z</time>
      </trkpt>
      <trkpt lat="38.9501290" lon="-0.1953820">
        <ele>39.3</ele>
        <time>2020-11-14T10:04:48Z</time>
      </trkpt>
      <trkpt lat="38.9500670" lon="-0.1954220">
        <ele>39.4</ele>
        <time>2020-11-14T10:04:49Z</time>
      </trkpt>
      <trkpt lat="38.9500110" lon="-0.1954700">
        <ele>39.4</ele>
        <time>2020-11-14T10:04:50Z</time>
      </trkpt>
      <trkpt lat="38.9499500" lon="-0.1955200">
        <ele>39.5</ele>
        <time>2020-11-14T10:04:51Z</time>
      </trkpt>
      <trkpt lat="38.9498910" lon="-0.1955680">
        <ele>39.6</ele>
        <time>2020-11-14T10:04:52Z</time>
      </trkpt>
      <trkpt lat="38.9498300" lon="-0.1956130">
        <ele>39.6</ele>
        <time>2020-11-14T10:04:53Z</time>
      </trkpt>
      <trkpt lat="38.9497710" lon="-0.1956590">
        <ele>39.6</ele>
        <time>2020-11-14T10:04:54Z</time>
      </trkpt>
      <trkpt lat="38.9497210" lon="-0.1957030">
        <ele>39.7</ele>
        <time>2020-11-14T10:04:55Z</time>
      </trkpt>
      <trkpt lat="38.9496630" lon="-0.1957470">
        <ele>39.7</ele>
        <time>2020-11-14T10:04:56Z</time>
      </trkpt>
      <trkpt lat="38.9496010" lon="-0.1957930">
        <ele>39.8</ele>
        <time>2020-11-14T10:04:57Z</time>
      </trkpt>
      <trkpt lat="38.9495490" lon="-0.1958320">
        <ele>39.8</ele>
        <time>2020-11-14T10:04:58Z</time>
      </trkpt>
      <trkpt lat="38.9494910" lon="-0.1958780">
        <ele>39.8</ele>
        <time>2020-11-14T10:04:59Z</time>
      </trkpt>
      <trkpt lat="38.9494280" lon="-0.1959180">
        <ele>39.9</ele>
        <time>2020-11-14T10:05:00Z</time>
      </trkpt>
      <trkpt lat="38.9493670" lon="-0.1959580">
        <ele>39.9</ele>
        <time>2020-11-14T10:05:01Z</time>
      </trkpt>
      <trkpt lat="38.9493060" lon="-0.1960050">
        <ele>40.0</ele>
        <time>2020-11-14T10:05:02Z</time>
      </trkpt>
      <trkpt lat="38.9492450" lon="-0.1960480">
        <ele>40.1</ele>
        <time>2020-11-14T10:05:03Z</time>
      </trkpt>
      <trkpt lat="38.9491840" lon="-0.1960940">
        <ele>40.1</ele>
        <time>2020-11-14T10:05:04Z</time>
      </trkpt>
      <trkpt lat="38.9491250" lon="-0.1961400">
        <ele>40.2</ele>
        <time>2020-11-14T10:05:05Z</time>
      </trkpt>
      <trkpt lat="38.9490640" lon="-0.1961990">
        <ele>40.3</ele>
        <time>2020-11-14T10:05:06Z</time>
      </trkpt>
      <trkpt lat="38.9490030" lon="-0.1962580">
        <ele>40.4</ele>
        <time>2020-11-14T10:05:07Z</time>
      </trkpt>
      <trkpt lat="38.9489430" lon="-0.1963040">
        <ele>40.5</ele>
        <time>2020-11-14T10:05:08Z</time>
      </trkpt>
      <trkpt lat="38.9488800" lon="-0.1963530">
        <ele>40.7</ele>
        <time>2020-11-14T10:05:09Z</time>
      </trkpt>
      <trkpt lat="38.9488230" lon="-0.1963880">
        <ele>40.8</ele>
        <time>2020-11-14T10:05:10Z</time>
      </trkpt>
      <trkpt lat="38.9487670" lon="-0.1964390">
        <ele>40.9</ele>
        <time>2020-11-14T10:05:11Z</time>
      </trkpt>
      <trkpt lat="38.9487020" lon="-0.1964860">
        <ele>41.0</ele>
        <time>2020-11-14T10:05:12Z</time>
      </trkpt>
      <trkpt lat="38.9486390" lon="-0.1965310">
        <ele>41.2</ele>
        <time>2020-11-14T10:05:13Z</time>
      </trkpt>
      <trkpt lat="38.9485780" lon="-0.1965780">
        <ele>41.3</ele>
        <time>2020-11-14T10:05:14Z</time>
      </trkpt>
      <trkpt lat="38.9485190" lon="-0.1966230">
        <ele>41.4</ele>
        <time>2020-11-14T10:05:15Z</time>
      </trkpt>
      <trkpt lat="38.9484600" lon="-0.1966750">
        <ele>41.6</ele>
        <time>2020-11-14T10:05:16Z</time>
      </trkpt>
      <trkpt lat="38.9484030" lon="-0.1967240">
        <ele>41.7</ele>
        <time>2020-11-14T10:05:17Z</time>
      </trkpt>
      <trkpt lat="38.9483410" lon="-0.1967660">
        <ele>41.8</ele>
        <time>2020-11-14T10:05:18Z</time>
      </trkpt>
      <trkpt lat="38.9482840" lon="-0.1968130">
        <ele>41.9</ele>
        <time>2020-11-14T10:05:19Z</time>
      </trkpt>
      <trkpt lat="38.9482310" lon="-0.1968560">
        <ele>42.1</ele>
        <time>2020-11-14T10:05:20Z</time>
      </trkpt>
      <trkpt lat="38.9481800" lon="-0.1968990">
        <ele>42.1</ele>
        <time>2020-11-14T10:05:21Z</time>
      </trkpt>
      <trkpt lat="38.9481280" lon="-0.1969500">
        <ele>42.1</ele>
        <time>2020-11-14T10:05:22Z</time>
      </trkpt>
      <trkpt lat="38.9480840" lon="-0.1970130">
        <ele>42.1</ele>
        <time>2020-11-14T10:05:23Z</time>
      </trkpt>
      <trkpt lat="38.9480350" lon="-0.1970720">
        <ele>42.0</ele>
        <time>2020-11-14T10:05:24Z</time>
      </trkpt>
      <trkpt lat="38.9479890" lon="-0.1971280">
        <ele>42.0</ele>
        <time>2020-11-14T10:05:25Z</time>
      </trkpt>
      <trkpt lat="38.9479600" lon="-0.1971950">
        <ele>42.0</ele>
        <time>2020-11-14T10:05:26Z</time>
      </trkpt>
      <trkpt lat="38.9479360" lon="-0.1972680">
        <ele>42.0</ele>
        <time>2020-11-14T10:05:27Z</time>
      </trkpt>
      <trkpt lat="38.9479120" lon="-0.1973330">
        <ele>42.1</ele>
        <time>2020-11-14T10:05:28Z</time>
      </trkpt>
      <trkpt lat="38.9478830" lon="-0.1973910">
        <ele>42.1</ele>
        <time>2020-11-14T10:05:29Z</time>
      </trkpt>
      <trkpt lat="38.9478470" lon="-0.1974420">
        <ele>42.2</ele>
        <time>2020-11-14T10:05:30Z</time>
      </trkpt>
      <trkpt lat="38.9477920" lon="-0.1974810">
        <ele>42.3</ele>
        <time>2020-11-14T10:05:31Z</time>
      </trkpt>
      <trkpt lat="38.9477330" lon="-0.1974970">
        <ele>42.5</ele>
        <time>2020-11-14T10:05:32Z</time>
      </trkpt>
      <trkpt lat="38.9476720" lon="-0.1975040">
        <ele>42.6</ele>
        <time>2020-11-14T10:05:33Z</time>
      </trkpt>
      <trkpt lat="38.9476100" lon="-0.1975050">
        <ele>42.7</ele>
        <time>2020-11-14T10:05:34Z</time>
      </trkpt>
      <trkpt lat="38.9475520" lon="-0.1974970">
        <ele>43.0</ele>
        <time>2020-11-14T10:05:35Z</time>
      </trkpt>
      <trkpt lat="38.9474890" lon="-0.1974950">
        <ele>43.2</ele>
        <time>2020-11-14T10:05:36Z</time>
      </trkpt>
      <trkpt lat="38.9474260" lon="-0.1975070">
        <ele>43.5</ele>
        <time>2020-11-14T10:05:37Z</time>
      </trkpt>
      <trkpt lat="38.9473650" lon="-0.1975290">
        <ele>43.7</ele>
        <time>2020-11-14T10:05:38Z</time>
      </trkpt>
      <trkpt lat="38.9473080" lon="-0.1975660">
        <ele>44.0</ele>
        <time>2020-11-14T10:05:39Z</time>
      </trkpt>
      <trkpt lat="38.9472570" lon="-0.1976050">
        <ele>44.2</ele>
        <time>2020-11-14T10:05:40Z</time>
      </trkpt>
      <trkpt lat="38.9472110" lon="-0.1976410">
        <ele>44.3</ele>
        <time>2020-11-14T10:05:41Z</time>
      </trkpt>
      <trkpt lat="38.9471590" lon="-0.1976860">
        <ele>44.4</ele>
        <time>2020-11-14T10:05:42Z</time>
      </trkpt>
      <trkpt lat="38.9471010" lon="-0.1977300">
        <ele>44.5</ele>
        <time>2020-11-14T10:05:43Z</time>
      </trkpt>
      <trkpt lat="38.9470430" lon="-0.1977720">
        <ele>44.5</ele>
        <time>2020-11-14T10:05:44Z</time>
      </trkpt>
      <trkpt lat="38.9469840" lon="-0.1978200">
        <ele>44.6</ele>
        <time>2020-11-14T10:05:45Z</time>
      </trkpt>
      <trkpt lat="38.9469320" lon="-0.1978580">
        <ele>44.6</ele>
        <time>2020-11-14T10:05:46Z</time>
      </trkpt>
      <trkpt lat="38.9468770" lon="-0.1979010">
        <ele>44.7</ele>
        <time>2020-11-14T10:05:47Z</time>
      </trkpt>
      <trkpt lat="38.9468180" lon="-0.1979500">
        <ele>44.7</ele>
        <time>2020-11-14T10:05:48Z</time>
      </trkpt>
      <trkpt lat="38.9467620" lon="-0.1979980">
        <ele>44.7</ele>
        <time>2020-11-14T10:05:49Z</time>
      </trkpt>
      <trkpt lat="38.9466990" lon="-0.1980320">
        <ele>44.7</ele>
        <time>2020-11-14T10:05:50Z</time>
      </trkpt>
      <trkpt lat="38.9466450" lon="-0.1980720">
        <ele>44.7</ele>
        <time>2020-11-14T10:05:51Z</time>
      </trkpt>
      <trkpt lat="38.9465810" lon="-0.1981160">
        <ele>44.7</ele>
        <time>2020-11-14T10:05:52Z</time>
      </trkpt>
      <trkpt lat="38.9465130" lon="-0.1981680">
        <ele>44.7</ele>
        <time>2020-11-14T10:05:53Z</time>
      </trkpt>
      <trkpt lat="38.9464550" lon="-0.1982160">
        <ele>44.7</ele>
        <time>2020-11-14T10:05:54Z</time>
      </trkpt>
      <trkpt lat="38.9463970" lon="-0.1982660">
        <ele>44.7</ele>
        <time>2020-11-14T10:05:55Z</time>
      </trkpt>
      <trkpt lat="38.9463360" lon="-0.1983130">
        <ele>44.7</ele>
        <time>2020-11-14T10:05:56Z</time>
      </trkpt>
      <trkpt lat="38.9462730" lon="-0.1983640">
        <ele>44.7</ele>
        <time>2020-11-14T10:05:57Z</time>
      </trkpt>
      <trkpt lat="38.9462110" lon="-0.1984060">
        <ele>44.7</ele>
        <time>2020-11-14T10:05:58Z</time>
      </trkpt>
      <trkpt lat="38.9461410" lon="-0.1984500">
        <ele>44.7</ele>
        <time>2020-11-14T10:05:59Z</time>
      </trkpt>
      <trkpt lat="38.9460790" lon="-0.1984940">
        <ele>44.7</ele>
        <time>2020-11-14T10:06:00Z</time>
      </trkpt>
      <trkpt lat="38.9460190" lon="-0.1985420">
        <ele>44.7</ele>
        <time>2020-11-14T10:06:01Z</time>
      </trkpt>
      <trkpt lat="38.9459530" lon="-0.1985990">
        <ele>44.7</ele>
        <time>2020-11-14T10:06:02Z</time>
      </trkpt>
      <trkpt lat="38.9458900" lon="-0.1986490">
        <ele>44.7</ele>
        <time>2020-11-14T10:06:03Z</time>
      </trkpt>
      <trkpt lat="38.9458260" lon="-0.1986930">
        <ele>44.7</ele>
        <time>2020-11-14T10:06:04Z</time>
      </trkpt>
      <trkpt lat="38.9457680" lon="-0.1987500">
        <ele>44.7</ele>
        <time>2020-11-14T10:06:05Z</time>
      </trkpt>
      <trkpt lat="38.9457020" lon="-0.1987960">
        <ele>44.7</ele>
        <time>2020-11-14T10:06:06Z</time>
      </trkpt>
      <trkpt lat="38.9456530" lon="-0.1988360">
        <ele>44.6</ele>
        <time>2020-11-14T10:06:07Z</time>
      </trkpt>
      <trkpt lat="38.9455600" lon="-0.1988890">
        <ele>44.6</ele>
        <time>2020-11-14T10:06:08Z</time>
      </trkpt>
      <trkpt lat="38.9455040" lon="-0.1989400">
        <ele>44.5</ele>
        <time>2020-11-14T10:06:09Z</time>
      </trkpt>
      <trkpt lat="38.9454450" lon="-0.1989920">
        <ele>44.4</ele>
        <time>2020-11-14T10:06:10Z</time>
      </trkpt>
      <trkpt lat="38.9453870" lon="-0.1990430">
        <ele>44.4</ele>
        <time>2020-11-14T10:06:11Z</time>
      </trkpt>
      <trkpt lat="38.9453220" lon="-0.1990980">
        <ele>44.4</ele>
        <time>2020-11-14T10:06:12Z</time>
      </trkpt>
      <trkpt lat="38.9452550" lon="-0.1991530">
        <ele>44.3</ele>
        <time>2020-11-14T10:06:13Z</time>
      </trkpt>
      <trkpt lat="38.9451830" lon="-0.1992070">
        <ele>44.3</ele>
        <time>2020-11-14T10:06:14Z</time>
      </trkpt>
      <trkpt lat="38.9451170" lon="-0.1992550">
        <ele>44.3</ele>
        <time>2020-11-14T10:06:15Z</time>
      </trkpt>
      <trkpt lat="38.9450530" lon="-0.1993080">
        <ele>44.3</ele>
        <time>2020-11-14T10:06:16Z</time>
      </trkpt>
      <trkpt lat="38.9449800" lon="-0.1993640">
        <ele>44.3</ele>
        <time>2020-11-14T10:06:17Z</time>
      </trkpt>
      <trkpt lat="38.9449150" lon="-0.1994150">
        <ele>44.3</ele>
        <time>2020-11-14T10:06:18Z</time>
      </trkpt>
      <trkpt lat="38.9448490" lon="-0.1994700">
        <ele>44.2</ele>
        <time>2020-11-14T10:06:19Z</time>
      </trkpt>
      <trkpt lat="38.9447890" lon="-0.1995190">
        <ele>44.2</ele>
        <time>2020-11-14T10:06:20Z</time>
      </trkpt>
      <trkpt lat="38.9447280" lon="-0.1995700">
        <ele>44.2</ele>
        <time>2020-11-14T10:06:21Z</time>
      </trkpt>
      <trkpt lat="38.9446650" lon="-0.1996220">
        <ele>44.2</ele>
        <time>2020-11-14T10:06:22Z</time>
      </trkpt>
      <trkpt lat="38.9445930" lon="-0.1996740">
        <ele>44.2</ele>
        <time>2020-11-14T10:06:23Z</time>
      </trkpt>
      <trkpt lat="38.9445290" lon="-0.1997340">
        <ele>44.2</ele>
        <time>2020-11-14T10:06:24Z</time>
      </trkpt>
      <trkpt lat="38.9444660" lon="-0.1997850">
        <ele>44.2</ele>
        <time>2020-11-14T10:06:25Z</time>
      </trkpt>
      <trkpt lat="38.9443990" lon="-0.1998340">
        <ele>44.2</ele>
        <time>2020-11-14T10:06:26Z</time>
      </trkpt>
      <trkpt lat="38.9443310" lon="-0.1998870">
        <ele>44.2</ele>
        <time>2020-11-14T10:06:27Z</time>
      </trkpt>
      <trkpt lat="38.9442640" lon="-0.1999420">
        <ele>44.1</ele>
        <time>2020-11-14T10:06:28Z</time>
      </trkpt>
      <trkpt lat="38.9442000" lon="-0.2000000">
        <ele>44.1</ele>
        <time>2020-11-14T10:06:29Z</time>
      </trkpt>
      <trkpt lat="38.9441370" lon="-0.2000500">
        <ele>44.1</ele>
        <time>2020-11-14T10:06:30Z</time>
      </trkpt>
      <trkpt lat="38.9440710" lon="-0.2001020">
        <ele>44.1</ele>
        <time>2020-11-14T10:06:31Z</time>
      </trkpt>
      <trkpt lat="38.9440040" lon="-0.2001470">
        <ele>44.1</ele>
        <time>2020-11-14T10:06:32Z</time>
      </trkpt>
      <trkpt lat="38.9439410" lon="-0.2001960">
        <ele>44.1</ele>
        <time>2020-11-14T10:06:33Z</time>
      </trkpt>
      <trkpt lat="38.9438770" lon="-0.2002360">
        <ele>44.0</ele>
        <time>2020-11-14T10:06:34Z</time>
      </trkpt>
      <trkpt lat="38.9438100" lon="-0.2002840">
        <ele>44.0</ele>
        <time>2020-11-14T10:06:35Z</time>
      </trkpt>
      <trkpt lat="38.9437390" lon="-0.2003350">
        <ele>44.0</ele>
        <time>2020-11-14T10:06:36Z</time>
      </trkpt>
      <trkpt lat="38.9436690" lon="-0.2003870">
        <ele>44.0</ele>
        <time>2020-11-14T10:06:37Z</time>
      </trkpt>
      <trkpt lat="38.9435980" lon="-0.2004360">
        <ele>44.0</ele>
        <time>2020-11-14T10:06:38Z</time>
      </trkpt>
      <trkpt lat="38.9435340" lon="-0.2004840">
        <ele>44.0</ele>
        <time>2020-11-14T10:06:39Z</time>
      </trkpt>
      <trkpt lat="38.9434780" lon="-0.2005470">
        <ele>44.0</ele>
        <time>2020-11-14T10:06:40Z</time>
      </trkpt>
      <trkpt lat="38.9434150" lon="-0.2006040">
        <ele>44.0</ele>
        <time>2020-11-14T10:06:41Z</time>
      </trkpt>
      <trkpt lat="38.9433500" lon="-0.2006510">
        <ele>44.0</ele>
        <time>2020-11-14T10:06:42Z</time>
      </trkpt>
      <trkpt lat="38.9432860" lon="-0.2007020">
        <ele>44.0</ele>
        <time>2020-11-14T10:06:43Z</time>
      </trkpt>
      <trkpt lat="38.9432180" lon="-0.2007520">
        <ele>44.1</ele>
        <time>2020-11-14T10:06:44Z</time>
      </trkpt>
      <trkpt lat="38.9431530" lon="-0.2008060">
        <ele>44.1</ele>
        <time>2020-11-14T10:06:45Z</time>
      </trkpt>
      <trkpt lat="38.9430860" lon="-0.2008510">
        <ele>44.1</ele>
        <time>2020-11-14T10:06:46Z</time>
      </trkpt>
      <trkpt lat="38.9430220" lon="-0.2009050">
        <ele>44.1</ele>
        <time>2020-11-14T10:06:47Z</time>
      </trkpt>
      <trkpt lat="38.9429550" lon="-0.2009560">
        <ele>44.2</ele>
        <time>2020-11-14T10:06:48Z</time>
      </trkpt>
      <trkpt lat="38.9428930" lon="-0.2010060">
        <ele>44.2</ele>
        <time>2020-11-14T10:06:49Z</time>
      </trkpt>
      <trkpt lat="38.9428260" lon="-0.2010630">
        <ele>44.2</ele>
        <time>2020-11-14T10:06:50Z</time>
      </trkpt>
      <trkpt lat="38.9427580" lon="-0.2011050">
        <ele>44.3</ele>
        <time>2020-11-14T10:06:51Z</time>
      </trkpt>
      <trkpt lat="38.9426920" lon="-0.2011610">
        <ele>44.3</ele>
        <time>2020-11-14T10:06:52Z</time>
      </trkpt>
      <trkpt lat="38.9426240" lon="-0.2012110">
        <ele>44.4</ele>
        <time>2020-11-14T10:06:53Z</time>
      </trkpt>
      <trkpt lat="38.9425510" lon="-0.2012610">
        <ele>44.4</ele>
        <time>2020-11-14T10:06:54Z</time>
      </trkpt>
      <trkpt lat="38.9424830" lon="-0.2013170">
        <ele>44.4</ele>
        <time>2020-11-14T10:06:55Z</time>
      </trkpt>
      <trkpt lat="38.9424130" lon="-0.2013670">
        <ele>44.5</ele>
        <time>2020-11-14T10:06:56Z</time>
      </trkpt>
      <trkpt lat="38.9423490" lon="-0.2014230">
        <ele>44.5</ele>
        <time>2020-11-14T10:06:57Z</time>
      </trkpt>
      <trkpt lat="38.9422870" lon="-0.2014790">
        <ele>44.6</ele>
        <time>2020-11-14T10:06:58Z</time>
      </trkpt>
      <trkpt lat="38.9422220" lon="-0.2015330">
        <ele>44.6</ele>
        <time>2020-11-14T10:06:59Z</time>
      </trkpt>
      <trkpt lat="38.9421520" lon="-0.2015850">
        <ele>44.7</ele>
        <time>2020-11-14T10:07:00Z</time>
      </trkpt>
      <trkpt lat="38.9420880" lon="-0.2016420">
        <ele>44.7</ele>
        <time>2020-11-14T10:07:01Z</time>
      </trkpt>
      <trkpt lat="38.9420240" lon="-0.2016940">
        <ele>44.8</ele>
        <time>2020-11-14T10:07:02Z</time>
      </trkpt>
      <trkpt lat="38.9419690" lon="-0.2017480">
        <ele>44.8</ele>
        <time>2020-11-14T10:07:03Z</time>
      </trkpt>
      <trkpt lat="38.9419050" lon="-0.2018010">
        <ele>44.9</ele>
        <time>2020-11-14T10:07:04Z</time>
      </trkpt>
      <trkpt lat="38.9418370" lon="-0.2018520">
        <ele>44.9</ele>
        <time>2020-11-14T10:07:05Z</time>
      </trkpt>
      <trkpt lat="38.9417780" lon="-0.2018970">
        <ele>45.0</ele>
        <time>2020-11-14T10:07:06Z</time>
      </trkpt>
      <trkpt lat="38.9417180" lon="-0.2019550">
        <ele>45.0</ele>
        <time>2020-11-14T10:07:07Z</time>
      </trkpt>
      <trkpt lat="38.9416600" lon="-0.2020120">
        <ele>45.1</ele>
        <time>2020-11-14T10:07:08Z</time>
      </trkpt>
      <trkpt lat="38.9416060" lon="-0.2020830">
        <ele>45.2</ele>
        <time>2020-11-14T10:07:09Z</time>
      </trkpt>
      <trkpt lat="38.9415580" lon="-0.2021540">
        <ele>45.2</ele>
        <time>2020-11-14T10:07:10Z</time>
      </trkpt>
      <trkpt lat="38.9415080" lon="-0.2022180">
        <ele>45.2</ele>
        <time>2020-11-14T10:07:11Z</time>
      </trkpt>
      <trkpt lat="38.9414590" lon="-0.2022950">
        <ele>45.3</ele>
        <time>2020-11-14T10:07:12Z</time>
      </trkpt>
      <trkpt lat="38.9414230" lon="-0.2023820">
        <ele>45.4</ele>
        <time>2020-11-14T10:07:13Z</time>
      </trkpt>
      <trkpt lat="38.9413920" lon="-0.2024780">
        <ele>45.4</ele>
        <time>2020-11-14T10:07:14Z</time>
      </trkpt>
      <trkpt lat="38.9413520" lon="-0.2025610">
        <ele>45.4</ele>
        <time>2020-11-14T10:07:15Z</time>
      </trkpt>
      <trkpt lat="38.9412980" lon="-0.2026260">
        <ele>45.4</ele>
        <time>2020-11-14T10:07:16Z</time>
      </trkpt>
      <trkpt lat="38.9412320" lon="-0.2026650">
        <ele>45.5</ele>
        <time>2020-11-14T10:07:17Z</time>
      </trkpt>
      <trkpt lat="38.9411610" lon="-0.2026760">
        <ele>45.5</ele>
        <time>2020-11-14T10:07:18Z</time>
      </trkpt>
      <trkpt lat="38.9410850" lon="-0.2026690">
        <ele>45.5</ele>
        <time>2020-11-14T10:07:19Z</time>
      </trkpt>
      <trkpt lat="38.9410110" lon="-0.2026580">
        <ele>45.6</ele>
        <time>2020-11-14T10:07:20Z</time>
      </trkpt>
      <trkpt lat="38.9409380" lon="-0.2026710">
        <ele>45.7</ele>
        <time>2020-11-14T10:07:21Z</time>
      </trkpt>
      <trkpt lat="38.9408660" lon="-0.2026940">
        <ele>45.8</ele>
        <time>2020-11-14T10:07:22Z</time>
      </trkpt>
      <trkpt lat="38.9407900" lon="-0.2027080">
        <ele>45.8</ele>
        <time>2020-11-14T10:07:23Z</time>
      </trkpt>
      <trkpt lat="38.9407160" lon="-0.2027420">
        <ele>45.8</ele>
        <time>2020-11-14T10:07:24Z</time>
      </trkpt>
      <trkpt lat="38.9406420" lon="-0.2027730">
        <ele>45.9</ele>
        <time>2020-11-14T10:07:25Z</time>
      </trkpt>
      <trkpt lat="38.9405820" lon="-0.2028100">
        <ele>45.9</ele>
        <time>2020-11-14T10:07:26Z</time>
      </trkpt>
      <trkpt lat="38.9405120" lon="-0.2028490">
        <ele>45.9</ele>
        <time>2020-11-14T10:07:27Z</time>
      </trkpt>
      <trkpt lat="38.9404450" lon="-0.2029020">
        <ele>46.0</ele>
        <time>2020-11-14T10:07:28Z</time>
      </trkpt>
      <trkpt lat="38.9403780" lon="-0.2029560">
        <ele>46.0</ele>
        <time>2020-11-14T10:07:29Z</time>
      </trkpt>
      <trkpt lat="38.9403130" lon="-0.2030020">
        <ele>46.1</ele>
        <time>2020-11-14T10:07:30Z</time>
      </trkpt>
      <trkpt lat="38.9402400" lon="-0.2030420">
        <ele>46.1</ele>
        <time>2020-11-14T10:07:31Z</time>
      </trkpt>
      <trkpt lat="38.9401750" lon="-0.2030830">
        <ele>46.2</ele>
        <time>2020-11-14T10:07:32Z</time>
      </trkpt>
      <trkpt lat="38.9401100" lon="-0.2031300">
        <ele>46.2</ele>
        <time>2020-11-14T10:07:33Z</time>
      </trkpt>
      <trkpt lat="38.9400440" lon="-0.2031800">
        <ele>46.3</ele>
        <time>2020-11-14T10:07:34Z</time>
      </trkpt>
      <trkpt lat="38.9399710" lon="-0.2032340">
        <ele>46.3</ele>
        <time>2020-11-14T10:07:35Z</time>
      </trkpt>
      <trkpt lat="38.9399100" lon="-0.2032890">
        <ele>46.4</ele>
        <time>2020-11-14T10:07:36Z</time>
      </trkpt>
      <trkpt lat="38.9398460" lon="-0.2033430">
        <ele>46.4</ele>
        <time>2020-11-14T10:07:37Z</time>
      </trkpt>
      <trkpt lat="38.9397770" lon="-0.2033910">
        <ele>46.5</ele>
        <time>2020-11-14T10:07:38Z</time>
      </trkpt>
      <trkpt lat="38.9397110" lon="-0.2034460">
        <ele>46.5</ele>
        <time>2020-11-14T10:07:39Z</time>
      </trkpt>
      <trkpt lat="38.9396510" lon="-0.2034990">
        <ele>46.6</ele>
        <time>2020-11-14T10:07:40Z</time>
      </trkpt>
      <trkpt lat="38.9395830" lon="-0.2035480">
        <ele>46.6</ele>
        <time>2020-11-14T10:07:41Z</time>
      </trkpt>
      <trkpt lat="38.9395200" lon="-0.2036030">
        <ele>46.6</ele>
        <time>2020-11-14T10:07:42Z</time>
      </trkpt>
      <trkpt lat="38.9394580" lon="-0.2036660">
        <ele>46.7</ele>
        <time>2020-11-14T10:07:43Z</time>
      </trkpt>
      <trkpt lat="38.9393870" lon="-0.2037200">
        <ele>46.7</ele>
        <time>2020-11-14T10:07:44Z</time>
      </trkpt>
      <trkpt lat="38.9393240" lon="-0.2037720">
        <ele>46.8</ele>
        <time>2020-11-14T10:07:45Z</time>
      </trkpt>
      <trkpt lat="38.9392550" lon="-0.2038250">
        <ele>46.8</ele>
        <time>2020-11-14T10:07:46Z</time>
      </trkpt>
      <trkpt lat="38.9391840" lon="-0.2038790">
        <ele>46.9</ele>
        <time>2020-11-14T10:07:47Z</time>
      </trkpt>
      <trkpt lat="38.9391140" lon="-0.2039280">
        <ele>46.9</ele>
        <time>2020-11-14T10:07:48Z</time>
      </trkpt>
      <trkpt lat="38.9390520" lon="-0.2039850">
        <ele>47.0</ele>
        <time>2020-11-14T10:07:49Z</time>
      </trkpt>
      <trkpt lat="38.9389880" lon="-0.2040380">
        <ele>47.0</ele>
        <time>2020-11-14T10:07:50Z</time>
      </trkpt>
      <trkpt lat="38.9389280" lon="-0.2040870">
        <ele>47.0</ele>
        <time>2020-11-14T10:07:51Z</time>
      </trkpt>
      <trkpt lat="38.9388580" lon="-0.2041380">
        <ele>47.0</ele>
        <time>2020-11-14T10:07:52Z</time>
      </trkpt>
      <trkpt lat="38.9387930" lon="-0.2041970">
        <ele>47.1</ele>
        <time>2020-11-14T10:07:53Z</time>
      </trkpt>
      <trkpt lat="38.9387250" lon="-0.2042480">
        <ele>47.1</ele>
        <time>2020-11-14T10:07:54Z</time>
      </trkpt>
      <trkpt lat="38.9386570" lon="-0.2043000">
        <ele>47.2</ele>
        <time>2020-11-14T10:07:55Z</time>
      </trkpt>
      <trkpt lat="38.9385930" lon="-0.2043520">
        <ele>47.2</ele>
        <time>2020-11-14T10:07:56Z</time>
      </trkpt>
      <trkpt lat="38.9385250" lon="-0.2044060">
        <ele>47.2</ele>
        <time>2020-11-14T10:07:57Z</time>
      </trkpt>
      <trkpt lat="38.9384580" lon="-0.2044500">
        <ele>47.3</ele>
        <time>2020-11-14T10:07:58Z</time>
      </trkpt>
      <trkpt lat="38.9383930" lon="-0.2045030">
        <ele>47.3</ele>
        <time>2020-11-14T10:07:59Z</time>
      </trkpt>
      <trkpt lat="38.9383250" lon="-0.2045480">
        <ele>47.4</ele>
        <time>2020-11-14T10:08:00Z</time>
      </trkpt>
      <trkpt lat="38.9382640" lon="-0.2046000">
        <ele>47.4</ele>
        <time>2020-11-14T10:08:01Z</time>
      </trkpt>
      <trkpt lat="38.9381990" lon="-0.2046530">
        <ele>47.4</ele>
        <time>2020-11-14T10:08:02Z</time>
      </trkpt>
      <trkpt lat="38.9381360" lon="-0.2047060">
        <ele>47.5</ele>
        <time>2020-11-14T10:08:03Z</time>
      </trkpt>
      <trkpt lat="38.9380700" lon="-0.2047590">
        <ele>47.5</ele>
        <time>2020-11-14T10:08:04Z</time>
      </trkpt>
      <trkpt lat="38.9380080" lon="-0.2048080">
        <ele>47.5</ele>
        <time>2020-11-14T10:08:05Z</time>
      </trkpt>
      <trkpt lat="38.9379480" lon="-0.2048550">
        <ele>47.6</ele>
        <time>2020-11-14T10:08:06Z</time>
      </trkpt>
      <trkpt lat="38.9378850" lon="-0.2049070">
        <ele>47.6</ele>
        <time>2020-11-14T10:08:07Z</time>
      </trkpt>
      <trkpt lat="38.9378210" lon="-0.2049490">
        <ele>47.6</ele>
        <time>2020-11-14T10:08:08Z</time>
      </trkpt>
      <trkpt lat="38.9377470" lon="-0.2050070">
        <ele>47.6</ele>
        <time>2020-11-14T10:08:09Z</time>
      </trkpt>
      <trkpt lat="38.9376840" lon="-0.2050580">
        <ele>47.6</ele>
        <time>2020-11-14T10:08:10Z</time>
      </trkpt>
      <trkpt lat="38.9376290" lon="-0.2051170">
        <ele>47.6</ele>
        <time>2020-11-14T10:08:11Z</time>
      </trkpt>
      <trkpt lat="38.9375710" lon="-0.2051820">
        <ele>47.6</ele>
        <time>2020-11-14T10:08:12Z</time>
      </trkpt>
      <trkpt lat="38.9375130" lon="-0.2052530">
        <ele>47.6</ele>
        <time>2020-11-14T10:08:13Z</time>
      </trkpt>
      <trkpt lat="38.9374550" lon="-0.2053240">
        <ele>47.6</ele>
        <time>2020-11-14T10:08:14Z</time>
      </trkpt>
      <trkpt lat="38.9373950" lon="-0.2053910">
        <ele>47.6</ele>
        <time>2020-11-14T10:08:15Z</time>
      </trkpt>
      <trkpt lat="38.9373440" lon="-0.2054660">
        <ele>47.7</ele>
        <time>2020-11-14T10:08:16Z</time>
      </trkpt>
      <trkpt lat="38.9372840" lon="-0.2055350">
        <ele>47.7</ele>
        <time>2020-11-14T10:08:17Z</time>
      </trkpt>
      <trkpt lat="38.9372350" lon="-0.2056130">
        <ele>47.7</ele>
        <time>2020-11-14T10:08:18Z</time>
      </trkpt>
      <trkpt lat="38.9371790" lon="-0.2056960">
        <ele>47.7</ele>
        <time>2020-11-14T10:08:19Z</time>
      </trkpt>
      <trkpt lat="38.9371290" lon="-0.2057710">
        <ele>47.8</ele>
        <time>2020-11-14T10:08:20Z</time>
      </trkpt>
      <trkpt lat="38.9370810" lon="-0.2058510">
        <ele>47.8</ele>
        <time>2020-11-14T10:08:21Z</time>
      </trkpt>
      <trkpt lat="38.9370300" lon="-0.2059230">
        <ele>47.9</ele>
        <time>2020-11-14T10:08:22Z</time>
      </trkpt>
      <trkpt lat="38.9369840" lon="-0.2059900">
        <ele>47.9</ele>
        <time>2020-11-14T10:08:23Z</time>
      </trkpt>
      <trkpt lat="38.9369430" lon="-0.2060770">
        <ele>48.0</ele>
        <time>2020-11-14T10:08:24Z</time>
      </trkpt>
      <trkpt lat="38.9369000" lon="-0.2061610">
        <ele>48.0</ele>
        <time>2020-11-14T10:08:25Z</time>
      </trkpt>
      <trkpt lat="38.9368610" lon="-0.2062490">
        <ele>48.1</ele>
        <time>2020-11-14T10:08:26Z</time>
      </trkpt>
      <trkpt lat="38.9368180" lon="-0.2063300">
        <ele>48.1</ele>
        <time>2020-11-14T10:08:27Z</time>
      </trkpt>
      <trkpt lat="38.9367700" lon="-0.2064090">
        <ele>48.1</ele>
        <time>2020-11-14T10:08:28Z</time>
      </trkpt>
      <trkpt lat="38.9367290" lon="-0.2064990">
        <ele>48.1</ele>
        <time>2020-11-14T10:08:29Z</time>
      </trkpt>
      <trkpt lat="38.9366920" lon="-0.2065830">
        <ele>48.2</ele>
        <time>2020-11-14T10:08:30Z</time>
      </trkpt>
      <trkpt lat="38.9366630" lon="-0.2066680">
        <ele>48.2</ele>
        <time>2020-11-14T10:08:31Z</time>
      </trkpt>
      <trkpt lat="38.9366280" lon="-0.2067520">
        <ele>48.3</ele>
        <time>2020-11-14T10:08:32Z</time>
      </trkpt>
      <trkpt lat="38.9365860" lon="-0.2068380">
        <ele>48.4</ele>
        <time>2020-11-14T10:08:33Z</time>
      </trkpt>
      <trkpt lat="38.9365520" lon="-0.2069190">
        <ele>48.4</ele>
        <time>2020-11-14T10:08:34Z</time>
      </trkpt>
      <trkpt lat="38.9365180" lon="-0.2070070">
        <ele>48.5</ele>
        <time>2020-11-14T10:08:35Z</time>
      </trkpt>
      <trkpt lat="38.9364830" lon="-0.2070880">
        <ele>48.5</ele>
        <time>2020-11-14T10:08:36Z</time>
      </trkpt>
      <trkpt lat="38.9364450" lon="-0.2071690">
        <ele>48.5</ele>
        <time>2020-11-14T10:08:37Z</time>
      </trkpt>
      <trkpt lat="38.9364140" lon="-0.2072500">
        <ele>48.6</ele>
        <time>2020-11-14T10:08:38Z</time>
      </trkpt>
      <trkpt lat="38.9363810" lon="-0.2073350">
        <ele>48.6</ele>
        <time>2020-11-14T10:08:39Z</time>
      </trkpt>
      <trkpt lat="38.9363520" lon="-0.2074130">
        <ele>48.7</ele>
        <time>2020-11-14T10:08:40Z</time>
      </trkpt>
      <trkpt lat="38.9363180" lon="-0.2074980">
        <ele>48.7</ele>
        <time>2020-11-14T10:08:41Z</time>
      </trkpt>
      <trkpt lat="38.9362830" lon="-0.2075780">
        <ele>48.7</ele>
        <time>2020-11-14T10:08:42Z</time>
      </trkpt>
      <trkpt lat="38.9362440" lon="-0.2076590">
        <ele>48.8</ele>
        <time>2020-11-14T10:08:43Z</time>
      </trkpt>
      <trkpt lat="38.9362160" lon="-0.2077360">
        <ele>48.9</ele>
        <time>2020-11-14T10:08:44Z</time>
      </trkpt>
      <trkpt lat="38.9361790" lon="-0.2078180">
        <ele>49.0</ele>
        <time>2020-11-14T10:08:45Z</time>
      </trkpt>
      <trkpt lat="38.9361420" lon="-0.2079010">
        <ele>49.1</ele>
        <time>2020-11-14T10:08:46Z</time>
      </trkpt>
      <trkpt lat="38.9361070" lon="-0.2079820">
        <ele>49.2</ele>
        <time>2020-11-14T10:08:47Z</time>
      </trkpt>
      <trkpt lat="38.9360710" lon="-0.2080560">
        <ele>49.2</ele>
        <time>2020-11-14T10:08:48Z</time>
      </trkpt>
      <trkpt lat="38.9360420" lon="-0.2081280">
        <ele>49.3</ele>
        <time>2020-11-14T10:08:49Z</time>
      </trkpt>
      <trkpt lat="38.9360040" lon="-0.2082140">
        <ele>49.5</ele>
        <time>2020-11-14T10:08:50Z</time>
      </trkpt>
      <trkpt lat="38.9359690" lon="-0.2082910">
        <ele>49.6</ele>
        <time>2020-11-14T10:08:51Z</time>
      </trkpt>
      <trkpt lat="38.9359350" lon="-0.2083680">
        <ele>49.7</ele>
        <time>2020-11-14T10:08:52Z</time>
      </trkpt>
      <trkpt lat="38.9359020" lon="-0.2084470">
        <ele>49.9</ele>
        <time>2020-11-14T10:08:53Z</time>
      </trkpt>
      <trkpt lat="38.9358740" lon="-0.2085140">
        <ele>50.0</ele>
        <time>2020-11-14T10:08:54Z</time>
      </trkpt>
      <trkpt lat="38.9358420" lon="-0.2085880">
        <ele>50.2</ele>
        <time>2020-11-14T10:08:55Z</time>
      </trkpt>
      <trkpt lat="38.9358090" lon="-0.2086580">
        <ele>50.4</ele>
        <time>2020-11-14T10:08:56Z</time>
      </trkpt>
      <trkpt lat="38.9357790" lon="-0.2087290">
        <ele>50.5</ele>
        <time>2020-11-14T10:08:57Z</time>
      </trkpt>
      <trkpt lat="38.9357380" lon="-0.2088290">
        <ele>50.7</ele>
        <time>2020-11-14T10:08:58Z</time>
      </trkpt>
      <trkpt lat="38.9357050" lon="-0.2088960">
        <ele>50.8</ele>
        <time>2020-11-14T10:08:59Z</time>
      </trkpt>
      <trkpt lat="38.9356790" lon="-0.2089710">
        <ele>51.0</ele>
        <time>2020-11-14T10:09:00Z</time>
      </trkpt>
      <trkpt lat="38.9356490" lon="-0.2090430">
        <ele>51.1</ele>
        <time>2020-11-14T10:09:01Z</time>
      </trkpt>
      <trkpt lat="38.9356320" lon="-0.2091150">
        <ele>51.2</ele>
        <time>2020-11-14T10:09:02Z</time>
      </trkpt>
      <trkpt lat="38.9356030" lon="-0.2091880">
        <ele>51.3</ele>
        <time>2020-11-14T10:09:03Z</time>
      </trkpt>
      <trkpt lat="38.9355710" lon="-0.2092600">
        <ele>51.4</ele>
        <time>2020-11-14T10:09:04Z</time>
      </trkpt>
      <trkpt lat="38.9355370" lon="-0.2093310">
        <ele>51.5</ele>
        <time>2020-11-14T10:09:05Z</time>
      </trkpt>
      <trkpt lat="38.9355150" lon="-0.2094030">
        <ele>51.6</ele>
        <time>2020-11-14T10:09:06Z</time>
      </trkpt>
      <trkpt lat="38.9354640" lon="-0.2094860">
        <ele>51.8</ele>
        <time>2020-11-14T10:09:07Z</time>
      </trkpt>
      <trkpt lat="38.9354500" lon="-0.2095550">
        <ele>51.9</ele>
        <time>2020-11-14T10:09:08Z</time>
      </trkpt>
      <trkpt lat="38.9354260" lon="-0.2096140">
        <ele>52.0</ele>
        <time>2020-11-14T10:09:09Z</time>
      </trkpt>
      <trkpt lat="38.9353970" lon="-0.2096840">
        <ele>52.1</ele>
        <time>2020-11-14T10:09:10Z</time>
      </trkpt>
      <trkpt lat="38.9353690" lon="-0.2097510">
        <ele>52.2</ele>
        <time>2020-11-14T10:09:11Z</time>
      </trkpt>
      <trkpt lat="38.9353400" lon="-0.2098230">
        <ele>52.3</ele>
        <time>2020-11-14T10:09:12Z</time>
      </trkpt>
      <trkpt lat="38.9353070" lon="-0.2098820">
        <ele>52.3</ele>
        <time>2020-11-14T10:09:13Z</time>
      </trkpt>
      <trkpt lat="38.9352800" lon="-0.2099400">
        <ele>52.4</ele>
        <time>2020-11-14T10:09:14Z</time>
      </trkpt>
      <trkpt lat="38.9352540" lon="-0.2100050">
        <ele>52.4</ele>
        <time>2020-11-14T10:09:15Z</time>
      </trkpt>
      <trkpt lat="38.9352240" lon="-0.2100760">
        <ele>52.5</ele>
        <time>2020-11-14T10:09:16Z</time>
      </trkpt>
      <trkpt lat="38.9351830" lon="-0.2101410">
        <ele>52.5</ele>
        <time>2020-11-14T10:09:17Z</time>
      </trkpt>
      <trkpt lat="38.9351570" lon="-0.2102120">
        <ele>52.6</ele>
        <time>2020-11-14T10:09:18Z</time>
      </trkpt>
      <trkpt lat="38.9351270" lon="-0.2102870">
        <ele>52.6</ele>
        <time>2020-11-14T10:09:19Z</time>
      </trkpt>
      <trkpt lat="38.9351070" lon="-0.2103550">
        <ele>52.7</ele>
        <time>2020-11-14T10:09:20Z</time>
      </trkpt>
      <trkpt lat="38.9350790" lon="-0.2104230">
        <ele>52.7</ele>
        <time>2020-11-14T10:09:21Z</time>
      </trkpt>
      <trkpt lat="38.9350540" lon="-0.2105020">
        <ele>52.7</ele>
        <time>2020-11-14T10:09:22Z</time>
      </trkpt>
      <trkpt lat="38.9350300" lon="-0.2105760">
        <ele>52.8</ele>
        <time>2020-11-14T10:09:23Z</time>
      </trkpt>
      <trkpt lat="38.9350150" lon="-0.2106620">
        <ele>52.9</ele>
        <time>2020-11-14T10:09:24Z</time>
      </trkpt>
      <trkpt lat="38.9350110" lon="-0.2107320">
        <ele>53.0</ele>
        <time>2020-11-14T10:09:25Z</time>
      </trkpt>
      <trkpt lat="38.9350080" lon="-0.2108120">
        <ele>53.0</ele>
        <time>2020-11-14T10:09:26Z</time>
      </trkpt>
      <trkpt lat="38.9350130" lon="-0.2108950">
        <ele>53.2</ele>
        <time>2020-11-14T10:09:27Z</time>
      </trkpt>
      <trkpt lat="38.9350290" lon="-0.2109810">
        <ele>53.2</ele>
        <time>2020-11-14T10:09:28Z</time>
      </trkpt>
      <trkpt lat="38.9350240" lon="-0.2110590">
        <ele>53.3</ele>
        <time>2020-11-14T10:09:29Z</time>
      </trkpt>
      <trkpt lat="38.9350050" lon="-0.2111350">
        <ele>53.3</ele>
        <time>2020-11-14T10:09:30Z</time>
      </trkpt>
      <trkpt lat="38.9349690" lon="-0.2112060">
        <ele>53.3</ele>
        <time>2020-11-14T10:09:31Z</time>
      </trkpt>
      <trkpt lat="38.9349340" lon="-0.2112620">
        <ele>53.3</ele>
        <time>2020-11-14T10:09:32Z</time>
      </trkpt>
      <trkpt lat="38.9348830" lon="-0.2113110">
        <ele>53.3</ele>
        <time>2020-11-14T10:09:33Z</time>
      </trkpt>
      <trkpt lat="38.9348310" lon="-0.2113530">
        <ele>53.3</ele>
        <time>2020-11-14T10:09:34Z</time>
      </trkpt>
      <trkpt lat="38.9347660" lon="-0.2113920">
        <ele>53.3</ele>
        <time>2020-11-14T10:09:35Z</time>
      </trkpt>
      <trkpt lat="38.9347040" lon="-0.2114370">
        <ele>53.3</ele>
        <time>2020-11-14T10:09:36Z</time>
      </trkpt>
      <trkpt lat="38.9346540" lon="-0.2114900">
        <ele>53.3</ele>
        <time>2020-11-14T10:09:37Z</time>
      </trkpt>
      <trkpt lat="38.9346110" lon="-0.2115540">
        <ele>53.3</ele>
        <time>2020-11-14T10:09:38Z</time>
      </trkpt>
      <trkpt lat="38.9345670" lon="-0.2116210">
        <ele>53.3</ele>
        <time>2020-11-14T10:09:39Z</time>
      </trkpt>
      <trkpt lat="38.9345280" lon="-0.2116940">
        <ele>53.3</ele>
        <time>2020-11-14T10:09:40Z</time>
      </trkpt>
      <trkpt lat="38.9344920" lon="-0.2117700">
        <ele>53.3</ele>
        <time>2020-11-14T10:09:41Z</time>
      </trkpt>
      <trkpt lat="38.9344650" lon="-0.2118480">
        <ele>53.2</ele>
        <time>2020-11-14T10:09:42Z</time>
      </trkpt>
      <trkpt lat="38.9344310" lon="-0.2119110">
        <ele>53.2</ele>
        <time>2020-11-14T10:09:43Z</time>
      </trkpt>
      <trkpt lat="38.9344000" lon="-0.2119840">
        <ele>53.2</ele>
        <time>2020-11-14T10:09:44Z</time>
      </trkpt>
      <trkpt lat="38.9343680" lon="-0.2120520">
        <ele>53.2</ele>
        <time>2020-11-14T10:09:45Z</time>
      </trkpt>
      <trkpt lat="38.9343360" lon="-0.2121280">
        <ele>53.2</ele>
        <time>2020-11-14T10:09:46Z</time>
      </trkpt>
      <trkpt lat="38.9343020" lon="-0.2122050">
        <ele>53.3</ele>
        <time>2020-11-14T10:09:47Z</time>
      </trkpt>
      <trkpt lat="38.9342670" lon="-0.2122750">
        <ele>53.3</ele>
        <time>2020-11-14T10:09:48Z</time>
      </trkpt>
      <trkpt lat="38.9342350" lon="-0.2123470">
        <ele>53.3</ele>
        <time>2020-11-14T10:09:49Z</time>
      </trkpt>
      <trkpt lat="38.9342030" lon="-0.2124200">
        <ele>53.3</ele>
        <time>2020-11-14T10:09:50Z</time>
      </trkpt>
      <trkpt lat="38.9341700" lon="-0.2124960">
        <ele>53.4</ele>
        <time>2020-11-14T10:09:51Z</time>
      </trkpt>
      <trkpt lat="38.9341370" lon="-0.2125690">
        <ele>53.5</ele>
        <time>2020-11-14T10:09:52Z</time>
      </trkpt>
      <trkpt lat="38.9341060" lon="-0.2126450">
        <ele>53.5</ele>
        <time>2020-11-14T10:09:53Z</time>
      </trkpt>
      <trkpt lat="38.9340740" lon="-0.2127220">
        <ele>53.6</ele>
        <time>2020-11-14T10:09:54Z</time>
      </trkpt>
      <trkpt lat="38.9340400" lon="-0.2127920">
        <ele>53.7</ele>
        <time>2020-11-14T10:09:55Z</time>
      </trkpt>
      <trkpt lat="38.9340120" lon="-0.2128610">
        <ele>53.8</ele>
        <time>2020-11-14T10:09:56Z</time>
      </trkpt>
      <trkpt lat="38.9339810" lon="-0.2129340">
        <ele>53.8</ele>
        <time>2020-11-14T10:09:57Z</time>
      </trkpt>
      <trkpt lat="38.9339490" lon="-0.2130070">
        <ele>53.9</ele>
        <time>2020-11-14T10:09:58Z</time>
      </trkpt>
      <trkpt lat="38.9339200" lon="-0.2130730">
        <ele>53.9</ele>
        <time>2020-11-14T10:09:59Z</time>
      </trkpt>
      <trkpt lat="38.9338870" lon="-0.2131430">
        <ele>53.9</ele>
        <time>2020-11-14T10:10:00Z</time>
      </trkpt>
      <trkpt lat="38.9338540" lon="-0.2132170">
        <ele>53.9</ele>
        <time>2020-11-14T10:10:01Z</time>
      </trkpt>
      <trkpt lat="38.9338220" lon="-0.2132920">
        <ele>53.9</ele>
        <time>2020-11-14T10:10:02Z</time>
      </trkpt>
      <trkpt lat="38.9337900" lon="-0.2133640">
        <ele>54.0</ele>
        <time>2020-11-14T10:10:03Z</time>
      </trkpt>
      <trkpt lat="38.9337590" lon="-0.2134370">
        <ele>54.0</ele>
        <time>2020-11-14T10:10:04Z</time>
      </trkpt>
      <trkpt lat="38.9337260" lon="-0.2135080">
        <ele>54.1</ele>
        <time>2020-11-14T10:10:05Z</time>
      </trkpt>
      <trkpt lat="38.9336990" lon="-0.2135820">
        <ele>54.1</ele>
        <time>2020-11-14T10:10:06Z</time>
      </trkpt>
      <trkpt lat="38.9336640" lon="-0.2136500">
        <ele>54.1</ele>
        <time>2020-11-14T10:10:07Z</time>
      </trkpt>
      <trkpt lat="38.9336340" lon="-0.2137240">
        <ele>54.2</ele>
        <time>2020-11-14T10:10:08Z</time>
      </trkpt>
      <trkpt lat="38.9336090" lon="-0.2137920">
        <ele>54.2</ele>
        <time>2020-11-14T10:10:09Z</time>
      </trkpt>
      <trkpt lat="38.9335780" lon="-0.2138620">
        <ele>54.3</ele>
        <time>2020-11-14T10:10:10Z</time>
      </trkpt>
      <trkpt lat="38.9335450" lon="-0.2139360">
        <ele>54.4</ele>
        <time>2020-11-14T10:10:11Z</time>
      </trkpt>
      <trkpt lat="38.9335090" lon="-0.2140090">
        <ele>54.4</ele>
        <time>2020-11-14T10:10:12Z</time>
      </trkpt>
      <trkpt lat="38.9334750" lon="-0.2140830">
        <ele>54.5</ele>
        <time>2020-11-14T10:10:13Z</time>
      </trkpt>
      <trkpt lat="38.9334450" lon="-0.2141570">
        <ele>54.6</ele>
        <time>2020-11-14T10:10:14Z</time>
      </trkpt>
      <trkpt lat="38.9334200" lon="-0.2142290">
        <ele>54.6</ele>
        <time>2020-11-14T10:10:15Z</time>
      </trkpt>
      <trkpt lat="38.9333910" lon="-0.2143030">
        <ele>54.7</ele>
        <time>2020-11-14T10:10:16Z</time>
      </trkpt>
      <trkpt lat="38.9333500" lon="-0.2143830">
        <ele>54.9</ele>
        <time>2020-11-14T10:10:17Z</time>
      </trkpt>
      <trkpt lat="38.9333220" lon="-0.2144600">
        <ele>55.0</ele>
        <time>2020-11-14T10:10:18Z</time>
      </trkpt>
      <trkpt lat="38.9332970" lon="-0.2145400">
        <ele>55.2</ele>
        <time>2020-11-14T10:10:19Z</time>
      </trkpt>
      <trkpt lat="38.9332640" lon="-0.2146140">
        <ele>55.4</ele>
        <time>2020-11-14T10:10:20Z</time>
      </trkpt>
      <trkpt lat="38.9332320" lon="-0.2146850">
        <ele>55.6</ele>
        <time>2020-11-14T10:10:21Z</time>
      </trkpt>
      <trkpt lat="38.9331990" lon="-0.2147550">
        <ele>55.8</ele>
        <time>2020-11-14T10:10:22Z</time>
      </trkpt>
      <trkpt lat="38.9331680" lon="-0.2148270">
        <ele>56.0</ele>
        <time>2020-11-14T10:10:23Z</time>
      </trkpt>
      <trkpt lat="38.9331390" lon="-0.2148900">
        <ele>56.3</ele>
        <time>2020-11-14T10:10:24Z</time>
      </trkpt>
      <trkpt lat="38.9331070" lon="-0.2149570">
        <ele>56.5</ele>
        <time>2020-11-14T10:10:25Z</time>
      </trkpt>
      <trkpt lat="38.9330740" lon="-0.2150310">
        <ele>56.8</ele>
        <time>2020-11-14T10:10:26Z</time>
      </trkpt>
      <trkpt lat="38.9330490" lon="-0.2150920">
        <ele>57.1</ele>
        <time>2020-11-14T10:10:27Z</time>
      </trkpt>
      <trkpt lat="38.9330120" lon="-0.2151600">
        <ele>57.4</ele>
        <time>2020-11-14T10:10:28Z</time>
      </trkpt>
      <trkpt lat="38.9329830" lon="-0.2152180">
        <ele>57.6</ele>
        <time>2020-11-14T10:10:29Z</time>
      </trkpt>
      <trkpt lat="38.9329510" lon="-0.2152830">
        <ele>57.9</ele>
        <time>2020-11-14T10:10:30Z</time>
      </trkpt>
      <trkpt lat="38.9329260" lon="-0.2153470">
        <ele>58.0</ele>
        <time>2020-11-14T10:10:31Z</time>
      </trkpt>
      <trkpt lat="38.9329020" lon="-0.2153930">
        <ele>58.1</ele>
        <time>2020-11-14T10:10:32Z</time>
      </trkpt>
      <trkpt lat="38.9328790" lon="-0.2154570">
        <ele>58.2</ele>
        <time>2020-11-14T10:10:33Z</time>
      </trkpt>
      <trkpt lat="38.9328550" lon="-0.2155180">
        <ele>58.2</ele>
        <time>2020-11-14T10:10:34Z</time>
      </trkpt>
      <trkpt lat="38.9328360" lon="-0.2155770">
        <ele>58.3</ele>
        <time>2020-11-14T10:10:35Z</time>
      </trkpt>
      <trkpt lat="38.9328500" lon="-0.2156450">
        <ele>58.4</ele>
        <time>2020-11-14T10:10:36Z</time>
      </trkpt>
      <trkpt lat="38.9328510" lon="-0.2157210">
        <ele>58.5</ele>
        <time>2020-11-14T10:10:37Z</time>
      </trkpt>
      <trkpt lat="38.9328540" lon="-0.2157840">
        <ele>58.6</ele>
        <time>2020-11-14T10:10:38Z</time>
      </trkpt>
      <trkpt lat="38.9328620" lon="-0.2158590">
        <ele>58.8</ele>
        <time>2020-11-14T10:10:39Z</time>
      </trkpt>
      <trkpt lat="38.9328520" lon="-0.2159330">
        <ele>58.9</ele>
        <time>2020-11-14T10:10:40Z</time>
      </trkpt>
      <trkpt lat="38.9328330" lon="-0.2160070">
        <ele>59.0</ele>
        <time>2020-11-14T10:10:41Z</time>
      </trkpt>
      <trkpt lat="38.9328140" lon="-0.2160830">
        <ele>59.1</ele>
        <time>2020-11-14T10:10:42Z</time>
      </trkpt>
      <trkpt lat="38.9327760" lon="-0.2161550">
        <ele>59.1</ele>
        <time>2020-11-14T10:10:43Z</time>
      </trkpt>
      <trkpt lat="38.9327320" lon="-0.2162190">
        <ele>59.2</ele>
        <time>2020-11-14T10:10:44Z</time>
      </trkpt>
      <trkpt lat="38.9326760" lon="-0.2162690">
        <ele>59.2</ele>
        <time>2020-11-14T10:10:45Z</time>
      </trkpt>
      <trkpt lat="38.9326180" lon="-0.2163090">
        <ele>59.2</ele>
        <time>2020-11-14T10:10:46Z</time>
      </trkpt>
      <trkpt lat="38.9325570" lon="-0.2163290">
        <ele>59.2</ele>
        <time>2020-11-14T10:10:47Z</time>
      </trkpt>
      <trkpt lat="38.9324960" lon="-0.2163450">
        <ele>59.2</ele>
        <time>2020-11-14T10:10:48Z</time>
      </trkpt>
      <trkpt lat="38.9324320" lon="-0.2163600">
        <ele>59.0</ele>
        <time>2020-11-14T10:10:49Z</time>
      </trkpt>
      <trkpt lat="38.9323750" lon="-0.2163870">
        <ele>58.6</ele>
        <time>2020-11-14T10:10:50Z</time>
      </trkpt>
      <trkpt lat="38.9323180" lon="-0.2164340">
        <ele>58.2</ele>
        <time>2020-11-14T10:10:51Z</time>
      </trkpt>
      <trkpt lat="38.9322700" lon="-0.2164890">
        <ele>57.7</ele>
        <time>2020-11-14T10:10:52Z</time>
      </trkpt>
      <trkpt lat="38.9322240" lon="-0.2165550">
        <ele>57.2</ele>
        <time>2020-11-14T10:10:53Z</time>
      </trkpt>
      <trkpt lat="38.9321820" lon="-0.2166240">
        <ele>56.9</ele>
        <time>2020-11-14T10:10:54Z</time>
      </trkpt>
      <trkpt lat="38.9321370" lon="-0.2166980">
        <ele>56.7</ele>
        <time>2020-11-14T10:10:55Z</time>
      </trkpt>
      <trkpt lat="38.9320980" lon="-0.2167740">
        <ele>56.4</ele>
        <time>2020-11-14T10:10:56Z</time>
      </trkpt>
      <trkpt lat="38.9320570" lon="-0.2168490">
        <ele>56.0</ele>
        <time>2020-11-14T10:10:57Z</time>
      </trkpt>
      <trkpt lat="38.9320140" lon="-0.2169320">
        <ele>55.5</ele>
        <time>2020-11-14T10:10:58Z</time>
      </trkpt>
      <trkpt lat="38.9319680" lon="-0.2170150">
        <ele>55.1</ele>
        <time>2020-11-14T10:10:59Z</time>
      </trkpt>
      <trkpt lat="38.9319230" lon="-0.2171010">
        <ele>54.6</ele>
        <time>2020-11-14T10:11:00Z</time>
      </trkpt>
      <trkpt lat="38.9318770" lon="-0.2171810">
        <ele>54.1</ele>
        <time>2020-11-14T10:11:01Z</time>
      </trkpt>
      <trkpt lat="38.9318300" lon="-0.2172670">
        <ele>53.6</ele>
        <time>2020-11-14T10:11:02Z</time>
      </trkpt>
      <trkpt lat="38.9317810" lon="-0.2173510">
        <ele>53.1</ele>
        <time>2020-11-14T10:11:03Z</time>
      </trkpt>
      <trkpt lat="38.9317280" lon="-0.2174410">
        <ele>52.5</ele>
        <time>2020-11-14T10:11:04Z</time>
      </trkpt>
      <trkpt lat="38.9316790" lon="-0.2175320">
        <ele>52.1</ele>
        <time>2020-11-14T10:11:05Z</time>
      </trkpt>
      <trkpt lat="38.9316260" lon="-0.2176260">
        <ele>51.6</ele>
        <time>2020-11-14T10:11:06Z</time>
      </trkpt>
      <trkpt lat="38.9315770" lon="-0.2177170">
        <ele>51.3</ele>
        <time>2020-11-14T10:11:07Z</time>
      </trkpt>
      <trkpt lat="38.9315280" lon="-0.2178120">
        <ele>51.0</ele>
        <time>2020-11-14T10:11:08Z</time>
      </trkpt>
      <trkpt lat="38.9314830" lon="-0.2179150">
        <ele>50.7</ele>
        <time>2020-11-14T10:11:09Z</time>
      </trkpt>
      <trkpt lat="38.9314310" lon="-0.2180120">
        <ele>50.4</ele>
        <time>2020-11-14T10:11:10Z</time>
      </trkpt>
      <trkpt lat="38.9313780" lon="-0.2181160">
        <ele>50.2</ele>
        <time>2020-11-14T10:11:11Z</time>
      </trkpt>
      <trkpt lat="38.9313170" lon="-0.2182150">
        <ele>50.0</ele>
        <time>2020-11-14T10:11:12Z</time>
      </trkpt>
      <trkpt lat="38.9312670" lon="-0.2183030">
        <ele>49.8</ele>
        <time>2020-11-14T10:11:13Z</time>
      </trkpt>
      <trkpt lat="38.9312140" lon="-0.2183980">
        <ele>49.7</ele>
        <time>2020-11-14T10:11:14Z</time>
      </trkpt>
      <trkpt lat="38.9311660" lon="-0.2184930">
        <ele>49.7</ele>
        <time>2020-11-14T10:11:15Z</time>
      </trkpt>
      <trkpt lat="38.9311350" lon="-0.2186010">
        <ele>49.7</ele>
        <time>2020-11-14T10:11:16Z</time>
      </trkpt>
      <trkpt lat="38.9311130" lon="-0.2187020">
        <ele>49.8</ele>
        <time>2020-11-14T10:11:17Z</time>
      </trkpt>
      <trkpt lat="38.9310990" lon="-0.2188010">
        <ele>49.8</ele>
        <time>2020-11-14T10:11:18Z</time>
      </trkpt>
      <trkpt lat="38.9311130" lon="-0.2188920">
        <ele>49.9</ele>
        <time>2020-11-14T10:11:19Z</time>
      </trkpt>
      <trkpt lat="38.9311570" lon="-0.2189500">
        <ele>50.2</ele>
        <time>2020-11-14T10:11:20Z</time>
      </trkpt>
      <trkpt lat="38.9312160" lon="-0.2189850">
        <ele>50.2</ele>
        <time>2020-11-14T10:11:21Z</time>
      </trkpt>
      <trkpt lat="38.9312850" lon="-0.2190010">
        <ele>50.2</ele>
        <time>2020-11-14T10:11:22Z</time>
      </trkpt>
      <trkpt lat="38.9313780" lon="-0.2190020">
        <ele>50.3</ele>
        <time>2020-11-14T10:11:23Z</time>
      </trkpt>
      <trkpt lat="38.9314390" lon="-0.2189870">
        <ele>50.3</ele>
        <time>2020-11-14T10:11:24Z</time>
      </trkpt>
      <trkpt lat="38.9314830" lon="-0.2189820">
        <ele>50.4</ele>
        <time>2020-11-14T10:11:25Z</time>
      </trkpt>
      <trkpt lat="38.9315170" lon="-0.2189730">
        <ele>50.4</ele>
        <time>2020-11-14T10:11:26Z</time>
      </trkpt>
      <trkpt lat="38.9315460" lon="-0.2189600">
        <ele>50.4</ele>
        <time>2020-11-14T10:11:27Z</time>
      </trkpt>
      <trkpt lat="38.9315590" lon="-0.2189480">
        <ele>50.5</ele>
        <time>2020-11-14T10:11:28Z</time>
      </trkpt>
      <trkpt lat="38.9315590" lon="-0.2189480">
        <ele>50.5</ele>
        <time>2020-11-14T10:11:29Z</time>
      </trkpt>
      <trkpt lat="38.9315590" lon="-0.2189480">
        <ele>50.5</ele>
        <time>2020-11-14T10:11:30Z</time>
      </trkpt>
      <trkpt lat="38.9315590" lon="-0.2189480">
        <ele>50.5</ele>
        <time>2020-11-14T10:11:31Z</time>
      </trkpt>
      <trkpt lat="38.9315780" lon="-0.2189590">
        <ele>50.5</ele>
        <time>2020-11-14T10:11:32Z</time>
      </trkpt>
      <trkpt lat="38.9315780" lon="-0.2189590">
        <ele>50.5</ele>
        <time>2020-11-14T10:11:33Z</time>
      </trkpt>
      <trkpt lat="38.9315640" lon="-0.2189610">
        <ele>50.5</ele>
        <time>2020-11-14T10:11:34Z</time>
      </trkpt>
      <trkpt lat="38.9315640" lon="-0.2189610">
        <ele>50.5</ele>
        <time>2020-11-14T10:11:35Z</time>
      </trkpt>
      <trkpt lat="38.9315670" lon="-0.2189370">
        <ele>50.5</ele>
        <time>2020-11-14T10:11:36Z</time>
      </trkpt>
      <trkpt lat="38.9315670" lon="-0.2189370">
        <ele>50.5</ele>
        <time>2020-11-14T10:11:37Z</time>
      </trkpt>
      <trkpt lat="38.9315660" lon="-0.2189310">
        <ele>50.5</ele>
        <time>2020-11-14T10:11:38Z</time>
      </trkpt>
      <trkpt lat="38.9315480" lon="-0.2189330">
        <ele>50.6</ele>
        <time>2020-11-14T10:11:39Z</time>
      </trkpt>
      <trkpt lat="38.9315460" lon="-0.2189290">
        <ele>50.6</ele>
        <time>2020-11-14T10:11:40Z</time>
      </trkpt>
      <trkpt lat="38.9315500" lon="-0.2189280">
        <ele>50.6</ele>
        <time>2020-11-14T10:11:41Z</time>
      </trkpt>
      <trkpt lat="38.9315550" lon="-0.2189270">
        <ele>50.6</ele>
        <time>2020-11-14T10:13:13Z</time>
      </trkpt>
      <trkpt lat="38.9315590" lon="-0.2189260">
        <ele>50.6</ele>
        <time>2020-11-14T10:13:14Z</time>
      </trkpt>
      <trkpt lat="38.9315640" lon="-0.2189240">
        <ele>50.6</ele>
        <time>2020-11-14T10:13:15Z</time>
      </trkpt>
      <trkpt lat="38.9315690" lon="-0.2189230">
        <ele>50.6</ele>
        <time>2020-11-14T10:13:16Z</time>
      </trkpt>
      <trkpt lat="38.9315730" lon="-0.2189220">
        <ele>50.6</ele>
        <time>2020-11-14T10:13:17Z</time>
      </trkpt>
      <trkpt lat="38.9315780" lon="-0.2189210">
        <ele>50.6</ele>
        <time>2020-11-14T10:13:18Z</time>
      </trkpt>
      <trkpt lat="38.9315820" lon="-0.2189200">
        <ele>50.6</ele>
        <time>2020-11-14T10:13:19Z</time>
      </trkpt>
      <trkpt lat="38.9315870" lon="-0.2189190">
        <ele>50.6</ele>
        <time>2020-11-14T10:13:20Z</time>
      </trkpt>
      <trkpt lat="38.9315910" lon="-0.2189180">
        <ele>50.6</ele>
        <time>2020-11-14T10:13:21Z</time>
      </trkpt>
      <trkpt lat="38.9315960" lon="-0.2189170">
        <ele>50.6</ele>
        <time>2020-11-14T10:13:22Z</time>
      </trkpt>
      <trkpt lat="38.9316010" lon="-0.2189150">
        <ele>50.7</ele>
        <time>2020-11-14T10:13:23Z</time>
      </trkpt>
      <trkpt lat="38.9316050" lon="-0.2189140">
        <ele>50.7</ele>
        <time>2020-11-14T10:13:24Z</time>
      </trkpt>
      <trkpt lat="38.9316100" lon="-0.2189130">
        <ele>50.7</ele>
        <time>2020-11-14T10:13:25Z</time>
      </trkpt>
      <trkpt lat="38.9316140" lon="-0.2189120">
        <ele>50.7</ele>
        <time>2020-11-14T10:13:31Z</time>
      </trkpt>
      <trkpt lat="38.9316190" lon="-0.2189110">
        <ele>50.7</ele>
        <time>2020-11-14T10:13:32Z</time>
      </trkpt>
      <trkpt lat="38.9316480" lon="-0.2189020">
        <ele>50.7</ele>
        <time>2020-11-14T10:13:33Z</time>
      </trkpt>
      <trkpt lat="38.9316800" lon="-0.2188900">
        <ele>50.8</ele>
        <time>2020-11-14T10:13:34Z</time>
      </trkpt>
      <trkpt lat="38.9317200" lon="-0.2188750">
        <ele>50.8</ele>
        <time>2020-11-14T10:13:35Z</time>
      </trkpt>
      <trkpt lat="38.9317620" lon="-0.2188600">
        <ele>50.9</ele>
        <time>2020-11-14T10:13:36Z</time>
      </trkpt>
      <trkpt lat="38.9318060" lon="-0.2188430">
        <ele>50.9</ele>
        <time>2020-11-14T10:13:37Z</time>
      </trkpt>
      <trkpt lat="38.9318630" lon="-0.2188220">
        <ele>51.0</ele>
        <time>2020-11-14T10:13:38Z</time>
      </trkpt>
      <trkpt lat="38.9319140" lon="-0.2188030">
        <ele>51.0</ele>
        <time>2020-11-14T10:13:39Z</time>
      </trkpt>
      <trkpt lat="38.9319720" lon="-0.2187630">
        <ele>51.1</ele>
        <time>2020-11-14T10:13:40Z</time>
      </trkpt>
      <trkpt lat="38.9320220" lon="-0.2187320">
        <ele>51.1</ele>
        <time>2020-11-14T10:13:41Z</time>
      </trkpt>
      <trkpt lat="38.9320740" lon="-0.2187060">
        <ele>51.1</ele>
        <time>2020-11-14T10:13:42Z</time>
      </trkpt>
      <trkpt lat="38.9321340" lon="-0.2186850">
        <ele>51.1</ele>
        <time>2020-11-14T10:13:43Z</time>
      </trkpt>
      <trkpt lat="38.9322020" lon="-0.2186590">
        <ele>51.1</ele>
        <time>2020-11-14T10:13:44Z</time>
      </trkpt>
      <trkpt lat="38.9322550" lon="-0.2186400">
        <ele>51.1</ele>
        <time>2020-11-14T10:13:45Z</time>
      </trkpt>
      <trkpt lat="38.9323100" lon="-0.2186090">
        <ele>51.2</ele>
        <time>2020-11-14T10:13:46Z</time>
      </trkpt>
      <trkpt lat="38.9323600" lon="-0.2185670">
        <ele>51.3</ele>
        <time>2020-11-14T10:13:47Z</time>
      </trkpt>
      <trkpt lat="38.9324070" lon="-0.2185250">
        <ele>51.4</ele>
        <time>2020-11-14T10:13:48Z</time>
      </trkpt>
      <trkpt lat="38.9324570" lon="-0.2184830">
        <ele>51.5</ele>
        <time>2020-11-14T10:13:49Z</time>
      </trkpt>
      <trkpt lat="38.9324970" lon="-0.2184350">
        <ele>51.6</ele>
        <time>2020-11-14T10:13:50Z</time>
      </trkpt>
      <trkpt lat="38.9325260" lon="-0.2183980">
        <ele>51.7</ele>
        <time>2020-11-14T10:13:51Z</time>
      </trkpt>
      <trkpt lat="38.9325560" lon="-0.2183700">
        <ele>51.8</ele>
        <time>2020-11-14T10:13:52Z</time>
      </trkpt>
      <trkpt lat="38.9325890" lon="-0.2183480">
        <ele>51.9</ele>
        <time>2020-11-14T10:13:53Z</time>
      </trkpt>
      <trkpt lat="38.9326200" lon="-0.2183130">
        <ele>52.0</ele>
        <time>2020-11-14T10:13:54Z</time>
      </trkpt>
      <trkpt lat="38.9326490" lon="-0.2182680">
        <ele>52.1</ele>
        <time>2020-11-14T10:13:55Z</time>
      </trkpt>
      <trkpt lat="38.9326760" lon="-0.2182170">
        <ele>52.3</ele>
        <time>2020-11-14T10:13:56Z</time>
      </trkpt>
      <trkpt lat="38.9327090" lon="-0.2181590">
        <ele>52.5</ele>
        <time>2020-11-14T10:13:57Z</time>
      </trkpt>
      <trkpt lat="38.9327340" lon="-0.2181170">
        <ele>52.6</ele>
        <time>2020-11-14T10:13:58Z</time>
      </trkpt>
      <trkpt lat="38.9327680" lon="-0.2180650">
        <ele>52.8</ele>
        <time>2020-11-14T10:13:59Z</time>
      </trkpt>
      <trkpt lat="38.9328100" lon="-0.2180190">
        <ele>52.9</ele>
        <time>2020-11-14T10:14:00Z</time>
      </trkpt>
      <trkpt lat="38.9328440" lon="-0.2179650">
        <ele>53.1</ele>
        <time>2020-11-14T10:14:01Z</time>
      </trkpt>
      <trkpt lat="38.9328820" lon="-0.2179160">
        <ele>53.3</ele>
        <time>2020-11-14T10:14:02Z</time>
      </trkpt>
      <trkpt lat="38.9329180" lon="-0.2178620">
        <ele>53.5</ele>
        <time>2020-11-14T10:14:03Z</time>
      </trkpt>
      <trkpt lat="38.9329590" lon="-0.2178050">
        <ele>53.6</ele>
        <time>2020-11-14T10:14:04Z</time>
      </trkpt>
      <trkpt lat="38.9330050" lon="-0.2177530">
        <ele>53.8</ele>
        <time>2020-11-14T10:14:05Z</time>
      </trkpt>
      <trkpt lat="38.9330350" lon="-0.2177050">
        <ele>53.9</ele>
        <time>2020-11-14T10:14:06Z</time>
      </trkpt>
      <trkpt lat="38.9330690" lon="-0.2176560">
        <ele>54.0</ele>
        <time>2020-11-14T10:14:07Z</time>
      </trkpt>
      <trkpt lat="38.9331130" lon="-0.2176150">
        <ele>54.1</ele>
        <time>2020-11-14T10:14:08Z</time>
      </trkpt>
      <trkpt lat="38.9331530" lon="-0.2175850">
        <ele>54.3</ele>
        <time>2020-11-14T10:14:09Z</time>
      </trkpt>
      <trkpt lat="38.9332020" lon="-0.2175640">
        <ele>54.4</ele>
        <time>2020-11-14T10:14:10Z</time>
      </trkpt>
      <trkpt lat="38.9332410" lon="-0.2175540">
        <ele>54.6</ele>
        <time>2020-11-14T10:14:11Z</time>
      </trkpt>
      <trkpt lat="38.9332900" lon="-0.2175700">
        <ele>54.8</ele>
        <time>2020-11-14T10:14:12Z</time>
      </trkpt>
      <trkpt lat="38.9333330" lon="-0.2175930">
        <ele>54.9</ele>
        <time>2020-11-14T10:14:13Z</time>
      </trkpt>
      <trkpt lat="38.9333790" lon="-0.2176260">
        <ele>55.0</ele>
        <time>2020-11-14T10:14:14Z</time>
      </trkpt>
      <trkpt lat="38.9334220" lon="-0.2176560">
        <ele>55.0</ele>
        <time>2020-11-14T10:14:15Z</time>
      </trkpt>
      <trkpt lat="38.9334580" lon="-0.2176990">
        <ele>55.1</ele>
        <time>2020-11-14T10:14:16Z</time>
      </trkpt>
      <trkpt lat="38.9335030" lon="-0.2177300">
        <ele>55.2</ele>
        <time>2020-11-14T10:14:17Z</time>
      </trkpt>
      <trkpt lat="38.9335470" lon="-0.2177850">
        <ele>55.2</ele>
        <time>2020-11-14T10:14:18Z</time>
      </trkpt>
      <trkpt lat="38.9335840" lon="-0.2178300">
        <ele>55.3</ele>
        <time>2020-11-14T10:14:19Z</time>
      </trkpt>
      <trkpt lat="38.9336300" lon="-0.2178710">
        <ele>55.3</ele>
        <time>2020-11-14T10:14:20Z</time>
      </trkpt>
      <trkpt lat="38.9336670" lon="-0.2179210">
        <ele>55.4</ele>
        <time>2020-11-14T10:14:21Z</time>
      </trkpt>
      <trkpt lat="38.9337040" lon="-0.2179650">
        <ele>55.4</ele>
        <time>2020-11-14T10:14:22Z</time>
      </trkpt>
      <trkpt lat="38.9337470" lon="-0.2179970">
        <ele>55.5</ele>
        <time>2020-11-14T10:14:23Z</time>
      </trkpt>
      <trkpt lat="38.9337830" lon="-0.2180370">
        <ele>55.5</ele>
        <time>2020-11-14T10:14:24Z</time>
      </trkpt>
      <trkpt lat="38.9338200" lon="-0.2180830">
        <ele>55.5</ele>
        <time>2020-11-14T10:14:25Z</time>
      </trkpt>
      <trkpt lat="38.9338660" lon="-0.2181210">
        <ele>55.5</ele>
        <time>2020-11-14T10:14:26Z</time>
      </trkpt>
      <trkpt lat="38.9339040" lon="-0.2181700">
        <ele>55.5</ele>
        <time>2020-11-14T10:14:27Z</time>
      </trkpt>
      <trkpt lat="38.9339550" lon="-0.2181870">
        <ele>55.5</ele>
        <time>2020-11-14T10:14:28Z</time>
      </trkpt>
      <trkpt lat="38.9340010" lon="-0.2182310">
        <ele>55.4</ele>
        <time>2020-11-14T10:14:29Z</time>
      </trkpt>
      <trkpt lat="38.9340510" lon="-0.2182730">
        <ele>55.4</ele>
        <time>2020-11-14T10:14:30Z</time>
      </trkpt>
      <trkpt lat="38.9340970" lon="-0.2183110">
        <ele>55.3</ele>
        <time>2020-11-14T10:14:31Z</time>
      </trkpt>
      <trkpt lat="38.9341340" lon="-0.2183640">
        <ele>55.2</ele>
        <time>2020-11-14T10:14:32Z</time>
      </trkpt>
      <trkpt lat="38.9341750" lon="-0.2184090">
        <ele>55.0</ele>
        <time>2020-11-14T10:14:33Z</time>
      </trkpt>
      <trkpt lat="38.9342110" lon="-0.2184700">
        <ele>54.8</ele>
        <time>2020-11-14T10:14:34Z</time>
      </trkpt>
      <trkpt lat="38.9342670" lon="-0.2185400">
        <ele>54.5</ele>
        <time>2020-11-14T10:14:35Z</time>
      </trkpt>
      <trkpt lat="38.9343130" lon="-0.2185820">
        <ele>54.2</ele>
        <time>2020-11-14T10:14:36Z</time>
      </trkpt>
      <trkpt lat="38.9343590" lon="-0.2186220">
        <ele>53.9</ele>
        <time>2020-11-14T10:14:37Z</time>
      </trkpt>
      <trkpt lat="38.9344000" lon="-0.2186920">
        <ele>53.5</ele>
        <time>2020-11-14T10:14:38Z</time>
      </trkpt>
      <trkpt lat="38.9344560" lon="-0.2187470">
        <ele>53.1</ele>
        <time>2020-11-14T10:14:39Z</time>
      </trkpt>
      <trkpt lat="38.9345230" lon="-0.2188110">
        <ele>52.7</ele>
        <time>2020-11-14T10:14:40Z</time>
      </trkpt>
      <trkpt lat="38.9345920" lon="-0.2188700">
        <ele>52.4</ele>
        <time>2020-11-14T10:14:41Z</time>
      </trkpt>
      <trkpt lat="38.9346560" lon="-0.2189360">
        <ele>52.2</ele>
        <time>2020-11-14T10:14:42Z</time>
      </trkpt>
      <trkpt lat="38.9347210" lon="-0.2189990">
        <ele>52.1</ele>
        <time>2020-11-14T10:14:43Z</time>
      </trkpt>
      <trkpt lat="38.9347860" lon="-0.2190560">
        <ele>52.0</ele>
        <time>2020-11-14T10:14:44Z</time>
      </trkpt>
      <trkpt lat="38.9348470" lon="-0.2191210">
        <ele>51.9</ele>
        <time>2020-11-14T10:14:45Z</time>
      </trkpt>
      <trkpt lat="38.9349030" lon="-0.2191840">
        <ele>51.9</ele>
        <time>2020-11-14T10:14:46Z</time>
      </trkpt>
      <trkpt lat="38.9349650" lon="-0.2192470">
        <ele>51.8</ele>
        <time>2020-11-14T10:14:47Z</time>
      </trkpt>
      <trkpt lat="38.9350340" lon="-0.2193070">
        <ele>51.8</ele>
        <time>2020-11-14T10:14:48Z</time>
      </trkpt>
      <trkpt lat="38.9350880" lon="-0.2193660">
        <ele>51.7</ele>
        <time>2020-11-14T10:14:49Z</time>
      </trkpt>
      <trkpt lat="38.9351460" lon="-0.2194230">
        <ele>51.7</ele>
        <time>2020-11-14T10:14:50Z</time>
      </trkpt>
      <trkpt lat="38.9352140" lon="-0.2194760">
        <ele>51.7</ele>
        <time>2020-11-14T10:14:51Z</time>
      </trkpt>
      <trkpt lat="38.9352750" lon="-0.2195410">
        <ele>51.6</ele>
        <time>2020-11-14T10:14:52Z</time>
      </trkpt>
      <trkpt lat="38.9353310" lon="-0.2195990">
        <ele>51.6</ele>
        <time>2020-11-14T10:14:53Z</time>
      </trkpt>
      <trkpt lat="38.9353960" lon="-0.2196610">
        <ele>51.6</ele>
        <time>2020-11-14T10:14:54Z</time>
      </trkpt>
      <trkpt lat="38.9354570" lon="-0.2197210">
        <ele>51.7</ele>
        <time>2020-11-14T10:14:55Z</time>
      </trkpt>
      <trkpt lat="38.9355180" lon="-0.2197800">
        <ele>51.7</ele>
        <time>2020-11-14T10:14:56Z</time>
      </trkpt>
      <trkpt lat="38.9355940" lon="-0.2198360">
        <ele>51.8</ele>
        <time>2020-11-14T10:14:57Z</time>
      </trkpt>
      <trkpt lat="38.9356630" lon="-0.2198870">
        <ele>51.9</ele>
        <time>2020-11-14T10:14:58Z</time>
      </trkpt>
      <trkpt lat="38.9357270" lon="-0.2199430">
        <ele>52.0</ele>
        <time>2020-11-14T10:14:59Z</time>
      </trkpt>
      <trkpt lat="38.9357860" lon="-0.2200080">
        <ele>52.1</ele>
        <time>2020-11-14T10:15:00Z</time>
      </trkpt>
      <trkpt lat="38.9358480" lon="-0.2200580">
        <ele>52.2</ele>
        <time>2020-11-14T10:15:01Z</time>
      </trkpt>
      <trkpt lat="38.9358970" lon="-0.2201080">
        <ele>52.3</ele>
        <time>2020-11-14T10:15:02Z</time>
      </trkpt>
      <trkpt lat="38.9359560" lon="-0.2201650">
        <ele>52.4</ele>
        <time>2020-11-14T10:15:03Z</time>
      </trkpt>
      <trkpt lat="38.9360090" lon="-0.2202300">
        <ele>52.5</ele>
        <time>2020-11-14T10:15:04Z</time>
      </trkpt>
      <trkpt lat="38.9360600" lon="-0.2202830">
        <ele>52.6</ele>
        <time>2020-11-14T10:15:05Z</time>
      </trkpt>
      <trkpt lat="38.9361150" lon="-0.2203300">
        <ele>52.6</ele>
        <time>2020-11-14T10:15:06Z</time>
      </trkpt>
      <trkpt lat="38.9361720" lon="-0.2203900">
        <ele>52.6</ele>
        <time>2020-11-14T10:15:07Z</time>
      </trkpt>
      <trkpt lat="38.9362240" lon="-0.2204430">
        <ele>52.6</ele>
        <time>2020-11-14T10:15:08Z</time>
      </trkpt>
      <trkpt lat="38.9362800" lon="-0.2204950">
        <ele>52.7</ele>
        <time>2020-11-14T10:15:09Z</time>
      </trkpt>
      <trkpt lat="38.9363330" lon="-0.2205480">
        <ele>52.7</ele>
        <time>2020-11-14T10:15:10Z</time>
      </trkpt>
      <trkpt lat="38.9363860" lon="-0.2206010">
        <ele>52.7</ele>
        <time>2020-11-14T10:15:11Z</time>
      </trkpt>
      <trkpt lat="38.9364410" lon="-0.2206580">
        <ele>52.8</ele>
        <time>2020-11-14T10:15:12Z</time>
      </trkpt>
      <trkpt lat="38.9364900" lon="-0.2207120">
        <ele>52.8</ele>
        <time>2020-11-14T10:15:13Z</time>
      </trkpt>
      <trkpt lat="38.9365450" lon="-0.2207670">
        <ele>52.8</ele>
        <time>2020-11-14T10:15:14Z</time>
      </trkpt>
      <trkpt lat="38.9366070" lon="-0.2208160">
        <ele>52.8</ele>
        <time>2020-11-14T10:15:15Z</time>
      </trkpt>
      <trkpt lat="38.9366590" lon="-0.2208700">
        <ele>52.8</ele>
        <time>2020-11-14T10:15:16Z</time>
      </trkpt>
      <trkpt lat="38.9367120" lon="-0.2209300">
        <ele>52.9</ele>
        <time>2020-11-14T10:15:17Z</time>
      </trkpt>
      <trkpt lat="38.9367670" lon="-0.2209840">
        <ele>52.9</ele>
        <time>2020-11-14T10:15:18Z</time>
      </trkpt>
      <trkpt lat="38.9368200" lon="-0.2210410">
        <ele>53.0</ele>
        <time>2020-11-14T10:15:19Z</time>
      </trkpt>
      <trkpt lat="38.9368740" lon="-0.2210970">
        <ele>53.1</ele>
        <time>2020-11-14T10:15:20Z</time>
      </trkpt>
      <trkpt lat="38.9369270" lon="-0.2211540">
        <ele>53.2</ele>
        <time>2020-11-14T10:15:21Z</time>
      </trkpt>
      <trkpt lat="38.9369740" lon="-0.2212030">
        <ele>53.3</ele>
        <time>2020-11-14T10:15:22Z</time>
      </trkpt>
      <trkpt lat="38.9370220" lon="-0.2212550">
        <ele>53.4</ele>
        <time>2020-11-14T10:15:23Z</time>
      </trkpt>
      <trkpt lat="38.9370730" lon="-0.2213010">
        <ele>53.6</ele>
        <time>2020-11-14T10:15:24Z</time>
      </trkpt>
      <trkpt lat="38.9371260" lon="-0.2213510">
        <ele>53.7</ele>
        <time>2020-11-14T10:15:25Z</time>
      </trkpt>
      <trkpt lat="38.9371770" lon="-0.2214060">
        <ele>53.8</ele>
        <time>2020-11-14T10:15:26Z</time>
      </trkpt>
      <trkpt lat="38.9372190" lon="-0.2214530">
        <ele>54.0</ele>
        <time>2020-11-14T10:15:27Z</time>
      </trkpt>
      <trkpt lat="38.9372650" lon="-0.2215020">
        <ele>54.1</ele>
        <time>2020-11-14T10:15:28Z</time>
      </trkpt>
      <trkpt lat="38.9373130" lon="-0.2215530">
        <ele>54.2</ele>
        <time>2020-11-14T10:15:29Z</time>
      </trkpt>
      <trkpt lat="38.9373600" lon="-0.2216010">
        <ele>54.3</ele>
        <time>2020-11-14T10:15:30Z</time>
      </trkpt>
      <trkpt lat="38.9373990" lon="-0.2216540">
        <ele>54.4</ele>
        <time>2020-11-14T10:15:31Z</time>
      </trkpt>
      <trkpt lat="38.9374500" lon="-0.2217010">
        <ele>54.5</ele>
        <time>2020-11-14T10:15:32Z</time>
      </trkpt>
      <trkpt lat="38.9375030" lon="-0.2217540">
        <ele>54.5</ele>
        <time>2020-11-14T10:15:33Z</time>
      </trkpt>
      <trkpt lat="38.9375510" lon="-0.2218050">
        <ele>54.6</ele>
        <time>2020-11-14T10:15:34Z</time>
      </trkpt>
      <trkpt lat="38.9376050" lon="-0.2218590">
        <ele>54.6</ele>
        <time>2020-11-14T10:15:35Z</time>
      </trkpt>
      <trkpt lat="38.9376510" lon="-0.2219090">
        <ele>54.7</ele>
        <time>2020-11-14T10:15:36Z</time>
      </trkpt>
      <trkpt lat="38.9377010" lon="-0.2219780">
        <ele>54.8</ele>
        <time>2020-11-14T10:15:37Z</time>
      </trkpt>
      <trkpt lat="38.9377590" lon="-0.2220250">
        <ele>54.8</ele>
        <time>2020-11-14T10:15:38Z</time>
      </trkpt>
      <trkpt lat="38.9378070" lon="-0.2220780">
        <ele>54.9</ele>
        <time>2020-11-14T10:15:39Z</time>
      </trkpt>
      <trkpt lat="38.9378510" lon="-0.2221330">
        <ele>54.9</ele>
        <time>2020-11-14T10:15:40Z</time>
      </trkpt>
      <trkpt lat="38.9378940" lon="-0.2221900">
        <ele>55.0</ele>
        <time>2020-11-14T10:15:41Z</time>
      </trkpt>
      <trkpt lat="38.9379430" lon="-0.2222390">
        <ele>55.2</ele>
        <time>2020-11-14T10:15:42Z</time>
      </trkpt>
      <trkpt lat="38.9379930" lon="-0.2223030">
        <ele>55.3</ele>
        <time>2020-11-14T10:15:43Z</time>
      </trkpt>
      <trkpt lat="38.9380380" lon="-0.2223660">
        <ele>55.4</ele>
        <time>2020-11-14T10:15:44Z</time>
      </trkpt>
      <trkpt lat="38.9380850" lon="-0.2224110">
        <ele>55.6</ele>
        <time>2020-11-14T10:15:45Z</time>
      </trkpt>
      <trkpt lat="38.9381300" lon="-0.2224650">
        <ele>55.7</ele>
        <time>2020-11-14T10:15:46Z</time>
      </trkpt>
      <trkpt lat="38.9381750" lon="-0.2225130">
        <ele>55.9</ele>
        <time>2020-11-14T10:15:47Z</time>
      </trkpt>
      <trkpt lat="38.9382290" lon="-0.2225600">
        <ele>56.1</ele>
        <time>2020-11-14T10:15:48Z</time>
      </trkpt>
      <trkpt lat="38.9382690" lon="-0.2226150">
        <ele>56.2</ele>
        <time>2020-11-14T10:15:49Z</time>
      </trkpt>
      <trkpt lat="38.9383140" lon="-0.2226660">
        <ele>56.4</ele>
        <time>2020-11-14T10:15:50Z</time>
      </trkpt>
      <trkpt lat="38.9383640" lon="-0.2227140">
        <ele>56.5</ele>
        <time>2020-11-14T10:15:51Z</time>
      </trkpt>
      <trkpt lat="38.9384140" lon="-0.2227630">
        <ele>56.7</ele>
        <time>2020-11-14T10:15:52Z</time>
      </trkpt>
      <trkpt lat="38.9384530" lon="-0.2228190">
        <ele>56.9</ele>
        <time>2020-11-14T10:15:53Z</time>
      </trkpt>
      <trkpt lat="38.9384960" lon="-0.2228700">
        <ele>57.0</ele>
        <time>2020-11-14T10:15:54Z</time>
      </trkpt>
      <trkpt lat="38.9385280" lon="-0.2229320">
        <ele>57.2</ele>
        <time>2020-11-14T10:15:55Z</time>
      </trkpt>
      <trkpt lat="38.9385560" lon="-0.2229890">
        <ele>57.3</ele>
        <time>2020-11-14T10:15:56Z</time>
      </trkpt>
      <trkpt lat="38.9385890" lon="-0.2230460">
        <ele>57.4</ele>
        <time>2020-11-14T10:15:57Z</time>
      </trkpt>
      <trkpt lat="38.9386290" lon="-0.2231100">
        <ele>57.6</ele>
        <time>2020-11-14T10:15:58Z</time>
      </trkpt>
      <trkpt lat="38.9386640" lon="-0.2231680">
        <ele>57.7</ele>
        <time>2020-11-14T10:15:59Z</time>
      </trkpt>
      <trkpt lat="38.9387000" lon="-0.2232330">
        <ele>57.8</ele>
        <time>2020-11-14T10:16:00Z</time>
      </trkpt>
      <trkpt lat="38.9387420" lon="-0.2232920">
        <ele>58.0</ele>
        <time>2020-11-14T10:16:01Z</time>
      </trkpt>
      <trkpt lat="38.9387800" lon="-0.2233620">
        <ele>58.1</ele>
        <time>2020-11-14T10:16:02Z</time>
      </trkpt>
      <trkpt lat="38.9388080" lon="-0.2234200">
        <ele>58.2</ele>
        <time>2020-11-14T10:16:03Z</time>
      </trkpt>
      <trkpt lat="38.9388370" lon="-0.2234860">
        <ele>58.4</ele>
        <time>2020-11-14T10:16:04Z</time>
      </trkpt>
      <trkpt lat="38.9388660" lon="-0.2235420">
        <ele>58.5</ele>
        <time>2020-11-14T10:16:05Z</time>
      </trkpt>
      <trkpt lat="38.9389100" lon="-0.2236150">
        <ele>58.6</ele>
        <time>2020-11-14T10:16:06Z</time>
      </trkpt>
      <trkpt lat="38.9389430" lon="-0.2236750">
        <ele>58.8</ele>
        <time>2020-11-14T10:16:07Z</time>
      </trkpt>
      <trkpt lat="38.9389690" lon="-0.2237370">
        <ele>58.9</ele>
        <time>2020-11-14T10:16:08Z</time>
      </trkpt>
      <trkpt lat="38.9390050" lon="-0.2237970">
        <ele>59.0</ele>
        <time>2020-11-14T10:16:09Z</time>
      </trkpt>
      <trkpt lat="38.9390280" lon="-0.2238750">
        <ele>59.1</ele>
        <time>2020-11-14T10:16:10Z</time>
      </trkpt>
      <trkpt lat="38.9390610" lon="-0.2239320">
        <ele>59.2</ele>
        <time>2020-11-14T10:16:11Z</time>
      </trkpt>
      <trkpt lat="38.9390840" lon="-0.2239990">
        <ele>59.3</ele>
        <time>2020-11-14T10:16:12Z</time>
      </trkpt>
      <trkpt lat="38.9391080" lon="-0.2240660">
        <ele>59.4</ele>
        <time>2020-11-14T10:16:13Z</time>
      </trkpt>
      <trkpt lat="38.9391280" lon="-0.2241280">
        <ele>59.4</ele>
        <time>2020-11-14T10:16:14Z</time>
      </trkpt>
      <trkpt lat="38.9391510" lon="-0.2241900">
        <ele>59.5</ele>
        <time>2020-11-14T10:16:15Z</time>
      </trkpt>
      <trkpt lat="38.9391700" lon="-0.2242490">
        <ele>59.5</ele>
        <time>2020-11-14T10:16:16Z</time>
      </trkpt>
      <trkpt lat="38.9391960" lon="-0.2243060">
        <ele>59.6</ele>
        <time>2020-11-14T10:16:17Z</time>
      </trkpt>
      <trkpt lat="38.9392150" lon="-0.2243670">
        <ele>59.7</ele>
        <time>2020-11-14T10:16:18Z</time>
      </trkpt>
      <trkpt lat="38.9392290" lon="-0.2244270">
        <ele>59.7</ele>
        <time>2020-11-14T10:16:19Z</time>
      </trkpt>
      <trkpt lat="38.9392510" lon="-0.2244840">
        <ele>59.8</ele>
        <time>2020-11-14T10:16:20Z</time>
      </trkpt>
      <trkpt lat="38.9392700" lon="-0.2245400">
        <ele>59.9</ele>
        <time>2020-11-14T10:16:21Z</time>
      </trkpt>
      <trkpt lat="38.9392960" lon="-0.2245970">
        <ele>60.0</ele>
        <time>2020-11-14T10:16:22Z</time>
      </trkpt>
      <trkpt lat="38.9393160" lon="-0.2246650">
        <ele>60.1</ele>
        <time>2020-11-14T10:16:23Z</time>
      </trkpt>
      <trkpt lat="38.9393300" lon="-0.2247360">
        <ele>60.1</ele>
        <time>2020-11-14T10:16:24Z</time>
      </trkpt>
      <trkpt lat="38.9393480" lon="-0.2248030">
        <ele>60.2</ele>
        <time>2020-11-14T10:16:25Z</time>
      </trkpt>
      <trkpt lat="38.9393670" lon="-0.2248660">
        <ele>60.3</ele>
        <time>2020-11-14T10:16:26Z</time>
      </trkpt>
      <trkpt lat="38.9393750" lon="-0.2249410">
        <ele>60.4</ele>
        <time>2020-11-14T10:16:27Z</time>
      </trkpt>
      <trkpt lat="38.9393940" lon="-0.2250060">
        <ele>60.4</ele>
        <time>2020-11-14T10:16:28Z</time>
      </trkpt>
      <trkpt lat="38.9394060" lon="-0.2250780">
        <ele>60.5</ele>
        <time>2020-11-14T10:16:29Z</time>
      </trkpt>
      <trkpt lat="38.9394150" lon="-0.2251460">
        <ele>60.6</ele>
        <time>2020-11-14T10:16:30Z</time>
      </trkpt>
      <trkpt lat="38.9394260" lon="-0.2252190">
        <ele>60.7</ele>
        <time>2020-11-14T10:16:31Z</time>
      </trkpt>
      <trkpt lat="38.9394320" lon="-0.2252870">
        <ele>60.7</ele>
        <time>2020-11-14T10:16:32Z</time>
      </trkpt>
      <trkpt lat="38.9394370" lon="-0.2253520">
        <ele>60.8</ele>
        <time>2020-11-14T10:16:33Z</time>
      </trkpt>
      <trkpt lat="38.9394460" lon="-0.2254290">
        <ele>60.9</ele>
        <time>2020-11-14T10:16:34Z</time>
      </trkpt>
      <trkpt lat="38.9394330" lon="-0.2255010">
        <ele>60.9</ele>
        <time>2020-11-14T10:16:35Z</time>
      </trkpt>
      <trkpt lat="38.9394420" lon="-0.2255700">
        <ele>61.0</ele>
        <time>2020-11-14T10:16:36Z</time>
      </trkpt>
      <trkpt lat="38.9394460" lon="-0.2256420">
        <ele>61.1</ele>
        <time>2020-11-14T10:16:37Z</time>
      </trkpt>
      <trkpt lat="38.9394490" lon="-0.2257290">
        <ele>61.2</ele>
        <time>2020-11-14T10:16:38Z</time>
      </trkpt>
      <trkpt lat="38.9394540" lon="-0.2257970">
        <ele>61.3</ele>
        <time>2020-11-14T10:16:39Z</time>
      </trkpt>
      <trkpt lat="38.9394500" lon="-0.2258830">
        <ele>61.4</ele>
        <time>2020-11-14T10:16:40Z</time>
      </trkpt>
      <trkpt lat="38.9394620" lon="-0.2259480">
        <ele>61.5</ele>
        <time>2020-11-14T10:16:41Z</time>
      </trkpt>
      <trkpt lat="38.9394500" lon="-0.2260360">
        <ele>61.7</ele>
        <time>2020-11-14T10:16:42Z</time>
      </trkpt>
      <trkpt lat="38.9394490" lon="-0.2261100">
        <ele>61.8</ele>
        <time>2020-11-14T10:16:43Z</time>
      </trkpt>
      <trkpt lat="38.9394440" lon="-0.2261820">
        <ele>62.0</ele>
        <time>2020-11-14T10:16:44Z</time>
      </trkpt>
      <trkpt lat="38.9394350" lon="-0.2262580">
        <ele>62.1</ele>
        <time>2020-11-14T10:16:45Z</time>
      </trkpt>
      <trkpt lat="38.9394260" lon="-0.2263300">
        <ele>62.3</ele>
        <time>2020-11-14T10:16:46Z</time>
      </trkpt>
      <trkpt lat="38.9394170" lon="-0.2263970">
        <ele>62.5</ele>
        <time>2020-11-14T10:16:47Z</time>
      </trkpt>
      <trkpt lat="38.9394070" lon="-0.2264650">
        <ele>62.6</ele>
        <time>2020-11-14T10:16:48Z</time>
      </trkpt>
      <trkpt lat="38.9393960" lon="-0.2265370">
        <ele>62.8</ele>
        <time>2020-11-14T10:16:49Z</time>
      </trkpt>
      <trkpt lat="38.9393860" lon="-0.2265980">
        <ele>63.0</ele>
        <time>2020-11-14T10:16:50Z</time>
      </trkpt>
      <trkpt lat="38.9393830" lon="-0.2266580">
        <ele>63.1</ele>
        <time>2020-11-14T10:16:51Z</time>
      </trkpt>
      <trkpt lat="38.9393740" lon="-0.2267200">
        <ele>63.3</ele>
        <time>2020-11-14T10:16:52Z</time>
      </trkpt>
      <trkpt lat="38.9393590" lon="-0.2267800">
        <ele>63.5</ele>
        <time>2020-11-14T10:16:53Z</time>
      </trkpt>
      <trkpt lat="38.9393420" lon="-0.2268430">
        <ele>63.6</ele>
        <time>2020-11-14T10:16:54Z</time>
      </trkpt>
      <trkpt lat="38.9393210" lon="-0.2269190">
        <ele>63.8</ele>
        <time>2020-11-14T10:16:55Z</time>
      </trkpt>
      <trkpt lat="38.9393060" lon="-0.2269870">
        <ele>64.0</ele>
        <time>2020-11-14T10:16:56Z</time>
      </trkpt>
      <trkpt lat="38.9392900" lon="-0.2270510">
        <ele>64.1</ele>
        <time>2020-11-14T10:16:57Z</time>
      </trkpt>
      <trkpt lat="38.9392820" lon="-0.2271150">
        <ele>64.2</ele>
        <time>2020-11-14T10:16:58Z</time>
      </trkpt>
      <trkpt lat="38.9392640" lon="-0.2271800">
        <ele>64.3</ele>
        <time>2020-11-14T10:16:59Z</time>
      </trkpt>
      <trkpt lat="38.9392460" lon="-0.2272440">
        <ele>64.4</ele>
        <time>2020-11-14T10:17:00Z</time>
      </trkpt>
      <trkpt lat="38.9392330" lon="-0.2273050">
        <ele>64.5</ele>
        <time>2020-11-14T10:17:01Z</time>
      </trkpt>
      <trkpt lat="38.9392200" lon="-0.2273660">
        <ele>64.5</ele>
        <time>2020-11-14T10:17:02Z</time>
      </trkpt>
      <trkpt lat="38.9392100" lon="-0.2274300">
        <ele>64.6</ele>
        <time>2020-11-14T10:17:03Z</time>
      </trkpt>
      <trkpt lat="38.9392000" lon="-0.2274980">
        <ele>64.7</ele>
        <time>2020-11-14T10:17:04Z</time>
      </trkpt>
      <trkpt lat="38.9391780" lon="-0.2275720">
        <ele>64.8</ele>
        <time>2020-11-14T10:17:05Z</time>
      </trkpt>
      <trkpt lat="38.9391570" lon="-0.2276350">
        <ele>64.9</ele>
        <time>2020-11-14T10:17:06Z</time>
      </trkpt>
      <trkpt lat="38.9391380" lon="-0.2277010">
        <ele>64.9</ele>
        <time>2020-11-14T10:17:07Z</time>
      </trkpt>
      <trkpt lat="38.9391210" lon="-0.2277720">
        <ele>65.0</ele>
        <time>2020-11-14T10:17:08Z</time>
      </trkpt>
      <trkpt lat="38.9391070" lon="-0.2278420">
        <ele>65.0</ele>
        <time>2020-11-14T10:17:09Z</time>
      </trkpt>
      <trkpt lat="38.9390830" lon="-0.2279110">
        <ele>65.1</ele>
        <time>2020-11-14T10:17:10Z</time>
      </trkpt>
      <trkpt lat="38.9390500" lon="-0.2279790">
        <ele>65.1</ele>
        <time>2020-11-14T10:17:11Z</time>
      </trkpt>
      <trkpt lat="38.9390230" lon="-0.2280550">
        <ele>65.2</ele>
        <time>2020-11-14T10:17:12Z</time>
      </trkpt>
      <trkpt lat="38.9389970" lon="-0.2281080">
        <ele>65.2</ele>
        <time>2020-11-14T10:17:13Z</time>
      </trkpt>
      <trkpt lat="38.9389570" lon="-0.2281500">
        <ele>65.2</ele>
        <time>2020-11-14T10:17:14Z</time>
      </trkpt>
      <trkpt lat="38.9389170" lon="-0.2281970">
        <ele>65.2</ele>
        <time>2020-11-14T10:17:15Z</time>
      </trkpt>
      <trkpt lat="38.9388730" lon="-0.2282370">
        <ele>65.2</ele>
        <time>2020-11-14T10:17:16Z</time>
      </trkpt>
      <trkpt lat="38.9388330" lon="-0.2282770">
        <ele>65.3</ele>
        <time>2020-11-14T10:17:17Z</time>
      </trkpt>
      <trkpt lat="38.9387920" lon="-0.2283250">
        <ele>65.3</ele>
        <time>2020-11-14T10:17:18Z</time>
      </trkpt>
      <trkpt lat="38.9387500" lon="-0.2283840">
        <ele>65.3</ele>
        <time>2020-11-14T10:17:19Z</time>
      </trkpt>
      <trkpt lat="38.9387200" lon="-0.2284440">
        <ele>65.3</ele>
        <time>2020-11-14T10:17:20Z</time>
      </trkpt>
      <trkpt lat="38.9386900" lon="-0.2285120">
        <ele>65.2</ele>
        <time>2020-11-14T10:17:21Z</time>
      </trkpt>
      <trkpt lat="38.9386850" lon="-0.2285900">
        <ele>65.2</ele>
        <time>2020-11-14T10:17:22Z</time>
      </trkpt>
      <trkpt lat="38.9386850" lon="-0.2286760">
        <ele>65.0</ele>
        <time>2020-11-14T10:17:23Z</time>
      </trkpt>
      <trkpt lat="38.9386860" lon="-0.2287520">
        <ele>64.9</ele>
        <time>2020-11-14T10:17:24Z</time>
      </trkpt>
      <trkpt lat="38.9386860" lon="-0.2288340">
        <ele>64.7</ele>
        <time>2020-11-14T10:17:25Z</time>
      </trkpt>
      <trkpt lat="38.9386890" lon="-0.2289200">
        <ele>64.6</ele>
        <time>2020-11-14T10:17:26Z</time>
      </trkpt>
      <trkpt lat="38.9386950" lon="-0.2290100">
        <ele>64.6</ele>
        <time>2020-11-14T10:17:27Z</time>
      </trkpt>
      <trkpt lat="38.9386920" lon="-0.2290940">
        <ele>64.7</ele>
        <time>2020-11-14T10:17:28Z</time>
      </trkpt>
      <trkpt lat="38.9386920" lon="-0.2291800">
        <ele>64.9</ele>
        <time>2020-11-14T10:17:29Z</time>
      </trkpt>
      <trkpt lat="38.9386970" lon="-0.2292660">
        <ele>65.1</ele>
        <time>2020-11-14T10:17:30Z</time>
      </trkpt>
      <trkpt lat="38.9387050" lon="-0.2293410">
        <ele>65.3</ele>
        <time>2020-11-14T10:17:31Z</time>
      </trkpt>
      <trkpt lat="38.9387230" lon="-0.2294180">
        <ele>65.5</ele>
        <time>2020-11-14T10:17:32Z</time>
      </trkpt>
      <trkpt lat="38.9387530" lon="-0.2294880">
        <ele>65.6</ele>
        <time>2020-11-14T10:17:33Z</time>
      </trkpt>
      <trkpt lat="38.9387820" lon="-0.2295530">
        <ele>65.7</ele>
        <time>2020-11-14T10:17:34Z</time>
      </trkpt>
      <trkpt lat="38.9388220" lon="-0.2296020">
        <ele>65.9</ele>
        <time>2020-11-14T10:17:35Z</time>
      </trkpt>
      <trkpt lat="38.9388660" lon="-0.2296440">
        <ele>66.0</ele>
        <time>2020-11-14T10:17:36Z</time>
      </trkpt>
      <trkpt lat="38.9389110" lon="-0.2296950">
        <ele>66.1</ele>
        <time>2020-11-14T10:17:37Z</time>
      </trkpt>
      <trkpt lat="38.9389490" lon="-0.2297450">
        <ele>66.2</ele>
        <time>2020-11-14T10:17:38Z</time>
      </trkpt>
      <trkpt lat="38.9389920" lon="-0.2297890">
        <ele>66.3</ele>
        <time>2020-11-14T10:17:39Z</time>
      </trkpt>
      <trkpt lat="38.9390440" lon="-0.2298370">
        <ele>66.4</ele>
        <time>2020-11-14T10:17:40Z</time>
      </trkpt>
      <trkpt lat="38.9390800" lon="-0.2298910">
        <ele>66.5</ele>
        <time>2020-11-14T10:17:41Z</time>
      </trkpt>
      <trkpt lat="38.9391070" lon="-0.2299580">
        <ele>66.6</ele>
        <time>2020-11-14T10:17:42Z</time>
      </trkpt>
      <trkpt lat="38.9391360" lon="-0.2300120">
        <ele>66.7</ele>
        <time>2020-11-14T10:17:43Z</time>
      </trkpt>
      <trkpt lat="38.9391630" lon="-0.2300680">
        <ele>66.8</ele>
        <time>2020-11-14T10:17:44Z</time>
      </trkpt>
      <trkpt lat="38.9391850" lon="-0.2301280">
        <ele>66.8</ele>
        <time>2020-11-14T10:17:45Z</time>
      </trkpt>
      <trkpt lat="38.9391970" lon="-0.2302030">
        <ele>66.9</ele>
        <time>2020-11-14T10:17:46Z</time>
      </trkpt>
      <trkpt lat="38.9392160" lon="-0.2302640">
        <ele>66.9</ele>
        <time>2020-11-14T10:17:47Z</time>
      </trkpt>
      <trkpt lat="38.9392390" lon="-0.2303450">
        <ele>66.9</ele>
        <time>2020-11-14T10:17:48Z</time>
      </trkpt>
      <trkpt lat="38.9392610" lon="-0.2304170">
        <ele>67.0</ele>
        <time>2020-11-14T10:17:49Z</time>
      </trkpt>
      <trkpt lat="38.9392770" lon="-0.2304900">
        <ele>67.0</ele>
        <time>2020-11-14T10:17:50Z</time>
      </trkpt>
      <trkpt lat="38.9392850" lon="-0.2305590">
        <ele>67.1</ele>
        <time>2020-11-14T10:17:51Z</time>
      </trkpt>
      <trkpt lat="38.9392910" lon="-0.2306270">
        <ele>67.1</ele>
        <time>2020-11-14T10:17:52Z</time>
      </trkpt>
      <trkpt lat="38.9392960" lon="-0.2306980">
        <ele>67.1</ele>
        <time>2020-11-14T10:17:53Z</time>
      </trkpt>
      <trkpt lat="38.9393090" lon="-0.2307740">
        <ele>67.2</ele>
        <time>2020-11-14T10:17:54Z</time>
      </trkpt>
      <trkpt lat="38.9393140" lon="-0.2308450">
        <ele>67.2</ele>
        <time>2020-11-14T10:17:55Z</time>
      </trkpt>
      <trkpt lat="38.9393180" lon="-0.2309090">
        <ele>67.3</ele>
        <time>2020-11-14T10:17:56Z</time>
      </trkpt>
      <trkpt lat="38.9393190" lon="-0.2309850">
        <ele>67.3</ele>
        <time>2020-11-14T10:17:57Z</time>
      </trkpt>
      <trkpt lat="38.9393180" lon="-0.2310570">
        <ele>67.3</ele>
        <time>2020-11-14T10:17:58Z</time>
      </trkpt>
      <trkpt lat="38.9393150" lon="-0.2311370">
        <ele>67.4</ele>
        <time>2020-11-14T10:17:59Z</time>
      </trkpt>
      <trkpt lat="38.9393170" lon="-0.2312070">
        <ele>67.4</ele>
        <time>2020-11-14T10:18:00Z</time>
      </trkpt>
      <trkpt lat="38.9393270" lon="-0.2312840">
        <ele>67.5</ele>
        <time>2020-11-14T10:18:01Z</time>
      </trkpt>
      <trkpt lat="38.9393330" lon="-0.2313570">
        <ele>67.5</ele>
        <time>2020-11-14T10:18:02Z</time>
      </trkpt>
      <trkpt lat="38.9393360" lon="-0.2314200">
        <ele>67.5</ele>
        <time>2020-11-14T10:18:03Z</time>
      </trkpt>
      <trkpt lat="38.9393450" lon="-0.2314860">
        <ele>67.6</ele>
        <time>2020-11-14T10:18:04Z</time>
      </trkpt>
      <trkpt lat="38.9393450" lon="-0.2315550">
        <ele>67.6</ele>
        <time>2020-11-14T10:18:05Z</time>
      </trkpt>
      <trkpt lat="38.9393450" lon="-0.2316330">
        <ele>67.6</ele>
        <time>2020-11-14T10:18:06Z</time>
      </trkpt>
      <trkpt lat="38.9393420" lon="-0.2317160">
        <ele>67.7</ele>
        <time>2020-11-14T10:18:07Z</time>
      </trkpt>
      <trkpt lat="38.9393420" lon="-0.2317890">
        <ele>67.7</ele>
        <time>2020-11-14T10:18:08Z</time>
      </trkpt>
      <trkpt lat="38.9393370" lon="-0.2318630">
        <ele>67.8</ele>
        <time>2020-11-14T10:18:09Z</time>
      </trkpt>
      <trkpt lat="38.9393350" lon="-0.2319290">
        <ele>67.8</ele>
        <time>2020-11-14T10:18:10Z</time>
      </trkpt>
      <trkpt lat="38.9393300" lon="-0.2320030">
        <ele>67.8</ele>
        <time>2020-11-14T10:18:11Z</time>
      </trkpt>
      <trkpt lat="38.9393260" lon="-0.2320870">
        <ele>67.8</ele>
        <time>2020-11-14T10:18:12Z</time>
      </trkpt>
      <trkpt lat="38.9393280" lon="-0.2321490">
        <ele>67.9</ele>
        <time>2020-11-14T10:18:13Z</time>
      </trkpt>
      <trkpt lat="38.9393290" lon="-0.2322230">
        <ele>67.9</ele>
        <time>2020-11-14T10:18:14Z</time>
      </trkpt>
      <trkpt lat="38.9393340" lon="-0.2323010">
        <ele>67.9</ele>
        <time>2020-11-14T10:18:15Z</time>
      </trkpt>
      <trkpt lat="38.9393320" lon="-0.2323750">
        <ele>68.0</ele>
        <time>2020-11-14T10:18:16Z</time>
      </trkpt>
      <trkpt lat="38.9393410" lon="-0.2324490">
        <ele>68.0</ele>
        <time>2020-11-14T10:18:17Z</time>
      </trkpt>
      <trkpt lat="38.9393480" lon="-0.2325260">
        <ele>68.1</ele>
        <time>2020-11-14T10:18:18Z</time>
      </trkpt>
      <trkpt lat="38.9393430" lon="-0.2326030">
        <ele>68.1</ele>
        <time>2020-11-14T10:18:19Z</time>
      </trkpt>
      <trkpt lat="38.9393440" lon="-0.2326820">
        <ele>68.2</ele>
        <time>2020-11-14T10:18:20Z</time>
      </trkpt>
      <trkpt lat="38.9393500" lon="-0.2327550">
        <ele>68.3</ele>
        <time>2020-11-14T10:18:21Z</time>
      </trkpt>
      <trkpt lat="38.9393520" lon="-0.2328350">
        <ele>68.3</ele>
        <time>2020-11-14T10:18:22Z</time>
      </trkpt>
      <trkpt lat="38.9393410" lon="-0.2329200">
        <ele>68.4</ele>
        <time>2020-11-14T10:18:23Z</time>
      </trkpt>
      <trkpt lat="38.9393440" lon="-0.2329880">
        <ele>68.4</ele>
        <time>2020-11-14T10:18:24Z</time>
      </trkpt>
      <trkpt lat="38.9393410" lon="-0.2330590">
        <ele>68.5</ele>
        <time>2020-11-14T10:18:25Z</time>
      </trkpt>
      <trkpt lat="38.9393270" lon="-0.2331440">
        <ele>68.5</ele>
        <time>2020-11-14T10:18:26Z</time>
      </trkpt>
      <trkpt lat="38.9393540" lon="-0.2332100">
        <ele>68.6</ele>
        <time>2020-11-14T10:18:27Z</time>
      </trkpt>
      <trkpt lat="38.9393570" lon="-0.2332850">
        <ele>68.6</ele>
        <time>2020-11-14T10:18:28Z</time>
      </trkpt>
      <trkpt lat="38.9393550" lon="-0.2333540">
        <ele>68.6</ele>
        <time>2020-11-14T10:18:29Z</time>
      </trkpt>
      <trkpt lat="38.9393550" lon="-0.2334280">
        <ele>68.7</ele>
        <time>2020-11-14T10:18:30Z</time>
      </trkpt>
      <trkpt lat="38.9393590" lon="-0.2335070">
        <ele>68.7</ele>
        <time>2020-11-14T10:18:31Z</time>
      </trkpt>
      <trkpt lat="38.9393600" lon="-0.2335800">
        <ele>68.8</ele>
        <time>2020-11-14T10:18:32Z</time>
      </trkpt>
      <trkpt lat="38.9393540" lon="-0.2336560">
        <ele>68.8</ele>
        <time>2020-11-14T10:18:33Z</time>
      </trkpt>
      <trkpt lat="38.9393470" lon="-0.2337350">
        <ele>68.9</ele>
        <time>2020-11-14T10:18:34Z</time>
      </trkpt>
      <trkpt lat="38.9393520" lon="-0.2338170">
        <ele>68.9</ele>
        <time>2020-11-14T10:18:35Z</time>
      </trkpt>
      <trkpt lat="38.9393570" lon="-0.2338970">
        <ele>68.9</ele>
        <time>2020-11-14T10:18:36Z</time>
      </trkpt>
      <trkpt lat="38.9393500" lon="-0.2339700">
        <ele>69.0</ele>
        <time>2020-11-14T10:18:37Z</time>
      </trkpt>
      <trkpt lat="38.9393590" lon="-0.2340430">
        <ele>69.0</ele>
        <time>2020-11-14T10:18:38Z</time>
      </trkpt>
      <trkpt lat="38.9393570" lon="-0.2341160">
        <ele>69.0</ele>
        <time>2020-11-14T10:18:39Z</time>
      </trkpt>
      <trkpt lat="38.9393470" lon="-0.2341870">
        <ele>69.0</ele>
        <time>2020-11-14T10:18:40Z</time>
      </trkpt>
      <trkpt lat="38.9393550" lon="-0.2342570">
        <ele>69.0</ele>
        <time>2020-11-14T10:18:41Z</time>
      </trkpt>
      <trkpt lat="38.9393490" lon="-0.2343310">
        <ele>69.0</ele>
        <time>2020-11-14T10:18:42Z</time>
      </trkpt>
      <trkpt lat="38.9393470" lon="-0.2344020">
        <ele>69.0</ele>
        <time>2020-11-14T10:18:43Z</time>
      </trkpt>
      <trkpt lat="38.9393530" lon="-0.2344750">
        <ele>69.0</ele>
        <time>2020-11-14T10:18:44Z</time>
      </trkpt>
      <trkpt lat="38.9393430" lon="-0.2345550">
        <ele>69.0</ele>
        <time>2020-11-14T10:18:45Z</time>
      </trkpt>
      <trkpt lat="38.9393370" lon="-0.2346320">
        <ele>69.1</ele>
        <time>2020-11-14T10:18:46Z</time>
      </trkpt>
      <trkpt lat="38.9393250" lon="-0.2347150">
        <ele>69.1</ele>
        <time>2020-11-14T10:18:47Z</time>
      </trkpt>
      <trkpt lat="38.9393170" lon="-0.2347980">
        <ele>69.2</ele>
        <time>2020-11-14T10:18:48Z</time>
      </trkpt>
      <trkpt lat="38.9393070" lon="-0.2348730">
        <ele>69.3</ele>
        <time>2020-11-14T10:18:49Z</time>
      </trkpt>
      <trkpt lat="38.9392990" lon="-0.2349410">
        <ele>69.3</ele>
        <time>2020-11-14T10:18:50Z</time>
      </trkpt>
      <trkpt lat="38.9392960" lon="-0.2350180">
        <ele>69.4</ele>
        <time>2020-11-14T10:18:51Z</time>
      </trkpt>
      <trkpt lat="38.9392920" lon="-0.2350890">
        <ele>69.5</ele>
        <time>2020-11-14T10:18:52Z</time>
      </trkpt>
      <trkpt lat="38.9392780" lon="-0.2351620">
        <ele>69.5</ele>
        <time>2020-11-14T10:18:53Z</time>
      </trkpt>
      <trkpt lat="38.9392820" lon="-0.2352320">
        <ele>69.6</ele>
        <time>2020-11-14T10:18:54Z</time>
      </trkpt>
      <trkpt lat="38.9392790" lon="-0.2353070">
        <ele>69.6</ele>
        <time>2020-11-14T10:18:55Z</time>
      </trkpt>
      <trkpt lat="38.9392630" lon="-0.2353880">
        <ele>69.7</ele>
        <time>2020-11-14T10:18:56Z</time>
      </trkpt>
      <trkpt lat="38.9392630" lon="-0.2354580">
        <ele>69.7</ele>
        <time>2020-11-14T10:18:57Z</time>
      </trkpt>
      <trkpt lat="38.9392690" lon="-0.2355340">
        <ele>69.7</ele>
        <time>2020-11-14T10:18:58Z</time>
      </trkpt>
      <trkpt lat="38.9392680" lon="-0.2356100">
        <ele>69.8</ele>
        <time>2020-11-14T10:18:59Z</time>
      </trkpt>
      <trkpt lat="38.9392690" lon="-0.2356830">
        <ele>69.8</ele>
        <time>2020-11-14T10:19:00Z</time>
      </trkpt>
      <trkpt lat="38.9392620" lon="-0.2357640">
        <ele>69.9</ele>
        <time>2020-11-14T10:19:01Z</time>
      </trkpt>
      <trkpt lat="38.9392420" lon="-0.2358530">
        <ele>69.9</ele>
        <time>2020-11-14T10:19:02Z</time>
      </trkpt>
      <trkpt lat="38.9392300" lon="-0.2359300">
        <ele>70.0</ele>
        <time>2020-11-14T10:19:03Z</time>
      </trkpt>
      <trkpt lat="38.9392070" lon="-0.2360070">
        <ele>70.0</ele>
        <time>2020-11-14T10:19:04Z</time>
      </trkpt>
      <trkpt lat="38.9391880" lon="-0.2360880">
        <ele>70.1</ele>
        <time>2020-11-14T10:19:05Z</time>
      </trkpt>
      <trkpt lat="38.9391710" lon="-0.2361580">
        <ele>70.1</ele>
        <time>2020-11-14T10:19:06Z</time>
      </trkpt>
      <trkpt lat="38.9391670" lon="-0.2362350">
        <ele>70.1</ele>
        <time>2020-11-14T10:19:07Z</time>
      </trkpt>
      <trkpt lat="38.9391660" lon="-0.2363150">
        <ele>70.2</ele>
        <time>2020-11-14T10:19:08Z</time>
      </trkpt>
      <trkpt lat="38.9391430" lon="-0.2364030">
        <ele>70.2</ele>
        <time>2020-11-14T10:19:09Z</time>
      </trkpt>
      <trkpt lat="38.9391330" lon="-0.2364670">
        <ele>70.2</ele>
        <time>2020-11-14T10:19:10Z</time>
      </trkpt>
      <trkpt lat="38.9391210" lon="-0.2365390">
        <ele>70.3</ele>
        <time>2020-11-14T10:19:11Z</time>
      </trkpt>
      <trkpt lat="38.9390910" lon="-0.2366350">
        <ele>70.3</ele>
        <time>2020-11-14T10:19:12Z</time>
      </trkpt>
      <trkpt lat="38.9390800" lon="-0.2367170">
        <ele>70.3</ele>
        <time>2020-11-14T10:19:13Z</time>
      </trkpt>
      <trkpt lat="38.9390630" lon="-0.2367910">
        <ele>70.3</ele>
        <time>2020-11-14T10:19:14Z</time>
      </trkpt>
      <trkpt lat="38.9390570" lon="-0.2368680">
        <ele>70.4</ele>
        <time>2020-11-14T10:19:15Z</time>
      </trkpt>
      <trkpt lat="38.9390440" lon="-0.2369380">
        <ele>70.4</ele>
        <time>2020-11-14T10:19:16Z</time>
      </trkpt>
      <trkpt lat="38.9390190" lon="-0.2370070">
        <ele>70.4</ele>
        <time>2020-11-14T10:19:17Z</time>
      </trkpt>
      <trkpt lat="38.9389970" lon="-0.2370660">
        <ele>70.5</ele>
        <time>2020-11-14T10:19:18Z</time>
      </trkpt>
      <trkpt lat="38.9389650" lon="-0.2371390">
        <ele>70.5</ele>
        <time>2020-11-14T10:19:19Z</time>
      </trkpt>
      <trkpt lat="38.9389290" lon="-0.2372160">
        <ele>70.5</ele>
        <time>2020-11-14T10:19:20Z</time>
      </trkpt>
      <trkpt lat="38.9388930" lon="-0.2372830">
        <ele>70.6</ele>
        <time>2020-11-14T10:19:21Z</time>
      </trkpt>
      <trkpt lat="38.9388570" lon="-0.2373450">
        <ele>70.6</ele>
        <time>2020-11-14T10:19:22Z</time>
      </trkpt>
      <trkpt lat="38.9388080" lon="-0.2374050">
        <ele>70.6</ele>
        <time>2020-11-14T10:19:23Z</time>
      </trkpt>
      <trkpt lat="38.9387660" lon="-0.2374600">
        <ele>70.7</ele>
        <time>2020-11-14T10:19:24Z</time>
      </trkpt>
      <trkpt lat="38.9387110" lon="-0.2375260">
        <ele>70.7</ele>
        <time>2020-11-14T10:19:25Z</time>
      </trkpt>
      <trkpt lat="38.9386680" lon="-0.2375890">
        <ele>70.7</ele>
        <time>2020-11-14T10:19:26Z</time>
      </trkpt>
      <trkpt lat="38.9386230" lon="-0.2376490">
        <ele>70.7</ele>
        <time>2020-11-14T10:19:27Z</time>
      </trkpt>
      <trkpt lat="38.9385890" lon="-0.2377100">
        <ele>70.8</ele>
        <time>2020-11-14T10:19:28Z</time>
      </trkpt>
      <trkpt lat="38.9385510" lon="-0.2377730">
        <ele>70.8</ele>
        <time>2020-11-14T10:19:29Z</time>
      </trkpt>
      <trkpt lat="38.9385150" lon="-0.2378300">
        <ele>70.8</ele>
        <time>2020-11-14T10:19:30Z</time>
      </trkpt>
      <trkpt lat="38.9384850" lon="-0.2379090">
        <ele>70.8</ele>
        <time>2020-11-14T10:19:31Z</time>
      </trkpt>
      <trkpt lat="38.9384930" lon="-0.2379890">
        <ele>70.8</ele>
        <time>2020-11-14T10:19:32Z</time>
      </trkpt>
      <trkpt lat="38.9384910" lon="-0.2380640">
        <ele>70.7</ele>
        <time>2020-11-14T10:19:33Z</time>
      </trkpt>
      <trkpt lat="38.9384860" lon="-0.2381550">
        <ele>70.7</ele>
        <time>2020-11-14T10:19:34Z</time>
      </trkpt>
      <trkpt lat="38.9384850" lon="-0.2382390">
        <ele>70.7</ele>
        <time>2020-11-14T10:19:35Z</time>
      </trkpt>
      <trkpt lat="38.9385090" lon="-0.2383190">
        <ele>70.7</ele>
        <time>2020-11-14T10:19:36Z</time>
      </trkpt>
      <trkpt lat="38.9385170" lon="-0.2384000">
        <ele>70.7</ele>
        <time>2020-11-14T10:19:37Z</time>
      </trkpt>
      <trkpt lat="38.9385450" lon="-0.2384690">
        <ele>70.7</ele>
        <time>2020-11-14T10:19:38Z</time>
      </trkpt>
      <trkpt lat="38.9385760" lon="-0.2385480">
        <ele>70.7</ele>
        <time>2020-11-14T10:19:39Z</time>
      </trkpt>
      <trkpt lat="38.9385930" lon="-0.2386260">
        <ele>70.7</ele>
        <time>2020-11-14T10:19:40Z</time>
      </trkpt>
      <trkpt lat="38.9386230" lon="-0.2386980">
        <ele>70.7</ele>
        <time>2020-11-14T10:19:41Z</time>
      </trkpt>
      <trkpt lat="38.9386490" lon="-0.2387700">
        <ele>70.7</ele>
        <time>2020-11-14T10:19:42Z</time>
      </trkpt>
      <trkpt lat="38.9386620" lon="-0.2388460">
        <ele>70.7</ele>
        <time>2020-11-14T10:19:43Z</time>
      </trkpt>
      <trkpt lat="38.9386500" lon="-0.2389350">
        <ele>70.7</ele>
        <time>2020-11-14T10:19:44Z</time>
      </trkpt>
      <trkpt lat="38.9386380" lon="-0.2390120">
        <ele>70.7</ele>
        <time>2020-11-14T10:19:45Z</time>
      </trkpt>
      <trkpt lat="38.9386130" lon="-0.2390830">
        <ele>70.6</ele>
        <time>2020-11-14T10:19:46Z</time>
      </trkpt>
      <trkpt lat="38.9385990" lon="-0.2391600">
        <ele>70.6</ele>
        <time>2020-11-14T10:19:47Z</time>
      </trkpt>
      <trkpt lat="38.9385720" lon="-0.2392300">
        <ele>70.5</ele>
        <time>2020-11-14T10:19:48Z</time>
      </trkpt>
      <trkpt lat="38.9385520" lon="-0.2393120">
        <ele>70.5</ele>
        <time>2020-11-14T10:19:49Z</time>
      </trkpt>
      <trkpt lat="38.9385240" lon="-0.2393970">
        <ele>70.4</ele>
        <time>2020-11-14T10:19:50Z</time>
      </trkpt>
      <trkpt lat="38.9384910" lon="-0.2394870">
        <ele>70.4</ele>
        <time>2020-11-14T10:19:51Z</time>
      </trkpt>
      <trkpt lat="38.9384530" lon="-0.2395770">
        <ele>70.5</ele>
        <time>2020-11-14T10:19:52Z</time>
      </trkpt>
      <trkpt lat="38.9384220" lon="-0.2396600">
        <ele>70.5</ele>
        <time>2020-11-14T10:19:53Z</time>
      </trkpt>
      <trkpt lat="38.9383970" lon="-0.2397480">
        <ele>70.6</ele>
        <time>2020-11-14T10:19:54Z</time>
      </trkpt>
      <trkpt lat="38.9383700" lon="-0.2398300">
        <ele>70.7</ele>
        <time>2020-11-14T10:19:55Z</time>
      </trkpt>
      <trkpt lat="38.9383390" lon="-0.2399160">
        <ele>70.8</ele>
        <time>2020-11-14T10:19:56Z</time>
      </trkpt>
      <trkpt lat="38.9383150" lon="-0.2399920">
        <ele>71.0</ele>
        <time>2020-11-14T10:19:57Z</time>
      </trkpt>
      <trkpt lat="38.9382840" lon="-0.2400710">
        <ele>71.2</ele>
        <time>2020-11-14T10:19:58Z</time>
      </trkpt>
      <trkpt lat="38.9382520" lon="-0.2401440">
        <ele>71.5</ele>
        <time>2020-11-14T10:19:59Z</time>
      </trkpt>
      <trkpt lat="38.9382260" lon="-0.2402190">
        <ele>71.7</ele>
        <time>2020-11-14T10:20:00Z</time>
      </trkpt>
      <trkpt lat="38.9382000" lon="-0.2402760">
        <ele>71.9</ele>
        <time>2020-11-14T10:20:01Z</time>
      </trkpt>
      <trkpt lat="38.9381750" lon="-0.2403360">
        <ele>72.1</ele>
        <time>2020-11-14T10:20:02Z</time>
      </trkpt>
      <trkpt lat="38.9381590" lon="-0.2403890">
        <ele>72.3</ele>
        <time>2020-11-14T10:20:03Z</time>
      </trkpt>
      <trkpt lat="38.9381310" lon="-0.2404430">
        <ele>72.5</ele>
        <time>2020-11-14T10:20:04Z</time>
      </trkpt>
      <trkpt lat="38.9381090" lon="-0.2404920">
        <ele>72.6</ele>
        <time>2020-11-14T10:20:05Z</time>
      </trkpt>
      <trkpt lat="38.9380870" lon="-0.2405500">
        <ele>72.7</ele>
        <time>2020-11-14T10:20:06Z</time>
      </trkpt>
      <trkpt lat="38.9380560" lon="-0.2406100">
        <ele>72.9</ele>
        <time>2020-11-14T10:20:07Z</time>
      </trkpt>
      <trkpt lat="38.9380260" lon="-0.2406660">
        <ele>73.0</ele>
        <time>2020-11-14T10:20:08Z</time>
      </trkpt>
      <trkpt lat="38.9379920" lon="-0.2407270">
        <ele>73.1</ele>
        <time>2020-11-14T10:20:09Z</time>
      </trkpt>
      <trkpt lat="38.9379580" lon="-0.2407860">
        <ele>73.2</ele>
        <time>2020-11-14T10:20:10Z</time>
      </trkpt>
      <trkpt lat="38.9379290" lon="-0.2408560">
        <ele>73.3</ele>
        <time>2020-11-14T10:20:11Z</time>
      </trkpt>
      <trkpt lat="38.9379000" lon="-0.2409140">
        <ele>73.4</ele>
        <time>2020-11-14T10:20:12Z</time>
      </trkpt>
      <trkpt lat="38.9378800" lon="-0.2409740">
        <ele>73.5</ele>
        <time>2020-11-14T10:20:13Z</time>
      </trkpt>
      <trkpt lat="38.9378500" lon="-0.2410300">
        <ele>73.5</ele>
        <time>2020-11-14T10:20:14Z</time>
      </trkpt>
      <trkpt lat="38.9378340" lon="-0.2410910">
        <ele>73.6</ele>
        <time>2020-11-14T10:20:15Z</time>
      </trkpt>
      <trkpt lat="38.9378030" lon="-0.2411480">
        <ele>73.7</ele>
        <time>2020-11-14T10:20:16Z</time>
      </trkpt>
      <trkpt lat="38.9377780" lon="-0.2411960">
        <ele>73.7</ele>
        <time>2020-11-14T10:20:17Z</time>
      </trkpt>
      <trkpt lat="38.9377480" lon="-0.2412580">
        <ele>73.8</ele>
        <time>2020-11-14T10:20:18Z</time>
      </trkpt>
      <trkpt lat="38.9377180" lon="-0.2413250">
        <ele>73.8</ele>
        <time>2020-11-14T10:20:19Z</time>
      </trkpt>
      <trkpt lat="38.9376930" lon="-0.2413850">
        <ele>73.8</ele>
        <time>2020-11-14T10:20:20Z</time>
      </trkpt>
      <trkpt lat="38.9376670" lon="-0.2414460">
        <ele>73.9</ele>
        <time>2020-11-14T10:20:21Z</time>
      </trkpt>
      <trkpt lat="38.9376300" lon="-0.2415070">
        <ele>73.9</ele>
        <time>2020-11-14T10:20:22Z</time>
      </trkpt>
      <trkpt lat="38.9375970" lon="-0.2415660">
        <ele>74.0</ele>
        <time>2020-11-14T10:20:23Z</time>
      </trkpt>
      <trkpt lat="38.9375710" lon="-0.2416280">
        <ele>74.0</ele>
        <time>2020-11-14T10:20:24Z</time>
      </trkpt>
      <trkpt lat="38.9375420" lon="-0.2416960">
        <ele>74.0</ele>
        <time>2020-11-14T10:20:25Z</time>
      </trkpt>
      <trkpt lat="38.9375140" lon="-0.2417580">
        <ele>74.1</ele>
        <time>2020-11-14T10:20:26Z</time>
      </trkpt>
      <trkpt lat="38.9374930" lon="-0.2418280">
        <ele>74.1</ele>
        <time>2020-11-14T10:20:27Z</time>
      </trkpt>
      <trkpt lat="38.9374630" lon="-0.2418990">
        <ele>74.1</ele>
        <time>2020-11-14T10:20:28Z</time>
      </trkpt>
      <trkpt lat="38.9374280" lon="-0.2419630">
        <ele>74.1</ele>
        <time>2020-11-14T10:20:29Z</time>
      </trkpt>
      <trkpt lat="38.9374000" lon="-0.2420310">
        <ele>74.1</ele>
        <time>2020-11-14T10:20:30Z</time>
      </trkpt>
      <trkpt lat="38.9373650" lon="-0.2420970">
        <ele>74.2</ele>
        <time>2020-11-14T10:20:31Z</time>
      </trkpt>
      <trkpt lat="38.9373330" lon="-0.2421610">
        <ele>74.2</ele>
        <time>2020-11-14T10:20:32Z</time>
      </trkpt>
      <trkpt lat="38.9372970" lon="-0.2422300">
        <ele>74.2</ele>
        <time>2020-11-14T10:20:33Z</time>
      </trkpt>
      <trkpt lat="38.9372710" lon="-0.2422960">
        <ele>74.2</ele>
        <time>2020-11-14T10:20:34Z</time>
      </trkpt>
      <trkpt lat="38.9372270" lon="-0.2423670">
        <ele>74.3</ele>
        <time>2020-11-14T10:20:35Z</time>
      </trkpt>
      <trkpt lat="38.9372050" lon="-0.2424330">
        <ele>74.3</ele>
        <time>2020-11-14T10:20:36Z</time>
      </trkpt>
      <trkpt lat="38.9371810" lon="-0.2424990">
        <ele>74.3</ele>
        <time>2020-11-14T10:20:37Z</time>
      </trkpt>
      <trkpt lat="38.9371580" lon="-0.2425670">
        <ele>74.4</ele>
        <time>2020-11-14T10:20:38Z</time>
      </trkpt>
      <trkpt lat="38.9371300" lon="-0.2426400">
        <ele>74.4</ele>
        <time>2020-11-14T10:20:39Z</time>
      </trkpt>
      <trkpt lat="38.9370920" lon="-0.2427110">
        <ele>74.5</ele>
        <time>2020-11-14T10:20:40Z</time>
      </trkpt>
      <trkpt lat="38.9370650" lon="-0.2427760">
        <ele>74.5</ele>
        <time>2020-11-14T10:20:41Z</time>
      </trkpt>
      <trkpt lat="38.9370320" lon="-0.2428380">
        <ele>74.6</ele>
        <time>2020-11-14T10:20:42Z</time>
      </trkpt>
      <trkpt lat="38.9369970" lon="-0.2428960">
        <ele>74.6</ele>
        <time>2020-11-14T10:20:43Z</time>
      </trkpt>
      <trkpt lat="38.9369700" lon="-0.2429600">
        <ele>74.7</ele>
        <time>2020-11-14T10:20:44Z</time>
      </trkpt>
      <trkpt lat="38.9369390" lon="-0.2430180">
        <ele>74.7</ele>
        <time>2020-11-14T10:20:45Z</time>
      </trkpt>
      <trkpt lat="38.9369070" lon="-0.2430880">
        <ele>74.8</ele>
        <time>2020-11-14T10:20:46Z</time>
      </trkpt>
      <trkpt lat="38.9368750" lon="-0.2431560">
        <ele>74.8</ele>
        <time>2020-11-14T10:20:47Z</time>
      </trkpt>
      <trkpt lat="38.9368430" lon="-0.2432220">
        <ele>74.9</ele>
        <time>2020-11-14T10:20:48Z</time>
      </trkpt>
      <trkpt lat="38.9368130" lon="-0.2432920">
        <ele>74.9</ele>
        <time>2020-11-14T10:20:49Z</time>
      </trkpt>
      <trkpt lat="38.9367870" lon="-0.2433600">
        <ele>75.0</ele>
        <time>2020-11-14T10:20:50Z</time>
      </trkpt>
      <trkpt lat="38.9367590" lon="-0.2434250">
        <ele>75.0</ele>
        <time>2020-11-14T10:20:51Z</time>
      </trkpt>
      <trkpt lat="38.9367170" lon="-0.2434950">
        <ele>75.1</ele>
        <time>2020-11-14T10:20:52Z</time>
      </trkpt>
      <trkpt lat="38.9366830" lon="-0.2435590">
        <ele>75.1</ele>
        <time>2020-11-14T10:20:53Z</time>
      </trkpt>
      <trkpt lat="38.9366540" lon="-0.2436290">
        <ele>75.2</ele>
        <time>2020-11-14T10:20:54Z</time>
      </trkpt>
      <trkpt lat="38.9366200" lon="-0.2436890">
        <ele>75.2</ele>
        <time>2020-11-14T10:20:55Z</time>
      </trkpt>
      <trkpt lat="38.9365820" lon="-0.2437660">
        <ele>75.3</ele>
        <time>2020-11-14T10:20:56Z</time>
      </trkpt>
      <trkpt lat="38.9365530" lon="-0.2438360">
        <ele>75.4</ele>
        <time>2020-11-14T10:20:57Z</time>
      </trkpt>
      <trkpt lat="38.9365150" lon="-0.2439070">
        <ele>75.5</ele>
        <time>2020-11-14T10:20:58Z</time>
      </trkpt>
      <trkpt lat="38.9364900" lon="-0.2439630">
        <ele>75.6</ele>
        <time>2020-11-14T10:20:59Z</time>
      </trkpt>
      <trkpt lat="38.9364700" lon="-0.2440290">
        <ele>75.7</ele>
        <time>2020-11-14T10:21:00Z</time>
      </trkpt>
      <trkpt lat="38.9364350" lon="-0.2440990">
        <ele>75.9</ele>
        <time>2020-11-14T10:21:01Z</time>
      </trkpt>
      <trkpt lat="38.9364010" lon="-0.2441720">
        <ele>76.0</ele>
        <time>2020-11-14T10:21:02Z</time>
      </trkpt>
      <trkpt lat="38.9363750" lon="-0.2442410">
        <ele>76.2</ele>
        <time>2020-11-14T10:21:03Z</time>
      </trkpt>
      <trkpt lat="38.9363460" lon="-0.2443290">
        <ele>76.3</ele>
        <time>2020-11-14T10:21:04Z</time>
      </trkpt>
      <trkpt lat="38.9363130" lon="-0.2444020">
        <ele>76.4</ele>
        <time>2020-11-14T10:21:05Z</time>
      </trkpt>
      <trkpt lat="38.9362890" lon="-0.2444740">
        <ele>76.5</ele>
        <time>2020-11-14T10:21:06Z</time>
      </trkpt>
      <trkpt lat="38.9362580" lon="-0.2445420">
        <ele>76.5</ele>
        <time>2020-11-14T10:21:07Z</time>
      </trkpt>
      <trkpt lat="38.9362360" lon="-0.2446200">
        <ele>76.6</ele>
        <time>2020-11-14T10:21:08Z</time>
      </trkpt>
      <trkpt lat="38.9362200" lon="-0.2446870">
        <ele>76.6</ele>
        <time>2020-11-14T10:21:09Z</time>
      </trkpt>
      <trkpt lat="38.9361850" lon="-0.2447680">
        <ele>76.7</ele>
        <time>2020-11-14T10:21:10Z</time>
      </trkpt>
      <trkpt lat="38.9361510" lon="-0.2448440">
        <ele>76.7</ele>
        <time>2020-11-14T10:21:11Z</time>
      </trkpt>
      <trkpt lat="38.9361120" lon="-0.2449220">
        <ele>76.8</ele>
        <time>2020-11-14T10:21:12Z</time>
      </trkpt>
      <trkpt lat="38.9360780" lon="-0.2449920">
        <ele>76.8</ele>
        <time>2020-11-14T10:21:13Z</time>
      </trkpt>
      <trkpt lat="38.9360370" lon="-0.2450630">
        <ele>76.9</ele>
        <time>2020-11-14T10:21:14Z</time>
      </trkpt>
      <trkpt lat="38.9360090" lon="-0.2451280">
        <ele>76.9</ele>
        <time>2020-11-14T10:21:15Z</time>
      </trkpt>
      <trkpt lat="38.9359900" lon="-0.2452020">
        <ele>77.0</ele>
        <time>2020-11-14T10:21:16Z</time>
      </trkpt>
      <trkpt lat="38.9359590" lon="-0.2452610">
        <ele>77.0</ele>
        <time>2020-11-14T10:21:17Z</time>
      </trkpt>
      <trkpt lat="38.9359240" lon="-0.2453320">
        <ele>77.1</ele>
        <time>2020-11-14T10:21:18Z</time>
      </trkpt>
      <trkpt lat="38.9358910" lon="-0.2454030">
        <ele>77.1</ele>
        <time>2020-11-14T10:21:19Z</time>
      </trkpt>
      <trkpt lat="38.9358640" lon="-0.2454760">
        <ele>77.2</ele>
        <time>2020-11-14T10:21:20Z</time>
      </trkpt>
      <trkpt lat="38.9358290" lon="-0.2455470">
        <ele>77.3</ele>
        <time>2020-11-14T10:21:21Z</time>
      </trkpt>
      <trkpt lat="38.9357870" lon="-0.2456110">
        <ele>77.3</ele>
        <time>2020-11-14T10:21:22Z</time>
      </trkpt>
      <trkpt lat="38.9357510" lon="-0.2456760">
        <ele>77.3</ele>
        <time>2020-11-14T10:21:23Z</time>
      </trkpt>
      <trkpt lat="38.9357230" lon="-0.2457390">
        <ele>77.4</ele>
        <time>2020-11-14T10:21:24Z</time>
      </trkpt>
      <trkpt lat="38.9356990" lon="-0.2458000">
        <ele>77.4</ele>
        <time>2020-11-14T10:21:25Z</time>
      </trkpt>
      <trkpt lat="38.9356690" lon="-0.2458630">
        <ele>77.5</ele>
        <time>2020-11-14T10:21:26Z</time>
      </trkpt>
      <trkpt lat="38.9356330" lon="-0.2459400">
        <ele>77.5</ele>
        <time>2020-11-14T10:21:27Z</time>
      </trkpt>
      <trkpt lat="38.9355920" lon="-0.2460080">
        <ele>77.6</ele>
        <time>2020-11-14T10:21:28Z</time>
      </trkpt>
      <trkpt lat="38.9355630" lon="-0.2460760">
        <ele>77.6</ele>
        <time>2020-11-14T10:21:29Z</time>
      </trkpt>
      <trkpt lat="38.9355410" lon="-0.2461390">
        <ele>77.7</ele>
        <time>2020-11-14T10:21:30Z</time>
      </trkpt>
      <trkpt lat="38.9355110" lon="-0.2461980">
        <ele>77.7</ele>
        <time>2020-11-14T10:21:31Z</time>
      </trkpt>
      <trkpt lat="38.9354880" lon="-0.2462650">
        <ele>77.7</ele>
        <time>2020-11-14T10:21:32Z</time>
      </trkpt>
      <trkpt lat="38.9354620" lon="-0.2463330">
        <ele>77.8</ele>
        <time>2020-11-14T10:21:33Z</time>
      </trkpt>
      <trkpt lat="38.9354340" lon="-0.2464020">
        <ele>77.8</ele>
        <time>2020-11-14T10:21:34Z</time>
      </trkpt>
      <trkpt lat="38.9354080" lon="-0.2464680">
        <ele>77.8</ele>
        <time>2020-11-14T10:21:35Z</time>
      </trkpt>
      <trkpt lat="38.9353840" lon="-0.2465390">
        <ele>77.9</ele>
        <time>2020-11-14T10:21:36Z</time>
      </trkpt>
      <trkpt lat="38.9353480" lon="-0.2466070">
        <ele>77.9</ele>
        <time>2020-11-14T10:21:37Z</time>
      </trkpt>
      <trkpt lat="38.9353100" lon="-0.2466780">
        <ele>77.9</ele>
        <time>2020-11-14T10:21:38Z</time>
      </trkpt>
      <trkpt lat="38.9352830" lon="-0.2467430">
        <ele>77.9</ele>
        <time>2020-11-14T10:21:39Z</time>
      </trkpt>
      <trkpt lat="38.9352550" lon="-0.2468140">
        <ele>77.9</ele>
        <time>2020-11-14T10:21:40Z</time>
      </trkpt>
      <trkpt lat="38.9352200" lon="-0.2468930">
        <ele>77.9</ele>
        <time>2020-11-14T10:21:41Z</time>
      </trkpt>
      <trkpt lat="38.9351910" lon="-0.2469680">
        <ele>77.9</ele>
        <time>2020-11-14T10:21:42Z</time>
      </trkpt>
      <trkpt lat="38.9351680" lon="-0.2470400">
        <ele>77.9</ele>
        <time>2020-11-14T10:21:43Z</time>
      </trkpt>
      <trkpt lat="38.9351500" lon="-0.2471110">
        <ele>77.9</ele>
        <time>2020-11-14T10:21:44Z</time>
      </trkpt>
      <trkpt lat="38.9351260" lon="-0.2471880">
        <ele>77.9</ele>
        <time>2020-11-14T10:21:45Z</time>
      </trkpt>
      <trkpt lat="38.9351020" lon="-0.2472580">
        <ele>77.9</ele>
        <time>2020-11-14T10:21:46Z</time>
      </trkpt>
      <trkpt lat="38.9350710" lon="-0.2473240">
        <ele>77.9</ele>
        <time>2020-11-14T10:21:47Z</time>
      </trkpt>
      <trkpt lat="38.9350430" lon="-0.2474010">
        <ele>78.0</ele>
        <time>2020-11-14T10:21:48Z</time>
      </trkpt>
      <trkpt lat="38.9350160" lon="-0.2474760">
        <ele>78.0</ele>
        <time>2020-11-14T10:21:49Z</time>
      </trkpt>
      <trkpt lat="38.9349860" lon="-0.2475510">
        <ele>78.0</ele>
        <time>2020-11-14T10:21:50Z</time>
      </trkpt>
      <trkpt lat="38.9349490" lon="-0.2476250">
        <ele>78.1</ele>
        <time>2020-11-14T10:21:51Z</time>
      </trkpt>
      <trkpt lat="38.9349210" lon="-0.2476860">
        <ele>78.1</ele>
        <time>2020-11-14T10:21:52Z</time>
      </trkpt>
      <trkpt lat="38.9348830" lon="-0.2477510">
        <ele>78.1</ele>
        <time>2020-11-14T10:21:53Z</time>
      </trkpt>
      <trkpt lat="38.9348430" lon="-0.2478190">
        <ele>78.2</ele>
        <time>2020-11-14T10:21:54Z</time>
      </trkpt>
      <trkpt lat="38.9348060" lon="-0.2478860">
        <ele>78.2</ele>
        <time>2020-11-14T10:21:55Z</time>
      </trkpt>
      <trkpt lat="38.9347760" lon="-0.2479540">
        <ele>78.2</ele>
        <time>2020-11-14T10:21:56Z</time>
      </trkpt>
      <trkpt lat="38.9347410" lon="-0.2480270">
        <ele>78.2</ele>
        <time>2020-11-14T10:21:57Z</time>
      </trkpt>
      <trkpt lat="38.9347150" lon="-0.2480880">
        <ele>78.2</ele>
        <time>2020-11-14T10:21:58Z</time>
      </trkpt>
      <trkpt lat="38.9346840" lon="-0.2481500">
        <ele>78.3</ele>
        <time>2020-11-14T10:21:59Z</time>
      </trkpt>
      <trkpt lat="38.9346590" lon="-0.2482220">
        <ele>78.3</ele>
        <time>2020-11-14T10:22:00Z</time>
      </trkpt>
      <trkpt lat="38.9346330" lon="-0.2482810">
        <ele>78.4</ele>
        <time>2020-11-14T10:22:01Z</time>
      </trkpt>
      <trkpt lat="38.9345970" lon="-0.2483450">
        <ele>78.4</ele>
        <time>2020-11-14T10:22:02Z</time>
      </trkpt>
      <trkpt lat="38.9345670" lon="-0.2484070">
        <ele>78.5</ele>
        <time>2020-11-14T10:22:03Z</time>
      </trkpt>
      <trkpt lat="38.9345320" lon="-0.2484770">
        <ele>78.6</ele>
        <time>2020-11-14T10:22:04Z</time>
      </trkpt>
      <trkpt lat="38.9344950" lon="-0.2485420">
        <ele>78.6</ele>
        <time>2020-11-14T10:22:05Z</time>
      </trkpt>
      <trkpt lat="38.9344650" lon="-0.2486130">
        <ele>78.7</ele>
        <time>2020-11-14T10:22:06Z</time>
      </trkpt>
      <trkpt lat="38.9344330" lon="-0.2486730">
        <ele>78.8</ele>
        <time>2020-11-14T10:22:07Z</time>
      </trkpt>
      <trkpt lat="38.9344090" lon="-0.2487350">
        <ele>78.8</ele>
        <time>2020-11-14T10:22:08Z</time>
      </trkpt>
      <trkpt lat="38.9343740" lon="-0.2488000">
        <ele>78.9</ele>
        <time>2020-11-14T10:22:09Z</time>
      </trkpt>
      <trkpt lat="38.9343380" lon="-0.2488630">
        <ele>79.0</ele>
        <time>2020-11-14T10:22:10Z</time>
      </trkpt>
      <trkpt lat="38.9342990" lon="-0.2489280">
        <ele>79.1</ele>
        <time>2020-11-14T10:22:11Z</time>
      </trkpt>
      <trkpt lat="38.9342540" lon="-0.2489860">
        <ele>79.1</ele>
        <time>2020-11-14T10:22:12Z</time>
      </trkpt>
      <trkpt lat="38.9342220" lon="-0.2490500">
        <ele>79.2</ele>
        <time>2020-11-14T10:22:13Z</time>
      </trkpt>
      <trkpt lat="38.9341930" lon="-0.2491190">
        <ele>79.3</ele>
        <time>2020-11-14T10:22:14Z</time>
      </trkpt>
      <trkpt lat="38.9341660" lon="-0.2491870">
        <ele>79.4</ele>
        <time>2020-11-14T10:22:15Z</time>
      </trkpt>
      <trkpt lat="38.9341250" lon="-0.2492530">
        <ele>79.4</ele>
        <time>2020-11-14T10:22:16Z</time>
      </trkpt>
      <trkpt lat="38.9341010" lon="-0.2493110">
        <ele>79.5</ele>
        <time>2020-11-14T10:22:17Z</time>
      </trkpt>
      <trkpt lat="38.9340640" lon="-0.2493650">
        <ele>79.6</ele>
        <time>2020-11-14T10:22:18Z</time>
      </trkpt>
      <trkpt lat="38.9340360" lon="-0.2494300">
        <ele>79.7</ele>
        <time>2020-11-14T10:22:19Z</time>
      </trkpt>
      <trkpt lat="38.9339960" lon="-0.2494940">
        <ele>79.8</ele>
        <time>2020-11-14T10:22:20Z</time>
      </trkpt>
      <trkpt lat="38.9339640" lon="-0.2495550">
        <ele>79.9</ele>
        <time>2020-11-14T10:22:21Z</time>
      </trkpt>
      <trkpt lat="38.9339300" lon="-0.2496060">
        <ele>80.0</ele>
        <time>2020-11-14T10:22:22Z</time>
      </trkpt>
      <trkpt lat="38.9338910" lon="-0.2496670">
        <ele>80.1</ele>
        <time>2020-11-14T10:22:23Z</time>
      </trkpt>
      <trkpt lat="38.9338600" lon="-0.2497220">
        <ele>80.1</ele>
        <time>2020-11-14T10:22:24Z</time>
      </trkpt>
      <trkpt lat="38.9338300" lon="-0.2497750">
        <ele>80.2</ele>
        <time>2020-11-14T10:22:25Z</time>
      </trkpt>
      <trkpt lat="38.9338000" lon="-0.2498320">
        <ele>80.2</ele>
        <time>2020-11-14T10:22:26Z</time>
      </trkpt>
      <trkpt lat="38.9337710" lon="-0.2498910">
        <ele>80.3</ele>
        <time>2020-11-14T10:22:27Z</time>
      </trkpt>
      <trkpt lat="38.9337300" lon="-0.2499450">
        <ele>80.4</ele>
        <time>2020-11-14T10:22:28Z</time>
      </trkpt>
      <trkpt lat="38.9336930" lon="-0.2500000">
        <ele>80.5</ele>
        <time>2020-11-14T10:22:29Z</time>
      </trkpt>
      <trkpt lat="38.9336550" lon="-0.2500400">
        <ele>80.6</ele>
        <time>2020-11-14T10:22:30Z</time>
      </trkpt>
      <trkpt lat="38.9336130" lon="-0.2500920">
        <ele>80.6</ele>
        <time>2020-11-14T10:22:31Z</time>
      </trkpt>
      <trkpt lat="38.9335740" lon="-0.2501410">
        <ele>80.7</ele>
        <time>2020-11-14T10:22:32Z</time>
      </trkpt>
      <trkpt lat="38.9335360" lon="-0.2501870">
        <ele>80.8</ele>
        <time>2020-11-14T10:22:33Z</time>
      </trkpt>
      <trkpt lat="38.9334960" lon="-0.2502300">
        <ele>80.9</ele>
        <time>2020-11-14T10:22:34Z</time>
      </trkpt>
      <trkpt lat="38.9334560" lon="-0.2502730">
        <ele>81.0</ele>
        <time>2020-11-14T10:22:35Z</time>
      </trkpt>
      <trkpt lat="38.9334130" lon="-0.2503180">
        <ele>81.1</ele>
        <time>2020-11-14T10:22:36Z</time>
      </trkpt>
      <trkpt lat="38.9333710" lon="-0.2503660">
        <ele>81.2</ele>
        <time>2020-11-14T10:22:37Z</time>
      </trkpt>
      <trkpt lat="38.9333350" lon="-0.2504140">
        <ele>81.3</ele>
        <time>2020-11-14T10:22:38Z</time>
      </trkpt>
      <trkpt lat="38.9332920" lon="-0.2504610">
        <ele>81.4</ele>
        <time>2020-11-14T10:22:39Z</time>
      </trkpt>
      <trkpt lat="38.9332560" lon="-0.2505060">
        <ele>81.5</ele>
        <time>2020-11-14T10:22:40Z</time>
      </trkpt>
      <trkpt lat="38.9332190" lon="-0.2505420">
        <ele>81.5</ele>
        <time>2020-11-14T10:22:41Z</time>
      </trkpt>
      <trkpt lat="38.9331810" lon="-0.2505860">
        <ele>81.6</ele>
        <time>2020-11-14T10:22:42Z</time>
      </trkpt>
      <trkpt lat="38.9331430" lon="-0.2506290">
        <ele>81.7</ele>
        <time>2020-11-14T10:22:43Z</time>
      </trkpt>
      <trkpt lat="38.9331100" lon="-0.2506710">
        <ele>81.8</ele>
        <time>2020-11-14T10:22:44Z</time>
      </trkpt>
      <trkpt lat="38.9330700" lon="-0.2507120">
        <ele>81.9</ele>
        <time>2020-11-14T10:22:45Z</time>
      </trkpt>
      <trkpt lat="38.9330310" lon="-0.2507510">
        <ele>82.0</ele>
        <time>2020-11-14T10:22:46Z</time>
      </trkpt>
      <trkpt lat="38.9329900" lon="-0.2507880">
        <ele>82.0</ele>
        <time>2020-11-14T10:22:47Z</time>
      </trkpt>
      <trkpt lat="38.9329560" lon="-0.2508220">
        <ele>82.1</ele>
        <time>2020-11-14T10:22:48Z</time>
      </trkpt>
      <trkpt lat="38.9329190" lon="-0.2508540">
        <ele>82.2</ele>
        <time>2020-11-14T10:22:49Z</time>
      </trkpt>
      <trkpt lat="38.9328810" lon="-0.2508830">
        <ele>82.3</ele>
        <time>2020-11-14T10:22:50Z</time>
      </trkpt>
      <trkpt lat="38.9328370" lon="-0.2509140">
        <ele>82.4</ele>
        <time>2020-11-14T10:22:51Z</time>
      </trkpt>
      <trkpt lat="38.9327940" lon="-0.2509390">
        <ele>82.4</ele>
        <time>2020-11-14T10:22:52Z</time>
      </trkpt>
      <trkpt lat="38.9327490" lon="-0.2509600">
        <ele>82.6</ele>
        <time>2020-11-14T10:22:53Z</time>
      </trkpt>
      <trkpt lat="38.9327110" lon="-0.2509770">
        <ele>82.6</ele>
        <time>2020-11-14T10:22:54Z</time>
      </trkpt>
      <trkpt lat="38.9326570" lon="-0.2509910">
        <ele>82.8</ele>
        <time>2020-11-14T10:22:55Z</time>
      </trkpt>
      <trkpt lat="38.9326130" lon="-0.2509910">
        <ele>82.9</ele>
        <time>2020-11-14T10:22:56Z</time>
      </trkpt>
      <trkpt lat="38.9325670" lon="-0.2509950">
        <ele>83.0</ele>
        <time>2020-11-14T10:22:57Z</time>
      </trkpt>
      <trkpt lat="38.9325160" lon="-0.2509890">
        <ele>83.1</ele>
        <time>2020-11-14T10:22:58Z</time>
      </trkpt>
      <trkpt lat="38.9324830" lon="-0.2509780">
        <ele>83.2</ele>
        <time>2020-11-14T10:22:59Z</time>
      </trkpt>
      <trkpt lat="38.9324400" lon="-0.2509610">
        <ele>83.3</ele>
        <time>2020-11-14T10:23:00Z</time>
      </trkpt>
      <trkpt lat="38.9324020" lon="-0.2509710">
        <ele>83.4</ele>
        <time>2020-11-14T10:23:01Z</time>
      </trkpt>
      <trkpt lat="38.9323590" lon="-0.2509960">
        <ele>83.4</ele>
        <time>2020-11-14T10:23:02Z</time>
      </trkpt>
      <trkpt lat="38.9323240" lon="-0.2510040">
        <ele>83.5</ele>
        <time>2020-11-14T10:23:03Z</time>
      </trkpt>
      <trkpt lat="38.9323060" lon="-0.2510680">
        <ele>83.6</ele>
        <time>2020-11-14T10:23:04Z</time>
      </trkpt>
      <trkpt lat="38.9322920" lon="-0.2511160">
        <ele>83.7</ele>
        <time>2020-11-14T10:23:05Z</time>
      </trkpt>
      <trkpt lat="38.9322980" lon="-0.2511610">
        <ele>83.7</ele>
        <time>2020-11-14T10:23:06Z</time>
      </trkpt>
      <trkpt lat="38.9323160" lon="-0.2512080">
        <ele>83.8</ele>
        <time>2020-11-14T10:23:07Z</time>
      </trkpt>
      <trkpt lat="38.9323330" lon="-0.2512430">
        <ele>83.9</ele>
        <time>2020-11-14T10:23:08Z</time>
      </trkpt>
      <trkpt lat="38.9323540" lon="-0.2512730">
        <ele>84.1</ele>
        <time>2020-11-14T10:23:09Z</time>
      </trkpt>
      <trkpt lat="38.9323900" lon="-0.2512770">
        <ele>84.1</ele>
        <time>2020-11-14T10:23:10Z</time>
      </trkpt>
      <trkpt lat="38.9324070" lon="-0.2512750">
        <ele>84.1</ele>
        <time>2020-11-14T10:23:11Z</time>
      </trkpt>
      <trkpt lat="38.9324360" lon="-0.2512540">
        <ele>84.1</ele>
        <time>2020-11-14T10:23:12Z</time>
      </trkpt>
      <trkpt lat="38.9324660" lon="-0.2512360">
        <ele>84.1</ele>
        <time>2020-11-14T10:23:13Z</time>
      </trkpt>
      <trkpt lat="38.9325000" lon="-0.2512240">
        <ele>84.2</ele>
        <time>2020-11-14T10:23:14Z</time>
      </trkpt>
      <trkpt lat="38.9325470" lon="-0.2512340">
        <ele>84.2</ele>
        <time>2020-11-14T10:23:15Z</time>
      </trkpt>
      <trkpt lat="38.9325850" lon="-0.2512520">
        <ele>84.2</ele>
        <time>2020-11-14T10:23:16Z</time>
      </trkpt>
      <trkpt lat="38.9326120" lon="-0.2512920">
        <ele>84.3</ele>
        <time>2020-11-14T10:23:17Z</time>
      </trkpt>
      <trkpt lat="38.9326480" lon="-0.2513230">
        <ele>84.3</ele>
        <time>2020-11-14T10:23:18Z</time>
      </trkpt>
      <trkpt lat="38.9326870" lon="-0.2513670">
        <ele>84.4</ele>
        <time>2020-11-14T10:23:19Z</time>
      </trkpt>
      <trkpt lat="38.9327250" lon="-0.2514160">
        <ele>84.4</ele>
        <time>2020-11-14T10:23:20Z</time>
      </trkpt>
      <trkpt lat="38.9327450" lon="-0.2514870">
        <ele>84.5</ele>
        <time>2020-11-14T10:23:21Z</time>
      </trkpt>
      <trkpt lat="38.9327630" lon="-0.2515520">
        <ele>84.5</ele>
        <time>2020-11-14T10:23:22Z</time>
      </trkpt>
      <trkpt lat="38.9327830" lon="-0.2516160">
        <ele>84.6</ele>
        <time>2020-11-14T10:23:23Z</time>
      </trkpt>
      <trkpt lat="38.9328070" lon="-0.2516920">
        <ele>84.7</ele>
        <time>2020-11-14T10:23:24Z</time>
      </trkpt>
      <trkpt lat="38.9328350" lon="-0.2517550">
        <ele>84.8</ele>
        <time>2020-11-14T10:23:25Z</time>
      </trkpt>
      <trkpt lat="38.9328720" lon="-0.2518210">
        <ele>85.0</ele>
        <time>2020-11-14T10:23:26Z</time>
      </trkpt>
      <trkpt lat="38.9329090" lon="-0.2518790">
        <ele>85.2</ele>
        <time>2020-11-14T10:23:27Z</time>
      </trkpt>
      <trkpt lat="38.9329510" lon="-0.2519310">
        <ele>85.4</ele>
        <time>2020-11-14T10:23:28Z</time>
      </trkpt>
      <trkpt lat="38.9329820" lon="-0.2519690">
        <ele>85.5</ele>
        <time>2020-11-14T10:23:29Z</time>
      </trkpt>
      <trkpt lat="38.9330080" lon="-0.2520050">
        <ele>85.7</ele>
        <time>2020-11-14T10:23:30Z</time>
      </trkpt>
      <trkpt lat="38.9330250" lon="-0.2520330">
        <ele>85.8</ele>
        <time>2020-11-14T10:23:31Z</time>
      </trkpt>
      <trkpt lat="38.9330610" lon="-0.2520730">
        <ele>86.0</ele>
        <time>2020-11-14T10:23:32Z</time>
      </trkpt>
      <trkpt lat="38.9331010" lon="-0.2520640">
        <ele>86.1</ele>
        <time>2020-11-14T10:23:33Z</time>
      </trkpt>
      <trkpt lat="38.9331370" lon="-0.2520790">
        <ele>86.1</ele>
        <time>2020-11-14T10:23:34Z</time>
      </trkpt>
      <trkpt lat="38.9331830" lon="-0.2520820">
        <ele>86.1</ele>
        <time>2020-11-14T10:23:35Z</time>
      </trkpt>
      <trkpt lat="38.9332290" lon="-0.2520740">
        <ele>86.1</ele>
        <time>2020-11-14T10:23:36Z</time>
      </trkpt>
      <trkpt lat="38.9332760" lon="-0.2520760">
        <ele>86.1</ele>
        <time>2020-11-14T10:23:37Z</time>
      </trkpt>
      <trkpt lat="38.9333270" lon="-0.2520750">
        <ele>86.1</ele>
        <time>2020-11-14T10:23:38Z</time>
      </trkpt>
      <trkpt lat="38.9333750" lon="-0.2520890">
        <ele>86.1</ele>
        <time>2020-11-14T10:23:39Z</time>
      </trkpt>
      <trkpt lat="38.9334190" lon="-0.2521050">
        <ele>86.1</ele>
        <time>2020-11-14T10:23:40Z</time>
      </trkpt>
      <trkpt lat="38.9334660" lon="-0.2521310">
        <ele>86.2</ele>
        <time>2020-11-14T10:23:41Z</time>
      </trkpt>
      <trkpt lat="38.9335070" lon="-0.2521650">
        <ele>86.2</ele>
        <time>2020-11-14T10:23:42Z</time>
      </trkpt>
      <trkpt lat="38.9335390" lon="-0.2522100">
        <ele>86.2</ele>
        <time>2020-11-14T10:23:43Z</time>
      </trkpt>
      <trkpt lat="38.9335620" lon="-0.2522710">
        <ele>86.3</ele>
        <time>2020-11-14T10:23:44Z</time>
      </trkpt>
      <trkpt lat="38.9335800" lon="-0.2523290">
        <ele>86.3</ele>
        <time>2020-11-14T10:23:45Z</time>
      </trkpt>
      <trkpt lat="38.9335850" lon="-0.2523970">
        <ele>86.5</ele>
        <time>2020-11-14T10:23:46Z</time>
      </trkpt>
      <trkpt lat="38.9335770" lon="-0.2524570">
        <ele>86.5</ele>
        <time>2020-11-14T10:23:47Z</time>
      </trkpt>
      <trkpt lat="38.9335600" lon="-0.2525110">
        <ele>86.7</ele>
        <time>2020-11-14T10:23:48Z</time>
      </trkpt>
      <trkpt lat="38.9335360" lon="-0.2525500">
        <ele>86.8</ele>
        <time>2020-11-14T10:23:49Z</time>
      </trkpt>
      <trkpt lat="38.9335050" lon="-0.2525790">
        <ele>86.9</ele>
        <time>2020-11-14T10:23:50Z</time>
      </trkpt>
      <trkpt lat="38.9334760" lon="-0.2525990">
        <ele>87.0</ele>
        <time>2020-11-14T10:23:51Z</time>
      </trkpt>
      <trkpt lat="38.9334460" lon="-0.2526180">
        <ele>87.2</ele>
        <time>2020-11-14T10:23:52Z</time>
      </trkpt>
      <trkpt lat="38.9334140" lon="-0.2526390">
        <ele>87.3</ele>
        <time>2020-11-14T10:23:53Z</time>
      </trkpt>
      <trkpt lat="38.9333900" lon="-0.2526550">
        <ele>87.5</ele>
        <time>2020-11-14T10:23:54Z</time>
      </trkpt>
      <trkpt lat="38.9333640" lon="-0.2526700">
        <ele>87.6</ele>
        <time>2020-11-14T10:23:55Z</time>
      </trkpt>
      <trkpt lat="38.9333360" lon="-0.2526840">
        <ele>87.7</ele>
        <time>2020-11-14T10:23:56Z</time>
      </trkpt>
      <trkpt lat="38.9333100" lon="-0.2527030">
        <ele>88.0</ele>
        <time>2020-11-14T10:23:57Z</time>
      </trkpt>
      <trkpt lat="38.9332830" lon="-0.2527240">
        <ele>88.3</ele>
        <time>2020-11-14T10:23:58Z</time>
      </trkpt>
      <trkpt lat="38.9332580" lon="-0.2527470">
        <ele>88.7</ele>
        <time>2020-11-14T10:23:59Z</time>
      </trkpt>
      <trkpt lat="38.9332360" lon="-0.2527740">
        <ele>89.0</ele>
        <time>2020-11-14T10:24:00Z</time>
      </trkpt>
      <trkpt lat="38.9332160" lon="-0.2528030">
        <ele>89.3</ele>
        <time>2020-11-14T10:24:01Z</time>
      </trkpt>
      <trkpt lat="38.9331960" lon="-0.2528350">
        <ele>89.7</ele>
        <time>2020-11-14T10:24:02Z</time>
      </trkpt>
      <trkpt lat="38.9331790" lon="-0.2528690">
        <ele>90.0</ele>
        <time>2020-11-14T10:24:03Z</time>
      </trkpt>
      <trkpt lat="38.9331640" lon="-0.2529030">
        <ele>90.4</ele>
        <time>2020-11-14T10:24:04Z</time>
      </trkpt>
      <trkpt lat="38.9331480" lon="-0.2529370">
        <ele>90.7</ele>
        <time>2020-11-14T10:24:05Z</time>
      </trkpt>
      <trkpt lat="38.9331330" lon="-0.2529730">
        <ele>91.2</ele>
        <time>2020-11-14T10:24:06Z</time>
      </trkpt>
      <trkpt lat="38.9331180" lon="-0.2530080">
        <ele>91.5</ele>
        <time>2020-11-14T10:24:07Z</time>
      </trkpt>
      <trkpt lat="38.9331040" lon="-0.2530430">
        <ele>91.8</ele>
        <time>2020-11-14T10:24:08Z</time>
      </trkpt>
      <trkpt lat="38.9330890" lon="-0.2530770">
        <ele>92.1</ele>
        <time>2020-11-14T10:24:09Z</time>
      </trkpt>
      <trkpt lat="38.9330760" lon="-0.2531090">
        <ele>92.3</ele>
        <time>2020-11-14T10:24:10Z</time>
      </trkpt>
      <trkpt lat="38.9330640" lon="-0.2531400">
        <ele>92.6</ele>
        <time>2020-11-14T10:24:11Z</time>
      </trkpt>
      <trkpt lat="38.9330500" lon="-0.2531740">
        <ele>92.8</ele>
        <time>2020-11-14T10:24:12Z</time>
      </trkpt>
      <trkpt lat="38.9330360" lon="-0.2532070">
        <ele>93.1</ele>
        <time>2020-11-14T10:24:13Z</time>
      </trkpt>
      <trkpt lat="38.9330210" lon="-0.2532400">
        <ele>93.4</ele>
        <time>2020-11-14T10:24:14Z</time>
      </trkpt>
      <trkpt lat="38.9330040" lon="-0.2532740">
        <ele>93.7</ele>
        <time>2020-11-14T10:24:15Z</time>
      </trkpt>
      <trkpt lat="38.9329850" lon="-0.2533090">
        <ele>94.0</ele>
        <time>2020-11-14T10:24:16Z</time>
      </trkpt>
      <trkpt lat="38.9329660" lon="-0.2533400">
        <ele>94.2</ele>
        <time>2020-11-14T10:24:17Z</time>
      </trkpt>
      <trkpt lat="38.9329490" lon="-0.2533760">
        <ele>94.5</ele>
        <time>2020-11-14T10:24:18Z</time>
      </trkpt>
      <trkpt lat="38.9329360" lon="-0.2534130">
        <ele>94.8</ele>
        <time>2020-11-14T10:24:19Z</time>
      </trkpt>
      <trkpt lat="38.9329250" lon="-0.2534460">
        <ele>95.0</ele>
        <time>2020-11-14T10:24:20Z</time>
      </trkpt>
      <trkpt lat="38.9329050" lon="-0.2534920">
        <ele>95.4</ele>
        <time>2020-11-14T10:24:21Z</time>
      </trkpt>
      <trkpt lat="38.9328970" lon="-0.2535070">
        <ele>95.5</ele>
        <time>2020-11-14T10:24:22Z</time>
      </trkpt>
      <trkpt lat="38.9328810" lon="-0.2535400">
        <ele>95.8</ele>
        <time>2020-11-14T10:24:23Z</time>
      </trkpt>
      <trkpt lat="38.9328670" lon="-0.2535740">
        <ele>96.0</ele>
        <time>2020-11-14T10:24:24Z</time>
      </trkpt>
      <trkpt lat="38.9328520" lon="-0.2536060">
        <ele>96.2</ele>
        <time>2020-11-14T10:24:25Z</time>
      </trkpt>
      <trkpt lat="38.9328350" lon="-0.2536370">
        <ele>96.5</ele>
        <time>2020-11-14T10:24:26Z</time>
      </trkpt>
      <trkpt lat="38.9328190" lon="-0.2536680">
        <ele>96.7</ele>
        <time>2020-11-14T10:24:27Z</time>
      </trkpt>
      <trkpt lat="38.9328030" lon="-0.2536970">
        <ele>96.9</ele>
        <time>2020-11-14T10:24:28Z</time>
      </trkpt>
      <trkpt lat="38.9327870" lon="-0.2537270">
        <ele>97.1</ele>
        <time>2020-11-14T10:24:29Z</time>
      </trkpt>
      <trkpt lat="38.9327720" lon="-0.2537590">
        <ele>97.3</ele>
        <time>2020-11-14T10:24:30Z</time>
      </trkpt>
      <trkpt lat="38.9327570" lon="-0.2537920">
        <ele>97.5</ele>
        <time>2020-11-14T10:24:31Z</time>
      </trkpt>
      <trkpt lat="38.9327430" lon="-0.2538230">
        <ele>97.7</ele>
        <time>2020-11-14T10:24:32Z</time>
      </trkpt>
      <trkpt lat="38.9327240" lon="-0.2538630">
        <ele>97.9</ele>
        <time>2020-11-14T10:24:33Z</time>
      </trkpt>
      <trkpt lat="38.9327180" lon="-0.2538760">
        <ele>98.0</ele>
        <time>2020-11-14T10:24:34Z</time>
      </trkpt>
      <trkpt lat="38.9327020" lon="-0.2539080">
        <ele>98.2</ele>
        <time>2020-11-14T10:24:35Z</time>
      </trkpt>
      <trkpt lat="38.9326850" lon="-0.2539370">
        <ele>98.4</ele>
        <time>2020-11-14T10:24:36Z</time>
      </trkpt>
      <trkpt lat="38.9326680" lon="-0.2539650">
        <ele>98.6</ele>
        <time>2020-11-14T10:24:37Z</time>
      </trkpt>
      <trkpt lat="38.9326490" lon="-0.2540070">
        <ele>98.8</ele>
        <time>2020-11-14T10:24:38Z</time>
      </trkpt>
      <trkpt lat="38.9326430" lon="-0.2540210">
        <ele>98.9</ele>
        <time>2020-11-14T10:24:39Z</time>
      </trkpt>
      <trkpt lat="38.9326300" lon="-0.2540540">
        <ele>99.1</ele>
        <time>2020-11-14T10:24:40Z</time>
      </trkpt>
      <trkpt lat="38.9326180" lon="-0.2540860">
        <ele>99.3</ele>
        <time>2020-11-14T10:24:41Z</time>
      </trkpt>
      <trkpt lat="38.9326050" lon="-0.2541180">
        <ele>99.5</ele>
        <time>2020-11-14T10:24:42Z</time>
      </trkpt>
      <trkpt lat="38.9325930" lon="-0.2541500">
        <ele>99.6</ele>
        <time>2020-11-14T10:24:43Z</time>
      </trkpt>
      <trkpt lat="38.9325810" lon="-0.2541830">
        <ele>99.8</ele>
        <time>2020-11-14T10:24:44Z</time>
      </trkpt>
      <trkpt lat="38.9325660" lon="-0.2542170">
        <ele>100.0</ele>
        <time>2020-11-14T10:24:45Z</time>
      </trkpt>
      <trkpt lat="38.9325520" lon="-0.2542470">
        <ele>100.1</ele>
        <time>2020-11-14T10:24:46Z</time>
      </trkpt>
      <trkpt lat="38.9325380" lon="-0.2542800">
        <ele>100.3</ele>
        <time>2020-11-14T10:24:47Z</time>
      </trkpt>
      <trkpt lat="38.9325240" lon="-0.2543120">
        <ele>100.4</ele>
        <time>2020-11-14T10:24:48Z</time>
      </trkpt>
      <trkpt lat="38.9325110" lon="-0.2543430">
        <ele>100.5</ele>
        <time>2020-11-14T10:24:49Z</time>
      </trkpt>
      <trkpt lat="38.9324980" lon="-0.2543780">
        <ele>100.6</ele>
        <time>2020-11-14T10:24:50Z</time>
      </trkpt>
      <trkpt lat="38.9324860" lon="-0.2544130">
        <ele>100.7</ele>
        <time>2020-11-14T10:24:51Z</time>
      </trkpt>
      <trkpt lat="38.9324750" lon="-0.2544480">
        <ele>100.8</ele>
        <time>2020-11-14T10:24:52Z</time>
      </trkpt>
      <trkpt lat="38.9324630" lon="-0.2544840">
        <ele>100.9</ele>
        <time>2020-11-14T10:24:53Z</time>
      </trkpt>
      <trkpt lat="38.9324520" lon="-0.2545210">
        <ele>101.0</ele>
        <time>2020-11-14T10:24:54Z</time>
      </trkpt>
      <trkpt lat="38.9324390" lon="-0.2545590">
        <ele>101.1</ele>
        <time>2020-11-14T10:24:55Z</time>
      </trkpt>
      <trkpt lat="38.9324260" lon="-0.2545970">
        <ele>101.2</ele>
        <time>2020-11-14T10:24:56Z</time>
      </trkpt>
      <trkpt lat="38.9324120" lon="-0.2546320">
        <ele>101.3</ele>
        <time>2020-11-14T10:24:57Z</time>
      </trkpt>
      <trkpt lat="38.9323980" lon="-0.2546650">
        <ele>101.4</ele>
        <time>2020-11-14T10:24:58Z</time>
      </trkpt>
      <trkpt lat="38.9323790" lon="-0.2547150">
        <ele>101.5</ele>
        <time>2020-11-14T10:24:59Z</time>
      </trkpt>
      <trkpt lat="38.9323720" lon="-0.2547350">
        <ele>101.5</ele>
        <time>2020-11-14T10:25:00Z</time>
      </trkpt>
      <trkpt lat="38.9323540" lon="-0.2547810">
        <ele>101.6</ele>
        <time>2020-11-14T10:25:01Z</time>
      </trkpt>
      <trkpt lat="38.9323340" lon="-0.2548310">
        <ele>101.7</ele>
        <time>2020-11-14T10:25:02Z</time>
      </trkpt>
      <trkpt lat="38.9323160" lon="-0.2548790">
        <ele>101.8</ele>
        <time>2020-11-14T10:25:03Z</time>
      </trkpt>
      <trkpt lat="38.9322970" lon="-0.2549270">
        <ele>102.0</ele>
        <time>2020-11-14T10:25:04Z</time>
      </trkpt>
      <trkpt lat="38.9322790" lon="-0.2549740">
        <ele>102.1</ele>
        <time>2020-11-14T10:25:05Z</time>
      </trkpt>
      <trkpt lat="38.9322580" lon="-0.2550230">
        <ele>102.2</ele>
        <time>2020-11-14T10:25:06Z</time>
      </trkpt>
      <trkpt lat="38.9322090" lon="-0.2550730">
        <ele>102.3</ele>
        <time>2020-11-14T10:25:07Z</time>
      </trkpt>
      <trkpt lat="38.9321830" lon="-0.2551240">
        <ele>102.4</ele>
        <time>2020-11-14T10:25:08Z</time>
      </trkpt>
      <trkpt lat="38.9321720" lon="-0.2551770">
        <ele>102.5</ele>
        <time>2020-11-14T10:25:09Z</time>
      </trkpt>
      <trkpt lat="38.9321520" lon="-0.2552280">
        <ele>102.5</ele>
        <time>2020-11-14T10:25:10Z</time>
      </trkpt>
      <trkpt lat="38.9321350" lon="-0.2552820">
        <ele>102.6</ele>
        <time>2020-11-14T10:25:11Z</time>
      </trkpt>
      <trkpt lat="38.9320960" lon="-0.2553250">
        <ele>102.7</ele>
        <time>2020-11-14T10:25:12Z</time>
      </trkpt>
      <trkpt lat="38.9320710" lon="-0.2553760">
        <ele>102.7</ele>
        <time>2020-11-14T10:25:13Z</time>
      </trkpt>
      <trkpt lat="38.9320510" lon="-0.2554250">
        <ele>102.8</ele>
        <time>2020-11-14T10:25:14Z</time>
      </trkpt>
      <trkpt lat="38.9320320" lon="-0.2554790">
        <ele>102.9</ele>
        <time>2020-11-14T10:25:15Z</time>
      </trkpt>
      <trkpt lat="38.9320110" lon="-0.2555330">
        <ele>102.9</ele>
        <time>2020-11-14T10:25:16Z</time>
      </trkpt>
      <trkpt lat="38.9319970" lon="-0.2555800">
        <ele>103.0</ele>
        <time>2020-11-14T10:25:17Z</time>
      </trkpt>
      <trkpt lat="38.9319740" lon="-0.2556400">
        <ele>103.1</ele>
        <time>2020-11-14T10:25:18Z</time>
      </trkpt>
      <trkpt lat="38.9319540" lon="-0.2556970">
        <ele>103.2</ele>
        <time>2020-11-14T10:25:19Z</time>
      </trkpt>
      <trkpt lat="38.9319390" lon="-0.2557600">
        <ele>103.2</ele>
        <time>2020-11-14T10:25:20Z</time>
      </trkpt>
      <trkpt lat="38.9319110" lon="-0.2558110">
        <ele>103.3</ele>
        <time>2020-11-14T10:25:21Z</time>
      </trkpt>
      <trkpt lat="38.9318930" lon="-0.2558670">
        <ele>103.4</ele>
        <time>2020-11-14T10:25:22Z</time>
      </trkpt>
      <trkpt lat="38.9318670" lon="-0.2559300">
        <ele>103.5</ele>
        <time>2020-11-14T10:25:23Z</time>
      </trkpt>
      <trkpt lat="38.9318450" lon="-0.2559870">
        <ele>103.5</ele>
        <time>2020-11-14T10:25:24Z</time>
      </trkpt>
      <trkpt lat="38.9318270" lon="-0.2560360">
        <ele>103.6</ele>
        <time>2020-11-14T10:25:25Z</time>
      </trkpt>
      <trkpt lat="38.9317970" lon="-0.2560930">
        <ele>103.7</ele>
        <time>2020-11-14T10:25:26Z</time>
      </trkpt>
      <trkpt lat="38.9317830" lon="-0.2561510">
        <ele>103.8</ele>
        <time>2020-11-14T10:25:27Z</time>
      </trkpt>
      <trkpt lat="38.9317560" lon="-0.2562010">
        <ele>103.8</ele>
        <time>2020-11-14T10:25:28Z</time>
      </trkpt>
      <trkpt lat="38.9317300" lon="-0.2562620">
        <ele>103.9</ele>
        <time>2020-11-14T10:25:29Z</time>
      </trkpt>
      <trkpt lat="38.9317170" lon="-0.2563150">
        <ele>103.9</ele>
        <time>2020-11-14T10:25:30Z</time>
      </trkpt>
      <trkpt lat="38.9316820" lon="-0.2563780">
        <ele>104.0</ele>
        <time>2020-11-14T10:25:31Z</time>
      </trkpt>
      <trkpt lat="38.9316500" lon="-0.2564260">
        <ele>104.1</ele>
        <time>2020-11-14T10:25:32Z</time>
      </trkpt>
      <trkpt lat="38.9316280" lon="-0.2564750">
        <ele>104.1</ele>
        <time>2020-11-14T10:25:33Z</time>
      </trkpt>
      <trkpt lat="38.9316030" lon="-0.2565280">
        <ele>104.2</ele>
        <time>2020-11-14T10:25:34Z</time>
      </trkpt>
      <trkpt lat="38.9315970" lon="-0.2565930">
        <ele>104.2</ele>
        <time>2020-11-14T10:25:35Z</time>
      </trkpt>
      <trkpt lat="38.9315770" lon="-0.2566470">
        <ele>104.2</ele>
        <time>2020-11-14T10:25:36Z</time>
      </trkpt>
      <trkpt lat="38.9315630" lon="-0.2566990">
        <ele>104.2</ele>
        <time>2020-11-14T10:25:37Z</time>
      </trkpt>
      <trkpt lat="38.9315430" lon="-0.2567560">
        <ele>104.2</ele>
        <time>2020-11-14T10:25:38Z</time>
      </trkpt>
      <trkpt lat="38.9315490" lon="-0.2567920">
        <ele>104.2</ele>
        <time>2020-11-14T10:25:39Z</time>
      </trkpt>
      <trkpt lat="38.9315240" lon="-0.2568490">
        <ele>104.1</ele>
        <time>2020-11-14T10:25:40Z</time>
      </trkpt>
      <trkpt lat="38.9315010" lon="-0.2569080">
        <ele>104.1</ele>
        <time>2020-11-14T10:25:41Z</time>
      </trkpt>
      <trkpt lat="38.9314850" lon="-0.2569610">
        <ele>104.1</ele>
        <time>2020-11-14T10:25:42Z</time>
      </trkpt>
      <trkpt lat="38.9314560" lon="-0.2570140">
        <ele>104.1</ele>
        <time>2020-11-14T10:25:43Z</time>
      </trkpt>
      <trkpt lat="38.9314360" lon="-0.2570760">
        <ele>104.1</ele>
        <time>2020-11-14T10:25:44Z</time>
      </trkpt>
      <trkpt lat="38.9314000" lon="-0.2571370">
        <ele>104.0</ele>
        <time>2020-11-14T10:25:45Z</time>
      </trkpt>
      <trkpt lat="38.9313860" lon="-0.2571950">
        <ele>104.0</ele>
        <time>2020-11-14T10:25:46Z</time>
      </trkpt>
      <trkpt lat="38.9313610" lon="-0.2572420">
        <ele>104.0</ele>
        <time>2020-11-14T10:25:47Z</time>
      </trkpt>
      <trkpt lat="38.9313470" lon="-0.2572870">
        <ele>104.0</ele>
        <time>2020-11-14T10:25:48Z</time>
      </trkpt>
      <trkpt lat="38.9313320" lon="-0.2573390">
        <ele>104.0</ele>
        <time>2020-11-14T10:25:49Z</time>
      </trkpt>
      <trkpt lat="38.9313180" lon="-0.2574080">
        <ele>103.9</ele>
        <time>2020-11-14T10:25:50Z</time>
      </trkpt>
      <trkpt lat="38.9312960" lon="-0.2574640">
        <ele>103.9</ele>
        <time>2020-11-14T10:25:51Z</time>
      </trkpt>
      <trkpt lat="38.9312560" lon="-0.2575280">
        <ele>103.8</ele>
        <time>2020-11-14T10:25:52Z</time>
      </trkpt>
      <trkpt lat="38.9312280" lon="-0.2575930">
        <ele>103.8</ele>
        <time>2020-11-14T10:25:53Z</time>
      </trkpt>
      <trkpt lat="38.9312120" lon="-0.2576650">
        <ele>103.8</ele>
        <time>2020-11-14T10:25:54Z</time>
      </trkpt>
      <trkpt lat="38.9311900" lon="-0.2577290">
        <ele>103.7</ele>
        <time>2020-11-14T10:25:55Z</time>
      </trkpt>
      <trkpt lat="38.9311730" lon="-0.2578010">
        <ele>103.7</ele>
        <time>2020-11-14T10:25:56Z</time>
      </trkpt>
      <trkpt lat="38.9311410" lon="-0.2578680">
        <ele>103.6</ele>
        <time>2020-11-14T10:25:57Z</time>
      </trkpt>
      <trkpt lat="38.9310950" lon="-0.2579400">
        <ele>103.6</ele>
        <time>2020-11-14T10:25:58Z</time>
      </trkpt>
      <trkpt lat="38.9310710" lon="-0.2580070">
        <ele>103.6</ele>
        <time>2020-11-14T10:25:59Z</time>
      </trkpt>
      <trkpt lat="38.9310490" lon="-0.2580720">
        <ele>103.5</ele>
        <time>2020-11-14T10:26:00Z</time>
      </trkpt>
      <trkpt lat="38.9310270" lon="-0.2581400">
        <ele>103.5</ele>
        <time>2020-11-14T10:26:01Z</time>
      </trkpt>
      <trkpt lat="38.9309990" lon="-0.2581990">
        <ele>103.4</ele>
        <time>2020-11-14T10:26:02Z</time>
      </trkpt>
      <trkpt lat="38.9309830" lon="-0.2582590">
        <ele>103.3</ele>
        <time>2020-11-14T10:26:03Z</time>
      </trkpt>
      <trkpt lat="38.9309750" lon="-0.2583180">
        <ele>103.3</ele>
        <time>2020-11-14T10:26:04Z</time>
      </trkpt>
      <trkpt lat="38.9309480" lon="-0.2583750">
        <ele>103.2</ele>
        <time>2020-11-14T10:26:05Z</time>
      </trkpt>
      <trkpt lat="38.9309200" lon="-0.2584410">
        <ele>103.1</ele>
        <time>2020-11-14T10:26:06Z</time>
      </trkpt>
      <trkpt lat="38.9308760" lon="-0.2585040">
        <ele>103.0</ele>
        <time>2020-11-14T10:26:07Z</time>
      </trkpt>
      <trkpt lat="38.9308330" lon="-0.2585680">
        <ele>102.9</ele>
        <time>2020-11-14T10:26:08Z</time>
      </trkpt>
      <trkpt lat="38.9307900" lon="-0.2586230">
        <ele>102.8</ele>
        <time>2020-11-14T10:26:09Z</time>
      </trkpt>
      <trkpt lat="38.9307610" lon="-0.2586710">
        <ele>102.7</ele>
        <time>2020-11-14T10:26:10Z</time>
      </trkpt>
      <trkpt lat="38.9307180" lon="-0.2587100">
        <ele>102.7</ele>
        <time>2020-11-14T10:26:11Z</time>
      </trkpt>
      <trkpt lat="38.9306840" lon="-0.2587630">
        <ele>102.6</ele>
        <time>2020-11-14T10:26:12Z</time>
      </trkpt>
      <trkpt lat="38.9306250" lon="-0.2588200">
        <ele>102.5</ele>
        <time>2020-11-14T10:26:13Z</time>
      </trkpt>
      <trkpt lat="38.9305830" lon="-0.2588700">
        <ele>102.4</ele>
        <time>2020-11-14T10:26:14Z</time>
      </trkpt>
      <trkpt lat="38.9305470" lon="-0.2589170">
        <ele>102.3</ele>
        <time>2020-11-14T10:26:15Z</time>
      </trkpt>
      <trkpt lat="38.9305010" lon="-0.2589620">
        <ele>102.2</ele>
        <time>2020-11-14T10:26:16Z</time>
      </trkpt>
      <trkpt lat="38.9304300" lon="-0.2589890">
        <ele>102.1</ele>
        <time>2020-11-14T10:26:17Z</time>
      </trkpt>
      <trkpt lat="38.9303720" lon="-0.2590330">
        <ele>102.0</ele>
        <time>2020-11-14T10:26:18Z</time>
      </trkpt>
      <trkpt lat="38.9303110" lon="-0.2590850">
        <ele>101.9</ele>
        <time>2020-11-14T10:26:19Z</time>
      </trkpt>
      <trkpt lat="38.9302600" lon="-0.2591250">
        <ele>101.8</ele>
        <time>2020-11-14T10:26:20Z</time>
      </trkpt>
      <trkpt lat="38.9302090" lon="-0.2591560">
        <ele>101.7</ele>
        <time>2020-11-14T10:26:21Z</time>
      </trkpt>
      <trkpt lat="38.9301520" lon="-0.2591920">
        <ele>101.6</ele>
        <time>2020-11-14T10:26:22Z</time>
      </trkpt>
      <trkpt lat="38.9301050" lon="-0.2592320">
        <ele>101.5</ele>
        <time>2020-11-14T10:26:23Z</time>
      </trkpt>
      <trkpt lat="38.9300560" lon="-0.2592720">
        <ele>101.5</ele>
        <time>2020-11-14T10:26:24Z</time>
      </trkpt>
      <trkpt lat="38.9299930" lon="-0.2593090">
        <ele>101.4</ele>
        <time>2020-11-14T10:26:25Z</time>
      </trkpt>
      <trkpt lat="38.9299400" lon="-0.2593550">
        <ele>101.4</ele>
        <time>2020-11-14T10:26:26Z</time>
      </trkpt>
      <trkpt lat="38.9298940" lon="-0.2593940">
        <ele>101.3</ele>
        <time>2020-11-14T10:26:27Z</time>
      </trkpt>
      <trkpt lat="38.9298330" lon="-0.2594330">
        <ele>101.3</ele>
        <time>2020-11-14T10:26:28Z</time>
      </trkpt>
      <trkpt lat="38.9297760" lon="-0.2594690">
        <ele>101.2</ele>
        <time>2020-11-14T10:26:29Z</time>
      </trkpt>
      <trkpt lat="38.9297320" lon="-0.2595120">
        <ele>101.2</ele>
        <time>2020-11-14T10:26:30Z</time>
      </trkpt>
      <trkpt lat="38.9296900" lon="-0.2595550">
        <ele>101.1</ele>
        <time>2020-11-14T10:26:31Z</time>
      </trkpt>
      <trkpt lat="38.9296410" lon="-0.2595950">
        <ele>101.1</ele>
        <time>2020-11-14T10:26:32Z</time>
      </trkpt>
      <trkpt lat="38.9295880" lon="-0.2596310">
        <ele>101.0</ele>
        <time>2020-11-14T10:26:33Z</time>
      </trkpt>
      <trkpt lat="38.9295420" lon="-0.2596720">
        <ele>101.0</ele>
        <time>2020-11-14T10:26:34Z</time>
      </trkpt>
      <trkpt lat="38.9294920" lon="-0.2597040">
        <ele>101.0</ele>
        <time>2020-11-14T10:26:35Z</time>
      </trkpt>
      <trkpt lat="38.9294430" lon="-0.2597390">
        <ele>101.1</ele>
        <time>2020-11-14T10:26:36Z</time>
      </trkpt>
      <trkpt lat="38.9293900" lon="-0.2597810">
        <ele>101.1</ele>
        <time>2020-11-14T10:26:37Z</time>
      </trkpt>
      <trkpt lat="38.9293410" lon="-0.2598130">
        <ele>101.2</ele>
        <time>2020-11-14T10:26:38Z</time>
      </trkpt>
      <trkpt lat="38.9292850" lon="-0.2598430">
        <ele>101.4</ele>
        <time>2020-11-14T10:26:39Z</time>
      </trkpt>
      <trkpt lat="38.9292500" lon="-0.2598670">
        <ele>101.5</ele>
        <time>2020-11-14T10:26:40Z</time>
      </trkpt>
      <trkpt lat="38.9292080" lon="-0.2598940">
        <ele>101.6</ele>
        <time>2020-11-14T10:26:41Z</time>
      </trkpt>
      <trkpt lat="38.9291730" lon="-0.2599150">
        <ele>101.7</ele>
        <time>2020-11-14T10:26:42Z</time>
      </trkpt>
      <trkpt lat="38.9291370" lon="-0.2599450">
        <ele>101.9</ele>
        <time>2020-11-14T10:26:43Z</time>
      </trkpt>
      <trkpt lat="38.9290960" lon="-0.2599780">
        <ele>102.1</ele>
        <time>2020-11-14T10:26:44Z</time>
      </trkpt>
      <trkpt lat="38.9290580" lon="-0.2600010">
        <ele>102.2</ele>
        <time>2020-11-14T10:26:45Z</time>
      </trkpt>
      <trkpt lat="38.9290230" lon="-0.2600250">
        <ele>102.4</ele>
        <time>2020-11-14T10:26:46Z</time>
      </trkpt>
      <trkpt lat="38.9289870" lon="-0.2600460">
        <ele>102.5</ele>
        <time>2020-11-14T10:26:47Z</time>
      </trkpt>
      <trkpt lat="38.9289580" lon="-0.2600740">
        <ele>102.6</ele>
        <time>2020-11-14T10:26:48Z</time>
      </trkpt>
      <trkpt lat="38.9289280" lon="-0.2600990">
        <ele>102.8</ele>
        <time>2020-11-14T10:26:49Z</time>
      </trkpt>
      <trkpt lat="38.9288950" lon="-0.2601200">
        <ele>103.0</ele>
        <time>2020-11-14T10:26:50Z</time>
      </trkpt>
      <trkpt lat="38.9288640" lon="-0.2601470">
        <ele>103.2</ele>
        <time>2020-11-14T10:26:51Z</time>
      </trkpt>
      <trkpt lat="38.9288310" lon="-0.2601750">
        <ele>103.4</ele>
        <time>2020-11-14T10:26:52Z</time>
      </trkpt>
      <trkpt lat="38.9287900" lon="-0.2601980">
        <ele>103.6</ele>
        <time>2020-11-14T10:26:53Z</time>
      </trkpt>
      <trkpt lat="38.9287530" lon="-0.2602250">
        <ele>103.8</ele>
        <time>2020-11-14T10:26:54Z</time>
      </trkpt>
      <trkpt lat="38.9287180" lon="-0.2602500">
        <ele>104.1</ele>
        <time>2020-11-14T10:26:55Z</time>
      </trkpt>
      <trkpt lat="38.9286820" lon="-0.2602730">
        <ele>104.3</ele>
        <time>2020-11-14T10:26:56Z</time>
      </trkpt>
      <trkpt lat="38.9286470" lon="-0.2602930">
        <ele>104.5</ele>
        <time>2020-11-14T10:26:57Z</time>
      </trkpt>
      <trkpt lat="38.9286140" lon="-0.2603140">
        <ele>104.7</ele>
        <time>2020-11-14T10:26:58Z</time>
      </trkpt>
      <trkpt lat="38.9285830" lon="-0.2603350">
        <ele>104.9</ele>
        <time>2020-11-14T10:26:59Z</time>
      </trkpt>
      <trkpt lat="38.9285550" lon="-0.2603580">
        <ele>105.1</ele>
        <time>2020-11-14T10:27:00Z</time>
      </trkpt>
      <trkpt lat="38.9285250" lon="-0.2603830">
        <ele>105.3</ele>
        <time>2020-11-14T10:27:01Z</time>
      </trkpt>
      <trkpt lat="38.9284930" lon="-0.2604060">
        <ele>105.5</ele>
        <time>2020-11-14T10:27:02Z</time>
      </trkpt>
      <trkpt lat="38.9284620" lon="-0.2604270">
        <ele>105.7</ele>
        <time>2020-11-14T10:27:03Z</time>
      </trkpt>
      <trkpt lat="38.9284290" lon="-0.2604470">
        <ele>105.9</ele>
        <time>2020-11-14T10:27:04Z</time>
      </trkpt>
      <trkpt lat="38.9283930" lon="-0.2604690">
        <ele>106.1</ele>
        <time>2020-11-14T10:27:05Z</time>
      </trkpt>
      <trkpt lat="38.9283590" lon="-0.2604900">
        <ele>106.3</ele>
        <time>2020-11-14T10:27:06Z</time>
      </trkpt>
      <trkpt lat="38.9283290" lon="-0.2605110">
        <ele>106.5</ele>
        <time>2020-11-14T10:27:07Z</time>
      </trkpt>
      <trkpt lat="38.9283020" lon="-0.2605290">
        <ele>106.7</ele>
        <time>2020-11-14T10:27:08Z</time>
      </trkpt>
      <trkpt lat="38.9282750" lon="-0.2605510">
        <ele>106.9</ele>
        <time>2020-11-14T10:27:09Z</time>
      </trkpt>
      <trkpt lat="38.9282460" lon="-0.2605740">
        <ele>107.1</ele>
        <time>2020-11-14T10:27:10Z</time>
      </trkpt>
      <trkpt lat="38.9282190" lon="-0.2605950">
        <ele>107.3</ele>
        <time>2020-11-14T10:27:11Z</time>
      </trkpt>
      <trkpt lat="38.9281900" lon="-0.2606120">
        <ele>107.5</ele>
        <time>2020-11-14T10:27:12Z</time>
      </trkpt>
      <trkpt lat="38.9281620" lon="-0.2606320">
        <ele>107.7</ele>
        <time>2020-11-14T10:27:13Z</time>
      </trkpt>
      <trkpt lat="38.9281340" lon="-0.2606530">
        <ele>107.9</ele>
        <time>2020-11-14T10:27:14Z</time>
      </trkpt>
      <trkpt lat="38.9281060" lon="-0.2606740">
        <ele>108.1</ele>
        <time>2020-11-14T10:27:15Z</time>
      </trkpt>
      <trkpt lat="38.9280780" lon="-0.2606960">
        <ele>108.3</ele>
        <time>2020-11-14T10:27:16Z</time>
      </trkpt>
      <trkpt lat="38.9280470" lon="-0.2607180">
        <ele>108.5</ele>
        <time>2020-11-14T10:27:17Z</time>
      </trkpt>
      <trkpt lat="38.9280160" lon="-0.2607380">
        <ele>108.7</ele>
        <time>2020-11-14T10:27:18Z</time>
      </trkpt>
      <trkpt lat="38.9279860" lon="-0.2607610">
        <ele>108.9</ele>
        <time>2020-11-14T10:27:19Z</time>
      </trkpt>
      <trkpt lat="38.9279590" lon="-0.2607820">
        <ele>109.2</ele>
        <time>2020-11-14T10:27:20Z</time>
      </trkpt>
      <trkpt lat="38.9279330" lon="-0.2608020">
        <ele>109.3</ele>
        <time>2020-11-14T10:27:21Z</time>
      </trkpt>
      <trkpt lat="38.9279040" lon="-0.2608210">
        <ele>109.6</ele>
        <time>2020-11-14T10:27:22Z</time>
      </trkpt>
      <trkpt lat="38.9278750" lon="-0.2608400">
        <ele>109.8</ele>
        <time>2020-11-14T10:27:23Z</time>
      </trkpt>
      <trkpt lat="38.9278480" lon="-0.2608600">
        <ele>110.0</ele>
        <time>2020-11-14T10:27:24Z</time>
      </trkpt>
      <trkpt lat="38.9278220" lon="-0.2608790">
        <ele>110.2</ele>
        <time>2020-11-14T10:27:25Z</time>
      </trkpt>
      <trkpt lat="38.9277930" lon="-0.2608980">
        <ele>110.4</ele>
        <time>2020-11-14T10:27:26Z</time>
      </trkpt>
      <trkpt lat="38.9277640" lon="-0.2609160">
        <ele>110.6</ele>
        <time>2020-11-14T10:27:27Z</time>
      </trkpt>
      <trkpt lat="38.9277350" lon="-0.2609340">
        <ele>110.8</ele>
        <time>2020-11-14T10:27:28Z</time>
      </trkpt>
      <trkpt lat="38.9277070" lon="-0.2609540">
        <ele>111.0</ele>
        <time>2020-11-14T10:27:29Z</time>
      </trkpt>
      <trkpt lat="38.9276790" lon="-0.2609730">
        <ele>111.2</ele>
        <time>2020-11-14T10:27:30Z</time>
      </trkpt>
      <trkpt lat="38.9276530" lon="-0.2609910">
        <ele>111.4</ele>
        <time>2020-11-14T10:27:31Z</time>
      </trkpt>
      <trkpt lat="38.9276270" lon="-0.2610110">
        <ele>111.6</ele>
        <time>2020-11-14T10:27:32Z</time>
      </trkpt>
      <trkpt lat="38.9276010" lon="-0.2610320">
        <ele>111.8</ele>
        <time>2020-11-14T10:27:33Z</time>
      </trkpt>
      <trkpt lat="38.9275740" lon="-0.2610530">
        <ele>111.9</ele>
        <time>2020-11-14T10:27:34Z</time>
      </trkpt>
      <trkpt lat="38.9275450" lon="-0.2610720">
        <ele>112.0</ele>
        <time>2020-11-14T10:27:35Z</time>
      </trkpt>
      <trkpt lat="38.9275140" lon="-0.2610920">
        <ele>112.1</ele>
        <time>2020-11-14T10:27:36Z</time>
      </trkpt>
      <trkpt lat="38.9274830" lon="-0.2611150">
        <ele>112.3</ele>
        <time>2020-11-14T10:27:37Z</time>
      </trkpt>
      <trkpt lat="38.9274530" lon="-0.2611390">
        <ele>112.4</ele>
        <time>2020-11-14T10:27:38Z</time>
      </trkpt>
      <trkpt lat="38.9274260" lon="-0.2611620">
        <ele>112.5</ele>
        <time>2020-11-14T10:27:39Z</time>
      </trkpt>
      <trkpt lat="38.9273990" lon="-0.2611820">
        <ele>112.6</ele>
        <time>2020-11-14T10:27:40Z</time>
      </trkpt>
      <trkpt lat="38.9273730" lon="-0.2612000">
        <ele>112.7</ele>
        <time>2020-11-14T10:27:41Z</time>
      </trkpt>
      <trkpt lat="38.9273460" lon="-0.2612200">
        <ele>112.9</ele>
        <time>2020-11-14T10:27:42Z</time>
      </trkpt>
      <trkpt lat="38.9273170" lon="-0.2612400">
        <ele>113.1</ele>
        <time>2020-11-14T10:27:43Z</time>
      </trkpt>
      <trkpt lat="38.9272880" lon="-0.2612630">
        <ele>113.3</ele>
        <time>2020-11-14T10:27:44Z</time>
      </trkpt>
      <trkpt lat="38.9272600" lon="-0.2612850">
        <ele>113.4</ele>
        <time>2020-11-14T10:27:45Z</time>
      </trkpt>
      <trkpt lat="38.9272350" lon="-0.2613080">
        <ele>113.6</ele>
        <time>2020-11-14T10:27:46Z</time>
      </trkpt>
      <trkpt lat="38.9272100" lon="-0.2613330">
        <ele>113.8</ele>
        <time>2020-11-14T10:27:47Z</time>
      </trkpt>
      <trkpt lat="38.9271850" lon="-0.2613580">
        <ele>114.0</ele>
        <time>2020-11-14T10:27:48Z</time>
      </trkpt>
      <trkpt lat="38.9271550" lon="-0.2613760">
        <ele>114.2</ele>
        <time>2020-11-14T10:27:49Z</time>
      </trkpt>
      <trkpt lat="38.9271260" lon="-0.2613930">
        <ele>114.4</ele>
        <time>2020-11-14T10:27:50Z</time>
      </trkpt>
      <trkpt lat="38.9270960" lon="-0.2614110">
        <ele>114.5</ele>
        <time>2020-11-14T10:27:51Z</time>
      </trkpt>
      <trkpt lat="38.9270670" lon="-0.2614300">
        <ele>114.7</ele>
        <time>2020-11-14T10:27:52Z</time>
      </trkpt>
      <trkpt lat="38.9270370" lon="-0.2614490">
        <ele>114.9</ele>
        <time>2020-11-14T10:27:53Z</time>
      </trkpt>
      <trkpt lat="38.9270080" lon="-0.2614670">
        <ele>115.1</ele>
        <time>2020-11-14T10:27:54Z</time>
      </trkpt>
      <trkpt lat="38.9269780" lon="-0.2614830">
        <ele>115.3</ele>
        <time>2020-11-14T10:27:55Z</time>
      </trkpt>
      <trkpt lat="38.9269460" lon="-0.2615020">
        <ele>115.5</ele>
        <time>2020-11-14T10:27:56Z</time>
      </trkpt>
      <trkpt lat="38.9269170" lon="-0.2615200">
        <ele>115.7</ele>
        <time>2020-11-14T10:27:57Z</time>
      </trkpt>
      <trkpt lat="38.9268900" lon="-0.2615360">
        <ele>115.8</ele>
        <time>2020-11-14T10:27:58Z</time>
      </trkpt>
      <trkpt lat="38.9268640" lon="-0.2615520">
        <ele>116.0</ele>
        <time>2020-11-14T10:27:59Z</time>
      </trkpt>
      <trkpt lat="38.9268400" lon="-0.2615720">
        <ele>116.2</ele>
        <time>2020-11-14T10:28:00Z</time>
      </trkpt>
      <trkpt lat="38.9268140" lon="-0.2615930">
        <ele>116.3</ele>
        <time>2020-11-14T10:28:01Z</time>
      </trkpt>
      <trkpt lat="38.9267880" lon="-0.2616140">
        <ele>116.5</ele>
        <time>2020-11-14T10:28:02Z</time>
      </trkpt>
      <trkpt lat="38.9267600" lon="-0.2616330">
        <ele>116.7</ele>
        <time>2020-11-14T10:28:03Z</time>
      </trkpt>
      <trkpt lat="38.9267310" lon="-0.2616530">
        <ele>116.9</ele>
        <time>2020-11-14T10:28:04Z</time>
      </trkpt>
      <trkpt lat="38.9267010" lon="-0.2616740">
        <ele>117.1</ele>
        <time>2020-11-14T10:28:05Z</time>
      </trkpt>
      <trkpt lat="38.9266700" lon="-0.2616980">
        <ele>117.3</ele>
        <time>2020-11-14T10:28:06Z</time>
      </trkpt>
      <trkpt lat="38.9266410" lon="-0.2617240">
        <ele>117.5</ele>
        <time>2020-11-14T10:28:07Z</time>
      </trkpt>
      <trkpt lat="38.9266140" lon="-0.2617480">
        <ele>117.6</ele>
        <time>2020-11-14T10:28:08Z</time>
      </trkpt>
      <trkpt lat="38.9265820" lon="-0.2617700">
        <ele>117.9</ele>
        <time>2020-11-14T10:28:09Z</time>
      </trkpt>
      <trkpt lat="38.9265490" lon="-0.2617930">
        <ele>118.1</ele>
        <time>2020-11-14T10:28:10Z</time>
      </trkpt>
      <trkpt lat="38.9265190" lon="-0.2618150">
        <ele>118.3</ele>
        <time>2020-11-14T10:28:11Z</time>
      </trkpt>
      <trkpt lat="38.9264930" lon="-0.2618330">
        <ele>118.4</ele>
        <time>2020-11-14T10:28:12Z</time>
      </trkpt>
      <trkpt lat="38.9264670" lon="-0.2618510">
        <ele>118.6</ele>
        <time>2020-11-14T10:28:13Z</time>
      </trkpt>
      <trkpt lat="38.9264410" lon="-0.2618700">
        <ele>118.8</ele>
        <time>2020-11-14T10:28:14Z</time>
      </trkpt>
      <trkpt lat="38.9264130" lon="-0.2618910">
        <ele>119.0</ele>
        <time>2020-11-14T10:28:15Z</time>
      </trkpt>
      <trkpt lat="38.9263840" lon="-0.2619100">
        <ele>119.2</ele>
        <time>2020-11-14T10:28:16Z</time>
      </trkpt>
      <trkpt lat="38.9263570" lon="-0.2619270">
        <ele>119.4</ele>
        <time>2020-11-14T10:28:17Z</time>
      </trkpt>
      <trkpt lat="38.9263300" lon="-0.2619430">
        <ele>119.5</ele>
        <time>2020-11-14T10:28:18Z</time>
      </trkpt>
      <trkpt lat="38.9263050" lon="-0.2619580">
        <ele>119.7</ele>
        <time>2020-11-14T10:28:19Z</time>
      </trkpt>
      <trkpt lat="38.9262750" lon="-0.2619780">
        <ele>119.9</ele>
        <time>2020-11-14T10:28:20Z</time>
      </trkpt>
      <trkpt lat="38.9262480" lon="-0.2619970">
        <ele>120.1</ele>
        <time>2020-11-14T10:28:21Z</time>
      </trkpt>
      <trkpt lat="38.9262190" lon="-0.2620130">
        <ele>120.2</ele>
        <time>2020-11-14T10:28:22Z</time>
      </trkpt>
      <trkpt lat="38.9261900" lon="-0.2620270">
        <ele>120.4</ele>
        <time>2020-11-14T10:28:23Z</time>
      </trkpt>
      <trkpt lat="38.9261600" lon="-0.2620400">
        <ele>120.6</ele>
        <time>2020-11-14T10:28:24Z</time>
      </trkpt>
      <trkpt lat="38.9261330" lon="-0.2620550">
        <ele>120.8</ele>
        <time>2020-11-14T10:28:25Z</time>
      </trkpt>
      <trkpt lat="38.9261070" lon="-0.2620710">
        <ele>120.9</ele>
        <time>2020-11-14T10:28:26Z</time>
      </trkpt>
      <trkpt lat="38.9260810" lon="-0.2620870">
        <ele>121.1</ele>
        <time>2020-11-14T10:28:27Z</time>
      </trkpt>
      <trkpt lat="38.9260560" lon="-0.2621020">
        <ele>121.2</ele>
        <time>2020-11-14T10:28:28Z</time>
      </trkpt>
      <trkpt lat="38.9260280" lon="-0.2621210">
        <ele>121.4</ele>
        <time>2020-11-14T10:28:29Z</time>
      </trkpt>
      <trkpt lat="38.9260020" lon="-0.2621370">
        <ele>121.6</ele>
        <time>2020-11-14T10:28:30Z</time>
      </trkpt>
      <trkpt lat="38.9259770" lon="-0.2621510">
        <ele>121.7</ele>
        <time>2020-11-14T10:28:31Z</time>
      </trkpt>
      <trkpt lat="38.9259410" lon="-0.2621740">
        <ele>121.9</ele>
        <time>2020-11-14T10:28:32Z</time>
      </trkpt>
      <trkpt lat="38.9259290" lon="-0.2621810">
        <ele>122.0</ele>
        <time>2020-11-14T10:28:33Z</time>
      </trkpt>
      <trkpt lat="38.9259040" lon="-0.2621970">
        <ele>122.1</ele>
        <time>2020-11-14T10:28:34Z</time>
      </trkpt>
      <trkpt lat="38.9258800" lon="-0.2622150">
        <ele>122.3</ele>
        <time>2020-11-14T10:28:35Z</time>
      </trkpt>
      <trkpt lat="38.9258560" lon="-0.2622310">
        <ele>122.4</ele>
        <time>2020-11-14T10:28:36Z</time>
      </trkpt>
      <trkpt lat="38.9258270" lon="-0.2622450">
        <ele>122.6</ele>
        <time>2020-11-14T10:28:37Z</time>
      </trkpt>
      <trkpt lat="38.9257990" lon="-0.2622610">
        <ele>122.8</ele>
        <time>2020-11-14T10:28:38Z</time>
      </trkpt>
      <trkpt lat="38.9257740" lon="-0.2622800">
        <ele>122.9</ele>
        <time>2020-11-14T10:28:39Z</time>
      </trkpt>
      <trkpt lat="38.9257500" lon="-0.2623010">
        <ele>123.1</ele>
        <time>2020-11-14T10:28:40Z</time>
      </trkpt>
      <trkpt lat="38.9257250" lon="-0.2623220">
        <ele>123.2</ele>
        <time>2020-11-14T10:28:41Z</time>
      </trkpt>
      <trkpt lat="38.9256970" lon="-0.2623460">
        <ele>123.4</ele>
        <time>2020-11-14T10:28:42Z</time>
      </trkpt>
      <trkpt lat="38.9256700" lon="-0.2623680">
        <ele>123.6</ele>
        <time>2020-11-14T10:28:43Z</time>
      </trkpt>
      <trkpt lat="38.9256420" lon="-0.2623900">
        <ele>123.8</ele>
        <time>2020-11-14T10:28:44Z</time>
      </trkpt>
      <trkpt lat="38.9256150" lon="-0.2624130">
        <ele>124.0</ele>
        <time>2020-11-14T10:28:45Z</time>
      </trkpt>
      <trkpt lat="38.9255890" lon="-0.2624320">
        <ele>124.1</ele>
        <time>2020-11-14T10:28:46Z</time>
      </trkpt>
      <trkpt lat="38.9255630" lon="-0.2624510">
        <ele>124.3</ele>
        <time>2020-11-14T10:28:47Z</time>
      </trkpt>
      <trkpt lat="38.9255360" lon="-0.2624710">
        <ele>124.5</ele>
        <time>2020-11-14T10:28:48Z</time>
      </trkpt>
      <trkpt lat="38.9255060" lon="-0.2624890">
        <ele>124.7</ele>
        <time>2020-11-14T10:28:49Z</time>
      </trkpt>
      <trkpt lat="38.9254750" lon="-0.2625070">
        <ele>124.8</ele>
        <time>2020-11-14T10:28:50Z</time>
      </trkpt>
      <trkpt lat="38.9254450" lon="-0.2625240">
        <ele>125.0</ele>
        <time>2020-11-14T10:28:51Z</time>
      </trkpt>
      <trkpt lat="38.9254170" lon="-0.2625390">
        <ele>125.2</ele>
        <time>2020-11-14T10:28:52Z</time>
      </trkpt>
      <trkpt lat="38.9253890" lon="-0.2625560">
        <ele>125.4</ele>
        <time>2020-11-14T10:28:53Z</time>
      </trkpt>
      <trkpt lat="38.9253620" lon="-0.2625730">
        <ele>125.5</ele>
        <time>2020-11-14T10:28:54Z</time>
      </trkpt>
      <trkpt lat="38.9253380" lon="-0.2625900">
        <ele>125.7</ele>
        <time>2020-11-14T10:28:55Z</time>
      </trkpt>
      <trkpt lat="38.9253130" lon="-0.2626080">
        <ele>125.8</ele>
        <time>2020-11-14T10:28:56Z</time>
      </trkpt>
      <trkpt lat="38.9252890" lon="-0.2626300">
        <ele>126.0</ele>
        <time>2020-11-14T10:28:57Z</time>
      </trkpt>
      <trkpt lat="38.9252650" lon="-0.2626560">
        <ele>126.1</ele>
        <time>2020-11-14T10:28:58Z</time>
      </trkpt>
      <trkpt lat="38.9252410" lon="-0.2626790">
        <ele>126.3</ele>
        <time>2020-11-14T10:28:59Z</time>
      </trkpt>
      <trkpt lat="38.9252080" lon="-0.2627080">
        <ele>126.5</ele>
        <time>2020-11-14T10:29:00Z</time>
      </trkpt>
      <trkpt lat="38.9251970" lon="-0.2627170">
        <ele>126.5</ele>
        <time>2020-11-14T10:29:01Z</time>
      </trkpt>
      <trkpt lat="38.9251690" lon="-0.2627530">
        <ele>126.7</ele>
        <time>2020-11-14T10:29:02Z</time>
      </trkpt>
      <trkpt lat="38.9251580" lon="-0.2627650">
        <ele>126.8</ele>
        <time>2020-11-14T10:29:03Z</time>
      </trkpt>
      <trkpt lat="38.9251370" lon="-0.2627920">
        <ele>126.9</ele>
        <time>2020-11-14T10:29:04Z</time>
      </trkpt>
      <trkpt lat="38.9251180" lon="-0.2628180">
        <ele>127.0</ele>
        <time>2020-11-14T10:29:05Z</time>
      </trkpt>
      <trkpt lat="38.9250990" lon="-0.2628440">
        <ele>127.1</ele>
        <time>2020-11-14T10:29:06Z</time>
      </trkpt>
      <trkpt lat="38.9250810" lon="-0.2628730">
        <ele>127.3</ele>
        <time>2020-11-14T10:29:07Z</time>
      </trkpt>
      <trkpt lat="38.9250640" lon="-0.2629040">
        <ele>127.4</ele>
        <time>2020-11-14T10:29:08Z</time>
      </trkpt>
      <trkpt lat="38.9250480" lon="-0.2629350">
        <ele>127.5</ele>
        <time>2020-11-14T10:29:09Z</time>
      </trkpt>
      <trkpt lat="38.9250290" lon="-0.2629660">
        <ele>127.7</ele>
        <time>2020-11-14T10:29:10Z</time>
      </trkpt>
      <trkpt lat="38.9250060" lon="-0.2629970">
        <ele>127.8</ele>
        <time>2020-11-14T10:29:11Z</time>
      </trkpt>
      <trkpt lat="38.9249850" lon="-0.2630260">
        <ele>127.9</ele>
        <time>2020-11-14T10:29:12Z</time>
      </trkpt>
      <trkpt lat="38.9249650" lon="-0.2630580">
        <ele>128.1</ele>
        <time>2020-11-14T10:29:13Z</time>
      </trkpt>
      <trkpt lat="38.9249450" lon="-0.2630890">
        <ele>128.2</ele>
        <time>2020-11-14T10:29:14Z</time>
      </trkpt>
      <trkpt lat="38.9249220" lon="-0.2631190">
        <ele>128.3</ele>
        <time>2020-11-14T10:29:15Z</time>
      </trkpt>
      <trkpt lat="38.9248990" lon="-0.2631480">
        <ele>128.5</ele>
        <time>2020-11-14T10:29:16Z</time>
      </trkpt>
      <trkpt lat="38.9248740" lon="-0.2631790">
        <ele>128.6</ele>
        <time>2020-11-14T10:29:17Z</time>
      </trkpt>
      <trkpt lat="38.9248520" lon="-0.2632120">
        <ele>128.8</ele>
        <time>2020-11-14T10:29:18Z</time>
      </trkpt>
      <trkpt lat="38.9248330" lon="-0.2632480">
        <ele>128.9</ele>
        <time>2020-11-14T10:29:19Z</time>
      </trkpt>
      <trkpt lat="38.9248160" lon="-0.2632810">
        <ele>129.0</ele>
        <time>2020-11-14T10:29:20Z</time>
      </trkpt>
      <trkpt lat="38.9248030" lon="-0.2633180">
        <ele>129.2</ele>
        <time>2020-11-14T10:29:21Z</time>
      </trkpt>
      <trkpt lat="38.9247920" lon="-0.2633570">
        <ele>129.3</ele>
        <time>2020-11-14T10:29:22Z</time>
      </trkpt>
      <trkpt lat="38.9247800" lon="-0.2633950">
        <ele>129.5</ele>
        <time>2020-11-14T10:29:23Z</time>
      </trkpt>
      <trkpt lat="38.9247680" lon="-0.2634320">
        <ele>129.6</ele>
        <time>2020-11-14T10:29:24Z</time>
      </trkpt>
      <trkpt lat="38.9247540" lon="-0.2634690">
        <ele>129.7</ele>
        <time>2020-11-14T10:29:25Z</time>
      </trkpt>
      <trkpt lat="38.9247400" lon="-0.2635070">
        <ele>129.9</ele>
        <time>2020-11-14T10:29:26Z</time>
      </trkpt>
      <trkpt lat="38.9247290" lon="-0.2635440">
        <ele>130.0</ele>
        <time>2020-11-14T10:29:27Z</time>
      </trkpt>
      <trkpt lat="38.9247150" lon="-0.2635800">
        <ele>130.1</ele>
        <time>2020-11-14T10:29:28Z</time>
      </trkpt>
      <trkpt lat="38.9247010" lon="-0.2636190">
        <ele>130.3</ele>
        <time>2020-11-14T10:29:29Z</time>
      </trkpt>
      <trkpt lat="38.9246860" lon="-0.2636580">
        <ele>130.4</ele>
        <time>2020-11-14T10:29:30Z</time>
      </trkpt>
      <trkpt lat="38.9246710" lon="-0.2636950">
        <ele>130.5</ele>
        <time>2020-11-14T10:29:31Z</time>
      </trkpt>
      <trkpt lat="38.9246560" lon="-0.2637350">
        <ele>130.7</ele>
        <time>2020-11-14T10:29:32Z</time>
      </trkpt>
      <trkpt lat="38.9246410" lon="-0.2637700">
        <ele>130.8</ele>
        <time>2020-11-14T10:29:33Z</time>
      </trkpt>
      <trkpt lat="38.9246250" lon="-0.2638060">
        <ele>130.9</ele>
        <time>2020-11-14T10:29:34Z</time>
      </trkpt>
      <trkpt lat="38.9246100" lon="-0.2638450">
        <ele>131.1</ele>
        <time>2020-11-14T10:29:35Z</time>
      </trkpt>
      <trkpt lat="38.9245960" lon="-0.2638840">
        <ele>131.2</ele>
        <time>2020-11-14T10:29:36Z</time>
      </trkpt>
      <trkpt lat="38.9245830" lon="-0.2639230">
        <ele>131.3</ele>
        <time>2020-11-14T10:29:37Z</time>
      </trkpt>
      <trkpt lat="38.9245700" lon="-0.2639620">
        <ele>131.4</ele>
        <time>2020-11-14T10:29:38Z</time>
      </trkpt>
      <trkpt lat="38.9245580" lon="-0.2640050">
        <ele>131.6</ele>
        <time>2020-11-14T10:29:39Z</time>
      </trkpt>
      <trkpt lat="38.9245490" lon="-0.2640490">
        <ele>131.7</ele>
        <time>2020-11-14T10:29:40Z</time>
      </trkpt>
      <trkpt lat="38.9245450" lon="-0.2640870">
        <ele>131.8</ele>
        <time>2020-11-14T10:29:41Z</time>
      </trkpt>
      <trkpt lat="38.9245440" lon="-0.2641230">
        <ele>132.0</ele>
        <time>2020-11-14T10:29:42Z</time>
      </trkpt>
      <trkpt lat="38.9245440" lon="-0.2641600">
        <ele>132.2</ele>
        <time>2020-11-14T10:29:43Z</time>
      </trkpt>
      <trkpt lat="38.9245450" lon="-0.2641990">
        <ele>132.4</ele>
        <time>2020-11-14T10:29:44Z</time>
      </trkpt>
      <trkpt lat="38.9245420" lon="-0.2642400">
        <ele>132.7</ele>
        <time>2020-11-14T10:29:45Z</time>
      </trkpt>
      <trkpt lat="38.9245380" lon="-0.2642760">
        <ele>132.9</ele>
        <time>2020-11-14T10:29:46Z</time>
      </trkpt>
      <trkpt lat="38.9245340" lon="-0.2643110">
        <ele>133.2</ele>
        <time>2020-11-14T10:29:47Z</time>
      </trkpt>
      <trkpt lat="38.9245300" lon="-0.2643480">
        <ele>133.4</ele>
        <time>2020-11-14T10:29:48Z</time>
      </trkpt>
      <trkpt lat="38.9245210" lon="-0.2643840">
        <ele>133.7</ele>
        <time>2020-11-14T10:29:49Z</time>
      </trkpt>
      <trkpt lat="38.9245070" lon="-0.2644220">
        <ele>134.0</ele>
        <time>2020-11-14T10:29:50Z</time>
      </trkpt>
      <trkpt lat="38.9244940" lon="-0.2644590">
        <ele>134.3</ele>
        <time>2020-11-14T10:29:51Z</time>
      </trkpt>
      <trkpt lat="38.9244830" lon="-0.2644960">
        <ele>134.5</ele>
        <time>2020-11-14T10:29:52Z</time>
      </trkpt>
      <trkpt lat="38.9244760" lon="-0.2645360">
        <ele>134.8</ele>
        <time>2020-11-14T10:29:53Z</time>
      </trkpt>
      <trkpt lat="38.9244690" lon="-0.2645760">
        <ele>135.1</ele>
        <time>2020-11-14T10:29:54Z</time>
      </trkpt>
      <trkpt lat="38.9244630" lon="-0.2646160">
        <ele>135.1</ele>
        <time>2020-11-14T10:29:55Z</time>
      </trkpt>
      <trkpt lat="38.9244550" lon="-0.2646560">
        <ele>135.0</ele>
        <time>2020-11-14T10:29:56Z</time>
      </trkpt>
      <trkpt lat="38.9244450" lon="-0.2646950">
        <ele>134.9</ele>
        <time>2020-11-14T10:29:57Z</time>
      </trkpt>
      <trkpt lat="38.9244350" lon="-0.2647330">
        <ele>134.9</ele>
        <time>2020-11-14T10:29:58Z</time>
      </trkpt>
      <trkpt lat="38.9244220" lon="-0.2647730">
        <ele>134.8</ele>
        <time>2020-11-14T10:29:59Z</time>
      </trkpt>
      <trkpt lat="38.9244060" lon="-0.2648100">
        <ele>134.7</ele>
        <time>2020-11-14T10:30:00Z</time>
      </trkpt>
      <trkpt lat="38.9243880" lon="-0.2648420">
        <ele>134.8</ele>
        <time>2020-11-14T10:30:01Z</time>
      </trkpt>
      <trkpt lat="38.9243690" lon="-0.2648670">
        <ele>134.8</ele>
        <time>2020-11-14T10:30:02Z</time>
      </trkpt>
      <trkpt lat="38.9243440" lon="-0.2648860">
        <ele>134.8</ele>
        <time>2020-11-14T10:30:03Z</time>
      </trkpt>
      <trkpt lat="38.9243150" lon="-0.2648960">
        <ele>134.9</ele>
        <time>2020-11-14T10:30:04Z</time>
      </trkpt>
      <trkpt lat="38.9242820" lon="-0.2648970">
        <ele>134.9</ele>
        <time>2020-11-14T10:30:05Z</time>
      </trkpt>
      <trkpt lat="38.9242490" lon="-0.2648920">
        <ele>135.0</ele>
        <time>2020-11-14T10:30:06Z</time>
      </trkpt>
      <trkpt lat="38.9242160" lon="-0.2648870">
        <ele>135.5</ele>
        <time>2020-11-14T10:30:07Z</time>
      </trkpt>
      <trkpt lat="38.9241860" lon="-0.2648870">
        <ele>135.7</ele>
        <time>2020-11-14T10:30:08Z</time>
      </trkpt>
      <trkpt lat="38.9241570" lon="-0.2648960">
        <ele>135.9</ele>
        <time>2020-11-14T10:30:09Z</time>
      </trkpt>
      <trkpt lat="38.9241300" lon="-0.2649150">
        <ele>136.0</ele>
        <time>2020-11-14T10:30:10Z</time>
      </trkpt>
      <trkpt lat="38.9241090" lon="-0.2649420">
        <ele>136.2</ele>
        <time>2020-11-14T10:30:11Z</time>
      </trkpt>
      <trkpt lat="38.9240930" lon="-0.2649740">
        <ele>136.4</ele>
        <time>2020-11-14T10:30:12Z</time>
      </trkpt>
      <trkpt lat="38.9240810" lon="-0.2650080">
        <ele>136.6</ele>
        <time>2020-11-14T10:30:13Z</time>
      </trkpt>
      <trkpt lat="38.9240690" lon="-0.2650470">
        <ele>136.8</ele>
        <time>2020-11-14T10:30:14Z</time>
      </trkpt>
      <trkpt lat="38.9240590" lon="-0.2650870">
        <ele>137.0</ele>
        <time>2020-11-14T10:30:15Z</time>
      </trkpt>
      <trkpt lat="38.9240500" lon="-0.2651250">
        <ele>137.2</ele>
        <time>2020-11-14T10:30:16Z</time>
      </trkpt>
      <trkpt lat="38.9240380" lon="-0.2651700">
        <ele>137.5</ele>
        <time>2020-11-14T10:30:17Z</time>
      </trkpt>
      <trkpt lat="38.9240340" lon="-0.2651840">
        <ele>137.6</ele>
        <time>2020-11-14T10:30:18Z</time>
      </trkpt>
      <trkpt lat="38.9240240" lon="-0.2652310">
        <ele>137.8</ele>
        <time>2020-11-14T10:30:19Z</time>
      </trkpt>
      <trkpt lat="38.9240200" lon="-0.2652460">
        <ele>137.9</ele>
        <time>2020-11-14T10:30:20Z</time>
      </trkpt>
      <trkpt lat="38.9240080" lon="-0.2652940">
        <ele>138.2</ele>
        <time>2020-11-14T10:30:21Z</time>
      </trkpt>
      <trkpt lat="38.9240030" lon="-0.2653100">
        <ele>138.3</ele>
        <time>2020-11-14T10:30:22Z</time>
      </trkpt>
      <trkpt lat="38.9239920" lon="-0.2653430">
        <ele>138.5</ele>
        <time>2020-11-14T10:30:23Z</time>
      </trkpt>
      <trkpt lat="38.9239740" lon="-0.2653870">
        <ele>138.8</ele>
        <time>2020-11-14T10:30:24Z</time>
      </trkpt>
      <trkpt lat="38.9239660" lon="-0.2654010">
        <ele>138.9</ele>
        <time>2020-11-14T10:30:25Z</time>
      </trkpt>
      <trkpt lat="38.9239510" lon="-0.2654310">
        <ele>139.1</ele>
        <time>2020-11-14T10:30:26Z</time>
      </trkpt>
      <trkpt lat="38.9239380" lon="-0.2654610">
        <ele>139.3</ele>
        <time>2020-11-14T10:30:27Z</time>
      </trkpt>
      <trkpt lat="38.9239240" lon="-0.2654950">
        <ele>139.5</ele>
        <time>2020-11-14T10:30:28Z</time>
      </trkpt>
      <trkpt lat="38.9239130" lon="-0.2655290">
        <ele>139.7</ele>
        <time>2020-11-14T10:30:29Z</time>
      </trkpt>
      <trkpt lat="38.9239040" lon="-0.2655630">
        <ele>139.9</ele>
        <time>2020-11-14T10:30:30Z</time>
      </trkpt>
      <trkpt lat="38.9238860" lon="-0.2655950">
        <ele>140.2</ele>
        <time>2020-11-14T10:30:31Z</time>
      </trkpt>
      <trkpt lat="38.9238670" lon="-0.2656270">
        <ele>140.4</ele>
        <time>2020-11-14T10:30:32Z</time>
      </trkpt>
      <trkpt lat="38.9238480" lon="-0.2656580">
        <ele>140.6</ele>
        <time>2020-11-14T10:30:33Z</time>
      </trkpt>
      <trkpt lat="38.9238290" lon="-0.2656880">
        <ele>140.9</ele>
        <time>2020-11-14T10:30:34Z</time>
      </trkpt>
      <trkpt lat="38.9238160" lon="-0.2657190">
        <ele>141.1</ele>
        <time>2020-11-14T10:30:35Z</time>
      </trkpt>
      <trkpt lat="38.9237990" lon="-0.2657640">
        <ele>141.3</ele>
        <time>2020-11-14T10:30:36Z</time>
      </trkpt>
      <trkpt lat="38.9237930" lon="-0.2657790">
        <ele>141.4</ele>
        <time>2020-11-14T10:30:37Z</time>
      </trkpt>
      <trkpt lat="38.9237780" lon="-0.2658240">
        <ele>141.7</ele>
        <time>2020-11-14T10:30:38Z</time>
      </trkpt>
      <trkpt lat="38.9237730" lon="-0.2658380">
        <ele>141.8</ele>
        <time>2020-11-14T10:30:39Z</time>
      </trkpt>
      <trkpt lat="38.9237610" lon="-0.2658840">
        <ele>142.1</ele>
        <time>2020-11-14T10:30:40Z</time>
      </trkpt>
      <trkpt lat="38.9237570" lon="-0.2658990">
        <ele>142.2</ele>
        <time>2020-11-14T10:30:41Z</time>
      </trkpt>
      <trkpt lat="38.9237420" lon="-0.2659440">
        <ele>142.5</ele>
        <time>2020-11-14T10:30:42Z</time>
      </trkpt>
      <trkpt lat="38.9237360" lon="-0.2659580">
        <ele>142.6</ele>
        <time>2020-11-14T10:30:43Z</time>
      </trkpt>
      <trkpt lat="38.9237160" lon="-0.2660000">
        <ele>142.9</ele>
        <time>2020-11-14T10:30:44Z</time>
      </trkpt>
      <trkpt lat="38.9237080" lon="-0.2660130">
        <ele>143.0</ele>
        <time>2020-11-14T10:30:45Z</time>
      </trkpt>
      <trkpt lat="38.9236880" lon="-0.2660550">
        <ele>143.3</ele>
        <time>2020-11-14T10:30:46Z</time>
      </trkpt>
      <trkpt lat="38.9236810" lon="-0.2660690">
        <ele>143.4</ele>
        <time>2020-11-14T10:30:47Z</time>
      </trkpt>
      <trkpt lat="38.9236620" lon="-0.2661130">
        <ele>143.7</ele>
        <time>2020-11-14T10:30:48Z</time>
      </trkpt>
      <trkpt lat="38.9236560" lon="-0.2661280">
        <ele>143.8</ele>
        <time>2020-11-14T10:30:49Z</time>
      </trkpt>
      <trkpt lat="38.9236400" lon="-0.2661740">
        <ele>144.1</ele>
        <time>2020-11-14T10:30:50Z</time>
      </trkpt>
      <trkpt lat="38.9236340" lon="-0.2661890">
        <ele>144.2</ele>
        <time>2020-11-14T10:30:51Z</time>
      </trkpt>
      <trkpt lat="38.9236200" lon="-0.2662350">
        <ele>144.5</ele>
        <time>2020-11-14T10:30:52Z</time>
      </trkpt>
      <trkpt lat="38.9236160" lon="-0.2662500">
        <ele>144.6</ele>
        <time>2020-11-14T10:30:53Z</time>
      </trkpt>
      <trkpt lat="38.9236020" lon="-0.2662960">
        <ele>144.9</ele>
        <time>2020-11-14T10:30:54Z</time>
      </trkpt>
      <trkpt lat="38.9235970" lon="-0.2663100">
        <ele>145.0</ele>
        <time>2020-11-14T10:30:55Z</time>
      </trkpt>
      <trkpt lat="38.9235810" lon="-0.2663530">
        <ele>145.3</ele>
        <time>2020-11-14T10:30:56Z</time>
      </trkpt>
      <trkpt lat="38.9235760" lon="-0.2663670">
        <ele>145.4</ele>
        <time>2020-11-14T10:30:57Z</time>
      </trkpt>
      <trkpt lat="38.9235600" lon="-0.2664120">
        <ele>145.7</ele>
        <time>2020-11-14T10:30:58Z</time>
      </trkpt>
      <trkpt lat="38.9235540" lon="-0.2664270">
        <ele>145.8</ele>
        <time>2020-11-14T10:30:59Z</time>
      </trkpt>
      <trkpt lat="38.9235350" lon="-0.2664720">
        <ele>146.1</ele>
        <time>2020-11-14T10:31:00Z</time>
      </trkpt>
      <trkpt lat="38.9235290" lon="-0.2664860">
        <ele>146.2</ele>
        <time>2020-11-14T10:31:01Z</time>
      </trkpt>
      <trkpt lat="38.9235120" lon="-0.2665310">
        <ele>146.5</ele>
        <time>2020-11-14T10:31:02Z</time>
      </trkpt>
      <trkpt lat="38.9235060" lon="-0.2665460">
        <ele>146.6</ele>
        <time>2020-11-14T10:31:03Z</time>
      </trkpt>
      <trkpt lat="38.9234890" lon="-0.2665910">
        <ele>146.9</ele>
        <time>2020-11-14T10:31:04Z</time>
      </trkpt>
      <trkpt lat="38.9234830" lon="-0.2666050">
        <ele>147.0</ele>
        <time>2020-11-14T10:31:05Z</time>
      </trkpt>
      <trkpt lat="38.9234660" lon="-0.2666510">
        <ele>147.3</ele>
        <time>2020-11-14T10:31:06Z</time>
      </trkpt>
      <trkpt lat="38.9234600" lon="-0.2666660">
        <ele>147.4</ele>
        <time>2020-11-14T10:31:07Z</time>
      </trkpt>
      <trkpt lat="38.9234440" lon="-0.2667110">
        <ele>147.7</ele>
        <time>2020-11-14T10:31:08Z</time>
      </trkpt>
      <trkpt lat="38.9234380" lon="-0.2667250">
        <ele>147.7</ele>
        <time>2020-11-14T10:31:09Z</time>
      </trkpt>
      <trkpt lat="38.9234220" lon="-0.2667710">
        <ele>148.0</ele>
        <time>2020-11-14T10:31:10Z</time>
      </trkpt>
      <trkpt lat="38.9234170" lon="-0.2667860">
        <ele>148.1</ele>
        <time>2020-11-14T10:31:11Z</time>
      </trkpt>
      <trkpt lat="38.9234000" lon="-0.2668300">
        <ele>148.4</ele>
        <time>2020-11-14T10:31:12Z</time>
      </trkpt>
      <trkpt lat="38.9233940" lon="-0.2668440">
        <ele>148.5</ele>
        <time>2020-11-14T10:31:13Z</time>
      </trkpt>
      <trkpt lat="38.9233770" lon="-0.2668890">
        <ele>148.8</ele>
        <time>2020-11-14T10:31:14Z</time>
      </trkpt>
      <trkpt lat="38.9233710" lon="-0.2669030">
        <ele>148.9</ele>
        <time>2020-11-14T10:31:15Z</time>
      </trkpt>
      <trkpt lat="38.9233560" lon="-0.2669450">
        <ele>149.2</ele>
        <time>2020-11-14T10:31:16Z</time>
      </trkpt>
      <trkpt lat="38.9233500" lon="-0.2669580">
        <ele>149.3</ele>
        <time>2020-11-14T10:31:17Z</time>
      </trkpt>
      <trkpt lat="38.9233330" lon="-0.2669990">
        <ele>149.6</ele>
        <time>2020-11-14T10:31:18Z</time>
      </trkpt>
      <trkpt lat="38.9233270" lon="-0.2670130">
        <ele>149.7</ele>
        <time>2020-11-14T10:31:19Z</time>
      </trkpt>
      <trkpt lat="38.9233100" lon="-0.2670550">
        <ele>149.9</ele>
        <time>2020-11-14T10:31:20Z</time>
      </trkpt>
      <trkpt lat="38.9233040" lon="-0.2670680">
        <ele>150.0</ele>
        <time>2020-11-14T10:31:21Z</time>
      </trkpt>
      <trkpt lat="38.9232830" lon="-0.2671090">
        <ele>150.3</ele>
        <time>2020-11-14T10:31:22Z</time>
      </trkpt>
      <trkpt lat="38.9232760" lon="-0.2671220">
        <ele>150.4</ele>
        <time>2020-11-14T10:31:23Z</time>
      </trkpt>
      <trkpt lat="38.9232580" lon="-0.2671630">
        <ele>150.7</ele>
        <time>2020-11-14T10:31:24Z</time>
      </trkpt>
      <trkpt lat="38.9232530" lon="-0.2671770">
        <ele>150.8</ele>
        <time>2020-11-14T10:31:25Z</time>
      </trkpt>
      <trkpt lat="38.9232380" lon="-0.2672200">
        <ele>151.1</ele>
        <time>2020-11-14T10:31:26Z</time>
      </trkpt>
      <trkpt lat="38.9232330" lon="-0.2672340">
        <ele>151.1</ele>
        <time>2020-11-14T10:31:27Z</time>
      </trkpt>
      <trkpt lat="38.9232180" lon="-0.2672760">
        <ele>151.4</ele>
        <time>2020-11-14T10:31:28Z</time>
      </trkpt>
      <trkpt lat="38.9232130" lon="-0.2672900">
        <ele>151.5</ele>
        <time>2020-11-14T10:31:29Z</time>
      </trkpt>
      <trkpt lat="38.9232000" lon="-0.2673340">
        <ele>151.8</ele>
        <time>2020-11-14T10:31:30Z</time>
      </trkpt>
      <trkpt lat="38.9231950" lon="-0.2673480">
        <ele>151.9</ele>
        <time>2020-11-14T10:31:31Z</time>
      </trkpt>
      <trkpt lat="38.9231780" lon="-0.2673900">
        <ele>152.1</ele>
        <time>2020-11-14T10:31:32Z</time>
      </trkpt>
      <trkpt lat="38.9231720" lon="-0.2674030">
        <ele>152.2</ele>
        <time>2020-11-14T10:31:33Z</time>
      </trkpt>
      <trkpt lat="38.9231550" lon="-0.2674430">
        <ele>152.5</ele>
        <time>2020-11-14T10:31:34Z</time>
      </trkpt>
      <trkpt lat="38.9231490" lon="-0.2674560">
        <ele>152.6</ele>
        <time>2020-11-14T10:31:35Z</time>
      </trkpt>
      <trkpt lat="38.9231350" lon="-0.2675000">
        <ele>152.8</ele>
        <time>2020-11-14T10:31:36Z</time>
      </trkpt>
      <trkpt lat="38.9231310" lon="-0.2675140">
        <ele>152.9</ele>
        <time>2020-11-14T10:31:37Z</time>
      </trkpt>
      <trkpt lat="38.9231180" lon="-0.2675570">
        <ele>153.2</ele>
        <time>2020-11-14T10:31:38Z</time>
      </trkpt>
      <trkpt lat="38.9231130" lon="-0.2675710">
        <ele>153.3</ele>
        <time>2020-11-14T10:31:39Z</time>
      </trkpt>
      <trkpt lat="38.9230990" lon="-0.2676160">
        <ele>153.6</ele>
        <time>2020-11-14T10:31:40Z</time>
      </trkpt>
      <trkpt lat="38.9230940" lon="-0.2676310">
        <ele>153.7</ele>
        <time>2020-11-14T10:31:41Z</time>
      </trkpt>
      <trkpt lat="38.9230780" lon="-0.2676790">
        <ele>154.0</ele>
        <time>2020-11-14T10:31:42Z</time>
      </trkpt>
      <trkpt lat="38.9230720" lon="-0.2676950">
        <ele>154.1</ele>
        <time>2020-11-14T10:31:43Z</time>
      </trkpt>
      <trkpt lat="38.9230610" lon="-0.2677270">
        <ele>154.3</ele>
        <time>2020-11-14T10:31:44Z</time>
      </trkpt>
      <trkpt lat="38.9230490" lon="-0.2677600">
        <ele>154.6</ele>
        <time>2020-11-14T10:31:45Z</time>
      </trkpt>
      <trkpt lat="38.9230380" lon="-0.2677940">
        <ele>154.8</ele>
        <time>2020-11-14T10:31:46Z</time>
      </trkpt>
      <trkpt lat="38.9230270" lon="-0.2678290">
        <ele>155.0</ele>
        <time>2020-11-14T10:31:47Z</time>
      </trkpt>
      <trkpt lat="38.9230160" lon="-0.2678620">
        <ele>155.3</ele>
        <time>2020-11-14T10:31:48Z</time>
      </trkpt>
      <trkpt lat="38.9230060" lon="-0.2678960">
        <ele>155.5</ele>
        <time>2020-11-14T10:31:49Z</time>
      </trkpt>
      <trkpt lat="38.9229940" lon="-0.2679300">
        <ele>155.8</ele>
        <time>2020-11-14T10:31:50Z</time>
      </trkpt>
      <trkpt lat="38.9229830" lon="-0.2679640">
        <ele>156.0</ele>
        <time>2020-11-14T10:31:51Z</time>
      </trkpt>
      <trkpt lat="38.9229710" lon="-0.2680000">
        <ele>156.2</ele>
        <time>2020-11-14T10:31:52Z</time>
      </trkpt>
      <trkpt lat="38.9229590" lon="-0.2680350">
        <ele>156.5</ele>
        <time>2020-11-14T10:31:53Z</time>
      </trkpt>
      <trkpt lat="38.9229460" lon="-0.2680700">
        <ele>156.7</ele>
        <time>2020-11-14T10:31:54Z</time>
      </trkpt>
      <trkpt lat="38.9229320" lon="-0.2681050">
        <ele>156.9</ele>
        <time>2020-11-14T10:31:55Z</time>
      </trkpt>
      <trkpt lat="38.9229190" lon="-0.2681410">
        <ele>157.1</ele>
        <time>2020-11-14T10:31:56Z</time>
      </trkpt>
      <trkpt lat="38.9229050" lon="-0.2681770">
        <ele>157.3</ele>
        <time>2020-11-14T10:31:57Z</time>
      </trkpt>
      <trkpt lat="38.9228930" lon="-0.2682120">
        <ele>157.6</ele>
        <time>2020-11-14T10:31:58Z</time>
      </trkpt>
      <trkpt lat="38.9228800" lon="-0.2682490">
        <ele>157.8</ele>
        <time>2020-11-14T10:31:59Z</time>
      </trkpt>
      <trkpt lat="38.9228690" lon="-0.2682850">
        <ele>158.0</ele>
        <time>2020-11-14T10:32:00Z</time>
      </trkpt>
      <trkpt lat="38.9228570" lon="-0.2683210">
        <ele>158.2</ele>
        <time>2020-11-14T10:32:01Z</time>
      </trkpt>
      <trkpt lat="38.9228450" lon="-0.2683570">
        <ele>158.4</ele>
        <time>2020-11-14T10:32:02Z</time>
      </trkpt>
      <trkpt lat="38.9228330" lon="-0.2683920">
        <ele>158.6</ele>
        <time>2020-11-14T10:32:03Z</time>
      </trkpt>
      <trkpt lat="38.9228210" lon="-0.2684260">
        <ele>158.8</ele>
        <time>2020-11-14T10:32:04Z</time>
      </trkpt>
      <trkpt lat="38.9228100" lon="-0.2684590">
        <ele>159.0</ele>
        <time>2020-11-14T10:32:05Z</time>
      </trkpt>
      <trkpt lat="38.9227980" lon="-0.2684910">
        <ele>159.2</ele>
        <time>2020-11-14T10:32:06Z</time>
      </trkpt>
      <trkpt lat="38.9227850" lon="-0.2685240">
        <ele>159.5</ele>
        <time>2020-11-14T10:32:07Z</time>
      </trkpt>
      <trkpt lat="38.9227730" lon="-0.2685560">
        <ele>159.7</ele>
        <time>2020-11-14T10:32:08Z</time>
      </trkpt>
      <trkpt lat="38.9227600" lon="-0.2685890">
        <ele>159.9</ele>
        <time>2020-11-14T10:32:09Z</time>
      </trkpt>
      <trkpt lat="38.9227490" lon="-0.2686230">
        <ele>160.1</ele>
        <time>2020-11-14T10:32:10Z</time>
      </trkpt>
      <trkpt lat="38.9227380" lon="-0.2686590">
        <ele>160.3</ele>
        <time>2020-11-14T10:32:11Z</time>
      </trkpt>
      <trkpt lat="38.9227280" lon="-0.2686940">
        <ele>160.5</ele>
        <time>2020-11-14T10:32:12Z</time>
      </trkpt>
      <trkpt lat="38.9227170" lon="-0.2687280">
        <ele>160.7</ele>
        <time>2020-11-14T10:32:13Z</time>
      </trkpt>
      <trkpt lat="38.9227070" lon="-0.2687620">
        <ele>160.9</ele>
        <time>2020-11-14T10:32:14Z</time>
      </trkpt>
      <trkpt lat="38.9226970" lon="-0.2687970">
        <ele>161.1</ele>
        <time>2020-11-14T10:32:15Z</time>
      </trkpt>
      <trkpt lat="38.9226860" lon="-0.2688310">
        <ele>161.4</ele>
        <time>2020-11-14T10:32:16Z</time>
      </trkpt>
      <trkpt lat="38.9226750" lon="-0.2688660">
        <ele>161.6</ele>
        <time>2020-11-14T10:32:17Z</time>
      </trkpt>
      <trkpt lat="38.9226630" lon="-0.2688990">
        <ele>161.8</ele>
        <time>2020-11-14T10:32:18Z</time>
      </trkpt>
      <trkpt lat="38.9226480" lon="-0.2689310">
        <ele>162.0</ele>
        <time>2020-11-14T10:32:19Z</time>
      </trkpt>
      <trkpt lat="38.9226320" lon="-0.2689620">
        <ele>162.2</ele>
        <time>2020-11-14T10:32:20Z</time>
      </trkpt>
      <trkpt lat="38.9226150" lon="-0.2689920">
        <ele>162.4</ele>
        <time>2020-11-14T10:32:21Z</time>
      </trkpt>
      <trkpt lat="38.9225990" lon="-0.2690230">
        <ele>162.6</ele>
        <time>2020-11-14T10:32:22Z</time>
      </trkpt>
      <trkpt lat="38.9225840" lon="-0.2690540">
        <ele>162.9</ele>
        <time>2020-11-14T10:32:23Z</time>
      </trkpt>
      <trkpt lat="38.9225700" lon="-0.2690840">
        <ele>163.0</ele>
        <time>2020-11-14T10:32:24Z</time>
      </trkpt>
      <trkpt lat="38.9225570" lon="-0.2691150">
        <ele>163.2</ele>
        <time>2020-11-14T10:32:25Z</time>
      </trkpt>
      <trkpt lat="38.9225450" lon="-0.2691460">
        <ele>163.4</ele>
        <time>2020-11-14T10:32:26Z</time>
      </trkpt>
      <trkpt lat="38.9225290" lon="-0.2691930">
        <ele>163.6</ele>
        <time>2020-11-14T10:32:27Z</time>
      </trkpt>
      <trkpt lat="38.9225230" lon="-0.2692070">
        <ele>163.7</ele>
        <time>2020-11-14T10:32:28Z</time>
      </trkpt>
      <trkpt lat="38.9225070" lon="-0.2692510">
        <ele>163.9</ele>
        <time>2020-11-14T10:32:29Z</time>
      </trkpt>
      <trkpt lat="38.9225010" lon="-0.2692660">
        <ele>164.0</ele>
        <time>2020-11-14T10:32:30Z</time>
      </trkpt>
      <trkpt lat="38.9224840" lon="-0.2693130">
        <ele>164.2</ele>
        <time>2020-11-14T10:32:31Z</time>
      </trkpt>
      <trkpt lat="38.9224770" lon="-0.2693280">
        <ele>164.3</ele>
        <time>2020-11-14T10:32:32Z</time>
      </trkpt>
      <trkpt lat="38.9224650" lon="-0.2693590">
        <ele>164.4</ele>
        <time>2020-11-14T10:32:33Z</time>
      </trkpt>
      <trkpt lat="38.9224520" lon="-0.2693910">
        <ele>164.6</ele>
        <time>2020-11-14T10:32:34Z</time>
      </trkpt>
      <trkpt lat="38.9224390" lon="-0.2694230">
        <ele>164.7</ele>
        <time>2020-11-14T10:32:35Z</time>
      </trkpt>
      <trkpt lat="38.9224260" lon="-0.2694570">
        <ele>164.9</ele>
        <time>2020-11-14T10:32:36Z</time>
      </trkpt>
      <trkpt lat="38.9224120" lon="-0.2694930">
        <ele>165.0</ele>
        <time>2020-11-14T10:32:37Z</time>
      </trkpt>
      <trkpt lat="38.9223980" lon="-0.2695280">
        <ele>165.2</ele>
        <time>2020-11-14T10:32:38Z</time>
      </trkpt>
      <trkpt lat="38.9223860" lon="-0.2695620">
        <ele>165.3</ele>
        <time>2020-11-14T10:32:39Z</time>
      </trkpt>
      <trkpt lat="38.9223690" lon="-0.2695960">
        <ele>165.4</ele>
        <time>2020-11-14T10:32:40Z</time>
      </trkpt>
      <trkpt lat="38.9223530" lon="-0.2696300">
        <ele>165.6</ele>
        <time>2020-11-14T10:32:41Z</time>
      </trkpt>
      <trkpt lat="38.9223360" lon="-0.2696630">
        <ele>165.7</ele>
        <time>2020-11-14T10:32:42Z</time>
      </trkpt>
      <trkpt lat="38.9223200" lon="-0.2696950">
        <ele>165.8</ele>
        <time>2020-11-14T10:32:43Z</time>
      </trkpt>
      <trkpt lat="38.9223040" lon="-0.2697270">
        <ele>166.0</ele>
        <time>2020-11-14T10:32:44Z</time>
      </trkpt>
      <trkpt lat="38.9222870" lon="-0.2697610">
        <ele>166.1</ele>
        <time>2020-11-14T10:32:45Z</time>
      </trkpt>
      <trkpt lat="38.9222700" lon="-0.2697940">
        <ele>166.2</ele>
        <time>2020-11-14T10:32:46Z</time>
      </trkpt>
      <trkpt lat="38.9222550" lon="-0.2698290">
        <ele>166.3</ele>
        <time>2020-11-14T10:32:47Z</time>
      </trkpt>
      <trkpt lat="38.9222400" lon="-0.2698640">
        <ele>166.5</ele>
        <time>2020-11-14T10:32:48Z</time>
      </trkpt>
      <trkpt lat="38.9222230" lon="-0.2699000">
        <ele>166.6</ele>
        <time>2020-11-14T10:32:49Z</time>
      </trkpt>
      <trkpt lat="38.9222070" lon="-0.2699350">
        <ele>166.7</ele>
        <time>2020-11-14T10:32:50Z</time>
      </trkpt>
      <trkpt lat="38.9221880" lon="-0.2699660">
        <ele>166.7</ele>
        <time>2020-11-14T10:32:51Z</time>
      </trkpt>
      <trkpt lat="38.9221690" lon="-0.2699970">
        <ele>166.8</ele>
        <time>2020-11-14T10:32:52Z</time>
      </trkpt>
      <trkpt lat="38.9221500" lon="-0.2700280">
        <ele>166.9</ele>
        <time>2020-11-14T10:32:53Z</time>
      </trkpt>
      <trkpt lat="38.9221330" lon="-0.2700620">
        <ele>167.0</ele>
        <time>2020-11-14T10:32:54Z</time>
      </trkpt>
      <trkpt lat="38.9221150" lon="-0.2701000">
        <ele>167.1</ele>
        <time>2020-11-14T10:32:55Z</time>
      </trkpt>
      <trkpt lat="38.9220990" lon="-0.2701350">
        <ele>167.2</ele>
        <time>2020-11-14T10:32:56Z</time>
      </trkpt>
      <trkpt lat="38.9220810" lon="-0.2701690">
        <ele>167.3</ele>
        <time>2020-11-14T10:32:57Z</time>
      </trkpt>
      <trkpt lat="38.9220560" lon="-0.2702020">
        <ele>167.3</ele>
        <time>2020-11-14T10:32:58Z</time>
      </trkpt>
      <trkpt lat="38.9220300" lon="-0.2702340">
        <ele>167.4</ele>
        <time>2020-11-14T10:32:59Z</time>
      </trkpt>
      <trkpt lat="38.9220100" lon="-0.2702640">
        <ele>167.5</ele>
        <time>2020-11-14T10:33:00Z</time>
      </trkpt>
      <trkpt lat="38.9219910" lon="-0.2702960">
        <ele>167.6</ele>
        <time>2020-11-14T10:33:01Z</time>
      </trkpt>
      <trkpt lat="38.9219720" lon="-0.2703320">
        <ele>167.7</ele>
        <time>2020-11-14T10:33:02Z</time>
      </trkpt>
      <trkpt lat="38.9219500" lon="-0.2703680">
        <ele>167.7</ele>
        <time>2020-11-14T10:33:03Z</time>
      </trkpt>
      <trkpt lat="38.9219260" lon="-0.2704060">
        <ele>167.8</ele>
        <time>2020-11-14T10:33:04Z</time>
      </trkpt>
      <trkpt lat="38.9219020" lon="-0.2704480">
        <ele>167.9</ele>
        <time>2020-11-14T10:33:05Z</time>
      </trkpt>
      <trkpt lat="38.9218800" lon="-0.2704920">
        <ele>167.9</ele>
        <time>2020-11-14T10:33:06Z</time>
      </trkpt>
      <trkpt lat="38.9218570" lon="-0.2705340">
        <ele>168.0</ele>
        <time>2020-11-14T10:33:07Z</time>
      </trkpt>
      <trkpt lat="38.9218360" lon="-0.2705750">
        <ele>168.0</ele>
        <time>2020-11-14T10:33:08Z</time>
      </trkpt>
      <trkpt lat="38.9218120" lon="-0.2706120">
        <ele>168.1</ele>
        <time>2020-11-14T10:33:09Z</time>
      </trkpt>
      <trkpt lat="38.9217850" lon="-0.2706480">
        <ele>168.1</ele>
        <time>2020-11-14T10:33:10Z</time>
      </trkpt>
      <trkpt lat="38.9217590" lon="-0.2706830">
        <ele>168.2</ele>
        <time>2020-11-14T10:33:11Z</time>
      </trkpt>
      <trkpt lat="38.9217340" lon="-0.2707170">
        <ele>168.2</ele>
        <time>2020-11-14T10:33:12Z</time>
      </trkpt>
      <trkpt lat="38.9217100" lon="-0.2707530">
        <ele>168.2</ele>
        <time>2020-11-14T10:33:13Z</time>
      </trkpt>
      <trkpt lat="38.9216850" lon="-0.2707880">
        <ele>168.3</ele>
        <time>2020-11-14T10:33:14Z</time>
      </trkpt>
      <trkpt lat="38.9216590" lon="-0.2708230">
        <ele>168.3</ele>
        <time>2020-11-14T10:33:15Z</time>
      </trkpt>
      <trkpt lat="38.9216320" lon="-0.2708580">
        <ele>168.4</ele>
        <time>2020-11-14T10:33:16Z</time>
      </trkpt>
      <trkpt lat="38.9216030" lon="-0.2708950">
        <ele>168.4</ele>
        <time>2020-11-14T10:33:17Z</time>
      </trkpt>
      <trkpt lat="38.9215740" lon="-0.2709340">
        <ele>168.5</ele>
        <time>2020-11-14T10:33:18Z</time>
      </trkpt>
      <trkpt lat="38.9215340" lon="-0.2709720">
        <ele>168.5</ele>
        <time>2020-11-14T10:33:19Z</time>
      </trkpt>
      <trkpt lat="38.9215030" lon="-0.2710150">
        <ele>168.5</ele>
        <time>2020-11-14T10:33:20Z</time>
      </trkpt>
      <trkpt lat="38.9214770" lon="-0.2710600">
        <ele>168.6</ele>
        <time>2020-11-14T10:33:21Z</time>
      </trkpt>
      <trkpt lat="38.9214400" lon="-0.2711080">
        <ele>168.6</ele>
        <time>2020-11-14T10:33:22Z</time>
      </trkpt>
      <trkpt lat="38.9214170" lon="-0.2711520">
        <ele>168.7</ele>
        <time>2020-11-14T10:33:23Z</time>
      </trkpt>
      <trkpt lat="38.9213910" lon="-0.2712010">
        <ele>168.7</ele>
        <time>2020-11-14T10:33:24Z</time>
      </trkpt>
      <trkpt lat="38.9213670" lon="-0.2712480">
        <ele>168.8</ele>
        <time>2020-11-14T10:33:25Z</time>
      </trkpt>
      <trkpt lat="38.9213310" lon="-0.2712910">
        <ele>168.9</ele>
        <time>2020-11-14T10:33:26Z</time>
      </trkpt>
      <trkpt lat="38.9213060" lon="-0.2713340">
        <ele>169.0</ele>
        <time>2020-11-14T10:33:27Z</time>
      </trkpt>
      <trkpt lat="38.9212800" lon="-0.2713670">
        <ele>169.0</ele>
        <time>2020-11-14T10:33:28Z</time>
      </trkpt>
      <trkpt lat="38.9212560" lon="-0.2714170">
        <ele>169.1</ele>
        <time>2020-11-14T10:33:29Z</time>
      </trkpt>
      <trkpt lat="38.9212320" lon="-0.2714530">
        <ele>169.1</ele>
        <time>2020-11-14T10:33:30Z</time>
      </trkpt>
      <trkpt lat="38.9212050" lon="-0.2714990">
        <ele>169.2</ele>
        <time>2020-11-14T10:33:31Z</time>
      </trkpt>
      <trkpt lat="38.9211580" lon="-0.2715410">
        <ele>169.3</ele>
        <time>2020-11-14T10:33:32Z</time>
      </trkpt>
      <trkpt lat="38.9211380" lon="-0.2715850">
        <ele>169.4</ele>
        <time>2020-11-14T10:33:33Z</time>
      </trkpt>
      <trkpt lat="38.9211210" lon="-0.2716380">
        <ele>169.5</ele>
        <time>2020-11-14T10:33:34Z</time>
      </trkpt>
      <trkpt lat="38.9211060" lon="-0.2716770">
        <ele>169.6</ele>
        <time>2020-11-14T10:33:35Z</time>
      </trkpt>
      <trkpt lat="38.9210820" lon="-0.2717210">
        <ele>169.7</ele>
        <time>2020-11-14T10:33:36Z</time>
      </trkpt>
      <trkpt lat="38.9210620" lon="-0.2717530">
        <ele>169.7</ele>
        <time>2020-11-14T10:33:37Z</time>
      </trkpt>
      <trkpt lat="38.9210390" lon="-0.2717920">
        <ele>169.8</ele>
        <time>2020-11-14T10:33:38Z</time>
      </trkpt>
      <trkpt lat="38.9210210" lon="-0.2718370">
        <ele>169.9</ele>
        <time>2020-11-14T10:33:39Z</time>
      </trkpt>
      <trkpt lat="38.9210090" lon="-0.2718810">
        <ele>170.0</ele>
        <time>2020-11-14T10:33:40Z</time>
      </trkpt>
      <trkpt lat="38.9210080" lon="-0.2719310">
        <ele>170.0</ele>
        <time>2020-11-14T10:33:41Z</time>
      </trkpt>
      <trkpt lat="38.9210220" lon="-0.2719880">
        <ele>170.1</ele>
        <time>2020-11-14T10:33:42Z</time>
      </trkpt>
      <trkpt lat="38.9210400" lon="-0.2720410">
        <ele>170.2</ele>
        <time>2020-11-14T10:33:43Z</time>
      </trkpt>
      <trkpt lat="38.9210600" lon="-0.2720940">
        <ele>170.2</ele>
        <time>2020-11-14T10:33:44Z</time>
      </trkpt>
      <trkpt lat="38.9210760" lon="-0.2721480">
        <ele>170.3</ele>
        <time>2020-11-14T10:33:45Z</time>
      </trkpt>
      <trkpt lat="38.9210890" lon="-0.2722030">
        <ele>170.3</ele>
        <time>2020-11-14T10:33:46Z</time>
      </trkpt>
      <trkpt lat="38.9210920" lon="-0.2722620">
        <ele>170.3</ele>
        <time>2020-11-14T10:33:47Z</time>
      </trkpt>
      <trkpt lat="38.9210850" lon="-0.2723270">
        <ele>170.3</ele>
        <time>2020-11-14T10:33:48Z</time>
      </trkpt>
      <trkpt lat="38.9210620" lon="-0.2723860">
        <ele>170.3</ele>
        <time>2020-11-14T10:33:49Z</time>
      </trkpt>
      <trkpt lat="38.9210300" lon="-0.2724370">
        <ele>170.3</ele>
        <time>2020-11-14T10:33:50Z</time>
      </trkpt>
      <trkpt lat="38.9209990" lon="-0.2724920">
        <ele>170.2</ele>
        <time>2020-11-14T10:33:51Z</time>
      </trkpt>
      <trkpt lat="38.9209760" lon="-0.2725340">
        <ele>170.2</ele>
        <time>2020-11-14T10:33:52Z</time>
      </trkpt>
      <trkpt lat="38.9209450" lon="-0.2725890">
        <ele>170.2</ele>
        <time>2020-11-14T10:33:53Z</time>
      </trkpt>
      <trkpt lat="38.9209200" lon="-0.2726480">
        <ele>170.2</ele>
        <time>2020-11-14T10:33:54Z</time>
      </trkpt>
      <trkpt lat="38.9209120" lon="-0.2727130">
        <ele>170.1</ele>
        <time>2020-11-14T10:33:55Z</time>
      </trkpt>
      <trkpt lat="38.9209070" lon="-0.2727720">
        <ele>170.1</ele>
        <time>2020-11-14T10:33:56Z</time>
      </trkpt>
      <trkpt lat="38.9208870" lon="-0.2728480">
        <ele>170.1</ele>
        <time>2020-11-14T10:33:57Z</time>
      </trkpt>
      <trkpt lat="38.9208770" lon="-0.2729100">
        <ele>169.9</ele>
        <time>2020-11-14T10:33:58Z</time>
      </trkpt>
      <trkpt lat="38.9208520" lon="-0.2729730">
        <ele>169.8</ele>
        <time>2020-11-14T10:33:59Z</time>
      </trkpt>
      <trkpt lat="38.9208230" lon="-0.2730310">
        <ele>169.6</ele>
        <time>2020-11-14T10:34:00Z</time>
      </trkpt>
      <trkpt lat="38.9207880" lon="-0.2730820">
        <ele>169.4</ele>
        <time>2020-11-14T10:34:01Z</time>
      </trkpt>
      <trkpt lat="38.9207520" lon="-0.2731270">
        <ele>169.2</ele>
        <time>2020-11-14T10:34:02Z</time>
      </trkpt>
      <trkpt lat="38.9207160" lon="-0.2731730">
        <ele>168.9</ele>
        <time>2020-11-14T10:34:03Z</time>
      </trkpt>
      <trkpt lat="38.9206660" lon="-0.2732170">
        <ele>168.6</ele>
        <time>2020-11-14T10:34:04Z</time>
      </trkpt>
      <trkpt lat="38.9206150" lon="-0.2732470">
        <ele>168.2</ele>
        <time>2020-11-14T10:34:05Z</time>
      </trkpt>
      <trkpt lat="38.9205510" lon="-0.2732700">
        <ele>167.9</ele>
        <time>2020-11-14T10:34:06Z</time>
      </trkpt>
      <trkpt lat="38.9204870" lon="-0.2732890">
        <ele>167.5</ele>
        <time>2020-11-14T10:34:07Z</time>
      </trkpt>
      <trkpt lat="38.9204210" lon="-0.2732790">
        <ele>167.1</ele>
        <time>2020-11-14T10:34:08Z</time>
      </trkpt>
      <trkpt lat="38.9203550" lon="-0.2732690">
        <ele>166.6</ele>
        <time>2020-11-14T10:34:09Z</time>
      </trkpt>
      <trkpt lat="38.9202810" lon="-0.2732600">
        <ele>166.1</ele>
        <time>2020-11-14T10:34:10Z</time>
      </trkpt>
      <trkpt lat="38.9202090" lon="-0.2732390">
        <ele>165.7</ele>
        <time>2020-11-14T10:34:11Z</time>
      </trkpt>
      <trkpt lat="38.9201160" lon="-0.2732010">
        <ele>165.1</ele>
        <time>2020-11-14T10:34:12Z</time>
      </trkpt>
      <trkpt lat="38.9200390" lon="-0.2731800">
        <ele>164.6</ele>
        <time>2020-11-14T10:34:13Z</time>
      </trkpt>
      <trkpt lat="38.9199530" lon="-0.2731550">
        <ele>164.0</ele>
        <time>2020-11-14T10:34:14Z</time>
      </trkpt>
      <trkpt lat="38.9198690" lon="-0.2731380">
        <ele>163.5</ele>
        <time>2020-11-14T10:34:15Z</time>
      </trkpt>
      <trkpt lat="38.9197830" lon="-0.2731260">
        <ele>162.9</ele>
        <time>2020-11-14T10:34:16Z</time>
      </trkpt>
      <trkpt lat="38.9196830" lon="-0.2731250">
        <ele>162.3</ele>
        <time>2020-11-14T10:34:17Z</time>
      </trkpt>
      <trkpt lat="38.9195940" lon="-0.2731120">
        <ele>161.7</ele>
        <time>2020-11-14T10:34:18Z</time>
      </trkpt>
      <trkpt lat="38.9194980" lon="-0.2731240">
        <ele>161.0</ele>
        <time>2020-11-14T10:34:19Z</time>
      </trkpt>
      <trkpt lat="38.9194030" lon="-0.2731370">
        <ele>160.4</ele>
        <time>2020-11-14T10:34:20Z</time>
      </trkpt>
      <trkpt lat="38.9193130" lon="-0.2731520">
        <ele>159.8</ele>
        <time>2020-11-14T10:34:21Z</time>
      </trkpt>
      <trkpt lat="38.9192180" lon="-0.2731890">
        <ele>159.1</ele>
        <time>2020-11-14T10:34:22Z</time>
      </trkpt>
      <trkpt lat="38.9191150" lon="-0.2732190">
        <ele>158.3</ele>
        <time>2020-11-14T10:34:23Z</time>
      </trkpt>
      <trkpt lat="38.9190270" lon="-0.2732740">
        <ele>157.7</ele>
        <time>2020-11-14T10:34:24Z</time>
      </trkpt>
      <trkpt lat="38.9189420" lon="-0.2733270">
        <ele>157.0</ele>
        <time>2020-11-14T10:34:25Z</time>
      </trkpt>
      <trkpt lat="38.9188530" lon="-0.2733820">
        <ele>156.4</ele>
        <time>2020-11-14T10:34:26Z</time>
      </trkpt>
      <trkpt lat="38.9187650" lon="-0.2734470">
        <ele>155.7</ele>
        <time>2020-11-14T10:34:27Z</time>
      </trkpt>
      <trkpt lat="38.9186700" lon="-0.2735090">
        <ele>155.1</ele>
        <time>2020-11-14T10:34:28Z</time>
      </trkpt>
      <trkpt lat="38.9185880" lon="-0.2735710">
        <ele>154.5</ele>
        <time>2020-11-14T10:34:29Z</time>
      </trkpt>
      <trkpt lat="38.9184970" lon="-0.2736330">
        <ele>154.0</ele>
        <time>2020-11-14T10:34:30Z</time>
      </trkpt>
      <trkpt lat="38.9184080" lon="-0.2736750">
        <ele>153.5</ele>
        <time>2020-11-14T10:34:31Z</time>
      </trkpt>
      <trkpt lat="38.9183200" lon="-0.2737460">
        <ele>153.0</ele>
        <time>2020-11-14T10:34:32Z</time>
      </trkpt>
      <trkpt lat="38.9182310" lon="-0.2738070">
        <ele>152.5</ele>
        <time>2020-11-14T10:34:33Z</time>
      </trkpt>
      <trkpt lat="38.9181360" lon="-0.2738760">
        <ele>152.0</ele>
        <time>2020-11-14T10:34:34Z</time>
      </trkpt>
      <trkpt lat="38.9180480" lon="-0.2739410">
        <ele>151.6</ele>
        <time>2020-11-14T10:34:35Z</time>
      </trkpt>
      <trkpt lat="38.9179650" lon="-0.2740230">
        <ele>151.1</ele>
        <time>2020-11-14T10:34:36Z</time>
      </trkpt>
      <trkpt lat="38.9178830" lon="-0.2740880">
        <ele>150.6</ele>
        <time>2020-11-14T10:34:37Z</time>
      </trkpt>
      <trkpt lat="38.9178120" lon="-0.2741630">
        <ele>150.2</ele>
        <time>2020-11-14T10:34:38Z</time>
      </trkpt>
      <trkpt lat="38.9177430" lon="-0.2742540">
        <ele>149.7</ele>
        <time>2020-11-14T10:34:39Z</time>
      </trkpt>
      <trkpt lat="38.9176770" lon="-0.2743380">
        <ele>149.3</ele>
        <time>2020-11-14T10:34:40Z</time>
      </trkpt>
      <trkpt lat="38.9176180" lon="-0.2744380">
        <ele>148.9</ele>
        <time>2020-11-14T10:34:41Z</time>
      </trkpt>
      <trkpt lat="38.9175620" lon="-0.2745570">
        <ele>148.6</ele>
        <time>2020-11-14T10:34:42Z</time>
      </trkpt>
      <trkpt lat="38.9175040" lon="-0.2746390">
        <ele>148.4</ele>
        <time>2020-11-14T10:34:43Z</time>
      </trkpt>
      <trkpt lat="38.9174530" lon="-0.2747490">
        <ele>148.2</ele>
        <time>2020-11-14T10:34:44Z</time>
      </trkpt>
      <trkpt lat="38.9173900" lon="-0.2748590">
        <ele>148.0</ele>
        <time>2020-11-14T10:34:45Z</time>
      </trkpt>
      <trkpt lat="38.9173230" lon="-0.2749660">
        <ele>147.8</ele>
        <time>2020-11-14T10:34:46Z</time>
      </trkpt>
      <trkpt lat="38.9172700" lon="-0.2750680">
        <ele>147.6</ele>
        <time>2020-11-14T10:34:47Z</time>
      </trkpt>
      <trkpt lat="38.9172240" lon="-0.2751640">
        <ele>147.5</ele>
        <time>2020-11-14T10:34:48Z</time>
      </trkpt>
      <trkpt lat="38.9171780" lon="-0.2752710">
        <ele>147.4</ele>
        <time>2020-11-14T10:34:49Z</time>
      </trkpt>
      <trkpt lat="38.9171340" lon="-0.2753720">
        <ele>147.2</ele>
        <time>2020-11-14T10:34:50Z</time>
      </trkpt>
      <trkpt lat="38.9170890" lon="-0.2754660">
        <ele>147.0</ele>
        <time>2020-11-14T10:34:51Z</time>
      </trkpt>
      <trkpt lat="38.9170470" lon="-0.2755630">
        <ele>146.8</ele>
        <time>2020-11-14T10:34:52Z</time>
      </trkpt>
      <trkpt lat="38.9169970" lon="-0.2756600">
        <ele>146.6</ele>
        <time>2020-11-14T10:34:53Z</time>
      </trkpt>
      <trkpt lat="38.9169470" lon="-0.2757400">
        <ele>146.5</ele>
        <time>2020-11-14T10:34:54Z</time>
      </trkpt>
      <trkpt lat="38.9168970" lon="-0.2758300">
        <ele>146.4</ele>
        <time>2020-11-14T10:34:55Z</time>
      </trkpt>
      <trkpt lat="38.9168490" lon="-0.2759150">
        <ele>146.3</ele>
        <time>2020-11-14T10:34:56Z</time>
      </trkpt>
      <trkpt lat="38.9168070" lon="-0.2760130">
        <ele>146.1</ele>
        <time>2020-11-14T10:34:57Z</time>
      </trkpt>
      <trkpt lat="38.9167580" lon="-0.2761050">
        <ele>146.0</ele>
        <time>2020-11-14T10:34:58Z</time>
      </trkpt>
      <trkpt lat="38.9167050" lon="-0.2761990">
        <ele>145.8</ele>
        <time>2020-11-14T10:34:59Z</time>
      </trkpt>
      <trkpt lat="38.9166450" lon="-0.2762920">
        <ele>145.7</ele>
        <time>2020-11-14T10:35:00Z</time>
      </trkpt>
      <trkpt lat="38.9166050" lon="-0.2763810">
        <ele>145.5</ele>
        <time>2020-11-14T10:35:01Z</time>
      </trkpt>
      <trkpt lat="38.9165570" lon="-0.2764770">
        <ele>145.4</ele>
        <time>2020-11-14T10:35:02Z</time>
      </trkpt>
      <trkpt lat="38.9165160" lon="-0.2765750">
        <ele>145.2</ele>
        <time>2020-11-14T10:35:03Z</time>
      </trkpt>
      <trkpt lat="38.9164550" lon="-0.2766630">
        <ele>145.1</ele>
        <time>2020-11-14T10:35:04Z</time>
      </trkpt>
      <trkpt lat="38.9164100" lon="-0.2767580">
        <ele>145.0</ele>
        <time>2020-11-14T10:35:05Z</time>
      </trkpt>
      <trkpt lat="38.9163600" lon="-0.2768490">
        <ele>145.0</ele>
        <time>2020-11-14T10:35:06Z</time>
      </trkpt>
      <trkpt lat="38.9163090" lon="-0.2769320">
        <ele>144.9</ele>
        <time>2020-11-14T10:35:07Z</time>
      </trkpt>
      <trkpt lat="38.9162450" lon="-0.2770180">
        <ele>144.9</ele>
        <time>2020-11-14T10:35:08Z</time>
      </trkpt>
      <trkpt lat="38.9162100" lon="-0.2771080">
        <ele>144.9</ele>
        <time>2020-11-14T10:35:09Z</time>
      </trkpt>
      <trkpt lat="38.9161710" lon="-0.2771880">
        <ele>144.9</ele>
        <time>2020-11-14T10:35:10Z</time>
      </trkpt>
      <trkpt lat="38.9161320" lon="-0.2772740">
        <ele>145.0</ele>
        <time>2020-11-14T10:35:11Z</time>
      </trkpt>
      <trkpt lat="38.9160890" lon="-0.2773570">
        <ele>145.0</ele>
        <time>2020-11-14T10:35:12Z</time>
      </trkpt>
      <trkpt lat="38.9160510" lon="-0.2774400">
        <ele>145.0</ele>
        <time>2020-11-14T10:35:13Z</time>
      </trkpt>
      <trkpt lat="38.9160170" lon="-0.2775350">
        <ele>145.1</ele>
        <time>2020-11-14T10:35:14Z</time>
      </trkpt>
      <trkpt lat="38.9159710" lon="-0.2776120">
        <ele>145.1</ele>
        <time>2020-11-14T10:35:15Z</time>
      </trkpt>
      <trkpt lat="38.9159340" lon="-0.2776910">
        <ele>145.1</ele>
        <time>2020-11-14T10:35:16Z</time>
      </trkpt>
      <trkpt lat="38.9158930" lon="-0.2777720">
        <ele>145.2</ele>
        <time>2020-11-14T10:35:17Z</time>
      </trkpt>
      <trkpt lat="38.9158400" lon="-0.2778550">
        <ele>145.2</ele>
        <time>2020-11-14T10:35:18Z</time>
      </trkpt>
      <trkpt lat="38.9158030" lon="-0.2779250">
        <ele>145.3</ele>
        <time>2020-11-14T10:35:19Z</time>
      </trkpt>
      <trkpt lat="38.9157640" lon="-0.2780080">
        <ele>145.3</ele>
        <time>2020-11-14T10:35:20Z</time>
      </trkpt>
      <trkpt lat="38.9157250" lon="-0.2780830">
        <ele>145.3</ele>
        <time>2020-11-14T10:35:21Z</time>
      </trkpt>
      <trkpt lat="38.9156680" lon="-0.2781620">
        <ele>145.4</ele>
        <time>2020-11-14T10:35:22Z</time>
      </trkpt>
      <trkpt lat="38.9156320" lon="-0.2782400">
        <ele>145.5</ele>
        <time>2020-11-14T10:35:23Z</time>
      </trkpt>
      <trkpt lat="38.9155890" lon="-0.2783160">
        <ele>145.5</ele>
        <time>2020-11-14T10:35:24Z</time>
      </trkpt>
      <trkpt lat="38.9155430" lon="-0.2783900">
        <ele>145.6</ele>
        <time>2020-11-14T10:35:25Z</time>
      </trkpt>
      <trkpt lat="38.9155070" lon="-0.2784640">
        <ele>145.7</ele>
        <time>2020-11-14T10:35:26Z</time>
      </trkpt>
      <trkpt lat="38.9154750" lon="-0.2785370">
        <ele>145.8</ele>
        <time>2020-11-14T10:35:27Z</time>
      </trkpt>
      <trkpt lat="38.9154420" lon="-0.2786110">
        <ele>145.8</ele>
        <time>2020-11-14T10:35:28Z</time>
      </trkpt>
      <trkpt lat="38.9154040" lon="-0.2786860">
        <ele>145.9</ele>
        <time>2020-11-14T10:35:29Z</time>
      </trkpt>
      <trkpt lat="38.9153660" lon="-0.2787560">
        <ele>145.9</ele>
        <time>2020-11-14T10:35:30Z</time>
      </trkpt>
      <trkpt lat="38.9153320" lon="-0.2788300">
        <ele>145.9</ele>
        <time>2020-11-14T10:35:31Z</time>
      </trkpt>
      <trkpt lat="38.9152890" lon="-0.2789050">
        <ele>146.0</ele>
        <time>2020-11-14T10:35:32Z</time>
      </trkpt>
      <trkpt lat="38.9152530" lon="-0.2789740">
        <ele>146.0</ele>
        <time>2020-11-14T10:35:33Z</time>
      </trkpt>
      <trkpt lat="38.9152090" lon="-0.2790380">
        <ele>146.0</ele>
        <time>2020-11-14T10:35:34Z</time>
      </trkpt>
      <trkpt lat="38.9151740" lon="-0.2790910">
        <ele>146.1</ele>
        <time>2020-11-14T10:35:35Z</time>
      </trkpt>
      <trkpt lat="38.9151420" lon="-0.2791590">
        <ele>146.1</ele>
        <time>2020-11-14T10:35:36Z</time>
      </trkpt>
      <trkpt lat="38.9151180" lon="-0.2792300">
        <ele>146.1</ele>
        <time>2020-11-14T10:35:37Z</time>
      </trkpt>
      <trkpt lat="38.9150930" lon="-0.2793030">
        <ele>146.1</ele>
        <time>2020-11-14T10:35:38Z</time>
      </trkpt>
      <trkpt lat="38.9150630" lon="-0.2793650">
        <ele>146.1</ele>
        <time>2020-11-14T10:35:39Z</time>
      </trkpt>
      <trkpt lat="38.9150260" lon="-0.2794330">
        <ele>146.2</ele>
        <time>2020-11-14T10:35:40Z</time>
      </trkpt>
      <trkpt lat="38.9149890" lon="-0.2794920">
        <ele>146.2</ele>
        <time>2020-11-14T10:35:41Z</time>
      </trkpt>
      <trkpt lat="38.9149570" lon="-0.2795630">
        <ele>146.2</ele>
        <time>2020-11-14T10:35:42Z</time>
      </trkpt>
      <trkpt lat="38.9149270" lon="-0.2796270">
        <ele>146.2</ele>
        <time>2020-11-14T10:35:43Z</time>
      </trkpt>
      <trkpt lat="38.9148880" lon="-0.2796980">
        <ele>146.2</ele>
        <time>2020-11-14T10:35:44Z</time>
      </trkpt>
      <trkpt lat="38.9148530" lon="-0.2797650">
        <ele>146.2</ele>
        <time>2020-11-14T10:35:45Z</time>
      </trkpt>
      <trkpt lat="38.9148090" lon="-0.2798280">
        <ele>146.2</ele>
        <time>2020-11-14T10:35:46Z</time>
      </trkpt>
      <trkpt lat="38.9147710" lon="-0.2798940">
        <ele>146.2</ele>
        <time>2020-11-14T10:35:47Z</time>
      </trkpt>
      <trkpt lat="38.9147300" lon="-0.2799700">
        <ele>146.2</ele>
        <time>2020-11-14T10:35:48Z</time>
      </trkpt>
      <trkpt lat="38.9146900" lon="-0.2800370">
        <ele>146.2</ele>
        <time>2020-11-14T10:35:49Z</time>
      </trkpt>
      <trkpt lat="38.9146550" lon="-0.2800980">
        <ele>146.2</ele>
        <time>2020-11-14T10:35:50Z</time>
      </trkpt>
      <trkpt lat="38.9146220" lon="-0.2801650">
        <ele>146.3</ele>
        <time>2020-11-14T10:35:51Z</time>
      </trkpt>
      <trkpt lat="38.9145750" lon="-0.2802350">
        <ele>146.3</ele>
        <time>2020-11-14T10:35:52Z</time>
      </trkpt>
      <trkpt lat="38.9145500" lon="-0.2803130">
        <ele>146.3</ele>
        <time>2020-11-14T10:35:53Z</time>
      </trkpt>
      <trkpt lat="38.9145230" lon="-0.2803770">
        <ele>146.3</ele>
        <time>2020-11-14T10:35:54Z</time>
      </trkpt>
      <trkpt lat="38.9144840" lon="-0.2804530">
        <ele>146.3</ele>
        <time>2020-11-14T10:35:55Z</time>
      </trkpt>
      <trkpt lat="38.9144430" lon="-0.2805220">
        <ele>146.4</ele>
        <time>2020-11-14T10:35:56Z</time>
      </trkpt>
      <trkpt lat="38.9144090" lon="-0.2805750">
        <ele>146.4</ele>
        <time>2020-11-14T10:35:57Z</time>
      </trkpt>
      <trkpt lat="38.9143740" lon="-0.2806390">
        <ele>146.5</ele>
        <time>2020-11-14T10:35:58Z</time>
      </trkpt>
      <trkpt lat="38.9143240" lon="-0.2807150">
        <ele>146.5</ele>
        <time>2020-11-14T10:35:59Z</time>
      </trkpt>
      <trkpt lat="38.9142960" lon="-0.2807760">
        <ele>146.6</ele>
        <time>2020-11-14T10:36:00Z</time>
      </trkpt>
      <trkpt lat="38.9142670" lon="-0.2808380">
        <ele>146.6</ele>
        <time>2020-11-14T10:36:01Z</time>
      </trkpt>
      <trkpt lat="38.9142420" lon="-0.2809160">
        <ele>146.7</ele>
        <time>2020-11-14T10:36:02Z</time>
      </trkpt>
      <trkpt lat="38.9142080" lon="-0.2809800">
        <ele>146.8</ele>
        <time>2020-11-14T10:36:03Z</time>
      </trkpt>
      <trkpt lat="38.9141620" lon="-0.2810430">
        <ele>146.8</ele>
        <time>2020-11-14T10:36:04Z</time>
      </trkpt>
      <trkpt lat="38.9141300" lon="-0.2811030">
        <ele>146.9</ele>
        <time>2020-11-14T10:36:05Z</time>
      </trkpt>
      <trkpt lat="38.9140910" lon="-0.2811720">
        <ele>146.9</ele>
        <time>2020-11-14T10:36:06Z</time>
      </trkpt>
      <trkpt lat="38.9140730" lon="-0.2812470">
        <ele>147.0</ele>
        <time>2020-11-14T10:36:07Z</time>
      </trkpt>
      <trkpt lat="38.9140470" lon="-0.2813130">
        <ele>147.0</ele>
        <time>2020-11-14T10:36:08Z</time>
      </trkpt>
      <trkpt lat="38.9140160" lon="-0.2813790">
        <ele>147.1</ele>
        <time>2020-11-14T10:36:09Z</time>
      </trkpt>
      <trkpt lat="38.9139760" lon="-0.2814450">
        <ele>147.1</ele>
        <time>2020-11-14T10:36:10Z</time>
      </trkpt>
      <trkpt lat="38.9139330" lon="-0.2815100">
        <ele>147.2</ele>
        <time>2020-11-14T10:36:11Z</time>
      </trkpt>
      <trkpt lat="38.9139110" lon="-0.2815820">
        <ele>147.2</ele>
        <time>2020-11-14T10:36:12Z</time>
      </trkpt>
      <trkpt lat="38.9138810" lon="-0.2816400">
        <ele>147.2</ele>
        <time>2020-11-14T10:36:13Z</time>
      </trkpt>
      <trkpt lat="38.9138540" lon="-0.2817050">
        <ele>147.3</ele>
        <time>2020-11-14T10:36:14Z</time>
      </trkpt>
      <trkpt lat="38.9138110" lon="-0.2817630">
        <ele>147.3</ele>
        <time>2020-11-14T10:36:15Z</time>
      </trkpt>
      <trkpt lat="38.9137870" lon="-0.2818280">
        <ele>147.4</ele>
        <time>2020-11-14T10:36:16Z</time>
      </trkpt>
      <trkpt lat="38.9137670" lon="-0.2818870">
        <ele>147.4</ele>
        <time>2020-11-14T10:36:17Z</time>
      </trkpt>
      <trkpt lat="38.9137360" lon="-0.2819460">
        <ele>147.4</ele>
        <time>2020-11-14T10:36:18Z</time>
      </trkpt>
      <trkpt lat="38.9137080" lon="-0.2820080">
        <ele>147.5</ele>
        <time>2020-11-14T10:36:19Z</time>
      </trkpt>
      <trkpt lat="38.9136820" lon="-0.2820650">
        <ele>147.5</ele>
        <time>2020-11-14T10:36:20Z</time>
      </trkpt>
      <trkpt lat="38.9136540" lon="-0.2821140">
        <ele>147.5</ele>
        <time>2020-11-14T10:36:21Z</time>
      </trkpt>
      <trkpt lat="38.9136330" lon="-0.2821710">
        <ele>147.6</ele>
        <time>2020-11-14T10:36:22Z</time>
      </trkpt>
      <trkpt lat="38.9136150" lon="-0.2822350">
        <ele>147.6</ele>
        <time>2020-11-14T10:36:23Z</time>
      </trkpt>
      <trkpt lat="38.9135940" lon="-0.2822980">
        <ele>147.7</ele>
        <time>2020-11-14T10:36:24Z</time>
      </trkpt>
      <trkpt lat="38.9135760" lon="-0.2823690">
        <ele>147.7</ele>
        <time>2020-11-14T10:36:25Z</time>
      </trkpt>
      <trkpt lat="38.9135670" lon="-0.2824370">
        <ele>147.8</ele>
        <time>2020-11-14T10:36:26Z</time>
      </trkpt>
      <trkpt lat="38.9135590" lon="-0.2825090">
        <ele>147.8</ele>
        <time>2020-11-14T10:36:27Z</time>
      </trkpt>
      <trkpt lat="38.9135450" lon="-0.2825780">
        <ele>147.9</ele>
        <time>2020-11-14T10:36:28Z</time>
      </trkpt>
      <trkpt lat="38.9135240" lon="-0.2826540">
        <ele>147.9</ele>
        <time>2020-11-14T10:36:29Z</time>
      </trkpt>
      <trkpt lat="38.9135070" lon="-0.2827310">
        <ele>148.0</ele>
        <time>2020-11-14T10:36:30Z</time>
      </trkpt>
      <trkpt lat="38.9134930" lon="-0.2827920">
        <ele>148.0</ele>
        <time>2020-11-14T10:36:31Z</time>
      </trkpt>
      <trkpt lat="38.9134870" lon="-0.2828740">
        <ele>148.0</ele>
        <time>2020-11-14T10:36:32Z</time>
      </trkpt>
      <trkpt lat="38.9134740" lon="-0.2829430">
        <ele>148.1</ele>
        <time>2020-11-14T10:36:33Z</time>
      </trkpt>
      <trkpt lat="38.9134640" lon="-0.2829890">
        <ele>148.2</ele>
        <time>2020-11-14T10:36:34Z</time>
      </trkpt>
      <trkpt lat="38.9134840" lon="-0.2830750">
        <ele>148.2</ele>
        <time>2020-11-14T10:36:35Z</time>
      </trkpt>
      <trkpt lat="38.9134720" lon="-0.2831390">
        <ele>148.3</ele>
        <time>2020-11-14T10:36:36Z</time>
      </trkpt>
      <trkpt lat="38.9134540" lon="-0.2832030">
        <ele>148.4</ele>
        <time>2020-11-14T10:36:37Z</time>
      </trkpt>
      <trkpt lat="38.9134460" lon="-0.2832730">
        <ele>148.4</ele>
        <time>2020-11-14T10:36:38Z</time>
      </trkpt>
      <trkpt lat="38.9134310" lon="-0.2833410">
        <ele>148.5</ele>
        <time>2020-11-14T10:36:39Z</time>
      </trkpt>
      <trkpt lat="38.9134130" lon="-0.2834050">
        <ele>148.5</ele>
        <time>2020-11-14T10:36:40Z</time>
      </trkpt>
      <trkpt lat="38.9134010" lon="-0.2834700">
        <ele>148.6</ele>
        <time>2020-11-14T10:36:41Z</time>
      </trkpt>
      <trkpt lat="38.9133900" lon="-0.2835370">
        <ele>148.6</ele>
        <time>2020-11-14T10:36:42Z</time>
      </trkpt>
      <trkpt lat="38.9133730" lon="-0.2835990">
        <ele>148.7</ele>
        <time>2020-11-14T10:36:43Z</time>
      </trkpt>
      <trkpt lat="38.9133580" lon="-0.2836620">
        <ele>148.7</ele>
        <time>2020-11-14T10:36:44Z</time>
      </trkpt>
      <trkpt lat="38.9133340" lon="-0.2837180">
        <ele>148.7</ele>
        <time>2020-11-14T10:36:45Z</time>
      </trkpt>
      <trkpt lat="38.9133180" lon="-0.2837820">
        <ele>148.8</ele>
        <time>2020-11-14T10:36:46Z</time>
      </trkpt>
      <trkpt lat="38.9133130" lon="-0.2838740">
        <ele>148.8</ele>
        <time>2020-11-14T10:36:47Z</time>
      </trkpt>
      <trkpt lat="38.9132930" lon="-0.2839340">
        <ele>148.8</ele>
        <time>2020-11-14T10:36:48Z</time>
      </trkpt>
      <trkpt lat="38.9132770" lon="-0.2839970">
        <ele>148.8</ele>
        <time>2020-11-14T10:36:49Z</time>
      </trkpt>
      <trkpt lat="38.9132590" lon="-0.2840610">
        <ele>148.9</ele>
        <time>2020-11-14T10:36:50Z</time>
      </trkpt>
      <trkpt lat="38.9132180" lon="-0.2841310">
        <ele>148.9</ele>
        <time>2020-11-14T10:36:51Z</time>
      </trkpt>
      <trkpt lat="38.9132100" lon="-0.2841960">
        <ele>149.0</ele>
        <time>2020-11-14T10:36:52Z</time>
      </trkpt>
      <trkpt lat="38.9132010" lon="-0.2842610">
        <ele>149.0</ele>
        <time>2020-11-14T10:36:53Z</time>
      </trkpt>
      <trkpt lat="38.9131900" lon="-0.2843260">
        <ele>149.1</ele>
        <time>2020-11-14T10:36:54Z</time>
      </trkpt>
      <trkpt lat="38.9131640" lon="-0.2843970">
        <ele>149.2</ele>
        <time>2020-11-14T10:36:55Z</time>
      </trkpt>
      <trkpt lat="38.9131480" lon="-0.2844630">
        <ele>149.2</ele>
        <time>2020-11-14T10:36:56Z</time>
      </trkpt>
      <trkpt lat="38.9131380" lon="-0.2845260">
        <ele>149.2</ele>
        <time>2020-11-14T10:36:57Z</time>
      </trkpt>
      <trkpt lat="38.9131180" lon="-0.2845940">
        <ele>149.3</ele>
        <time>2020-11-14T10:36:58Z</time>
      </trkpt>
      <trkpt lat="38.9131080" lon="-0.2846570">
        <ele>149.3</ele>
        <time>2020-11-14T10:36:59Z</time>
      </trkpt>
      <trkpt lat="38.9130920" lon="-0.2847210">
        <ele>149.3</ele>
        <time>2020-11-14T10:37:00Z</time>
      </trkpt>
      <trkpt lat="38.9130770" lon="-0.2847940">
        <ele>149.3</ele>
        <time>2020-11-14T10:37:01Z</time>
      </trkpt>
      <trkpt lat="38.9130540" lon="-0.2848670">
        <ele>149.3</ele>
        <time>2020-11-14T10:37:02Z</time>
      </trkpt>
      <trkpt lat="38.9130360" lon="-0.2849390">
        <ele>149.3</ele>
        <time>2020-11-14T10:37:03Z</time>
      </trkpt>
      <trkpt lat="38.9130190" lon="-0.2850060">
        <ele>149.3</ele>
        <time>2020-11-14T10:37:04Z</time>
      </trkpt>
      <trkpt lat="38.9130050" lon="-0.2850710">
        <ele>149.4</ele>
        <time>2020-11-14T10:37:05Z</time>
      </trkpt>
      <trkpt lat="38.9129880" lon="-0.2851350">
        <ele>149.4</ele>
        <time>2020-11-14T10:37:06Z</time>
      </trkpt>
      <trkpt lat="38.9129790" lon="-0.2852180">
        <ele>149.4</ele>
        <time>2020-11-14T10:37:07Z</time>
      </trkpt>
      <trkpt lat="38.9129620" lon="-0.2852790">
        <ele>149.4</ele>
        <time>2020-11-14T10:37:08Z</time>
      </trkpt>
      <trkpt lat="38.9129470" lon="-0.2853490">
        <ele>149.4</ele>
        <time>2020-11-14T10:37:09Z</time>
      </trkpt>
      <trkpt lat="38.9129370" lon="-0.2854170">
        <ele>149.4</ele>
        <time>2020-11-14T10:37:10Z</time>
      </trkpt>
      <trkpt lat="38.9129210" lon="-0.2854880">
        <ele>149.4</ele>
        <time>2020-11-14T10:37:11Z</time>
      </trkpt>
      <trkpt lat="38.9128970" lon="-0.2855590">
        <ele>149.3</ele>
        <time>2020-11-14T10:37:12Z</time>
      </trkpt>
      <trkpt lat="38.9128790" lon="-0.2856100">
        <ele>149.3</ele>
        <time>2020-11-14T10:37:13Z</time>
      </trkpt>
      <trkpt lat="38.9128560" lon="-0.2856680">
        <ele>149.2</ele>
        <time>2020-11-14T10:37:14Z</time>
      </trkpt>
      <trkpt lat="38.9128500" lon="-0.2857290">
        <ele>149.1</ele>
        <time>2020-11-14T10:37:15Z</time>
      </trkpt>
      <trkpt lat="38.9128280" lon="-0.2857930">
        <ele>149.0</ele>
        <time>2020-11-14T10:37:16Z</time>
      </trkpt>
      <trkpt lat="38.9128130" lon="-0.2858630">
        <ele>148.9</ele>
        <time>2020-11-14T10:37:17Z</time>
      </trkpt>
      <trkpt lat="38.9128120" lon="-0.2859310">
        <ele>148.7</ele>
        <time>2020-11-14T10:37:18Z</time>
      </trkpt>
      <trkpt lat="38.9127960" lon="-0.2859980">
        <ele>148.6</ele>
        <time>2020-11-14T10:37:19Z</time>
      </trkpt>
      <trkpt lat="38.9127840" lon="-0.2860530">
        <ele>148.5</ele>
        <time>2020-11-14T10:37:20Z</time>
      </trkpt>
      <trkpt lat="38.9127660" lon="-0.2861130">
        <ele>148.4</ele>
        <time>2020-11-14T10:37:21Z</time>
      </trkpt>
      <trkpt lat="38.9127480" lon="-0.2861810">
        <ele>148.3</ele>
        <time>2020-11-14T10:37:22Z</time>
      </trkpt>
      <trkpt lat="38.9127240" lon="-0.2862460">
        <ele>148.2</ele>
        <time>2020-11-14T10:37:23Z</time>
      </trkpt>
      <trkpt lat="38.9127180" lon="-0.2863270">
        <ele>148.0</ele>
        <time>2020-11-14T10:37:24Z</time>
      </trkpt>
      <trkpt lat="38.9126920" lon="-0.2863920">
        <ele>147.9</ele>
        <time>2020-11-14T10:37:25Z</time>
      </trkpt>
      <trkpt lat="38.9126730" lon="-0.2864590">
        <ele>147.8</ele>
        <time>2020-11-14T10:37:26Z</time>
      </trkpt>
      <trkpt lat="38.9126420" lon="-0.2865360">
        <ele>147.6</ele>
        <time>2020-11-14T10:37:27Z</time>
      </trkpt>
      <trkpt lat="38.9126250" lon="-0.2866030">
        <ele>147.5</ele>
        <time>2020-11-14T10:37:28Z</time>
      </trkpt>
      <trkpt lat="38.9125890" lon="-0.2866920">
        <ele>147.4</ele>
        <time>2020-11-14T10:37:29Z</time>
      </trkpt>
      <trkpt lat="38.9125660" lon="-0.2867670">
        <ele>147.3</ele>
        <time>2020-11-14T10:37:30Z</time>
      </trkpt>
      <trkpt lat="38.9125480" lon="-0.2868510">
        <ele>147.2</ele>
        <time>2020-11-14T10:37:31Z</time>
      </trkpt>
      <trkpt lat="38.9125010" lon="-0.2869310">
        <ele>147.2</ele>
        <time>2020-11-14T10:37:32Z</time>
      </trkpt>
      <trkpt lat="38.9124750" lon="-0.2870110">
        <ele>147.1</ele>
        <time>2020-11-14T10:37:33Z</time>
      </trkpt>
      <trkpt lat="38.9124570" lon="-0.2870790">
        <ele>147.1</ele>
        <time>2020-11-14T10:37:34Z</time>
      </trkpt>
      <trkpt lat="38.9124220" lon="-0.2871570">
        <ele>147.2</ele>
        <time>2020-11-14T10:37:35Z</time>
      </trkpt>
      <trkpt lat="38.9124080" lon="-0.2872230">
        <ele>147.2</ele>
        <time>2020-11-14T10:37:36Z</time>
      </trkpt>
      <trkpt lat="38.9123930" lon="-0.2872880">
        <ele>147.3</ele>
        <time>2020-11-14T10:37:37Z</time>
      </trkpt>
      <trkpt lat="38.9123900" lon="-0.2873680">
        <ele>147.3</ele>
        <time>2020-11-14T10:37:38Z</time>
      </trkpt>
      <trkpt lat="38.9123760" lon="-0.2874350">
        <ele>147.3</ele>
        <time>2020-11-14T10:37:39Z</time>
      </trkpt>
      <trkpt lat="38.9123610" lon="-0.2875010">
        <ele>147.4</ele>
        <time>2020-11-14T10:37:40Z</time>
      </trkpt>
      <trkpt lat="38.9123370" lon="-0.2875800">
        <ele>147.4</ele>
        <time>2020-11-14T10:37:41Z</time>
      </trkpt>
      <trkpt lat="38.9123190" lon="-0.2876480">
        <ele>147.5</ele>
        <time>2020-11-14T10:37:42Z</time>
      </trkpt>
      <trkpt lat="38.9123060" lon="-0.2877150">
        <ele>147.6</ele>
        <time>2020-11-14T10:37:43Z</time>
      </trkpt>
      <trkpt lat="38.9122950" lon="-0.2877800">
        <ele>147.6</ele>
        <time>2020-11-14T10:37:44Z</time>
      </trkpt>
      <trkpt lat="38.9122840" lon="-0.2878550">
        <ele>147.7</ele>
        <time>2020-11-14T10:37:45Z</time>
      </trkpt>
      <trkpt lat="38.9122680" lon="-0.2879230">
        <ele>147.8</ele>
        <time>2020-11-14T10:37:46Z</time>
      </trkpt>
      <trkpt lat="38.9122460" lon="-0.2879920">
        <ele>147.9</ele>
        <time>2020-11-14T10:37:47Z</time>
      </trkpt>
      <trkpt lat="38.9122250" lon="-0.2880560">
        <ele>148.1</ele>
        <time>2020-11-14T10:37:48Z</time>
      </trkpt>
      <trkpt lat="38.9122300" lon="-0.2881210">
        <ele>148.2</ele>
        <time>2020-11-14T10:37:49Z</time>
      </trkpt>
      <trkpt lat="38.9122110" lon="-0.2881800">
        <ele>148.3</ele>
        <time>2020-11-14T10:37:50Z</time>
      </trkpt>
      <trkpt lat="38.9121930" lon="-0.2882430">
        <ele>148.4</ele>
        <time>2020-11-14T10:37:51Z</time>
      </trkpt>
      <trkpt lat="38.9121760" lon="-0.2883020">
        <ele>148.5</ele>
        <time>2020-11-14T10:37:52Z</time>
      </trkpt>
      <trkpt lat="38.9121590" lon="-0.2883630">
        <ele>148.7</ele>
        <time>2020-11-14T10:37:53Z</time>
      </trkpt>
      <trkpt lat="38.9121470" lon="-0.2884270">
        <ele>148.8</ele>
        <time>2020-11-14T10:37:54Z</time>
      </trkpt>
      <trkpt lat="38.9121280" lon="-0.2884920">
        <ele>148.9</ele>
        <time>2020-11-14T10:37:55Z</time>
      </trkpt>
      <trkpt lat="38.9121160" lon="-0.2885360">
        <ele>149.0</ele>
        <time>2020-11-14T10:37:56Z</time>
      </trkpt>
      <trkpt lat="38.9121080" lon="-0.2885980">
        <ele>149.1</ele>
        <time>2020-11-14T10:37:57Z</time>
      </trkpt>
      <trkpt lat="38.9121060" lon="-0.2886590">
        <ele>149.2</ele>
        <time>2020-11-14T10:37:58Z</time>
      </trkpt>
      <trkpt lat="38.9120740" lon="-0.2887160">
        <ele>149.4</ele>
        <time>2020-11-14T10:37:59Z</time>
      </trkpt>
      <trkpt lat="38.9120740" lon="-0.2887730">
        <ele>149.5</ele>
        <time>2020-11-14T10:38:00Z</time>
      </trkpt>
      <trkpt lat="38.9120550" lon="-0.2888210">
        <ele>149.6</ele>
        <time>2020-11-14T10:38:01Z</time>
      </trkpt>
      <trkpt lat="38.9120430" lon="-0.2888700">
        <ele>149.7</ele>
        <time>2020-11-14T10:38:02Z</time>
      </trkpt>
      <trkpt lat="38.9120250" lon="-0.2889310">
        <ele>149.8</ele>
        <time>2020-11-14T10:38:03Z</time>
      </trkpt>
      <trkpt lat="38.9120110" lon="-0.2889790">
        <ele>149.9</ele>
        <time>2020-11-14T10:38:04Z</time>
      </trkpt>
      <trkpt lat="38.9119990" lon="-0.2890460">
        <ele>150.1</ele>
        <time>2020-11-14T10:38:05Z</time>
      </trkpt>
      <trkpt lat="38.9119800" lon="-0.2891090">
        <ele>150.2</ele>
        <time>2020-11-14T10:38:06Z</time>
      </trkpt>
      <trkpt lat="38.9119820" lon="-0.2891620">
        <ele>150.3</ele>
        <time>2020-11-14T10:38:07Z</time>
      </trkpt>
      <trkpt lat="38.9119540" lon="-0.2892160">
        <ele>150.5</ele>
        <time>2020-11-14T10:38:08Z</time>
      </trkpt>
      <trkpt lat="38.9119240" lon="-0.2892610">
        <ele>150.6</ele>
        <time>2020-11-14T10:38:09Z</time>
      </trkpt>
      <trkpt lat="38.9119100" lon="-0.2893120">
        <ele>150.8</ele>
        <time>2020-11-14T10:38:10Z</time>
      </trkpt>
      <trkpt lat="38.9119170" lon="-0.2893560">
        <ele>150.9</ele>
        <time>2020-11-14T10:38:11Z</time>
      </trkpt>
      <trkpt lat="38.9119020" lon="-0.2893960">
        <ele>151.0</ele>
        <time>2020-11-14T10:38:12Z</time>
      </trkpt>
      <trkpt lat="38.9118830" lon="-0.2894470">
        <ele>151.2</ele>
        <time>2020-11-14T10:38:13Z</time>
      </trkpt>
      <trkpt lat="38.9118750" lon="-0.2894910">
        <ele>151.3</ele>
        <time>2020-11-14T10:38:14Z</time>
      </trkpt>
      <trkpt lat="38.9118720" lon="-0.2895340">
        <ele>151.5</ele>
        <time>2020-11-14T10:38:15Z</time>
      </trkpt>
      <trkpt lat="38.9118650" lon="-0.2895720">
        <ele>151.6</ele>
        <time>2020-11-14T10:38:16Z</time>
      </trkpt>
      <trkpt lat="38.9118570" lon="-0.2896060">
        <ele>151.7</ele>
        <time>2020-11-14T10:38:17Z</time>
      </trkpt>
      <trkpt lat="38.9118370" lon="-0.2896410">
        <ele>151.8</ele>
        <time>2020-11-14T10:38:18Z</time>
      </trkpt>
      <trkpt lat="38.9118200" lon="-0.2896780">
        <ele>151.8</ele>
        <time>2020-11-14T10:38:19Z</time>
      </trkpt>
      <trkpt lat="38.9118030" lon="-0.2897170">
        <ele>151.8</ele>
        <time>2020-11-14T10:38:20Z</time>
      </trkpt>
      <trkpt lat="38.9117900" lon="-0.2897560">
        <ele>151.9</ele>
        <time>2020-11-14T10:38:21Z</time>
      </trkpt>
      <trkpt lat="38.9117800" lon="-0.2897930">
        <ele>151.9</ele>
        <time>2020-11-14T10:38:22Z</time>
      </trkpt>
      <trkpt lat="38.9117730" lon="-0.2898340">
        <ele>151.9</ele>
        <time>2020-11-14T10:38:23Z</time>
      </trkpt>
      <trkpt lat="38.9117690" lon="-0.2898760">
        <ele>151.9</ele>
        <time>2020-11-14T10:38:24Z</time>
      </trkpt>
      <trkpt lat="38.9117630" lon="-0.2899180">
        <ele>152.0</ele>
        <time>2020-11-14T10:38:25Z</time>
      </trkpt>
      <trkpt lat="38.9117590" lon="-0.2899600">
        <ele>152.0</ele>
        <time>2020-11-14T10:38:26Z</time>
      </trkpt>
      <trkpt lat="38.9117590" lon="-0.2900030">
        <ele>152.1</ele>
        <time>2020-11-14T10:38:27Z</time>
      </trkpt>
      <trkpt lat="38.9117580" lon="-0.2900500">
        <ele>152.1</ele>
        <time>2020-11-14T10:38:28Z</time>
      </trkpt>
      <trkpt lat="38.9117530" lon="-0.2901020">
        <ele>152.2</ele>
        <time>2020-11-14T10:38:29Z</time>
      </trkpt>
      <trkpt lat="38.9117420" lon="-0.2901540">
        <ele>152.2</ele>
        <time>2020-11-14T10:38:30Z</time>
      </trkpt>
      <trkpt lat="38.9117260" lon="-0.2902030">
        <ele>152.3</ele>
        <time>2020-11-14T10:38:31Z</time>
      </trkpt>
      <trkpt lat="38.9117040" lon="-0.2902510">
        <ele>152.3</ele>
        <time>2020-11-14T10:38:32Z</time>
      </trkpt>
      <trkpt lat="38.9116740" lon="-0.2902960">
        <ele>152.3</ele>
        <time>2020-11-14T10:38:33Z</time>
      </trkpt>
      <trkpt lat="38.9116520" lon="-0.2903470">
        <ele>152.3</ele>
        <time>2020-11-14T10:38:34Z</time>
      </trkpt>
      <trkpt lat="38.9116330" lon="-0.2904060">
        <ele>152.3</ele>
        <time>2020-11-14T10:38:35Z</time>
      </trkpt>
      <trkpt lat="38.9116260" lon="-0.2904550">
        <ele>152.3</ele>
        <time>2020-11-14T10:38:36Z</time>
      </trkpt>
      <trkpt lat="38.9116230" lon="-0.2905090">
        <ele>152.3</ele>
        <time>2020-11-14T10:38:37Z</time>
      </trkpt>
      <trkpt lat="38.9116170" lon="-0.2905660">
        <ele>152.2</ele>
        <time>2020-11-14T10:38:38Z</time>
      </trkpt>
      <trkpt lat="38.9116190" lon="-0.2906260">
        <ele>152.2</ele>
        <time>2020-11-14T10:38:39Z</time>
      </trkpt>
      <trkpt lat="38.9116130" lon="-0.2906820">
        <ele>152.2</ele>
        <time>2020-11-14T10:38:40Z</time>
      </trkpt>
      <trkpt lat="38.9116220" lon="-0.2907420">
        <ele>152.2</ele>
        <time>2020-11-14T10:38:41Z</time>
      </trkpt>
      <trkpt lat="38.9116270" lon="-0.2908020">
        <ele>152.2</ele>
        <time>2020-11-14T10:38:42Z</time>
      </trkpt>
      <trkpt lat="38.9116320" lon="-0.2908620">
        <ele>152.2</ele>
        <time>2020-11-14T10:38:43Z</time>
      </trkpt>
      <trkpt lat="38.9116410" lon="-0.2909300">
        <ele>152.2</ele>
        <time>2020-11-14T10:38:44Z</time>
      </trkpt>
      <trkpt lat="38.9116520" lon="-0.2909980">
        <ele>152.2</ele>
        <time>2020-11-14T10:38:45Z</time>
      </trkpt>
      <trkpt lat="38.9116580" lon="-0.2910620">
        <ele>152.2</ele>
        <time>2020-11-14T10:38:46Z</time>
      </trkpt>
      <trkpt lat="38.9116640" lon="-0.2911300">
        <ele>152.2</ele>
        <time>2020-11-14T10:38:47Z</time>
      </trkpt>
      <trkpt lat="38.9116650" lon="-0.2911930">
        <ele>152.2</ele>
        <time>2020-11-14T10:38:48Z</time>
      </trkpt>
      <trkpt lat="38.9116640" lon="-0.2912570">
        <ele>152.3</ele>
        <time>2020-11-14T10:38:49Z</time>
      </trkpt>
      <trkpt lat="38.9116640" lon="-0.2913230">
        <ele>152.3</ele>
        <time>2020-11-14T10:38:50Z</time>
      </trkpt>
      <trkpt lat="38.9116710" lon="-0.2913880">
        <ele>152.3</ele>
        <time>2020-11-14T10:38:51Z</time>
      </trkpt>
      <trkpt lat="38.9116770" lon="-0.2914570">
        <ele>152.3</ele>
        <time>2020-11-14T10:38:52Z</time>
      </trkpt>
      <trkpt lat="38.9116880" lon="-0.2915250">
        <ele>152.4</ele>
        <time>2020-11-14T10:38:53Z</time>
      </trkpt>
      <trkpt lat="38.9116850" lon="-0.2915900">
        <ele>152.4</ele>
        <time>2020-11-14T10:38:54Z</time>
      </trkpt>
      <trkpt lat="38.9116950" lon="-0.2916660">
        <ele>152.5</ele>
        <time>2020-11-14T10:38:55Z</time>
      </trkpt>
      <trkpt lat="38.9117030" lon="-0.2917320">
        <ele>152.5</ele>
        <time>2020-11-14T10:38:56Z</time>
      </trkpt>
      <trkpt lat="38.9117030" lon="-0.2918030">
        <ele>152.6</ele>
        <time>2020-11-14T10:38:57Z</time>
      </trkpt>
      <trkpt lat="38.9117170" lon="-0.2918740">
        <ele>152.7</ele>
        <time>2020-11-14T10:38:58Z</time>
      </trkpt>
      <trkpt lat="38.9117280" lon="-0.2919450">
        <ele>152.8</ele>
        <time>2020-11-14T10:38:59Z</time>
      </trkpt>
      <trkpt lat="38.9117400" lon="-0.2920120">
        <ele>153.0</ele>
        <time>2020-11-14T10:39:00Z</time>
      </trkpt>
      <trkpt lat="38.9117400" lon="-0.2920800">
        <ele>153.1</ele>
        <time>2020-11-14T10:39:01Z</time>
      </trkpt>
      <trkpt lat="38.9117420" lon="-0.2921380">
        <ele>153.3</ele>
        <time>2020-11-14T10:39:02Z</time>
      </trkpt>
      <trkpt lat="38.9117530" lon="-0.2922010">
        <ele>153.5</ele>
        <time>2020-11-14T10:39:03Z</time>
      </trkpt>
      <trkpt lat="38.9117590" lon="-0.2922600">
        <ele>153.7</ele>
        <time>2020-11-14T10:39:04Z</time>
      </trkpt>
      <trkpt lat="38.9117560" lon="-0.2923150">
        <ele>153.9</ele>
        <time>2020-11-14T10:39:05Z</time>
      </trkpt>
      <trkpt lat="38.9117550" lon="-0.2923690">
        <ele>154.1</ele>
        <time>2020-11-14T10:39:06Z</time>
      </trkpt>
      <trkpt lat="38.9117610" lon="-0.2924240">
        <ele>154.3</ele>
        <time>2020-11-14T10:39:07Z</time>
      </trkpt>
      <trkpt lat="38.9117620" lon="-0.2924770">
        <ele>154.5</ele>
        <time>2020-11-14T10:39:08Z</time>
      </trkpt>
      <trkpt lat="38.9117640" lon="-0.2925300">
        <ele>154.6</ele>
        <time>2020-11-14T10:39:09Z</time>
      </trkpt>
      <trkpt lat="38.9117780" lon="-0.2925680">
        <ele>154.8</ele>
        <time>2020-11-14T10:39:10Z</time>
      </trkpt>
      <trkpt lat="38.9118040" lon="-0.2926120">
        <ele>155.0</ele>
        <time>2020-11-14T10:39:11Z</time>
      </trkpt>
      <trkpt lat="38.9118160" lon="-0.2926610">
        <ele>155.2</ele>
        <time>2020-11-14T10:39:12Z</time>
      </trkpt>
      <trkpt lat="38.9118190" lon="-0.2927050">
        <ele>155.4</ele>
        <time>2020-11-14T10:39:13Z</time>
      </trkpt>
      <trkpt lat="38.9118350" lon="-0.2927440">
        <ele>155.6</ele>
        <time>2020-11-14T10:39:14Z</time>
      </trkpt>
      <trkpt lat="38.9118410" lon="-0.2927900">
        <ele>155.8</ele>
        <time>2020-11-14T10:39:15Z</time>
      </trkpt>
      <trkpt lat="38.9118490" lon="-0.2928320">
        <ele>156.0</ele>
        <time>2020-11-14T10:39:16Z</time>
      </trkpt>
      <trkpt lat="38.9118540" lon="-0.2928800">
        <ele>156.3</ele>
        <time>2020-11-14T10:39:17Z</time>
      </trkpt>
      <trkpt lat="38.9118580" lon="-0.2929250">
        <ele>156.5</ele>
        <time>2020-11-14T10:39:18Z</time>
      </trkpt>
      <trkpt lat="38.9118600" lon="-0.2929670">
        <ele>156.7</ele>
        <time>2020-11-14T10:39:19Z</time>
      </trkpt>
      <trkpt lat="38.9118600" lon="-0.2930070">
        <ele>156.9</ele>
        <time>2020-11-14T10:39:20Z</time>
      </trkpt>
      <trkpt lat="38.9118570" lon="-0.2930490">
        <ele>157.2</ele>
        <time>2020-11-14T10:39:21Z</time>
      </trkpt>
      <trkpt lat="38.9118520" lon="-0.2930930">
        <ele>157.5</ele>
        <time>2020-11-14T10:39:22Z</time>
      </trkpt>
      <trkpt lat="38.9118500" lon="-0.2931370">
        <ele>157.7</ele>
        <time>2020-11-14T10:39:23Z</time>
      </trkpt>
      <trkpt lat="38.9118510" lon="-0.2931810">
        <ele>158.0</ele>
        <time>2020-11-14T10:39:24Z</time>
      </trkpt>
      <trkpt lat="38.9118520" lon="-0.2932220">
        <ele>158.2</ele>
        <time>2020-11-14T10:39:25Z</time>
      </trkpt>
      <trkpt lat="38.9118540" lon="-0.2932610">
        <ele>158.5</ele>
        <time>2020-11-14T10:39:26Z</time>
      </trkpt>
      <trkpt lat="38.9118560" lon="-0.2932980">
        <ele>158.6</ele>
        <time>2020-11-14T10:39:27Z</time>
      </trkpt>
      <trkpt lat="38.9118580" lon="-0.2933340">
        <ele>158.7</ele>
        <time>2020-11-14T10:39:28Z</time>
      </trkpt>
      <trkpt lat="38.9118570" lon="-0.2933690">
        <ele>158.8</ele>
        <time>2020-11-14T10:39:29Z</time>
      </trkpt>
      <trkpt lat="38.9118570" lon="-0.2934210">
        <ele>159.0</ele>
        <time>2020-11-14T10:39:30Z</time>
      </trkpt>
      <trkpt lat="38.9118580" lon="-0.2934380">
        <ele>159.1</ele>
        <time>2020-11-14T10:39:31Z</time>
      </trkpt>
      <trkpt lat="38.9118680" lon="-0.2934860">
        <ele>159.3</ele>
        <time>2020-11-14T10:39:32Z</time>
      </trkpt>
      <trkpt lat="38.9118720" lon="-0.2935020">
        <ele>159.3</ele>
        <time>2020-11-14T10:39:33Z</time>
      </trkpt>
      <trkpt lat="38.9118840" lon="-0.2935360">
        <ele>159.4</ele>
        <time>2020-11-14T10:39:34Z</time>
      </trkpt>
      <trkpt lat="38.9118990" lon="-0.2935680">
        <ele>159.5</ele>
        <time>2020-11-14T10:39:35Z</time>
      </trkpt>
      <trkpt lat="38.9119170" lon="-0.2936000">
        <ele>159.6</ele>
        <time>2020-11-14T10:39:36Z</time>
      </trkpt>
      <trkpt lat="38.9119410" lon="-0.2936330">
        <ele>159.6</ele>
        <time>2020-11-14T10:39:37Z</time>
      </trkpt>
      <trkpt lat="38.9119690" lon="-0.2936650">
        <ele>159.7</ele>
        <time>2020-11-14T10:39:38Z</time>
      </trkpt>
      <trkpt lat="38.9120020" lon="-0.2936990">
        <ele>159.7</ele>
        <time>2020-11-14T10:39:39Z</time>
      </trkpt>
      <trkpt lat="38.9120380" lon="-0.2937310">
        <ele>159.9</ele>
        <time>2020-11-14T10:39:40Z</time>
      </trkpt>
      <trkpt lat="38.9120700" lon="-0.2937650">
        <ele>160.0</ele>
        <time>2020-11-14T10:39:41Z</time>
      </trkpt>
      <trkpt lat="38.9120990" lon="-0.2938030">
        <ele>160.1</ele>
        <time>2020-11-14T10:39:42Z</time>
      </trkpt>
      <trkpt lat="38.9121210" lon="-0.2938450">
        <ele>160.2</ele>
        <time>2020-11-14T10:39:43Z</time>
      </trkpt>
      <trkpt lat="38.9121360" lon="-0.2938900">
        <ele>160.3</ele>
        <time>2020-11-14T10:39:44Z</time>
      </trkpt>
      <trkpt lat="38.9121440" lon="-0.2939370">
        <ele>160.4</ele>
        <time>2020-11-14T10:39:45Z</time>
      </trkpt>
      <trkpt lat="38.9121450" lon="-0.2939860">
        <ele>160.5</ele>
        <time>2020-11-14T10:39:46Z</time>
      </trkpt>
      <trkpt lat="38.9121390" lon="-0.2940330">
        <ele>160.6</ele>
        <time>2020-11-14T10:39:47Z</time>
      </trkpt>
      <trkpt lat="38.9121270" lon="-0.2940770">
        <ele>160.7</ele>
        <time>2020-11-14T10:39:48Z</time>
      </trkpt>
      <trkpt lat="38.9121030" lon="-0.2941190">
        <ele>160.9</ele>
        <time>2020-11-14T10:39:49Z</time>
      </trkpt>
      <trkpt lat="38.9120760" lon="-0.2941530">
        <ele>161.0</ele>
        <time>2020-11-14T10:39:50Z</time>
      </trkpt>
      <trkpt lat="38.9120460" lon="-0.2941860">
        <ele>161.2</ele>
        <time>2020-11-14T10:39:51Z</time>
      </trkpt>
      <trkpt lat="38.9120170" lon="-0.2942180">
        <ele>161.4</ele>
        <time>2020-11-14T10:39:52Z</time>
      </trkpt>
      <trkpt lat="38.9119900" lon="-0.2942550">
        <ele>161.5</ele>
        <time>2020-11-14T10:39:53Z</time>
      </trkpt>
      <trkpt lat="38.9119670" lon="-0.2942920">
        <ele>161.7</ele>
        <time>2020-11-14T10:39:54Z</time>
      </trkpt>
      <trkpt lat="38.9119470" lon="-0.2943320">
        <ele>161.8</ele>
        <time>2020-11-14T10:39:55Z</time>
      </trkpt>
      <trkpt lat="38.9119310" lon="-0.2943770">
        <ele>162.0</ele>
        <time>2020-11-14T10:39:56Z</time>
      </trkpt>
      <trkpt lat="38.9119190" lon="-0.2944240">
        <ele>162.1</ele>
        <time>2020-11-14T10:39:57Z</time>
      </trkpt>
      <trkpt lat="38.9119110" lon="-0.2944720">
        <ele>162.3</ele>
        <time>2020-11-14T10:39:58Z</time>
      </trkpt>
      <trkpt lat="38.9119090" lon="-0.2945210">
        <ele>162.5</ele>
        <time>2020-11-14T10:39:59Z</time>
      </trkpt>
      <trkpt lat="38.9119110" lon="-0.2945710">
        <ele>162.7</ele>
        <time>2020-11-14T10:40:00Z</time>
      </trkpt>
      <trkpt lat="38.9119160" lon="-0.2946200">
        <ele>162.8</ele>
        <time>2020-11-14T10:40:01Z</time>
      </trkpt>
      <trkpt lat="38.9119200" lon="-0.2946670">
        <ele>163.0</ele>
        <time>2020-11-14T10:40:02Z</time>
      </trkpt>
      <trkpt lat="38.9119240" lon="-0.2947140">
        <ele>163.1</ele>
        <time>2020-11-14T10:40:03Z</time>
      </trkpt>
      <trkpt lat="38.9119280" lon="-0.2947570">
        <ele>163.3</ele>
        <time>2020-11-14T10:40:04Z</time>
      </trkpt>
      <trkpt lat="38.9119330" lon="-0.2947990">
        <ele>163.4</ele>
        <time>2020-11-14T10:40:05Z</time>
      </trkpt>
      <trkpt lat="38.9119330" lon="-0.2948430">
        <ele>163.6</ele>
        <time>2020-11-14T10:40:06Z</time>
      </trkpt>
      <trkpt lat="38.9119320" lon="-0.2948850">
        <ele>163.7</ele>
        <time>2020-11-14T10:40:07Z</time>
      </trkpt>
      <trkpt lat="38.9119310" lon="-0.2949260">
        <ele>163.8</ele>
        <time>2020-11-14T10:40:08Z</time>
      </trkpt>
      <trkpt lat="38.9119310" lon="-0.2949650">
        <ele>163.9</ele>
        <time>2020-11-14T10:40:09Z</time>
      </trkpt>
      <trkpt lat="38.9119310" lon="-0.2950040">
        <ele>164.1</ele>
        <time>2020-11-14T10:40:10Z</time>
      </trkpt>
      <trkpt lat="38.9119290" lon="-0.2950430">
        <ele>164.2</ele>
        <time>2020-11-14T10:40:11Z</time>
      </trkpt>
      <trkpt lat="38.9119250" lon="-0.2950830">
        <ele>164.4</ele>
        <time>2020-11-14T10:40:12Z</time>
      </trkpt>
      <trkpt lat="38.9119200" lon="-0.2951220">
        <ele>164.5</ele>
        <time>2020-11-14T10:40:13Z</time>
      </trkpt>
      <trkpt lat="38.9119140" lon="-0.2951620">
        <ele>164.6</ele>
        <time>2020-11-14T10:40:14Z</time>
      </trkpt>
      <trkpt lat="38.9119100" lon="-0.2952010">
        <ele>164.8</ele>
        <time>2020-11-14T10:40:15Z</time>
      </trkpt>
      <trkpt lat="38.9119060" lon="-0.2952390">
        <ele>165.0</ele>
        <time>2020-11-14T10:40:16Z</time>
      </trkpt>
      <trkpt lat="38.9119040" lon="-0.2952780">
        <ele>165.1</ele>
        <time>2020-11-14T10:40:17Z</time>
      </trkpt>
      <trkpt lat="38.9119010" lon="-0.2953140">
        <ele>165.3</ele>
        <time>2020-11-14T10:40:18Z</time>
      </trkpt>
      <trkpt lat="38.9119000" lon="-0.2953510">
        <ele>165.4</ele>
        <time>2020-11-14T10:40:19Z</time>
      </trkpt>
      <trkpt lat="38.9118980" lon="-0.2953880">
        <ele>165.6</ele>
        <time>2020-11-14T10:40:20Z</time>
      </trkpt>
      <trkpt lat="38.9118970" lon="-0.2954280">
        <ele>165.8</ele>
        <time>2020-11-14T10:40:21Z</time>
      </trkpt>
      <trkpt lat="38.9118950" lon="-0.2954690">
        <ele>166.0</ele>
        <time>2020-11-14T10:40:22Z</time>
      </trkpt>
      <trkpt lat="38.9118930" lon="-0.2955060">
        <ele>166.1</ele>
        <time>2020-11-14T10:40:23Z</time>
      </trkpt>
      <trkpt lat="38.9118920" lon="-0.2955410">
        <ele>166.3</ele>
        <time>2020-11-14T10:40:24Z</time>
      </trkpt>
      <trkpt lat="38.9118860" lon="-0.2955830">
        <ele>166.5</ele>
        <time>2020-11-14T10:40:25Z</time>
      </trkpt>
      <trkpt lat="38.9118790" lon="-0.2956230">
        <ele>166.7</ele>
        <time>2020-11-14T10:40:26Z</time>
      </trkpt>
      <trkpt lat="38.9118720" lon="-0.2956590">
        <ele>166.8</ele>
        <time>2020-11-14T10:40:27Z</time>
      </trkpt>
      <trkpt lat="38.9118630" lon="-0.2956960">
        <ele>167.0</ele>
        <time>2020-11-14T10:40:28Z</time>
      </trkpt>
      <trkpt lat="38.9118550" lon="-0.2957310">
        <ele>167.1</ele>
        <time>2020-11-14T10:40:29Z</time>
      </trkpt>
      <trkpt lat="38.9118460" lon="-0.2957670">
        <ele>167.3</ele>
        <time>2020-11-14T10:40:30Z</time>
      </trkpt>
      <trkpt lat="38.9118340" lon="-0.2958050">
        <ele>167.5</ele>
        <time>2020-11-14T10:40:31Z</time>
      </trkpt>
      <trkpt lat="38.9118220" lon="-0.2958420">
        <ele>167.6</ele>
        <time>2020-11-14T10:40:32Z</time>
      </trkpt>
      <trkpt lat="38.9118130" lon="-0.2958780">
        <ele>167.8</ele>
        <time>2020-11-14T10:40:33Z</time>
      </trkpt>
      <trkpt lat="38.9118070" lon="-0.2959150">
        <ele>167.9</ele>
        <time>2020-11-14T10:40:34Z</time>
      </trkpt>
      <trkpt lat="38.9118030" lon="-0.2959540">
        <ele>168.1</ele>
        <time>2020-11-14T10:40:35Z</time>
      </trkpt>
      <trkpt lat="38.9117950" lon="-0.2959950">
        <ele>168.3</ele>
        <time>2020-11-14T10:40:36Z</time>
      </trkpt>
      <trkpt lat="38.9117840" lon="-0.2960350">
        <ele>168.4</ele>
        <time>2020-11-14T10:40:37Z</time>
      </trkpt>
      <trkpt lat="38.9117730" lon="-0.2960720">
        <ele>168.6</ele>
        <time>2020-11-14T10:40:38Z</time>
      </trkpt>
      <trkpt lat="38.9117610" lon="-0.2961060">
        <ele>168.7</ele>
        <time>2020-11-14T10:40:39Z</time>
      </trkpt>
      <trkpt lat="38.9117500" lon="-0.2961430">
        <ele>168.9</ele>
        <time>2020-11-14T10:40:40Z</time>
      </trkpt>
      <trkpt lat="38.9117390" lon="-0.2961810">
        <ele>169.1</ele>
        <time>2020-11-14T10:40:41Z</time>
      </trkpt>
      <trkpt lat="38.9117320" lon="-0.2962160">
        <ele>169.2</ele>
        <time>2020-11-14T10:40:42Z</time>
      </trkpt>
      <trkpt lat="38.9117240" lon="-0.2962540">
        <ele>169.3</ele>
        <time>2020-11-14T10:40:43Z</time>
      </trkpt>
      <trkpt lat="38.9117170" lon="-0.2962920">
        <ele>169.5</ele>
        <time>2020-11-14T10:40:44Z</time>
      </trkpt>
      <trkpt lat="38.9117100" lon="-0.2963280">
        <ele>169.6</ele>
        <time>2020-11-14T10:40:45Z</time>
      </trkpt>
      <trkpt lat="38.9117010" lon="-0.2963620">
        <ele>169.8</ele>
        <time>2020-11-14T10:40:46Z</time>
      </trkpt>
      <trkpt lat="38.9116880" lon="-0.2964110">
        <ele>170.0</ele>
        <time>2020-11-14T10:40:47Z</time>
      </trkpt>
      <trkpt lat="38.9116830" lon="-0.2964270">
        <ele>170.1</ele>
        <time>2020-11-14T10:40:48Z</time>
      </trkpt>
      <trkpt lat="38.9116750" lon="-0.2964630">
        <ele>170.2</ele>
        <time>2020-11-14T10:40:49Z</time>
      </trkpt>
      <trkpt lat="38.9116690" lon="-0.2965000">
        <ele>170.4</ele>
        <time>2020-11-14T10:40:50Z</time>
      </trkpt>
      <trkpt lat="38.9116630" lon="-0.2965360">
        <ele>170.6</ele>
        <time>2020-11-14T10:40:51Z</time>
      </trkpt>
      <trkpt lat="38.9116550" lon="-0.2965750">
        <ele>170.7</ele>
        <time>2020-11-14T10:40:52Z</time>
      </trkpt>
      <trkpt lat="38.9116470" lon="-0.2966140">
        <ele>170.9</ele>
        <time>2020-11-14T10:40:53Z</time>
      </trkpt>
      <trkpt lat="38.9116370" lon="-0.2966510">
        <ele>171.1</ele>
        <time>2020-11-14T10:40:54Z</time>
      </trkpt>
      <trkpt lat="38.9116270" lon="-0.2966890">
        <ele>171.2</ele>
        <time>2020-11-14T10:40:55Z</time>
      </trkpt>
      <trkpt lat="38.9116170" lon="-0.2967260">
        <ele>171.4</ele>
        <time>2020-11-14T10:40:56Z</time>
      </trkpt>
      <trkpt lat="38.9116010" lon="-0.2967640">
        <ele>171.6</ele>
        <time>2020-11-14T10:40:57Z</time>
      </trkpt>
      <trkpt lat="38.9115870" lon="-0.2968020">
        <ele>171.8</ele>
        <time>2020-11-14T10:40:58Z</time>
      </trkpt>
      <trkpt lat="38.9115750" lon="-0.2968360">
        <ele>171.9</ele>
        <time>2020-11-14T10:40:59Z</time>
      </trkpt>
      <trkpt lat="38.9115650" lon="-0.2968710">
        <ele>172.1</ele>
        <time>2020-11-14T10:41:00Z</time>
      </trkpt>
      <trkpt lat="38.9115540" lon="-0.2969080">
        <ele>172.3</ele>
        <time>2020-11-14T10:41:01Z</time>
      </trkpt>
      <trkpt lat="38.9115420" lon="-0.2969460">
        <ele>172.4</ele>
        <time>2020-11-14T10:41:02Z</time>
      </trkpt>
      <trkpt lat="38.9115300" lon="-0.2969840">
        <ele>172.6</ele>
        <time>2020-11-14T10:41:03Z</time>
      </trkpt>
      <trkpt lat="38.9115220" lon="-0.2970220">
        <ele>172.8</ele>
        <time>2020-11-14T10:41:04Z</time>
      </trkpt>
      <trkpt lat="38.9115130" lon="-0.2970590">
        <ele>172.9</ele>
        <time>2020-11-14T10:41:05Z</time>
      </trkpt>
      <trkpt lat="38.9115050" lon="-0.2970950">
        <ele>173.1</ele>
        <time>2020-11-14T10:41:06Z</time>
      </trkpt>
      <trkpt lat="38.9114940" lon="-0.2971310">
        <ele>173.3</ele>
        <time>2020-11-14T10:41:07Z</time>
      </trkpt>
      <trkpt lat="38.9114830" lon="-0.2971660">
        <ele>173.4</ele>
        <time>2020-11-14T10:41:08Z</time>
      </trkpt>
      <trkpt lat="38.9114730" lon="-0.2972000">
        <ele>173.6</ele>
        <time>2020-11-14T10:41:09Z</time>
      </trkpt>
      <trkpt lat="38.9114630" lon="-0.2972340">
        <ele>173.7</ele>
        <time>2020-11-14T10:41:10Z</time>
      </trkpt>
      <trkpt lat="38.9114520" lon="-0.2972690">
        <ele>173.9</ele>
        <time>2020-11-14T10:41:11Z</time>
      </trkpt>
      <trkpt lat="38.9114390" lon="-0.2973030">
        <ele>174.2</ele>
        <time>2020-11-14T10:41:12Z</time>
      </trkpt>
      <trkpt lat="38.9114250" lon="-0.2973360">
        <ele>174.4</ele>
        <time>2020-11-14T10:41:13Z</time>
      </trkpt>
      <trkpt lat="38.9114150" lon="-0.2973720">
        <ele>174.6</ele>
        <time>2020-11-14T10:41:14Z</time>
      </trkpt>
      <trkpt lat="38.9114010" lon="-0.2974110">
        <ele>174.8</ele>
        <time>2020-11-14T10:41:15Z</time>
      </trkpt>
      <trkpt lat="38.9113870" lon="-0.2974500">
        <ele>175.1</ele>
        <time>2020-11-14T10:41:16Z</time>
      </trkpt>
      <trkpt lat="38.9113760" lon="-0.2974900">
        <ele>175.3</ele>
        <time>2020-11-14T10:41:17Z</time>
      </trkpt>
      <trkpt lat="38.9113640" lon="-0.2975270">
        <ele>175.4</ele>
        <time>2020-11-14T10:41:18Z</time>
      </trkpt>
      <trkpt lat="38.9113540" lon="-0.2975610">
        <ele>175.6</ele>
        <time>2020-11-14T10:41:19Z</time>
      </trkpt>
      <trkpt lat="38.9113450" lon="-0.2975970">
        <ele>175.7</ele>
        <time>2020-11-14T10:41:20Z</time>
      </trkpt>
      <trkpt lat="38.9113350" lon="-0.2976360">
        <ele>175.9</ele>
        <time>2020-11-14T10:41:21Z</time>
      </trkpt>
      <trkpt lat="38.9113280" lon="-0.2976740">
        <ele>176.1</ele>
        <time>2020-11-14T10:41:22Z</time>
      </trkpt>
      <trkpt lat="38.9113200" lon="-0.2977120">
        <ele>176.2</ele>
        <time>2020-11-14T10:41:23Z</time>
      </trkpt>
      <trkpt lat="38.9113140" lon="-0.2977490">
        <ele>176.4</ele>
        <time>2020-11-14T10:41:24Z</time>
      </trkpt>
      <trkpt lat="38.9113100" lon="-0.2977840">
        <ele>176.5</ele>
        <time>2020-11-14T10:41:25Z</time>
      </trkpt>
      <trkpt lat="38.9113050" lon="-0.2978350">
        <ele>176.8</ele>
        <time>2020-11-14T10:41:26Z</time>
      </trkpt>
      <trkpt lat="38.9113020" lon="-0.2978520">
        <ele>176.8</ele>
        <time>2020-11-14T10:41:27Z</time>
      </trkpt>
      <trkpt lat="38.9112950" lon="-0.2978870">
        <ele>177.0</ele>
        <time>2020-11-14T10:41:28Z</time>
      </trkpt>
      <trkpt lat="38.9112900" lon="-0.2979380">
        <ele>177.2</ele>
        <time>2020-11-14T10:41:29Z</time>
      </trkpt>
      <trkpt lat="38.9112870" lon="-0.2979550">
        <ele>177.3</ele>
        <time>2020-11-14T10:41:30Z</time>
      </trkpt>
      <trkpt lat="38.9112840" lon="-0.2979920">
        <ele>177.5</ele>
        <time>2020-11-14T10:41:31Z</time>
      </trkpt>
      <trkpt lat="38.9112820" lon="-0.2980310">
        <ele>177.6</ele>
        <time>2020-11-14T10:41:32Z</time>
      </trkpt>
      <trkpt lat="38.9112830" lon="-0.2980710">
        <ele>177.8</ele>
        <time>2020-11-14T10:41:33Z</time>
      </trkpt>
      <trkpt lat="38.9112870" lon="-0.2981100">
        <ele>178.0</ele>
        <time>2020-11-14T10:41:34Z</time>
      </trkpt>
      <trkpt lat="38.9112900" lon="-0.2981470">
        <ele>178.2</ele>
        <time>2020-11-14T10:41:35Z</time>
      </trkpt>
      <trkpt lat="38.9112930" lon="-0.2981840">
        <ele>178.3</ele>
        <time>2020-11-14T10:41:36Z</time>
      </trkpt>
      <trkpt lat="38.9112950" lon="-0.2982210">
        <ele>178.5</ele>
        <time>2020-11-14T10:41:37Z</time>
      </trkpt>
      <trkpt lat="38.9112990" lon="-0.2982580">
        <ele>178.6</ele>
        <time>2020-11-14T10:41:38Z</time>
      </trkpt>
      <trkpt lat="38.9113020" lon="-0.2982950">
        <ele>178.8</ele>
        <time>2020-11-14T10:41:39Z</time>
      </trkpt>
      <trkpt lat="38.9113020" lon="-0.2983330">
        <ele>178.9</ele>
        <time>2020-11-14T10:41:40Z</time>
      </trkpt>
      <trkpt lat="38.9113010" lon="-0.2983700">
        <ele>179.1</ele>
        <time>2020-11-14T10:41:41Z</time>
      </trkpt>
      <trkpt lat="38.9113000" lon="-0.2984080">
        <ele>179.2</ele>
        <time>2020-11-14T10:41:42Z</time>
      </trkpt>
      <trkpt lat="38.9112940" lon="-0.2984470">
        <ele>179.4</ele>
        <time>2020-11-14T10:41:43Z</time>
      </trkpt>
      <trkpt lat="38.9112890" lon="-0.2984860">
        <ele>179.6</ele>
        <time>2020-11-14T10:41:44Z</time>
      </trkpt>
      <trkpt lat="38.9112820" lon="-0.2985230">
        <ele>179.8</ele>
        <time>2020-11-14T10:41:45Z</time>
      </trkpt>
      <trkpt lat="38.9112760" lon="-0.2985600">
        <ele>179.9</ele>
        <time>2020-11-14T10:41:46Z</time>
      </trkpt>
      <trkpt lat="38.9112700" lon="-0.2985950">
        <ele>180.1</ele>
        <time>2020-11-14T10:41:47Z</time>
      </trkpt>
      <trkpt lat="38.9112660" lon="-0.2986450">
        <ele>180.3</ele>
        <time>2020-11-14T10:41:48Z</time>
      </trkpt>
      <trkpt lat="38.9112640" lon="-0.2986620">
        <ele>180.4</ele>
        <time>2020-11-14T10:41:49Z</time>
      </trkpt>
      <trkpt lat="38.9112580" lon="-0.2987120">
        <ele>180.6</ele>
        <time>2020-11-14T10:41:50Z</time>
      </trkpt>
      <trkpt lat="38.9112560" lon="-0.2987280">
        <ele>180.7</ele>
        <time>2020-11-14T10:41:51Z</time>
      </trkpt>
      <trkpt lat="38.9112480" lon="-0.2987750">
        <ele>180.8</ele>
        <time>2020-11-14T10:41:52Z</time>
      </trkpt>
      <trkpt lat="38.9112450" lon="-0.2987910">
        <ele>180.9</ele>
        <time>2020-11-14T10:41:53Z</time>
      </trkpt>
      <trkpt lat="38.9112360" lon="-0.2988250">
        <ele>181.0</ele>
        <time>2020-11-14T10:41:54Z</time>
      </trkpt>
      <trkpt lat="38.9112240" lon="-0.2988690">
        <ele>181.2</ele>
        <time>2020-11-14T10:41:55Z</time>
      </trkpt>
      <trkpt lat="38.9112210" lon="-0.2988840">
        <ele>181.3</ele>
        <time>2020-11-14T10:41:56Z</time>
      </trkpt>
      <trkpt lat="38.9112140" lon="-0.2989340">
        <ele>181.5</ele>
        <time>2020-11-14T10:41:57Z</time>
      </trkpt>
      <trkpt lat="38.9112120" lon="-0.2989510">
        <ele>181.5</ele>
        <time>2020-11-14T10:41:58Z</time>
      </trkpt>
      <trkpt lat="38.9112060" lon="-0.2989850">
        <ele>181.7</ele>
        <time>2020-11-14T10:41:59Z</time>
      </trkpt>
      <trkpt lat="38.9112020" lon="-0.2990200">
        <ele>181.8</ele>
        <time>2020-11-14T10:42:00Z</time>
      </trkpt>
      <trkpt lat="38.9111980" lon="-0.2990550">
        <ele>181.9</ele>
        <time>2020-11-14T10:42:01Z</time>
      </trkpt>
      <trkpt lat="38.9111950" lon="-0.2990910">
        <ele>182.1</ele>
        <time>2020-11-14T10:42:02Z</time>
      </trkpt>
      <trkpt lat="38.9111860" lon="-0.2991420">
        <ele>182.3</ele>
        <time>2020-11-14T10:42:03Z</time>
      </trkpt>
      <trkpt lat="38.9111820" lon="-0.2991590">
        <ele>182.4</ele>
        <time>2020-11-14T10:42:04Z</time>
      </trkpt>
      <trkpt lat="38.9111750" lon="-0.2991930">
        <ele>182.5</ele>
        <time>2020-11-14T10:42:05Z</time>
      </trkpt>
      <trkpt lat="38.9111680" lon="-0.2992280">
        <ele>182.7</ele>
        <time>2020-11-14T10:42:06Z</time>
      </trkpt>
      <trkpt lat="38.9111610" lon="-0.2992630">
        <ele>182.9</ele>
        <time>2020-11-14T10:42:07Z</time>
      </trkpt>
      <trkpt lat="38.9111540" lon="-0.2992980">
        <ele>183.0</ele>
        <time>2020-11-14T10:42:08Z</time>
      </trkpt>
      <trkpt lat="38.9111470" lon="-0.2993330">
        <ele>183.1</ele>
        <time>2020-11-14T10:42:09Z</time>
      </trkpt>
      <trkpt lat="38.9111410" lon="-0.2993690">
        <ele>183.3</ele>
        <time>2020-11-14T10:42:10Z</time>
      </trkpt>
      <trkpt lat="38.9111330" lon="-0.2994030">
        <ele>183.4</ele>
        <time>2020-11-14T10:42:11Z</time>
      </trkpt>
      <trkpt lat="38.9111220" lon="-0.2994530">
        <ele>183.7</ele>
        <time>2020-11-14T10:42:12Z</time>
      </trkpt>
      <trkpt lat="38.9111180" lon="-0.2994690">
        <ele>183.7</ele>
        <time>2020-11-14T10:42:13Z</time>
      </trkpt>
      <trkpt lat="38.9111090" lon="-0.2995190">
        <ele>183.9</ele>
        <time>2020-11-14T10:42:14Z</time>
      </trkpt>
      <trkpt lat="38.9111050" lon="-0.2995360">
        <ele>184.0</ele>
        <time>2020-11-14T10:42:15Z</time>
      </trkpt>
      <trkpt lat="38.9110980" lon="-0.2995870">
        <ele>184.2</ele>
        <time>2020-11-14T10:42:16Z</time>
      </trkpt>
      <trkpt lat="38.9110960" lon="-0.2996040">
        <ele>184.3</ele>
        <time>2020-11-14T10:42:17Z</time>
      </trkpt>
      <trkpt lat="38.9110880" lon="-0.2996540">
        <ele>184.5</ele>
        <time>2020-11-14T10:42:18Z</time>
      </trkpt>
      <trkpt lat="38.9110840" lon="-0.2996700">
        <ele>184.6</ele>
        <time>2020-11-14T10:42:19Z</time>
      </trkpt>
      <trkpt lat="38.9110700" lon="-0.2997180">
        <ele>184.8</ele>
        <time>2020-11-14T10:42:20Z</time>
      </trkpt>
      <trkpt lat="38.9110650" lon="-0.2997330">
        <ele>184.9</ele>
        <time>2020-11-14T10:42:21Z</time>
      </trkpt>
      <trkpt lat="38.9110530" lon="-0.2997820">
        <ele>185.1</ele>
        <time>2020-11-14T10:42:22Z</time>
      </trkpt>
      <trkpt lat="38.9110490" lon="-0.2997980">
        <ele>185.2</ele>
        <time>2020-11-14T10:42:23Z</time>
      </trkpt>
      <trkpt lat="38.9110380" lon="-0.2998340">
        <ele>185.4</ele>
        <time>2020-11-14T10:42:24Z</time>
      </trkpt>
      <trkpt lat="38.9110270" lon="-0.2998690">
        <ele>185.5</ele>
        <time>2020-11-14T10:42:25Z</time>
      </trkpt>
      <trkpt lat="38.9110140" lon="-0.2999030">
        <ele>185.7</ele>
        <time>2020-11-14T10:42:26Z</time>
      </trkpt>
      <trkpt lat="38.9110010" lon="-0.2999390">
        <ele>185.9</ele>
        <time>2020-11-14T10:42:27Z</time>
      </trkpt>
      <trkpt lat="38.9109890" lon="-0.2999710">
        <ele>186.1</ele>
        <time>2020-11-14T10:42:28Z</time>
      </trkpt>
      <trkpt lat="38.9109700" lon="-0.3000160">
        <ele>186.3</ele>
        <time>2020-11-14T10:42:29Z</time>
      </trkpt>
      <trkpt lat="38.9109630" lon="-0.3000320">
        <ele>186.4</ele>
        <time>2020-11-14T10:42:30Z</time>
      </trkpt>
      <trkpt lat="38.9109500" lon="-0.3000660">
        <ele>186.6</ele>
        <time>2020-11-14T10:42:31Z</time>
      </trkpt>
      <trkpt lat="38.9109380" lon="-0.3001010">
        <ele>186.8</ele>
        <time>2020-11-14T10:42:32Z</time>
      </trkpt>
      <trkpt lat="38.9109290" lon="-0.3001370">
        <ele>187.0</ele>
        <time>2020-11-14T10:42:33Z</time>
      </trkpt>
      <trkpt lat="38.9109190" lon="-0.3001720">
        <ele>187.2</ele>
        <time>2020-11-14T10:42:34Z</time>
      </trkpt>
      <trkpt lat="38.9109080" lon="-0.3002060">
        <ele>187.4</ele>
        <time>2020-11-14T10:42:35Z</time>
      </trkpt>
      <trkpt lat="38.9108940" lon="-0.3002530">
        <ele>187.6</ele>
        <time>2020-11-14T10:42:36Z</time>
      </trkpt>
      <trkpt lat="38.9108890" lon="-0.3002680">
        <ele>187.7</ele>
        <time>2020-11-14T10:42:37Z</time>
      </trkpt>
      <trkpt lat="38.9108740" lon="-0.3003160">
        <ele>187.9</ele>
        <time>2020-11-14T10:42:38Z</time>
      </trkpt>
      <trkpt lat="38.9108680" lon="-0.3003320">
        <ele>188.0</ele>
        <time>2020-11-14T10:42:39Z</time>
      </trkpt>
      <trkpt lat="38.9108550" lon="-0.3003650">
        <ele>188.2</ele>
        <time>2020-11-14T10:42:40Z</time>
      </trkpt>
      <trkpt lat="38.9108450" lon="-0.3003980">
        <ele>188.3</ele>
        <time>2020-11-14T10:42:41Z</time>
      </trkpt>
      <trkpt lat="38.9108390" lon="-0.3004480">
        <ele>188.6</ele>
        <time>2020-11-14T10:42:42Z</time>
      </trkpt>
      <trkpt lat="38.9108370" lon="-0.3004660">
        <ele>188.6</ele>
        <time>2020-11-14T10:42:43Z</time>
      </trkpt>
      <trkpt lat="38.9108330" lon="-0.3005010">
        <ele>188.8</ele>
        <time>2020-11-14T10:42:44Z</time>
      </trkpt>
      <trkpt lat="38.9108280" lon="-0.3005360">
        <ele>188.9</ele>
        <time>2020-11-14T10:42:45Z</time>
      </trkpt>
      <trkpt lat="38.9108150" lon="-0.3005820">
        <ele>189.1</ele>
        <time>2020-11-14T10:42:46Z</time>
      </trkpt>
      <trkpt lat="38.9108100" lon="-0.3005970">
        <ele>189.2</ele>
        <time>2020-11-14T10:42:47Z</time>
      </trkpt>
      <trkpt lat="38.9108010" lon="-0.3006300">
        <ele>189.4</ele>
        <time>2020-11-14T10:42:48Z</time>
      </trkpt>
      <trkpt lat="38.9107900" lon="-0.3006800">
        <ele>189.6</ele>
        <time>2020-11-14T10:42:49Z</time>
      </trkpt>
      <trkpt lat="38.9107860" lon="-0.3006960">
        <ele>189.7</ele>
        <time>2020-11-14T10:42:50Z</time>
      </trkpt>
      <trkpt lat="38.9107730" lon="-0.3007430">
        <ele>189.9</ele>
        <time>2020-11-14T10:42:51Z</time>
      </trkpt>
      <trkpt lat="38.9107670" lon="-0.3007580">
        <ele>190.0</ele>
        <time>2020-11-14T10:42:52Z</time>
      </trkpt>
      <trkpt lat="38.9107500" lon="-0.3008010">
        <ele>190.2</ele>
        <time>2020-11-14T10:42:53Z</time>
      </trkpt>
      <trkpt lat="38.9107430" lon="-0.3008150">
        <ele>190.3</ele>
        <time>2020-11-14T10:42:54Z</time>
      </trkpt>
      <trkpt lat="38.9107210" lon="-0.3008560">
        <ele>190.5</ele>
        <time>2020-11-14T10:42:55Z</time>
      </trkpt>
      <trkpt lat="38.9107140" lon="-0.3008700">
        <ele>190.6</ele>
        <time>2020-11-14T10:42:56Z</time>
      </trkpt>
      <trkpt lat="38.9106920" lon="-0.3009100">
        <ele>190.8</ele>
        <time>2020-11-14T10:42:57Z</time>
      </trkpt>
      <trkpt lat="38.9106850" lon="-0.3009240">
        <ele>190.9</ele>
        <time>2020-11-14T10:42:58Z</time>
      </trkpt>
      <trkpt lat="38.9106710" lon="-0.3009550">
        <ele>191.0</ele>
        <time>2020-11-14T10:42:59Z</time>
      </trkpt>
      <trkpt lat="38.9106570" lon="-0.3009870">
        <ele>191.2</ele>
        <time>2020-11-14T10:43:00Z</time>
      </trkpt>
      <trkpt lat="38.9106420" lon="-0.3010170">
        <ele>191.3</ele>
        <time>2020-11-14T10:43:01Z</time>
      </trkpt>
      <trkpt lat="38.9106250" lon="-0.3010480">
        <ele>191.5</ele>
        <time>2020-11-14T10:43:02Z</time>
      </trkpt>
      <trkpt lat="38.9106090" lon="-0.3010790">
        <ele>191.6</ele>
        <time>2020-11-14T10:43:03Z</time>
      </trkpt>
      <trkpt lat="38.9105960" lon="-0.3011100">
        <ele>191.8</ele>
        <time>2020-11-14T10:43:04Z</time>
      </trkpt>
      <trkpt lat="38.9105850" lon="-0.3011420">
        <ele>191.9</ele>
        <time>2020-11-14T10:43:05Z</time>
      </trkpt>
      <trkpt lat="38.9105760" lon="-0.3011780">
        <ele>192.0</ele>
        <time>2020-11-14T10:43:06Z</time>
      </trkpt>
      <trkpt lat="38.9105660" lon="-0.3012190">
        <ele>192.2</ele>
        <time>2020-11-14T10:43:07Z</time>
      </trkpt>
      <trkpt lat="38.9105560" lon="-0.3012580">
        <ele>192.3</ele>
        <time>2020-11-14T10:43:08Z</time>
      </trkpt>
      <trkpt lat="38.9105460" lon="-0.3012940">
        <ele>192.5</ele>
        <time>2020-11-14T10:43:09Z</time>
      </trkpt>
      <trkpt lat="38.9105370" lon="-0.3013300">
        <ele>192.6</ele>
        <time>2020-11-14T10:43:10Z</time>
      </trkpt>
      <trkpt lat="38.9105280" lon="-0.3013680">
        <ele>192.7</ele>
        <time>2020-11-14T10:43:11Z</time>
      </trkpt>
      <trkpt lat="38.9105170" lon="-0.3014060">
        <ele>192.9</ele>
        <time>2020-11-14T10:43:12Z</time>
      </trkpt>
      <trkpt lat="38.9105040" lon="-0.3014450">
        <ele>193.0</ele>
        <time>2020-11-14T10:43:13Z</time>
      </trkpt>
      <trkpt lat="38.9104920" lon="-0.3014830">
        <ele>193.2</ele>
        <time>2020-11-14T10:43:14Z</time>
      </trkpt>
      <trkpt lat="38.9104820" lon="-0.3015210">
        <ele>193.3</ele>
        <time>2020-11-14T10:43:15Z</time>
      </trkpt>
      <trkpt lat="38.9104760" lon="-0.3015610">
        <ele>193.5</ele>
        <time>2020-11-14T10:43:16Z</time>
      </trkpt>
      <trkpt lat="38.9104710" lon="-0.3016010">
        <ele>193.6</ele>
        <time>2020-11-14T10:43:17Z</time>
      </trkpt>
      <trkpt lat="38.9104650" lon="-0.3016400">
        <ele>193.7</ele>
        <time>2020-11-14T10:43:18Z</time>
      </trkpt>
      <trkpt lat="38.9104550" lon="-0.3016760">
        <ele>193.8</ele>
        <time>2020-11-14T10:43:19Z</time>
      </trkpt>
      <trkpt lat="38.9104490" lon="-0.3017120">
        <ele>193.9</ele>
        <time>2020-11-14T10:43:20Z</time>
      </trkpt>
      <trkpt lat="38.9104420" lon="-0.3017490">
        <ele>194.0</ele>
        <time>2020-11-14T10:43:21Z</time>
      </trkpt>
      <trkpt lat="38.9104330" lon="-0.3017860">
        <ele>194.1</ele>
        <time>2020-11-14T10:43:22Z</time>
      </trkpt>
      <trkpt lat="38.9104230" lon="-0.3018230">
        <ele>194.2</ele>
        <time>2020-11-14T10:43:23Z</time>
      </trkpt>
      <trkpt lat="38.9104130" lon="-0.3018610">
        <ele>194.2</ele>
        <time>2020-11-14T10:43:24Z</time>
      </trkpt>
      <trkpt lat="38.9104010" lon="-0.3019000">
        <ele>194.2</ele>
        <time>2020-11-14T10:43:25Z</time>
      </trkpt>
      <trkpt lat="38.9103900" lon="-0.3019410">
        <ele>194.3</ele>
        <time>2020-11-14T10:43:26Z</time>
      </trkpt>
      <trkpt lat="38.9103800" lon="-0.3019850">
        <ele>194.3</ele>
        <time>2020-11-14T10:43:27Z</time>
      </trkpt>
      <trkpt lat="38.9103720" lon="-0.3020320">
        <ele>194.3</ele>
        <time>2020-11-14T10:43:28Z</time>
      </trkpt>
      <trkpt lat="38.9103670" lon="-0.3020810">
        <ele>194.3</ele>
        <time>2020-11-14T10:43:29Z</time>
      </trkpt>
      <trkpt lat="38.9103590" lon="-0.3021310">
        <ele>194.3</ele>
        <time>2020-11-14T10:43:30Z</time>
      </trkpt>
      <trkpt lat="38.9103470" lon="-0.3021820">
        <ele>194.3</ele>
        <time>2020-11-14T10:43:31Z</time>
      </trkpt>
      <trkpt lat="38.9103340" lon="-0.3022310">
        <ele>194.2</ele>
        <time>2020-11-14T10:43:32Z</time>
      </trkpt>
      <trkpt lat="38.9103180" lon="-0.3022800">
        <ele>194.1</ele>
        <time>2020-11-14T10:43:33Z</time>
      </trkpt>
      <trkpt lat="38.9103010" lon="-0.3023290">
        <ele>193.9</ele>
        <time>2020-11-14T10:43:34Z</time>
      </trkpt>
      <trkpt lat="38.9102830" lon="-0.3023800">
        <ele>193.7</ele>
        <time>2020-11-14T10:43:35Z</time>
      </trkpt>
      <trkpt lat="38.9102660" lon="-0.3024370">
        <ele>193.5</ele>
        <time>2020-11-14T10:43:36Z</time>
      </trkpt>
      <trkpt lat="38.9102480" lon="-0.3025010">
        <ele>193.2</ele>
        <time>2020-11-14T10:43:37Z</time>
      </trkpt>
      <trkpt lat="38.9102260" lon="-0.3025670">
        <ele>192.7</ele>
        <time>2020-11-14T10:43:38Z</time>
      </trkpt>
      <trkpt lat="38.9102020" lon="-0.3026370">
        <ele>192.2</ele>
        <time>2020-11-14T10:43:39Z</time>
      </trkpt>
      <trkpt lat="38.9101750" lon="-0.3027130">
        <ele>191.7</ele>
        <time>2020-11-14T10:43:40Z</time>
      </trkpt>
      <trkpt lat="38.9101490" lon="-0.3027940">
        <ele>191.1</ele>
        <time>2020-11-14T10:43:41Z</time>
      </trkpt>
      <trkpt lat="38.9101200" lon="-0.3028850">
        <ele>190.5</ele>
        <time>2020-11-14T10:43:42Z</time>
      </trkpt>
      <trkpt lat="38.9100930" lon="-0.3029810">
        <ele>190.0</ele>
        <time>2020-11-14T10:43:43Z</time>
      </trkpt>
      <trkpt lat="38.9100730" lon="-0.3030800">
        <ele>189.6</ele>
        <time>2020-11-14T10:43:44Z</time>
      </trkpt>
      <trkpt lat="38.9100610" lon="-0.3031720">
        <ele>189.2</ele>
        <time>2020-11-14T10:43:45Z</time>
      </trkpt>
      <trkpt lat="38.9100410" lon="-0.3032660">
        <ele>188.5</ele>
        <time>2020-11-14T10:43:46Z</time>
      </trkpt>
      <trkpt lat="38.9100200" lon="-0.3033730">
        <ele>187.5</ele>
        <time>2020-11-14T10:43:47Z</time>
      </trkpt>
      <trkpt lat="38.9099960" lon="-0.3034810">
        <ele>186.6</ele>
        <time>2020-11-14T10:43:48Z</time>
      </trkpt>
      <trkpt lat="38.9099710" lon="-0.3035910">
        <ele>185.6</ele>
        <time>2020-11-14T10:43:49Z</time>
      </trkpt>
      <trkpt lat="38.9099460" lon="-0.3037050">
        <ele>184.7</ele>
        <time>2020-11-14T10:43:50Z</time>
      </trkpt>
      <trkpt lat="38.9099200" lon="-0.3038210">
        <ele>183.7</ele>
        <time>2020-11-14T10:43:51Z</time>
      </trkpt>
      <trkpt lat="38.9098910" lon="-0.3039430">
        <ele>182.6</ele>
        <time>2020-11-14T10:43:52Z</time>
      </trkpt>
      <trkpt lat="38.9098670" lon="-0.3040660">
        <ele>181.4</ele>
        <time>2020-11-14T10:43:53Z</time>
      </trkpt>
      <trkpt lat="38.9098350" lon="-0.3041940">
        <ele>180.4</ele>
        <time>2020-11-14T10:43:54Z</time>
      </trkpt>
      <trkpt lat="38.9098070" lon="-0.3043190">
        <ele>179.7</ele>
        <time>2020-11-14T10:43:55Z</time>
      </trkpt>
      <trkpt lat="38.9097790" lon="-0.3044470">
        <ele>179.2</ele>
        <time>2020-11-14T10:43:56Z</time>
      </trkpt>
      <trkpt lat="38.9097400" lon="-0.3045670">
        <ele>178.9</ele>
        <time>2020-11-14T10:43:57Z</time>
      </trkpt>
      <trkpt lat="38.9097000" lon="-0.3046820">
        <ele>178.7</ele>
        <time>2020-11-14T10:43:58Z</time>
      </trkpt>
      <trkpt lat="38.9096580" lon="-0.3047840">
        <ele>178.8</ele>
        <time>2020-11-14T10:43:59Z</time>
      </trkpt>
      <trkpt lat="38.9096190" lon="-0.3048860">
        <ele>178.9</ele>
        <time>2020-11-14T10:44:00Z</time>
      </trkpt>
      <trkpt lat="38.9095820" lon="-0.3049770">
        <ele>179.1</ele>
        <time>2020-11-14T10:44:01Z</time>
      </trkpt>
      <trkpt lat="38.9095370" lon="-0.3050700">
        <ele>179.4</ele>
        <time>2020-11-14T10:44:02Z</time>
      </trkpt>
      <trkpt lat="38.9094990" lon="-0.3051520">
        <ele>179.7</ele>
        <time>2020-11-14T10:44:03Z</time>
      </trkpt>
      <trkpt lat="38.9094600" lon="-0.3052340">
        <ele>180.2</ele>
        <time>2020-11-14T10:44:04Z</time>
      </trkpt>
      <trkpt lat="38.9094220" lon="-0.3053070">
        <ele>180.6</ele>
        <time>2020-11-14T10:44:05Z</time>
      </trkpt>
      <trkpt lat="38.9093830" lon="-0.3053850">
        <ele>181.2</ele>
        <time>2020-11-14T10:44:06Z</time>
      </trkpt>
      <trkpt lat="38.9093510" lon="-0.3054420">
        <ele>181.6</ele>
        <time>2020-11-14T10:44:07Z</time>
      </trkpt>
      <trkpt lat="38.9093120" lon="-0.3054930">
        <ele>182.1</ele>
        <time>2020-11-14T10:44:08Z</time>
      </trkpt>
      <trkpt lat="38.9092790" lon="-0.3055500">
        <ele>182.6</ele>
        <time>2020-11-14T10:44:09Z</time>
      </trkpt>
      <trkpt lat="38.9092510" lon="-0.3056050">
        <ele>183.1</ele>
        <time>2020-11-14T10:44:10Z</time>
      </trkpt>
      <trkpt lat="38.9092280" lon="-0.3056510">
        <ele>183.5</ele>
        <time>2020-11-14T10:44:11Z</time>
      </trkpt>
      <trkpt lat="38.9091790" lon="-0.3057060">
        <ele>184.1</ele>
        <time>2020-11-14T10:44:12Z</time>
      </trkpt>
      <trkpt lat="38.9091360" lon="-0.3057460">
        <ele>184.6</ele>
        <time>2020-11-14T10:44:13Z</time>
      </trkpt>
      <trkpt lat="38.9091000" lon="-0.3057900">
        <ele>185.0</ele>
        <time>2020-11-14T10:44:14Z</time>
      </trkpt>
      <trkpt lat="38.9090670" lon="-0.3058320">
        <ele>185.4</ele>
        <time>2020-11-14T10:44:15Z</time>
      </trkpt>
      <trkpt lat="38.9090410" lon="-0.3058690">
        <ele>185.7</ele>
        <time>2020-11-14T10:44:16Z</time>
      </trkpt>
      <trkpt lat="38.9090140" lon="-0.3059030">
        <ele>186.0</ele>
        <time>2020-11-14T10:44:17Z</time>
      </trkpt>
      <trkpt lat="38.9089730" lon="-0.3059390">
        <ele>186.4</ele>
        <time>2020-11-14T10:44:18Z</time>
      </trkpt>
      <trkpt lat="38.9089400" lon="-0.3059770">
        <ele>186.8</ele>
        <time>2020-11-14T10:44:19Z</time>
      </trkpt>
      <trkpt lat="38.9089100" lon="-0.3060220">
        <ele>187.1</ele>
        <time>2020-11-14T10:44:20Z</time>
      </trkpt>
      <trkpt lat="38.9088570" lon="-0.3060600">
        <ele>187.5</ele>
        <time>2020-11-14T10:44:21Z</time>
      </trkpt>
      <trkpt lat="38.9088210" lon="-0.3061080">
        <ele>187.9</ele>
        <time>2020-11-14T10:44:22Z</time>
      </trkpt>
      <trkpt lat="38.9087840" lon="-0.3061450">
        <ele>188.2</ele>
        <time>2020-11-14T10:44:23Z</time>
      </trkpt>
      <trkpt lat="38.9087500" lon="-0.3061710">
        <ele>188.4</ele>
        <time>2020-11-14T10:44:24Z</time>
      </trkpt>
      <trkpt lat="38.9087190" lon="-0.3062180">
        <ele>188.7</ele>
        <time>2020-11-14T10:44:25Z</time>
      </trkpt>
      <trkpt lat="38.9086880" lon="-0.3062470">
        <ele>189.0</ele>
        <time>2020-11-14T10:44:26Z</time>
      </trkpt>
      <trkpt lat="38.9086600" lon="-0.3062770">
        <ele>189.2</ele>
        <time>2020-11-14T10:44:27Z</time>
      </trkpt>
      <trkpt lat="38.9086290" lon="-0.3063130">
        <ele>189.3</ele>
        <time>2020-11-14T10:44:28Z</time>
      </trkpt>
      <trkpt lat="38.9086060" lon="-0.3063470">
        <ele>189.3</ele>
        <time>2020-11-14T10:44:29Z</time>
      </trkpt>
      <trkpt lat="38.9085730" lon="-0.3063730">
        <ele>189.4</ele>
        <time>2020-11-14T10:44:30Z</time>
      </trkpt>
      <trkpt lat="38.9085510" lon="-0.3064010">
        <ele>189.4</ele>
        <time>2020-11-14T10:44:31Z</time>
      </trkpt>
      <trkpt lat="38.9085300" lon="-0.3064310">
        <ele>189.5</ele>
        <time>2020-11-14T10:44:32Z</time>
      </trkpt>
      <trkpt lat="38.9085070" lon="-0.3064570">
        <ele>189.5</ele>
        <time>2020-11-14T10:44:33Z</time>
      </trkpt>
      <trkpt lat="38.9084890" lon="-0.3064860">
        <ele>189.6</ele>
        <time>2020-11-14T10:44:34Z</time>
      </trkpt>
      <trkpt lat="38.9084680" lon="-0.3065120">
        <ele>189.6</ele>
        <time>2020-11-14T10:44:35Z</time>
      </trkpt>
      <trkpt lat="38.9084470" lon="-0.3065390">
        <ele>189.7</ele>
        <time>2020-11-14T10:44:36Z</time>
      </trkpt>
      <trkpt lat="38.9084220" lon="-0.3065640">
        <ele>189.7</ele>
        <time>2020-11-14T10:44:37Z</time>
      </trkpt>
      <trkpt lat="38.9083950" lon="-0.3065890">
        <ele>189.7</ele>
        <time>2020-11-14T10:44:38Z</time>
      </trkpt>
      <trkpt lat="38.9083620" lon="-0.3066130">
        <ele>189.8</ele>
        <time>2020-11-14T10:44:39Z</time>
      </trkpt>
      <trkpt lat="38.9083280" lon="-0.3066390">
        <ele>189.8</ele>
        <time>2020-11-14T10:44:40Z</time>
      </trkpt>
      <trkpt lat="38.9082960" lon="-0.3066660">
        <ele>189.9</ele>
        <time>2020-11-14T10:44:41Z</time>
      </trkpt>
      <trkpt lat="38.9082660" lon="-0.3066960">
        <ele>189.9</ele>
        <time>2020-11-14T10:44:42Z</time>
      </trkpt>
      <trkpt lat="38.9082340" lon="-0.3067260">
        <ele>190.0</ele>
        <time>2020-11-14T10:44:43Z</time>
      </trkpt>
      <trkpt lat="38.9082000" lon="-0.3067550">
        <ele>190.0</ele>
        <time>2020-11-14T10:44:44Z</time>
      </trkpt>
      <trkpt lat="38.9081660" lon="-0.3067880">
        <ele>190.1</ele>
        <time>2020-11-14T10:44:45Z</time>
      </trkpt>
      <trkpt lat="38.9081300" lon="-0.3068220">
        <ele>190.1</ele>
        <time>2020-11-14T10:44:46Z</time>
      </trkpt>
      <trkpt lat="38.9080980" lon="-0.3068590">
        <ele>190.2</ele>
        <time>2020-11-14T10:44:47Z</time>
      </trkpt>
      <trkpt lat="38.9080660" lon="-0.3068950">
        <ele>190.2</ele>
        <time>2020-11-14T10:44:48Z</time>
      </trkpt>
      <trkpt lat="38.9080320" lon="-0.3069380">
        <ele>190.3</ele>
        <time>2020-11-14T10:44:49Z</time>
      </trkpt>
      <trkpt lat="38.9080010" lon="-0.3069770">
        <ele>190.4</ele>
        <time>2020-11-14T10:44:50Z</time>
      </trkpt>
      <trkpt lat="38.9079570" lon="-0.3070160">
        <ele>190.5</ele>
        <time>2020-11-14T10:44:51Z</time>
      </trkpt>
      <trkpt lat="38.9079300" lon="-0.3070600">
        <ele>190.5</ele>
        <time>2020-11-14T10:44:52Z</time>
      </trkpt>
      <trkpt lat="38.9078990" lon="-0.3070880">
        <ele>190.6</ele>
        <time>2020-11-14T10:44:53Z</time>
      </trkpt>
      <trkpt lat="38.9078610" lon="-0.3071150">
        <ele>190.7</ele>
        <time>2020-11-14T10:44:54Z</time>
      </trkpt>
      <trkpt lat="38.9078310" lon="-0.3071600">
        <ele>190.8</ele>
        <time>2020-11-14T10:44:55Z</time>
      </trkpt>
      <trkpt lat="38.9077970" lon="-0.3071820">
        <ele>190.9</ele>
        <time>2020-11-14T10:44:56Z</time>
      </trkpt>
      <trkpt lat="38.9077710" lon="-0.3072270">
        <ele>191.1</ele>
        <time>2020-11-14T10:44:57Z</time>
      </trkpt>
      <trkpt lat="38.9077420" lon="-0.3072720">
        <ele>191.2</ele>
        <time>2020-11-14T10:44:58Z</time>
      </trkpt>
      <trkpt lat="38.9077200" lon="-0.3073100">
        <ele>191.3</ele>
        <time>2020-11-14T10:44:59Z</time>
      </trkpt>
      <trkpt lat="38.9076890" lon="-0.3073450">
        <ele>191.4</ele>
        <time>2020-11-14T10:45:00Z</time>
      </trkpt>
      <trkpt lat="38.9076630" lon="-0.3073900">
        <ele>191.5</ele>
        <time>2020-11-14T10:45:01Z</time>
      </trkpt>
      <trkpt lat="38.9076410" lon="-0.3074370">
        <ele>191.6</ele>
        <time>2020-11-14T10:45:02Z</time>
      </trkpt>
      <trkpt lat="38.9076180" lon="-0.3074800">
        <ele>191.7</ele>
        <time>2020-11-14T10:45:03Z</time>
      </trkpt>
      <trkpt lat="38.9075730" lon="-0.3075040">
        <ele>191.9</ele>
        <time>2020-11-14T10:45:04Z</time>
      </trkpt>
      <trkpt lat="38.9075440" lon="-0.3075490">
        <ele>192.0</ele>
        <time>2020-11-14T10:45:05Z</time>
      </trkpt>
      <trkpt lat="38.9075150" lon="-0.3075940">
        <ele>192.1</ele>
        <time>2020-11-14T10:45:06Z</time>
      </trkpt>
      <trkpt lat="38.9074890" lon="-0.3076400">
        <ele>192.3</ele>
        <time>2020-11-14T10:45:07Z</time>
      </trkpt>
      <trkpt lat="38.9074630" lon="-0.3076840">
        <ele>192.4</ele>
        <time>2020-11-14T10:45:08Z</time>
      </trkpt>
      <trkpt lat="38.9074360" lon="-0.3077290">
        <ele>192.5</ele>
        <time>2020-11-14T10:45:09Z</time>
      </trkpt>
      <trkpt lat="38.9074100" lon="-0.3077740">
        <ele>192.7</ele>
        <time>2020-11-14T10:45:10Z</time>
      </trkpt>
      <trkpt lat="38.9073860" lon="-0.3078190">
        <ele>192.8</ele>
        <time>2020-11-14T10:45:11Z</time>
      </trkpt>
      <trkpt lat="38.9073620" lon="-0.3078720">
        <ele>193.0</ele>
        <time>2020-11-14T10:45:12Z</time>
      </trkpt>
      <trkpt lat="38.9073410" lon="-0.3079180">
        <ele>193.1</ele>
        <time>2020-11-14T10:45:13Z</time>
      </trkpt>
      <trkpt lat="38.9073120" lon="-0.3079550">
        <ele>193.2</ele>
        <time>2020-11-14T10:45:14Z</time>
      </trkpt>
      <trkpt lat="38.9072920" lon="-0.3080010">
        <ele>193.3</ele>
        <time>2020-11-14T10:45:15Z</time>
      </trkpt>
      <trkpt lat="38.9072630" lon="-0.3080420">
        <ele>193.5</ele>
        <time>2020-11-14T10:45:16Z</time>
      </trkpt>
      <trkpt lat="38.9072410" lon="-0.3080870">
        <ele>193.6</ele>
        <time>2020-11-14T10:45:17Z</time>
      </trkpt>
      <trkpt lat="38.9072160" lon="-0.3081400">
        <ele>193.7</ele>
        <time>2020-11-14T10:45:18Z</time>
      </trkpt>
      <trkpt lat="38.9072040" lon="-0.3081880">
        <ele>193.9</ele>
        <time>2020-11-14T10:45:19Z</time>
      </trkpt>
      <trkpt lat="38.9071850" lon="-0.3082370">
        <ele>194.0</ele>
        <time>2020-11-14T10:45:20Z</time>
      </trkpt>
      <trkpt lat="38.9071680" lon="-0.3082830">
        <ele>194.1</ele>
        <time>2020-11-14T10:45:21Z</time>
      </trkpt>
      <trkpt lat="38.9071630" lon="-0.3083350">
        <ele>194.3</ele>
        <time>2020-11-14T10:45:22Z</time>
      </trkpt>
      <trkpt lat="38.9071430" lon="-0.3083940">
        <ele>194.4</ele>
        <time>2020-11-14T10:45:23Z</time>
      </trkpt>
      <trkpt lat="38.9071250" lon="-0.3084500">
        <ele>194.6</ele>
        <time>2020-11-14T10:45:24Z</time>
      </trkpt>
      <trkpt lat="38.9071110" lon="-0.3084980">
        <ele>194.7</ele>
        <time>2020-11-14T10:45:25Z</time>
      </trkpt>
      <trkpt lat="38.9070880" lon="-0.3085470">
        <ele>194.8</ele>
        <time>2020-11-14T10:45:26Z</time>
      </trkpt>
      <trkpt lat="38.9070660" lon="-0.3085930">
        <ele>194.9</ele>
        <time>2020-11-14T10:45:27Z</time>
      </trkpt>
      <trkpt lat="38.9070330" lon="-0.3086450">
        <ele>195.0</ele>
        <time>2020-11-14T10:45:28Z</time>
      </trkpt>
      <trkpt lat="38.9070170" lon="-0.3087010">
        <ele>195.1</ele>
        <time>2020-11-14T10:45:29Z</time>
      </trkpt>
      <trkpt lat="38.9070050" lon="-0.3087540">
        <ele>195.1</ele>
        <time>2020-11-14T10:45:30Z</time>
      </trkpt>
      <trkpt lat="38.9069860" lon="-0.3088110">
        <ele>195.2</ele>
        <time>2020-11-14T10:45:31Z</time>
      </trkpt>
      <trkpt lat="38.9069700" lon="-0.3088730">
        <ele>195.3</ele>
        <time>2020-11-14T10:45:32Z</time>
      </trkpt>
      <trkpt lat="38.9069520" lon="-0.3089210">
        <ele>195.3</ele>
        <time>2020-11-14T10:45:33Z</time>
      </trkpt>
      <trkpt lat="38.9069290" lon="-0.3089790">
        <ele>195.4</ele>
        <time>2020-11-14T10:45:34Z</time>
      </trkpt>
      <trkpt lat="38.9069200" lon="-0.3090360">
        <ele>195.4</ele>
        <time>2020-11-14T10:45:35Z</time>
      </trkpt>
      <trkpt lat="38.9069040" lon="-0.3090880">
        <ele>195.4</ele>
        <time>2020-11-14T10:45:36Z</time>
      </trkpt>
      <trkpt lat="38.9068790" lon="-0.3091360">
        <ele>195.4</ele>
        <time>2020-11-14T10:45:37Z</time>
      </trkpt>
      <trkpt lat="38.9068560" lon="-0.3091810">
        <ele>195.4</ele>
        <time>2020-11-14T10:45:38Z</time>
      </trkpt>
      <trkpt lat="38.9068330" lon="-0.3092300">
        <ele>195.3</ele>
        <time>2020-11-14T10:45:39Z</time>
      </trkpt>
      <trkpt lat="38.9068140" lon="-0.3092790">
        <ele>195.3</ele>
        <time>2020-11-14T10:45:40Z</time>
      </trkpt>
      <trkpt lat="38.9067880" lon="-0.3093370">
        <ele>195.1</ele>
        <time>2020-11-14T10:45:41Z</time>
      </trkpt>
      <trkpt lat="38.9067820" lon="-0.3093880">
        <ele>195.0</ele>
        <time>2020-11-14T10:45:42Z</time>
      </trkpt>
      <trkpt lat="38.9067630" lon="-0.3094330">
        <ele>194.9</ele>
        <time>2020-11-14T10:45:43Z</time>
      </trkpt>
      <trkpt lat="38.9067680" lon="-0.3094810">
        <ele>194.7</ele>
        <time>2020-11-14T10:45:44Z</time>
      </trkpt>
      <trkpt lat="38.9067420" lon="-0.3095470">
        <ele>194.5</ele>
        <time>2020-11-14T10:45:45Z</time>
      </trkpt>
      <trkpt lat="38.9067220" lon="-0.3096090">
        <ele>194.2</ele>
        <time>2020-11-14T10:45:46Z</time>
      </trkpt>
      <trkpt lat="38.9067000" lon="-0.3096690">
        <ele>193.9</ele>
        <time>2020-11-14T10:45:47Z</time>
      </trkpt>
      <trkpt lat="38.9066820" lon="-0.3097290">
        <ele>193.5</ele>
        <time>2020-11-14T10:45:48Z</time>
      </trkpt>
      <trkpt lat="38.9066600" lon="-0.3097970">
        <ele>193.2</ele>
        <time>2020-11-14T10:45:49Z</time>
      </trkpt>
      <trkpt lat="38.9066290" lon="-0.3098700">
        <ele>192.7</ele>
        <time>2020-11-14T10:45:50Z</time>
      </trkpt>
      <trkpt lat="38.9066040" lon="-0.3099410">
        <ele>192.4</ele>
        <time>2020-11-14T10:45:51Z</time>
      </trkpt>
      <trkpt lat="38.9065780" lon="-0.3100250">
        <ele>192.0</ele>
        <time>2020-11-14T10:45:52Z</time>
      </trkpt>
      <trkpt lat="38.9065570" lon="-0.3101090">
        <ele>191.7</ele>
        <time>2020-11-14T10:45:53Z</time>
      </trkpt>
      <trkpt lat="38.9065190" lon="-0.3101960">
        <ele>191.4</ele>
        <time>2020-11-14T10:45:54Z</time>
      </trkpt>
      <trkpt lat="38.9064930" lon="-0.3102910">
        <ele>191.1</ele>
        <time>2020-11-14T10:45:55Z</time>
      </trkpt>
      <trkpt lat="38.9064650" lon="-0.3103780">
        <ele>190.8</ele>
        <time>2020-11-14T10:45:56Z</time>
      </trkpt>
      <trkpt lat="38.9064260" lon="-0.3104710">
        <ele>190.5</ele>
        <time>2020-11-14T10:45:57Z</time>
      </trkpt>
      <trkpt lat="38.9063740" lon="-0.3105700">
        <ele>190.3</ele>
        <time>2020-11-14T10:45:58Z</time>
      </trkpt>
      <trkpt lat="38.9063260" lon="-0.3106580">
        <ele>190.2</ele>
        <time>2020-11-14T10:45:59Z</time>
      </trkpt>
      <trkpt lat="38.9062630" lon="-0.3107530">
        <ele>190.1</ele>
        <time>2020-11-14T10:46:00Z</time>
      </trkpt>
      <trkpt lat="38.9061980" lon="-0.3108470">
        <ele>190.1</ele>
        <time>2020-11-14T10:46:01Z</time>
      </trkpt>
      <trkpt lat="38.9061420" lon="-0.3109420">
        <ele>190.1</ele>
        <time>2020-11-14T10:46:02Z</time>
      </trkpt>
      <trkpt lat="38.9060930" lon="-0.3110300">
        <ele>190.2</ele>
        <time>2020-11-14T10:46:03Z</time>
      </trkpt>
      <trkpt lat="38.9060390" lon="-0.3111080">
        <ele>190.3</ele>
        <time>2020-11-14T10:46:04Z</time>
      </trkpt>
      <trkpt lat="38.9059910" lon="-0.3111750">
        <ele>190.5</ele>
        <time>2020-11-14T10:46:05Z</time>
      </trkpt>
      <trkpt lat="38.9059420" lon="-0.3112310">
        <ele>190.7</ele>
        <time>2020-11-14T10:46:06Z</time>
      </trkpt>
      <trkpt lat="38.9058980" lon="-0.3112960">
        <ele>190.8</ele>
        <time>2020-11-14T10:46:07Z</time>
      </trkpt>
      <trkpt lat="38.9058220" lon="-0.3113500">
        <ele>191.1</ele>
        <time>2020-11-14T10:46:08Z</time>
      </trkpt>
      <trkpt lat="38.9057620" lon="-0.3114100">
        <ele>191.3</ele>
        <time>2020-11-14T10:46:09Z</time>
      </trkpt>
      <trkpt lat="38.9057170" lon="-0.3114640">
        <ele>191.3</ele>
        <time>2020-11-14T10:46:10Z</time>
      </trkpt>
      <trkpt lat="38.9056780" lon="-0.3115130">
        <ele>191.4</ele>
        <time>2020-11-14T10:46:11Z</time>
      </trkpt>
      <trkpt lat="38.9056370" lon="-0.3115710">
        <ele>191.4</ele>
        <time>2020-11-14T10:46:12Z</time>
      </trkpt>
      <trkpt lat="38.9055990" lon="-0.3116310">
        <ele>191.4</ele>
        <time>2020-11-14T10:46:13Z</time>
      </trkpt>
      <trkpt lat="38.9055550" lon="-0.3116900">
        <ele>191.4</ele>
        <time>2020-11-14T10:46:14Z</time>
      </trkpt>
      <trkpt lat="38.9055200" lon="-0.3117480">
        <ele>191.4</ele>
        <time>2020-11-14T10:46:15Z</time>
      </trkpt>
      <trkpt lat="38.9054570" lon="-0.3117950">
        <ele>191.3</ele>
        <time>2020-11-14T10:46:16Z</time>
      </trkpt>
      <trkpt lat="38.9054060" lon="-0.3118530">
        <ele>191.2</ele>
        <time>2020-11-14T10:46:17Z</time>
      </trkpt>
      <trkpt lat="38.9053630" lon="-0.3119240">
        <ele>191.0</ele>
        <time>2020-11-14T10:46:18Z</time>
      </trkpt>
      <trkpt lat="38.9053180" lon="-0.3119820">
        <ele>190.9</ele>
        <time>2020-11-14T10:46:19Z</time>
      </trkpt>
      <trkpt lat="38.9052890" lon="-0.3120540">
        <ele>190.7</ele>
        <time>2020-11-14T10:46:20Z</time>
      </trkpt>
      <trkpt lat="38.9052510" lon="-0.3121210">
        <ele>190.5</ele>
        <time>2020-11-14T10:46:21Z</time>
      </trkpt>
      <trkpt lat="38.9052180" lon="-0.3121950">
        <ele>190.3</ele>
        <time>2020-11-14T10:46:22Z</time>
      </trkpt>
      <trkpt lat="38.9051840" lon="-0.3122890">
        <ele>189.9</ele>
        <time>2020-11-14T10:46:23Z</time>
      </trkpt>
      <trkpt lat="38.9051310" lon="-0.3123440">
        <ele>189.6</ele>
        <time>2020-11-14T10:46:24Z</time>
      </trkpt>
      <trkpt lat="38.9050840" lon="-0.3124210">
        <ele>189.1</ele>
        <time>2020-11-14T10:46:25Z</time>
      </trkpt>
      <trkpt lat="38.9050270" lon="-0.3124870">
        <ele>188.5</ele>
        <time>2020-11-14T10:46:26Z</time>
      </trkpt>
      <trkpt lat="38.9049810" lon="-0.3125730">
        <ele>187.9</ele>
        <time>2020-11-14T10:46:27Z</time>
      </trkpt>
      <trkpt lat="38.9049270" lon="-0.3126470">
        <ele>187.3</ele>
        <time>2020-11-14T10:46:28Z</time>
      </trkpt>
      <trkpt lat="38.9048790" lon="-0.3127270">
        <ele>187.0</ele>
        <time>2020-11-14T10:46:29Z</time>
      </trkpt>
      <trkpt lat="38.9048330" lon="-0.3128130">
        <ele>186.4</ele>
        <time>2020-11-14T10:46:30Z</time>
      </trkpt>
      <trkpt lat="38.9048090" lon="-0.3129070">
        <ele>185.8</ele>
        <time>2020-11-14T10:46:31Z</time>
      </trkpt>
      <trkpt lat="38.9047980" lon="-0.3130040">
        <ele>185.3</ele>
        <time>2020-11-14T10:46:32Z</time>
      </trkpt>
      <trkpt lat="38.9047930" lon="-0.3131090">
        <ele>184.8</ele>
        <time>2020-11-14T10:46:33Z</time>
      </trkpt>
      <trkpt lat="38.9047920" lon="-0.3132180">
        <ele>184.4</ele>
        <time>2020-11-14T10:46:34Z</time>
      </trkpt>
      <trkpt lat="38.9048000" lon="-0.3133360">
        <ele>184.0</ele>
        <time>2020-11-14T10:46:35Z</time>
      </trkpt>
      <trkpt lat="38.9048230" lon="-0.3134390">
        <ele>183.6</ele>
        <time>2020-11-14T10:46:36Z</time>
      </trkpt>
      <trkpt lat="38.9048590" lon="-0.3135390">
        <ele>183.3</ele>
        <time>2020-11-14T10:46:37Z</time>
      </trkpt>
      <trkpt lat="38.9048690" lon="-0.3136340">
        <ele>183.1</ele>
        <time>2020-11-14T10:46:38Z</time>
      </trkpt>
      <trkpt lat="38.9048890" lon="-0.3137310">
        <ele>183.0</ele>
        <time>2020-11-14T10:46:39Z</time>
      </trkpt>
      <trkpt lat="38.9049080" lon="-0.3138260">
        <ele>182.8</ele>
        <time>2020-11-14T10:46:40Z</time>
      </trkpt>
      <trkpt lat="38.9049290" lon="-0.3139130">
        <ele>182.7</ele>
        <time>2020-11-14T10:46:41Z</time>
      </trkpt>
      <trkpt lat="38.9049350" lon="-0.3140000">
        <ele>182.6</ele>
        <time>2020-11-14T10:46:42Z</time>
      </trkpt>
      <trkpt lat="38.9049280" lon="-0.3141000">
        <ele>182.4</ele>
        <time>2020-11-14T10:46:43Z</time>
      </trkpt>
      <trkpt lat="38.9049100" lon="-0.3141910">
        <ele>183.6</ele>
        <time>2020-11-14T10:46:44Z</time>
      </trkpt>
      <trkpt lat="38.9048450" lon="-0.3142750">
        <ele>183.5</ele>
        <time>2020-11-14T10:46:45Z</time>
      </trkpt>
      <trkpt lat="38.9048170" lon="-0.3143290">
        <ele>183.3</ele>
        <time>2020-11-14T10:46:46Z</time>
      </trkpt>
      <trkpt lat="38.9047790" lon="-0.3143750">
        <ele>183.2</ele>
        <time>2020-11-14T10:46:47Z</time>
      </trkpt>
      <trkpt lat="38.9047390" lon="-0.3144100">
        <ele>183.4</ele>
        <time>2020-11-14T10:46:48Z</time>
      </trkpt>
      <trkpt lat="38.9046950" lon="-0.3144470">
        <ele>183.5</ele>
        <time>2020-11-14T10:46:49Z</time>
      </trkpt>
      <trkpt lat="38.9046430" lon="-0.3144650">
        <ele>183.7</ele>
        <time>2020-11-14T10:46:50Z</time>
      </trkpt>
      <trkpt lat="38.9045940" lon="-0.3144790">
        <ele>183.8</ele>
        <time>2020-11-14T10:46:51Z</time>
      </trkpt>
      <trkpt lat="38.9045320" lon="-0.3144870">
        <ele>183.9</ele>
        <time>2020-11-14T10:46:52Z</time>
      </trkpt>
      <trkpt lat="38.9044820" lon="-0.3145040">
        <ele>184.1</ele>
        <time>2020-11-14T10:46:53Z</time>
      </trkpt>
      <trkpt lat="38.9044180" lon="-0.3145140">
        <ele>184.3</ele>
        <time>2020-11-14T10:46:54Z</time>
      </trkpt>
      <trkpt lat="38.9043620" lon="-0.3145220">
        <ele>184.5</ele>
        <time>2020-11-14T10:46:55Z</time>
      </trkpt>
      <trkpt lat="38.9043040" lon="-0.3145240">
        <ele>184.7</ele>
        <time>2020-11-14T10:46:56Z</time>
      </trkpt>
      <trkpt lat="38.9042550" lon="-0.3145310">
        <ele>184.9</ele>
        <time>2020-11-14T10:46:57Z</time>
      </trkpt>
      <trkpt lat="38.9042010" lon="-0.3145350">
        <ele>185.0</ele>
        <time>2020-11-14T10:46:58Z</time>
      </trkpt>
      <trkpt lat="38.9041400" lon="-0.3145450">
        <ele>185.2</ele>
        <time>2020-11-14T10:46:59Z</time>
      </trkpt>
      <trkpt lat="38.9040850" lon="-0.3145560">
        <ele>185.4</ele>
        <time>2020-11-14T10:47:00Z</time>
      </trkpt>
      <trkpt lat="38.9040240" lon="-0.3145510">
        <ele>185.6</ele>
        <time>2020-11-14T10:47:01Z</time>
      </trkpt>
      <trkpt lat="38.9039730" lon="-0.3145590">
        <ele>185.8</ele>
        <time>2020-11-14T10:47:02Z</time>
      </trkpt>
      <trkpt lat="38.9039320" lon="-0.3145650">
        <ele>186.0</ele>
        <time>2020-11-14T10:47:03Z</time>
      </trkpt>
      <trkpt lat="38.9038820" lon="-0.3145630">
        <ele>186.2</ele>
        <time>2020-11-14T10:47:04Z</time>
      </trkpt>
      <trkpt lat="38.9038320" lon="-0.3145700">
        <ele>186.4</ele>
        <time>2020-11-14T10:47:05Z</time>
      </trkpt>
      <trkpt lat="38.9037840" lon="-0.3145700">
        <ele>186.6</ele>
        <time>2020-11-14T10:47:06Z</time>
      </trkpt>
      <trkpt lat="38.9037270" lon="-0.3145740">
        <ele>186.9</ele>
        <time>2020-11-14T10:47:07Z</time>
      </trkpt>
      <trkpt lat="38.9036820" lon="-0.3145670">
        <ele>187.2</ele>
        <time>2020-11-14T10:47:08Z</time>
      </trkpt>
      <trkpt lat="38.9036350" lon="-0.3145710">
        <ele>187.4</ele>
        <time>2020-11-14T10:47:09Z</time>
      </trkpt>
      <trkpt lat="38.9035890" lon="-0.3145870">
        <ele>187.7</ele>
        <time>2020-11-14T10:47:10Z</time>
      </trkpt>
      <trkpt lat="38.9035660" lon="-0.3145890">
        <ele>187.9</ele>
        <time>2020-11-14T10:47:11Z</time>
      </trkpt>
      <trkpt lat="38.9035310" lon="-0.3146260">
        <ele>188.2</ele>
        <time>2020-11-14T10:47:12Z</time>
      </trkpt>
      <trkpt lat="38.9035130" lon="-0.3146380">
        <ele>188.3</ele>
        <time>2020-11-14T10:47:13Z</time>
      </trkpt>
      <trkpt lat="38.9034860" lon="-0.3146690">
        <ele>188.5</ele>
        <time>2020-11-14T10:47:14Z</time>
      </trkpt>
      <trkpt lat="38.9034540" lon="-0.3147150">
        <ele>188.8</ele>
        <time>2020-11-14T10:47:15Z</time>
      </trkpt>
      <trkpt lat="38.9034280" lon="-0.3147320">
        <ele>189.0</ele>
        <time>2020-11-14T10:47:16Z</time>
      </trkpt>
      <trkpt lat="38.9033960" lon="-0.3147560">
        <ele>189.2</ele>
        <time>2020-11-14T10:47:17Z</time>
      </trkpt>
      <trkpt lat="38.9033700" lon="-0.3147840">
        <ele>189.4</ele>
        <time>2020-11-14T10:47:18Z</time>
      </trkpt>
      <trkpt lat="38.9033510" lon="-0.3148150">
        <ele>189.6</ele>
        <time>2020-11-14T10:47:19Z</time>
      </trkpt>
      <trkpt lat="38.9033310" lon="-0.3148460">
        <ele>189.8</ele>
        <time>2020-11-14T10:47:20Z</time>
      </trkpt>
      <trkpt lat="38.9033060" lon="-0.3148820">
        <ele>190.0</ele>
        <time>2020-11-14T10:47:21Z</time>
      </trkpt>
      <trkpt lat="38.9032830" lon="-0.3149160">
        <ele>190.3</ele>
        <time>2020-11-14T10:47:22Z</time>
      </trkpt>
      <trkpt lat="38.9032620" lon="-0.3149470">
        <ele>190.5</ele>
        <time>2020-11-14T10:47:23Z</time>
      </trkpt>
      <trkpt lat="38.9032410" lon="-0.3149770">
        <ele>190.7</ele>
        <time>2020-11-14T10:47:24Z</time>
      </trkpt>
      <trkpt lat="38.9032200" lon="-0.3150000">
        <ele>190.9</ele>
        <time>2020-11-14T10:47:25Z</time>
      </trkpt>
      <trkpt lat="38.9032000" lon="-0.3150270">
        <ele>191.1</ele>
        <time>2020-11-14T10:47:26Z</time>
      </trkpt>
      <trkpt lat="38.9031800" lon="-0.3150510">
        <ele>191.3</ele>
        <time>2020-11-14T10:47:27Z</time>
      </trkpt>
      <trkpt lat="38.9031570" lon="-0.3150790">
        <ele>191.4</ele>
        <time>2020-11-14T10:47:28Z</time>
      </trkpt>
      <trkpt lat="38.9031330" lon="-0.3151090">
        <ele>191.6</ele>
        <time>2020-11-14T10:47:29Z</time>
      </trkpt>
      <trkpt lat="38.9031100" lon="-0.3151400">
        <ele>191.8</ele>
        <time>2020-11-14T10:47:30Z</time>
      </trkpt>
      <trkpt lat="38.9030870" lon="-0.3151710">
        <ele>192.0</ele>
        <time>2020-11-14T10:47:31Z</time>
      </trkpt>
      <trkpt lat="38.9030660" lon="-0.3152020">
        <ele>192.2</ele>
        <time>2020-11-14T10:47:32Z</time>
      </trkpt>
      <trkpt lat="38.9030430" lon="-0.3152350">
        <ele>192.4</ele>
        <time>2020-11-14T10:47:33Z</time>
      </trkpt>
      <trkpt lat="38.9030160" lon="-0.3152680">
        <ele>192.6</ele>
        <time>2020-11-14T10:47:34Z</time>
      </trkpt>
      <trkpt lat="38.9029910" lon="-0.3152970">
        <ele>192.7</ele>
        <time>2020-11-14T10:47:35Z</time>
      </trkpt>
      <trkpt lat="38.9029630" lon="-0.3153270">
        <ele>192.9</ele>
        <time>2020-11-14T10:47:36Z</time>
      </trkpt>
      <trkpt lat="38.9029350" lon="-0.3153580">
        <ele>193.1</ele>
        <time>2020-11-14T10:47:37Z</time>
      </trkpt>
      <trkpt lat="38.9029090" lon="-0.3153900">
        <ele>193.3</ele>
        <time>2020-11-14T10:47:38Z</time>
      </trkpt>
      <trkpt lat="38.9028820" lon="-0.3154200">
        <ele>193.5</ele>
        <time>2020-11-14T10:47:39Z</time>
      </trkpt>
      <trkpt lat="38.9028560" lon="-0.3154510">
        <ele>193.6</ele>
        <time>2020-11-14T10:47:40Z</time>
      </trkpt>
      <trkpt lat="38.9028290" lon="-0.3154870">
        <ele>193.8</ele>
        <time>2020-11-14T10:47:41Z</time>
      </trkpt>
      <trkpt lat="38.9028050" lon="-0.3155190">
        <ele>193.9</ele>
        <time>2020-11-14T10:47:42Z</time>
      </trkpt>
      <trkpt lat="38.9027830" lon="-0.3155510">
        <ele>194.1</ele>
        <time>2020-11-14T10:47:43Z</time>
      </trkpt>
      <trkpt lat="38.9027590" lon="-0.3155870">
        <ele>194.2</ele>
        <time>2020-11-14T10:47:44Z</time>
      </trkpt>
      <trkpt lat="38.9027310" lon="-0.3156210">
        <ele>194.4</ele>
        <time>2020-11-14T10:47:45Z</time>
      </trkpt>
      <trkpt lat="38.9027040" lon="-0.3156530">
        <ele>194.5</ele>
        <time>2020-11-14T10:47:46Z</time>
      </trkpt>
      <trkpt lat="38.9026780" lon="-0.3156870">
        <ele>194.7</ele>
        <time>2020-11-14T10:47:47Z</time>
      </trkpt>
      <trkpt lat="38.9026550" lon="-0.3157180">
        <ele>194.8</ele>
        <time>2020-11-14T10:47:48Z</time>
      </trkpt>
      <trkpt lat="38.9026300" lon="-0.3157490">
        <ele>195.0</ele>
        <time>2020-11-14T10:47:49Z</time>
      </trkpt>
      <trkpt lat="38.9026030" lon="-0.3157810">
        <ele>195.1</ele>
        <time>2020-11-14T10:47:50Z</time>
      </trkpt>
      <trkpt lat="38.9025780" lon="-0.3158130">
        <ele>195.2</ele>
        <time>2020-11-14T10:47:51Z</time>
      </trkpt>
      <trkpt lat="38.9025530" lon="-0.3158440">
        <ele>195.4</ele>
        <time>2020-11-14T10:47:52Z</time>
      </trkpt>
      <trkpt lat="38.9025280" lon="-0.3158750">
        <ele>195.5</ele>
        <time>2020-11-14T10:47:53Z</time>
      </trkpt>
      <trkpt lat="38.9025010" lon="-0.3159070">
        <ele>195.6</ele>
        <time>2020-11-14T10:47:54Z</time>
      </trkpt>
      <trkpt lat="38.9024730" lon="-0.3159420">
        <ele>195.7</ele>
        <time>2020-11-14T10:47:55Z</time>
      </trkpt>
      <trkpt lat="38.9024420" lon="-0.3159770">
        <ele>195.8</ele>
        <time>2020-11-14T10:47:56Z</time>
      </trkpt>
      <trkpt lat="38.9024130" lon="-0.3160110">
        <ele>196.0</ele>
        <time>2020-11-14T10:47:57Z</time>
      </trkpt>
      <trkpt lat="38.9023850" lon="-0.3160440">
        <ele>196.1</ele>
        <time>2020-11-14T10:47:58Z</time>
      </trkpt>
      <trkpt lat="38.9023560" lon="-0.3160770">
        <ele>196.2</ele>
        <time>2020-11-14T10:47:59Z</time>
      </trkpt>
      <trkpt lat="38.9023260" lon="-0.3161080">
        <ele>196.3</ele>
        <time>2020-11-14T10:48:00Z</time>
      </trkpt>
      <trkpt lat="38.9022960" lon="-0.3161400">
        <ele>196.4</ele>
        <time>2020-11-14T10:48:01Z</time>
      </trkpt>
      <trkpt lat="38.9022700" lon="-0.3161760">
        <ele>196.5</ele>
        <time>2020-11-14T10:48:02Z</time>
      </trkpt>
      <trkpt lat="38.9022450" lon="-0.3162120">
        <ele>196.6</ele>
        <time>2020-11-14T10:48:03Z</time>
      </trkpt>
      <trkpt lat="38.9022190" lon="-0.3162500">
        <ele>196.7</ele>
        <time>2020-11-14T10:48:04Z</time>
      </trkpt>
      <trkpt lat="38.9021870" lon="-0.3162870">
        <ele>196.8</ele>
        <time>2020-11-14T10:48:05Z</time>
      </trkpt>
      <trkpt lat="38.9021600" lon="-0.3163230">
        <ele>196.8</ele>
        <time>2020-11-14T10:48:06Z</time>
      </trkpt>
      <trkpt lat="38.9021340" lon="-0.3163590">
        <ele>196.9</ele>
        <time>2020-11-14T10:48:07Z</time>
      </trkpt>
      <trkpt lat="38.9021090" lon="-0.3163960">
        <ele>197.0</ele>
        <time>2020-11-14T10:48:08Z</time>
      </trkpt>
      <trkpt lat="38.9020790" lon="-0.3164350">
        <ele>197.1</ele>
        <time>2020-11-14T10:48:09Z</time>
      </trkpt>
      <trkpt lat="38.9020500" lon="-0.3164740">
        <ele>197.2</ele>
        <time>2020-11-14T10:48:10Z</time>
      </trkpt>
      <trkpt lat="38.9020210" lon="-0.3165090">
        <ele>197.3</ele>
        <time>2020-11-14T10:48:11Z</time>
      </trkpt>
      <trkpt lat="38.9019930" lon="-0.3165460">
        <ele>197.4</ele>
        <time>2020-11-14T10:48:12Z</time>
      </trkpt>
      <trkpt lat="38.9019670" lon="-0.3165840">
        <ele>197.5</ele>
        <time>2020-11-14T10:48:13Z</time>
      </trkpt>
      <trkpt lat="38.9019410" lon="-0.3166210">
        <ele>197.6</ele>
        <time>2020-11-14T10:48:14Z</time>
      </trkpt>
      <trkpt lat="38.9019150" lon="-0.3166570">
        <ele>197.7</ele>
        <time>2020-11-14T10:48:15Z</time>
      </trkpt>
      <trkpt lat="38.9018890" lon="-0.3166920">
        <ele>197.8</ele>
        <time>2020-11-14T10:48:16Z</time>
      </trkpt>
      <trkpt lat="38.9018620" lon="-0.3167270">
        <ele>197.9</ele>
        <time>2020-11-14T10:48:17Z</time>
      </trkpt>
      <trkpt lat="38.9018360" lon="-0.3167620">
        <ele>198.0</ele>
        <time>2020-11-14T10:48:18Z</time>
      </trkpt>
      <trkpt lat="38.9018100" lon="-0.3167970">
        <ele>198.1</ele>
        <time>2020-11-14T10:48:19Z</time>
      </trkpt>
      <trkpt lat="38.9017830" lon="-0.3168340">
        <ele>198.2</ele>
        <time>2020-11-14T10:48:20Z</time>
      </trkpt>
      <trkpt lat="38.9017590" lon="-0.3168650">
        <ele>198.3</ele>
        <time>2020-11-14T10:48:21Z</time>
      </trkpt>
      <trkpt lat="38.9017330" lon="-0.3168970">
        <ele>198.4</ele>
        <time>2020-11-14T10:48:22Z</time>
      </trkpt>
      <trkpt lat="38.9017050" lon="-0.3169360">
        <ele>198.5</ele>
        <time>2020-11-14T10:48:23Z</time>
      </trkpt>
      <trkpt lat="38.9016780" lon="-0.3169740">
        <ele>198.6</ele>
        <time>2020-11-14T10:48:24Z</time>
      </trkpt>
      <trkpt lat="38.9016510" lon="-0.3170160">
        <ele>198.7</ele>
        <time>2020-11-14T10:48:25Z</time>
      </trkpt>
      <trkpt lat="38.9016230" lon="-0.3170580">
        <ele>198.9</ele>
        <time>2020-11-14T10:48:26Z</time>
      </trkpt>
      <trkpt lat="38.9015970" lon="-0.3171070">
        <ele>199.0</ele>
        <time>2020-11-14T10:48:27Z</time>
      </trkpt>
      <trkpt lat="38.9015690" lon="-0.3171520">
        <ele>199.2</ele>
        <time>2020-11-14T10:48:28Z</time>
      </trkpt>
      <trkpt lat="38.9015440" lon="-0.3171950">
        <ele>199.3</ele>
        <time>2020-11-14T10:48:29Z</time>
      </trkpt>
      <trkpt lat="38.9015230" lon="-0.3172370">
        <ele>199.4</ele>
        <time>2020-11-14T10:48:30Z</time>
      </trkpt>
      <trkpt lat="38.9014980" lon="-0.3172810">
        <ele>199.5</ele>
        <time>2020-11-14T10:48:31Z</time>
      </trkpt>
      <trkpt lat="38.9014730" lon="-0.3173140">
        <ele>199.6</ele>
        <time>2020-11-14T10:48:32Z</time>
      </trkpt>
      <trkpt lat="38.9014500" lon="-0.3173590">
        <ele>199.7</ele>
        <time>2020-11-14T10:48:33Z</time>
      </trkpt>
      <trkpt lat="38.9014050" lon="-0.3174030">
        <ele>199.8</ele>
        <time>2020-11-14T10:48:34Z</time>
      </trkpt>
      <trkpt lat="38.9013580" lon="-0.3174470">
        <ele>200.0</ele>
        <time>2020-11-14T10:48:35Z</time>
      </trkpt>
      <trkpt lat="38.9013280" lon="-0.3174880">
        <ele>200.1</ele>
        <time>2020-11-14T10:48:36Z</time>
      </trkpt>
      <trkpt lat="38.9012940" lon="-0.3175220">
        <ele>200.3</ele>
        <time>2020-11-14T10:48:37Z</time>
      </trkpt>
      <trkpt lat="38.9012720" lon="-0.3175670">
        <ele>200.4</ele>
        <time>2020-11-14T10:48:38Z</time>
      </trkpt>
      <trkpt lat="38.9012470" lon="-0.3176090">
        <ele>200.6</ele>
        <time>2020-11-14T10:48:39Z</time>
      </trkpt>
      <trkpt lat="38.9012160" lon="-0.3176540">
        <ele>200.8</ele>
        <time>2020-11-14T10:48:40Z</time>
      </trkpt>
      <trkpt lat="38.9011900" lon="-0.3176930">
        <ele>200.9</ele>
        <time>2020-11-14T10:48:41Z</time>
      </trkpt>
      <trkpt lat="38.9011640" lon="-0.3177230">
        <ele>201.1</ele>
        <time>2020-11-14T10:48:42Z</time>
      </trkpt>
      <trkpt lat="38.9011380" lon="-0.3177570">
        <ele>201.3</ele>
        <time>2020-11-14T10:48:43Z</time>
      </trkpt>
      <trkpt lat="38.9011130" lon="-0.3177880">
        <ele>201.4</ele>
        <time>2020-11-14T10:48:44Z</time>
      </trkpt>
      <trkpt lat="38.9010890" lon="-0.3178210">
        <ele>201.6</ele>
        <time>2020-11-14T10:48:45Z</time>
      </trkpt>
      <trkpt lat="38.9010460" lon="-0.3178520">
        <ele>201.8</ele>
        <time>2020-11-14T10:48:46Z</time>
      </trkpt>
      <trkpt lat="38.9010210" lon="-0.3178860">
        <ele>202.0</ele>
        <time>2020-11-14T10:48:47Z</time>
      </trkpt>
      <trkpt lat="38.9009980" lon="-0.3179130">
        <ele>202.1</ele>
        <time>2020-11-14T10:48:48Z</time>
      </trkpt>
      <trkpt lat="38.9009770" lon="-0.3179460">
        <ele>202.2</ele>
        <time>2020-11-14T10:48:49Z</time>
      </trkpt>
      <trkpt lat="38.9009550" lon="-0.3179810">
        <ele>202.4</ele>
        <time>2020-11-14T10:48:50Z</time>
      </trkpt>
      <trkpt lat="38.9009320" lon="-0.3180140">
        <ele>202.5</ele>
        <time>2020-11-14T10:48:51Z</time>
      </trkpt>
      <trkpt lat="38.9009090" lon="-0.3180490">
        <ele>202.7</ele>
        <time>2020-11-14T10:48:52Z</time>
      </trkpt>
      <trkpt lat="38.9008850" lon="-0.3180820">
        <ele>202.8</ele>
        <time>2020-11-14T10:48:53Z</time>
      </trkpt>
      <trkpt lat="38.9008610" lon="-0.3181150">
        <ele>202.9</ele>
        <time>2020-11-14T10:48:54Z</time>
      </trkpt>
      <trkpt lat="38.9008380" lon="-0.3181480">
        <ele>203.1</ele>
        <time>2020-11-14T10:48:55Z</time>
      </trkpt>
      <trkpt lat="38.9008140" lon="-0.3181810">
        <ele>203.2</ele>
        <time>2020-11-14T10:48:56Z</time>
      </trkpt>
      <trkpt lat="38.9007910" lon="-0.3182140">
        <ele>203.3</ele>
        <time>2020-11-14T10:48:57Z</time>
      </trkpt>
      <trkpt lat="38.9007660" lon="-0.3182480">
        <ele>203.5</ele>
        <time>2020-11-14T10:48:58Z</time>
      </trkpt>
      <trkpt lat="38.9007420" lon="-0.3182820">
        <ele>203.6</ele>
        <time>2020-11-14T10:48:59Z</time>
      </trkpt>
      <trkpt lat="38.9007200" lon="-0.3183180">
        <ele>203.7</ele>
        <time>2020-11-14T10:49:00Z</time>
      </trkpt>
      <trkpt lat="38.9006970" lon="-0.3183540">
        <ele>203.8</ele>
        <time>2020-11-14T10:49:01Z</time>
      </trkpt>
      <trkpt lat="38.9006760" lon="-0.3183890">
        <ele>204.0</ele>
        <time>2020-11-14T10:49:02Z</time>
      </trkpt>
      <trkpt lat="38.9006560" lon="-0.3184260">
        <ele>204.1</ele>
        <time>2020-11-14T10:49:03Z</time>
      </trkpt>
      <trkpt lat="38.9006340" lon="-0.3184690">
        <ele>204.2</ele>
        <time>2020-11-14T10:49:04Z</time>
      </trkpt>
      <trkpt lat="38.9006160" lon="-0.3185110">
        <ele>204.4</ele>
        <time>2020-11-14T10:49:05Z</time>
      </trkpt>
      <trkpt lat="38.9005990" lon="-0.3185540">
        <ele>204.5</ele>
        <time>2020-11-14T10:49:06Z</time>
      </trkpt>
      <trkpt lat="38.9005820" lon="-0.3185930">
        <ele>204.6</ele>
        <time>2020-11-14T10:49:07Z</time>
      </trkpt>
      <trkpt lat="38.9005670" lon="-0.3186320">
        <ele>204.8</ele>
        <time>2020-11-14T10:49:08Z</time>
      </trkpt>
      <trkpt lat="38.9005500" lon="-0.3186750">
        <ele>204.9</ele>
        <time>2020-11-14T10:49:09Z</time>
      </trkpt>
      <trkpt lat="38.9005330" lon="-0.3187160">
        <ele>205.1</ele>
        <time>2020-11-14T10:49:10Z</time>
      </trkpt>
      <trkpt lat="38.9005110" lon="-0.3187580">
        <ele>205.2</ele>
        <time>2020-11-14T10:49:11Z</time>
      </trkpt>
      <trkpt lat="38.9004890" lon="-0.3187980">
        <ele>205.4</ele>
        <time>2020-11-14T10:49:12Z</time>
      </trkpt>
      <trkpt lat="38.9004680" lon="-0.3188380">
        <ele>205.5</ele>
        <time>2020-11-14T10:49:13Z</time>
      </trkpt>
      <trkpt lat="38.9004480" lon="-0.3188770">
        <ele>205.7</ele>
        <time>2020-11-14T10:49:14Z</time>
      </trkpt>
      <trkpt lat="38.9004280" lon="-0.3189180">
        <ele>205.8</ele>
        <time>2020-11-14T10:49:15Z</time>
      </trkpt>
      <trkpt lat="38.9004150" lon="-0.3189600">
        <ele>205.9</ele>
        <time>2020-11-14T10:49:16Z</time>
      </trkpt>
      <trkpt lat="38.9004040" lon="-0.3190030">
        <ele>206.0</ele>
        <time>2020-11-14T10:49:17Z</time>
      </trkpt>
      <trkpt lat="38.9003920" lon="-0.3190450">
        <ele>206.1</ele>
        <time>2020-11-14T10:49:18Z</time>
      </trkpt>
      <trkpt lat="38.9003800" lon="-0.3190850">
        <ele>206.3</ele>
        <time>2020-11-14T10:49:19Z</time>
      </trkpt>
      <trkpt lat="38.9003620" lon="-0.3191250">
        <ele>206.4</ele>
        <time>2020-11-14T10:49:20Z</time>
      </trkpt>
      <trkpt lat="38.9003410" lon="-0.3191640">
        <ele>206.5</ele>
        <time>2020-11-14T10:49:21Z</time>
      </trkpt>
      <trkpt lat="38.9003200" lon="-0.3192030">
        <ele>206.6</ele>
        <time>2020-11-14T10:49:22Z</time>
      </trkpt>
      <trkpt lat="38.9003010" lon="-0.3192400">
        <ele>206.7</ele>
        <time>2020-11-14T10:49:23Z</time>
      </trkpt>
      <trkpt lat="38.9002850" lon="-0.3192780">
        <ele>206.8</ele>
        <time>2020-11-14T10:49:24Z</time>
      </trkpt>
      <trkpt lat="38.9002680" lon="-0.3193150">
        <ele>206.9</ele>
        <time>2020-11-14T10:49:25Z</time>
      </trkpt>
      <trkpt lat="38.9002520" lon="-0.3193510">
        <ele>207.0</ele>
        <time>2020-11-14T10:49:26Z</time>
      </trkpt>
      <trkpt lat="38.9002300" lon="-0.3193890">
        <ele>207.1</ele>
        <time>2020-11-14T10:49:27Z</time>
      </trkpt>
      <trkpt lat="38.9002060" lon="-0.3194280">
        <ele>207.2</ele>
        <time>2020-11-14T10:49:28Z</time>
      </trkpt>
      <trkpt lat="38.9001770" lon="-0.3194650">
        <ele>207.3</ele>
        <time>2020-11-14T10:49:29Z</time>
      </trkpt>
      <trkpt lat="38.9001460" lon="-0.3195000">
        <ele>207.4</ele>
        <time>2020-11-14T10:49:30Z</time>
      </trkpt>
      <trkpt lat="38.9001170" lon="-0.3195340">
        <ele>207.5</ele>
        <time>2020-11-14T10:49:31Z</time>
      </trkpt>
      <trkpt lat="38.9000920" lon="-0.3195660">
        <ele>207.6</ele>
        <time>2020-11-14T10:49:32Z</time>
      </trkpt>
      <trkpt lat="38.9000690" lon="-0.3195990">
        <ele>207.7</ele>
        <time>2020-11-14T10:49:33Z</time>
      </trkpt>
      <trkpt lat="38.9000460" lon="-0.3196390">
        <ele>207.7</ele>
        <time>2020-11-14T10:49:34Z</time>
      </trkpt>
      <trkpt lat="38.9000240" lon="-0.3196830">
        <ele>207.8</ele>
        <time>2020-11-14T10:49:35Z</time>
      </trkpt>
      <trkpt lat="38.9000020" lon="-0.3197290">
        <ele>207.9</ele>
        <time>2020-11-14T10:49:36Z</time>
      </trkpt>
      <trkpt lat="38.8999780" lon="-0.3197880">
        <ele>208.0</ele>
        <time>2020-11-14T10:49:37Z</time>
      </trkpt>
      <trkpt lat="38.8999550" lon="-0.3198260">
        <ele>208.1</ele>
        <time>2020-11-14T10:49:38Z</time>
      </trkpt>
      <trkpt lat="38.8999250" lon="-0.3198670">
        <ele>208.2</ele>
        <time>2020-11-14T10:49:39Z</time>
      </trkpt>
      <trkpt lat="38.8998940" lon="-0.3199080">
        <ele>208.3</ele>
        <time>2020-11-14T10:49:40Z</time>
      </trkpt>
      <trkpt lat="38.8998730" lon="-0.3199510">
        <ele>208.3</ele>
        <time>2020-11-14T10:49:41Z</time>
      </trkpt>
      <trkpt lat="38.8998480" lon="-0.3199950">
        <ele>208.4</ele>
        <time>2020-11-14T10:49:42Z</time>
      </trkpt>
      <trkpt lat="38.8998250" lon="-0.3200370">
        <ele>208.5</ele>
        <time>2020-11-14T10:49:43Z</time>
      </trkpt>
      <trkpt lat="38.8998040" lon="-0.3200840">
        <ele>208.6</ele>
        <time>2020-11-14T10:49:44Z</time>
      </trkpt>
      <trkpt lat="38.8997860" lon="-0.3201230">
        <ele>208.7</ele>
        <time>2020-11-14T10:49:45Z</time>
      </trkpt>
      <trkpt lat="38.8997530" lon="-0.3201700">
        <ele>208.8</ele>
        <time>2020-11-14T10:49:46Z</time>
      </trkpt>
      <trkpt lat="38.8997200" lon="-0.3202150">
        <ele>208.9</ele>
        <time>2020-11-14T10:49:47Z</time>
      </trkpt>
      <trkpt lat="38.8996880" lon="-0.3202640">
        <ele>209.0</ele>
        <time>2020-11-14T10:49:48Z</time>
      </trkpt>
      <trkpt lat="38.8996650" lon="-0.3203160">
        <ele>209.1</ele>
        <time>2020-11-14T10:49:49Z</time>
      </trkpt>
      <trkpt lat="38.8996590" lon="-0.3203540">
        <ele>209.2</ele>
        <time>2020-11-14T10:49:50Z</time>
      </trkpt>
      <trkpt lat="38.8996300" lon="-0.3203960">
        <ele>209.3</ele>
        <time>2020-11-14T10:49:51Z</time>
      </trkpt>
      <trkpt lat="38.8995990" lon="-0.3204410">
        <ele>209.4</ele>
        <time>2020-11-14T10:49:52Z</time>
      </trkpt>
      <trkpt lat="38.8995730" lon="-0.3204880">
        <ele>209.5</ele>
        <time>2020-11-14T10:49:53Z</time>
      </trkpt>
      <trkpt lat="38.8995450" lon="-0.3205390">
        <ele>209.6</ele>
        <time>2020-11-14T10:49:54Z</time>
      </trkpt>
      <trkpt lat="38.8995120" lon="-0.3205780">
        <ele>209.7</ele>
        <time>2020-11-14T10:49:55Z</time>
      </trkpt>
      <trkpt lat="38.8994900" lon="-0.3206290">
        <ele>209.8</ele>
        <time>2020-11-14T10:49:56Z</time>
      </trkpt>
      <trkpt lat="38.8994640" lon="-0.3206690">
        <ele>209.9</ele>
        <time>2020-11-14T10:49:57Z</time>
      </trkpt>
      <trkpt lat="38.8994440" lon="-0.3207160">
        <ele>209.9</ele>
        <time>2020-11-14T10:49:58Z</time>
      </trkpt>
      <trkpt lat="38.8994390" lon="-0.3207610">
        <ele>210.0</ele>
        <time>2020-11-14T10:49:59Z</time>
      </trkpt>
      <trkpt lat="38.8994470" lon="-0.3207900">
        <ele>210.0</ele>
        <time>2020-11-14T10:50:00Z</time>
      </trkpt>
      <trkpt lat="38.8994410" lon="-0.3208060">
        <ele>210.0</ele>
        <time>2020-11-14T10:50:01Z</time>
      </trkpt>
      <trkpt lat="38.8994630" lon="-0.3208270">
        <ele>210.0</ele>
        <time>2020-11-14T10:50:02Z</time>
      </trkpt>
      <trkpt lat="38.8994690" lon="-0.3208270">
        <ele>210.0</ele>
        <time>2020-11-14T10:50:03Z</time>
      </trkpt>
      <trkpt lat="38.8994760" lon="-0.3208280">
        <ele>210.1</ele>
        <time>2020-11-14T10:50:04Z</time>
      </trkpt>
      <trkpt lat="38.8994770" lon="-0.3208290">
        <ele>210.1</ele>
        <time>2020-11-14T10:50:05Z</time>
      </trkpt>
      <trkpt lat="38.8994770" lon="-0.3208290">
        <ele>210.1</ele>
        <time>2020-11-14T10:50:06Z</time>
      </trkpt>
      <trkpt lat="38.8994770" lon="-0.3208290">
        <ele>210.1</ele>
        <time>2020-11-14T10:50:07Z</time>
      </trkpt>
      <trkpt lat="38.8994770" lon="-0.3208290">
        <ele>210.1</ele>
        <time>2020-11-14T10:50:08Z</time>
      </trkpt>
      <trkpt lat="38.8994770" lon="-0.3208290">
        <ele>210.1</ele>
        <time>2020-11-14T10:50:09Z</time>
      </trkpt>
      <trkpt lat="38.8994770" lon="-0.3208290">
        <ele>210.1</ele>
        <time>2020-11-14T10:50:10Z</time>
      </trkpt>
      <trkpt lat="38.8994770" lon="-0.3208290">
        <ele>210.1</ele>
        <time>2020-11-14T10:50:11Z</time>
      </trkpt>
      <trkpt lat="38.8994770" lon="-0.3208290">
        <ele>210.1</ele>
        <time>2020-11-14T10:50:12Z</time>
      </trkpt>
      <trkpt lat="38.8994770" lon="-0.3208290">
        <ele>210.1</ele>
        <time>2020-11-14T10:50:13Z</time>
      </trkpt>
      <trkpt lat="38.8994770" lon="-0.3208290">
        <ele>210.1</ele>
        <time>2020-11-14T10:50:14Z</time>
      </trkpt>
      <trkpt lat="38.8994770" lon="-0.3208290">
        <ele>210.1</ele>
        <time>2020-11-14T10:50:15Z</time>
      </trkpt>
      <trkpt lat="38.8994770" lon="-0.3208290">
        <ele>210.1</ele>
        <time>2020-11-14T10:50:16Z</time>
      </trkpt>
      <trkpt lat="38.8994860" lon="-0.3208870">
        <ele>210.1</ele>
        <time>2020-11-14T10:50:39Z</time>
      </trkpt>
      <trkpt lat="38.8994790" lon="-0.3209100">
        <ele>210.1</ele>
        <time>2020-11-14T10:50:40Z</time>
      </trkpt>
      <trkpt lat="38.8994550" lon="-0.3209460">
        <ele>210.2</ele>
        <time>2020-11-14T10:50:41Z</time>
      </trkpt>
      <trkpt lat="38.8994440" lon="-0.3209560">
        <ele>210.2</ele>
        <time>2020-11-14T10:50:42Z</time>
      </trkpt>
      <trkpt lat="38.8994120" lon="-0.3209760">
        <ele>210.2</ele>
        <time>2020-11-14T10:50:43Z</time>
      </trkpt>
      <trkpt lat="38.8993780" lon="-0.3209920">
        <ele>210.3</ele>
        <time>2020-11-14T10:50:44Z</time>
      </trkpt>
      <trkpt lat="38.8993430" lon="-0.3210100">
        <ele>210.4</ele>
        <time>2020-11-14T10:50:45Z</time>
      </trkpt>
      <trkpt lat="38.8993110" lon="-0.3210340">
        <ele>210.5</ele>
        <time>2020-11-14T10:50:46Z</time>
      </trkpt>
      <trkpt lat="38.8992800" lon="-0.3210590">
        <ele>210.5</ele>
        <time>2020-11-14T10:50:47Z</time>
      </trkpt>
      <trkpt lat="38.8992490" lon="-0.3210900">
        <ele>210.7</ele>
        <time>2020-11-14T10:50:48Z</time>
      </trkpt>
      <trkpt lat="38.8992160" lon="-0.3211220">
        <ele>210.8</ele>
        <time>2020-11-14T10:50:49Z</time>
      </trkpt>
      <trkpt lat="38.8991850" lon="-0.3211550">
        <ele>210.9</ele>
        <time>2020-11-14T10:50:50Z</time>
      </trkpt>
      <trkpt lat="38.8991530" lon="-0.3211920">
        <ele>211.1</ele>
        <time>2020-11-14T10:50:51Z</time>
      </trkpt>
      <trkpt lat="38.8991250" lon="-0.3212310">
        <ele>211.2</ele>
        <time>2020-11-14T10:50:52Z</time>
      </trkpt>
      <trkpt lat="38.8990760" lon="-0.3212650">
        <ele>211.4</ele>
        <time>2020-11-14T10:50:53Z</time>
      </trkpt>
      <trkpt lat="38.8990530" lon="-0.3213040">
        <ele>211.6</ele>
        <time>2020-11-14T10:50:54Z</time>
      </trkpt>
      <trkpt lat="38.8990330" lon="-0.3213510">
        <ele>211.7</ele>
        <time>2020-11-14T10:50:55Z</time>
      </trkpt>
      <trkpt lat="38.8990080" lon="-0.3214010">
        <ele>211.9</ele>
        <time>2020-11-14T10:50:56Z</time>
      </trkpt>
      <trkpt lat="38.8989850" lon="-0.3214530">
        <ele>212.1</ele>
        <time>2020-11-14T10:50:57Z</time>
      </trkpt>
      <trkpt lat="38.8989640" lon="-0.3215110">
        <ele>212.2</ele>
        <time>2020-11-14T10:50:58Z</time>
      </trkpt>
      <trkpt lat="38.8989350" lon="-0.3215650">
        <ele>212.3</ele>
        <time>2020-11-14T10:50:59Z</time>
      </trkpt>
      <trkpt lat="38.8989020" lon="-0.3216090">
        <ele>212.4</ele>
        <time>2020-11-14T10:51:00Z</time>
      </trkpt>
      <trkpt lat="38.8988680" lon="-0.3216610">
        <ele>212.4</ele>
        <time>2020-11-14T10:51:01Z</time>
      </trkpt>
      <trkpt lat="38.8988330" lon="-0.3217140">
        <ele>212.4</ele>
        <time>2020-11-14T10:51:02Z</time>
      </trkpt>
      <trkpt lat="38.8987920" lon="-0.3217770">
        <ele>212.4</ele>
        <time>2020-11-14T10:51:03Z</time>
      </trkpt>
      <trkpt lat="38.8987530" lon="-0.3218440">
        <ele>212.4</ele>
        <time>2020-11-14T10:51:04Z</time>
      </trkpt>
      <trkpt lat="38.8987170" lon="-0.3219010">
        <ele>212.4</ele>
        <time>2020-11-14T10:51:05Z</time>
      </trkpt>
      <trkpt lat="38.8986820" lon="-0.3219650">
        <ele>212.5</ele>
        <time>2020-11-14T10:51:06Z</time>
      </trkpt>
      <trkpt lat="38.8986230" lon="-0.3220140">
        <ele>212.6</ele>
        <time>2020-11-14T10:51:07Z</time>
      </trkpt>
      <trkpt lat="38.8985890" lon="-0.3220600">
        <ele>212.6</ele>
        <time>2020-11-14T10:51:08Z</time>
      </trkpt>
      <trkpt lat="38.8985380" lon="-0.3220990">
        <ele>212.7</ele>
        <time>2020-11-14T10:51:09Z</time>
      </trkpt>
      <trkpt lat="38.8984960" lon="-0.3221330">
        <ele>212.8</ele>
        <time>2020-11-14T10:51:10Z</time>
      </trkpt>
      <trkpt lat="38.8984450" lon="-0.3221450">
        <ele>213.1</ele>
        <time>2020-11-14T10:51:11Z</time>
      </trkpt>
      <trkpt lat="38.8983970" lon="-0.3221460">
        <ele>213.2</ele>
        <time>2020-11-14T10:51:12Z</time>
      </trkpt>
      <trkpt lat="38.8983490" lon="-0.3221470">
        <ele>213.3</ele>
        <time>2020-11-14T10:51:13Z</time>
      </trkpt>
      <trkpt lat="38.8982070" lon="-0.3219770">
        <ele>214.1</ele>
        <time>2020-11-14T10:51:21Z</time>
      </trkpt>
      <trkpt lat="38.8981390" lon="-0.3220120">
        <ele>214.3</ele>
        <time>2020-11-14T10:51:22Z</time>
      </trkpt>
      <trkpt lat="38.8981050" lon="-0.3220400">
        <ele>214.5</ele>
        <time>2020-11-14T10:51:23Z</time>
      </trkpt>
      <trkpt lat="38.8980700" lon="-0.3220850">
        <ele>214.6</ele>
        <time>2020-11-14T10:51:24Z</time>
      </trkpt>
      <trkpt lat="38.8980520" lon="-0.3221280">
        <ele>214.8</ele>
        <time>2020-11-14T10:51:25Z</time>
      </trkpt>
      <trkpt lat="38.8980350" lon="-0.3221720">
        <ele>214.9</ele>
        <time>2020-11-14T10:51:26Z</time>
      </trkpt>
      <trkpt lat="38.8980270" lon="-0.3222100">
        <ele>215.0</ele>
        <time>2020-11-14T10:51:27Z</time>
      </trkpt>
      <trkpt lat="38.8980100" lon="-0.3222550">
        <ele>215.1</ele>
        <time>2020-11-14T10:51:28Z</time>
      </trkpt>
      <trkpt lat="38.8980030" lon="-0.3223040">
        <ele>215.2</ele>
        <time>2020-11-14T10:51:29Z</time>
      </trkpt>
      <trkpt lat="38.8979970" lon="-0.3223570">
        <ele>215.3</ele>
        <time>2020-11-14T10:51:30Z</time>
      </trkpt>
      <trkpt lat="38.8979820" lon="-0.3224030">
        <ele>215.4</ele>
        <time>2020-11-14T10:51:31Z</time>
      </trkpt>
      <trkpt lat="38.8979700" lon="-0.3224500">
        <ele>215.5</ele>
        <time>2020-11-14T10:51:32Z</time>
      </trkpt>
      <trkpt lat="38.8979580" lon="-0.3224980">
        <ele>215.6</ele>
        <time>2020-11-14T10:51:33Z</time>
      </trkpt>
      <trkpt lat="38.8979450" lon="-0.3225470">
        <ele>215.7</ele>
        <time>2020-11-14T10:51:34Z</time>
      </trkpt>
      <trkpt lat="38.8979340" lon="-0.3225970">
        <ele>215.8</ele>
        <time>2020-11-14T10:51:35Z</time>
      </trkpt>
      <trkpt lat="38.8979240" lon="-0.3226490">
        <ele>215.9</ele>
        <time>2020-11-14T10:51:36Z</time>
      </trkpt>
      <trkpt lat="38.8979140" lon="-0.3227020">
        <ele>216.0</ele>
        <time>2020-11-14T10:51:37Z</time>
      </trkpt>
      <trkpt lat="38.8979030" lon="-0.3227560">
        <ele>216.1</ele>
        <time>2020-11-14T10:51:38Z</time>
      </trkpt>
      <trkpt lat="38.8978910" lon="-0.3228110">
        <ele>216.3</ele>
        <time>2020-11-14T10:51:39Z</time>
      </trkpt>
      <trkpt lat="38.8978820" lon="-0.3228670">
        <ele>216.4</ele>
        <time>2020-11-14T10:51:40Z</time>
      </trkpt>
      <trkpt lat="38.8978760" lon="-0.3229230">
        <ele>216.6</ele>
        <time>2020-11-14T10:51:41Z</time>
      </trkpt>
      <trkpt lat="38.8978720" lon="-0.3229790">
        <ele>216.8</ele>
        <time>2020-11-14T10:51:42Z</time>
      </trkpt>
      <trkpt lat="38.8978670" lon="-0.3230360">
        <ele>217.0</ele>
        <time>2020-11-14T10:51:43Z</time>
      </trkpt>
      <trkpt lat="38.8978600" lon="-0.3230910">
        <ele>217.2</ele>
        <time>2020-11-14T10:51:44Z</time>
      </trkpt>
      <trkpt lat="38.8978480" lon="-0.3231410">
        <ele>217.4</ele>
        <time>2020-11-14T10:51:45Z</time>
      </trkpt>
      <trkpt lat="38.8978310" lon="-0.3231810">
        <ele>217.6</ele>
        <time>2020-11-14T10:51:46Z</time>
      </trkpt>
      <trkpt lat="38.8978090" lon="-0.3232050">
        <ele>217.8</ele>
        <time>2020-11-14T10:51:47Z</time>
      </trkpt>
      <trkpt lat="38.8977710" lon="-0.3232090">
        <ele>218.1</ele>
        <time>2020-11-14T10:51:48Z</time>
      </trkpt>
      <trkpt lat="38.8977570" lon="-0.3232070">
        <ele>218.1</ele>
        <time>2020-11-14T10:51:49Z</time>
      </trkpt>
      <trkpt lat="38.8977240" lon="-0.3231820">
        <ele>218.3</ele>
        <time>2020-11-14T10:51:50Z</time>
      </trkpt>
      <trkpt lat="38.8977140" lon="-0.3231710">
        <ele>218.3</ele>
        <time>2020-11-14T10:51:51Z</time>
      </trkpt>
      <trkpt lat="38.8976970" lon="-0.3231440">
        <ele>218.4</ele>
        <time>2020-11-14T10:51:52Z</time>
      </trkpt>
      <trkpt lat="38.8976800" lon="-0.3231150">
        <ele>218.6</ele>
        <time>2020-11-14T10:51:53Z</time>
      </trkpt>
      <trkpt lat="38.8976620" lon="-0.3230870">
        <ele>218.7</ele>
        <time>2020-11-14T10:51:54Z</time>
      </trkpt>
      <trkpt lat="38.8976440" lon="-0.3230600">
        <ele>218.8</ele>
        <time>2020-11-14T10:51:55Z</time>
      </trkpt>
      <trkpt lat="38.8976250" lon="-0.3230340">
        <ele>219.0</ele>
        <time>2020-11-14T10:51:56Z</time>
      </trkpt>
      <trkpt lat="38.8976040" lon="-0.3230070">
        <ele>219.1</ele>
        <time>2020-11-14T10:51:57Z</time>
      </trkpt>
      <trkpt lat="38.8975850" lon="-0.3229810">
        <ele>219.3</ele>
        <time>2020-11-14T10:51:58Z</time>
      </trkpt>
      <trkpt lat="38.8975600" lon="-0.3229430">
        <ele>219.6</ele>
        <time>2020-11-14T10:51:59Z</time>
      </trkpt>
      <trkpt lat="38.8975520" lon="-0.3229300">
        <ele>219.7</ele>
        <time>2020-11-14T10:52:00Z</time>
      </trkpt>
      <trkpt lat="38.8975280" lon="-0.3228890">
        <ele>220.0</ele>
        <time>2020-11-14T10:52:01Z</time>
      </trkpt>
      <trkpt lat="38.8975190" lon="-0.3228750">
        <ele>220.1</ele>
        <time>2020-11-14T10:52:02Z</time>
      </trkpt>
      <trkpt lat="38.8975010" lon="-0.3228470">
        <ele>220.3</ele>
        <time>2020-11-14T10:52:03Z</time>
      </trkpt>
      <trkpt lat="38.8974760" lon="-0.3228060">
        <ele>220.7</ele>
        <time>2020-11-14T10:52:04Z</time>
      </trkpt>
      <trkpt lat="38.8974670" lon="-0.3227930">
        <ele>220.8</ele>
        <time>2020-11-14T10:52:05Z</time>
      </trkpt>
      <trkpt lat="38.8974460" lon="-0.3227520">
        <ele>221.2</ele>
        <time>2020-11-14T10:52:06Z</time>
      </trkpt>
      <trkpt lat="38.8974380" lon="-0.3227390">
        <ele>221.3</ele>
        <time>2020-11-14T10:52:07Z</time>
      </trkpt>
      <trkpt lat="38.8974170" lon="-0.3227040">
        <ele>221.7</ele>
        <time>2020-11-14T10:52:08Z</time>
      </trkpt>
      <trkpt lat="38.8974100" lon="-0.3226940">
        <ele>221.8</ele>
        <time>2020-11-14T10:52:09Z</time>
      </trkpt>
      <trkpt lat="38.8973900" lon="-0.3226690">
        <ele>222.1</ele>
        <time>2020-11-14T10:52:10Z</time>
      </trkpt>
      <trkpt lat="38.8973830" lon="-0.3226630">
        <ele>222.8</ele>
        <time>2020-11-14T10:52:11Z</time>
      </trkpt>
      <trkpt lat="38.8973660" lon="-0.3226550">
        <ele>222.9</ele>
        <time>2020-11-14T10:52:12Z</time>
      </trkpt>
      <trkpt lat="38.8973480" lon="-0.3226560">
        <ele>223.0</ele>
        <time>2020-11-14T10:52:13Z</time>
      </trkpt>
      <trkpt lat="38.8973150" lon="-0.3226820">
        <ele>223.1</ele>
        <time>2020-11-14T10:52:14Z</time>
      </trkpt>
      <trkpt lat="38.8973040" lon="-0.3226940">
        <ele>223.2</ele>
        <time>2020-11-14T10:52:15Z</time>
      </trkpt>
      <trkpt lat="38.8972850" lon="-0.3227200">
        <ele>223.3</ele>
        <time>2020-11-14T10:52:16Z</time>
      </trkpt>
      <trkpt lat="38.8972610" lon="-0.3227550">
        <ele>223.4</ele>
        <time>2020-11-14T10:52:17Z</time>
      </trkpt>
      <trkpt lat="38.8972530" lon="-0.3227670">
        <ele>223.5</ele>
        <time>2020-11-14T10:52:18Z</time>
      </trkpt>
      <trkpt lat="38.8972330" lon="-0.3227940">
        <ele>223.6</ele>
        <time>2020-11-14T10:52:19Z</time>
      </trkpt>
      <trkpt lat="38.8972080" lon="-0.3228230">
        <ele>223.8</ele>
        <time>2020-11-14T10:52:20Z</time>
      </trkpt>
      <trkpt lat="38.8971830" lon="-0.3228490">
        <ele>223.9</ele>
        <time>2020-11-14T10:52:21Z</time>
      </trkpt>
      <trkpt lat="38.8971580" lon="-0.3228750">
        <ele>224.1</ele>
        <time>2020-11-14T10:52:22Z</time>
      </trkpt>
      <trkpt lat="38.8971300" lon="-0.3229030">
        <ele>224.2</ele>
        <time>2020-11-14T10:52:23Z</time>
      </trkpt>
      <trkpt lat="38.8971020" lon="-0.3229340">
        <ele>224.4</ele>
        <time>2020-11-14T10:52:24Z</time>
      </trkpt>
      <trkpt lat="38.8970740" lon="-0.3229670">
        <ele>224.6</ele>
        <time>2020-11-14T10:52:25Z</time>
      </trkpt>
      <trkpt lat="38.8970460" lon="-0.3229990">
        <ele>224.7</ele>
        <time>2020-11-14T10:52:26Z</time>
      </trkpt>
      <trkpt lat="38.8970200" lon="-0.3230300">
        <ele>224.8</ele>
        <time>2020-11-14T10:52:27Z</time>
      </trkpt>
      <trkpt lat="38.8969950" lon="-0.3230640">
        <ele>225.0</ele>
        <time>2020-11-14T10:52:28Z</time>
      </trkpt>
      <trkpt lat="38.8969700" lon="-0.3230960">
        <ele>225.1</ele>
        <time>2020-11-14T10:52:29Z</time>
      </trkpt>
      <trkpt lat="38.8969440" lon="-0.3231250">
        <ele>225.1</ele>
        <time>2020-11-14T10:52:30Z</time>
      </trkpt>
      <trkpt lat="38.8969160" lon="-0.3231540">
        <ele>225.2</ele>
        <time>2020-11-14T10:52:31Z</time>
      </trkpt>
      <trkpt lat="38.8968870" lon="-0.3231850">
        <ele>225.3</ele>
        <time>2020-11-14T10:52:32Z</time>
      </trkpt>
      <trkpt lat="38.8968590" lon="-0.3232170">
        <ele>225.4</ele>
        <time>2020-11-14T10:52:33Z</time>
      </trkpt>
      <trkpt lat="38.8968300" lon="-0.3232500">
        <ele>225.4</ele>
        <time>2020-11-14T10:52:34Z</time>
      </trkpt>
      <trkpt lat="38.8968030" lon="-0.3232840">
        <ele>225.5</ele>
        <time>2020-11-14T10:52:35Z</time>
      </trkpt>
      <trkpt lat="38.8967760" lon="-0.3233200">
        <ele>225.5</ele>
        <time>2020-11-14T10:52:36Z</time>
      </trkpt>
      <trkpt lat="38.8967500" lon="-0.3233570">
        <ele>225.6</ele>
        <time>2020-11-14T10:52:37Z</time>
      </trkpt>
      <trkpt lat="38.8967240" lon="-0.3233950">
        <ele>225.6</ele>
        <time>2020-11-14T10:52:38Z</time>
      </trkpt>
      <trkpt lat="38.8966930" lon="-0.3234340">
        <ele>225.7</ele>
        <time>2020-11-14T10:52:39Z</time>
      </trkpt>
      <trkpt lat="38.8966570" lon="-0.3234720">
        <ele>225.7</ele>
        <time>2020-11-14T10:52:40Z</time>
      </trkpt>
      <trkpt lat="38.8966220" lon="-0.3235120">
        <ele>225.8</ele>
        <time>2020-11-14T10:52:41Z</time>
      </trkpt>
      <trkpt lat="38.8965880" lon="-0.3235530">
        <ele>225.8</ele>
        <time>2020-11-14T10:52:42Z</time>
      </trkpt>
      <trkpt lat="38.8965530" lon="-0.3235930">
        <ele>225.9</ele>
        <time>2020-11-14T10:52:43Z</time>
      </trkpt>
      <trkpt lat="38.8965190" lon="-0.3236340">
        <ele>225.9</ele>
        <time>2020-11-14T10:52:44Z</time>
      </trkpt>
      <trkpt lat="38.8964850" lon="-0.3236760">
        <ele>225.9</ele>
        <time>2020-11-14T10:52:45Z</time>
      </trkpt>
      <trkpt lat="38.8964540" lon="-0.3237180">
        <ele>225.9</ele>
        <time>2020-11-14T10:52:46Z</time>
      </trkpt>
      <trkpt lat="38.8964190" lon="-0.3237740">
        <ele>226.0</ele>
        <time>2020-11-14T10:52:47Z</time>
      </trkpt>
      <trkpt lat="38.8963940" lon="-0.3238200">
        <ele>226.0</ele>
        <time>2020-11-14T10:52:48Z</time>
      </trkpt>
      <trkpt lat="38.8963620" lon="-0.3238700">
        <ele>226.1</ele>
        <time>2020-11-14T10:52:49Z</time>
      </trkpt>
      <trkpt lat="38.8963380" lon="-0.3239240">
        <ele>226.1</ele>
        <time>2020-11-14T10:52:50Z</time>
      </trkpt>
      <trkpt lat="38.8963200" lon="-0.3239880">
        <ele>226.1</ele>
        <time>2020-11-14T10:52:51Z</time>
      </trkpt>
      <trkpt lat="38.8963190" lon="-0.3240560">
        <ele>226.2</ele>
        <time>2020-11-14T10:52:52Z</time>
      </trkpt>
      <trkpt lat="38.8963150" lon="-0.3241170">
        <ele>226.2</ele>
        <time>2020-11-14T10:52:53Z</time>
      </trkpt>
      <trkpt lat="38.8962890" lon="-0.3241770">
        <ele>226.1</ele>
        <time>2020-11-14T10:52:54Z</time>
      </trkpt>
      <trkpt lat="38.8962680" lon="-0.3242260">
        <ele>226.1</ele>
        <time>2020-11-14T10:52:55Z</time>
      </trkpt>
      <trkpt lat="38.8962230" lon="-0.3242740">
        <ele>226.1</ele>
        <time>2020-11-14T10:52:56Z</time>
      </trkpt>
      <trkpt lat="38.8961710" lon="-0.3243240">
        <ele>226.0</ele>
        <time>2020-11-14T10:52:57Z</time>
      </trkpt>
      <trkpt lat="38.8961370" lon="-0.3243710">
        <ele>225.9</ele>
        <time>2020-11-14T10:52:58Z</time>
      </trkpt>
      <trkpt lat="38.8960750" lon="-0.3244120">
        <ele>225.7</ele>
        <time>2020-11-14T10:52:59Z</time>
      </trkpt>
      <trkpt lat="38.8960220" lon="-0.3244580">
        <ele>225.6</ele>
        <time>2020-11-14T10:53:00Z</time>
      </trkpt>
      <trkpt lat="38.8959690" lon="-0.3245070">
        <ele>225.4</ele>
        <time>2020-11-14T10:53:01Z</time>
      </trkpt>
      <trkpt lat="38.8959260" lon="-0.3245650">
        <ele>225.3</ele>
        <time>2020-11-14T10:53:02Z</time>
      </trkpt>
      <trkpt lat="38.8958790" lon="-0.3246220">
        <ele>225.2</ele>
        <time>2020-11-14T10:53:03Z</time>
      </trkpt>
      <trkpt lat="38.8958130" lon="-0.3246740">
        <ele>225.0</ele>
        <time>2020-11-14T10:53:04Z</time>
      </trkpt>
      <trkpt lat="38.8957690" lon="-0.3247430">
        <ele>224.8</ele>
        <time>2020-11-14T10:53:05Z</time>
      </trkpt>
      <trkpt lat="38.8957240" lon="-0.3248000">
        <ele>224.6</ele>
        <time>2020-11-14T10:53:06Z</time>
      </trkpt>
      <trkpt lat="38.8956770" lon="-0.3248650">
        <ele>224.4</ele>
        <time>2020-11-14T10:53:07Z</time>
      </trkpt>
      <trkpt lat="38.8956260" lon="-0.3249390">
        <ele>224.2</ele>
        <time>2020-11-14T10:53:08Z</time>
      </trkpt>
      <trkpt lat="38.8955680" lon="-0.3250240">
        <ele>223.9</ele>
        <time>2020-11-14T10:53:09Z</time>
      </trkpt>
      <trkpt lat="38.8955010" lon="-0.3251070">
        <ele>223.6</ele>
        <time>2020-11-14T10:53:10Z</time>
      </trkpt>
      <trkpt lat="38.8954470" lon="-0.3251870">
        <ele>223.3</ele>
        <time>2020-11-14T10:53:11Z</time>
      </trkpt>
      <trkpt lat="38.8953880" lon="-0.3252760">
        <ele>223.2</ele>
        <time>2020-11-14T10:53:12Z</time>
      </trkpt>
      <trkpt lat="38.8953310" lon="-0.3253630">
        <ele>223.1</ele>
        <time>2020-11-14T10:53:13Z</time>
      </trkpt>
      <trkpt lat="38.8952700" lon="-0.3254480">
        <ele>223.0</ele>
        <time>2020-11-14T10:53:14Z</time>
      </trkpt>
      <trkpt lat="38.8952110" lon="-0.3255280">
        <ele>222.9</ele>
        <time>2020-11-14T10:53:15Z</time>
      </trkpt>
      <trkpt lat="38.8951610" lon="-0.3256150">
        <ele>222.9</ele>
        <time>2020-11-14T10:53:16Z</time>
      </trkpt>
      <trkpt lat="38.8951070" lon="-0.3256830">
        <ele>222.8</ele>
        <time>2020-11-14T10:53:17Z</time>
      </trkpt>
      <trkpt lat="38.8950500" lon="-0.3257620">
        <ele>222.7</ele>
        <time>2020-11-14T10:53:18Z</time>
      </trkpt>
      <trkpt lat="38.8949950" lon="-0.3258350">
        <ele>222.7</ele>
        <time>2020-11-14T10:53:19Z</time>
      </trkpt>
      <trkpt lat="38.8949420" lon="-0.3259120">
        <ele>222.7</ele>
        <time>2020-11-14T10:53:20Z</time>
      </trkpt>
      <trkpt lat="38.8948910" lon="-0.3259750">
        <ele>222.7</ele>
        <time>2020-11-14T10:53:21Z</time>
      </trkpt>
      <trkpt lat="38.8948430" lon="-0.3260380">
        <ele>222.7</ele>
        <time>2020-11-14T10:53:22Z</time>
      </trkpt>
      <trkpt lat="38.8948060" lon="-0.3261110">
        <ele>222.8</ele>
        <time>2020-11-14T10:53:23Z</time>
      </trkpt>
      <trkpt lat="38.8947580" lon="-0.3261770">
        <ele>222.8</ele>
        <time>2020-11-14T10:53:24Z</time>
      </trkpt>
      <trkpt lat="38.8947160" lon="-0.3262460">
        <ele>222.9</ele>
        <time>2020-11-14T10:53:25Z</time>
      </trkpt>
      <trkpt lat="38.8946660" lon="-0.3263060">
        <ele>222.9</ele>
        <time>2020-11-14T10:53:26Z</time>
      </trkpt>
      <trkpt lat="38.8946180" lon="-0.3263720">
        <ele>222.9</ele>
        <time>2020-11-14T10:53:27Z</time>
      </trkpt>
      <trkpt lat="38.8945690" lon="-0.3264350">
        <ele>223.0</ele>
        <time>2020-11-14T10:53:28Z</time>
      </trkpt>
      <trkpt lat="38.8945300" lon="-0.3265050">
        <ele>223.0</ele>
        <time>2020-11-14T10:53:29Z</time>
      </trkpt>
      <trkpt lat="38.8944890" lon="-0.3265690">
        <ele>223.0</ele>
        <time>2020-11-14T10:53:30Z</time>
      </trkpt>
      <trkpt lat="38.8944280" lon="-0.3266410">
        <ele>223.0</ele>
        <time>2020-11-14T10:53:31Z</time>
      </trkpt>
      <trkpt lat="38.8943810" lon="-0.3267170">
        <ele>222.9</ele>
        <time>2020-11-14T10:53:32Z</time>
      </trkpt>
      <trkpt lat="38.8943370" lon="-0.3267900">
        <ele>222.9</ele>
        <time>2020-11-14T10:53:33Z</time>
      </trkpt>
      <trkpt lat="38.8942950" lon="-0.3268620">
        <ele>222.8</ele>
        <time>2020-11-14T10:53:34Z</time>
      </trkpt>
      <trkpt lat="38.8942450" lon="-0.3269300">
        <ele>222.8</ele>
        <time>2020-11-14T10:53:35Z</time>
      </trkpt>
      <trkpt lat="38.8942060" lon="-0.3270040">
        <ele>222.7</ele>
        <time>2020-11-14T10:53:36Z</time>
      </trkpt>
      <trkpt lat="38.8941590" lon="-0.3270760">
        <ele>222.6</ele>
        <time>2020-11-14T10:53:37Z</time>
      </trkpt>
      <trkpt lat="38.8941150" lon="-0.3271460">
        <ele>222.5</ele>
        <time>2020-11-14T10:53:38Z</time>
      </trkpt>
      <trkpt lat="38.8940630" lon="-0.3272210">
        <ele>222.4</ele>
        <time>2020-11-14T10:53:39Z</time>
      </trkpt>
      <trkpt lat="38.8940130" lon="-0.3272970">
        <ele>222.3</ele>
        <time>2020-11-14T10:53:40Z</time>
      </trkpt>
      <trkpt lat="38.8939560" lon="-0.3273740">
        <ele>222.2</ele>
        <time>2020-11-14T10:53:41Z</time>
      </trkpt>
      <trkpt lat="38.8939010" lon="-0.3274500">
        <ele>222.1</ele>
        <time>2020-11-14T10:53:42Z</time>
      </trkpt>
      <trkpt lat="38.8938480" lon="-0.3275280">
        <ele>222.1</ele>
        <time>2020-11-14T10:53:43Z</time>
      </trkpt>
      <trkpt lat="38.8937840" lon="-0.3276110">
        <ele>222.0</ele>
        <time>2020-11-14T10:53:44Z</time>
      </trkpt>
      <trkpt lat="38.8937300" lon="-0.3276810">
        <ele>221.9</ele>
        <time>2020-11-14T10:53:45Z</time>
      </trkpt>
      <trkpt lat="38.8936720" lon="-0.3277500">
        <ele>221.8</ele>
        <time>2020-11-14T10:53:46Z</time>
      </trkpt>
      <trkpt lat="38.8936180" lon="-0.3278290">
        <ele>221.7</ele>
        <time>2020-11-14T10:53:47Z</time>
      </trkpt>
      <trkpt lat="38.8935640" lon="-0.3279000">
        <ele>221.6</ele>
        <time>2020-11-14T10:53:48Z</time>
      </trkpt>
      <trkpt lat="38.8935090" lon="-0.3279740">
        <ele>221.5</ele>
        <time>2020-11-14T10:53:49Z</time>
      </trkpt>
      <trkpt lat="38.8934590" lon="-0.3280470">
        <ele>221.5</ele>
        <time>2020-11-14T10:53:50Z</time>
      </trkpt>
      <trkpt lat="38.8934090" lon="-0.3281150">
        <ele>221.4</ele>
        <time>2020-11-14T10:53:51Z</time>
      </trkpt>
      <trkpt lat="38.8933590" lon="-0.3281840">
        <ele>221.4</ele>
        <time>2020-11-14T10:53:52Z</time>
      </trkpt>
      <trkpt lat="38.8933180" lon="-0.3282510">
        <ele>221.4</ele>
        <time>2020-11-14T10:53:53Z</time>
      </trkpt>
      <trkpt lat="38.8932690" lon="-0.3283110">
        <ele>221.3</ele>
        <time>2020-11-14T10:53:54Z</time>
      </trkpt>
      <trkpt lat="38.8932210" lon="-0.3283700">
        <ele>221.3</ele>
        <time>2020-11-14T10:53:55Z</time>
      </trkpt>
      <trkpt lat="38.8931750" lon="-0.3284340">
        <ele>221.3</ele>
        <time>2020-11-14T10:53:56Z</time>
      </trkpt>
      <trkpt lat="38.8931270" lon="-0.3284970">
        <ele>221.2</ele>
        <time>2020-11-14T10:53:57Z</time>
      </trkpt>
      <trkpt lat="38.8930820" lon="-0.3285610">
        <ele>221.2</ele>
        <time>2020-11-14T10:53:58Z</time>
      </trkpt>
      <trkpt lat="38.8930510" lon="-0.3286260">
        <ele>221.2</ele>
        <time>2020-11-14T10:53:59Z</time>
      </trkpt>
      <trkpt lat="38.8930150" lon="-0.3286760">
        <ele>221.2</ele>
        <time>2020-11-14T10:54:00Z</time>
      </trkpt>
      <trkpt lat="38.8929770" lon="-0.3287300">
        <ele>221.1</ele>
        <time>2020-11-14T10:54:01Z</time>
      </trkpt>
      <trkpt lat="38.8929480" lon="-0.3287880">
        <ele>221.1</ele>
        <time>2020-11-14T10:54:02Z</time>
      </trkpt>
      <trkpt lat="38.8929130" lon="-0.3288310">
        <ele>221.1</ele>
        <time>2020-11-14T10:54:03Z</time>
      </trkpt>
      <trkpt lat="38.8928650" lon="-0.3288970">
        <ele>221.0</ele>
        <time>2020-11-14T10:54:04Z</time>
      </trkpt>
      <trkpt lat="38.8928220" lon="-0.3289570">
        <ele>221.0</ele>
        <time>2020-11-14T10:54:05Z</time>
      </trkpt>
      <trkpt lat="38.8927850" lon="-0.3290120">
        <ele>220.9</ele>
        <time>2020-11-14T10:54:06Z</time>
      </trkpt>
      <trkpt lat="38.8927450" lon="-0.3290590">
        <ele>220.8</ele>
        <time>2020-11-14T10:54:07Z</time>
      </trkpt>
      <trkpt lat="38.8927100" lon="-0.3291160">
        <ele>220.8</ele>
        <time>2020-11-14T10:54:08Z</time>
      </trkpt>
      <trkpt lat="38.8926480" lon="-0.3291590">
        <ele>220.7</ele>
        <time>2020-11-14T10:54:09Z</time>
      </trkpt>
      <trkpt lat="38.8926030" lon="-0.3292210">
        <ele>220.6</ele>
        <time>2020-11-14T10:54:10Z</time>
      </trkpt>
      <trkpt lat="38.8925590" lon="-0.3292890">
        <ele>220.5</ele>
        <time>2020-11-14T10:54:11Z</time>
      </trkpt>
      <trkpt lat="38.8925210" lon="-0.3293460">
        <ele>220.4</ele>
        <time>2020-11-14T10:54:12Z</time>
      </trkpt>
      <trkpt lat="38.8924750" lon="-0.3294140">
        <ele>220.2</ele>
        <time>2020-11-14T10:54:13Z</time>
      </trkpt>
      <trkpt lat="38.8924320" lon="-0.3294740">
        <ele>220.0</ele>
        <time>2020-11-14T10:54:14Z</time>
      </trkpt>
      <trkpt lat="38.8923630" lon="-0.3295410">
        <ele>219.8</ele>
        <time>2020-11-14T10:54:15Z</time>
      </trkpt>
      <trkpt lat="38.8923100" lon="-0.3296120">
        <ele>219.6</ele>
        <time>2020-11-14T10:54:16Z</time>
      </trkpt>
      <trkpt lat="38.8922520" lon="-0.3296920">
        <ele>219.4</ele>
        <time>2020-11-14T10:54:17Z</time>
      </trkpt>
      <trkpt lat="38.8922120" lon="-0.3297590">
        <ele>219.3</ele>
        <time>2020-11-14T10:54:18Z</time>
      </trkpt>
      <trkpt lat="38.8921740" lon="-0.3298350">
        <ele>219.1</ele>
        <time>2020-11-14T10:54:19Z</time>
      </trkpt>
      <trkpt lat="38.8921200" lon="-0.3299050">
        <ele>219.0</ele>
        <time>2020-11-14T10:54:20Z</time>
      </trkpt>
      <trkpt lat="38.8920720" lon="-0.3299750">
        <ele>218.9</ele>
        <time>2020-11-14T10:54:21Z</time>
      </trkpt>
      <trkpt lat="38.8920130" lon="-0.3300410">
        <ele>218.8</ele>
        <time>2020-11-14T10:54:22Z</time>
      </trkpt>
      <trkpt lat="38.8919670" lon="-0.3301220">
        <ele>218.8</ele>
        <time>2020-11-14T10:54:23Z</time>
      </trkpt>
      <trkpt lat="38.8919120" lon="-0.3301940">
        <ele>218.7</ele>
        <time>2020-11-14T10:54:24Z</time>
      </trkpt>
      <trkpt lat="38.8918560" lon="-0.3302680">
        <ele>218.6</ele>
        <time>2020-11-14T10:54:25Z</time>
      </trkpt>
      <trkpt lat="38.8918040" lon="-0.3303410">
        <ele>218.6</ele>
        <time>2020-11-14T10:54:26Z</time>
      </trkpt>
      <trkpt lat="38.8917560" lon="-0.3303860">
        <ele>218.6</ele>
        <time>2020-11-14T10:54:27Z</time>
      </trkpt>
      <trkpt lat="38.8917080" lon="-0.3304630">
        <ele>218.6</ele>
        <time>2020-11-14T10:54:28Z</time>
      </trkpt>
      <trkpt lat="38.8916630" lon="-0.3305280">
        <ele>218.6</ele>
        <time>2020-11-14T10:54:29Z</time>
      </trkpt>
      <trkpt lat="38.8915900" lon="-0.3305800">
        <ele>218.7</ele>
        <time>2020-11-14T10:54:30Z</time>
      </trkpt>
      <trkpt lat="38.8915340" lon="-0.3306520">
        <ele>218.8</ele>
        <time>2020-11-14T10:54:31Z</time>
      </trkpt>
      <trkpt lat="38.8914910" lon="-0.3307200">
        <ele>218.9</ele>
        <time>2020-11-14T10:54:32Z</time>
      </trkpt>
      <trkpt lat="38.8914490" lon="-0.3307900">
        <ele>219.1</ele>
        <time>2020-11-14T10:54:33Z</time>
      </trkpt>
      <trkpt lat="38.8914060" lon="-0.3308580">
        <ele>219.3</ele>
        <time>2020-11-14T10:54:34Z</time>
      </trkpt>
      <trkpt lat="38.8913500" lon="-0.3309070">
        <ele>219.7</ele>
        <time>2020-11-14T10:54:35Z</time>
      </trkpt>
      <trkpt lat="38.8913070" lon="-0.3309670">
        <ele>220.1</ele>
        <time>2020-11-14T10:54:36Z</time>
      </trkpt>
      <trkpt lat="38.8912730" lon="-0.3310320">
        <ele>220.4</ele>
        <time>2020-11-14T10:54:37Z</time>
      </trkpt>
      <trkpt lat="38.8912500" lon="-0.3310980">
        <ele>220.8</ele>
        <time>2020-11-14T10:54:38Z</time>
      </trkpt>
      <trkpt lat="38.8912350" lon="-0.3311700">
        <ele>221.1</ele>
        <time>2020-11-14T10:54:39Z</time>
      </trkpt>
      <trkpt lat="38.8912370" lon="-0.3312340">
        <ele>221.5</ele>
        <time>2020-11-14T10:54:40Z</time>
      </trkpt>
      <trkpt lat="38.8912340" lon="-0.3312890">
        <ele>221.8</ele>
        <time>2020-11-14T10:54:41Z</time>
      </trkpt>
      <trkpt lat="38.8912250" lon="-0.3313390">
        <ele>222.1</ele>
        <time>2020-11-14T10:54:42Z</time>
      </trkpt>
      <trkpt lat="38.8912220" lon="-0.3313840">
        <ele>222.3</ele>
        <time>2020-11-14T10:54:43Z</time>
      </trkpt>
      <trkpt lat="38.8912160" lon="-0.3314420">
        <ele>222.7</ele>
        <time>2020-11-14T10:54:44Z</time>
      </trkpt>
      <trkpt lat="38.8912180" lon="-0.3314960">
        <ele>223.1</ele>
        <time>2020-11-14T10:54:45Z</time>
      </trkpt>
      <trkpt lat="38.8912180" lon="-0.3315530">
        <ele>223.4</ele>
        <time>2020-11-14T10:54:46Z</time>
      </trkpt>
      <trkpt lat="38.8912370" lon="-0.3315940">
        <ele>223.7</ele>
        <time>2020-11-14T10:54:47Z</time>
      </trkpt>
      <trkpt lat="38.8912580" lon="-0.3316450">
        <ele>224.1</ele>
        <time>2020-11-14T10:54:48Z</time>
      </trkpt>
      <trkpt lat="38.8912690" lon="-0.3316940">
        <ele>224.4</ele>
        <time>2020-11-14T10:54:49Z</time>
      </trkpt>
      <trkpt lat="38.8912960" lon="-0.3317400">
        <ele>224.7</ele>
        <time>2020-11-14T10:54:50Z</time>
      </trkpt>
      <trkpt lat="38.8913110" lon="-0.3317790">
        <ele>225.0</ele>
        <time>2020-11-14T10:54:51Z</time>
      </trkpt>
      <trkpt lat="38.8913280" lon="-0.3318150">
        <ele>225.3</ele>
        <time>2020-11-14T10:54:52Z</time>
      </trkpt>
      <trkpt lat="38.8913410" lon="-0.3318470">
        <ele>225.5</ele>
        <time>2020-11-14T10:54:53Z</time>
      </trkpt>
      <trkpt lat="38.8913540" lon="-0.3318820">
        <ele>225.7</ele>
        <time>2020-11-14T10:54:54Z</time>
      </trkpt>
      <trkpt lat="38.8913690" lon="-0.3319190">
        <ele>225.9</ele>
        <time>2020-11-14T10:54:55Z</time>
      </trkpt>
      <trkpt lat="38.8913860" lon="-0.3319650">
        <ele>226.3</ele>
        <time>2020-11-14T10:54:56Z</time>
      </trkpt>
      <trkpt lat="38.8913990" lon="-0.3320050">
        <ele>226.5</ele>
        <time>2020-11-14T10:54:57Z</time>
      </trkpt>
      <trkpt lat="38.8914090" lon="-0.3320380">
        <ele>226.7</ele>
        <time>2020-11-14T10:54:58Z</time>
      </trkpt>
      <trkpt lat="38.8914250" lon="-0.3320720">
        <ele>226.9</ele>
        <time>2020-11-14T10:54:59Z</time>
      </trkpt>
      <trkpt lat="38.8914410" lon="-0.3321040">
        <ele>227.1</ele>
        <time>2020-11-14T10:55:00Z</time>
      </trkpt>
      <trkpt lat="38.8914570" lon="-0.3321320">
        <ele>227.3</ele>
        <time>2020-11-14T10:55:01Z</time>
      </trkpt>
      <trkpt lat="38.8914800" lon="-0.3321750">
        <ele>227.6</ele>
        <time>2020-11-14T10:55:02Z</time>
      </trkpt>
      <trkpt lat="38.8914870" lon="-0.3321900">
        <ele>227.7</ele>
        <time>2020-11-14T10:55:03Z</time>
      </trkpt>
      <trkpt lat="38.8915030" lon="-0.3322210">
        <ele>227.9</ele>
        <time>2020-11-14T10:55:04Z</time>
      </trkpt>
      <trkpt lat="38.8915190" lon="-0.3322520">
        <ele>228.1</ele>
        <time>2020-11-14T10:55:05Z</time>
      </trkpt>
      <trkpt lat="38.8915350" lon="-0.3322850">
        <ele>228.3</ele>
        <time>2020-11-14T10:55:06Z</time>
      </trkpt>
      <trkpt lat="38.8915490" lon="-0.3323160">
        <ele>228.5</ele>
        <time>2020-11-14T10:55:07Z</time>
      </trkpt>
      <trkpt lat="38.8915680" lon="-0.3323580">
        <ele>228.8</ele>
        <time>2020-11-14T10:55:08Z</time>
      </trkpt>
      <trkpt lat="38.8915740" lon="-0.3323720">
        <ele>228.9</ele>
        <time>2020-11-14T10:55:09Z</time>
      </trkpt>
      <trkpt lat="38.8915870" lon="-0.3324180">
        <ele>229.2</ele>
        <time>2020-11-14T10:55:10Z</time>
      </trkpt>
      <trkpt lat="38.8915900" lon="-0.3324340">
        <ele>229.2</ele>
        <time>2020-11-14T10:55:11Z</time>
      </trkpt>
      <trkpt lat="38.8915960" lon="-0.3324800">
        <ele>229.5</ele>
        <time>2020-11-14T10:55:12Z</time>
      </trkpt>
      <trkpt lat="38.8915980" lon="-0.3324950">
        <ele>229.6</ele>
        <time>2020-11-14T10:55:13Z</time>
      </trkpt>
      <trkpt lat="38.8916100" lon="-0.3325370">
        <ele>229.8</ele>
        <time>2020-11-14T10:55:14Z</time>
      </trkpt>
      <trkpt lat="38.8916140" lon="-0.3325520">
        <ele>229.9</ele>
        <time>2020-11-14T10:55:15Z</time>
      </trkpt>
      <trkpt lat="38.8916310" lon="-0.3325970">
        <ele>230.1</ele>
        <time>2020-11-14T10:55:16Z</time>
      </trkpt>
      <trkpt lat="38.8916360" lon="-0.3326130">
        <ele>230.2</ele>
        <time>2020-11-14T10:55:17Z</time>
      </trkpt>
      <trkpt lat="38.8916480" lon="-0.3326440">
        <ele>230.4</ele>
        <time>2020-11-14T10:55:18Z</time>
      </trkpt>
      <trkpt lat="38.8916590" lon="-0.3326760">
        <ele>230.6</ele>
        <time>2020-11-14T10:55:19Z</time>
      </trkpt>
      <trkpt lat="38.8916770" lon="-0.3327220">
        <ele>230.8</ele>
        <time>2020-11-14T10:55:20Z</time>
      </trkpt>
      <trkpt lat="38.8916830" lon="-0.3327370">
        <ele>230.9</ele>
        <time>2020-11-14T10:55:21Z</time>
      </trkpt>
      <trkpt lat="38.8916960" lon="-0.3327680">
        <ele>231.0</ele>
        <time>2020-11-14T10:55:22Z</time>
      </trkpt>
      <trkpt lat="38.8917160" lon="-0.3328130">
        <ele>231.3</ele>
        <time>2020-11-14T10:55:23Z</time>
      </trkpt>
      <trkpt lat="38.8917220" lon="-0.3328280">
        <ele>231.3</ele>
        <time>2020-11-14T10:55:24Z</time>
      </trkpt>
      <trkpt lat="38.8917420" lon="-0.3328720">
        <ele>231.5</ele>
        <time>2020-11-14T10:55:25Z</time>
      </trkpt>
      <trkpt lat="38.8917480" lon="-0.3328870">
        <ele>231.6</ele>
        <time>2020-11-14T10:55:26Z</time>
      </trkpt>
      <trkpt lat="38.8917650" lon="-0.3329300">
        <ele>231.8</ele>
        <time>2020-11-14T10:55:27Z</time>
      </trkpt>
      <trkpt lat="38.8917700" lon="-0.3329450">
        <ele>231.8</ele>
        <time>2020-11-14T10:55:28Z</time>
      </trkpt>
      <trkpt lat="38.8917870" lon="-0.3329910">
        <ele>232.0</ele>
        <time>2020-11-14T10:55:29Z</time>
      </trkpt>
      <trkpt lat="38.8917930" lon="-0.3330070">
        <ele>232.1</ele>
        <time>2020-11-14T10:55:30Z</time>
      </trkpt>
      <trkpt lat="38.8918050" lon="-0.3330380">
        <ele>232.2</ele>
        <time>2020-11-14T10:55:31Z</time>
      </trkpt>
      <trkpt lat="38.8918190" lon="-0.3330710">
        <ele>232.3</ele>
        <time>2020-11-14T10:55:32Z</time>
      </trkpt>
      <trkpt lat="38.8918340" lon="-0.3331040">
        <ele>232.5</ele>
        <time>2020-11-14T10:55:33Z</time>
      </trkpt>
      <trkpt lat="38.8918480" lon="-0.3331380">
        <ele>232.6</ele>
        <time>2020-11-14T10:55:34Z</time>
      </trkpt>
      <trkpt lat="38.8918610" lon="-0.3331730">
        <ele>232.7</ele>
        <time>2020-11-14T10:55:35Z</time>
      </trkpt>
      <trkpt lat="38.8918730" lon="-0.3332100">
        <ele>232.8</ele>
        <time>2020-11-14T10:55:36Z</time>
      </trkpt>
      <trkpt lat="38.8918860" lon="-0.3332480">
        <ele>232.9</ele>
        <time>2020-11-14T10:55:37Z</time>
      </trkpt>
      <trkpt lat="38.8918990" lon="-0.3332860">
        <ele>233.1</ele>
        <time>2020-11-14T10:55:38Z</time>
      </trkpt>
      <trkpt lat="38.8919120" lon="-0.3333250">
        <ele>233.2</ele>
        <time>2020-11-14T10:55:39Z</time>
      </trkpt>
      <trkpt lat="38.8919250" lon="-0.3333650">
        <ele>233.3</ele>
        <time>2020-11-14T10:55:40Z</time>
      </trkpt>
      <trkpt lat="38.8919380" lon="-0.3334060">
        <ele>233.4</ele>
        <time>2020-11-14T10:55:41Z</time>
      </trkpt>
      <trkpt lat="38.8919530" lon="-0.3334460">
        <ele>233.5</ele>
        <time>2020-11-14T10:55:42Z</time>
      </trkpt>
      <trkpt lat="38.8919690" lon="-0.3334860">
        <ele>233.7</ele>
        <time>2020-11-14T10:55:43Z</time>
      </trkpt>
      <trkpt lat="38.8919860" lon="-0.3335270">
        <ele>233.8</ele>
        <time>2020-11-14T10:55:44Z</time>
      </trkpt>
      <trkpt lat="38.8920020" lon="-0.3335690">
        <ele>233.9</ele>
        <time>2020-11-14T10:55:45Z</time>
      </trkpt>
      <trkpt lat="38.8920180" lon="-0.3336120">
        <ele>234.0</ele>
        <time>2020-11-14T10:55:46Z</time>
      </trkpt>
      <trkpt lat="38.8920340" lon="-0.3336560">
        <ele>234.1</ele>
        <time>2020-11-14T10:55:47Z</time>
      </trkpt>
      <trkpt lat="38.8920500" lon="-0.3337000">
        <ele>234.2</ele>
        <time>2020-11-14T10:55:48Z</time>
      </trkpt>
      <trkpt lat="38.8920670" lon="-0.3337450">
        <ele>234.4</ele>
        <time>2020-11-14T10:55:49Z</time>
      </trkpt>
      <trkpt lat="38.8920830" lon="-0.3337910">
        <ele>234.5</ele>
        <time>2020-11-14T10:55:50Z</time>
      </trkpt>
      <trkpt lat="38.8920980" lon="-0.3338370">
        <ele>234.6</ele>
        <time>2020-11-14T10:55:51Z</time>
      </trkpt>
      <trkpt lat="38.8921130" lon="-0.3338820">
        <ele>234.8</ele>
        <time>2020-11-14T10:55:52Z</time>
      </trkpt>
      <trkpt lat="38.8921280" lon="-0.3339270">
        <ele>235.0</ele>
        <time>2020-11-14T10:55:53Z</time>
      </trkpt>
      <trkpt lat="38.8921430" lon="-0.3339710">
        <ele>235.1</ele>
        <time>2020-11-14T10:55:54Z</time>
      </trkpt>
      <trkpt lat="38.8921580" lon="-0.3340130">
        <ele>235.3</ele>
        <time>2020-11-14T10:55:55Z</time>
      </trkpt>
      <trkpt lat="38.8921710" lon="-0.3340530">
        <ele>235.5</ele>
        <time>2020-11-14T10:55:56Z</time>
      </trkpt>
      <trkpt lat="38.8921850" lon="-0.3340910">
        <ele>235.7</ele>
        <time>2020-11-14T10:55:57Z</time>
      </trkpt>
      <trkpt lat="38.8921970" lon="-0.3341260">
        <ele>235.8</ele>
        <time>2020-11-14T10:55:58Z</time>
      </trkpt>
      <trkpt lat="38.8922100" lon="-0.3341620">
        <ele>236.0</ele>
        <time>2020-11-14T10:55:59Z</time>
      </trkpt>
      <trkpt lat="38.8922230" lon="-0.3341980">
        <ele>236.2</ele>
        <time>2020-11-14T10:56:00Z</time>
      </trkpt>
      <trkpt lat="38.8922360" lon="-0.3342350">
        <ele>236.4</ele>
        <time>2020-11-14T10:56:01Z</time>
      </trkpt>
      <trkpt lat="38.8922490" lon="-0.3342720">
        <ele>236.6</ele>
        <time>2020-11-14T10:56:02Z</time>
      </trkpt>
      <trkpt lat="38.8922630" lon="-0.3343120">
        <ele>236.8</ele>
        <time>2020-11-14T10:56:03Z</time>
      </trkpt>
      <trkpt lat="38.8922770" lon="-0.3343520">
        <ele>237.1</ele>
        <time>2020-11-14T10:56:04Z</time>
      </trkpt>
      <trkpt lat="38.8922890" lon="-0.3343890">
        <ele>237.3</ele>
        <time>2020-11-14T10:56:05Z</time>
      </trkpt>
      <trkpt lat="38.8922990" lon="-0.3344260">
        <ele>237.5</ele>
        <time>2020-11-14T10:56:06Z</time>
      </trkpt>
      <trkpt lat="38.8923080" lon="-0.3344610">
        <ele>237.8</ele>
        <time>2020-11-14T10:56:07Z</time>
      </trkpt>
      <trkpt lat="38.8923160" lon="-0.3344940">
        <ele>238.0</ele>
        <time>2020-11-14T10:56:08Z</time>
      </trkpt>
      <trkpt lat="38.8923230" lon="-0.3345270">
        <ele>238.2</ele>
        <time>2020-11-14T10:56:09Z</time>
      </trkpt>
      <trkpt lat="38.8923310" lon="-0.3345610">
        <ele>238.4</ele>
        <time>2020-11-14T10:56:10Z</time>
      </trkpt>
      <trkpt lat="38.8923380" lon="-0.3345950">
        <ele>238.6</ele>
        <time>2020-11-14T10:56:11Z</time>
      </trkpt>
      <trkpt lat="38.8923470" lon="-0.3346440">
        <ele>238.9</ele>
        <time>2020-11-14T10:56:12Z</time>
      </trkpt>
      <trkpt lat="38.8923490" lon="-0.3346610">
        <ele>239.0</ele>
        <time>2020-11-14T10:56:13Z</time>
      </trkpt>
      <trkpt lat="38.8923560" lon="-0.3347080">
        <ele>239.3</ele>
        <time>2020-11-14T10:56:14Z</time>
      </trkpt>
      <trkpt lat="38.8923580" lon="-0.3347240">
        <ele>239.4</ele>
        <time>2020-11-14T10:56:15Z</time>
      </trkpt>
      <trkpt lat="38.8923630" lon="-0.3347720">
        <ele>239.6</ele>
        <time>2020-11-14T10:56:16Z</time>
      </trkpt>
      <trkpt lat="38.8923640" lon="-0.3347880">
        <ele>239.7</ele>
        <time>2020-11-14T10:56:17Z</time>
      </trkpt>
      <trkpt lat="38.8923670" lon="-0.3348400">
        <ele>239.8</ele>
        <time>2020-11-14T10:56:18Z</time>
      </trkpt>
      <trkpt lat="38.8923670" lon="-0.3348580">
        <ele>239.9</ele>
        <time>2020-11-14T10:56:19Z</time>
      </trkpt>
      <trkpt lat="38.8923670" lon="-0.3348930">
        <ele>240.0</ele>
        <time>2020-11-14T10:56:20Z</time>
      </trkpt>
      <trkpt lat="38.8923660" lon="-0.3349290">
        <ele>240.2</ele>
        <time>2020-11-14T10:56:21Z</time>
      </trkpt>
      <trkpt lat="38.8923640" lon="-0.3349640">
        <ele>240.3</ele>
        <time>2020-11-14T10:56:22Z</time>
      </trkpt>
      <trkpt lat="38.8923620" lon="-0.3350140">
        <ele>240.5</ele>
        <time>2020-11-14T10:56:23Z</time>
      </trkpt>
      <trkpt lat="38.8923610" lon="-0.3350300">
        <ele>240.5</ele>
        <time>2020-11-14T10:56:24Z</time>
      </trkpt>
      <trkpt lat="38.8923610" lon="-0.3350820">
        <ele>240.8</ele>
        <time>2020-11-14T10:56:25Z</time>
      </trkpt>
      <trkpt lat="38.8923600" lon="-0.3350990">
        <ele>240.9</ele>
        <time>2020-11-14T10:56:26Z</time>
      </trkpt>
      <trkpt lat="38.8923570" lon="-0.3351500">
        <ele>241.2</ele>
        <time>2020-11-14T10:56:27Z</time>
      </trkpt>
      <trkpt lat="38.8923560" lon="-0.3351660">
        <ele>241.3</ele>
        <time>2020-11-14T10:56:28Z</time>
      </trkpt>
      <trkpt lat="38.8923500" lon="-0.3352150">
        <ele>241.6</ele>
        <time>2020-11-14T10:56:29Z</time>
      </trkpt>
      <trkpt lat="38.8923480" lon="-0.3352310">
        <ele>241.7</ele>
        <time>2020-11-14T10:56:30Z</time>
      </trkpt>
      <trkpt lat="38.8923430" lon="-0.3352780">
        <ele>242.0</ele>
        <time>2020-11-14T10:56:31Z</time>
      </trkpt>
      <trkpt lat="38.8923400" lon="-0.3352940">
        <ele>242.1</ele>
        <time>2020-11-14T10:56:32Z</time>
      </trkpt>
      <trkpt lat="38.8923330" lon="-0.3353410">
        <ele>242.4</ele>
        <time>2020-11-14T10:56:33Z</time>
      </trkpt>
      <trkpt lat="38.8923300" lon="-0.3353560">
        <ele>242.5</ele>
        <time>2020-11-14T10:56:34Z</time>
      </trkpt>
      <trkpt lat="38.8923270" lon="-0.3354030">
        <ele>242.8</ele>
        <time>2020-11-14T10:56:35Z</time>
      </trkpt>
      <trkpt lat="38.8923260" lon="-0.3354190">
        <ele>242.9</ele>
        <time>2020-11-14T10:56:36Z</time>
      </trkpt>
      <trkpt lat="38.8923240" lon="-0.3354690">
        <ele>243.2</ele>
        <time>2020-11-14T10:56:37Z</time>
      </trkpt>
      <trkpt lat="38.8923230" lon="-0.3354860">
        <ele>243.3</ele>
        <time>2020-11-14T10:56:38Z</time>
      </trkpt>
      <trkpt lat="38.8923180" lon="-0.3355340">
        <ele>243.6</ele>
        <time>2020-11-14T10:56:39Z</time>
      </trkpt>
      <trkpt lat="38.8923160" lon="-0.3355500">
        <ele>243.8</ele>
        <time>2020-11-14T10:56:40Z</time>
      </trkpt>
      <trkpt lat="38.8923100" lon="-0.3355980">
        <ele>244.1</ele>
        <time>2020-11-14T10:56:41Z</time>
      </trkpt>
      <trkpt lat="38.8923070" lon="-0.3356140">
        <ele>244.2</ele>
        <time>2020-11-14T10:56:42Z</time>
      </trkpt>
      <trkpt lat="38.8922990" lon="-0.3356610">
        <ele>244.5</ele>
        <time>2020-11-14T10:56:43Z</time>
      </trkpt>
      <trkpt lat="38.8922950" lon="-0.3356760">
        <ele>244.6</ele>
        <time>2020-11-14T10:56:44Z</time>
      </trkpt>
      <trkpt lat="38.8922860" lon="-0.3357240">
        <ele>244.9</ele>
        <time>2020-11-14T10:56:45Z</time>
      </trkpt>
      <trkpt lat="38.8922820" lon="-0.3357400">
        <ele>245.0</ele>
        <time>2020-11-14T10:56:46Z</time>
      </trkpt>
      <trkpt lat="38.8922740" lon="-0.3357890">
        <ele>245.3</ele>
        <time>2020-11-14T10:56:47Z</time>
      </trkpt>
      <trkpt lat="38.8922710" lon="-0.3358050">
        <ele>245.4</ele>
        <time>2020-11-14T10:56:48Z</time>
      </trkpt>
      <trkpt lat="38.8922650" lon="-0.3358540">
        <ele>245.7</ele>
        <time>2020-11-14T10:56:49Z</time>
      </trkpt>
      <trkpt lat="38.8922630" lon="-0.3358700">
        <ele>245.8</ele>
        <time>2020-11-14T10:56:50Z</time>
      </trkpt>
      <trkpt lat="38.8922580" lon="-0.3359200">
        <ele>246.1</ele>
        <time>2020-11-14T10:56:51Z</time>
      </trkpt>
      <trkpt lat="38.8922560" lon="-0.3359360">
        <ele>246.2</ele>
        <time>2020-11-14T10:56:52Z</time>
      </trkpt>
      <trkpt lat="38.8922490" lon="-0.3359830">
        <ele>246.4</ele>
        <time>2020-11-14T10:56:53Z</time>
      </trkpt>
      <trkpt lat="38.8922460" lon="-0.3359980">
        <ele>246.5</ele>
        <time>2020-11-14T10:56:54Z</time>
      </trkpt>
      <trkpt lat="38.8922390" lon="-0.3360440">
        <ele>246.8</ele>
        <time>2020-11-14T10:56:55Z</time>
      </trkpt>
      <trkpt lat="38.8922360" lon="-0.3360600">
        <ele>246.9</ele>
        <time>2020-11-14T10:56:56Z</time>
      </trkpt>
      <trkpt lat="38.8922290" lon="-0.3361080">
        <ele>247.1</ele>
        <time>2020-11-14T10:56:57Z</time>
      </trkpt>
      <trkpt lat="38.8922270" lon="-0.3361230">
        <ele>247.2</ele>
        <time>2020-11-14T10:56:58Z</time>
      </trkpt>
      <trkpt lat="38.8922220" lon="-0.3361740">
        <ele>247.5</ele>
        <time>2020-11-14T10:56:59Z</time>
      </trkpt>
      <trkpt lat="38.8922200" lon="-0.3361910">
        <ele>247.5</ele>
        <time>2020-11-14T10:57:00Z</time>
      </trkpt>
      <trkpt lat="38.8922140" lon="-0.3362410">
        <ele>247.8</ele>
        <time>2020-11-14T10:57:01Z</time>
      </trkpt>
      <trkpt lat="38.8922120" lon="-0.3362580">
        <ele>247.8</ele>
        <time>2020-11-14T10:57:02Z</time>
      </trkpt>
      <trkpt lat="38.8922060" lon="-0.3362920">
        <ele>248.0</ele>
        <time>2020-11-14T10:57:03Z</time>
      </trkpt>
      <trkpt lat="38.8922010" lon="-0.3363270">
        <ele>248.1</ele>
        <time>2020-11-14T10:57:04Z</time>
      </trkpt>
      <trkpt lat="38.8921950" lon="-0.3363640">
        <ele>248.2</ele>
        <time>2020-11-14T10:57:05Z</time>
      </trkpt>
      <trkpt lat="38.8921890" lon="-0.3364010">
        <ele>248.3</ele>
        <time>2020-11-14T10:57:06Z</time>
      </trkpt>
      <trkpt lat="38.8921850" lon="-0.3364400">
        <ele>248.5</ele>
        <time>2020-11-14T10:57:07Z</time>
      </trkpt>
      <trkpt lat="38.8921810" lon="-0.3364820">
        <ele>248.6</ele>
        <time>2020-11-14T10:57:08Z</time>
      </trkpt>
      <trkpt lat="38.8921770" lon="-0.3365260">
        <ele>248.6</ele>
        <time>2020-11-14T10:57:09Z</time>
      </trkpt>
      <trkpt lat="38.8921720" lon="-0.3365710">
        <ele>248.7</ele>
        <time>2020-11-14T10:57:10Z</time>
      </trkpt>
      <trkpt lat="38.8921660" lon="-0.3366170">
        <ele>248.8</ele>
        <time>2020-11-14T10:57:11Z</time>
      </trkpt>
      <trkpt lat="38.8921590" lon="-0.3366640">
        <ele>248.8</ele>
        <time>2020-11-14T10:57:12Z</time>
      </trkpt>
      <trkpt lat="38.8921520" lon="-0.3367120">
        <ele>248.9</ele>
        <time>2020-11-14T10:57:13Z</time>
      </trkpt>
      <trkpt lat="38.8921450" lon="-0.3367600">
        <ele>248.9</ele>
        <time>2020-11-14T10:57:14Z</time>
      </trkpt>
      <trkpt lat="38.8921380" lon="-0.3368080">
        <ele>249.0</ele>
        <time>2020-11-14T10:57:15Z</time>
      </trkpt>
      <trkpt lat="38.8921320" lon="-0.3368580">
        <ele>249.0</ele>
        <time>2020-11-14T10:57:16Z</time>
      </trkpt>
      <trkpt lat="38.8921260" lon="-0.3369080">
        <ele>249.1</ele>
        <time>2020-11-14T10:57:17Z</time>
      </trkpt>
      <trkpt lat="38.8921210" lon="-0.3369590">
        <ele>249.1</ele>
        <time>2020-11-14T10:57:18Z</time>
      </trkpt>
      <trkpt lat="38.8921150" lon="-0.3370100">
        <ele>249.2</ele>
        <time>2020-11-14T10:57:19Z</time>
      </trkpt>
      <trkpt lat="38.8921090" lon="-0.3370620">
        <ele>249.2</ele>
        <time>2020-11-14T10:57:20Z</time>
      </trkpt>
      <trkpt lat="38.8921030" lon="-0.3371150">
        <ele>249.3</ele>
        <time>2020-11-14T10:57:21Z</time>
      </trkpt>
      <trkpt lat="38.8920970" lon="-0.3371680">
        <ele>249.3</ele>
        <time>2020-11-14T10:57:22Z</time>
      </trkpt>
      <trkpt lat="38.8920920" lon="-0.3372210">
        <ele>249.4</ele>
        <time>2020-11-14T10:57:23Z</time>
      </trkpt>
      <trkpt lat="38.8920870" lon="-0.3372750">
        <ele>249.4</ele>
        <time>2020-11-14T10:57:24Z</time>
      </trkpt>
      <trkpt lat="38.8920810" lon="-0.3373300">
        <ele>249.5</ele>
        <time>2020-11-14T10:57:25Z</time>
      </trkpt>
      <trkpt lat="38.8920740" lon="-0.3373830">
        <ele>249.6</ele>
        <time>2020-11-14T10:57:26Z</time>
      </trkpt>
      <trkpt lat="38.8920660" lon="-0.3374360">
        <ele>249.7</ele>
        <time>2020-11-14T10:57:27Z</time>
      </trkpt>
      <trkpt lat="38.8920590" lon="-0.3374870">
        <ele>249.8</ele>
        <time>2020-11-14T10:57:28Z</time>
      </trkpt>
      <trkpt lat="38.8920530" lon="-0.3375360">
        <ele>249.8</ele>
        <time>2020-11-14T10:57:29Z</time>
      </trkpt>
      <trkpt lat="38.8920480" lon="-0.3375840">
        <ele>249.9</ele>
        <time>2020-11-14T10:57:30Z</time>
      </trkpt>
      <trkpt lat="38.8920440" lon="-0.3376300">
        <ele>249.9</ele>
        <time>2020-11-14T10:57:31Z</time>
      </trkpt>
      <trkpt lat="38.8920400" lon="-0.3376740">
        <ele>250.0</ele>
        <time>2020-11-14T10:57:32Z</time>
      </trkpt>
      <trkpt lat="38.8920350" lon="-0.3377140">
        <ele>250.0</ele>
        <time>2020-11-14T10:57:33Z</time>
      </trkpt>
      <trkpt lat="38.8920310" lon="-0.3377540">
        <ele>250.2</ele>
        <time>2020-11-14T10:57:34Z</time>
      </trkpt>
      <trkpt lat="38.8920280" lon="-0.3377930">
        <ele>250.3</ele>
        <time>2020-11-14T10:57:35Z</time>
      </trkpt>
      <trkpt lat="38.8920260" lon="-0.3378300">
        <ele>250.5</ele>
        <time>2020-11-14T10:57:36Z</time>
      </trkpt>
      <trkpt lat="38.8920240" lon="-0.3378670">
        <ele>250.6</ele>
        <time>2020-11-14T10:57:37Z</time>
      </trkpt>
      <trkpt lat="38.8920210" lon="-0.3379040">
        <ele>250.8</ele>
        <time>2020-11-14T10:57:38Z</time>
      </trkpt>
      <trkpt lat="38.8920200" lon="-0.3379390">
        <ele>251.0</ele>
        <time>2020-11-14T10:57:39Z</time>
      </trkpt>
      <trkpt lat="38.8920180" lon="-0.3379750">
        <ele>251.2</ele>
        <time>2020-11-14T10:57:40Z</time>
      </trkpt>
      <trkpt lat="38.8920140" lon="-0.3380260">
        <ele>251.4</ele>
        <time>2020-11-14T10:57:41Z</time>
      </trkpt>
      <trkpt lat="38.8920120" lon="-0.3380420">
        <ele>251.5</ele>
        <time>2020-11-14T10:57:42Z</time>
      </trkpt>
      <trkpt lat="38.8920040" lon="-0.3380920">
        <ele>251.8</ele>
        <time>2020-11-14T10:57:43Z</time>
      </trkpt>
      <trkpt lat="38.8920010" lon="-0.3381090">
        <ele>251.9</ele>
        <time>2020-11-14T10:57:44Z</time>
      </trkpt>
      <trkpt lat="38.8919960" lon="-0.3381440">
        <ele>252.1</ele>
        <time>2020-11-14T10:57:45Z</time>
      </trkpt>
      <trkpt lat="38.8919910" lon="-0.3381790">
        <ele>252.3</ele>
        <time>2020-11-14T10:57:46Z</time>
      </trkpt>
      <trkpt lat="38.8919860" lon="-0.3382140">
        <ele>252.5</ele>
        <time>2020-11-14T10:57:47Z</time>
      </trkpt>
      <trkpt lat="38.8919800" lon="-0.3382650">
        <ele>252.9</ele>
        <time>2020-11-14T10:57:48Z</time>
      </trkpt>
      <trkpt lat="38.8919780" lon="-0.3382810">
        <ele>253.0</ele>
        <time>2020-11-14T10:57:49Z</time>
      </trkpt>
      <trkpt lat="38.8919730" lon="-0.3383160">
        <ele>253.2</ele>
        <time>2020-11-14T10:57:50Z</time>
      </trkpt>
      <trkpt lat="38.8919690" lon="-0.3383510">
        <ele>253.4</ele>
        <time>2020-11-14T10:57:51Z</time>
      </trkpt>
      <trkpt lat="38.8919620" lon="-0.3384010">
        <ele>253.7</ele>
        <time>2020-11-14T10:57:52Z</time>
      </trkpt>
      <trkpt lat="38.8919590" lon="-0.3384170">
        <ele>253.8</ele>
        <time>2020-11-14T10:57:53Z</time>
      </trkpt>
      <trkpt lat="38.8919510" lon="-0.3384680">
        <ele>254.1</ele>
        <time>2020-11-14T10:57:54Z</time>
      </trkpt>
      <trkpt lat="38.8919480" lon="-0.3384840">
        <ele>254.2</ele>
        <time>2020-11-14T10:57:55Z</time>
      </trkpt>
      <trkpt lat="38.8919440" lon="-0.3385330">
        <ele>254.5</ele>
        <time>2020-11-14T10:57:56Z</time>
      </trkpt>
      <trkpt lat="38.8919420" lon="-0.3385490">
        <ele>254.6</ele>
        <time>2020-11-14T10:57:57Z</time>
      </trkpt>
      <trkpt lat="38.8919370" lon="-0.3385990">
        <ele>254.9</ele>
        <time>2020-11-14T10:57:58Z</time>
      </trkpt>
      <trkpt lat="38.8919350" lon="-0.3386160">
        <ele>255.0</ele>
        <time>2020-11-14T10:57:59Z</time>
      </trkpt>
      <trkpt lat="38.8919350" lon="-0.3386660">
        <ele>255.3</ele>
        <time>2020-11-14T10:58:00Z</time>
      </trkpt>
      <trkpt lat="38.8919350" lon="-0.3386830">
        <ele>255.4</ele>
        <time>2020-11-14T10:58:01Z</time>
      </trkpt>
      <trkpt lat="38.8919340" lon="-0.3387340">
        <ele>255.7</ele>
        <time>2020-11-14T10:58:02Z</time>
      </trkpt>
      <trkpt lat="38.8919330" lon="-0.3387500">
        <ele>255.8</ele>
        <time>2020-11-14T10:58:03Z</time>
      </trkpt>
      <trkpt lat="38.8919310" lon="-0.3387990">
        <ele>256.1</ele>
        <time>2020-11-14T10:58:04Z</time>
      </trkpt>
      <trkpt lat="38.8919290" lon="-0.3388150">
        <ele>256.2</ele>
        <time>2020-11-14T10:58:05Z</time>
      </trkpt>
      <trkpt lat="38.8919200" lon="-0.3388610">
        <ele>256.5</ele>
        <time>2020-11-14T10:58:06Z</time>
      </trkpt>
      <trkpt lat="38.8919170" lon="-0.3388770">
        <ele>256.6</ele>
        <time>2020-11-14T10:58:07Z</time>
      </trkpt>
      <trkpt lat="38.8919090" lon="-0.3389110">
        <ele>256.8</ele>
        <time>2020-11-14T10:58:08Z</time>
      </trkpt>
      <trkpt lat="38.8919000" lon="-0.3389580">
        <ele>257.1</ele>
        <time>2020-11-14T10:58:09Z</time>
      </trkpt>
      <trkpt lat="38.8918970" lon="-0.3389730">
        <ele>257.3</ele>
        <time>2020-11-14T10:58:10Z</time>
      </trkpt>
      <trkpt lat="38.8918930" lon="-0.3390190">
        <ele>257.5</ele>
        <time>2020-11-14T10:58:11Z</time>
      </trkpt>
      <trkpt lat="38.8918910" lon="-0.3390350">
        <ele>257.6</ele>
        <time>2020-11-14T10:58:12Z</time>
      </trkpt>
      <trkpt lat="38.8918870" lon="-0.3390830">
        <ele>258.0</ele>
        <time>2020-11-14T10:58:13Z</time>
      </trkpt>
      <trkpt lat="38.8918850" lon="-0.3390990">
        <ele>258.1</ele>
        <time>2020-11-14T10:58:14Z</time>
      </trkpt>
      <trkpt lat="38.8918800" lon="-0.3391430">
        <ele>258.3</ele>
        <time>2020-11-14T10:58:15Z</time>
      </trkpt>
      <trkpt lat="38.8918790" lon="-0.3391580">
        <ele>258.4</ele>
        <time>2020-11-14T10:58:16Z</time>
      </trkpt>
      <trkpt lat="38.8918750" lon="-0.3392030">
        <ele>258.7</ele>
        <time>2020-11-14T10:58:17Z</time>
      </trkpt>
      <trkpt lat="38.8918730" lon="-0.3392180">
        <ele>258.8</ele>
        <time>2020-11-14T10:58:18Z</time>
      </trkpt>
      <trkpt lat="38.8918670" lon="-0.3392640">
        <ele>259.1</ele>
        <time>2020-11-14T10:58:19Z</time>
      </trkpt>
      <trkpt lat="38.8918640" lon="-0.3392790">
        <ele>259.2</ele>
        <time>2020-11-14T10:58:20Z</time>
      </trkpt>
      <trkpt lat="38.8918600" lon="-0.3393260">
        <ele>259.5</ele>
        <time>2020-11-14T10:58:21Z</time>
      </trkpt>
      <trkpt lat="38.8918580" lon="-0.3393410">
        <ele>259.5</ele>
        <time>2020-11-14T10:58:22Z</time>
      </trkpt>
      <trkpt lat="38.8918580" lon="-0.3393870">
        <ele>259.8</ele>
        <time>2020-11-14T10:58:23Z</time>
      </trkpt>
      <trkpt lat="38.8918590" lon="-0.3394030">
        <ele>259.9</ele>
        <time>2020-11-14T10:58:24Z</time>
      </trkpt>
      <trkpt lat="38.8918570" lon="-0.3394510">
        <ele>260.2</ele>
        <time>2020-11-14T10:58:25Z</time>
      </trkpt>
      <trkpt lat="38.8918550" lon="-0.3394670">
        <ele>260.3</ele>
        <time>2020-11-14T10:58:26Z</time>
      </trkpt>
      <trkpt lat="38.8918480" lon="-0.3395150">
        <ele>260.6</ele>
        <time>2020-11-14T10:58:27Z</time>
      </trkpt>
      <trkpt lat="38.8918450" lon="-0.3395300">
        <ele>260.7</ele>
        <time>2020-11-14T10:58:28Z</time>
      </trkpt>
      <trkpt lat="38.8918380" lon="-0.3395770">
        <ele>261.0</ele>
        <time>2020-11-14T10:58:29Z</time>
      </trkpt>
      <trkpt lat="38.8918360" lon="-0.3395930">
        <ele>261.1</ele>
        <time>2020-11-14T10:58:30Z</time>
      </trkpt>
      <trkpt lat="38.8918290" lon="-0.3396380">
        <ele>261.4</ele>
        <time>2020-11-14T10:58:31Z</time>
      </trkpt>
      <trkpt lat="38.8918260" lon="-0.3396530">
        <ele>261.5</ele>
        <time>2020-11-14T10:58:32Z</time>
      </trkpt>
      <trkpt lat="38.8918190" lon="-0.3396970">
        <ele>261.8</ele>
        <time>2020-11-14T10:58:33Z</time>
      </trkpt>
      <trkpt lat="38.8918160" lon="-0.3397110">
        <ele>261.9</ele>
        <time>2020-11-14T10:58:34Z</time>
      </trkpt>
      <trkpt lat="38.8918120" lon="-0.3397560">
        <ele>262.2</ele>
        <time>2020-11-14T10:58:35Z</time>
      </trkpt>
      <trkpt lat="38.8918110" lon="-0.3397710">
        <ele>262.3</ele>
        <time>2020-11-14T10:58:36Z</time>
      </trkpt>
      <trkpt lat="38.8918070" lon="-0.3398180">
        <ele>262.5</ele>
        <time>2020-11-14T10:58:37Z</time>
      </trkpt>
      <trkpt lat="38.8918060" lon="-0.3398330">
        <ele>262.6</ele>
        <time>2020-11-14T10:58:38Z</time>
      </trkpt>
      <trkpt lat="38.8918010" lon="-0.3398800">
        <ele>262.9</ele>
        <time>2020-11-14T10:58:39Z</time>
      </trkpt>
      <trkpt lat="38.8917990" lon="-0.3398950">
        <ele>263.0</ele>
        <time>2020-11-14T10:58:40Z</time>
      </trkpt>
      <trkpt lat="38.8917890" lon="-0.3399380">
        <ele>263.3</ele>
        <time>2020-11-14T10:58:41Z</time>
      </trkpt>
      <trkpt lat="38.8917840" lon="-0.3399510">
        <ele>263.4</ele>
        <time>2020-11-14T10:58:42Z</time>
      </trkpt>
      <trkpt lat="38.8917700" lon="-0.3399910">
        <ele>263.7</ele>
        <time>2020-11-14T10:58:43Z</time>
      </trkpt>
      <trkpt lat="38.8917650" lon="-0.3400040">
        <ele>263.8</ele>
        <time>2020-11-14T10:58:44Z</time>
      </trkpt>
      <trkpt lat="38.8917490" lon="-0.3400420">
        <ele>264.0</ele>
        <time>2020-11-14T10:58:45Z</time>
      </trkpt>
      <trkpt lat="38.8917430" lon="-0.3400550">
        <ele>264.1</ele>
        <time>2020-11-14T10:58:46Z</time>
      </trkpt>
      <trkpt lat="38.8917270" lon="-0.3400920">
        <ele>264.4</ele>
        <time>2020-11-14T10:58:47Z</time>
      </trkpt>
      <trkpt lat="38.8917210" lon="-0.3401040">
        <ele>264.5</ele>
        <time>2020-11-14T10:58:48Z</time>
      </trkpt>
      <trkpt lat="38.8917020" lon="-0.3401440">
        <ele>264.7</ele>
        <time>2020-11-14T10:58:49Z</time>
      </trkpt>
      <trkpt lat="38.8916950" lon="-0.3401560">
        <ele>264.8</ele>
        <time>2020-11-14T10:58:50Z</time>
      </trkpt>
      <trkpt lat="38.8916730" lon="-0.3401930">
        <ele>265.1</ele>
        <time>2020-11-14T10:58:51Z</time>
      </trkpt>
      <trkpt lat="38.8916650" lon="-0.3402060">
        <ele>265.2</ele>
        <time>2020-11-14T10:58:52Z</time>
      </trkpt>
      <trkpt lat="38.8916410" lon="-0.3402440">
        <ele>265.4</ele>
        <time>2020-11-14T10:58:53Z</time>
      </trkpt>
      <trkpt lat="38.8916320" lon="-0.3402560">
        <ele>265.5</ele>
        <time>2020-11-14T10:58:54Z</time>
      </trkpt>
      <trkpt lat="38.8916070" lon="-0.3402920">
        <ele>265.7</ele>
        <time>2020-11-14T10:58:55Z</time>
      </trkpt>
      <trkpt lat="38.8915980" lon="-0.3403040">
        <ele>265.8</ele>
        <time>2020-11-14T10:58:56Z</time>
      </trkpt>
      <trkpt lat="38.8915800" lon="-0.3403310">
        <ele>266.0</ele>
        <time>2020-11-14T10:58:57Z</time>
      </trkpt>
      <trkpt lat="38.8915520" lon="-0.3403690">
        <ele>266.3</ele>
        <time>2020-11-14T10:58:58Z</time>
      </trkpt>
      <trkpt lat="38.8915430" lon="-0.3403810">
        <ele>266.4</ele>
        <time>2020-11-14T10:58:59Z</time>
      </trkpt>
      <trkpt lat="38.8915200" lon="-0.3404170">
        <ele>266.7</ele>
        <time>2020-11-14T10:59:00Z</time>
      </trkpt>
      <trkpt lat="38.8915120" lon="-0.3404290">
        <ele>266.7</ele>
        <time>2020-11-14T10:59:01Z</time>
      </trkpt>
      <trkpt lat="38.8914880" lon="-0.3404670">
        <ele>267.0</ele>
        <time>2020-11-14T10:59:02Z</time>
      </trkpt>
      <trkpt lat="38.8914800" lon="-0.3404790">
        <ele>267.1</ele>
        <time>2020-11-14T10:59:03Z</time>
      </trkpt>
      <trkpt lat="38.8914560" lon="-0.3405140">
        <ele>267.4</ele>
        <time>2020-11-14T10:59:04Z</time>
      </trkpt>
      <trkpt lat="38.8914480" lon="-0.3405250">
        <ele>267.4</ele>
        <time>2020-11-14T10:59:05Z</time>
      </trkpt>
      <trkpt lat="38.8914220" lon="-0.3405610">
        <ele>267.7</ele>
        <time>2020-11-14T10:59:06Z</time>
      </trkpt>
      <trkpt lat="38.8914140" lon="-0.3405740">
        <ele>267.8</ele>
        <time>2020-11-14T10:59:07Z</time>
      </trkpt>
      <trkpt lat="38.8913890" lon="-0.3406100">
        <ele>268.0</ele>
        <time>2020-11-14T10:59:08Z</time>
      </trkpt>
      <trkpt lat="38.8913810" lon="-0.3406220">
        <ele>268.1</ele>
        <time>2020-11-14T10:59:09Z</time>
      </trkpt>
      <trkpt lat="38.8913540" lon="-0.3406590">
        <ele>268.3</ele>
        <time>2020-11-14T10:59:10Z</time>
      </trkpt>
      <trkpt lat="38.8913450" lon="-0.3406700">
        <ele>268.4</ele>
        <time>2020-11-14T10:59:11Z</time>
      </trkpt>
      <trkpt lat="38.8913250" lon="-0.3406940">
        <ele>268.5</ele>
        <time>2020-11-14T10:59:12Z</time>
      </trkpt>
      <trkpt lat="38.8912970" lon="-0.3407270">
        <ele>268.7</ele>
        <time>2020-11-14T10:59:13Z</time>
      </trkpt>
      <trkpt lat="38.8912870" lon="-0.3407380">
        <ele>268.8</ele>
        <time>2020-11-14T10:59:14Z</time>
      </trkpt>
      <trkpt lat="38.8912610" lon="-0.3407780">
        <ele>269.0</ele>
        <time>2020-11-14T10:59:15Z</time>
      </trkpt>
      <trkpt lat="38.8912520" lon="-0.3407920">
        <ele>269.0</ele>
        <time>2020-11-14T10:59:16Z</time>
      </trkpt>
      <trkpt lat="38.8912360" lon="-0.3408240">
        <ele>269.1</ele>
        <time>2020-11-14T10:59:17Z</time>
      </trkpt>
      <trkpt lat="38.8912200" lon="-0.3408590">
        <ele>269.2</ele>
        <time>2020-11-14T10:59:18Z</time>
      </trkpt>
      <trkpt lat="38.8912020" lon="-0.3408960">
        <ele>269.3</ele>
        <time>2020-11-14T10:59:19Z</time>
      </trkpt>
      <trkpt lat="38.8911820" lon="-0.3409320">
        <ele>269.4</ele>
        <time>2020-11-14T10:59:20Z</time>
      </trkpt>
      <trkpt lat="38.8911610" lon="-0.3409690">
        <ele>269.5</ele>
        <time>2020-11-14T10:59:21Z</time>
      </trkpt>
      <trkpt lat="38.8911390" lon="-0.3410060">
        <ele>269.6</ele>
        <time>2020-11-14T10:59:22Z</time>
      </trkpt>
      <trkpt lat="38.8911180" lon="-0.3410440">
        <ele>269.7</ele>
        <time>2020-11-14T10:59:23Z</time>
      </trkpt>
      <trkpt lat="38.8910930" lon="-0.3410830">
        <ele>269.8</ele>
        <time>2020-11-14T10:59:24Z</time>
      </trkpt>
      <trkpt lat="38.8910680" lon="-0.3411220">
        <ele>269.9</ele>
        <time>2020-11-14T10:59:25Z</time>
      </trkpt>
      <trkpt lat="38.8910410" lon="-0.3411600">
        <ele>270.0</ele>
        <time>2020-11-14T10:59:26Z</time>
      </trkpt>
      <trkpt lat="38.8910170" lon="-0.3412000">
        <ele>270.0</ele>
        <time>2020-11-14T10:59:27Z</time>
      </trkpt>
      <trkpt lat="38.8909990" lon="-0.3412400">
        <ele>270.1</ele>
        <time>2020-11-14T10:59:28Z</time>
      </trkpt>
      <trkpt lat="38.8909790" lon="-0.3412830">
        <ele>270.1</ele>
        <time>2020-11-14T10:59:29Z</time>
      </trkpt>
      <trkpt lat="38.8909580" lon="-0.3413290">
        <ele>270.2</ele>
        <time>2020-11-14T10:59:30Z</time>
      </trkpt>
      <trkpt lat="38.8909360" lon="-0.3413750">
        <ele>270.2</ele>
        <time>2020-11-14T10:59:31Z</time>
      </trkpt>
      <trkpt lat="38.8909140" lon="-0.3414210">
        <ele>270.3</ele>
        <time>2020-11-14T10:59:32Z</time>
      </trkpt>
      <trkpt lat="38.8908940" lon="-0.3414690">
        <ele>270.3</ele>
        <time>2020-11-14T10:59:33Z</time>
      </trkpt>
      <trkpt lat="38.8908760" lon="-0.3415180">
        <ele>270.4</ele>
        <time>2020-11-14T10:59:34Z</time>
      </trkpt>
      <trkpt lat="38.8908540" lon="-0.3415660">
        <ele>270.4</ele>
        <time>2020-11-14T10:59:35Z</time>
      </trkpt>
      <trkpt lat="38.8908310" lon="-0.3416130">
        <ele>270.5</ele>
        <time>2020-11-14T10:59:36Z</time>
      </trkpt>
      <trkpt lat="38.8907850" lon="-0.3416540">
        <ele>270.6</ele>
        <time>2020-11-14T10:59:37Z</time>
      </trkpt>
      <trkpt lat="38.8907430" lon="-0.3416710">
        <ele>270.7</ele>
        <time>2020-11-14T10:59:38Z</time>
      </trkpt>
      <trkpt lat="38.8907180" lon="-0.3417110">
        <ele>270.7</ele>
        <time>2020-11-14T10:59:39Z</time>
      </trkpt>
      <trkpt lat="38.8906760" lon="-0.3417420">
        <ele>270.8</ele>
        <time>2020-11-14T10:59:40Z</time>
      </trkpt>
      <trkpt lat="38.8906430" lon="-0.3417700">
        <ele>270.8</ele>
        <time>2020-11-14T10:59:41Z</time>
      </trkpt>
      <trkpt lat="38.8905970" lon="-0.3417950">
        <ele>270.9</ele>
        <time>2020-11-14T10:59:42Z</time>
      </trkpt>
      <trkpt lat="38.8905520" lon="-0.3418220">
        <ele>271.0</ele>
        <time>2020-11-14T10:59:43Z</time>
      </trkpt>
      <trkpt lat="38.8905150" lon="-0.3418510">
        <ele>271.1</ele>
        <time>2020-11-14T10:59:44Z</time>
      </trkpt>
      <trkpt lat="38.8904650" lon="-0.3418770">
        <ele>271.1</ele>
        <time>2020-11-14T10:59:45Z</time>
      </trkpt>
      <trkpt lat="38.8904280" lon="-0.3419060">
        <ele>271.2</ele>
        <time>2020-11-14T10:59:46Z</time>
      </trkpt>
      <trkpt lat="38.8903730" lon="-0.3419260">
        <ele>271.3</ele>
        <time>2020-11-14T10:59:47Z</time>
      </trkpt>
      <trkpt lat="38.8903090" lon="-0.3419470">
        <ele>271.4</ele>
        <time>2020-11-14T10:59:48Z</time>
      </trkpt>
      <trkpt lat="38.8902730" lon="-0.3419770">
        <ele>271.4</ele>
        <time>2020-11-14T10:59:49Z</time>
      </trkpt>
      <trkpt lat="38.8902250" lon="-0.3419980">
        <ele>271.5</ele>
        <time>2020-11-14T10:59:50Z</time>
      </trkpt>
      <trkpt lat="38.8901850" lon="-0.3420390">
        <ele>271.5</ele>
        <time>2020-11-14T10:59:51Z</time>
      </trkpt>
      <trkpt lat="38.8901440" lon="-0.3420600">
        <ele>271.5</ele>
        <time>2020-11-14T10:59:52Z</time>
      </trkpt>
      <trkpt lat="38.8901090" lon="-0.3421000">
        <ele>271.6</ele>
        <time>2020-11-14T10:59:53Z</time>
      </trkpt>
      <trkpt lat="38.8900630" lon="-0.3421280">
        <ele>271.6</ele>
        <time>2020-11-14T10:59:54Z</time>
      </trkpt>
      <trkpt lat="38.8900100" lon="-0.3421500">
        <ele>271.6</ele>
        <time>2020-11-14T10:59:55Z</time>
      </trkpt>
      <trkpt lat="38.8899790" lon="-0.3421840">
        <ele>271.6</ele>
        <time>2020-11-14T10:59:56Z</time>
      </trkpt>
      <trkpt lat="38.8899420" lon="-0.3422030">
        <ele>271.6</ele>
        <time>2020-11-14T10:59:57Z</time>
      </trkpt>
      <trkpt lat="38.8898800" lon="-0.3422300">
        <ele>271.7</ele>
        <time>2020-11-14T10:59:58Z</time>
      </trkpt>
      <trkpt lat="38.8898230" lon="-0.3422540">
        <ele>271.7</ele>
        <time>2020-11-14T10:59:59Z</time>
      </trkpt>
      <trkpt lat="38.8897810" lon="-0.3422830">
        <ele>271.7</ele>
        <time>2020-11-14T11:00:00Z</time>
      </trkpt>
      <trkpt lat="38.8897370" lon="-0.3423040">
        <ele>271.7</ele>
        <time>2020-11-14T11:00:01Z</time>
      </trkpt>
      <trkpt lat="38.8896970" lon="-0.3423320">
        <ele>271.7</ele>
        <time>2020-11-14T11:00:02Z</time>
      </trkpt>
      <trkpt lat="38.8896630" lon="-0.3423570">
        <ele>271.7</ele>
        <time>2020-11-14T11:00:03Z</time>
      </trkpt>
      <trkpt lat="38.8896320" lon="-0.3423960">
        <ele>271.8</ele>
        <time>2020-11-14T11:00:04Z</time>
      </trkpt>
      <trkpt lat="38.8895880" lon="-0.3424220">
        <ele>271.8</ele>
        <time>2020-11-14T11:00:05Z</time>
      </trkpt>
      <trkpt lat="38.8895410" lon="-0.3424500">
        <ele>271.8</ele>
        <time>2020-11-14T11:00:06Z</time>
      </trkpt>
      <trkpt lat="38.8894940" lon="-0.3424840">
        <ele>271.8</ele>
        <time>2020-11-14T11:00:07Z</time>
      </trkpt>
      <trkpt lat="38.8894630" lon="-0.3425310">
        <ele>271.8</ele>
        <time>2020-11-14T11:00:08Z</time>
      </trkpt>
      <trkpt lat="38.8894240" lon="-0.3425710">
        <ele>271.9</ele>
        <time>2020-11-14T11:00:09Z</time>
      </trkpt>
      <trkpt lat="38.8893880" lon="-0.3426220">
        <ele>271.9</ele>
        <time>2020-11-14T11:00:10Z</time>
      </trkpt>
      <trkpt lat="38.8893480" lon="-0.3426680">
        <ele>271.9</ele>
        <time>2020-11-14T11:00:11Z</time>
      </trkpt>
      <trkpt lat="38.8893120" lon="-0.3427200">
        <ele>272.0</ele>
        <time>2020-11-14T11:00:12Z</time>
      </trkpt>
      <trkpt lat="38.8892780" lon="-0.3427600">
        <ele>272.0</ele>
        <time>2020-11-14T11:00:13Z</time>
      </trkpt>
      <trkpt lat="38.8892420" lon="-0.3427950">
        <ele>272.0</ele>
        <time>2020-11-14T11:00:14Z</time>
      </trkpt>
      <trkpt lat="38.8892110" lon="-0.3428470">
        <ele>272.1</ele>
        <time>2020-11-14T11:00:15Z</time>
      </trkpt>
      <trkpt lat="38.8891770" lon="-0.3429090">
        <ele>272.2</ele>
        <time>2020-11-14T11:00:16Z</time>
      </trkpt>
      <trkpt lat="38.8891480" lon="-0.3429670">
        <ele>272.2</ele>
        <time>2020-11-14T11:00:17Z</time>
      </trkpt>
      <trkpt lat="38.8891400" lon="-0.3430380">
        <ele>272.3</ele>
        <time>2020-11-14T11:00:18Z</time>
      </trkpt>
      <trkpt lat="38.8891140" lon="-0.3430980">
        <ele>272.3</ele>
        <time>2020-11-14T11:00:19Z</time>
      </trkpt>
      <trkpt lat="38.8890900" lon="-0.3431350">
        <ele>272.3</ele>
        <time>2020-11-14T11:00:20Z</time>
      </trkpt>
      <trkpt lat="38.8890690" lon="-0.3431920">
        <ele>272.3</ele>
        <time>2020-11-14T11:00:21Z</time>
      </trkpt>
      <trkpt lat="38.8890510" lon="-0.3432430">
        <ele>272.3</ele>
        <time>2020-11-14T11:00:22Z</time>
      </trkpt>
      <trkpt lat="38.8890360" lon="-0.3433070">
        <ele>272.3</ele>
        <time>2020-11-14T11:00:23Z</time>
      </trkpt>
      <trkpt lat="38.8890130" lon="-0.3433620">
        <ele>272.2</ele>
        <time>2020-11-14T11:00:24Z</time>
      </trkpt>
      <trkpt lat="38.8889910" lon="-0.3434150">
        <ele>272.2</ele>
        <time>2020-11-14T11:00:25Z</time>
      </trkpt>
      <trkpt lat="38.8889610" lon="-0.3434760">
        <ele>272.2</ele>
        <time>2020-11-14T11:00:26Z</time>
      </trkpt>
      <trkpt lat="38.8889250" lon="-0.3435310">
        <ele>272.1</ele>
        <time>2020-11-14T11:00:27Z</time>
      </trkpt>
      <trkpt lat="38.8888950" lon="-0.3435940">
        <ele>272.1</ele>
        <time>2020-11-14T11:00:28Z</time>
      </trkpt>
      <trkpt lat="38.8888690" lon="-0.3436490">
        <ele>272.1</ele>
        <time>2020-11-14T11:00:29Z</time>
      </trkpt>
      <trkpt lat="38.8888510" lon="-0.3437090">
        <ele>272.0</ele>
        <time>2020-11-14T11:00:30Z</time>
      </trkpt>
      <trkpt lat="38.8888140" lon="-0.3437550">
        <ele>272.0</ele>
        <time>2020-11-14T11:00:31Z</time>
      </trkpt>
      <trkpt lat="38.8887840" lon="-0.3438100">
        <ele>272.0</ele>
        <time>2020-11-14T11:00:32Z</time>
      </trkpt>
      <trkpt lat="38.8887640" lon="-0.3438580">
        <ele>272.0</ele>
        <time>2020-11-14T11:00:33Z</time>
      </trkpt>
      <trkpt lat="38.8887460" lon="-0.3439080">
        <ele>272.0</ele>
        <time>2020-11-14T11:00:34Z</time>
      </trkpt>
      <trkpt lat="38.8887210" lon="-0.3439710">
        <ele>272.0</ele>
        <time>2020-11-14T11:00:35Z</time>
      </trkpt>
      <trkpt lat="38.8887000" lon="-0.3440130">
        <ele>272.1</ele>
        <time>2020-11-14T11:00:36Z</time>
      </trkpt>
      <trkpt lat="38.8886780" lon="-0.3440720">
        <ele>272.1</ele>
        <time>2020-11-14T11:00:37Z</time>
      </trkpt>
      <trkpt lat="38.8886510" lon="-0.3441360">
        <ele>272.2</ele>
        <time>2020-11-14T11:00:38Z</time>
      </trkpt>
      <trkpt lat="38.8886280" lon="-0.3442020">
        <ele>272.3</ele>
        <time>2020-11-14T11:00:39Z</time>
      </trkpt>
      <trkpt lat="38.8886030" lon="-0.3442670">
        <ele>272.5</ele>
        <time>2020-11-14T11:00:40Z</time>
      </trkpt>
      <trkpt lat="38.8885780" lon="-0.3443260">
        <ele>272.6</ele>
        <time>2020-11-14T11:00:41Z</time>
      </trkpt>
      <trkpt lat="38.8885540" lon="-0.3443860">
        <ele>272.8</ele>
        <time>2020-11-14T11:00:42Z</time>
      </trkpt>
      <trkpt lat="38.8885340" lon="-0.3444480">
        <ele>273.1</ele>
        <time>2020-11-14T11:00:43Z</time>
      </trkpt>
      <trkpt lat="38.8885130" lon="-0.3444990">
        <ele>273.3</ele>
        <time>2020-11-14T11:00:44Z</time>
      </trkpt>
      <trkpt lat="38.8884920" lon="-0.3445540">
        <ele>273.6</ele>
        <time>2020-11-14T11:00:45Z</time>
      </trkpt>
      <trkpt lat="38.8884740" lon="-0.3445940">
        <ele>273.9</ele>
        <time>2020-11-14T11:00:46Z</time>
      </trkpt>
      <trkpt lat="38.8884620" lon="-0.3446430">
        <ele>274.2</ele>
        <time>2020-11-14T11:00:47Z</time>
      </trkpt>
      <trkpt lat="38.8884480" lon="-0.3446850">
        <ele>274.4</ele>
        <time>2020-11-14T11:00:48Z</time>
      </trkpt>
      <trkpt lat="38.8884310" lon="-0.3447310">
        <ele>274.7</ele>
        <time>2020-11-14T11:00:49Z</time>
      </trkpt>
      <trkpt lat="38.8884070" lon="-0.3447700">
        <ele>275.1</ele>
        <time>2020-11-14T11:00:50Z</time>
      </trkpt>
      <trkpt lat="38.8884060" lon="-0.3448160">
        <ele>275.4</ele>
        <time>2020-11-14T11:00:51Z</time>
      </trkpt>
      <trkpt lat="38.8883920" lon="-0.3448590">
        <ele>275.7</ele>
        <time>2020-11-14T11:00:52Z</time>
      </trkpt>
      <trkpt lat="38.8883800" lon="-0.3448960">
        <ele>275.9</ele>
        <time>2020-11-14T11:00:53Z</time>
      </trkpt>
      <trkpt lat="38.8883760" lon="-0.3449310">
        <ele>276.1</ele>
        <time>2020-11-14T11:00:54Z</time>
      </trkpt>
      <trkpt lat="38.8883550" lon="-0.3449660">
        <ele>276.4</ele>
        <time>2020-11-14T11:00:55Z</time>
      </trkpt>
      <trkpt lat="38.8883430" lon="-0.3450000">
        <ele>276.6</ele>
        <time>2020-11-14T11:00:56Z</time>
      </trkpt>
      <trkpt lat="38.8883360" lon="-0.3450380">
        <ele>276.8</ele>
        <time>2020-11-14T11:00:57Z</time>
      </trkpt>
      <trkpt lat="38.8883280" lon="-0.3450750">
        <ele>277.1</ele>
        <time>2020-11-14T11:00:58Z</time>
      </trkpt>
      <trkpt lat="38.8883130" lon="-0.3451110">
        <ele>277.3</ele>
        <time>2020-11-14T11:00:59Z</time>
      </trkpt>
      <trkpt lat="38.8882930" lon="-0.3451450">
        <ele>277.5</ele>
        <time>2020-11-14T11:01:00Z</time>
      </trkpt>
      <trkpt lat="38.8882730" lon="-0.3451770">
        <ele>277.7</ele>
        <time>2020-11-14T11:01:01Z</time>
      </trkpt>
      <trkpt lat="38.8882570" lon="-0.3452110">
        <ele>277.9</ele>
        <time>2020-11-14T11:01:02Z</time>
      </trkpt>
      <trkpt lat="38.8882440" lon="-0.3452450">
        <ele>278.0</ele>
        <time>2020-11-14T11:01:03Z</time>
      </trkpt>
      <trkpt lat="38.8882340" lon="-0.3452790">
        <ele>278.1</ele>
        <time>2020-11-14T11:01:04Z</time>
      </trkpt>
      <trkpt lat="38.8882230" lon="-0.3453130">
        <ele>278.3</ele>
        <time>2020-11-14T11:01:05Z</time>
      </trkpt>
      <trkpt lat="38.8882100" lon="-0.3453460">
        <ele>278.4</ele>
        <time>2020-11-14T11:01:06Z</time>
      </trkpt>
      <trkpt lat="38.8881940" lon="-0.3453770">
        <ele>278.5</ele>
        <time>2020-11-14T11:01:07Z</time>
      </trkpt>
      <trkpt lat="38.8881790" lon="-0.3454090">
        <ele>278.5</ele>
        <time>2020-11-14T11:01:08Z</time>
      </trkpt>
      <trkpt lat="38.8881640" lon="-0.3454430">
        <ele>278.6</ele>
        <time>2020-11-14T11:01:09Z</time>
      </trkpt>
      <trkpt lat="38.8881500" lon="-0.3454780">
        <ele>278.6</ele>
        <time>2020-11-14T11:01:10Z</time>
      </trkpt>
      <trkpt lat="38.8881350" lon="-0.3455110">
        <ele>278.7</ele>
        <time>2020-11-14T11:01:11Z</time>
      </trkpt>
      <trkpt lat="38.8881240" lon="-0.3455470">
        <ele>278.7</ele>
        <time>2020-11-14T11:01:12Z</time>
      </trkpt>
      <trkpt lat="38.8881100" lon="-0.3455830">
        <ele>278.6</ele>
        <time>2020-11-14T11:01:13Z</time>
      </trkpt>
      <trkpt lat="38.8880950" lon="-0.3456180">
        <ele>278.6</ele>
        <time>2020-11-14T11:01:14Z</time>
      </trkpt>
      <trkpt lat="38.8880830" lon="-0.3456560">
        <ele>278.5</ele>
        <time>2020-11-14T11:01:15Z</time>
      </trkpt>
      <trkpt lat="38.8880700" lon="-0.3456930">
        <ele>278.4</ele>
        <time>2020-11-14T11:01:16Z</time>
      </trkpt>
      <trkpt lat="38.8880570" lon="-0.3457330">
        <ele>278.3</ele>
        <time>2020-11-14T11:01:17Z</time>
      </trkpt>
      <trkpt lat="38.8880430" lon="-0.3457770">
        <ele>278.2</ele>
        <time>2020-11-14T11:01:18Z</time>
      </trkpt>
      <trkpt lat="38.8880270" lon="-0.3458230">
        <ele>278.0</ele>
        <time>2020-11-14T11:01:19Z</time>
      </trkpt>
      <trkpt lat="38.8880100" lon="-0.3458730">
        <ele>277.8</ele>
        <time>2020-11-14T11:01:20Z</time>
      </trkpt>
      <trkpt lat="38.8879910" lon="-0.3459270">
        <ele>277.5</ele>
        <time>2020-11-14T11:01:21Z</time>
      </trkpt>
      <trkpt lat="38.8879720" lon="-0.3459840">
        <ele>277.1</ele>
        <time>2020-11-14T11:01:22Z</time>
      </trkpt>
      <trkpt lat="38.8879500" lon="-0.3460520">
        <ele>276.7</ele>
        <time>2020-11-14T11:01:23Z</time>
      </trkpt>
      <trkpt lat="38.8879190" lon="-0.3461050">
        <ele>276.4</ele>
        <time>2020-11-14T11:01:24Z</time>
      </trkpt>
      <trkpt lat="38.8878870" lon="-0.3461750">
        <ele>275.9</ele>
        <time>2020-11-14T11:01:25Z</time>
      </trkpt>
      <trkpt lat="38.8878570" lon="-0.3462500">
        <ele>275.4</ele>
        <time>2020-11-14T11:01:26Z</time>
      </trkpt>
      <trkpt lat="38.8878260" lon="-0.3463300">
        <ele>274.9</ele>
        <time>2020-11-14T11:01:27Z</time>
      </trkpt>
      <trkpt lat="38.8877940" lon="-0.3464170">
        <ele>274.3</ele>
        <time>2020-11-14T11:01:28Z</time>
      </trkpt>
      <trkpt lat="38.8877610" lon="-0.3465070">
        <ele>273.7</ele>
        <time>2020-11-14T11:01:29Z</time>
      </trkpt>
      <trkpt lat="38.8877270" lon="-0.3466000">
        <ele>273.1</ele>
        <time>2020-11-14T11:01:30Z</time>
      </trkpt>
      <trkpt lat="38.8876880" lon="-0.3466910">
        <ele>272.6</ele>
        <time>2020-11-14T11:01:31Z</time>
      </trkpt>
      <trkpt lat="38.8876520" lon="-0.3467920">
        <ele>272.1</ele>
        <time>2020-11-14T11:01:32Z</time>
      </trkpt>
      <trkpt lat="38.8876150" lon="-0.3468940">
        <ele>271.6</ele>
        <time>2020-11-14T11:01:33Z</time>
      </trkpt>
      <trkpt lat="38.8875720" lon="-0.3469980">
        <ele>271.2</ele>
        <time>2020-11-14T11:01:34Z</time>
      </trkpt>
      <trkpt lat="38.8875300" lon="-0.3471090">
        <ele>270.9</ele>
        <time>2020-11-14T11:01:35Z</time>
      </trkpt>
      <trkpt lat="38.8874870" lon="-0.3472190">
        <ele>270.8</ele>
        <time>2020-11-14T11:01:36Z</time>
      </trkpt>
      <trkpt lat="38.8874430" lon="-0.3473270">
        <ele>270.9</ele>
        <time>2020-11-14T11:01:37Z</time>
      </trkpt>
      <trkpt lat="38.8874090" lon="-0.3474260">
        <ele>271.1</ele>
        <time>2020-11-14T11:01:38Z</time>
      </trkpt>
      <trkpt lat="38.8873790" lon="-0.3475290">
        <ele>271.4</ele>
        <time>2020-11-14T11:01:39Z</time>
      </trkpt>
      <trkpt lat="38.8873470" lon="-0.3476230">
        <ele>271.7</ele>
        <time>2020-11-14T11:01:40Z</time>
      </trkpt>
      <trkpt lat="38.8873210" lon="-0.3477180">
        <ele>272.0</ele>
        <time>2020-11-14T11:01:41Z</time>
      </trkpt>
      <trkpt lat="38.8872880" lon="-0.3477930">
        <ele>272.3</ele>
        <time>2020-11-14T11:01:42Z</time>
      </trkpt>
      <trkpt lat="38.8872570" lon="-0.3478680">
        <ele>272.5</ele>
        <time>2020-11-14T11:01:43Z</time>
      </trkpt>
      <trkpt lat="38.8872220" lon="-0.3479430">
        <ele>272.8</ele>
        <time>2020-11-14T11:01:44Z</time>
      </trkpt>
      <trkpt lat="38.8871930" lon="-0.3480190">
        <ele>273.0</ele>
        <time>2020-11-14T11:01:45Z</time>
      </trkpt>
      <trkpt lat="38.8871610" lon="-0.3480990">
        <ele>273.1</ele>
        <time>2020-11-14T11:01:46Z</time>
      </trkpt>
      <trkpt lat="38.8871280" lon="-0.3481730">
        <ele>273.2</ele>
        <time>2020-11-14T11:01:47Z</time>
      </trkpt>
      <trkpt lat="38.8871000" lon="-0.3482430">
        <ele>273.3</ele>
        <time>2020-11-14T11:01:48Z</time>
      </trkpt>
      <trkpt lat="38.8870750" lon="-0.3483190">
        <ele>273.4</ele>
        <time>2020-11-14T11:01:49Z</time>
      </trkpt>
      <trkpt lat="38.8870430" lon="-0.3483880">
        <ele>273.5</ele>
        <time>2020-11-14T11:01:50Z</time>
      </trkpt>
      <trkpt lat="38.8870160" lon="-0.3484570">
        <ele>273.6</ele>
        <time>2020-11-14T11:01:51Z</time>
      </trkpt>
      <trkpt lat="38.8869860" lon="-0.3485290">
        <ele>273.6</ele>
        <time>2020-11-14T11:01:52Z</time>
      </trkpt>
      <trkpt lat="38.8869610" lon="-0.3486000">
        <ele>273.7</ele>
        <time>2020-11-14T11:01:53Z</time>
      </trkpt>
      <trkpt lat="38.8869310" lon="-0.3486650">
        <ele>273.8</ele>
        <time>2020-11-14T11:01:54Z</time>
      </trkpt>
      <trkpt lat="38.8869060" lon="-0.3487370">
        <ele>273.8</ele>
        <time>2020-11-14T11:01:55Z</time>
      </trkpt>
      <trkpt lat="38.8868790" lon="-0.3488090">
        <ele>273.9</ele>
        <time>2020-11-14T11:01:56Z</time>
      </trkpt>
      <trkpt lat="38.8868490" lon="-0.3488810">
        <ele>274.0</ele>
        <time>2020-11-14T11:01:57Z</time>
      </trkpt>
      <trkpt lat="38.8868170" lon="-0.3489480">
        <ele>274.0</ele>
        <time>2020-11-14T11:01:58Z</time>
      </trkpt>
      <trkpt lat="38.8867920" lon="-0.3490180">
        <ele>274.1</ele>
        <time>2020-11-14T11:01:59Z</time>
      </trkpt>
      <trkpt lat="38.8867600" lon="-0.3490910">
        <ele>274.1</ele>
        <time>2020-11-14T11:02:00Z</time>
      </trkpt>
      <trkpt lat="38.8867360" lon="-0.3491700">
        <ele>274.1</ele>
        <time>2020-11-14T11:02:01Z</time>
      </trkpt>
      <trkpt lat="38.8867070" lon="-0.3492400">
        <ele>274.2</ele>
        <time>2020-11-14T11:02:02Z</time>
      </trkpt>
      <trkpt lat="38.8866740" lon="-0.3493080">
        <ele>274.2</ele>
        <time>2020-11-14T11:02:03Z</time>
      </trkpt>
      <trkpt lat="38.8866410" lon="-0.3493810">
        <ele>274.3</ele>
        <time>2020-11-14T11:02:04Z</time>
      </trkpt>
      <trkpt lat="38.8866120" lon="-0.3494490">
        <ele>274.4</ele>
        <time>2020-11-14T11:02:05Z</time>
      </trkpt>
      <trkpt lat="38.8865800" lon="-0.3495240">
        <ele>274.4</ele>
        <time>2020-11-14T11:02:06Z</time>
      </trkpt>
      <trkpt lat="38.8865530" lon="-0.3495950">
        <ele>274.4</ele>
        <time>2020-11-14T11:02:07Z</time>
      </trkpt>
      <trkpt lat="38.8865250" lon="-0.3496660">
        <ele>274.5</ele>
        <time>2020-11-14T11:02:08Z</time>
      </trkpt>
      <trkpt lat="38.8864930" lon="-0.3497410">
        <ele>274.5</ele>
        <time>2020-11-14T11:02:09Z</time>
      </trkpt>
      <trkpt lat="38.8864660" lon="-0.3498110">
        <ele>274.5</ele>
        <time>2020-11-14T11:02:10Z</time>
      </trkpt>
      <trkpt lat="38.8864440" lon="-0.3498850">
        <ele>274.6</ele>
        <time>2020-11-14T11:02:11Z</time>
      </trkpt>
      <trkpt lat="38.8864110" lon="-0.3499520">
        <ele>274.6</ele>
        <time>2020-11-14T11:02:12Z</time>
      </trkpt>
      <trkpt lat="38.8863750" lon="-0.3500170">
        <ele>274.6</ele>
        <time>2020-11-14T11:02:13Z</time>
      </trkpt>
      <trkpt lat="38.8863530" lon="-0.3500790">
        <ele>274.7</ele>
        <time>2020-11-14T11:02:14Z</time>
      </trkpt>
      <trkpt lat="38.8863400" lon="-0.3501560">
        <ele>274.7</ele>
        <time>2020-11-14T11:02:15Z</time>
      </trkpt>
      <trkpt lat="38.8863110" lon="-0.3502290">
        <ele>274.7</ele>
        <time>2020-11-14T11:02:16Z</time>
      </trkpt>
      <trkpt lat="38.8862830" lon="-0.3503010">
        <ele>274.8</ele>
        <time>2020-11-14T11:02:17Z</time>
      </trkpt>
      <trkpt lat="38.8862580" lon="-0.3503680">
        <ele>274.8</ele>
        <time>2020-11-14T11:02:18Z</time>
      </trkpt>
      <trkpt lat="38.8862240" lon="-0.3504350">
        <ele>274.8</ele>
        <time>2020-11-14T11:02:19Z</time>
      </trkpt>
      <trkpt lat="38.8862030" lon="-0.3505100">
        <ele>274.8</ele>
        <time>2020-11-14T11:02:20Z</time>
      </trkpt>
      <trkpt lat="38.8861810" lon="-0.3505880">
        <ele>274.9</ele>
        <time>2020-11-14T11:02:21Z</time>
      </trkpt>
      <trkpt lat="38.8861480" lon="-0.3506510">
        <ele>274.9</ele>
        <time>2020-11-14T11:02:22Z</time>
      </trkpt>
      <trkpt lat="38.8861190" lon="-0.3507250">
        <ele>275.0</ele>
        <time>2020-11-14T11:02:23Z</time>
      </trkpt>
      <trkpt lat="38.8860880" lon="-0.3507960">
        <ele>275.1</ele>
        <time>2020-11-14T11:02:24Z</time>
      </trkpt>
      <trkpt lat="38.8860730" lon="-0.3508780">
        <ele>275.1</ele>
        <time>2020-11-14T11:02:25Z</time>
      </trkpt>
      <trkpt lat="38.8860460" lon="-0.3509480">
        <ele>275.2</ele>
        <time>2020-11-14T11:02:26Z</time>
      </trkpt>
      <trkpt lat="38.8860490" lon="-0.3510610">
        <ele>275.2</ele>
        <time>2020-11-14T11:02:27Z</time>
      </trkpt>
      <trkpt lat="38.8860200" lon="-0.3511330">
        <ele>275.3</ele>
        <time>2020-11-14T11:02:28Z</time>
      </trkpt>
      <trkpt lat="38.8859780" lon="-0.3511940">
        <ele>275.4</ele>
        <time>2020-11-14T11:02:29Z</time>
      </trkpt>
      <trkpt lat="38.8859390" lon="-0.3512490">
        <ele>275.4</ele>
        <time>2020-11-14T11:02:30Z</time>
      </trkpt>
      <trkpt lat="38.8858990" lon="-0.3513080">
        <ele>275.4</ele>
        <time>2020-11-14T11:02:31Z</time>
      </trkpt>
      <trkpt lat="38.8858630" lon="-0.3513710">
        <ele>275.6</ele>
        <time>2020-11-14T11:02:32Z</time>
      </trkpt>
      <trkpt lat="38.8858250" lon="-0.3514300">
        <ele>275.7</ele>
        <time>2020-11-14T11:02:33Z</time>
      </trkpt>
      <trkpt lat="38.8857900" lon="-0.3514920">
        <ele>275.8</ele>
        <time>2020-11-14T11:02:34Z</time>
      </trkpt>
      <trkpt lat="38.8857540" lon="-0.3515680">
        <ele>276.0</ele>
        <time>2020-11-14T11:02:35Z</time>
      </trkpt>
      <trkpt lat="38.8857090" lon="-0.3516080">
        <ele>276.1</ele>
        <time>2020-11-14T11:02:36Z</time>
      </trkpt>
      <trkpt lat="38.8856630" lon="-0.3516570">
        <ele>276.3</ele>
        <time>2020-11-14T11:02:37Z</time>
      </trkpt>
      <trkpt lat="38.8856170" lon="-0.3517120">
        <ele>276.3</ele>
        <time>2020-11-14T11:02:38Z</time>
      </trkpt>
      <trkpt lat="38.8855710" lon="-0.3517600">
        <ele>276.4</ele>
        <time>2020-11-14T11:02:39Z</time>
      </trkpt>
      <trkpt lat="38.8855310" lon="-0.3518130">
        <ele>276.5</ele>
        <time>2020-11-14T11:02:40Z</time>
      </trkpt>
      <trkpt lat="38.8854890" lon="-0.3518490">
        <ele>276.6</ele>
        <time>2020-11-14T11:02:41Z</time>
      </trkpt>
      <trkpt lat="38.8854450" lon="-0.3518850">
        <ele>276.7</ele>
        <time>2020-11-14T11:02:42Z</time>
      </trkpt>
      <trkpt lat="38.8853980" lon="-0.3519250">
        <ele>276.8</ele>
        <time>2020-11-14T11:02:43Z</time>
      </trkpt>
      <trkpt lat="38.8853610" lon="-0.3519700">
        <ele>276.9</ele>
        <time>2020-11-14T11:02:44Z</time>
      </trkpt>
      <trkpt lat="38.8853170" lon="-0.3520060">
        <ele>277.0</ele>
        <time>2020-11-14T11:02:45Z</time>
      </trkpt>
      <trkpt lat="38.8852800" lon="-0.3520530">
        <ele>277.1</ele>
        <time>2020-11-14T11:02:46Z</time>
      </trkpt>
      <trkpt lat="38.8852110" lon="-0.3520960">
        <ele>277.3</ele>
        <time>2020-11-14T11:02:47Z</time>
      </trkpt>
      <trkpt lat="38.8851810" lon="-0.3521460">
        <ele>277.5</ele>
        <time>2020-11-14T11:02:48Z</time>
      </trkpt>
      <trkpt lat="38.8851440" lon="-0.3522060">
        <ele>277.6</ele>
        <time>2020-11-14T11:02:49Z</time>
      </trkpt>
      <trkpt lat="38.8851190" lon="-0.3522500">
        <ele>277.7</ele>
        <time>2020-11-14T11:02:50Z</time>
      </trkpt>
      <trkpt lat="38.8850830" lon="-0.3522850">
        <ele>277.9</ele>
        <time>2020-11-14T11:02:51Z</time>
      </trkpt>
      <trkpt lat="38.8850510" lon="-0.3523150">
        <ele>278.0</ele>
        <time>2020-11-14T11:02:52Z</time>
      </trkpt>
      <trkpt lat="38.8850150" lon="-0.3523500">
        <ele>278.1</ele>
        <time>2020-11-14T11:02:53Z</time>
      </trkpt>
      <trkpt lat="38.8849800" lon="-0.3523850">
        <ele>278.2</ele>
        <time>2020-11-14T11:02:54Z</time>
      </trkpt>
      <trkpt lat="38.8849420" lon="-0.3524290">
        <ele>278.4</ele>
        <time>2020-11-14T11:02:55Z</time>
      </trkpt>
      <trkpt lat="38.8849010" lon="-0.3524620">
        <ele>278.5</ele>
        <time>2020-11-14T11:02:56Z</time>
      </trkpt>
      <trkpt lat="38.8848640" lon="-0.3525010">
        <ele>278.7</ele>
        <time>2020-11-14T11:02:57Z</time>
      </trkpt>
      <trkpt lat="38.8848330" lon="-0.3525310">
        <ele>278.8</ele>
        <time>2020-11-14T11:02:58Z</time>
      </trkpt>
      <trkpt lat="38.8847990" lon="-0.3525660">
        <ele>278.9</ele>
        <time>2020-11-14T11:02:59Z</time>
      </trkpt>
      <trkpt lat="38.8847680" lon="-0.3525990">
        <ele>279.1</ele>
        <time>2020-11-14T11:03:00Z</time>
      </trkpt>
      <trkpt lat="38.8847350" lon="-0.3526370">
        <ele>279.2</ele>
        <time>2020-11-14T11:03:01Z</time>
      </trkpt>
      <trkpt lat="38.8847030" lon="-0.3526800">
        <ele>279.3</ele>
        <time>2020-11-14T11:03:02Z</time>
      </trkpt>
      <trkpt lat="38.8846670" lon="-0.3527150">
        <ele>279.4</ele>
        <time>2020-11-14T11:03:03Z</time>
      </trkpt>
      <trkpt lat="38.8846320" lon="-0.3527430">
        <ele>279.5</ele>
        <time>2020-11-14T11:03:04Z</time>
      </trkpt>
      <trkpt lat="38.8845930" lon="-0.3527780">
        <ele>279.6</ele>
        <time>2020-11-14T11:03:05Z</time>
      </trkpt>
      <trkpt lat="38.8845590" lon="-0.3528200">
        <ele>279.7</ele>
        <time>2020-11-14T11:03:06Z</time>
      </trkpt>
      <trkpt lat="38.8845320" lon="-0.3528450">
        <ele>279.8</ele>
        <time>2020-11-14T11:03:07Z</time>
      </trkpt>
      <trkpt lat="38.8844930" lon="-0.3528800">
        <ele>280.0</ele>
        <time>2020-11-14T11:03:08Z</time>
      </trkpt>
      <trkpt lat="38.8844590" lon="-0.3529110">
        <ele>280.1</ele>
        <time>2020-11-14T11:03:09Z</time>
      </trkpt>
      <trkpt lat="38.8844310" lon="-0.3529540">
        <ele>280.2</ele>
        <time>2020-11-14T11:03:10Z</time>
      </trkpt>
      <trkpt lat="38.8844060" lon="-0.3529910">
        <ele>280.3</ele>
        <time>2020-11-14T11:03:11Z</time>
      </trkpt>
      <trkpt lat="38.8843780" lon="-0.3530250">
        <ele>280.4</ele>
        <time>2020-11-14T11:03:12Z</time>
      </trkpt>
      <trkpt lat="38.8843430" lon="-0.3530580">
        <ele>280.5</ele>
        <time>2020-11-14T11:03:13Z</time>
      </trkpt>
      <trkpt lat="38.8843100" lon="-0.3530960">
        <ele>280.6</ele>
        <time>2020-11-14T11:03:14Z</time>
      </trkpt>
      <trkpt lat="38.8842740" lon="-0.3531340">
        <ele>280.7</ele>
        <time>2020-11-14T11:03:15Z</time>
      </trkpt>
      <trkpt lat="38.8842410" lon="-0.3531680">
        <ele>280.8</ele>
        <time>2020-11-14T11:03:16Z</time>
      </trkpt>
      <trkpt lat="38.8842120" lon="-0.3532090">
        <ele>280.9</ele>
        <time>2020-11-14T11:03:17Z</time>
      </trkpt>
      <trkpt lat="38.8841840" lon="-0.3532520">
        <ele>281.0</ele>
        <time>2020-11-14T11:03:18Z</time>
      </trkpt>
      <trkpt lat="38.8841510" lon="-0.3532980">
        <ele>281.1</ele>
        <time>2020-11-14T11:03:19Z</time>
      </trkpt>
      <trkpt lat="38.8841240" lon="-0.3533470">
        <ele>281.3</ele>
        <time>2020-11-14T11:03:20Z</time>
      </trkpt>
      <trkpt lat="38.8841020" lon="-0.3533870">
        <ele>281.3</ele>
        <time>2020-11-14T11:03:21Z</time>
      </trkpt>
      <trkpt lat="38.8840750" lon="-0.3534380">
        <ele>281.4</ele>
        <time>2020-11-14T11:03:22Z</time>
      </trkpt>
      <trkpt lat="38.8840530" lon="-0.3534860">
        <ele>281.6</ele>
        <time>2020-11-14T11:03:23Z</time>
      </trkpt>
      <trkpt lat="38.8840220" lon="-0.3535380">
        <ele>281.7</ele>
        <time>2020-11-14T11:03:24Z</time>
      </trkpt>
      <trkpt lat="38.8840180" lon="-0.3535840">
        <ele>281.8</ele>
        <time>2020-11-14T11:03:25Z</time>
      </trkpt>
      <trkpt lat="38.8840050" lon="-0.3536360">
        <ele>281.9</ele>
        <time>2020-11-14T11:03:26Z</time>
      </trkpt>
      <trkpt lat="38.8839950" lon="-0.3536850">
        <ele>282.0</ele>
        <time>2020-11-14T11:03:27Z</time>
      </trkpt>
      <trkpt lat="38.8839820" lon="-0.3537330">
        <ele>282.1</ele>
        <time>2020-11-14T11:03:28Z</time>
      </trkpt>
      <trkpt lat="38.8839790" lon="-0.3537830">
        <ele>282.2</ele>
        <time>2020-11-14T11:03:29Z</time>
      </trkpt>
      <trkpt lat="38.8839720" lon="-0.3538370">
        <ele>282.4</ele>
        <time>2020-11-14T11:03:30Z</time>
      </trkpt>
      <trkpt lat="38.8839630" lon="-0.3538930">
        <ele>282.5</ele>
        <time>2020-11-14T11:03:31Z</time>
      </trkpt>
      <trkpt lat="38.8839520" lon="-0.3539450">
        <ele>282.6</ele>
        <time>2020-11-14T11:03:32Z</time>
      </trkpt>
      <trkpt lat="38.8839430" lon="-0.3539960">
        <ele>282.7</ele>
        <time>2020-11-14T11:03:33Z</time>
      </trkpt>
      <trkpt lat="38.8839370" lon="-0.3540490">
        <ele>282.9</ele>
        <time>2020-11-14T11:03:34Z</time>
      </trkpt>
      <trkpt lat="38.8839330" lon="-0.3541040">
        <ele>283.0</ele>
        <time>2020-11-14T11:03:35Z</time>
      </trkpt>
      <trkpt lat="38.8839320" lon="-0.3541550">
        <ele>283.1</ele>
        <time>2020-11-14T11:03:36Z</time>
      </trkpt>
      <trkpt lat="38.8839280" lon="-0.3542080">
        <ele>283.2</ele>
        <time>2020-11-14T11:03:37Z</time>
      </trkpt>
      <trkpt lat="38.8839240" lon="-0.3542620">
        <ele>283.4</ele>
        <time>2020-11-14T11:03:38Z</time>
      </trkpt>
      <trkpt lat="38.8839180" lon="-0.3543140">
        <ele>283.5</ele>
        <time>2020-11-14T11:03:39Z</time>
      </trkpt>
      <trkpt lat="38.8839120" lon="-0.3543670">
        <ele>283.6</ele>
        <time>2020-11-14T11:03:40Z</time>
      </trkpt>
      <trkpt lat="38.8839050" lon="-0.3544220">
        <ele>283.7</ele>
        <time>2020-11-14T11:03:41Z</time>
      </trkpt>
      <trkpt lat="38.8838980" lon="-0.3544760">
        <ele>283.9</ele>
        <time>2020-11-14T11:03:42Z</time>
      </trkpt>
      <trkpt lat="38.8838900" lon="-0.3545290">
        <ele>284.0</ele>
        <time>2020-11-14T11:03:43Z</time>
      </trkpt>
      <trkpt lat="38.8838820" lon="-0.3545810">
        <ele>284.1</ele>
        <time>2020-11-14T11:03:44Z</time>
      </trkpt>
      <trkpt lat="38.8838730" lon="-0.3546330">
        <ele>284.2</ele>
        <time>2020-11-14T11:03:45Z</time>
      </trkpt>
      <trkpt lat="38.8838610" lon="-0.3546830">
        <ele>284.4</ele>
        <time>2020-11-14T11:03:46Z</time>
      </trkpt>
      <trkpt lat="38.8838490" lon="-0.3547330">
        <ele>284.5</ele>
        <time>2020-11-14T11:03:47Z</time>
      </trkpt>
      <trkpt lat="38.8838370" lon="-0.3547770">
        <ele>284.6</ele>
        <time>2020-11-14T11:03:48Z</time>
      </trkpt>
      <trkpt lat="38.8838290" lon="-0.3548260">
        <ele>284.7</ele>
        <time>2020-11-14T11:03:49Z</time>
      </trkpt>
      <trkpt lat="38.8838210" lon="-0.3548770">
        <ele>284.9</ele>
        <time>2020-11-14T11:03:50Z</time>
      </trkpt>
      <trkpt lat="38.8838170" lon="-0.3549260">
        <ele>285.0</ele>
        <time>2020-11-14T11:03:51Z</time>
      </trkpt>
      <trkpt lat="38.8838130" lon="-0.3549760">
        <ele>285.2</ele>
        <time>2020-11-14T11:03:52Z</time>
      </trkpt>
      <trkpt lat="38.8838080" lon="-0.3550250">
        <ele>285.3</ele>
        <time>2020-11-14T11:03:53Z</time>
      </trkpt>
      <trkpt lat="38.8838040" lon="-0.3550700">
        <ele>285.5</ele>
        <time>2020-11-14T11:03:54Z</time>
      </trkpt>
      <trkpt lat="38.8837980" lon="-0.3551190">
        <ele>285.6</ele>
        <time>2020-11-14T11:03:55Z</time>
      </trkpt>
      <trkpt lat="38.8837920" lon="-0.3551690">
        <ele>285.8</ele>
        <time>2020-11-14T11:03:56Z</time>
      </trkpt>
      <trkpt lat="38.8837870" lon="-0.3552150">
        <ele>285.9</ele>
        <time>2020-11-14T11:03:57Z</time>
      </trkpt>
      <trkpt lat="38.8837820" lon="-0.3552600">
        <ele>286.1</ele>
        <time>2020-11-14T11:03:58Z</time>
      </trkpt>
      <trkpt lat="38.8837780" lon="-0.3553020">
        <ele>286.2</ele>
        <time>2020-11-14T11:03:59Z</time>
      </trkpt>
      <trkpt lat="38.8837710" lon="-0.3553440">
        <ele>286.4</ele>
        <time>2020-11-14T11:04:00Z</time>
      </trkpt>
      <trkpt lat="38.8837640" lon="-0.3553840">
        <ele>286.5</ele>
        <time>2020-11-14T11:04:01Z</time>
      </trkpt>
      <trkpt lat="38.8837560" lon="-0.3554240">
        <ele>286.7</ele>
        <time>2020-11-14T11:04:02Z</time>
      </trkpt>
      <trkpt lat="38.8837450" lon="-0.3554620">
        <ele>286.8</ele>
        <time>2020-11-14T11:04:03Z</time>
      </trkpt>
      <trkpt lat="38.8837350" lon="-0.3555020">
        <ele>287.0</ele>
        <time>2020-11-14T11:04:04Z</time>
      </trkpt>
      <trkpt lat="38.8837280" lon="-0.3555420">
        <ele>287.2</ele>
        <time>2020-11-14T11:04:05Z</time>
      </trkpt>
      <trkpt lat="38.8837210" lon="-0.3555820">
        <ele>287.3</ele>
        <time>2020-11-14T11:04:06Z</time>
      </trkpt>
      <trkpt lat="38.8837140" lon="-0.3556230">
        <ele>287.5</ele>
        <time>2020-11-14T11:04:07Z</time>
      </trkpt>
      <trkpt lat="38.8837070" lon="-0.3556630">
        <ele>287.6</ele>
        <time>2020-11-14T11:04:08Z</time>
      </trkpt>
      <trkpt lat="38.8837040" lon="-0.3557020">
        <ele>287.8</ele>
        <time>2020-11-14T11:04:09Z</time>
      </trkpt>
      <trkpt lat="38.8837000" lon="-0.3557430">
        <ele>288.0</ele>
        <time>2020-11-14T11:04:10Z</time>
      </trkpt>
      <trkpt lat="38.8836960" lon="-0.3557840">
        <ele>288.1</ele>
        <time>2020-11-14T11:04:11Z</time>
      </trkpt>
      <trkpt lat="38.8836950" lon="-0.3558280">
        <ele>288.3</ele>
        <time>2020-11-14T11:04:12Z</time>
      </trkpt>
      <trkpt lat="38.8836890" lon="-0.3558690">
        <ele>288.5</ele>
        <time>2020-11-14T11:04:13Z</time>
      </trkpt>
      <trkpt lat="38.8836840" lon="-0.3559100">
        <ele>288.7</ele>
        <time>2020-11-14T11:04:14Z</time>
      </trkpt>
      <trkpt lat="38.8836770" lon="-0.3559490">
        <ele>288.8</ele>
        <time>2020-11-14T11:04:15Z</time>
      </trkpt>
      <trkpt lat="38.8836700" lon="-0.3559880">
        <ele>289.0</ele>
        <time>2020-11-14T11:04:16Z</time>
      </trkpt>
      <trkpt lat="38.8836660" lon="-0.3560270">
        <ele>289.2</ele>
        <time>2020-11-14T11:04:17Z</time>
      </trkpt>
      <trkpt lat="38.8836640" lon="-0.3560650">
        <ele>289.3</ele>
        <time>2020-11-14T11:04:18Z</time>
      </trkpt>
      <trkpt lat="38.8836640" lon="-0.3561050">
        <ele>289.5</ele>
        <time>2020-11-14T11:04:19Z</time>
      </trkpt>
      <trkpt lat="38.8836630" lon="-0.3561440">
        <ele>289.6</ele>
        <time>2020-11-14T11:04:20Z</time>
      </trkpt>
      <trkpt lat="38.8836630" lon="-0.3561830">
        <ele>289.8</ele>
        <time>2020-11-14T11:04:21Z</time>
      </trkpt>
      <trkpt lat="38.8836600" lon="-0.3562220">
        <ele>290.0</ele>
        <time>2020-11-14T11:04:22Z</time>
      </trkpt>
      <trkpt lat="38.8836540" lon="-0.3562630">
        <ele>290.1</ele>
        <time>2020-11-14T11:04:23Z</time>
      </trkpt>
      <trkpt lat="38.8836460" lon="-0.3563030">
        <ele>290.3</ele>
        <time>2020-11-14T11:04:24Z</time>
      </trkpt>
      <trkpt lat="38.8836390" lon="-0.3563460">
        <ele>290.5</ele>
        <time>2020-11-14T11:04:25Z</time>
      </trkpt>
      <trkpt lat="38.8836330" lon="-0.3563890">
        <ele>290.6</ele>
        <time>2020-11-14T11:04:26Z</time>
      </trkpt>
      <trkpt lat="38.8836310" lon="-0.3564350">
        <ele>290.8</ele>
        <time>2020-11-14T11:04:27Z</time>
      </trkpt>
      <trkpt lat="38.8836280" lon="-0.3564810">
        <ele>291.0</ele>
        <time>2020-11-14T11:04:28Z</time>
      </trkpt>
      <trkpt lat="38.8836250" lon="-0.3565250">
        <ele>291.2</ele>
        <time>2020-11-14T11:04:29Z</time>
      </trkpt>
      <trkpt lat="38.8836230" lon="-0.3565720">
        <ele>291.4</ele>
        <time>2020-11-14T11:04:30Z</time>
      </trkpt>
      <trkpt lat="38.8836220" lon="-0.3566190">
        <ele>291.6</ele>
        <time>2020-11-14T11:04:31Z</time>
      </trkpt>
      <trkpt lat="38.8836210" lon="-0.3566640">
        <ele>291.7</ele>
        <time>2020-11-14T11:04:32Z</time>
      </trkpt>
      <trkpt lat="38.8836220" lon="-0.3567110">
        <ele>291.9</ele>
        <time>2020-11-14T11:04:33Z</time>
      </trkpt>
      <trkpt lat="38.8836240" lon="-0.3567560">
        <ele>292.1</ele>
        <time>2020-11-14T11:04:34Z</time>
      </trkpt>
      <trkpt lat="38.8836250" lon="-0.3567970">
        <ele>292.3</ele>
        <time>2020-11-14T11:04:35Z</time>
      </trkpt>
      <trkpt lat="38.8836260" lon="-0.3568380">
        <ele>292.4</ele>
        <time>2020-11-14T11:04:36Z</time>
      </trkpt>
      <trkpt lat="38.8836280" lon="-0.3568800">
        <ele>292.6</ele>
        <time>2020-11-14T11:04:37Z</time>
      </trkpt>
      <trkpt lat="38.8836310" lon="-0.3569220">
        <ele>292.7</ele>
        <time>2020-11-14T11:04:38Z</time>
      </trkpt>
      <trkpt lat="38.8836360" lon="-0.3569630">
        <ele>292.9</ele>
        <time>2020-11-14T11:04:39Z</time>
      </trkpt>
      <trkpt lat="38.8836420" lon="-0.3570050">
        <ele>293.1</ele>
        <time>2020-11-14T11:04:40Z</time>
      </trkpt>
      <trkpt lat="38.8836440" lon="-0.3570390">
        <ele>293.2</ele>
        <time>2020-11-14T11:04:41Z</time>
      </trkpt>
      <trkpt lat="38.8836440" lon="-0.3570950">
        <ele>293.4</ele>
        <time>2020-11-14T11:04:42Z</time>
      </trkpt>
      <trkpt lat="38.8836440" lon="-0.3571160">
        <ele>293.5</ele>
        <time>2020-11-14T11:04:43Z</time>
      </trkpt>
      <trkpt lat="38.8836460" lon="-0.3571630">
        <ele>293.7</ele>
        <time>2020-11-14T11:04:44Z</time>
      </trkpt>
      <trkpt lat="38.8836490" lon="-0.3572070">
        <ele>293.9</ele>
        <time>2020-11-14T11:04:45Z</time>
      </trkpt>
      <trkpt lat="38.8836560" lon="-0.3572510">
        <ele>294.1</ele>
        <time>2020-11-14T11:04:46Z</time>
      </trkpt>
      <trkpt lat="38.8836640" lon="-0.3572980">
        <ele>294.3</ele>
        <time>2020-11-14T11:04:47Z</time>
      </trkpt>
      <trkpt lat="38.8836770" lon="-0.3573480">
        <ele>294.5</ele>
        <time>2020-11-14T11:04:48Z</time>
      </trkpt>
      <trkpt lat="38.8836910" lon="-0.3573940">
        <ele>294.7</ele>
        <time>2020-11-14T11:04:49Z</time>
      </trkpt>
      <trkpt lat="38.8837040" lon="-0.3574400">
        <ele>294.9</ele>
        <time>2020-11-14T11:04:50Z</time>
      </trkpt>
      <trkpt lat="38.8837170" lon="-0.3574840">
        <ele>295.1</ele>
        <time>2020-11-14T11:04:51Z</time>
      </trkpt>
      <trkpt lat="38.8837300" lon="-0.3575290">
        <ele>295.2</ele>
        <time>2020-11-14T11:04:52Z</time>
      </trkpt>
      <trkpt lat="38.8837420" lon="-0.3575710">
        <ele>295.4</ele>
        <time>2020-11-14T11:04:53Z</time>
      </trkpt>
      <trkpt lat="38.8837510" lon="-0.3576120">
        <ele>295.5</ele>
        <time>2020-11-14T11:04:54Z</time>
      </trkpt>
      <trkpt lat="38.8837600" lon="-0.3576520">
        <ele>295.7</ele>
        <time>2020-11-14T11:04:55Z</time>
      </trkpt>
      <trkpt lat="38.8837660" lon="-0.3576920">
        <ele>295.8</ele>
        <time>2020-11-14T11:04:56Z</time>
      </trkpt>
      <trkpt lat="38.8837720" lon="-0.3577320">
        <ele>296.0</ele>
        <time>2020-11-14T11:04:57Z</time>
      </trkpt>
      <trkpt lat="38.8837800" lon="-0.3577700">
        <ele>296.1</ele>
        <time>2020-11-14T11:04:58Z</time>
      </trkpt>
      <trkpt lat="38.8837880" lon="-0.3578060">
        <ele>296.3</ele>
        <time>2020-11-14T11:04:59Z</time>
      </trkpt>
      <trkpt lat="38.8837950" lon="-0.3578420">
        <ele>296.4</ele>
        <time>2020-11-14T11:05:00Z</time>
      </trkpt>
      <trkpt lat="38.8838050" lon="-0.3578800">
        <ele>296.6</ele>
        <time>2020-11-14T11:05:01Z</time>
      </trkpt>
      <trkpt lat="38.8838120" lon="-0.3579150">
        <ele>296.7</ele>
        <time>2020-11-14T11:05:02Z</time>
      </trkpt>
      <trkpt lat="38.8838200" lon="-0.3579520">
        <ele>296.8</ele>
        <time>2020-11-14T11:05:03Z</time>
      </trkpt>
      <trkpt lat="38.8838270" lon="-0.3579910">
        <ele>297.0</ele>
        <time>2020-11-14T11:05:04Z</time>
      </trkpt>
      <trkpt lat="38.8838350" lon="-0.3580290">
        <ele>297.1</ele>
        <time>2020-11-14T11:05:05Z</time>
      </trkpt>
      <trkpt lat="38.8838410" lon="-0.3580670">
        <ele>297.3</ele>
        <time>2020-11-14T11:05:06Z</time>
      </trkpt>
      <trkpt lat="38.8838480" lon="-0.3581020">
        <ele>297.4</ele>
        <time>2020-11-14T11:05:07Z</time>
      </trkpt>
      <trkpt lat="38.8838550" lon="-0.3581380">
        <ele>297.6</ele>
        <time>2020-11-14T11:05:08Z</time>
      </trkpt>
      <trkpt lat="38.8838630" lon="-0.3581790">
        <ele>297.7</ele>
        <time>2020-11-14T11:05:09Z</time>
      </trkpt>
      <trkpt lat="38.8838700" lon="-0.3582220">
        <ele>297.9</ele>
        <time>2020-11-14T11:05:10Z</time>
      </trkpt>
      <trkpt lat="38.8838770" lon="-0.3582660">
        <ele>298.1</ele>
        <time>2020-11-14T11:05:11Z</time>
      </trkpt>
      <trkpt lat="38.8838800" lon="-0.3583120">
        <ele>298.3</ele>
        <time>2020-11-14T11:05:12Z</time>
      </trkpt>
      <trkpt lat="38.8838820" lon="-0.3583530">
        <ele>298.4</ele>
        <time>2020-11-14T11:05:13Z</time>
      </trkpt>
      <trkpt lat="38.8838830" lon="-0.3583910">
        <ele>298.6</ele>
        <time>2020-11-14T11:05:14Z</time>
      </trkpt>
      <trkpt lat="38.8838840" lon="-0.3584320">
        <ele>298.7</ele>
        <time>2020-11-14T11:05:15Z</time>
      </trkpt>
      <trkpt lat="38.8838840" lon="-0.3584710">
        <ele>298.9</ele>
        <time>2020-11-14T11:05:16Z</time>
      </trkpt>
      <trkpt lat="38.8838830" lon="-0.3585120">
        <ele>299.1</ele>
        <time>2020-11-14T11:05:17Z</time>
      </trkpt>
      <trkpt lat="38.8838790" lon="-0.3585540">
        <ele>299.2</ele>
        <time>2020-11-14T11:05:18Z</time>
      </trkpt>
      <trkpt lat="38.8838750" lon="-0.3585950">
        <ele>299.4</ele>
        <time>2020-11-14T11:05:19Z</time>
      </trkpt>
      <trkpt lat="38.8838670" lon="-0.3586370">
        <ele>299.6</ele>
        <time>2020-11-14T11:05:20Z</time>
      </trkpt>
      <trkpt lat="38.8838570" lon="-0.3586790">
        <ele>299.7</ele>
        <time>2020-11-14T11:05:21Z</time>
      </trkpt>
      <trkpt lat="38.8838460" lon="-0.3587180">
        <ele>299.9</ele>
        <time>2020-11-14T11:05:22Z</time>
      </trkpt>
      <trkpt lat="38.8838320" lon="-0.3587550">
        <ele>300.0</ele>
        <time>2020-11-14T11:05:23Z</time>
      </trkpt>
      <trkpt lat="38.8838150" lon="-0.3587940">
        <ele>300.2</ele>
        <time>2020-11-14T11:05:24Z</time>
      </trkpt>
      <trkpt lat="38.8837990" lon="-0.3588320">
        <ele>300.4</ele>
        <time>2020-11-14T11:05:25Z</time>
      </trkpt>
      <trkpt lat="38.8837850" lon="-0.3588700">
        <ele>300.5</ele>
        <time>2020-11-14T11:05:26Z</time>
      </trkpt>
      <trkpt lat="38.8837710" lon="-0.3589070">
        <ele>300.7</ele>
        <time>2020-11-14T11:05:27Z</time>
      </trkpt>
      <trkpt lat="38.8837600" lon="-0.3589430">
        <ele>300.8</ele>
        <time>2020-11-14T11:05:28Z</time>
      </trkpt>
      <trkpt lat="38.8837480" lon="-0.3589810">
        <ele>301.0</ele>
        <time>2020-11-14T11:05:29Z</time>
      </trkpt>
      <trkpt lat="38.8837360" lon="-0.3590180">
        <ele>301.1</ele>
        <time>2020-11-14T11:05:30Z</time>
      </trkpt>
      <trkpt lat="38.8837260" lon="-0.3590550">
        <ele>301.2</ele>
        <time>2020-11-14T11:05:31Z</time>
      </trkpt>
      <trkpt lat="38.8837170" lon="-0.3590950">
        <ele>301.4</ele>
        <time>2020-11-14T11:05:32Z</time>
      </trkpt>
      <trkpt lat="38.8837070" lon="-0.3591340">
        <ele>301.6</ele>
        <time>2020-11-14T11:05:33Z</time>
      </trkpt>
      <trkpt lat="38.8836950" lon="-0.3591740">
        <ele>301.7</ele>
        <time>2020-11-14T11:05:34Z</time>
      </trkpt>
      <trkpt lat="38.8836810" lon="-0.3592120">
        <ele>301.9</ele>
        <time>2020-11-14T11:05:35Z</time>
      </trkpt>
      <trkpt lat="38.8836660" lon="-0.3592500">
        <ele>302.0</ele>
        <time>2020-11-14T11:05:36Z</time>
      </trkpt>
      <trkpt lat="38.8836520" lon="-0.3592900">
        <ele>302.2</ele>
        <time>2020-11-14T11:05:37Z</time>
      </trkpt>
      <trkpt lat="38.8836330" lon="-0.3593280">
        <ele>302.4</ele>
        <time>2020-11-14T11:05:38Z</time>
      </trkpt>
      <trkpt lat="38.8836110" lon="-0.3593680">
        <ele>302.6</ele>
        <time>2020-11-14T11:05:39Z</time>
      </trkpt>
      <trkpt lat="38.8835900" lon="-0.3594020">
        <ele>302.7</ele>
        <time>2020-11-14T11:05:40Z</time>
      </trkpt>
      <trkpt lat="38.8835710" lon="-0.3594350">
        <ele>302.9</ele>
        <time>2020-11-14T11:05:41Z</time>
      </trkpt>
      <trkpt lat="38.8835550" lon="-0.3594670">
        <ele>303.1</ele>
        <time>2020-11-14T11:05:42Z</time>
      </trkpt>
      <trkpt lat="38.8835410" lon="-0.3595000">
        <ele>303.3</ele>
        <time>2020-11-14T11:05:43Z</time>
      </trkpt>
      <trkpt lat="38.8835300" lon="-0.3595340">
        <ele>303.5</ele>
        <time>2020-11-14T11:05:44Z</time>
      </trkpt>
      <trkpt lat="38.8835210" lon="-0.3595700">
        <ele>303.6</ele>
        <time>2020-11-14T11:05:45Z</time>
      </trkpt>
      <trkpt lat="38.8835110" lon="-0.3596050">
        <ele>303.8</ele>
        <time>2020-11-14T11:05:46Z</time>
      </trkpt>
      <trkpt lat="38.8834980" lon="-0.3596390">
        <ele>304.0</ele>
        <time>2020-11-14T11:05:47Z</time>
      </trkpt>
      <trkpt lat="38.8834840" lon="-0.3596730">
        <ele>304.2</ele>
        <time>2020-11-14T11:05:48Z</time>
      </trkpt>
      <trkpt lat="38.8834730" lon="-0.3597080">
        <ele>304.3</ele>
        <time>2020-11-14T11:05:49Z</time>
      </trkpt>
      <trkpt lat="38.8834640" lon="-0.3597430">
        <ele>304.5</ele>
        <time>2020-11-14T11:05:50Z</time>
      </trkpt>
      <trkpt lat="38.8834540" lon="-0.3597790">
        <ele>304.7</ele>
        <time>2020-11-14T11:05:51Z</time>
      </trkpt>
      <trkpt lat="38.8834430" lon="-0.3598130">
        <ele>304.9</ele>
        <time>2020-11-14T11:05:52Z</time>
      </trkpt>
      <trkpt lat="38.8834330" lon="-0.3598450">
        <ele>305.0</ele>
        <time>2020-11-14T11:05:53Z</time>
      </trkpt>
      <trkpt lat="38.8834210" lon="-0.3598790">
        <ele>305.2</ele>
        <time>2020-11-14T11:05:54Z</time>
      </trkpt>
      <trkpt lat="38.8834090" lon="-0.3599130">
        <ele>305.4</ele>
        <time>2020-11-14T11:05:55Z</time>
      </trkpt>
      <trkpt lat="38.8833970" lon="-0.3599460">
        <ele>305.6</ele>
        <time>2020-11-14T11:05:56Z</time>
      </trkpt>
      <trkpt lat="38.8833850" lon="-0.3599790">
        <ele>305.8</ele>
        <time>2020-11-14T11:05:57Z</time>
      </trkpt>
      <trkpt lat="38.8833740" lon="-0.3600110">
        <ele>306.0</ele>
        <time>2020-11-14T11:05:58Z</time>
      </trkpt>
      <trkpt lat="38.8833600" lon="-0.3600580">
        <ele>306.2</ele>
        <time>2020-11-14T11:05:59Z</time>
      </trkpt>
      <trkpt lat="38.8833550" lon="-0.3600730">
        <ele>306.3</ele>
        <time>2020-11-14T11:06:00Z</time>
      </trkpt>
      <trkpt lat="38.8833420" lon="-0.3601190">
        <ele>306.5</ele>
        <time>2020-11-14T11:06:01Z</time>
      </trkpt>
      <trkpt lat="38.8833380" lon="-0.3601350">
        <ele>306.6</ele>
        <time>2020-11-14T11:06:02Z</time>
      </trkpt>
      <trkpt lat="38.8833260" lon="-0.3601810">
        <ele>306.9</ele>
        <time>2020-11-14T11:06:03Z</time>
      </trkpt>
      <trkpt lat="38.8833210" lon="-0.3601960">
        <ele>306.9</ele>
        <time>2020-11-14T11:06:04Z</time>
      </trkpt>
      <trkpt lat="38.8833040" lon="-0.3602430">
        <ele>307.2</ele>
        <time>2020-11-14T11:06:05Z</time>
      </trkpt>
      <trkpt lat="38.8832980" lon="-0.3602590">
        <ele>307.3</ele>
        <time>2020-11-14T11:06:06Z</time>
      </trkpt>
      <trkpt lat="38.8832850" lon="-0.3602910">
        <ele>307.5</ele>
        <time>2020-11-14T11:06:07Z</time>
      </trkpt>
      <trkpt lat="38.8832730" lon="-0.3603230">
        <ele>307.6</ele>
        <time>2020-11-14T11:06:08Z</time>
      </trkpt>
      <trkpt lat="38.8832620" lon="-0.3603570">
        <ele>307.8</ele>
        <time>2020-11-14T11:06:09Z</time>
      </trkpt>
      <trkpt lat="38.8832510" lon="-0.3603920">
        <ele>308.0</ele>
        <time>2020-11-14T11:06:10Z</time>
      </trkpt>
      <trkpt lat="38.8832410" lon="-0.3604270">
        <ele>308.2</ele>
        <time>2020-11-14T11:06:11Z</time>
      </trkpt>
      <trkpt lat="38.8832290" lon="-0.3604620">
        <ele>308.4</ele>
        <time>2020-11-14T11:06:12Z</time>
      </trkpt>
      <trkpt lat="38.8832180" lon="-0.3604960">
        <ele>308.6</ele>
        <time>2020-11-14T11:06:13Z</time>
      </trkpt>
      <trkpt lat="38.8832070" lon="-0.3605300">
        <ele>308.7</ele>
        <time>2020-11-14T11:06:14Z</time>
      </trkpt>
      <trkpt lat="38.8831960" lon="-0.3605650">
        <ele>308.9</ele>
        <time>2020-11-14T11:06:15Z</time>
      </trkpt>
      <trkpt lat="38.8831850" lon="-0.3605990">
        <ele>309.1</ele>
        <time>2020-11-14T11:06:16Z</time>
      </trkpt>
      <trkpt lat="38.8831740" lon="-0.3606330">
        <ele>309.3</ele>
        <time>2020-11-14T11:06:17Z</time>
      </trkpt>
      <trkpt lat="38.8831620" lon="-0.3606670">
        <ele>309.5</ele>
        <time>2020-11-14T11:06:18Z</time>
      </trkpt>
      <trkpt lat="38.8831490" lon="-0.3607000">
        <ele>309.7</ele>
        <time>2020-11-14T11:06:19Z</time>
      </trkpt>
      <trkpt lat="38.8831370" lon="-0.3607330">
        <ele>309.8</ele>
        <time>2020-11-14T11:06:20Z</time>
      </trkpt>
      <trkpt lat="38.8831220" lon="-0.3607660">
        <ele>310.0</ele>
        <time>2020-11-14T11:06:21Z</time>
      </trkpt>
      <trkpt lat="38.8831060" lon="-0.3608010">
        <ele>310.2</ele>
        <time>2020-11-14T11:06:22Z</time>
      </trkpt>
      <trkpt lat="38.8830910" lon="-0.3608320">
        <ele>310.3</ele>
        <time>2020-11-14T11:06:23Z</time>
      </trkpt>
      <trkpt lat="38.8830790" lon="-0.3608640">
        <ele>310.4</ele>
        <time>2020-11-14T11:06:24Z</time>
      </trkpt>
      <trkpt lat="38.8830660" lon="-0.3609000">
        <ele>310.5</ele>
        <time>2020-11-14T11:06:25Z</time>
      </trkpt>
      <trkpt lat="38.8830550" lon="-0.3609350">
        <ele>310.6</ele>
        <time>2020-11-14T11:06:26Z</time>
      </trkpt>
      <trkpt lat="38.8830430" lon="-0.3609710">
        <ele>310.7</ele>
        <time>2020-11-14T11:06:27Z</time>
      </trkpt>
      <trkpt lat="38.8830330" lon="-0.3610060">
        <ele>310.8</ele>
        <time>2020-11-14T11:06:28Z</time>
      </trkpt>
      <trkpt lat="38.8830230" lon="-0.3610390">
        <ele>310.8</ele>
        <time>2020-11-14T11:06:29Z</time>
      </trkpt>
      <trkpt lat="38.8830130" lon="-0.3610730">
        <ele>311.0</ele>
        <time>2020-11-14T11:06:30Z</time>
      </trkpt>
      <trkpt lat="38.8830000" lon="-0.3611120">
        <ele>311.2</ele>
        <time>2020-11-14T11:06:31Z</time>
      </trkpt>
      <trkpt lat="38.8829890" lon="-0.3611520">
        <ele>311.4</ele>
        <time>2020-11-14T11:06:32Z</time>
      </trkpt>
      <trkpt lat="38.8829790" lon="-0.3611880">
        <ele>311.6</ele>
        <time>2020-11-14T11:06:33Z</time>
      </trkpt>
      <trkpt lat="38.8829710" lon="-0.3612210">
        <ele>311.7</ele>
        <time>2020-11-14T11:06:34Z</time>
      </trkpt>
      <trkpt lat="38.8829610" lon="-0.3612560">
        <ele>311.9</ele>
        <time>2020-11-14T11:06:35Z</time>
      </trkpt>
      <trkpt lat="38.8829500" lon="-0.3612920">
        <ele>312.1</ele>
        <time>2020-11-14T11:06:36Z</time>
      </trkpt>
      <trkpt lat="38.8829400" lon="-0.3613280">
        <ele>312.3</ele>
        <time>2020-11-14T11:06:37Z</time>
      </trkpt>
      <trkpt lat="38.8829310" lon="-0.3613650">
        <ele>312.5</ele>
        <time>2020-11-14T11:06:38Z</time>
      </trkpt>
      <trkpt lat="38.8829220" lon="-0.3614010">
        <ele>312.6</ele>
        <time>2020-11-14T11:06:39Z</time>
      </trkpt>
      <trkpt lat="38.8829100" lon="-0.3614380">
        <ele>312.8</ele>
        <time>2020-11-14T11:06:40Z</time>
      </trkpt>
      <trkpt lat="38.8828970" lon="-0.3614740">
        <ele>313.0</ele>
        <time>2020-11-14T11:06:41Z</time>
      </trkpt>
      <trkpt lat="38.8828850" lon="-0.3615070">
        <ele>313.1</ele>
        <time>2020-11-14T11:06:42Z</time>
      </trkpt>
      <trkpt lat="38.8828710" lon="-0.3615540">
        <ele>313.4</ele>
        <time>2020-11-14T11:06:43Z</time>
      </trkpt>
      <trkpt lat="38.8828660" lon="-0.3615700">
        <ele>313.4</ele>
        <time>2020-11-14T11:06:44Z</time>
      </trkpt>
      <trkpt lat="38.8828570" lon="-0.3616050">
        <ele>313.6</ele>
        <time>2020-11-14T11:06:45Z</time>
      </trkpt>
      <trkpt lat="38.8828460" lon="-0.3616400">
        <ele>313.7</ele>
        <time>2020-11-14T11:06:46Z</time>
      </trkpt>
      <trkpt lat="38.8828320" lon="-0.3616740">
        <ele>313.9</ele>
        <time>2020-11-14T11:06:47Z</time>
      </trkpt>
      <trkpt lat="38.8828190" lon="-0.3617050">
        <ele>314.0</ele>
        <time>2020-11-14T11:06:48Z</time>
      </trkpt>
      <trkpt lat="38.8828050" lon="-0.3617390">
        <ele>314.1</ele>
        <time>2020-11-14T11:06:49Z</time>
      </trkpt>
      <trkpt lat="38.8827900" lon="-0.3617720">
        <ele>314.3</ele>
        <time>2020-11-14T11:06:50Z</time>
      </trkpt>
      <trkpt lat="38.8827740" lon="-0.3618080">
        <ele>314.4</ele>
        <time>2020-11-14T11:06:51Z</time>
      </trkpt>
      <trkpt lat="38.8827570" lon="-0.3618420">
        <ele>314.5</ele>
        <time>2020-11-14T11:06:52Z</time>
      </trkpt>
      <trkpt lat="38.8827390" lon="-0.3618730">
        <ele>314.5</ele>
        <time>2020-11-14T11:06:53Z</time>
      </trkpt>
      <trkpt lat="38.8827210" lon="-0.3619060">
        <ele>314.6</ele>
        <time>2020-11-14T11:06:54Z</time>
      </trkpt>
      <trkpt lat="38.8827020" lon="-0.3619430">
        <ele>314.7</ele>
        <time>2020-11-14T11:06:55Z</time>
      </trkpt>
      <trkpt lat="38.8826810" lon="-0.3619800">
        <ele>314.7</ele>
        <time>2020-11-14T11:06:56Z</time>
      </trkpt>
      <trkpt lat="38.8826570" lon="-0.3620150">
        <ele>314.7</ele>
        <time>2020-11-14T11:06:57Z</time>
      </trkpt>
      <trkpt lat="38.8826310" lon="-0.3620490">
        <ele>314.8</ele>
        <time>2020-11-14T11:06:58Z</time>
      </trkpt>
      <trkpt lat="38.8826050" lon="-0.3620850">
        <ele>314.8</ele>
        <time>2020-11-14T11:06:59Z</time>
      </trkpt>
      <trkpt lat="38.8825780" lon="-0.3621240">
        <ele>314.8</ele>
        <time>2020-11-14T11:07:00Z</time>
      </trkpt>
      <trkpt lat="38.8825470" lon="-0.3621650">
        <ele>314.8</ele>
        <time>2020-11-14T11:07:01Z</time>
      </trkpt>
      <trkpt lat="38.8825130" lon="-0.3622040">
        <ele>314.8</ele>
        <time>2020-11-14T11:07:02Z</time>
      </trkpt>
      <trkpt lat="38.8824790" lon="-0.3622420">
        <ele>314.8</ele>
        <time>2020-11-14T11:07:03Z</time>
      </trkpt>
      <trkpt lat="38.8824370" lon="-0.3622780">
        <ele>314.7</ele>
        <time>2020-11-14T11:07:04Z</time>
      </trkpt>
      <trkpt lat="38.8824020" lon="-0.3623050">
        <ele>314.7</ele>
        <time>2020-11-14T11:07:05Z</time>
      </trkpt>
      <trkpt lat="38.8823660" lon="-0.3623400">
        <ele>314.7</ele>
        <time>2020-11-14T11:07:06Z</time>
      </trkpt>
      <trkpt lat="38.8823300" lon="-0.3623760">
        <ele>314.7</ele>
        <time>2020-11-14T11:07:07Z</time>
      </trkpt>
      <trkpt lat="38.8822910" lon="-0.3624090">
        <ele>314.6</ele>
        <time>2020-11-14T11:07:08Z</time>
      </trkpt>
      <trkpt lat="38.8822490" lon="-0.3624380">
        <ele>314.6</ele>
        <time>2020-11-14T11:07:09Z</time>
      </trkpt>
      <trkpt lat="38.8822060" lon="-0.3624650">
        <ele>314.6</ele>
        <time>2020-11-14T11:07:10Z</time>
      </trkpt>
      <trkpt lat="38.8821660" lon="-0.3624830">
        <ele>314.6</ele>
        <time>2020-11-14T11:07:11Z</time>
      </trkpt>
      <trkpt lat="38.8821200" lon="-0.3625110">
        <ele>314.5</ele>
        <time>2020-11-14T11:07:12Z</time>
      </trkpt>
      <trkpt lat="38.8820860" lon="-0.3625370">
        <ele>314.5</ele>
        <time>2020-11-14T11:07:13Z</time>
      </trkpt>
      <trkpt lat="38.8820400" lon="-0.3625650">
        <ele>314.5</ele>
        <time>2020-11-14T11:07:14Z</time>
      </trkpt>
      <trkpt lat="38.8820090" lon="-0.3625960">
        <ele>314.4</ele>
        <time>2020-11-14T11:07:15Z</time>
      </trkpt>
      <trkpt lat="38.8819640" lon="-0.3626360">
        <ele>314.4</ele>
        <time>2020-11-14T11:07:16Z</time>
      </trkpt>
      <trkpt lat="38.8819290" lon="-0.3626670">
        <ele>314.4</ele>
        <time>2020-11-14T11:07:17Z</time>
      </trkpt>
      <trkpt lat="38.8818660" lon="-0.3626920">
        <ele>314.3</ele>
        <time>2020-11-14T11:07:18Z</time>
      </trkpt>
      <trkpt lat="38.8818110" lon="-0.3627210">
        <ele>314.3</ele>
        <time>2020-11-14T11:07:19Z</time>
      </trkpt>
      <trkpt lat="38.8817550" lon="-0.3627460">
        <ele>314.3</ele>
        <time>2020-11-14T11:07:20Z</time>
      </trkpt>
      <trkpt lat="38.8816850" lon="-0.3627690">
        <ele>314.2</ele>
        <time>2020-11-14T11:07:21Z</time>
      </trkpt>
      <trkpt lat="38.8816330" lon="-0.3628020">
        <ele>314.2</ele>
        <time>2020-11-14T11:07:22Z</time>
      </trkpt>
      <trkpt lat="38.8815700" lon="-0.3628360">
        <ele>314.2</ele>
        <time>2020-11-14T11:07:23Z</time>
      </trkpt>
      <trkpt lat="38.8815100" lon="-0.3628680">
        <ele>314.2</ele>
        <time>2020-11-14T11:07:24Z</time>
      </trkpt>
      <trkpt lat="38.8814510" lon="-0.3629000">
        <ele>314.2</ele>
        <time>2020-11-14T11:07:25Z</time>
      </trkpt>
      <trkpt lat="38.8813970" lon="-0.3629400">
        <ele>314.2</ele>
        <time>2020-11-14T11:07:26Z</time>
      </trkpt>
      <trkpt lat="38.8813400" lon="-0.3629920">
        <ele>314.2</ele>
        <time>2020-11-14T11:07:27Z</time>
      </trkpt>
      <trkpt lat="38.8812800" lon="-0.3630210">
        <ele>314.2</ele>
        <time>2020-11-14T11:07:28Z</time>
      </trkpt>
      <trkpt lat="38.8812230" lon="-0.3630320">
        <ele>314.2</ele>
        <time>2020-11-14T11:07:29Z</time>
      </trkpt>
      <trkpt lat="38.8811590" lon="-0.3630630">
        <ele>314.3</ele>
        <time>2020-11-14T11:07:30Z</time>
      </trkpt>
      <trkpt lat="38.8811050" lon="-0.3630970">
        <ele>314.3</ele>
        <time>2020-11-14T11:07:31Z</time>
      </trkpt>
      <trkpt lat="38.8810490" lon="-0.3631280">
        <ele>314.4</ele>
        <time>2020-11-14T11:07:32Z</time>
      </trkpt>
      <trkpt lat="38.8809920" lon="-0.3631620">
        <ele>314.4</ele>
        <time>2020-11-14T11:07:33Z</time>
      </trkpt>
      <trkpt lat="38.8809390" lon="-0.3631900">
        <ele>314.5</ele>
        <time>2020-11-14T11:07:34Z</time>
      </trkpt>
      <trkpt lat="38.8808850" lon="-0.3632360">
        <ele>314.6</ele>
        <time>2020-11-14T11:07:35Z</time>
      </trkpt>
      <trkpt lat="38.8808300" lon="-0.3632650">
        <ele>314.7</ele>
        <time>2020-11-14T11:07:36Z</time>
      </trkpt>
      <trkpt lat="38.8807750" lon="-0.3632850">
        <ele>314.7</ele>
        <time>2020-11-14T11:07:37Z</time>
      </trkpt>
      <trkpt lat="38.8807240" lon="-0.3633100">
        <ele>314.8</ele>
        <time>2020-11-14T11:07:38Z</time>
      </trkpt>
      <trkpt lat="38.8806570" lon="-0.3633400">
        <ele>315.0</ele>
        <time>2020-11-14T11:07:39Z</time>
      </trkpt>
      <trkpt lat="38.8806060" lon="-0.3633500">
        <ele>315.1</ele>
        <time>2020-11-14T11:07:40Z</time>
      </trkpt>
      <trkpt lat="38.8805570" lon="-0.3633860">
        <ele>315.2</ele>
        <time>2020-11-14T11:07:41Z</time>
      </trkpt>
      <trkpt lat="38.8805100" lon="-0.3634140">
        <ele>315.3</ele>
        <time>2020-11-14T11:07:42Z</time>
      </trkpt>
      <trkpt lat="38.8804640" lon="-0.3634390">
        <ele>315.4</ele>
        <time>2020-11-14T11:07:43Z</time>
      </trkpt>
      <trkpt lat="38.8804210" lon="-0.3634830">
        <ele>315.5</ele>
        <time>2020-11-14T11:07:44Z</time>
      </trkpt>
      <trkpt lat="38.8803830" lon="-0.3635260">
        <ele>315.6</ele>
        <time>2020-11-14T11:07:45Z</time>
      </trkpt>
      <trkpt lat="38.8803420" lon="-0.3635570">
        <ele>315.8</ele>
        <time>2020-11-14T11:07:46Z</time>
      </trkpt>
      <trkpt lat="38.8803060" lon="-0.3635860">
        <ele>315.9</ele>
        <time>2020-11-14T11:07:47Z</time>
      </trkpt>
      <trkpt lat="38.8802640" lon="-0.3636080">
        <ele>316.0</ele>
        <time>2020-11-14T11:07:48Z</time>
      </trkpt>
      <trkpt lat="38.8802200" lon="-0.3636310">
        <ele>316.1</ele>
        <time>2020-11-14T11:07:49Z</time>
      </trkpt>
      <trkpt lat="38.8801830" lon="-0.3636480">
        <ele>316.2</ele>
        <time>2020-11-14T11:07:50Z</time>
      </trkpt>
      <trkpt lat="38.8801440" lon="-0.3636730">
        <ele>316.3</ele>
        <time>2020-11-14T11:07:51Z</time>
      </trkpt>
      <trkpt lat="38.8800960" lon="-0.3637000">
        <ele>316.5</ele>
        <time>2020-11-14T11:07:52Z</time>
      </trkpt>
      <trkpt lat="38.8800570" lon="-0.3637240">
        <ele>316.6</ele>
        <time>2020-11-14T11:07:53Z</time>
      </trkpt>
      <trkpt lat="38.8800180" lon="-0.3637490">
        <ele>316.7</ele>
        <time>2020-11-14T11:07:54Z</time>
      </trkpt>
      <trkpt lat="38.8799770" lon="-0.3637730">
        <ele>316.8</ele>
        <time>2020-11-14T11:07:55Z</time>
      </trkpt>
      <trkpt lat="38.8799380" lon="-0.3638020">
        <ele>316.9</ele>
        <time>2020-11-14T11:07:56Z</time>
      </trkpt>
      <trkpt lat="38.8798820" lon="-0.3638390">
        <ele>317.0</ele>
        <time>2020-11-14T11:07:57Z</time>
      </trkpt>
      <trkpt lat="38.8798400" lon="-0.3638550">
        <ele>317.1</ele>
        <time>2020-11-14T11:07:58Z</time>
      </trkpt>
      <trkpt lat="38.8797990" lon="-0.3638780">
        <ele>317.2</ele>
        <time>2020-11-14T11:07:59Z</time>
      </trkpt>
      <trkpt lat="38.8797590" lon="-0.3639040">
        <ele>317.3</ele>
        <time>2020-11-14T11:08:00Z</time>
      </trkpt>
      <trkpt lat="38.8797010" lon="-0.3639120">
        <ele>317.4</ele>
        <time>2020-11-14T11:08:01Z</time>
      </trkpt>
      <trkpt lat="38.8796560" lon="-0.3639290">
        <ele>317.5</ele>
        <time>2020-11-14T11:08:02Z</time>
      </trkpt>
      <trkpt lat="38.8796420" lon="-0.3639610">
        <ele>317.6</ele>
        <time>2020-11-14T11:08:03Z</time>
      </trkpt>
      <trkpt lat="38.8795960" lon="-0.3639750">
        <ele>317.7</ele>
        <time>2020-11-14T11:08:04Z</time>
      </trkpt>
      <trkpt lat="38.8795580" lon="-0.3640020">
        <ele>317.8</ele>
        <time>2020-11-14T11:08:05Z</time>
      </trkpt>
      <trkpt lat="38.8795130" lon="-0.3640220">
        <ele>317.9</ele>
        <time>2020-11-14T11:08:06Z</time>
      </trkpt>
      <trkpt lat="38.8794690" lon="-0.3640330">
        <ele>318.0</ele>
        <time>2020-11-14T11:08:07Z</time>
      </trkpt>
      <trkpt lat="38.8794360" lon="-0.3640670">
        <ele>318.1</ele>
        <time>2020-11-14T11:08:08Z</time>
      </trkpt>
      <trkpt lat="38.8793880" lon="-0.3640820">
        <ele>318.2</ele>
        <time>2020-11-14T11:08:09Z</time>
      </trkpt>
      <trkpt lat="38.8793010" lon="-0.3640960">
        <ele>318.5</ele>
        <time>2020-11-14T11:08:10Z</time>
      </trkpt>
      <trkpt lat="38.8792550" lon="-0.3641180">
        <ele>318.6</ele>
        <time>2020-11-14T11:08:11Z</time>
      </trkpt>
      <trkpt lat="38.8792170" lon="-0.3641470">
        <ele>318.8</ele>
        <time>2020-11-14T11:08:12Z</time>
      </trkpt>
      <trkpt lat="38.8791770" lon="-0.3641630">
        <ele>318.9</ele>
        <time>2020-11-14T11:08:13Z</time>
      </trkpt>
      <trkpt lat="38.8791430" lon="-0.3641940">
        <ele>319.0</ele>
        <time>2020-11-14T11:08:14Z</time>
      </trkpt>
      <trkpt lat="38.8791020" lon="-0.3642100">
        <ele>319.2</ele>
        <time>2020-11-14T11:08:15Z</time>
      </trkpt>
      <trkpt lat="38.8790640" lon="-0.3642390">
        <ele>319.4</ele>
        <time>2020-11-14T11:08:16Z</time>
      </trkpt>
      <trkpt lat="38.8790230" lon="-0.3642630">
        <ele>319.5</ele>
        <time>2020-11-14T11:08:17Z</time>
      </trkpt>
      <trkpt lat="38.8789860" lon="-0.3642880">
        <ele>319.7</ele>
        <time>2020-11-14T11:08:18Z</time>
      </trkpt>
      <trkpt lat="38.8789510" lon="-0.3643160">
        <ele>319.9</ele>
        <time>2020-11-14T11:08:19Z</time>
      </trkpt>
      <trkpt lat="38.8789220" lon="-0.3643450">
        <ele>320.0</ele>
        <time>2020-11-14T11:08:20Z</time>
      </trkpt>
      <trkpt lat="38.8788860" lon="-0.3643670">
        <ele>320.2</ele>
        <time>2020-11-14T11:08:21Z</time>
      </trkpt>
      <trkpt lat="38.8788490" lon="-0.3643820">
        <ele>320.3</ele>
        <time>2020-11-14T11:08:22Z</time>
      </trkpt>
      <trkpt lat="38.8788150" lon="-0.3644020">
        <ele>320.5</ele>
        <time>2020-11-14T11:08:23Z</time>
      </trkpt>
      <trkpt lat="38.8787820" lon="-0.3644230">
        <ele>320.6</ele>
        <time>2020-11-14T11:08:24Z</time>
      </trkpt>
      <trkpt lat="38.8787530" lon="-0.3644420">
        <ele>320.8</ele>
        <time>2020-11-14T11:08:25Z</time>
      </trkpt>
      <trkpt lat="38.8787200" lon="-0.3644580">
        <ele>320.9</ele>
        <time>2020-11-14T11:08:26Z</time>
      </trkpt>
      <trkpt lat="38.8786840" lon="-0.3644720">
        <ele>321.1</ele>
        <time>2020-11-14T11:08:27Z</time>
      </trkpt>
      <trkpt lat="38.8786500" lon="-0.3644810">
        <ele>321.2</ele>
        <time>2020-11-14T11:08:28Z</time>
      </trkpt>
      <trkpt lat="38.8786200" lon="-0.3644910">
        <ele>321.4</ele>
        <time>2020-11-14T11:08:29Z</time>
      </trkpt>
      <trkpt lat="38.8785900" lon="-0.3645030">
        <ele>321.5</ele>
        <time>2020-11-14T11:08:30Z</time>
      </trkpt>
      <trkpt lat="38.8785590" lon="-0.3645180">
        <ele>321.7</ele>
        <time>2020-11-14T11:08:31Z</time>
      </trkpt>
      <trkpt lat="38.8785230" lon="-0.3645320">
        <ele>321.9</ele>
        <time>2020-11-14T11:08:32Z</time>
      </trkpt>
      <trkpt lat="38.8784840" lon="-0.3645450">
        <ele>322.1</ele>
        <time>2020-11-14T11:08:33Z</time>
      </trkpt>
      <trkpt lat="38.8784480" lon="-0.3645640">
        <ele>322.3</ele>
        <time>2020-11-14T11:08:34Z</time>
      </trkpt>
      <trkpt lat="38.8784130" lon="-0.3645860">
        <ele>322.4</ele>
        <time>2020-11-14T11:08:35Z</time>
      </trkpt>
      <trkpt lat="38.8783800" lon="-0.3646100">
        <ele>322.6</ele>
        <time>2020-11-14T11:08:36Z</time>
      </trkpt>
      <trkpt lat="38.8783490" lon="-0.3646310">
        <ele>322.8</ele>
        <time>2020-11-14T11:08:37Z</time>
      </trkpt>
      <trkpt lat="38.8783170" lon="-0.3646530">
        <ele>322.9</ele>
        <time>2020-11-14T11:08:38Z</time>
      </trkpt>
      <trkpt lat="38.8782860" lon="-0.3646750">
        <ele>323.1</ele>
        <time>2020-11-14T11:08:39Z</time>
      </trkpt>
      <trkpt lat="38.8782580" lon="-0.3646960">
        <ele>323.3</ele>
        <time>2020-11-14T11:08:40Z</time>
      </trkpt>
      <trkpt lat="38.8782300" lon="-0.3647170">
        <ele>323.4</ele>
        <time>2020-11-14T11:08:41Z</time>
      </trkpt>
      <trkpt lat="38.8782030" lon="-0.3647380">
        <ele>323.6</ele>
        <time>2020-11-14T11:08:42Z</time>
      </trkpt>
      <trkpt lat="38.8781750" lon="-0.3647590">
        <ele>323.7</ele>
        <time>2020-11-14T11:08:43Z</time>
      </trkpt>
      <trkpt lat="38.8781490" lon="-0.3647840">
        <ele>323.9</ele>
        <time>2020-11-14T11:08:44Z</time>
      </trkpt>
      <trkpt lat="38.8781220" lon="-0.3648070">
        <ele>324.0</ele>
        <time>2020-11-14T11:08:45Z</time>
      </trkpt>
      <trkpt lat="38.8780950" lon="-0.3648290">
        <ele>324.2</ele>
        <time>2020-11-14T11:08:46Z</time>
      </trkpt>
      <trkpt lat="38.8780650" lon="-0.3648470">
        <ele>324.4</ele>
        <time>2020-11-14T11:08:47Z</time>
      </trkpt>
      <trkpt lat="38.8780380" lon="-0.3648690">
        <ele>324.5</ele>
        <time>2020-11-14T11:08:48Z</time>
      </trkpt>
      <trkpt lat="38.8780110" lon="-0.3648900">
        <ele>324.7</ele>
        <time>2020-11-14T11:08:49Z</time>
      </trkpt>
      <trkpt lat="38.8779840" lon="-0.3649150">
        <ele>324.9</ele>
        <time>2020-11-14T11:08:50Z</time>
      </trkpt>
      <trkpt lat="38.8779570" lon="-0.3649410">
        <ele>325.1</ele>
        <time>2020-11-14T11:08:51Z</time>
      </trkpt>
      <trkpt lat="38.8779280" lon="-0.3649670">
        <ele>325.2</ele>
        <time>2020-11-14T11:08:52Z</time>
      </trkpt>
      <trkpt lat="38.8778980" lon="-0.3649900">
        <ele>325.4</ele>
        <time>2020-11-14T11:08:53Z</time>
      </trkpt>
      <trkpt lat="38.8778670" lon="-0.3650120">
        <ele>325.6</ele>
        <time>2020-11-14T11:08:54Z</time>
      </trkpt>
      <trkpt lat="38.8778390" lon="-0.3650380">
        <ele>325.8</ele>
        <time>2020-11-14T11:08:55Z</time>
      </trkpt>
      <trkpt lat="38.8778110" lon="-0.3650650">
        <ele>326.0</ele>
        <time>2020-11-14T11:08:56Z</time>
      </trkpt>
      <trkpt lat="38.8777820" lon="-0.3650920">
        <ele>326.2</ele>
        <time>2020-11-14T11:08:57Z</time>
      </trkpt>
      <trkpt lat="38.8777530" lon="-0.3651180">
        <ele>326.4</ele>
        <time>2020-11-14T11:08:58Z</time>
      </trkpt>
      <trkpt lat="38.8777270" lon="-0.3651450">
        <ele>326.6</ele>
        <time>2020-11-14T11:08:59Z</time>
      </trkpt>
      <trkpt lat="38.8777010" lon="-0.3651730">
        <ele>326.7</ele>
        <time>2020-11-14T11:09:00Z</time>
      </trkpt>
      <trkpt lat="38.8776750" lon="-0.3652010">
        <ele>326.9</ele>
        <time>2020-11-14T11:09:01Z</time>
      </trkpt>
      <trkpt lat="38.8776510" lon="-0.3652300">
        <ele>327.1</ele>
        <time>2020-11-14T11:09:02Z</time>
      </trkpt>
      <trkpt lat="38.8776250" lon="-0.3652590">
        <ele>327.3</ele>
        <time>2020-11-14T11:09:03Z</time>
      </trkpt>
      <trkpt lat="38.8776010" lon="-0.3652870">
        <ele>327.5</ele>
        <time>2020-11-14T11:09:04Z</time>
      </trkpt>
      <trkpt lat="38.8775800" lon="-0.3653170">
        <ele>327.6</ele>
        <time>2020-11-14T11:09:05Z</time>
      </trkpt>
      <trkpt lat="38.8775590" lon="-0.3653470">
        <ele>327.8</ele>
        <time>2020-11-14T11:09:06Z</time>
      </trkpt>
      <trkpt lat="38.8775390" lon="-0.3653760">
        <ele>328.0</ele>
        <time>2020-11-14T11:09:07Z</time>
      </trkpt>
      <trkpt lat="38.8775140" lon="-0.3654020">
        <ele>328.1</ele>
        <time>2020-11-14T11:09:08Z</time>
      </trkpt>
      <trkpt lat="38.8774910" lon="-0.3654290">
        <ele>328.3</ele>
        <time>2020-11-14T11:09:09Z</time>
      </trkpt>
      <trkpt lat="38.8774680" lon="-0.3654570">
        <ele>328.4</ele>
        <time>2020-11-14T11:09:10Z</time>
      </trkpt>
      <trkpt lat="38.8774460" lon="-0.3654880">
        <ele>328.6</ele>
        <time>2020-11-14T11:09:11Z</time>
      </trkpt>
      <trkpt lat="38.8774270" lon="-0.3655210">
        <ele>328.7</ele>
        <time>2020-11-14T11:09:12Z</time>
      </trkpt>
      <trkpt lat="38.8774100" lon="-0.3655560">
        <ele>328.9</ele>
        <time>2020-11-14T11:09:13Z</time>
      </trkpt>
      <trkpt lat="38.8773920" lon="-0.3655880">
        <ele>329.0</ele>
        <time>2020-11-14T11:09:14Z</time>
      </trkpt>
      <trkpt lat="38.8773720" lon="-0.3656220">
        <ele>329.2</ele>
        <time>2020-11-14T11:09:15Z</time>
      </trkpt>
      <trkpt lat="38.8773510" lon="-0.3656550">
        <ele>329.4</ele>
        <time>2020-11-14T11:09:16Z</time>
      </trkpt>
      <trkpt lat="38.8773310" lon="-0.3656910">
        <ele>329.6</ele>
        <time>2020-11-14T11:09:17Z</time>
      </trkpt>
      <trkpt lat="38.8773120" lon="-0.3657240">
        <ele>329.8</ele>
        <time>2020-11-14T11:09:18Z</time>
      </trkpt>
      <trkpt lat="38.8772940" lon="-0.3657550">
        <ele>329.9</ele>
        <time>2020-11-14T11:09:19Z</time>
      </trkpt>
      <trkpt lat="38.8772770" lon="-0.3657870">
        <ele>330.1</ele>
        <time>2020-11-14T11:09:20Z</time>
      </trkpt>
      <trkpt lat="38.8772590" lon="-0.3658180">
        <ele>330.3</ele>
        <time>2020-11-14T11:09:21Z</time>
      </trkpt>
      <trkpt lat="38.8772380" lon="-0.3658480">
        <ele>330.4</ele>
        <time>2020-11-14T11:09:22Z</time>
      </trkpt>
      <trkpt lat="38.8772180" lon="-0.3658730">
        <ele>330.6</ele>
        <time>2020-11-14T11:09:23Z</time>
      </trkpt>
      <trkpt lat="38.8771880" lon="-0.3659020">
        <ele>330.8</ele>
        <time>2020-11-14T11:09:24Z</time>
      </trkpt>
      <trkpt lat="38.8771770" lon="-0.3659110">
        <ele>330.9</ele>
        <time>2020-11-14T11:09:25Z</time>
      </trkpt>
      <trkpt lat="38.8771470" lon="-0.3659420">
        <ele>331.1</ele>
        <time>2020-11-14T11:09:26Z</time>
      </trkpt>
      <trkpt lat="38.8771370" lon="-0.3659530">
        <ele>331.2</ele>
        <time>2020-11-14T11:09:27Z</time>
      </trkpt>
      <trkpt lat="38.8771190" lon="-0.3659820">
        <ele>331.3</ele>
        <time>2020-11-14T11:09:28Z</time>
      </trkpt>
      <trkpt lat="38.8770990" lon="-0.3660220">
        <ele>331.5</ele>
        <time>2020-11-14T11:09:29Z</time>
      </trkpt>
      <trkpt lat="38.8770930" lon="-0.3660340">
        <ele>331.6</ele>
        <time>2020-11-14T11:09:30Z</time>
      </trkpt>
      <trkpt lat="38.8770730" lon="-0.3660760">
        <ele>331.8</ele>
        <time>2020-11-14T11:09:31Z</time>
      </trkpt>
      <trkpt lat="38.8770650" lon="-0.3660900">
        <ele>331.9</ele>
        <time>2020-11-14T11:09:32Z</time>
      </trkpt>
      <trkpt lat="38.8770400" lon="-0.3661270">
        <ele>332.1</ele>
        <time>2020-11-14T11:09:33Z</time>
      </trkpt>
      <trkpt lat="38.8770310" lon="-0.3661380">
        <ele>332.1</ele>
        <time>2020-11-14T11:09:34Z</time>
      </trkpt>
      <trkpt lat="38.8770080" lon="-0.3661710">
        <ele>332.3</ele>
        <time>2020-11-14T11:09:35Z</time>
      </trkpt>
      <trkpt lat="38.8770000" lon="-0.3661830">
        <ele>332.4</ele>
        <time>2020-11-14T11:09:36Z</time>
      </trkpt>
      <trkpt lat="38.8769790" lon="-0.3662250">
        <ele>332.6</ele>
        <time>2020-11-14T11:09:37Z</time>
      </trkpt>
      <trkpt lat="38.8769710" lon="-0.3662390">
        <ele>332.7</ele>
        <time>2020-11-14T11:09:38Z</time>
      </trkpt>
      <trkpt lat="38.8769540" lon="-0.3662700">
        <ele>332.9</ele>
        <time>2020-11-14T11:09:39Z</time>
      </trkpt>
      <trkpt lat="38.8769370" lon="-0.3663020">
        <ele>333.0</ele>
        <time>2020-11-14T11:09:40Z</time>
      </trkpt>
      <trkpt lat="38.8769180" lon="-0.3663340">
        <ele>333.2</ele>
        <time>2020-11-14T11:09:41Z</time>
      </trkpt>
      <trkpt lat="38.8768990" lon="-0.3663680">
        <ele>333.4</ele>
        <time>2020-11-14T11:09:42Z</time>
      </trkpt>
      <trkpt lat="38.8768800" lon="-0.3664000">
        <ele>333.6</ele>
        <time>2020-11-14T11:09:43Z</time>
      </trkpt>
      <trkpt lat="38.8768610" lon="-0.3664320">
        <ele>333.8</ele>
        <time>2020-11-14T11:09:44Z</time>
      </trkpt>
      <trkpt lat="38.8768440" lon="-0.3664650">
        <ele>334.0</ele>
        <time>2020-11-14T11:09:45Z</time>
      </trkpt>
      <trkpt lat="38.8768300" lon="-0.3665000">
        <ele>334.1</ele>
        <time>2020-11-14T11:09:46Z</time>
      </trkpt>
      <trkpt lat="38.8768160" lon="-0.3665360">
        <ele>334.3</ele>
        <time>2020-11-14T11:09:47Z</time>
      </trkpt>
      <trkpt lat="38.8768010" lon="-0.3665720">
        <ele>334.5</ele>
        <time>2020-11-14T11:09:48Z</time>
      </trkpt>
      <trkpt lat="38.8767850" lon="-0.3666060">
        <ele>334.7</ele>
        <time>2020-11-14T11:09:49Z</time>
      </trkpt>
      <trkpt lat="38.8767680" lon="-0.3666410">
        <ele>334.8</ele>
        <time>2020-11-14T11:09:50Z</time>
      </trkpt>
      <trkpt lat="38.8767500" lon="-0.3666760">
        <ele>335.0</ele>
        <time>2020-11-14T11:09:51Z</time>
      </trkpt>
      <trkpt lat="38.8767340" lon="-0.3667140">
        <ele>335.2</ele>
        <time>2020-11-14T11:09:52Z</time>
      </trkpt>
      <trkpt lat="38.8767210" lon="-0.3667550">
        <ele>335.4</ele>
        <time>2020-11-14T11:09:53Z</time>
      </trkpt>
      <trkpt lat="38.8767100" lon="-0.3667980">
        <ele>335.6</ele>
        <time>2020-11-14T11:09:54Z</time>
      </trkpt>
      <trkpt lat="38.8766980" lon="-0.3668410">
        <ele>335.7</ele>
        <time>2020-11-14T11:09:55Z</time>
      </trkpt>
      <trkpt lat="38.8766880" lon="-0.3668830">
        <ele>335.9</ele>
        <time>2020-11-14T11:09:56Z</time>
      </trkpt>
      <trkpt lat="38.8766750" lon="-0.3669230">
        <ele>336.1</ele>
        <time>2020-11-14T11:09:57Z</time>
      </trkpt>
      <trkpt lat="38.8766620" lon="-0.3669630">
        <ele>336.3</ele>
        <time>2020-11-14T11:09:58Z</time>
      </trkpt>
      <trkpt lat="38.8766500" lon="-0.3670030">
        <ele>336.4</ele>
        <time>2020-11-14T11:09:59Z</time>
      </trkpt>
      <trkpt lat="38.8766370" lon="-0.3670440">
        <ele>336.6</ele>
        <time>2020-11-14T11:10:00Z</time>
      </trkpt>
      <trkpt lat="38.8766250" lon="-0.3670840">
        <ele>336.8</ele>
        <time>2020-11-14T11:10:01Z</time>
      </trkpt>
      <trkpt lat="38.8766120" lon="-0.3671220">
        <ele>336.9</ele>
        <time>2020-11-14T11:10:02Z</time>
      </trkpt>
      <trkpt lat="38.8765980" lon="-0.3671580">
        <ele>337.1</ele>
        <time>2020-11-14T11:10:03Z</time>
      </trkpt>
      <trkpt lat="38.8765830" lon="-0.3671940">
        <ele>337.2</ele>
        <time>2020-11-14T11:10:04Z</time>
      </trkpt>
      <trkpt lat="38.8765690" lon="-0.3672290">
        <ele>337.4</ele>
        <time>2020-11-14T11:10:05Z</time>
      </trkpt>
      <trkpt lat="38.8765540" lon="-0.3672640">
        <ele>337.5</ele>
        <time>2020-11-14T11:10:06Z</time>
      </trkpt>
      <trkpt lat="38.8765400" lon="-0.3672990">
        <ele>337.7</ele>
        <time>2020-11-14T11:10:07Z</time>
      </trkpt>
      <trkpt lat="38.8765270" lon="-0.3673340">
        <ele>337.8</ele>
        <time>2020-11-14T11:10:08Z</time>
      </trkpt>
      <trkpt lat="38.8765150" lon="-0.3673710">
        <ele>337.8</ele>
        <time>2020-11-14T11:10:09Z</time>
      </trkpt>
      <trkpt lat="38.8765030" lon="-0.3674070">
        <ele>337.9</ele>
        <time>2020-11-14T11:10:10Z</time>
      </trkpt>
      <trkpt lat="38.8764910" lon="-0.3674440">
        <ele>337.9</ele>
        <time>2020-11-14T11:10:11Z</time>
      </trkpt>
      <trkpt lat="38.8764780" lon="-0.3674780">
        <ele>338.0</ele>
        <time>2020-11-14T11:10:12Z</time>
      </trkpt>
      <trkpt lat="38.8764640" lon="-0.3675130">
        <ele>338.1</ele>
        <time>2020-11-14T11:10:13Z</time>
      </trkpt>
      <trkpt lat="38.8764510" lon="-0.3675470">
        <ele>338.1</ele>
        <time>2020-11-14T11:10:14Z</time>
      </trkpt>
      <trkpt lat="38.8764380" lon="-0.3675820">
        <ele>338.2</ele>
        <time>2020-11-14T11:10:15Z</time>
      </trkpt>
      <trkpt lat="38.8764250" lon="-0.3676160">
        <ele>338.2</ele>
        <time>2020-11-14T11:10:16Z</time>
      </trkpt>
      <trkpt lat="38.8764100" lon="-0.3676510">
        <ele>338.3</ele>
        <time>2020-11-14T11:10:17Z</time>
      </trkpt>
      <trkpt lat="38.8763950" lon="-0.3676860">
        <ele>338.3</ele>
        <time>2020-11-14T11:10:18Z</time>
      </trkpt>
      <trkpt lat="38.8763790" lon="-0.3677230">
        <ele>338.3</ele>
        <time>2020-11-14T11:10:19Z</time>
      </trkpt>
      <trkpt lat="38.8763620" lon="-0.3677620">
        <ele>338.4</ele>
        <time>2020-11-14T11:10:20Z</time>
      </trkpt>
      <trkpt lat="38.8763440" lon="-0.3678030">
        <ele>338.4</ele>
        <time>2020-11-14T11:10:21Z</time>
      </trkpt>
      <trkpt lat="38.8763260" lon="-0.3678460">
        <ele>338.4</ele>
        <time>2020-11-14T11:10:22Z</time>
      </trkpt>
      <trkpt lat="38.8763070" lon="-0.3678900">
        <ele>338.4</ele>
        <time>2020-11-14T11:10:23Z</time>
      </trkpt>
      <trkpt lat="38.8762830" lon="-0.3679340">
        <ele>338.4</ele>
        <time>2020-11-14T11:10:24Z</time>
      </trkpt>
      <trkpt lat="38.8762580" lon="-0.3679800">
        <ele>338.4</ele>
        <time>2020-11-14T11:10:25Z</time>
      </trkpt>
      <trkpt lat="38.8762320" lon="-0.3680280">
        <ele>338.4</ele>
        <time>2020-11-14T11:10:26Z</time>
      </trkpt>
      <trkpt lat="38.8762020" lon="-0.3680790">
        <ele>338.3</ele>
        <time>2020-11-14T11:10:27Z</time>
      </trkpt>
      <trkpt lat="38.8761760" lon="-0.3681270">
        <ele>338.3</ele>
        <time>2020-11-14T11:10:28Z</time>
      </trkpt>
      <trkpt lat="38.8761500" lon="-0.3681840">
        <ele>338.2</ele>
        <time>2020-11-14T11:10:29Z</time>
      </trkpt>
      <trkpt lat="38.8761310" lon="-0.3682510">
        <ele>338.1</ele>
        <time>2020-11-14T11:10:30Z</time>
      </trkpt>
      <trkpt lat="38.8761000" lon="-0.3683050">
        <ele>338.0</ele>
        <time>2020-11-14T11:10:31Z</time>
      </trkpt>
      <trkpt lat="38.8760680" lon="-0.3683570">
        <ele>337.9</ele>
        <time>2020-11-14T11:10:32Z</time>
      </trkpt>
      <trkpt lat="38.8760400" lon="-0.3684160">
        <ele>337.8</ele>
        <time>2020-11-14T11:10:33Z</time>
      </trkpt>
      <trkpt lat="38.8760120" lon="-0.3684800">
        <ele>337.6</ele>
        <time>2020-11-14T11:10:34Z</time>
      </trkpt>
      <trkpt lat="38.8759720" lon="-0.3685350">
        <ele>337.4</ele>
        <time>2020-11-14T11:10:35Z</time>
      </trkpt>
      <trkpt lat="38.8759250" lon="-0.3685860">
        <ele>337.1</ele>
        <time>2020-11-14T11:10:36Z</time>
      </trkpt>
      <trkpt lat="38.8758910" lon="-0.3686430">
        <ele>336.9</ele>
        <time>2020-11-14T11:10:37Z</time>
      </trkpt>
      <trkpt lat="38.8758520" lon="-0.3687100">
        <ele>336.6</ele>
        <time>2020-11-14T11:10:38Z</time>
      </trkpt>
      <trkpt lat="38.8758210" lon="-0.3687880">
        <ele>336.2</ele>
        <time>2020-11-14T11:10:39Z</time>
      </trkpt>
      <trkpt lat="38.8757870" lon="-0.3688680">
        <ele>335.8</ele>
        <time>2020-11-14T11:10:40Z</time>
      </trkpt>
      <trkpt lat="38.8757500" lon="-0.3689430">
        <ele>335.4</ele>
        <time>2020-11-14T11:10:41Z</time>
      </trkpt>
      <trkpt lat="38.8757140" lon="-0.3690230">
        <ele>335.0</ele>
        <time>2020-11-14T11:10:42Z</time>
      </trkpt>
      <trkpt lat="38.8756740" lon="-0.3691080">
        <ele>334.6</ele>
        <time>2020-11-14T11:10:43Z</time>
      </trkpt>
      <trkpt lat="38.8756310" lon="-0.3691860">
        <ele>334.2</ele>
        <time>2020-11-14T11:10:44Z</time>
      </trkpt>
      <trkpt lat="38.8755900" lon="-0.3692740">
        <ele>333.8</ele>
        <time>2020-11-14T11:10:45Z</time>
      </trkpt>
      <trkpt lat="38.8755400" lon="-0.3693620">
        <ele>333.4</ele>
        <time>2020-11-14T11:10:46Z</time>
      </trkpt>
      <trkpt lat="38.8754920" lon="-0.3694490">
        <ele>333.0</ele>
        <time>2020-11-14T11:10:47Z</time>
      </trkpt>
      <trkpt lat="38.8754420" lon="-0.3695380">
        <ele>332.6</ele>
        <time>2020-11-14T11:10:48Z</time>
      </trkpt>
      <trkpt lat="38.8753920" lon="-0.3696280">
        <ele>332.3</ele>
        <time>2020-11-14T11:10:49Z</time>
      </trkpt>
      <trkpt lat="38.8753360" lon="-0.3697200">
        <ele>332.0</ele>
        <time>2020-11-14T11:10:50Z</time>
      </trkpt>
      <trkpt lat="38.8752850" lon="-0.3698200">
        <ele>331.8</ele>
        <time>2020-11-14T11:10:51Z</time>
      </trkpt>
      <trkpt lat="38.8752320" lon="-0.3699200">
        <ele>331.7</ele>
        <time>2020-11-14T11:10:52Z</time>
      </trkpt>
      <trkpt lat="38.8751820" lon="-0.3700170">
        <ele>331.7</ele>
        <time>2020-11-14T11:10:53Z</time>
      </trkpt>
      <trkpt lat="38.8751280" lon="-0.3701060">
        <ele>331.7</ele>
        <time>2020-11-14T11:10:54Z</time>
      </trkpt>
      <trkpt lat="38.8750850" lon="-0.3701990">
        <ele>331.8</ele>
        <time>2020-11-14T11:10:55Z</time>
      </trkpt>
      <trkpt lat="38.8750380" lon="-0.3702910">
        <ele>331.9</ele>
        <time>2020-11-14T11:10:56Z</time>
      </trkpt>
      <trkpt lat="38.8749890" lon="-0.3703830">
        <ele>332.0</ele>
        <time>2020-11-14T11:10:57Z</time>
      </trkpt>
      <trkpt lat="38.8749420" lon="-0.3704730">
        <ele>332.1</ele>
        <time>2020-11-14T11:10:58Z</time>
      </trkpt>
      <trkpt lat="38.8748890" lon="-0.3705580">
        <ele>332.2</ele>
        <time>2020-11-14T11:10:59Z</time>
      </trkpt>
      <trkpt lat="38.8748380" lon="-0.3706500">
        <ele>332.3</ele>
        <time>2020-11-14T11:11:00Z</time>
      </trkpt>
      <trkpt lat="38.8747910" lon="-0.3707400">
        <ele>332.4</ele>
        <time>2020-11-14T11:11:01Z</time>
      </trkpt>
      <trkpt lat="38.8747420" lon="-0.3708290">
        <ele>332.6</ele>
        <time>2020-11-14T11:11:02Z</time>
      </trkpt>
      <trkpt lat="38.8746970" lon="-0.3709070">
        <ele>332.7</ele>
        <time>2020-11-14T11:11:03Z</time>
      </trkpt>
      <trkpt lat="38.8746510" lon="-0.3709960">
        <ele>332.8</ele>
        <time>2020-11-14T11:11:04Z</time>
      </trkpt>
      <trkpt lat="38.8746040" lon="-0.3710860">
        <ele>332.8</ele>
        <time>2020-11-14T11:11:05Z</time>
      </trkpt>
      <trkpt lat="38.8745590" lon="-0.3711780">
        <ele>332.9</ele>
        <time>2020-11-14T11:11:06Z</time>
      </trkpt>
      <trkpt lat="38.8745170" lon="-0.3712650">
        <ele>333.0</ele>
        <time>2020-11-14T11:11:07Z</time>
      </trkpt>
      <trkpt lat="38.8744760" lon="-0.3713500">
        <ele>333.1</ele>
        <time>2020-11-14T11:11:08Z</time>
      </trkpt>
      <trkpt lat="38.8744440" lon="-0.3714380">
        <ele>332.9</ele>
        <time>2020-11-14T11:11:09Z</time>
      </trkpt>
      <trkpt lat="38.8744150" lon="-0.3715230">
        <ele>332.8</ele>
        <time>2020-11-14T11:11:10Z</time>
      </trkpt>
      <trkpt lat="38.8743880" lon="-0.3716120">
        <ele>332.5</ele>
        <time>2020-11-14T11:11:11Z</time>
      </trkpt>
      <trkpt lat="38.8743600" lon="-0.3716990">
        <ele>332.2</ele>
        <time>2020-11-14T11:11:12Z</time>
      </trkpt>
      <trkpt lat="38.8743550" lon="-0.3717770">
        <ele>331.9</ele>
        <time>2020-11-14T11:11:13Z</time>
      </trkpt>
      <trkpt lat="38.8743400" lon="-0.3718660">
        <ele>331.5</ele>
        <time>2020-11-14T11:11:14Z</time>
      </trkpt>
      <trkpt lat="38.8743270" lon="-0.3719630">
        <ele>330.9</ele>
        <time>2020-11-14T11:11:15Z</time>
      </trkpt>
      <trkpt lat="38.8743210" lon="-0.3720750">
        <ele>330.4</ele>
        <time>2020-11-14T11:11:16Z</time>
      </trkpt>
      <trkpt lat="38.8743190" lon="-0.3721860">
        <ele>329.8</ele>
        <time>2020-11-14T11:11:17Z</time>
      </trkpt>
      <trkpt lat="38.8743160" lon="-0.3723050">
        <ele>329.2</ele>
        <time>2020-11-14T11:11:18Z</time>
      </trkpt>
      <trkpt lat="38.8743090" lon="-0.3724240">
        <ele>328.6</ele>
        <time>2020-11-14T11:11:19Z</time>
      </trkpt>
      <trkpt lat="38.8742930" lon="-0.3725420">
        <ele>328.0</ele>
        <time>2020-11-14T11:11:20Z</time>
      </trkpt>
      <trkpt lat="38.8742830" lon="-0.3726640">
        <ele>327.3</ele>
        <time>2020-11-14T11:11:21Z</time>
      </trkpt>
      <trkpt lat="38.8742890" lon="-0.3728060">
        <ele>326.6</ele>
        <time>2020-11-14T11:11:22Z</time>
      </trkpt>
      <trkpt lat="38.8742510" lon="-0.3729230">
        <ele>325.9</ele>
        <time>2020-11-14T11:11:23Z</time>
      </trkpt>
      <trkpt lat="38.8742330" lon="-0.3730560">
        <ele>325.2</ele>
        <time>2020-11-14T11:11:24Z</time>
      </trkpt>
      <trkpt lat="38.8742230" lon="-0.3731890">
        <ele>324.5</ele>
        <time>2020-11-14T11:11:25Z</time>
      </trkpt>
      <trkpt lat="38.8742140" lon="-0.3733440">
        <ele>323.6</ele>
        <time>2020-11-14T11:11:26Z</time>
      </trkpt>
      <trkpt lat="38.8742040" lon="-0.3734860">
        <ele>322.8</ele>
        <time>2020-11-14T11:11:27Z</time>
      </trkpt>
      <trkpt lat="38.8742000" lon="-0.3736350">
        <ele>322.0</ele>
        <time>2020-11-14T11:11:28Z</time>
      </trkpt>
      <trkpt lat="38.8741980" lon="-0.3737780">
        <ele>321.2</ele>
        <time>2020-11-14T11:11:29Z</time>
      </trkpt>
      <trkpt lat="38.8741880" lon="-0.3739150">
        <ele>320.4</ele>
        <time>2020-11-14T11:11:30Z</time>
      </trkpt>
      <trkpt lat="38.8741810" lon="-0.3740630">
        <ele>319.5</ele>
        <time>2020-11-14T11:11:31Z</time>
      </trkpt>
      <trkpt lat="38.8741820" lon="-0.3742040">
        <ele>318.7</ele>
        <time>2020-11-14T11:11:32Z</time>
      </trkpt>
      <trkpt lat="38.8741730" lon="-0.3743540">
        <ele>317.9</ele>
        <time>2020-11-14T11:11:33Z</time>
      </trkpt>
      <trkpt lat="38.8741730" lon="-0.3745080">
        <ele>317.1</ele>
        <time>2020-11-14T11:11:34Z</time>
      </trkpt>
      <trkpt lat="38.8741670" lon="-0.3746610">
        <ele>316.3</ele>
        <time>2020-11-14T11:11:35Z</time>
      </trkpt>
      <trkpt lat="38.8741610" lon="-0.3748100">
        <ele>315.5</ele>
        <time>2020-11-14T11:11:36Z</time>
      </trkpt>
      <trkpt lat="38.8741590" lon="-0.3749700">
        <ele>314.7</ele>
        <time>2020-11-14T11:11:37Z</time>
      </trkpt>
      <trkpt lat="38.8741480" lon="-0.3751260">
        <ele>313.9</ele>
        <time>2020-11-14T11:11:38Z</time>
      </trkpt>
      <trkpt lat="38.8741450" lon="-0.3752700">
        <ele>313.1</ele>
        <time>2020-11-14T11:11:39Z</time>
      </trkpt>
      <trkpt lat="38.8741360" lon="-0.3754200">
        <ele>312.3</ele>
        <time>2020-11-14T11:11:40Z</time>
      </trkpt>
      <trkpt lat="38.8741160" lon="-0.3755680">
        <ele>311.5</ele>
        <time>2020-11-14T11:11:41Z</time>
      </trkpt>
      <trkpt lat="38.8741080" lon="-0.3757220">
        <ele>310.9</ele>
        <time>2020-11-14T11:11:42Z</time>
      </trkpt>
      <trkpt lat="38.8740960" lon="-0.3758830">
        <ele>310.3</ele>
        <time>2020-11-14T11:11:43Z</time>
      </trkpt>
      <trkpt lat="38.8740780" lon="-0.3760360">
        <ele>309.9</ele>
        <time>2020-11-14T11:11:44Z</time>
      </trkpt>
      <trkpt lat="38.8740590" lon="-0.3761870">
        <ele>309.8</ele>
        <time>2020-11-14T11:11:45Z</time>
      </trkpt>
      <trkpt lat="38.8740510" lon="-0.3763500">
        <ele>309.8</ele>
        <time>2020-11-14T11:11:46Z</time>
      </trkpt>
      <trkpt lat="38.8740440" lon="-0.3764950">
        <ele>309.8</ele>
        <time>2020-11-14T11:11:47Z</time>
      </trkpt>
      <trkpt lat="38.8740350" lon="-0.3766460">
        <ele>309.8</ele>
        <time>2020-11-14T11:11:48Z</time>
      </trkpt>
      <trkpt lat="38.8740180" lon="-0.3767870">
        <ele>309.9</ele>
        <time>2020-11-14T11:11:49Z</time>
      </trkpt>
      <trkpt lat="38.8740050" lon="-0.3769120">
        <ele>310.1</ele>
        <time>2020-11-14T11:11:50Z</time>
      </trkpt>
      <trkpt lat="38.8739930" lon="-0.3770510">
        <ele>310.0</ele>
        <time>2020-11-14T11:11:51Z</time>
      </trkpt>
      <trkpt lat="38.8739820" lon="-0.3771740">
        <ele>310.0</ele>
        <time>2020-11-14T11:11:52Z</time>
      </trkpt>
      <trkpt lat="38.8739700" lon="-0.3772870">
        <ele>309.9</ele>
        <time>2020-11-14T11:11:53Z</time>
      </trkpt>
      <trkpt lat="38.8739650" lon="-0.3774030">
        <ele>309.9</ele>
        <time>2020-11-14T11:11:54Z</time>
      </trkpt>
      <trkpt lat="38.8739410" lon="-0.3775150">
        <ele>310.0</ele>
        <time>2020-11-14T11:11:55Z</time>
      </trkpt>
      <trkpt lat="38.8739230" lon="-0.3776230">
        <ele>310.0</ele>
        <time>2020-11-14T11:11:56Z</time>
      </trkpt>
      <trkpt lat="38.8739130" lon="-0.3777310">
        <ele>310.1</ele>
        <time>2020-11-14T11:11:57Z</time>
      </trkpt>
      <trkpt lat="38.8738780" lon="-0.3778310">
        <ele>310.1</ele>
        <time>2020-11-14T11:11:58Z</time>
      </trkpt>
      <trkpt lat="38.8738680" lon="-0.3779350">
        <ele>310.1</ele>
        <time>2020-11-14T11:11:59Z</time>
      </trkpt>
      <trkpt lat="38.8738630" lon="-0.3780420">
        <ele>310.1</ele>
        <time>2020-11-14T11:12:00Z</time>
      </trkpt>
      <trkpt lat="38.8738250" lon="-0.3781310">
        <ele>310.1</ele>
        <time>2020-11-14T11:12:01Z</time>
      </trkpt>
      <trkpt lat="38.8738210" lon="-0.3782310">
        <ele>310.1</ele>
        <time>2020-11-14T11:12:02Z</time>
      </trkpt>
      <trkpt lat="38.8738120" lon="-0.3783270">
        <ele>310.1</ele>
        <time>2020-11-14T11:12:03Z</time>
      </trkpt>
      <trkpt lat="38.8737980" lon="-0.3784350">
        <ele>310.1</ele>
        <time>2020-11-14T11:12:04Z</time>
      </trkpt>
      <trkpt lat="38.8737740" lon="-0.3785310">
        <ele>310.0</ele>
        <time>2020-11-14T11:12:05Z</time>
      </trkpt>
      <trkpt lat="38.8737580" lon="-0.3786320">
        <ele>310.0</ele>
        <time>2020-11-14T11:12:06Z</time>
      </trkpt>
      <trkpt lat="38.8737500" lon="-0.3787340">
        <ele>310.1</ele>
        <time>2020-11-14T11:12:07Z</time>
      </trkpt>
      <trkpt lat="38.8737520" lon="-0.3788320">
        <ele>310.1</ele>
        <time>2020-11-14T11:12:08Z</time>
      </trkpt>
      <trkpt lat="38.8737530" lon="-0.3789350">
        <ele>310.1</ele>
        <time>2020-11-14T11:12:09Z</time>
      </trkpt>
      <trkpt lat="38.8737420" lon="-0.3790460">
        <ele>310.1</ele>
        <time>2020-11-14T11:12:10Z</time>
      </trkpt>
      <trkpt lat="38.8737410" lon="-0.3791480">
        <ele>310.1</ele>
        <time>2020-11-14T11:12:11Z</time>
      </trkpt>
      <trkpt lat="38.8737370" lon="-0.3792580">
        <ele>310.1</ele>
        <time>2020-11-14T11:12:12Z</time>
      </trkpt>
      <trkpt lat="38.8737510" lon="-0.3793530">
        <ele>310.1</ele>
        <time>2020-11-14T11:12:13Z</time>
      </trkpt>
      <trkpt lat="38.8737360" lon="-0.3794620">
        <ele>310.1</ele>
        <time>2020-11-14T11:12:14Z</time>
      </trkpt>
      <trkpt lat="38.8737320" lon="-0.3795680">
        <ele>310.1</ele>
        <time>2020-11-14T11:12:15Z</time>
      </trkpt>
      <trkpt lat="38.8737450" lon="-0.3796730">
        <ele>310.1</ele>
        <time>2020-11-14T11:12:16Z</time>
      </trkpt>
      <trkpt lat="38.8737570" lon="-0.3797680">
        <ele>310.1</ele>
        <time>2020-11-14T11:12:17Z</time>
      </trkpt>
      <trkpt lat="38.8737510" lon="-0.3798660">
        <ele>310.1</ele>
        <time>2020-11-14T11:12:18Z</time>
      </trkpt>
      <trkpt lat="38.8737420" lon="-0.3799660">
        <ele>310.1</ele>
        <time>2020-11-14T11:12:19Z</time>
      </trkpt>
      <trkpt lat="38.8737370" lon="-0.3800660">
        <ele>310.1</ele>
        <time>2020-11-14T11:12:20Z</time>
      </trkpt>
      <trkpt lat="38.8737360" lon="-0.3801670">
        <ele>310.2</ele>
        <time>2020-11-14T11:12:21Z</time>
      </trkpt>
      <trkpt lat="38.8737470" lon="-0.3802670">
        <ele>310.2</ele>
        <time>2020-11-14T11:12:22Z</time>
      </trkpt>
      <trkpt lat="38.8737130" lon="-0.3803720">
        <ele>310.3</ele>
        <time>2020-11-14T11:12:23Z</time>
      </trkpt>
      <trkpt lat="38.8736930" lon="-0.3804620">
        <ele>310.3</ele>
        <time>2020-11-14T11:12:24Z</time>
      </trkpt>
      <trkpt lat="38.8736860" lon="-0.3805460">
        <ele>310.3</ele>
        <time>2020-11-14T11:12:25Z</time>
      </trkpt>
      <trkpt lat="38.8736840" lon="-0.3806260">
        <ele>310.4</ele>
        <time>2020-11-14T11:12:26Z</time>
      </trkpt>
      <trkpt lat="38.8736760" lon="-0.3807110">
        <ele>310.4</ele>
        <time>2020-11-14T11:12:27Z</time>
      </trkpt>
      <trkpt lat="38.8736700" lon="-0.3807980">
        <ele>310.5</ele>
        <time>2020-11-14T11:12:28Z</time>
      </trkpt>
      <trkpt lat="38.8736580" lon="-0.3808980">
        <ele>310.5</ele>
        <time>2020-11-14T11:12:29Z</time>
      </trkpt>
      <trkpt lat="38.8736470" lon="-0.3809960">
        <ele>310.6</ele>
        <time>2020-11-14T11:12:30Z</time>
      </trkpt>
      <trkpt lat="38.8736380" lon="-0.3810820">
        <ele>310.7</ele>
        <time>2020-11-14T11:12:31Z</time>
      </trkpt>
      <trkpt lat="38.8736270" lon="-0.3811670">
        <ele>310.8</ele>
        <time>2020-11-14T11:12:32Z</time>
      </trkpt>
      <trkpt lat="38.8736190" lon="-0.3812470">
        <ele>310.9</ele>
        <time>2020-11-14T11:12:33Z</time>
      </trkpt>
      <trkpt lat="38.8736140" lon="-0.3813330">
        <ele>311.1</ele>
        <time>2020-11-14T11:12:34Z</time>
      </trkpt>
      <trkpt lat="38.8736100" lon="-0.3814080">
        <ele>311.2</ele>
        <time>2020-11-14T11:12:35Z</time>
      </trkpt>
      <trkpt lat="38.8736280" lon="-0.3814740">
        <ele>311.4</ele>
        <time>2020-11-14T11:12:36Z</time>
      </trkpt>
      <trkpt lat="38.8736250" lon="-0.3815450">
        <ele>311.5</ele>
        <time>2020-11-14T11:12:37Z</time>
      </trkpt>
      <trkpt lat="38.8736210" lon="-0.3816160">
        <ele>311.5</ele>
        <time>2020-11-14T11:12:38Z</time>
      </trkpt>
      <trkpt lat="38.8736270" lon="-0.3816920">
        <ele>311.6</ele>
        <time>2020-11-14T11:12:39Z</time>
      </trkpt>
      <trkpt lat="38.8736230" lon="-0.3817690">
        <ele>311.7</ele>
        <time>2020-11-14T11:12:40Z</time>
      </trkpt>
      <trkpt lat="38.8736230" lon="-0.3818380">
        <ele>311.8</ele>
        <time>2020-11-14T11:12:41Z</time>
      </trkpt>
      <trkpt lat="38.8736000" lon="-0.3819190">
        <ele>312.0</ele>
        <time>2020-11-14T11:12:42Z</time>
      </trkpt>
      <trkpt lat="38.8735920" lon="-0.3819960">
        <ele>312.1</ele>
        <time>2020-11-14T11:12:43Z</time>
      </trkpt>
      <trkpt lat="38.8735860" lon="-0.3820640">
        <ele>312.2</ele>
        <time>2020-11-14T11:12:44Z</time>
      </trkpt>
      <trkpt lat="38.8735750" lon="-0.3821420">
        <ele>312.3</ele>
        <time>2020-11-14T11:12:45Z</time>
      </trkpt>
      <trkpt lat="38.8735650" lon="-0.3822110">
        <ele>312.4</ele>
        <time>2020-11-14T11:12:46Z</time>
      </trkpt>
      <trkpt lat="38.8735530" lon="-0.3822820">
        <ele>312.5</ele>
        <time>2020-11-14T11:12:47Z</time>
      </trkpt>
      <trkpt lat="38.8735490" lon="-0.3823590">
        <ele>312.6</ele>
        <time>2020-11-14T11:12:48Z</time>
      </trkpt>
      <trkpt lat="38.8735440" lon="-0.3824330">
        <ele>312.7</ele>
        <time>2020-11-14T11:12:49Z</time>
      </trkpt>
      <trkpt lat="38.8735510" lon="-0.3824930">
        <ele>312.8</ele>
        <time>2020-11-14T11:12:50Z</time>
      </trkpt>
      <trkpt lat="38.8735430" lon="-0.3825660">
        <ele>312.9</ele>
        <time>2020-11-14T11:12:51Z</time>
      </trkpt>
      <trkpt lat="38.8735320" lon="-0.3826190">
        <ele>313.0</ele>
        <time>2020-11-14T11:12:52Z</time>
      </trkpt>
      <trkpt lat="38.8735510" lon="-0.3827220">
        <ele>313.2</ele>
        <time>2020-11-14T11:12:53Z</time>
      </trkpt>
      <trkpt lat="38.8735440" lon="-0.3827930">
        <ele>313.3</ele>
        <time>2020-11-14T11:12:54Z</time>
      </trkpt>
      <trkpt lat="38.8735360" lon="-0.3828670">
        <ele>313.4</ele>
        <time>2020-11-14T11:12:55Z</time>
      </trkpt>
      <trkpt lat="38.8735190" lon="-0.3829400">
        <ele>313.5</ele>
        <time>2020-11-14T11:12:56Z</time>
      </trkpt>
      <trkpt lat="38.8735200" lon="-0.3830280">
        <ele>313.7</ele>
        <time>2020-11-14T11:12:57Z</time>
      </trkpt>
      <trkpt lat="38.8735180" lon="-0.3831000">
        <ele>313.8</ele>
        <time>2020-11-14T11:12:58Z</time>
      </trkpt>
      <trkpt lat="38.8735140" lon="-0.3831660">
        <ele>313.8</ele>
        <time>2020-11-14T11:12:59Z</time>
      </trkpt>
      <trkpt lat="38.8734950" lon="-0.3832290">
        <ele>313.9</ele>
        <time>2020-11-14T11:13:00Z</time>
      </trkpt>
      <trkpt lat="38.8734810" lon="-0.3833170">
        <ele>314.0</ele>
        <time>2020-11-14T11:13:01Z</time>
      </trkpt>
      <trkpt lat="38.8734780" lon="-0.3833880">
        <ele>314.1</ele>
        <time>2020-11-14T11:13:02Z</time>
      </trkpt>
      <trkpt lat="38.8734730" lon="-0.3834730">
        <ele>314.1</ele>
        <time>2020-11-14T11:13:03Z</time>
      </trkpt>
      <trkpt lat="38.8734630" lon="-0.3835510">
        <ele>314.2</ele>
        <time>2020-11-14T11:13:04Z</time>
      </trkpt>
      <trkpt lat="38.8734530" lon="-0.3836270">
        <ele>314.2</ele>
        <time>2020-11-14T11:13:05Z</time>
      </trkpt>
      <trkpt lat="38.8734390" lon="-0.3836870">
        <ele>314.2</ele>
        <time>2020-11-14T11:13:06Z</time>
      </trkpt>
      <trkpt lat="38.8734050" lon="-0.3837610">
        <ele>314.2</ele>
        <time>2020-11-14T11:13:07Z</time>
      </trkpt>
      <trkpt lat="38.8733610" lon="-0.3838240">
        <ele>314.0</ele>
        <time>2020-11-14T11:13:08Z</time>
      </trkpt>
      <trkpt lat="38.8733090" lon="-0.3838490">
        <ele>313.8</ele>
        <time>2020-11-14T11:13:09Z</time>
      </trkpt>
      <trkpt lat="38.8732610" lon="-0.3838720">
        <ele>313.4</ele>
        <time>2020-11-14T11:13:10Z</time>
      </trkpt>
      <trkpt lat="38.8732100" lon="-0.3839210">
        <ele>313.0</ele>
        <time>2020-11-14T11:13:11Z</time>
      </trkpt>
      <trkpt lat="38.8731750" lon="-0.3839640">
        <ele>312.7</ele>
        <time>2020-11-14T11:13:12Z</time>
      </trkpt>
      <trkpt lat="38.8731120" lon="-0.3840340">
        <ele>312.1</ele>
        <time>2020-11-14T11:13:13Z</time>
      </trkpt>
      <trkpt lat="38.8730630" lon="-0.3841080">
        <ele>311.5</ele>
        <time>2020-11-14T11:13:14Z</time>
      </trkpt>
      <trkpt lat="38.8730350" lon="-0.3842050">
        <ele>310.9</ele>
        <time>2020-11-14T11:13:15Z</time>
      </trkpt>
      <trkpt lat="38.8729840" lon="-0.3842830">
        <ele>310.4</ele>
        <time>2020-11-14T11:13:16Z</time>
      </trkpt>
      <trkpt lat="38.8729280" lon="-0.3843710">
        <ele>309.8</ele>
        <time>2020-11-14T11:13:17Z</time>
      </trkpt>
      <trkpt lat="38.8728690" lon="-0.3844540">
        <ele>309.2</ele>
        <time>2020-11-14T11:13:18Z</time>
      </trkpt>
      <trkpt lat="38.8728270" lon="-0.3845480">
        <ele>308.7</ele>
        <time>2020-11-14T11:13:19Z</time>
      </trkpt>
      <trkpt lat="38.8727650" lon="-0.3846450">
        <ele>308.1</ele>
        <time>2020-11-14T11:13:20Z</time>
      </trkpt>
      <trkpt lat="38.8727100" lon="-0.3847450">
        <ele>307.5</ele>
        <time>2020-11-14T11:13:21Z</time>
      </trkpt>
      <trkpt lat="38.8726600" lon="-0.3848440">
        <ele>306.9</ele>
        <time>2020-11-14T11:13:22Z</time>
      </trkpt>
      <trkpt lat="38.8726100" lon="-0.3849450">
        <ele>306.3</ele>
        <time>2020-11-14T11:13:23Z</time>
      </trkpt>
      <trkpt lat="38.8725590" lon="-0.3850460">
        <ele>305.8</ele>
        <time>2020-11-14T11:13:24Z</time>
      </trkpt>
      <trkpt lat="38.8725120" lon="-0.3851500">
        <ele>305.2</ele>
        <time>2020-11-14T11:13:25Z</time>
      </trkpt>
      <trkpt lat="38.8724640" lon="-0.3852560">
        <ele>304.6</ele>
        <time>2020-11-14T11:13:26Z</time>
      </trkpt>
      <trkpt lat="38.8724130" lon="-0.3853600">
        <ele>304.0</ele>
        <time>2020-11-14T11:13:27Z</time>
      </trkpt>
      <trkpt lat="38.8723620" lon="-0.3854670">
        <ele>303.4</ele>
        <time>2020-11-14T11:13:28Z</time>
      </trkpt>
      <trkpt lat="38.8723120" lon="-0.3855740">
        <ele>302.8</ele>
        <time>2020-11-14T11:13:29Z</time>
      </trkpt>
      <trkpt lat="38.8722660" lon="-0.3856800">
        <ele>302.3</ele>
        <time>2020-11-14T11:13:30Z</time>
      </trkpt>
      <trkpt lat="38.8722140" lon="-0.3857910">
        <ele>301.8</ele>
        <time>2020-11-14T11:13:31Z</time>
      </trkpt>
      <trkpt lat="38.8721680" lon="-0.3859080">
        <ele>301.6</ele>
        <time>2020-11-14T11:13:32Z</time>
      </trkpt>
      <trkpt lat="38.8721160" lon="-0.3860220">
        <ele>300.9</ele>
        <time>2020-11-14T11:13:33Z</time>
      </trkpt>
      <trkpt lat="38.8720580" lon="-0.3861330">
        <ele>300.1</ele>
        <time>2020-11-14T11:13:34Z</time>
      </trkpt>
      <trkpt lat="38.8720000" lon="-0.3862390">
        <ele>299.4</ele>
        <time>2020-11-14T11:13:35Z</time>
      </trkpt>
      <trkpt lat="38.8719390" lon="-0.3863390">
        <ele>298.8</ele>
        <time>2020-11-14T11:13:36Z</time>
      </trkpt>
      <trkpt lat="38.8718840" lon="-0.3864530">
        <ele>298.3</ele>
        <time>2020-11-14T11:13:37Z</time>
      </trkpt>
      <trkpt lat="38.8718270" lon="-0.3865580">
        <ele>297.9</ele>
        <time>2020-11-14T11:13:38Z</time>
      </trkpt>
      <trkpt lat="38.8717650" lon="-0.3866670">
        <ele>297.5</ele>
        <time>2020-11-14T11:13:39Z</time>
      </trkpt>
      <trkpt lat="38.8717040" lon="-0.3867700">
        <ele>297.0</ele>
        <time>2020-11-14T11:13:40Z</time>
      </trkpt>
      <trkpt lat="38.8716330" lon="-0.3868680">
        <ele>296.7</ele>
        <time>2020-11-14T11:13:41Z</time>
      </trkpt>
      <trkpt lat="38.8715670" lon="-0.3869610">
        <ele>296.3</ele>
        <time>2020-11-14T11:13:42Z</time>
      </trkpt>
      <trkpt lat="38.8714950" lon="-0.3870470">
        <ele>296.0</ele>
        <time>2020-11-14T11:13:43Z</time>
      </trkpt>
      <trkpt lat="38.8714160" lon="-0.3871320">
        <ele>295.7</ele>
        <time>2020-11-14T11:13:44Z</time>
      </trkpt>
      <trkpt lat="38.8713430" lon="-0.3872150">
        <ele>295.4</ele>
        <time>2020-11-14T11:13:45Z</time>
      </trkpt>
      <trkpt lat="38.8712600" lon="-0.3872830">
        <ele>295.1</ele>
        <time>2020-11-14T11:13:46Z</time>
      </trkpt>
      <trkpt lat="38.8711800" lon="-0.3873640">
        <ele>294.8</ele>
        <time>2020-11-14T11:13:47Z</time>
      </trkpt>
      <trkpt lat="38.8711040" lon="-0.3874400">
        <ele>294.5</ele>
        <time>2020-11-14T11:13:48Z</time>
      </trkpt>
      <trkpt lat="38.8710200" lon="-0.3875170">
        <ele>294.3</ele>
        <time>2020-11-14T11:13:49Z</time>
      </trkpt>
      <trkpt lat="38.8709420" lon="-0.3875900">
        <ele>294.1</ele>
        <time>2020-11-14T11:13:50Z</time>
      </trkpt>
      <trkpt lat="38.8708680" lon="-0.3876760">
        <ele>293.9</ele>
        <time>2020-11-14T11:13:51Z</time>
      </trkpt>
      <trkpt lat="38.8708050" lon="-0.3877620">
        <ele>293.8</ele>
        <time>2020-11-14T11:13:52Z</time>
      </trkpt>
      <trkpt lat="38.8707450" lon="-0.3878340">
        <ele>293.9</ele>
        <time>2020-11-14T11:13:53Z</time>
      </trkpt>
      <trkpt lat="38.8706710" lon="-0.3878960">
        <ele>293.9</ele>
        <time>2020-11-14T11:13:54Z</time>
      </trkpt>
      <trkpt lat="38.8705970" lon="-0.3879650">
        <ele>294.0</ele>
        <time>2020-11-14T11:13:55Z</time>
      </trkpt>
      <trkpt lat="38.8705440" lon="-0.3880550">
        <ele>294.0</ele>
        <time>2020-11-14T11:13:56Z</time>
      </trkpt>
      <trkpt lat="38.8704870" lon="-0.3881280">
        <ele>293.7</ele>
        <time>2020-11-14T11:13:57Z</time>
      </trkpt>
      <trkpt lat="38.8704220" lon="-0.3881850">
        <ele>293.3</ele>
        <time>2020-11-14T11:13:58Z</time>
      </trkpt>
      <trkpt lat="38.8703520" lon="-0.3882270">
        <ele>293.2</ele>
        <time>2020-11-14T11:13:59Z</time>
      </trkpt>
      <trkpt lat="38.8702840" lon="-0.3882670">
        <ele>293.0</ele>
        <time>2020-11-14T11:14:00Z</time>
      </trkpt>
      <trkpt lat="38.8702170" lon="-0.3883060">
        <ele>292.8</ele>
        <time>2020-11-14T11:14:01Z</time>
      </trkpt>
      <trkpt lat="38.8701620" lon="-0.3883510">
        <ele>292.7</ele>
        <time>2020-11-14T11:14:02Z</time>
      </trkpt>
      <trkpt lat="38.8701170" lon="-0.3884440">
        <ele>292.5</ele>
        <time>2020-11-14T11:14:03Z</time>
      </trkpt>
      <trkpt lat="38.8700630" lon="-0.3885070">
        <ele>292.3</ele>
        <time>2020-11-14T11:14:04Z</time>
      </trkpt>
      <trkpt lat="38.8700230" lon="-0.3886030">
        <ele>292.2</ele>
        <time>2020-11-14T11:14:05Z</time>
      </trkpt>
      <trkpt lat="38.8699800" lon="-0.3886910">
        <ele>292.0</ele>
        <time>2020-11-14T11:14:06Z</time>
      </trkpt>
      <trkpt lat="38.8699470" lon="-0.3887900">
        <ele>291.8</ele>
        <time>2020-11-14T11:14:07Z</time>
      </trkpt>
      <trkpt lat="38.8698980" lon="-0.3888810">
        <ele>291.6</ele>
        <time>2020-11-14T11:14:08Z</time>
      </trkpt>
      <trkpt lat="38.8698620" lon="-0.3889650">
        <ele>291.5</ele>
        <time>2020-11-14T11:14:09Z</time>
      </trkpt>
      <trkpt lat="38.8698630" lon="-0.3890780">
        <ele>291.4</ele>
        <time>2020-11-14T11:14:10Z</time>
      </trkpt>
      <trkpt lat="38.8698530" lon="-0.3891830">
        <ele>291.2</ele>
        <time>2020-11-14T11:14:11Z</time>
      </trkpt>
      <trkpt lat="38.8698220" lon="-0.3892730">
        <ele>291.1</ele>
        <time>2020-11-14T11:14:12Z</time>
      </trkpt>
      <trkpt lat="38.8697840" lon="-0.3893420">
        <ele>290.9</ele>
        <time>2020-11-14T11:14:13Z</time>
      </trkpt>
      <trkpt lat="38.8697130" lon="-0.3893690">
        <ele>290.6</ele>
        <time>2020-11-14T11:14:14Z</time>
      </trkpt>
      <trkpt lat="38.8696460" lon="-0.3893970">
        <ele>290.5</ele>
        <time>2020-11-14T11:14:15Z</time>
      </trkpt>
      <trkpt lat="38.8695800" lon="-0.3894350">
        <ele>290.3</ele>
        <time>2020-11-14T11:14:16Z</time>
      </trkpt>
      <trkpt lat="38.8695100" lon="-0.3894750">
        <ele>290.1</ele>
        <time>2020-11-14T11:14:17Z</time>
      </trkpt>
      <trkpt lat="38.8694420" lon="-0.3895260">
        <ele>290.0</ele>
        <time>2020-11-14T11:14:18Z</time>
      </trkpt>
      <trkpt lat="38.8693910" lon="-0.3895840">
        <ele>290.0</ele>
        <time>2020-11-14T11:14:19Z</time>
      </trkpt>
      <trkpt lat="38.8693410" lon="-0.3896490">
        <ele>290.1</ele>
        <time>2020-11-14T11:14:20Z</time>
      </trkpt>
      <trkpt lat="38.8692950" lon="-0.3897360">
        <ele>290.0</ele>
        <time>2020-11-14T11:14:21Z</time>
      </trkpt>
      <trkpt lat="38.8692530" lon="-0.3898240">
        <ele>289.9</ele>
        <time>2020-11-14T11:14:22Z</time>
      </trkpt>
      <trkpt lat="38.8692220" lon="-0.3899110">
        <ele>289.7</ele>
        <time>2020-11-14T11:14:23Z</time>
      </trkpt>
      <trkpt lat="38.8691860" lon="-0.3900070">
        <ele>289.5</ele>
        <time>2020-11-14T11:14:24Z</time>
      </trkpt>
      <trkpt lat="38.8691500" lon="-0.3900790">
        <ele>289.4</ele>
        <time>2020-11-14T11:14:25Z</time>
      </trkpt>
      <trkpt lat="38.8691290" lon="-0.3901790">
        <ele>289.2</ele>
        <time>2020-11-14T11:14:26Z</time>
      </trkpt>
      <trkpt lat="38.8691060" lon="-0.3902720">
        <ele>289.0</ele>
        <time>2020-11-14T11:14:27Z</time>
      </trkpt>
      <trkpt lat="38.8690820" lon="-0.3903670">
        <ele>288.9</ele>
        <time>2020-11-14T11:14:28Z</time>
      </trkpt>
      <trkpt lat="38.8690650" lon="-0.3904690">
        <ele>288.7</ele>
        <time>2020-11-14T11:14:29Z</time>
      </trkpt>
      <trkpt lat="38.8690410" lon="-0.3905690">
        <ele>288.5</ele>
        <time>2020-11-14T11:14:30Z</time>
      </trkpt>
      <trkpt lat="38.8690020" lon="-0.3906690">
        <ele>288.3</ele>
        <time>2020-11-14T11:14:31Z</time>
      </trkpt>
      <trkpt lat="38.8689880" lon="-0.3907600">
        <ele>288.1</ele>
        <time>2020-11-14T11:14:32Z</time>
      </trkpt>
      <trkpt lat="38.8689620" lon="-0.3908620">
        <ele>287.9</ele>
        <time>2020-11-14T11:14:33Z</time>
      </trkpt>
      <trkpt lat="38.8689370" lon="-0.3909570">
        <ele>287.7</ele>
        <time>2020-11-14T11:14:34Z</time>
      </trkpt>
      <trkpt lat="38.8689120" lon="-0.3910600">
        <ele>287.5</ele>
        <time>2020-11-14T11:14:35Z</time>
      </trkpt>
      <trkpt lat="38.8688830" lon="-0.3911630">
        <ele>287.3</ele>
        <time>2020-11-14T11:14:36Z</time>
      </trkpt>
      <trkpt lat="38.8688630" lon="-0.3912590">
        <ele>287.1</ele>
        <time>2020-11-14T11:14:37Z</time>
      </trkpt>
      <trkpt lat="38.8688430" lon="-0.3913550">
        <ele>287.0</ele>
        <time>2020-11-14T11:14:38Z</time>
      </trkpt>
      <trkpt lat="38.8688230" lon="-0.3914560">
        <ele>286.8</ele>
        <time>2020-11-14T11:14:39Z</time>
      </trkpt>
      <trkpt lat="38.8688040" lon="-0.3915390">
        <ele>286.6</ele>
        <time>2020-11-14T11:14:40Z</time>
      </trkpt>
      <trkpt lat="38.8687840" lon="-0.3916310">
        <ele>286.4</ele>
        <time>2020-11-14T11:14:41Z</time>
      </trkpt>
      <trkpt lat="38.8687600" lon="-0.3917180">
        <ele>286.2</ele>
        <time>2020-11-14T11:14:42Z</time>
      </trkpt>
      <trkpt lat="38.8687390" lon="-0.3918040">
        <ele>286.0</ele>
        <time>2020-11-14T11:14:43Z</time>
      </trkpt>
      <trkpt lat="38.8687210" lon="-0.3918870">
        <ele>285.9</ele>
        <time>2020-11-14T11:14:44Z</time>
      </trkpt>
      <trkpt lat="38.8687030" lon="-0.3919800">
        <ele>285.6</ele>
        <time>2020-11-14T11:14:45Z</time>
      </trkpt>
      <trkpt lat="38.8686830" lon="-0.3920740">
        <ele>285.4</ele>
        <time>2020-11-14T11:14:46Z</time>
      </trkpt>
      <trkpt lat="38.8686650" lon="-0.3921590">
        <ele>285.2</ele>
        <time>2020-11-14T11:14:47Z</time>
      </trkpt>
      <trkpt lat="38.8686410" lon="-0.3922470">
        <ele>285.0</ele>
        <time>2020-11-14T11:14:48Z</time>
      </trkpt>
      <trkpt lat="38.8686180" lon="-0.3923400">
        <ele>284.8</ele>
        <time>2020-11-14T11:14:49Z</time>
      </trkpt>
      <trkpt lat="38.8685880" lon="-0.3924320">
        <ele>284.6</ele>
        <time>2020-11-14T11:14:50Z</time>
      </trkpt>
      <trkpt lat="38.8685580" lon="-0.3925220">
        <ele>284.4</ele>
        <time>2020-11-14T11:14:51Z</time>
      </trkpt>
      <trkpt lat="38.8685250" lon="-0.3926130">
        <ele>284.2</ele>
        <time>2020-11-14T11:14:52Z</time>
      </trkpt>
      <trkpt lat="38.8685020" lon="-0.3926950">
        <ele>284.1</ele>
        <time>2020-11-14T11:14:53Z</time>
      </trkpt>
      <trkpt lat="38.8684840" lon="-0.3927950">
        <ele>283.9</ele>
        <time>2020-11-14T11:14:54Z</time>
      </trkpt>
      <trkpt lat="38.8684570" lon="-0.3928790">
        <ele>283.8</ele>
        <time>2020-11-14T11:14:55Z</time>
      </trkpt>
      <trkpt lat="38.8684430" lon="-0.3929750">
        <ele>283.7</ele>
        <time>2020-11-14T11:14:56Z</time>
      </trkpt>
      <trkpt lat="38.8684320" lon="-0.3930770">
        <ele>283.5</ele>
        <time>2020-11-14T11:14:57Z</time>
      </trkpt>
      <trkpt lat="38.8684270" lon="-0.3931820">
        <ele>283.4</ele>
        <time>2020-11-14T11:14:58Z</time>
      </trkpt>
      <trkpt lat="38.8684090" lon="-0.3932710">
        <ele>283.4</ele>
        <time>2020-11-14T11:14:59Z</time>
      </trkpt>
      <trkpt lat="38.8683810" lon="-0.3933520">
        <ele>283.1</ele>
        <time>2020-11-14T11:15:00Z</time>
      </trkpt>
      <trkpt lat="38.8683380" lon="-0.3934310">
        <ele>282.8</ele>
        <time>2020-11-14T11:15:01Z</time>
      </trkpt>
      <trkpt lat="38.8682850" lon="-0.3935170">
        <ele>282.8</ele>
        <time>2020-11-14T11:15:02Z</time>
      </trkpt>
      <trkpt lat="38.8682450" lon="-0.3936020">
        <ele>282.7</ele>
        <time>2020-11-14T11:15:03Z</time>
      </trkpt>
      <trkpt lat="38.8682060" lon="-0.3936920">
        <ele>282.6</ele>
        <time>2020-11-14T11:15:04Z</time>
      </trkpt>
      <trkpt lat="38.8681650" lon="-0.3937830">
        <ele>282.5</ele>
        <time>2020-11-14T11:15:05Z</time>
      </trkpt>
      <trkpt lat="38.8681380" lon="-0.3938800">
        <ele>282.5</ele>
        <time>2020-11-14T11:15:06Z</time>
      </trkpt>
      <trkpt lat="38.8681020" lon="-0.3939660">
        <ele>282.5</ele>
        <time>2020-11-14T11:15:07Z</time>
      </trkpt>
      <trkpt lat="38.8680750" lon="-0.3940540">
        <ele>282.6</ele>
        <time>2020-11-14T11:15:08Z</time>
      </trkpt>
      <trkpt lat="38.8680590" lon="-0.3941270">
        <ele>282.6</ele>
        <time>2020-11-14T11:15:09Z</time>
      </trkpt>
      <trkpt lat="38.8680060" lon="-0.3942140">
        <ele>282.8</ele>
        <time>2020-11-14T11:15:10Z</time>
      </trkpt>
      <trkpt lat="38.8679860" lon="-0.3942870">
        <ele>282.9</ele>
        <time>2020-11-14T11:15:11Z</time>
      </trkpt>
      <trkpt lat="38.8679620" lon="-0.3943580">
        <ele>283.0</ele>
        <time>2020-11-14T11:15:12Z</time>
      </trkpt>
      <trkpt lat="38.8679460" lon="-0.3944290">
        <ele>283.2</ele>
        <time>2020-11-14T11:15:13Z</time>
      </trkpt>
      <trkpt lat="38.8679240" lon="-0.3944960">
        <ele>283.4</ele>
        <time>2020-11-14T11:15:14Z</time>
      </trkpt>
      <trkpt lat="38.8679070" lon="-0.3945660">
        <ele>283.6</ele>
        <time>2020-11-14T11:15:15Z</time>
      </trkpt>
      <trkpt lat="38.8678860" lon="-0.3946270">
        <ele>283.7</ele>
        <time>2020-11-14T11:15:16Z</time>
      </trkpt>
      <trkpt lat="38.8678610" lon="-0.3946820">
        <ele>283.9</ele>
        <time>2020-11-14T11:15:17Z</time>
      </trkpt>
      <trkpt lat="38.8678440" lon="-0.3947420">
        <ele>284.0</ele>
        <time>2020-11-14T11:15:18Z</time>
      </trkpt>
      <trkpt lat="38.8678160" lon="-0.3948030">
        <ele>284.2</ele>
        <time>2020-11-14T11:15:19Z</time>
      </trkpt>
      <trkpt lat="38.8677820" lon="-0.3948620">
        <ele>284.3</ele>
        <time>2020-11-14T11:15:20Z</time>
      </trkpt>
      <trkpt lat="38.8677560" lon="-0.3949130">
        <ele>284.3</ele>
        <time>2020-11-14T11:15:21Z</time>
      </trkpt>
      <trkpt lat="38.8677100" lon="-0.3949520">
        <ele>284.4</ele>
        <time>2020-11-14T11:15:22Z</time>
      </trkpt>
      <trkpt lat="38.8676690" lon="-0.3949800">
        <ele>284.4</ele>
        <time>2020-11-14T11:15:23Z</time>
      </trkpt>
      <trkpt lat="38.8676180" lon="-0.3950060">
        <ele>284.4</ele>
        <time>2020-11-14T11:15:24Z</time>
      </trkpt>
      <trkpt lat="38.8675420" lon="-0.3950140">
        <ele>284.4</ele>
        <time>2020-11-14T11:15:25Z</time>
      </trkpt>
      <trkpt lat="38.8674850" lon="-0.3950030">
        <ele>284.3</ele>
        <time>2020-11-14T11:15:26Z</time>
      </trkpt>
      <trkpt lat="38.8674310" lon="-0.3949870">
        <ele>284.2</ele>
        <time>2020-11-14T11:15:27Z</time>
      </trkpt>
      <trkpt lat="38.8673800" lon="-0.3949560">
        <ele>284.1</ele>
        <time>2020-11-14T11:15:28Z</time>
      </trkpt>
      <trkpt lat="38.8673340" lon="-0.3949260">
        <ele>284.0</ele>
        <time>2020-11-14T11:15:29Z</time>
      </trkpt>
      <trkpt lat="38.8672790" lon="-0.3948820">
        <ele>283.9</ele>
        <time>2020-11-14T11:15:30Z</time>
      </trkpt>
      <trkpt lat="38.8672260" lon="-0.3948440">
        <ele>283.8</ele>
        <time>2020-11-14T11:15:31Z</time>
      </trkpt>
      <trkpt lat="38.8671760" lon="-0.3948160">
        <ele>283.7</ele>
        <time>2020-11-14T11:15:32Z</time>
      </trkpt>
      <trkpt lat="38.8671190" lon="-0.3947910">
        <ele>283.7</ele>
        <time>2020-11-14T11:15:33Z</time>
      </trkpt>
      <trkpt lat="38.8670620" lon="-0.3947790">
        <ele>283.6</ele>
        <time>2020-11-14T11:15:34Z</time>
      </trkpt>
      <trkpt lat="38.8670040" lon="-0.3947730">
        <ele>283.5</ele>
        <time>2020-11-14T11:15:35Z</time>
      </trkpt>
      <trkpt lat="38.8669450" lon="-0.3947670">
        <ele>283.4</ele>
        <time>2020-11-14T11:15:36Z</time>
      </trkpt>
      <trkpt lat="38.8668810" lon="-0.3947860">
        <ele>283.2</ele>
        <time>2020-11-14T11:15:37Z</time>
      </trkpt>
      <trkpt lat="38.8668190" lon="-0.3948240">
        <ele>283.1</ele>
        <time>2020-11-14T11:15:38Z</time>
      </trkpt>
      <trkpt lat="38.8667540" lon="-0.3948560">
        <ele>283.0</ele>
        <time>2020-11-14T11:15:39Z</time>
      </trkpt>
      <trkpt lat="38.8666930" lon="-0.3949090">
        <ele>282.8</ele>
        <time>2020-11-14T11:15:40Z</time>
      </trkpt>
      <trkpt lat="38.8666470" lon="-0.3949010">
        <ele>282.7</ele>
        <time>2020-11-14T11:15:41Z</time>
      </trkpt>
      <trkpt lat="38.8665990" lon="-0.3949670">
        <ele>282.6</ele>
        <time>2020-11-14T11:15:42Z</time>
      </trkpt>
      <trkpt lat="38.8665580" lon="-0.3950460">
        <ele>282.6</ele>
        <time>2020-11-14T11:15:43Z</time>
      </trkpt>
      <trkpt lat="38.8665110" lon="-0.3951150">
        <ele>282.5</ele>
        <time>2020-11-14T11:15:44Z</time>
      </trkpt>
      <trkpt lat="38.8664720" lon="-0.3951720">
        <ele>282.5</ele>
        <time>2020-11-14T11:15:45Z</time>
      </trkpt>
      <trkpt lat="38.8664330" lon="-0.3952530">
        <ele>282.5</ele>
        <time>2020-11-14T11:15:46Z</time>
      </trkpt>
      <trkpt lat="38.8663980" lon="-0.3953310">
        <ele>282.5</ele>
        <time>2020-11-14T11:15:47Z</time>
      </trkpt>
      <trkpt lat="38.8663710" lon="-0.3954050">
        <ele>282.5</ele>
        <time>2020-11-14T11:15:48Z</time>
      </trkpt>
      <trkpt lat="38.8663440" lon="-0.3954710">
        <ele>282.6</ele>
        <time>2020-11-14T11:15:49Z</time>
      </trkpt>
      <trkpt lat="38.8663260" lon="-0.3955620">
        <ele>282.6</ele>
        <time>2020-11-14T11:15:50Z</time>
      </trkpt>
      <trkpt lat="38.8662960" lon="-0.3956360">
        <ele>282.6</ele>
        <time>2020-11-14T11:15:51Z</time>
      </trkpt>
      <trkpt lat="38.8662700" lon="-0.3957110">
        <ele>282.7</ele>
        <time>2020-11-14T11:15:52Z</time>
      </trkpt>
      <trkpt lat="38.8662440" lon="-0.3957840">
        <ele>282.7</ele>
        <time>2020-11-14T11:15:53Z</time>
      </trkpt>
      <trkpt lat="38.8662150" lon="-0.3958490">
        <ele>282.8</ele>
        <time>2020-11-14T11:15:54Z</time>
      </trkpt>
      <trkpt lat="38.8661840" lon="-0.3959260">
        <ele>282.9</ele>
        <time>2020-11-14T11:15:55Z</time>
      </trkpt>
      <trkpt lat="38.8661440" lon="-0.3959780">
        <ele>283.0</ele>
        <time>2020-11-14T11:15:56Z</time>
      </trkpt>
      <trkpt lat="38.8660980" lon="-0.3960350">
        <ele>283.1</ele>
        <time>2020-11-14T11:15:57Z</time>
      </trkpt>
      <trkpt lat="38.8660630" lon="-0.3960920">
        <ele>283.3</ele>
        <time>2020-11-14T11:15:58Z</time>
      </trkpt>
      <trkpt lat="38.8660310" lon="-0.3961440">
        <ele>283.5</ele>
        <time>2020-11-14T11:15:59Z</time>
      </trkpt>
      <trkpt lat="38.8659970" lon="-0.3961850">
        <ele>283.7</ele>
        <time>2020-11-14T11:16:00Z</time>
      </trkpt>
      <trkpt lat="38.8659670" lon="-0.3962140">
        <ele>283.8</ele>
        <time>2020-11-14T11:16:01Z</time>
      </trkpt>
      <trkpt lat="38.8659340" lon="-0.3962260">
        <ele>284.0</ele>
        <time>2020-11-14T11:16:02Z</time>
      </trkpt>
      <trkpt lat="38.8659020" lon="-0.3962520">
        <ele>284.2</ele>
        <time>2020-11-14T11:16:03Z</time>
      </trkpt>
      <trkpt lat="38.8658690" lon="-0.3962670">
        <ele>284.4</ele>
        <time>2020-11-14T11:16:04Z</time>
      </trkpt>
      <trkpt lat="38.8658430" lon="-0.3962820">
        <ele>284.6</ele>
        <time>2020-11-14T11:16:05Z</time>
      </trkpt>
      <trkpt lat="38.8657990" lon="-0.3962970">
        <ele>284.9</ele>
        <time>2020-11-14T11:16:06Z</time>
      </trkpt>
      <trkpt lat="38.8657800" lon="-0.3962970">
        <ele>285.0</ele>
        <time>2020-11-14T11:16:07Z</time>
      </trkpt>
      <trkpt lat="38.8657340" lon="-0.3962920">
        <ele>285.4</ele>
        <time>2020-11-14T11:16:08Z</time>
      </trkpt>
      <trkpt lat="38.8656820" lon="-0.3962910">
        <ele>285.8</ele>
        <time>2020-11-14T11:16:09Z</time>
      </trkpt>
      <trkpt lat="38.8656510" lon="-0.3962960">
        <ele>286.0</ele>
        <time>2020-11-14T11:16:10Z</time>
      </trkpt>
      <trkpt lat="38.8656230" lon="-0.3962890">
        <ele>286.2</ele>
        <time>2020-11-14T11:16:11Z</time>
      </trkpt>
      <trkpt lat="38.8655860" lon="-0.3962750">
        <ele>286.5</ele>
        <time>2020-11-14T11:16:12Z</time>
      </trkpt>
      <trkpt lat="38.8655750" lon="-0.3962720">
        <ele>286.6</ele>
        <time>2020-11-14T11:16:13Z</time>
      </trkpt>
      <trkpt lat="38.8655430" lon="-0.3962570">
        <ele>286.9</ele>
        <time>2020-11-14T11:16:14Z</time>
      </trkpt>
      <trkpt lat="38.8655320" lon="-0.3962510">
        <ele>287.0</ele>
        <time>2020-11-14T11:16:15Z</time>
      </trkpt>
      <trkpt lat="38.8655000" lon="-0.3962290">
        <ele>287.3</ele>
        <time>2020-11-14T11:16:16Z</time>
      </trkpt>
      <trkpt lat="38.8654890" lon="-0.3962210">
        <ele>287.4</ele>
        <time>2020-11-14T11:16:17Z</time>
      </trkpt>
      <trkpt lat="38.8654630" lon="-0.3961990">
        <ele>287.6</ele>
        <time>2020-11-14T11:16:18Z</time>
      </trkpt>
      <trkpt lat="38.8654540" lon="-0.3961920">
        <ele>287.6</ele>
        <time>2020-11-14T11:16:19Z</time>
      </trkpt>
      <trkpt lat="38.8654230" lon="-0.3961620">
        <ele>287.9</ele>
        <time>2020-11-14T11:16:20Z</time>
      </trkpt>
      <trkpt lat="38.8654110" lon="-0.3961510">
        <ele>288.0</ele>
        <time>2020-11-14T11:16:21Z</time>
      </trkpt>
      <trkpt lat="38.8653800" lon="-0.3961230">
        <ele>288.3</ele>
        <time>2020-11-14T11:16:22Z</time>
      </trkpt>
      <trkpt lat="38.8653700" lon="-0.3961150">
        <ele>288.3</ele>
        <time>2020-11-14T11:16:23Z</time>
      </trkpt>
      <trkpt lat="38.8653350" lon="-0.3960880">
        <ele>288.6</ele>
        <time>2020-11-14T11:16:24Z</time>
      </trkpt>
      <trkpt lat="38.8653210" lon="-0.3960790">
        <ele>288.7</ele>
        <time>2020-11-14T11:16:25Z</time>
      </trkpt>
      <trkpt lat="38.8652950" lon="-0.3960630">
        <ele>288.8</ele>
        <time>2020-11-14T11:16:26Z</time>
      </trkpt>
      <trkpt lat="38.8652690" lon="-0.3960480">
        <ele>289.0</ele>
        <time>2020-11-14T11:16:27Z</time>
      </trkpt>
      <trkpt lat="38.8652350" lon="-0.3960260">
        <ele>289.2</ele>
        <time>2020-11-14T11:16:28Z</time>
      </trkpt>
      <trkpt lat="38.8652230" lon="-0.3960180">
        <ele>289.3</ele>
        <time>2020-11-14T11:16:29Z</time>
      </trkpt>
      <trkpt lat="38.8651970" lon="-0.3960030">
        <ele>289.5</ele>
        <time>2020-11-14T11:16:30Z</time>
      </trkpt>
      <trkpt lat="38.8651690" lon="-0.3959880">
        <ele>289.6</ele>
        <time>2020-11-14T11:16:31Z</time>
      </trkpt>
      <trkpt lat="38.8651430" lon="-0.3959740">
        <ele>289.8</ele>
        <time>2020-11-14T11:16:32Z</time>
      </trkpt>
      <trkpt lat="38.8651160" lon="-0.3959590">
        <ele>290.0</ele>
        <time>2020-11-14T11:16:33Z</time>
      </trkpt>
      <trkpt lat="38.8650890" lon="-0.3959460">
        <ele>290.1</ele>
        <time>2020-11-14T11:16:34Z</time>
      </trkpt>
      <trkpt lat="38.8650600" lon="-0.3959340">
        <ele>290.3</ele>
        <time>2020-11-14T11:16:35Z</time>
      </trkpt>
      <trkpt lat="38.8650290" lon="-0.3959250">
        <ele>290.5</ele>
        <time>2020-11-14T11:16:36Z</time>
      </trkpt>
      <trkpt lat="38.8649990" lon="-0.3959180">
        <ele>290.6</ele>
        <time>2020-11-14T11:16:37Z</time>
      </trkpt>
      <trkpt lat="38.8649700" lon="-0.3959110">
        <ele>290.8</ele>
        <time>2020-11-14T11:16:38Z</time>
      </trkpt>
      <trkpt lat="38.8649420" lon="-0.3959050">
        <ele>291.0</ele>
        <time>2020-11-14T11:16:39Z</time>
      </trkpt>
      <trkpt lat="38.8649160" lon="-0.3958970">
        <ele>291.1</ele>
        <time>2020-11-14T11:16:40Z</time>
      </trkpt>
      <trkpt lat="38.8648890" lon="-0.3958880">
        <ele>291.3</ele>
        <time>2020-11-14T11:16:41Z</time>
      </trkpt>
      <trkpt lat="38.8648590" lon="-0.3958770">
        <ele>291.5</ele>
        <time>2020-11-14T11:16:42Z</time>
      </trkpt>
      <trkpt lat="38.8648280" lon="-0.3958690">
        <ele>291.7</ele>
        <time>2020-11-14T11:16:43Z</time>
      </trkpt>
      <trkpt lat="38.8647980" lon="-0.3958670">
        <ele>291.9</ele>
        <time>2020-11-14T11:16:44Z</time>
      </trkpt>
      <trkpt lat="38.8647680" lon="-0.3958670">
        <ele>292.0</ele>
        <time>2020-11-14T11:16:45Z</time>
      </trkpt>
      <trkpt lat="38.8647400" lon="-0.3958670">
        <ele>292.2</ele>
        <time>2020-11-14T11:16:46Z</time>
      </trkpt>
      <trkpt lat="38.8647110" lon="-0.3958690">
        <ele>292.4</ele>
        <time>2020-11-14T11:16:47Z</time>
      </trkpt>
      <trkpt lat="38.8646810" lon="-0.3958720">
        <ele>292.6</ele>
        <time>2020-11-14T11:16:48Z</time>
      </trkpt>
      <trkpt lat="38.8646500" lon="-0.3958770">
        <ele>292.8</ele>
        <time>2020-11-14T11:16:49Z</time>
      </trkpt>
      <trkpt lat="38.8646210" lon="-0.3958820">
        <ele>292.9</ele>
        <time>2020-11-14T11:16:50Z</time>
      </trkpt>
      <trkpt lat="38.8645930" lon="-0.3958850">
        <ele>293.1</ele>
        <time>2020-11-14T11:16:51Z</time>
      </trkpt>
      <trkpt lat="38.8645650" lon="-0.3958890">
        <ele>293.3</ele>
        <time>2020-11-14T11:16:52Z</time>
      </trkpt>
      <trkpt lat="38.8645360" lon="-0.3958940">
        <ele>293.4</ele>
        <time>2020-11-14T11:16:53Z</time>
      </trkpt>
      <trkpt lat="38.8645070" lon="-0.3959000">
        <ele>293.6</ele>
        <time>2020-11-14T11:16:54Z</time>
      </trkpt>
      <trkpt lat="38.8644790" lon="-0.3959060">
        <ele>293.8</ele>
        <time>2020-11-14T11:16:55Z</time>
      </trkpt>
      <trkpt lat="38.8644500" lon="-0.3959150">
        <ele>294.0</ele>
        <time>2020-11-14T11:16:56Z</time>
      </trkpt>
      <trkpt lat="38.8644210" lon="-0.3959250">
        <ele>294.2</ele>
        <time>2020-11-14T11:16:57Z</time>
      </trkpt>
      <trkpt lat="38.8643920" lon="-0.3959360">
        <ele>294.4</ele>
        <time>2020-11-14T11:16:58Z</time>
      </trkpt>
      <trkpt lat="38.8643630" lon="-0.3959470">
        <ele>294.6</ele>
        <time>2020-11-14T11:16:59Z</time>
      </trkpt>
      <trkpt lat="38.8643350" lon="-0.3959620">
        <ele>294.9</ele>
        <time>2020-11-14T11:17:00Z</time>
      </trkpt>
      <trkpt lat="38.8643060" lon="-0.3959770">
        <ele>295.1</ele>
        <time>2020-11-14T11:17:01Z</time>
      </trkpt>
      <trkpt lat="38.8642790" lon="-0.3959910">
        <ele>295.3</ele>
        <time>2020-11-14T11:17:02Z</time>
      </trkpt>
      <trkpt lat="38.8642510" lon="-0.3960040">
        <ele>295.5</ele>
        <time>2020-11-14T11:17:03Z</time>
      </trkpt>
      <trkpt lat="38.8642240" lon="-0.3960180">
        <ele>295.7</ele>
        <time>2020-11-14T11:17:04Z</time>
      </trkpt>
      <trkpt lat="38.8641990" lon="-0.3960350">
        <ele>295.8</ele>
        <time>2020-11-14T11:17:05Z</time>
      </trkpt>
      <trkpt lat="38.8641740" lon="-0.3960550">
        <ele>296.0</ele>
        <time>2020-11-14T11:17:06Z</time>
      </trkpt>
      <trkpt lat="38.8641500" lon="-0.3960750">
        <ele>296.2</ele>
        <time>2020-11-14T11:17:07Z</time>
      </trkpt>
      <trkpt lat="38.8641250" lon="-0.3960960">
        <ele>296.4</ele>
        <time>2020-11-14T11:17:08Z</time>
      </trkpt>
      <trkpt lat="38.8641010" lon="-0.3961200">
        <ele>296.6</ele>
        <time>2020-11-14T11:17:09Z</time>
      </trkpt>
      <trkpt lat="38.8640760" lon="-0.3961450">
        <ele>296.8</ele>
        <time>2020-11-14T11:17:10Z</time>
      </trkpt>
      <trkpt lat="38.8640530" lon="-0.3961720">
        <ele>297.0</ele>
        <time>2020-11-14T11:17:11Z</time>
      </trkpt>
      <trkpt lat="38.8640310" lon="-0.3962000">
        <ele>297.2</ele>
        <time>2020-11-14T11:17:12Z</time>
      </trkpt>
      <trkpt lat="38.8640100" lon="-0.3962300">
        <ele>297.5</ele>
        <time>2020-11-14T11:17:13Z</time>
      </trkpt>
      <trkpt lat="38.8639900" lon="-0.3962580">
        <ele>297.7</ele>
        <time>2020-11-14T11:17:14Z</time>
      </trkpt>
      <trkpt lat="38.8639710" lon="-0.3962880">
        <ele>297.9</ele>
        <time>2020-11-14T11:17:15Z</time>
      </trkpt>
      <trkpt lat="38.8639520" lon="-0.3963180">
        <ele>298.1</ele>
        <time>2020-11-14T11:17:16Z</time>
      </trkpt>
      <trkpt lat="38.8639340" lon="-0.3963490">
        <ele>298.3</ele>
        <time>2020-11-14T11:17:17Z</time>
      </trkpt>
      <trkpt lat="38.8639170" lon="-0.3963820">
        <ele>298.5</ele>
        <time>2020-11-14T11:17:18Z</time>
      </trkpt>
      <trkpt lat="38.8639000" lon="-0.3964140">
        <ele>298.8</ele>
        <time>2020-11-14T11:17:19Z</time>
      </trkpt>
      <trkpt lat="38.8638820" lon="-0.3964430">
        <ele>299.0</ele>
        <time>2020-11-14T11:17:20Z</time>
      </trkpt>
      <trkpt lat="38.8638630" lon="-0.3964700">
        <ele>299.1</ele>
        <time>2020-11-14T11:17:21Z</time>
      </trkpt>
      <trkpt lat="38.8638440" lon="-0.3964970">
        <ele>299.2</ele>
        <time>2020-11-14T11:17:22Z</time>
      </trkpt>
      <trkpt lat="38.8638270" lon="-0.3965260">
        <ele>299.2</ele>
        <time>2020-11-14T11:17:23Z</time>
      </trkpt>
      <trkpt lat="38.8638100" lon="-0.3965550">
        <ele>299.3</ele>
        <time>2020-11-14T11:17:24Z</time>
      </trkpt>
      <trkpt lat="38.8637930" lon="-0.3965820">
        <ele>299.3</ele>
        <time>2020-11-14T11:17:25Z</time>
      </trkpt>
      <trkpt lat="38.8637740" lon="-0.3966090">
        <ele>299.4</ele>
        <time>2020-11-14T11:17:26Z</time>
      </trkpt>
      <trkpt lat="38.8637540" lon="-0.3966340">
        <ele>299.6</ele>
        <time>2020-11-14T11:17:27Z</time>
      </trkpt>
      <trkpt lat="38.8637330" lon="-0.3966570">
        <ele>299.8</ele>
        <time>2020-11-14T11:17:28Z</time>
      </trkpt>
      <trkpt lat="38.8637030" lon="-0.3966890">
        <ele>300.0</ele>
        <time>2020-11-14T11:17:29Z</time>
      </trkpt>
      <trkpt lat="38.8636930" lon="-0.3967000">
        <ele>300.1</ele>
        <time>2020-11-14T11:17:30Z</time>
      </trkpt>
      <trkpt lat="38.8636720" lon="-0.3967260">
        <ele>300.3</ele>
        <time>2020-11-14T11:17:31Z</time>
      </trkpt>
      <trkpt lat="38.8636500" lon="-0.3967520">
        <ele>300.4</ele>
        <time>2020-11-14T11:17:32Z</time>
      </trkpt>
      <trkpt lat="38.8636300" lon="-0.3967780">
        <ele>300.6</ele>
        <time>2020-11-14T11:17:33Z</time>
      </trkpt>
      <trkpt lat="38.8636090" lon="-0.3968040">
        <ele>300.7</ele>
        <time>2020-11-14T11:17:34Z</time>
      </trkpt>
      <trkpt lat="38.8635880" lon="-0.3968300">
        <ele>300.9</ele>
        <time>2020-11-14T11:17:35Z</time>
      </trkpt>
      <trkpt lat="38.8635670" lon="-0.3968560">
        <ele>301.1</ele>
        <time>2020-11-14T11:17:36Z</time>
      </trkpt>
      <trkpt lat="38.8635450" lon="-0.3968830">
        <ele>301.2</ele>
        <time>2020-11-14T11:17:37Z</time>
      </trkpt>
      <trkpt lat="38.8635250" lon="-0.3969130">
        <ele>301.4</ele>
        <time>2020-11-14T11:17:38Z</time>
      </trkpt>
      <trkpt lat="38.8635060" lon="-0.3969430">
        <ele>301.6</ele>
        <time>2020-11-14T11:17:39Z</time>
      </trkpt>
      <trkpt lat="38.8634880" lon="-0.3969740">
        <ele>301.7</ele>
        <time>2020-11-14T11:17:40Z</time>
      </trkpt>
      <trkpt lat="38.8634710" lon="-0.3970060">
        <ele>301.9</ele>
        <time>2020-11-14T11:17:41Z</time>
      </trkpt>
      <trkpt lat="38.8634540" lon="-0.3970380">
        <ele>302.1</ele>
        <time>2020-11-14T11:17:42Z</time>
      </trkpt>
      <trkpt lat="38.8634380" lon="-0.3970720">
        <ele>302.2</ele>
        <time>2020-11-14T11:17:43Z</time>
      </trkpt>
      <trkpt lat="38.8634250" lon="-0.3971050">
        <ele>302.4</ele>
        <time>2020-11-14T11:17:44Z</time>
      </trkpt>
      <trkpt lat="38.8634130" lon="-0.3971400">
        <ele>302.6</ele>
        <time>2020-11-14T11:17:45Z</time>
      </trkpt>
      <trkpt lat="38.8634020" lon="-0.3971740">
        <ele>302.7</ele>
        <time>2020-11-14T11:17:46Z</time>
      </trkpt>
      <trkpt lat="38.8633920" lon="-0.3972100">
        <ele>302.9</ele>
        <time>2020-11-14T11:17:47Z</time>
      </trkpt>
      <trkpt lat="38.8633840" lon="-0.3972460">
        <ele>303.1</ele>
        <time>2020-11-14T11:17:48Z</time>
      </trkpt>
      <trkpt lat="38.8633770" lon="-0.3972830">
        <ele>303.2</ele>
        <time>2020-11-14T11:17:49Z</time>
      </trkpt>
      <trkpt lat="38.8633710" lon="-0.3973190">
        <ele>303.4</ele>
        <time>2020-11-14T11:17:50Z</time>
      </trkpt>
      <trkpt lat="38.8633660" lon="-0.3973560">
        <ele>303.6</ele>
        <time>2020-11-14T11:17:51Z</time>
      </trkpt>
      <trkpt lat="38.8633620" lon="-0.3973920">
        <ele>303.7</ele>
        <time>2020-11-14T11:17:52Z</time>
      </trkpt>
      <trkpt lat="38.8633580" lon="-0.3974290">
        <ele>303.9</ele>
        <time>2020-11-14T11:17:53Z</time>
      </trkpt>
      <trkpt lat="38.8633530" lon="-0.3974670">
        <ele>304.1</ele>
        <time>2020-11-14T11:17:54Z</time>
      </trkpt>
      <trkpt lat="38.8633480" lon="-0.3975050">
        <ele>304.2</ele>
        <time>2020-11-14T11:17:55Z</time>
      </trkpt>
      <trkpt lat="38.8633440" lon="-0.3975430">
        <ele>304.4</ele>
        <time>2020-11-14T11:17:56Z</time>
      </trkpt>
      <trkpt lat="38.8633390" lon="-0.3975810">
        <ele>304.6</ele>
        <time>2020-11-14T11:17:57Z</time>
      </trkpt>
      <trkpt lat="38.8633330" lon="-0.3976190">
        <ele>304.7</ele>
        <time>2020-11-14T11:17:58Z</time>
      </trkpt>
      <trkpt lat="38.8633260" lon="-0.3976570">
        <ele>304.9</ele>
        <time>2020-11-14T11:17:59Z</time>
      </trkpt>
      <trkpt lat="38.8633200" lon="-0.3976930">
        <ele>305.0</ele>
        <time>2020-11-14T11:18:00Z</time>
      </trkpt>
      <trkpt lat="38.8633130" lon="-0.3977300">
        <ele>305.2</ele>
        <time>2020-11-14T11:18:01Z</time>
      </trkpt>
      <trkpt lat="38.8633070" lon="-0.3977660">
        <ele>305.3</ele>
        <time>2020-11-14T11:18:02Z</time>
      </trkpt>
      <trkpt lat="38.8633000" lon="-0.3978030">
        <ele>305.5</ele>
        <time>2020-11-14T11:18:03Z</time>
      </trkpt>
      <trkpt lat="38.8632930" lon="-0.3978370">
        <ele>305.6</ele>
        <time>2020-11-14T11:18:04Z</time>
      </trkpt>
      <trkpt lat="38.8632850" lon="-0.3978720">
        <ele>305.8</ele>
        <time>2020-11-14T11:18:05Z</time>
      </trkpt>
      <trkpt lat="38.8632780" lon="-0.3979070">
        <ele>305.9</ele>
        <time>2020-11-14T11:18:06Z</time>
      </trkpt>
      <trkpt lat="38.8632710" lon="-0.3979420">
        <ele>306.1</ele>
        <time>2020-11-14T11:18:07Z</time>
      </trkpt>
      <trkpt lat="38.8632630" lon="-0.3979930">
        <ele>306.3</ele>
        <time>2020-11-14T11:18:08Z</time>
      </trkpt>
      <trkpt lat="38.8632610" lon="-0.3980100">
        <ele>306.4</ele>
        <time>2020-11-14T11:18:09Z</time>
      </trkpt>
      <trkpt lat="38.8632570" lon="-0.3980470">
        <ele>306.5</ele>
        <time>2020-11-14T11:18:10Z</time>
      </trkpt>
      <trkpt lat="38.8632530" lon="-0.3980830">
        <ele>306.7</ele>
        <time>2020-11-14T11:18:11Z</time>
      </trkpt>
      <trkpt lat="38.8632480" lon="-0.3981190">
        <ele>306.8</ele>
        <time>2020-11-14T11:18:12Z</time>
      </trkpt>
      <trkpt lat="38.8632440" lon="-0.3981550">
        <ele>307.0</ele>
        <time>2020-11-14T11:18:13Z</time>
      </trkpt>
      <trkpt lat="38.8632400" lon="-0.3981910">
        <ele>307.1</ele>
        <time>2020-11-14T11:18:14Z</time>
      </trkpt>
      <trkpt lat="38.8632360" lon="-0.3982260">
        <ele>307.3</ele>
        <time>2020-11-14T11:18:15Z</time>
      </trkpt>
      <trkpt lat="38.8632300" lon="-0.3982630">
        <ele>307.4</ele>
        <time>2020-11-14T11:18:16Z</time>
      </trkpt>
      <trkpt lat="38.8632240" lon="-0.3982990">
        <ele>307.5</ele>
        <time>2020-11-14T11:18:17Z</time>
      </trkpt>
      <trkpt lat="38.8632160" lon="-0.3983340">
        <ele>307.7</ele>
        <time>2020-11-14T11:18:18Z</time>
      </trkpt>
      <trkpt lat="38.8632080" lon="-0.3983690">
        <ele>307.8</ele>
        <time>2020-11-14T11:18:19Z</time>
      </trkpt>
      <trkpt lat="38.8632000" lon="-0.3984060">
        <ele>307.9</ele>
        <time>2020-11-14T11:18:20Z</time>
      </trkpt>
      <trkpt lat="38.8631940" lon="-0.3984430">
        <ele>308.0</ele>
        <time>2020-11-14T11:18:21Z</time>
      </trkpt>
      <trkpt lat="38.8631890" lon="-0.3984800">
        <ele>308.2</ele>
        <time>2020-11-14T11:18:22Z</time>
      </trkpt>
      <trkpt lat="38.8631840" lon="-0.3985190">
        <ele>308.3</ele>
        <time>2020-11-14T11:18:23Z</time>
      </trkpt>
      <trkpt lat="38.8631800" lon="-0.3985570">
        <ele>308.4</ele>
        <time>2020-11-14T11:18:24Z</time>
      </trkpt>
      <trkpt lat="38.8631760" lon="-0.3985970">
        <ele>308.5</ele>
        <time>2020-11-14T11:18:25Z</time>
      </trkpt>
      <trkpt lat="38.8631720" lon="-0.3986360">
        <ele>308.6</ele>
        <time>2020-11-14T11:18:26Z</time>
      </trkpt>
      <trkpt lat="38.8631690" lon="-0.3986770">
        <ele>308.7</ele>
        <time>2020-11-14T11:18:27Z</time>
      </trkpt>
      <trkpt lat="38.8631660" lon="-0.3987180">
        <ele>308.8</ele>
        <time>2020-11-14T11:18:28Z</time>
      </trkpt>
      <trkpt lat="38.8631640" lon="-0.3987610">
        <ele>308.9</ele>
        <time>2020-11-14T11:18:29Z</time>
      </trkpt>
      <trkpt lat="38.8631620" lon="-0.3988030">
        <ele>309.0</ele>
        <time>2020-11-14T11:18:30Z</time>
      </trkpt>
      <trkpt lat="38.8631610" lon="-0.3988470">
        <ele>309.1</ele>
        <time>2020-11-14T11:18:31Z</time>
      </trkpt>
      <trkpt lat="38.8631610" lon="-0.3988920">
        <ele>309.2</ele>
        <time>2020-11-14T11:18:32Z</time>
      </trkpt>
      <trkpt lat="38.8631630" lon="-0.3989390">
        <ele>309.3</ele>
        <time>2020-11-14T11:18:33Z</time>
      </trkpt>
      <trkpt lat="38.8631670" lon="-0.3989880">
        <ele>309.4</ele>
        <time>2020-11-14T11:18:34Z</time>
      </trkpt>
      <trkpt lat="38.8631720" lon="-0.3990360">
        <ele>309.5</ele>
        <time>2020-11-14T11:18:35Z</time>
      </trkpt>
      <trkpt lat="38.8631760" lon="-0.3990850">
        <ele>309.6</ele>
        <time>2020-11-14T11:18:36Z</time>
      </trkpt>
      <trkpt lat="38.8631830" lon="-0.3991340">
        <ele>309.7</ele>
        <time>2020-11-14T11:18:37Z</time>
      </trkpt>
      <trkpt lat="38.8631910" lon="-0.3991830">
        <ele>309.9</ele>
        <time>2020-11-14T11:18:38Z</time>
      </trkpt>
      <trkpt lat="38.8631990" lon="-0.3992310">
        <ele>310.0</ele>
        <time>2020-11-14T11:18:39Z</time>
      </trkpt>
      <trkpt lat="38.8632080" lon="-0.3992790">
        <ele>310.1</ele>
        <time>2020-11-14T11:18:40Z</time>
      </trkpt>
      <trkpt lat="38.8632130" lon="-0.3993230">
        <ele>310.2</ele>
        <time>2020-11-14T11:18:41Z</time>
      </trkpt>
      <trkpt lat="38.8632210" lon="-0.3993650">
        <ele>310.3</ele>
        <time>2020-11-14T11:18:42Z</time>
      </trkpt>
      <trkpt lat="38.8632300" lon="-0.3994090">
        <ele>310.4</ele>
        <time>2020-11-14T11:18:43Z</time>
      </trkpt>
      <trkpt lat="38.8632410" lon="-0.3994530">
        <ele>310.5</ele>
        <time>2020-11-14T11:18:44Z</time>
      </trkpt>
      <trkpt lat="38.8632540" lon="-0.3994980">
        <ele>310.7</ele>
        <time>2020-11-14T11:18:45Z</time>
      </trkpt>
      <trkpt lat="38.8632670" lon="-0.3995420">
        <ele>310.8</ele>
        <time>2020-11-14T11:18:46Z</time>
      </trkpt>
      <trkpt lat="38.8632770" lon="-0.3995870">
        <ele>310.9</ele>
        <time>2020-11-14T11:18:47Z</time>
      </trkpt>
      <trkpt lat="38.8632860" lon="-0.3996330">
        <ele>311.1</ele>
        <time>2020-11-14T11:18:48Z</time>
      </trkpt>
      <trkpt lat="38.8632920" lon="-0.3996790">
        <ele>311.2</ele>
        <time>2020-11-14T11:18:49Z</time>
      </trkpt>
      <trkpt lat="38.8632960" lon="-0.3997260">
        <ele>311.4</ele>
        <time>2020-11-14T11:18:50Z</time>
      </trkpt>
      <trkpt lat="38.8633010" lon="-0.3997710">
        <ele>311.5</ele>
        <time>2020-11-14T11:18:51Z</time>
      </trkpt>
      <trkpt lat="38.8633060" lon="-0.3998150">
        <ele>311.7</ele>
        <time>2020-11-14T11:18:52Z</time>
      </trkpt>
      <trkpt lat="38.8633120" lon="-0.3998580">
        <ele>311.8</ele>
        <time>2020-11-14T11:18:53Z</time>
      </trkpt>
      <trkpt lat="38.8633180" lon="-0.3998990">
        <ele>312.0</ele>
        <time>2020-11-14T11:18:54Z</time>
      </trkpt>
      <trkpt lat="38.8633240" lon="-0.3999410">
        <ele>312.1</ele>
        <time>2020-11-14T11:18:55Z</time>
      </trkpt>
      <trkpt lat="38.8633290" lon="-0.3999820">
        <ele>312.3</ele>
        <time>2020-11-14T11:18:56Z</time>
      </trkpt>
      <trkpt lat="38.8633320" lon="-0.4000220">
        <ele>312.5</ele>
        <time>2020-11-14T11:18:57Z</time>
      </trkpt>
      <trkpt lat="38.8633350" lon="-0.4000630">
        <ele>312.7</ele>
        <time>2020-11-14T11:18:58Z</time>
      </trkpt>
      <trkpt lat="38.8633350" lon="-0.4001050">
        <ele>312.9</ele>
        <time>2020-11-14T11:18:59Z</time>
      </trkpt>
      <trkpt lat="38.8633340" lon="-0.4001470">
        <ele>313.0</ele>
        <time>2020-11-14T11:19:00Z</time>
      </trkpt>
      <trkpt lat="38.8633320" lon="-0.4001900">
        <ele>313.2</ele>
        <time>2020-11-14T11:19:01Z</time>
      </trkpt>
      <trkpt lat="38.8633300" lon="-0.4002330">
        <ele>313.4</ele>
        <time>2020-11-14T11:19:02Z</time>
      </trkpt>
      <trkpt lat="38.8633290" lon="-0.4002760">
        <ele>313.6</ele>
        <time>2020-11-14T11:19:03Z</time>
      </trkpt>
      <trkpt lat="38.8633250" lon="-0.4003180">
        <ele>313.8</ele>
        <time>2020-11-14T11:19:04Z</time>
      </trkpt>
      <trkpt lat="38.8633200" lon="-0.4003590">
        <ele>314.0</ele>
        <time>2020-11-14T11:19:05Z</time>
      </trkpt>
      <trkpt lat="38.8633140" lon="-0.4004000">
        <ele>314.2</ele>
        <time>2020-11-14T11:19:06Z</time>
      </trkpt>
      <trkpt lat="38.8633070" lon="-0.4004410">
        <ele>314.4</ele>
        <time>2020-11-14T11:19:07Z</time>
      </trkpt>
      <trkpt lat="38.8632980" lon="-0.4004830">
        <ele>314.6</ele>
        <time>2020-11-14T11:19:08Z</time>
      </trkpt>
      <trkpt lat="38.8632880" lon="-0.4005250">
        <ele>314.8</ele>
        <time>2020-11-14T11:19:09Z</time>
      </trkpt>
      <trkpt lat="38.8632760" lon="-0.4005660">
        <ele>315.0</ele>
        <time>2020-11-14T11:19:10Z</time>
      </trkpt>
      <trkpt lat="38.8632600" lon="-0.4006060">
        <ele>315.3</ele>
        <time>2020-11-14T11:19:11Z</time>
      </trkpt>
      <trkpt lat="38.8632440" lon="-0.4006450">
        <ele>315.5</ele>
        <time>2020-11-14T11:19:12Z</time>
      </trkpt>
      <trkpt lat="38.8632290" lon="-0.4006850">
        <ele>315.7</ele>
        <time>2020-11-14T11:19:13Z</time>
      </trkpt>
      <trkpt lat="38.8632130" lon="-0.4007230">
        <ele>315.9</ele>
        <time>2020-11-14T11:19:14Z</time>
      </trkpt>
      <trkpt lat="38.8631960" lon="-0.4007620">
        <ele>316.1</ele>
        <time>2020-11-14T11:19:15Z</time>
      </trkpt>
      <trkpt lat="38.8631770" lon="-0.4007990">
        <ele>316.3</ele>
        <time>2020-11-14T11:19:16Z</time>
      </trkpt>
      <trkpt lat="38.8631560" lon="-0.4008340">
        <ele>316.5</ele>
        <time>2020-11-14T11:19:17Z</time>
      </trkpt>
      <trkpt lat="38.8631350" lon="-0.4008690">
        <ele>316.7</ele>
        <time>2020-11-14T11:19:18Z</time>
      </trkpt>
      <trkpt lat="38.8631140" lon="-0.4009010">
        <ele>316.8</ele>
        <time>2020-11-14T11:19:19Z</time>
      </trkpt>
      <trkpt lat="38.8630910" lon="-0.4009320">
        <ele>317.0</ele>
        <time>2020-11-14T11:19:20Z</time>
      </trkpt>
      <trkpt lat="38.8630680" lon="-0.4009620">
        <ele>317.2</ele>
        <time>2020-11-14T11:19:21Z</time>
      </trkpt>
      <trkpt lat="38.8630440" lon="-0.4009920">
        <ele>317.4</ele>
        <time>2020-11-14T11:19:22Z</time>
      </trkpt>
      <trkpt lat="38.8630200" lon="-0.4010200">
        <ele>317.6</ele>
        <time>2020-11-14T11:19:23Z</time>
      </trkpt>
      <trkpt lat="38.8629950" lon="-0.4010470">
        <ele>317.7</ele>
        <time>2020-11-14T11:19:24Z</time>
      </trkpt>
      <trkpt lat="38.8629700" lon="-0.4010730">
        <ele>317.9</ele>
        <time>2020-11-14T11:19:25Z</time>
      </trkpt>
      <trkpt lat="38.8629460" lon="-0.4011000">
        <ele>318.1</ele>
        <time>2020-11-14T11:19:26Z</time>
      </trkpt>
      <trkpt lat="38.8629220" lon="-0.4011260">
        <ele>318.3</ele>
        <time>2020-11-14T11:19:27Z</time>
      </trkpt>
      <trkpt lat="38.8628970" lon="-0.4011510">
        <ele>318.5</ele>
        <time>2020-11-14T11:19:28Z</time>
      </trkpt>
      <trkpt lat="38.8628700" lon="-0.4011740">
        <ele>318.7</ele>
        <time>2020-11-14T11:19:29Z</time>
      </trkpt>
      <trkpt lat="38.8628450" lon="-0.4011960">
        <ele>318.8</ele>
        <time>2020-11-14T11:19:30Z</time>
      </trkpt>
      <trkpt lat="38.8628200" lon="-0.4012180">
        <ele>319.0</ele>
        <time>2020-11-14T11:19:31Z</time>
      </trkpt>
      <trkpt lat="38.8627960" lon="-0.4012410">
        <ele>319.1</ele>
        <time>2020-11-14T11:19:32Z</time>
      </trkpt>
      <trkpt lat="38.8627720" lon="-0.4012630">
        <ele>319.3</ele>
        <time>2020-11-14T11:19:33Z</time>
      </trkpt>
      <trkpt lat="38.8627470" lon="-0.4012840">
        <ele>319.4</ele>
        <time>2020-11-14T11:19:34Z</time>
      </trkpt>
      <trkpt lat="38.8627220" lon="-0.4013040">
        <ele>319.6</ele>
        <time>2020-11-14T11:19:35Z</time>
      </trkpt>
      <trkpt lat="38.8626970" lon="-0.4013220">
        <ele>319.7</ele>
        <time>2020-11-14T11:19:36Z</time>
      </trkpt>
      <trkpt lat="38.8626720" lon="-0.4013410">
        <ele>319.9</ele>
        <time>2020-11-14T11:19:37Z</time>
      </trkpt>
      <trkpt lat="38.8626460" lon="-0.4013590">
        <ele>320.0</ele>
        <time>2020-11-14T11:19:38Z</time>
      </trkpt>
      <trkpt lat="38.8626200" lon="-0.4013770">
        <ele>320.2</ele>
        <time>2020-11-14T11:19:39Z</time>
      </trkpt>
      <trkpt lat="38.8625940" lon="-0.4013950">
        <ele>320.3</ele>
        <time>2020-11-14T11:19:40Z</time>
      </trkpt>
      <trkpt lat="38.8625670" lon="-0.4014130">
        <ele>320.5</ele>
        <time>2020-11-14T11:19:41Z</time>
      </trkpt>
      <trkpt lat="38.8625410" lon="-0.4014320">
        <ele>320.6</ele>
        <time>2020-11-14T11:19:42Z</time>
      </trkpt>
      <trkpt lat="38.8625150" lon="-0.4014490">
        <ele>320.8</ele>
        <time>2020-11-14T11:19:43Z</time>
      </trkpt>
      <trkpt lat="38.8624890" lon="-0.4014700">
        <ele>320.9</ele>
        <time>2020-11-14T11:19:44Z</time>
      </trkpt>
      <trkpt lat="38.8624640" lon="-0.4014940">
        <ele>321.1</ele>
        <time>2020-11-14T11:19:45Z</time>
      </trkpt>
      <trkpt lat="38.8624400" lon="-0.4015190">
        <ele>321.2</ele>
        <time>2020-11-14T11:19:46Z</time>
      </trkpt>
      <trkpt lat="38.8624150" lon="-0.4015420">
        <ele>321.4</ele>
        <time>2020-11-14T11:19:47Z</time>
      </trkpt>
      <trkpt lat="38.8623880" lon="-0.4015630">
        <ele>321.5</ele>
        <time>2020-11-14T11:19:48Z</time>
      </trkpt>
      <trkpt lat="38.8623620" lon="-0.4015820">
        <ele>321.7</ele>
        <time>2020-11-14T11:19:49Z</time>
      </trkpt>
      <trkpt lat="38.8623360" lon="-0.4016010">
        <ele>321.8</ele>
        <time>2020-11-14T11:19:50Z</time>
      </trkpt>
      <trkpt lat="38.8623100" lon="-0.4016210">
        <ele>322.0</ele>
        <time>2020-11-14T11:19:51Z</time>
      </trkpt>
      <trkpt lat="38.8622840" lon="-0.4016410">
        <ele>322.1</ele>
        <time>2020-11-14T11:19:52Z</time>
      </trkpt>
      <trkpt lat="38.8622600" lon="-0.4016600">
        <ele>322.3</ele>
        <time>2020-11-14T11:19:53Z</time>
      </trkpt>
      <trkpt lat="38.8622350" lon="-0.4016820">
        <ele>322.4</ele>
        <time>2020-11-14T11:19:54Z</time>
      </trkpt>
      <trkpt lat="38.8622120" lon="-0.4017040">
        <ele>322.6</ele>
        <time>2020-11-14T11:19:55Z</time>
      </trkpt>
      <trkpt lat="38.8621880" lon="-0.4017270">
        <ele>322.7</ele>
        <time>2020-11-14T11:19:56Z</time>
      </trkpt>
      <trkpt lat="38.8621650" lon="-0.4017510">
        <ele>322.9</ele>
        <time>2020-11-14T11:19:57Z</time>
      </trkpt>
      <trkpt lat="38.8621430" lon="-0.4017740">
        <ele>323.0</ele>
        <time>2020-11-14T11:19:58Z</time>
      </trkpt>
      <trkpt lat="38.8621210" lon="-0.4017970">
        <ele>323.2</ele>
        <time>2020-11-14T11:19:59Z</time>
      </trkpt>
      <trkpt lat="38.8620990" lon="-0.4018210">
        <ele>323.3</ele>
        <time>2020-11-14T11:20:00Z</time>
      </trkpt>
      <trkpt lat="38.8620770" lon="-0.4018450">
        <ele>323.5</ele>
        <time>2020-11-14T11:20:01Z</time>
      </trkpt>
      <trkpt lat="38.8620560" lon="-0.4018680">
        <ele>323.6</ele>
        <time>2020-11-14T11:20:02Z</time>
      </trkpt>
      <trkpt lat="38.8620350" lon="-0.4018910">
        <ele>323.8</ele>
        <time>2020-11-14T11:20:03Z</time>
      </trkpt>
      <trkpt lat="38.8620140" lon="-0.4019150">
        <ele>323.9</ele>
        <time>2020-11-14T11:20:04Z</time>
      </trkpt>
      <trkpt lat="38.8619910" lon="-0.4019380">
        <ele>324.1</ele>
        <time>2020-11-14T11:20:05Z</time>
      </trkpt>
      <trkpt lat="38.8619690" lon="-0.4019610">
        <ele>324.3</ele>
        <time>2020-11-14T11:20:06Z</time>
      </trkpt>
      <trkpt lat="38.8619450" lon="-0.4019830">
        <ele>324.4</ele>
        <time>2020-11-14T11:20:07Z</time>
      </trkpt>
      <trkpt lat="38.8619220" lon="-0.4020050">
        <ele>324.6</ele>
        <time>2020-11-14T11:20:08Z</time>
      </trkpt>
      <trkpt lat="38.8619000" lon="-0.4020290">
        <ele>324.7</ele>
        <time>2020-11-14T11:20:09Z</time>
      </trkpt>
      <trkpt lat="38.8618790" lon="-0.4020550">
        <ele>324.9</ele>
        <time>2020-11-14T11:20:10Z</time>
      </trkpt>
      <trkpt lat="38.8618570" lon="-0.4020810">
        <ele>325.0</ele>
        <time>2020-11-14T11:20:11Z</time>
      </trkpt>
      <trkpt lat="38.8618340" lon="-0.4021060">
        <ele>325.2</ele>
        <time>2020-11-14T11:20:12Z</time>
      </trkpt>
      <trkpt lat="38.8618110" lon="-0.4021300">
        <ele>325.3</ele>
        <time>2020-11-14T11:20:13Z</time>
      </trkpt>
      <trkpt lat="38.8617900" lon="-0.4021550">
        <ele>325.5</ele>
        <time>2020-11-14T11:20:14Z</time>
      </trkpt>
      <trkpt lat="38.8617690" lon="-0.4021810">
        <ele>325.6</ele>
        <time>2020-11-14T11:20:15Z</time>
      </trkpt>
      <trkpt lat="38.8617480" lon="-0.4022060">
        <ele>325.8</ele>
        <time>2020-11-14T11:20:16Z</time>
      </trkpt>
      <trkpt lat="38.8617270" lon="-0.4022320">
        <ele>325.9</ele>
        <time>2020-11-14T11:20:17Z</time>
      </trkpt>
      <trkpt lat="38.8617040" lon="-0.4022580">
        <ele>326.1</ele>
        <time>2020-11-14T11:20:18Z</time>
      </trkpt>
      <trkpt lat="38.8616820" lon="-0.4022840">
        <ele>326.2</ele>
        <time>2020-11-14T11:20:19Z</time>
      </trkpt>
      <trkpt lat="38.8616590" lon="-0.4023090">
        <ele>326.4</ele>
        <time>2020-11-14T11:20:20Z</time>
      </trkpt>
      <trkpt lat="38.8616360" lon="-0.4023320">
        <ele>326.5</ele>
        <time>2020-11-14T11:20:21Z</time>
      </trkpt>
      <trkpt lat="38.8616120" lon="-0.4023550">
        <ele>326.7</ele>
        <time>2020-11-14T11:20:22Z</time>
      </trkpt>
      <trkpt lat="38.8615880" lon="-0.4023780">
        <ele>326.9</ele>
        <time>2020-11-14T11:20:23Z</time>
      </trkpt>
      <trkpt lat="38.8615640" lon="-0.4024010">
        <ele>327.0</ele>
        <time>2020-11-14T11:20:24Z</time>
      </trkpt>
      <trkpt lat="38.8615400" lon="-0.4024250">
        <ele>327.2</ele>
        <time>2020-11-14T11:20:25Z</time>
      </trkpt>
      <trkpt lat="38.8615180" lon="-0.4024500">
        <ele>327.4</ele>
        <time>2020-11-14T11:20:26Z</time>
      </trkpt>
      <trkpt lat="38.8614960" lon="-0.4024760">
        <ele>327.5</ele>
        <time>2020-11-14T11:20:27Z</time>
      </trkpt>
      <trkpt lat="38.8614750" lon="-0.4025020">
        <ele>327.7</ele>
        <time>2020-11-14T11:20:28Z</time>
      </trkpt>
      <trkpt lat="38.8614530" lon="-0.4025260">
        <ele>327.8</ele>
        <time>2020-11-14T11:20:29Z</time>
      </trkpt>
      <trkpt lat="38.8614320" lon="-0.4025510">
        <ele>328.0</ele>
        <time>2020-11-14T11:20:30Z</time>
      </trkpt>
      <trkpt lat="38.8614100" lon="-0.4025760">
        <ele>328.2</ele>
        <time>2020-11-14T11:20:31Z</time>
      </trkpt>
      <trkpt lat="38.8613880" lon="-0.4026010">
        <ele>328.3</ele>
        <time>2020-11-14T11:20:32Z</time>
      </trkpt>
      <trkpt lat="38.8613650" lon="-0.4026270">
        <ele>328.5</ele>
        <time>2020-11-14T11:20:33Z</time>
      </trkpt>
      <trkpt lat="38.8613430" lon="-0.4026520">
        <ele>328.7</ele>
        <time>2020-11-14T11:20:34Z</time>
      </trkpt>
      <trkpt lat="38.8613190" lon="-0.4026770">
        <ele>328.8</ele>
        <time>2020-11-14T11:20:35Z</time>
      </trkpt>
      <trkpt lat="38.8612960" lon="-0.4027010">
        <ele>329.0</ele>
        <time>2020-11-14T11:20:36Z</time>
      </trkpt>
      <trkpt lat="38.8612730" lon="-0.4027250">
        <ele>329.2</ele>
        <time>2020-11-14T11:20:37Z</time>
      </trkpt>
      <trkpt lat="38.8612490" lon="-0.4027490">
        <ele>329.3</ele>
        <time>2020-11-14T11:20:38Z</time>
      </trkpt>
      <trkpt lat="38.8612250" lon="-0.4027720">
        <ele>329.5</ele>
        <time>2020-11-14T11:20:39Z</time>
      </trkpt>
      <trkpt lat="38.8612000" lon="-0.4027950">
        <ele>329.6</ele>
        <time>2020-11-14T11:20:40Z</time>
      </trkpt>
      <trkpt lat="38.8611740" lon="-0.4028170">
        <ele>329.8</ele>
        <time>2020-11-14T11:20:41Z</time>
      </trkpt>
      <trkpt lat="38.8611480" lon="-0.4028360">
        <ele>330.0</ele>
        <time>2020-11-14T11:20:42Z</time>
      </trkpt>
      <trkpt lat="38.8611210" lon="-0.4028550">
        <ele>330.1</ele>
        <time>2020-11-14T11:20:43Z</time>
      </trkpt>
      <trkpt lat="38.8610930" lon="-0.4028750">
        <ele>330.3</ele>
        <time>2020-11-14T11:20:44Z</time>
      </trkpt>
      <trkpt lat="38.8610660" lon="-0.4028950">
        <ele>330.4</ele>
        <time>2020-11-14T11:20:45Z</time>
      </trkpt>
      <trkpt lat="38.8610380" lon="-0.4029150">
        <ele>330.6</ele>
        <time>2020-11-14T11:20:46Z</time>
      </trkpt>
      <trkpt lat="38.8610100" lon="-0.4029340">
        <ele>330.7</ele>
        <time>2020-11-14T11:20:47Z</time>
      </trkpt>
      <trkpt lat="38.8609820" lon="-0.4029510">
        <ele>330.9</ele>
        <time>2020-11-14T11:20:48Z</time>
      </trkpt>
      <trkpt lat="38.8609530" lon="-0.4029680">
        <ele>331.0</ele>
        <time>2020-11-14T11:20:49Z</time>
      </trkpt>
      <trkpt lat="38.8609240" lon="-0.4029850">
        <ele>331.1</ele>
        <time>2020-11-14T11:20:50Z</time>
      </trkpt>
      <trkpt lat="38.8608940" lon="-0.4030000">
        <ele>331.3</ele>
        <time>2020-11-14T11:20:51Z</time>
      </trkpt>
      <trkpt lat="38.8608630" lon="-0.4030130">
        <ele>331.4</ele>
        <time>2020-11-14T11:20:52Z</time>
      </trkpt>
      <trkpt lat="38.8608310" lon="-0.4030250">
        <ele>331.5</ele>
        <time>2020-11-14T11:20:53Z</time>
      </trkpt>
      <trkpt lat="38.8607980" lon="-0.4030350">
        <ele>331.6</ele>
        <time>2020-11-14T11:20:54Z</time>
      </trkpt>
      <trkpt lat="38.8607640" lon="-0.4030450">
        <ele>331.7</ele>
        <time>2020-11-14T11:20:55Z</time>
      </trkpt>
      <trkpt lat="38.8607300" lon="-0.4030540">
        <ele>331.9</ele>
        <time>2020-11-14T11:20:56Z</time>
      </trkpt>
      <trkpt lat="38.8606950" lon="-0.4030620">
        <ele>332.0</ele>
        <time>2020-11-14T11:20:57Z</time>
      </trkpt>
      <trkpt lat="38.8606610" lon="-0.4030720">
        <ele>332.1</ele>
        <time>2020-11-14T11:20:58Z</time>
      </trkpt>
      <trkpt lat="38.8606280" lon="-0.4030820">
        <ele>332.2</ele>
        <time>2020-11-14T11:20:59Z</time>
      </trkpt>
      <trkpt lat="38.8605970" lon="-0.4030940">
        <ele>332.4</ele>
        <time>2020-11-14T11:21:00Z</time>
      </trkpt>
      <trkpt lat="38.8605680" lon="-0.4031070">
        <ele>332.5</ele>
        <time>2020-11-14T11:21:01Z</time>
      </trkpt>
      <trkpt lat="38.8605380" lon="-0.4031190">
        <ele>332.6</ele>
        <time>2020-11-14T11:21:02Z</time>
      </trkpt>
      <trkpt lat="38.8605070" lon="-0.4031290">
        <ele>332.7</ele>
        <time>2020-11-14T11:21:03Z</time>
      </trkpt>
      <trkpt lat="38.8604760" lon="-0.4031380">
        <ele>332.9</ele>
        <time>2020-11-14T11:21:04Z</time>
      </trkpt>
      <trkpt lat="38.8604420" lon="-0.4031470">
        <ele>333.0</ele>
        <time>2020-11-14T11:21:05Z</time>
      </trkpt>
      <trkpt lat="38.8604070" lon="-0.4031580">
        <ele>333.2</ele>
        <time>2020-11-14T11:21:06Z</time>
      </trkpt>
      <trkpt lat="38.8603770" lon="-0.4031670">
        <ele>333.3</ele>
        <time>2020-11-14T11:21:07Z</time>
      </trkpt>
      <trkpt lat="38.8603480" lon="-0.4031750">
        <ele>333.5</ele>
        <time>2020-11-14T11:21:08Z</time>
      </trkpt>
      <trkpt lat="38.8603170" lon="-0.4031850">
        <ele>333.6</ele>
        <time>2020-11-14T11:21:09Z</time>
      </trkpt>
      <trkpt lat="38.8602850" lon="-0.4031920">
        <ele>333.8</ele>
        <time>2020-11-14T11:21:10Z</time>
      </trkpt>
      <trkpt lat="38.8602530" lon="-0.4031990">
        <ele>334.0</ele>
        <time>2020-11-14T11:21:11Z</time>
      </trkpt>
      <trkpt lat="38.8602220" lon="-0.4032050">
        <ele>334.1</ele>
        <time>2020-11-14T11:21:12Z</time>
      </trkpt>
      <trkpt lat="38.8601920" lon="-0.4032100">
        <ele>334.3</ele>
        <time>2020-11-14T11:21:13Z</time>
      </trkpt>
      <trkpt lat="38.8601650" lon="-0.4032150">
        <ele>334.5</ele>
        <time>2020-11-14T11:21:14Z</time>
      </trkpt>
      <trkpt lat="38.8601380" lon="-0.4032220">
        <ele>334.6</ele>
        <time>2020-11-14T11:21:15Z</time>
      </trkpt>
      <trkpt lat="38.8601120" lon="-0.4032290">
        <ele>334.8</ele>
        <time>2020-11-14T11:21:16Z</time>
      </trkpt>
      <trkpt lat="38.8600850" lon="-0.4032360">
        <ele>335.0</ele>
        <time>2020-11-14T11:21:17Z</time>
      </trkpt>
      <trkpt lat="38.8600580" lon="-0.4032430">
        <ele>335.1</ele>
        <time>2020-11-14T11:21:18Z</time>
      </trkpt>
      <trkpt lat="38.8600310" lon="-0.4032490">
        <ele>335.3</ele>
        <time>2020-11-14T11:21:19Z</time>
      </trkpt>
      <trkpt lat="38.8599920" lon="-0.4032590">
        <ele>335.6</ele>
        <time>2020-11-14T11:21:20Z</time>
      </trkpt>
      <trkpt lat="38.8599790" lon="-0.4032620">
        <ele>335.6</ele>
        <time>2020-11-14T11:21:21Z</time>
      </trkpt>
      <trkpt lat="38.8599520" lon="-0.4032690">
        <ele>335.8</ele>
        <time>2020-11-14T11:21:22Z</time>
      </trkpt>
      <trkpt lat="38.8599140" lon="-0.4032820">
        <ele>336.1</ele>
        <time>2020-11-14T11:21:23Z</time>
      </trkpt>
      <trkpt lat="38.8599010" lon="-0.4032860">
        <ele>336.2</ele>
        <time>2020-11-14T11:21:24Z</time>
      </trkpt>
      <trkpt lat="38.8598750" lon="-0.4032970">
        <ele>336.3</ele>
        <time>2020-11-14T11:21:25Z</time>
      </trkpt>
      <trkpt lat="38.8598480" lon="-0.4033090">
        <ele>336.5</ele>
        <time>2020-11-14T11:21:26Z</time>
      </trkpt>
      <trkpt lat="38.8598220" lon="-0.4033210">
        <ele>336.7</ele>
        <time>2020-11-14T11:21:27Z</time>
      </trkpt>
      <trkpt lat="38.8597970" lon="-0.4033320">
        <ele>336.9</ele>
        <time>2020-11-14T11:21:28Z</time>
      </trkpt>
      <trkpt lat="38.8597710" lon="-0.4033430">
        <ele>337.1</ele>
        <time>2020-11-14T11:21:29Z</time>
      </trkpt>
      <trkpt lat="38.8597450" lon="-0.4033560">
        <ele>337.3</ele>
        <time>2020-11-14T11:21:30Z</time>
      </trkpt>
      <trkpt lat="38.8597200" lon="-0.4033700">
        <ele>337.5</ele>
        <time>2020-11-14T11:21:31Z</time>
      </trkpt>
      <trkpt lat="38.8596950" lon="-0.4033840">
        <ele>337.7</ele>
        <time>2020-11-14T11:21:32Z</time>
      </trkpt>
      <trkpt lat="38.8596620" lon="-0.4034050">
        <ele>337.9</ele>
        <time>2020-11-14T11:21:33Z</time>
      </trkpt>
      <trkpt lat="38.8596510" lon="-0.4034110">
        <ele>338.0</ele>
        <time>2020-11-14T11:21:34Z</time>
      </trkpt>
      <trkpt lat="38.8596170" lon="-0.4034330">
        <ele>338.3</ele>
        <time>2020-11-14T11:21:35Z</time>
      </trkpt>
      <trkpt lat="38.8596040" lon="-0.4034410">
        <ele>338.4</ele>
        <time>2020-11-14T11:21:36Z</time>
      </trkpt>
      <trkpt lat="38.8595790" lon="-0.4034560">
        <ele>338.6</ele>
        <time>2020-11-14T11:21:37Z</time>
      </trkpt>
      <trkpt lat="38.8595440" lon="-0.4034810">
        <ele>338.8</ele>
        <time>2020-11-14T11:21:38Z</time>
      </trkpt>
      <trkpt lat="38.8595320" lon="-0.4034900">
        <ele>338.9</ele>
        <time>2020-11-14T11:21:39Z</time>
      </trkpt>
      <trkpt lat="38.8595100" lon="-0.4035100">
        <ele>339.1</ele>
        <time>2020-11-14T11:21:40Z</time>
      </trkpt>
      <trkpt lat="38.8594880" lon="-0.4035320">
        <ele>339.3</ele>
        <time>2020-11-14T11:21:41Z</time>
      </trkpt>
      <trkpt lat="38.8594680" lon="-0.4035550">
        <ele>339.5</ele>
        <time>2020-11-14T11:21:42Z</time>
      </trkpt>
      <trkpt lat="38.8594480" lon="-0.4035790">
        <ele>339.7</ele>
        <time>2020-11-14T11:21:43Z</time>
      </trkpt>
      <trkpt lat="38.8594280" lon="-0.4036040">
        <ele>339.9</ele>
        <time>2020-11-14T11:21:44Z</time>
      </trkpt>
      <trkpt lat="38.8594020" lon="-0.4036370">
        <ele>340.1</ele>
        <time>2020-11-14T11:21:45Z</time>
      </trkpt>
      <trkpt lat="38.8593920" lon="-0.4036470">
        <ele>340.2</ele>
        <time>2020-11-14T11:21:46Z</time>
      </trkpt>
      <trkpt lat="38.8593620" lon="-0.4036760">
        <ele>340.4</ele>
        <time>2020-11-14T11:21:47Z</time>
      </trkpt>
      <trkpt lat="38.8593510" lon="-0.4036850">
        <ele>340.5</ele>
        <time>2020-11-14T11:21:48Z</time>
      </trkpt>
      <trkpt lat="38.8593190" lon="-0.4037110">
        <ele>340.7</ele>
        <time>2020-11-14T11:21:49Z</time>
      </trkpt>
      <trkpt lat="38.8593080" lon="-0.4037190">
        <ele>340.8</ele>
        <time>2020-11-14T11:21:50Z</time>
      </trkpt>
      <trkpt lat="38.8592770" lon="-0.4037450">
        <ele>341.0</ele>
        <time>2020-11-14T11:21:51Z</time>
      </trkpt>
      <trkpt lat="38.8592660" lon="-0.4037540">
        <ele>341.1</ele>
        <time>2020-11-14T11:21:52Z</time>
      </trkpt>
      <trkpt lat="38.8592350" lon="-0.4037830">
        <ele>341.3</ele>
        <time>2020-11-14T11:21:53Z</time>
      </trkpt>
      <trkpt lat="38.8592240" lon="-0.4037930">
        <ele>341.4</ele>
        <time>2020-11-14T11:21:54Z</time>
      </trkpt>
      <trkpt lat="38.8591930" lon="-0.4038240">
        <ele>341.6</ele>
        <time>2020-11-14T11:21:55Z</time>
      </trkpt>
      <trkpt lat="38.8591820" lon="-0.4038350">
        <ele>341.7</ele>
        <time>2020-11-14T11:21:56Z</time>
      </trkpt>
      <trkpt lat="38.8591610" lon="-0.4038570">
        <ele>341.8</ele>
        <time>2020-11-14T11:21:57Z</time>
      </trkpt>
      <trkpt lat="38.8591390" lon="-0.4038780">
        <ele>342.0</ele>
        <time>2020-11-14T11:21:58Z</time>
      </trkpt>
      <trkpt lat="38.8591160" lon="-0.4038980">
        <ele>342.1</ele>
        <time>2020-11-14T11:21:59Z</time>
      </trkpt>
      <trkpt lat="38.8590920" lon="-0.4039190">
        <ele>342.2</ele>
        <time>2020-11-14T11:22:00Z</time>
      </trkpt>
      <trkpt lat="38.8590680" lon="-0.4039400">
        <ele>342.4</ele>
        <time>2020-11-14T11:22:01Z</time>
      </trkpt>
      <trkpt lat="38.8590450" lon="-0.4039620">
        <ele>342.5</ele>
        <time>2020-11-14T11:22:02Z</time>
      </trkpt>
      <trkpt lat="38.8590220" lon="-0.4039840">
        <ele>342.7</ele>
        <time>2020-11-14T11:22:03Z</time>
      </trkpt>
      <trkpt lat="38.8589990" lon="-0.4040050">
        <ele>342.8</ele>
        <time>2020-11-14T11:22:04Z</time>
      </trkpt>
      <trkpt lat="38.8589770" lon="-0.4040260">
        <ele>342.9</ele>
        <time>2020-11-14T11:22:05Z</time>
      </trkpt>
      <trkpt lat="38.8589540" lon="-0.4040460">
        <ele>343.1</ele>
        <time>2020-11-14T11:22:06Z</time>
      </trkpt>
      <trkpt lat="38.8589300" lon="-0.4040660">
        <ele>343.2</ele>
        <time>2020-11-14T11:22:07Z</time>
      </trkpt>
      <trkpt lat="38.8589060" lon="-0.4040840">
        <ele>343.3</ele>
        <time>2020-11-14T11:22:08Z</time>
      </trkpt>
      <trkpt lat="38.8588810" lon="-0.4041020">
        <ele>343.4</ele>
        <time>2020-11-14T11:22:09Z</time>
      </trkpt>
      <trkpt lat="38.8588580" lon="-0.4041200">
        <ele>343.5</ele>
        <time>2020-11-14T11:22:10Z</time>
      </trkpt>
      <trkpt lat="38.8588350" lon="-0.4041430">
        <ele>343.7</ele>
        <time>2020-11-14T11:22:11Z</time>
      </trkpt>
      <trkpt lat="38.8588130" lon="-0.4041670">
        <ele>343.8</ele>
        <time>2020-11-14T11:22:12Z</time>
      </trkpt>
      <trkpt lat="38.8587900" lon="-0.4041930">
        <ele>343.9</ele>
        <time>2020-11-14T11:22:13Z</time>
      </trkpt>
      <trkpt lat="38.8587670" lon="-0.4042170">
        <ele>344.0</ele>
        <time>2020-11-14T11:22:14Z</time>
      </trkpt>
      <trkpt lat="38.8587450" lon="-0.4042430">
        <ele>344.2</ele>
        <time>2020-11-14T11:22:15Z</time>
      </trkpt>
      <trkpt lat="38.8587220" lon="-0.4042690">
        <ele>344.3</ele>
        <time>2020-11-14T11:22:16Z</time>
      </trkpt>
      <trkpt lat="38.8586970" lon="-0.4042970">
        <ele>344.4</ele>
        <time>2020-11-14T11:22:17Z</time>
      </trkpt>
      <trkpt lat="38.8586740" lon="-0.4043240">
        <ele>344.5</ele>
        <time>2020-11-14T11:22:18Z</time>
      </trkpt>
      <trkpt lat="38.8586520" lon="-0.4043510">
        <ele>344.7</ele>
        <time>2020-11-14T11:22:19Z</time>
      </trkpt>
      <trkpt lat="38.8586310" lon="-0.4043780">
        <ele>344.8</ele>
        <time>2020-11-14T11:22:20Z</time>
      </trkpt>
      <trkpt lat="38.8586080" lon="-0.4044050">
        <ele>344.9</ele>
        <time>2020-11-14T11:22:21Z</time>
      </trkpt>
      <trkpt lat="38.8585840" lon="-0.4044330">
        <ele>345.0</ele>
        <time>2020-11-14T11:22:22Z</time>
      </trkpt>
      <trkpt lat="38.8585610" lon="-0.4044650">
        <ele>345.1</ele>
        <time>2020-11-14T11:22:23Z</time>
      </trkpt>
      <trkpt lat="38.8585390" lon="-0.4045000">
        <ele>345.3</ele>
        <time>2020-11-14T11:22:24Z</time>
      </trkpt>
      <trkpt lat="38.8585170" lon="-0.4045360">
        <ele>345.4</ele>
        <time>2020-11-14T11:22:25Z</time>
      </trkpt>
      <trkpt lat="38.8584950" lon="-0.4045730">
        <ele>345.5</ele>
        <time>2020-11-14T11:22:26Z</time>
      </trkpt>
      <trkpt lat="38.8584730" lon="-0.4046090">
        <ele>345.6</ele>
        <time>2020-11-14T11:22:27Z</time>
      </trkpt>
      <trkpt lat="38.8584500" lon="-0.4046470">
        <ele>345.8</ele>
        <time>2020-11-14T11:22:28Z</time>
      </trkpt>
      <trkpt lat="38.8584260" lon="-0.4046840">
        <ele>345.9</ele>
        <time>2020-11-14T11:22:29Z</time>
      </trkpt>
      <trkpt lat="38.8584030" lon="-0.4047210">
        <ele>346.0</ele>
        <time>2020-11-14T11:22:30Z</time>
      </trkpt>
      <trkpt lat="38.8583790" lon="-0.4047580">
        <ele>346.2</ele>
        <time>2020-11-14T11:22:31Z</time>
      </trkpt>
      <trkpt lat="38.8583540" lon="-0.4047950">
        <ele>346.4</ele>
        <time>2020-11-14T11:22:32Z</time>
      </trkpt>
      <trkpt lat="38.8583300" lon="-0.4048320">
        <ele>346.5</ele>
        <time>2020-11-14T11:22:33Z</time>
      </trkpt>
      <trkpt lat="38.8583040" lon="-0.4048670">
        <ele>346.7</ele>
        <time>2020-11-14T11:22:34Z</time>
      </trkpt>
      <trkpt lat="38.8582780" lon="-0.4048970">
        <ele>346.9</ele>
        <time>2020-11-14T11:22:35Z</time>
      </trkpt>
      <trkpt lat="38.8582500" lon="-0.4049250">
        <ele>347.0</ele>
        <time>2020-11-14T11:22:36Z</time>
      </trkpt>
      <trkpt lat="38.8582190" lon="-0.4049490">
        <ele>347.2</ele>
        <time>2020-11-14T11:22:37Z</time>
      </trkpt>
      <trkpt lat="38.8581870" lon="-0.4049710">
        <ele>347.3</ele>
        <time>2020-11-14T11:22:38Z</time>
      </trkpt>
      <trkpt lat="38.8581550" lon="-0.4049920">
        <ele>347.5</ele>
        <time>2020-11-14T11:22:39Z</time>
      </trkpt>
      <trkpt lat="38.8581210" lon="-0.4050090">
        <ele>347.7</ele>
        <time>2020-11-14T11:22:40Z</time>
      </trkpt>
      <trkpt lat="38.8580880" lon="-0.4050250">
        <ele>347.8</ele>
        <time>2020-11-14T11:22:41Z</time>
      </trkpt>
      <trkpt lat="38.8580540" lon="-0.4050390">
        <ele>348.0</ele>
        <time>2020-11-14T11:22:42Z</time>
      </trkpt>
      <trkpt lat="38.8580200" lon="-0.4050520">
        <ele>348.1</ele>
        <time>2020-11-14T11:22:43Z</time>
      </trkpt>
      <trkpt lat="38.8579870" lon="-0.4050620">
        <ele>348.2</ele>
        <time>2020-11-14T11:22:44Z</time>
      </trkpt>
      <trkpt lat="38.8579540" lon="-0.4050720">
        <ele>348.3</ele>
        <time>2020-11-14T11:22:45Z</time>
      </trkpt>
      <trkpt lat="38.8579210" lon="-0.4050810">
        <ele>348.5</ele>
        <time>2020-11-14T11:22:46Z</time>
      </trkpt>
      <trkpt lat="38.8578870" lon="-0.4050930">
        <ele>348.6</ele>
        <time>2020-11-14T11:22:47Z</time>
      </trkpt>
      <trkpt lat="38.8578530" lon="-0.4051050">
        <ele>348.7</ele>
        <time>2020-11-14T11:22:48Z</time>
      </trkpt>
      <trkpt lat="38.8578170" lon="-0.4051140">
        <ele>348.8</ele>
        <time>2020-11-14T11:22:49Z</time>
      </trkpt>
      <trkpt lat="38.8577810" lon="-0.4051240">
        <ele>348.9</ele>
        <time>2020-11-14T11:22:50Z</time>
      </trkpt>
      <trkpt lat="38.8577460" lon="-0.4051340">
        <ele>349.0</ele>
        <time>2020-11-14T11:22:51Z</time>
      </trkpt>
      <trkpt lat="38.8577110" lon="-0.4051450">
        <ele>349.1</ele>
        <time>2020-11-14T11:22:52Z</time>
      </trkpt>
      <trkpt lat="38.8576780" lon="-0.4051560">
        <ele>349.2</ele>
        <time>2020-11-14T11:22:53Z</time>
      </trkpt>
      <trkpt lat="38.8576440" lon="-0.4051690">
        <ele>349.3</ele>
        <time>2020-11-14T11:22:54Z</time>
      </trkpt>
      <trkpt lat="38.8576040" lon="-0.4051820">
        <ele>349.4</ele>
        <time>2020-11-14T11:22:55Z</time>
      </trkpt>
      <trkpt lat="38.8575650" lon="-0.4051940">
        <ele>349.5</ele>
        <time>2020-11-14T11:22:56Z</time>
      </trkpt>
      <trkpt lat="38.8575250" lon="-0.4052050">
        <ele>349.5</ele>
        <time>2020-11-14T11:22:57Z</time>
      </trkpt>
      <trkpt lat="38.8574850" lon="-0.4052150">
        <ele>349.6</ele>
        <time>2020-11-14T11:22:58Z</time>
      </trkpt>
      <trkpt lat="38.8574440" lon="-0.4052240">
        <ele>349.7</ele>
        <time>2020-11-14T11:22:59Z</time>
      </trkpt>
      <trkpt lat="38.8574030" lon="-0.4052330">
        <ele>349.8</ele>
        <time>2020-11-14T11:23:00Z</time>
      </trkpt>
      <trkpt lat="38.8573620" lon="-0.4052410">
        <ele>349.8</ele>
        <time>2020-11-14T11:23:01Z</time>
      </trkpt>
      <trkpt lat="38.8573200" lon="-0.4052470">
        <ele>349.9</ele>
        <time>2020-11-14T11:23:02Z</time>
      </trkpt>
      <trkpt lat="38.8572780" lon="-0.4052510">
        <ele>349.9</ele>
        <time>2020-11-14T11:23:03Z</time>
      </trkpt>
      <trkpt lat="38.8572350" lon="-0.4052550">
        <ele>350.0</ele>
        <time>2020-11-14T11:23:04Z</time>
      </trkpt>
      <trkpt lat="38.8571920" lon="-0.4052570">
        <ele>350.0</ele>
        <time>2020-11-14T11:23:05Z</time>
      </trkpt>
      <trkpt lat="38.8571480" lon="-0.4052570">
        <ele>350.0</ele>
        <time>2020-11-14T11:23:06Z</time>
      </trkpt>
      <trkpt lat="38.8571060" lon="-0.4052550">
        <ele>350.1</ele>
        <time>2020-11-14T11:23:07Z</time>
      </trkpt>
      <trkpt lat="38.8570640" lon="-0.4052510">
        <ele>350.1</ele>
        <time>2020-11-14T11:23:08Z</time>
      </trkpt>
      <trkpt lat="38.8570250" lon="-0.4052390">
        <ele>350.2</ele>
        <time>2020-11-14T11:23:09Z</time>
      </trkpt>
      <trkpt lat="38.8569730" lon="-0.4052320">
        <ele>350.3</ele>
        <time>2020-11-14T11:23:10Z</time>
      </trkpt>
      <trkpt lat="38.8569290" lon="-0.4052270">
        <ele>350.3</ele>
        <time>2020-11-14T11:23:11Z</time>
      </trkpt>
      <trkpt lat="38.8568900" lon="-0.4052260">
        <ele>350.4</ele>
        <time>2020-11-14T11:23:12Z</time>
      </trkpt>
      <trkpt lat="38.8568470" lon="-0.4052190">
        <ele>350.5</ele>
        <time>2020-11-14T11:23:13Z</time>
      </trkpt>
      <trkpt lat="38.8568080" lon="-0.4052130">
        <ele>350.6</ele>
        <time>2020-11-14T11:23:14Z</time>
      </trkpt>
      <trkpt lat="38.8567670" lon="-0.4052110">
        <ele>350.7</ele>
        <time>2020-11-14T11:23:15Z</time>
      </trkpt>
      <trkpt lat="38.8567210" lon="-0.4052050">
        <ele>350.8</ele>
        <time>2020-11-14T11:23:16Z</time>
      </trkpt>
      <trkpt lat="38.8566830" lon="-0.4052030">
        <ele>350.9</ele>
        <time>2020-11-14T11:23:17Z</time>
      </trkpt>
      <trkpt lat="38.8566460" lon="-0.4052020">
        <ele>351.0</ele>
        <time>2020-11-14T11:23:18Z</time>
      </trkpt>
      <trkpt lat="38.8566090" lon="-0.4052010">
        <ele>351.1</ele>
        <time>2020-11-14T11:23:19Z</time>
      </trkpt>
      <trkpt lat="38.8565730" lon="-0.4052000">
        <ele>351.2</ele>
        <time>2020-11-14T11:23:20Z</time>
      </trkpt>
      <trkpt lat="38.8565360" lon="-0.4051970">
        <ele>351.3</ele>
        <time>2020-11-14T11:23:21Z</time>
      </trkpt>
      <trkpt lat="38.8564990" lon="-0.4051930">
        <ele>351.4</ele>
        <time>2020-11-14T11:23:22Z</time>
      </trkpt>
      <trkpt lat="38.8564640" lon="-0.4051870">
        <ele>351.5</ele>
        <time>2020-11-14T11:23:23Z</time>
      </trkpt>
      <trkpt lat="38.8564270" lon="-0.4051770">
        <ele>351.7</ele>
        <time>2020-11-14T11:23:24Z</time>
      </trkpt>
      <trkpt lat="38.8563920" lon="-0.4051670">
        <ele>351.8</ele>
        <time>2020-11-14T11:23:25Z</time>
      </trkpt>
      <trkpt lat="38.8563580" lon="-0.4051540">
        <ele>352.0</ele>
        <time>2020-11-14T11:23:26Z</time>
      </trkpt>
      <trkpt lat="38.8563210" lon="-0.4051400">
        <ele>352.1</ele>
        <time>2020-11-14T11:23:27Z</time>
      </trkpt>
      <trkpt lat="38.8562850" lon="-0.4051240">
        <ele>352.3</ele>
        <time>2020-11-14T11:23:28Z</time>
      </trkpt>
      <trkpt lat="38.8562490" lon="-0.4051050">
        <ele>352.5</ele>
        <time>2020-11-14T11:23:29Z</time>
      </trkpt>
      <trkpt lat="38.8562150" lon="-0.4050810">
        <ele>352.6</ele>
        <time>2020-11-14T11:23:30Z</time>
      </trkpt>
      <trkpt lat="38.8561830" lon="-0.4050540">
        <ele>352.8</ele>
        <time>2020-11-14T11:23:31Z</time>
      </trkpt>
      <trkpt lat="38.8561530" lon="-0.4050240">
        <ele>353.0</ele>
        <time>2020-11-14T11:23:32Z</time>
      </trkpt>
      <trkpt lat="38.8561250" lon="-0.4049890">
        <ele>353.2</ele>
        <time>2020-11-14T11:23:33Z</time>
      </trkpt>
      <trkpt lat="38.8560980" lon="-0.4049550">
        <ele>353.4</ele>
        <time>2020-11-14T11:23:34Z</time>
      </trkpt>
      <trkpt lat="38.8560730" lon="-0.4049200">
        <ele>353.6</ele>
        <time>2020-11-14T11:23:35Z</time>
      </trkpt>
      <trkpt lat="38.8560480" lon="-0.4048860">
        <ele>353.8</ele>
        <time>2020-11-14T11:23:36Z</time>
      </trkpt>
      <trkpt lat="38.8560240" lon="-0.4048530">
        <ele>354.0</ele>
        <time>2020-11-14T11:23:37Z</time>
      </trkpt>
      <trkpt lat="38.8560000" lon="-0.4048200">
        <ele>354.2</ele>
        <time>2020-11-14T11:23:38Z</time>
      </trkpt>
      <trkpt lat="38.8559770" lon="-0.4047870">
        <ele>354.4</ele>
        <time>2020-11-14T11:23:39Z</time>
      </trkpt>
      <trkpt lat="38.8559560" lon="-0.4047540">
        <ele>354.6</ele>
        <time>2020-11-14T11:23:40Z</time>
      </trkpt>
      <trkpt lat="38.8559350" lon="-0.4047210">
        <ele>354.7</ele>
        <time>2020-11-14T11:23:41Z</time>
      </trkpt>
      <trkpt lat="38.8559150" lon="-0.4046870">
        <ele>354.9</ele>
        <time>2020-11-14T11:23:42Z</time>
      </trkpt>
      <trkpt lat="38.8558940" lon="-0.4046520">
        <ele>355.1</ele>
        <time>2020-11-14T11:23:43Z</time>
      </trkpt>
      <trkpt lat="38.8558740" lon="-0.4046180">
        <ele>355.3</ele>
        <time>2020-11-14T11:23:44Z</time>
      </trkpt>
      <trkpt lat="38.8558560" lon="-0.4045870">
        <ele>355.5</ele>
        <time>2020-11-14T11:23:45Z</time>
      </trkpt>
      <trkpt lat="38.8558380" lon="-0.4045510">
        <ele>355.7</ele>
        <time>2020-11-14T11:23:46Z</time>
      </trkpt>
      <trkpt lat="38.8558200" lon="-0.4045160">
        <ele>355.9</ele>
        <time>2020-11-14T11:23:47Z</time>
      </trkpt>
      <trkpt lat="38.8558020" lon="-0.4044820">
        <ele>356.1</ele>
        <time>2020-11-14T11:23:48Z</time>
      </trkpt>
      <trkpt lat="38.8557850" lon="-0.4044490">
        <ele>356.3</ele>
        <time>2020-11-14T11:23:49Z</time>
      </trkpt>
      <trkpt lat="38.8557670" lon="-0.4044170">
        <ele>356.5</ele>
        <time>2020-11-14T11:23:50Z</time>
      </trkpt>
      <trkpt lat="38.8557480" lon="-0.4043860">
        <ele>356.7</ele>
        <time>2020-11-14T11:23:51Z</time>
      </trkpt>
      <trkpt lat="38.8557290" lon="-0.4043560">
        <ele>356.9</ele>
        <time>2020-11-14T11:23:52Z</time>
      </trkpt>
      <trkpt lat="38.8557100" lon="-0.4043250">
        <ele>357.1</ele>
        <time>2020-11-14T11:23:53Z</time>
      </trkpt>
      <trkpt lat="38.8556910" lon="-0.4042960">
        <ele>357.3</ele>
        <time>2020-11-14T11:23:54Z</time>
      </trkpt>
      <trkpt lat="38.8556710" lon="-0.4042670">
        <ele>357.5</ele>
        <time>2020-11-14T11:23:55Z</time>
      </trkpt>
      <trkpt lat="38.8556490" lon="-0.4042430">
        <ele>357.6</ele>
        <time>2020-11-14T11:23:56Z</time>
      </trkpt>
      <trkpt lat="38.8556250" lon="-0.4042220">
        <ele>357.8</ele>
        <time>2020-11-14T11:23:57Z</time>
      </trkpt>
      <trkpt lat="38.8555980" lon="-0.4042020">
        <ele>358.0</ele>
        <time>2020-11-14T11:23:58Z</time>
      </trkpt>
      <trkpt lat="38.8555720" lon="-0.4041870">
        <ele>358.1</ele>
        <time>2020-11-14T11:23:59Z</time>
      </trkpt>
      <trkpt lat="38.8555450" lon="-0.4041750">
        <ele>358.3</ele>
        <time>2020-11-14T11:24:00Z</time>
      </trkpt>
      <trkpt lat="38.8555180" lon="-0.4041640">
        <ele>358.4</ele>
        <time>2020-11-14T11:24:01Z</time>
      </trkpt>
      <trkpt lat="38.8554880" lon="-0.4041570">
        <ele>358.6</ele>
        <time>2020-11-14T11:24:02Z</time>
      </trkpt>
      <trkpt lat="38.8554570" lon="-0.4041540">
        <ele>358.7</ele>
        <time>2020-11-14T11:24:03Z</time>
      </trkpt>
      <trkpt lat="38.8554260" lon="-0.4041540">
        <ele>358.9</ele>
        <time>2020-11-14T11:24:04Z</time>
      </trkpt>
      <trkpt lat="38.8553980" lon="-0.4041570">
        <ele>359.1</ele>
        <time>2020-11-14T11:24:05Z</time>
      </trkpt>
      <trkpt lat="38.8553600" lon="-0.4041680">
        <ele>359.3</ele>
        <time>2020-11-14T11:24:06Z</time>
      </trkpt>
      <trkpt lat="38.8553470" lon="-0.4041730">
        <ele>359.4</ele>
        <time>2020-11-14T11:24:07Z</time>
      </trkpt>
      <trkpt lat="38.8553120" lon="-0.4041920">
        <ele>359.6</ele>
        <time>2020-11-14T11:24:08Z</time>
      </trkpt>
      <trkpt lat="38.8553010" lon="-0.4041980">
        <ele>359.7</ele>
        <time>2020-11-14T11:24:09Z</time>
      </trkpt>
      <trkpt lat="38.8552680" lon="-0.4042210">
        <ele>360.0</ele>
        <time>2020-11-14T11:24:10Z</time>
      </trkpt>
      <trkpt lat="38.8552570" lon="-0.4042290">
        <ele>360.0</ele>
        <time>2020-11-14T11:24:11Z</time>
      </trkpt>
      <trkpt lat="38.8552260" lon="-0.4042570">
        <ele>360.3</ele>
        <time>2020-11-14T11:24:12Z</time>
      </trkpt>
      <trkpt lat="38.8552160" lon="-0.4042680">
        <ele>360.4</ele>
        <time>2020-11-14T11:24:13Z</time>
      </trkpt>
      <trkpt lat="38.8551900" lon="-0.4043010">
        <ele>360.7</ele>
        <time>2020-11-14T11:24:14Z</time>
      </trkpt>
      <trkpt lat="38.8551810" lon="-0.4043110">
        <ele>360.8</ele>
        <time>2020-11-14T11:24:15Z</time>
      </trkpt>
      <trkpt lat="38.8551580" lon="-0.4043470">
        <ele>361.0</ele>
        <time>2020-11-14T11:24:16Z</time>
      </trkpt>
      <trkpt lat="38.8551510" lon="-0.4043590">
        <ele>361.1</ele>
        <time>2020-11-14T11:24:17Z</time>
      </trkpt>
      <trkpt lat="38.8551310" lon="-0.4043990">
        <ele>361.4</ele>
        <time>2020-11-14T11:24:18Z</time>
      </trkpt>
      <trkpt lat="38.8551240" lon="-0.4044120">
        <ele>361.5</ele>
        <time>2020-11-14T11:24:19Z</time>
      </trkpt>
      <trkpt lat="38.8551050" lon="-0.4044530">
        <ele>361.8</ele>
        <time>2020-11-14T11:24:20Z</time>
      </trkpt>
      <trkpt lat="38.8550980" lon="-0.4044660">
        <ele>361.9</ele>
        <time>2020-11-14T11:24:21Z</time>
      </trkpt>
      <trkpt lat="38.8550780" lon="-0.4045040">
        <ele>362.2</ele>
        <time>2020-11-14T11:24:22Z</time>
      </trkpt>
      <trkpt lat="38.8550720" lon="-0.4045160">
        <ele>362.2</ele>
        <time>2020-11-14T11:24:23Z</time>
      </trkpt>
      <trkpt lat="38.8550560" lon="-0.4045470">
        <ele>362.5</ele>
        <time>2020-11-14T11:24:24Z</time>
      </trkpt>
      <trkpt lat="38.8550500" lon="-0.4045560">
        <ele>362.5</ele>
        <time>2020-11-14T11:24:25Z</time>
      </trkpt>
      <trkpt lat="38.8550290" lon="-0.4045850">
        <ele>362.8</ele>
        <time>2020-11-14T11:24:26Z</time>
      </trkpt>
      <trkpt lat="38.8550210" lon="-0.4045930">
        <ele>362.8</ele>
        <time>2020-11-14T11:24:27Z</time>
      </trkpt>
      <trkpt lat="38.8549910" lon="-0.4046230">
        <ele>363.1</ele>
        <time>2020-11-14T11:24:28Z</time>
      </trkpt>
      <trkpt lat="38.8549800" lon="-0.4046340">
        <ele>363.2</ele>
        <time>2020-11-14T11:24:29Z</time>
      </trkpt>
      <trkpt lat="38.8549570" lon="-0.4046530">
        <ele>363.4</ele>
        <time>2020-11-14T11:24:30Z</time>
      </trkpt>
      <trkpt lat="38.8549220" lon="-0.4046760">
        <ele>363.7</ele>
        <time>2020-11-14T11:24:31Z</time>
      </trkpt>
      <trkpt lat="38.8549100" lon="-0.4046830">
        <ele>363.8</ele>
        <time>2020-11-14T11:24:32Z</time>
      </trkpt>
      <trkpt lat="38.8548750" lon="-0.4047060">
        <ele>364.1</ele>
        <time>2020-11-14T11:24:33Z</time>
      </trkpt>
      <trkpt lat="38.8548630" lon="-0.4047140">
        <ele>364.2</ele>
        <time>2020-11-14T11:24:34Z</time>
      </trkpt>
      <trkpt lat="38.8548330" lon="-0.4047440">
        <ele>364.5</ele>
        <time>2020-11-14T11:24:35Z</time>
      </trkpt>
      <trkpt lat="38.8548220" lon="-0.4047530">
        <ele>364.6</ele>
        <time>2020-11-14T11:24:36Z</time>
      </trkpt>
      <trkpt lat="38.8547910" lon="-0.4047770">
        <ele>364.9</ele>
        <time>2020-11-14T11:24:37Z</time>
      </trkpt>
      <trkpt lat="38.8547810" lon="-0.4047840">
        <ele>365.0</ele>
        <time>2020-11-14T11:24:38Z</time>
      </trkpt>
      <trkpt lat="38.8547500" lon="-0.4048050">
        <ele>365.2</ele>
        <time>2020-11-14T11:24:39Z</time>
      </trkpt>
      <trkpt lat="38.8547400" lon="-0.4048110">
        <ele>365.3</ele>
        <time>2020-11-14T11:24:40Z</time>
      </trkpt>
      <trkpt lat="38.8547060" lon="-0.4048300">
        <ele>365.6</ele>
        <time>2020-11-14T11:24:41Z</time>
      </trkpt>
      <trkpt lat="38.8546930" lon="-0.4048360">
        <ele>365.7</ele>
        <time>2020-11-14T11:24:42Z</time>
      </trkpt>
      <trkpt lat="38.8546570" lon="-0.4048530">
        <ele>366.0</ele>
        <time>2020-11-14T11:24:43Z</time>
      </trkpt>
      <trkpt lat="38.8546450" lon="-0.4048590">
        <ele>366.1</ele>
        <time>2020-11-14T11:24:44Z</time>
      </trkpt>
      <trkpt lat="38.8546100" lon="-0.4048750">
        <ele>366.3</ele>
        <time>2020-11-14T11:24:45Z</time>
      </trkpt>
      <trkpt lat="38.8545980" lon="-0.4048800">
        <ele>366.4</ele>
        <time>2020-11-14T11:24:46Z</time>
      </trkpt>
      <trkpt lat="38.8545620" lon="-0.4048950">
        <ele>366.7</ele>
        <time>2020-11-14T11:24:47Z</time>
      </trkpt>
      <trkpt lat="38.8545500" lon="-0.4049000">
        <ele>366.8</ele>
        <time>2020-11-14T11:24:48Z</time>
      </trkpt>
      <trkpt lat="38.8545170" lon="-0.4049130">
        <ele>367.1</ele>
        <time>2020-11-14T11:24:49Z</time>
      </trkpt>
      <trkpt lat="38.8545050" lon="-0.4049170">
        <ele>367.2</ele>
        <time>2020-11-14T11:24:50Z</time>
      </trkpt>
      <trkpt lat="38.8544760" lon="-0.4049270">
        <ele>367.4</ele>
        <time>2020-11-14T11:24:51Z</time>
      </trkpt>
      <trkpt lat="38.8544670" lon="-0.4049300">
        <ele>367.5</ele>
        <time>2020-11-14T11:24:52Z</time>
      </trkpt>
      <trkpt lat="38.8544410" lon="-0.4049380">
        <ele>367.7</ele>
        <time>2020-11-14T11:24:53Z</time>
      </trkpt>
      <trkpt lat="38.8544320" lon="-0.4049410">
        <ele>367.7</ele>
        <time>2020-11-14T11:24:54Z</time>
      </trkpt>
      <trkpt lat="38.8544040" lon="-0.4049550">
        <ele>368.0</ele>
        <time>2020-11-14T11:24:55Z</time>
      </trkpt>
      <trkpt lat="38.8543950" lon="-0.4049600">
        <ele>368.0</ele>
        <time>2020-11-14T11:24:56Z</time>
      </trkpt>
      <trkpt lat="38.8543660" lon="-0.4049780">
        <ele>368.3</ele>
        <time>2020-11-14T11:24:57Z</time>
      </trkpt>
      <trkpt lat="38.8543560" lon="-0.4049830">
        <ele>368.3</ele>
        <time>2020-11-14T11:24:58Z</time>
      </trkpt>
      <trkpt lat="38.8543280" lon="-0.4050010">
        <ele>368.5</ele>
        <time>2020-11-14T11:24:59Z</time>
      </trkpt>
      <trkpt lat="38.8543180" lon="-0.4050070">
        <ele>368.6</ele>
        <time>2020-11-14T11:25:00Z</time>
      </trkpt>
      <trkpt lat="38.8542890" lon="-0.4050310">
        <ele>368.8</ele>
        <time>2020-11-14T11:25:01Z</time>
      </trkpt>
      <trkpt lat="38.8542790" lon="-0.4050390">
        <ele>368.9</ele>
        <time>2020-11-14T11:25:02Z</time>
      </trkpt>
      <trkpt lat="38.8542490" lon="-0.4050680">
        <ele>369.2</ele>
        <time>2020-11-14T11:25:03Z</time>
      </trkpt>
      <trkpt lat="38.8542380" lon="-0.4050770">
        <ele>369.2</ele>
        <time>2020-11-14T11:25:04Z</time>
      </trkpt>
      <trkpt lat="38.8542070" lon="-0.4051050">
        <ele>369.5</ele>
        <time>2020-11-14T11:25:05Z</time>
      </trkpt>
      <trkpt lat="38.8541970" lon="-0.4051140">
        <ele>369.6</ele>
        <time>2020-11-14T11:25:06Z</time>
      </trkpt>
      <trkpt lat="38.8541700" lon="-0.4051420">
        <ele>369.8</ele>
        <time>2020-11-14T11:25:07Z</time>
      </trkpt>
      <trkpt lat="38.8541620" lon="-0.4051520">
        <ele>369.9</ele>
        <time>2020-11-14T11:25:08Z</time>
      </trkpt>
      <trkpt lat="38.8541380" lon="-0.4051820">
        <ele>370.1</ele>
        <time>2020-11-14T11:25:09Z</time>
      </trkpt>
      <trkpt lat="38.8541290" lon="-0.4051930">
        <ele>370.2</ele>
        <time>2020-11-14T11:25:10Z</time>
      </trkpt>
      <trkpt lat="38.8541060" lon="-0.4052300">
        <ele>370.4</ele>
        <time>2020-11-14T11:25:11Z</time>
      </trkpt>
      <trkpt lat="38.8540980" lon="-0.4052430">
        <ele>370.5</ele>
        <time>2020-11-14T11:25:12Z</time>
      </trkpt>
      <trkpt lat="38.8540810" lon="-0.4052890">
        <ele>370.7</ele>
        <time>2020-11-14T11:25:13Z</time>
      </trkpt>
      <trkpt lat="38.8540760" lon="-0.4053050">
        <ele>370.8</ele>
        <time>2020-11-14T11:25:14Z</time>
      </trkpt>
      <trkpt lat="38.8540610" lon="-0.4053500">
        <ele>371.1</ele>
        <time>2020-11-14T11:25:15Z</time>
      </trkpt>
      <trkpt lat="38.8540560" lon="-0.4053650">
        <ele>371.2</ele>
        <time>2020-11-14T11:25:16Z</time>
      </trkpt>
      <trkpt lat="38.8540410" lon="-0.4054100">
        <ele>371.4</ele>
        <time>2020-11-14T11:25:17Z</time>
      </trkpt>
      <trkpt lat="38.8540350" lon="-0.4054250">
        <ele>371.5</ele>
        <time>2020-11-14T11:25:18Z</time>
      </trkpt>
      <trkpt lat="38.8540170" lon="-0.4054710">
        <ele>371.8</ele>
        <time>2020-11-14T11:25:19Z</time>
      </trkpt>
      <trkpt lat="38.8540100" lon="-0.4054860">
        <ele>371.9</ele>
        <time>2020-11-14T11:25:20Z</time>
      </trkpt>
      <trkpt lat="38.8539920" lon="-0.4055300">
        <ele>372.1</ele>
        <time>2020-11-14T11:25:21Z</time>
      </trkpt>
      <trkpt lat="38.8539860" lon="-0.4055450">
        <ele>372.2</ele>
        <time>2020-11-14T11:25:22Z</time>
      </trkpt>
      <trkpt lat="38.8539700" lon="-0.4055850">
        <ele>372.5</ele>
        <time>2020-11-14T11:25:23Z</time>
      </trkpt>
      <trkpt lat="38.8539650" lon="-0.4055980">
        <ele>372.5</ele>
        <time>2020-11-14T11:25:24Z</time>
      </trkpt>
      <trkpt lat="38.8539500" lon="-0.4056430">
        <ele>372.8</ele>
        <time>2020-11-14T11:25:25Z</time>
      </trkpt>
      <trkpt lat="38.8539450" lon="-0.4056570">
        <ele>372.9</ele>
        <time>2020-11-14T11:25:26Z</time>
      </trkpt>
      <trkpt lat="38.8539310" lon="-0.4057020">
        <ele>373.2</ele>
        <time>2020-11-14T11:25:27Z</time>
      </trkpt>
      <trkpt lat="38.8539250" lon="-0.4057170">
        <ele>373.2</ele>
        <time>2020-11-14T11:25:28Z</time>
      </trkpt>
      <trkpt lat="38.8539060" lon="-0.4057630">
        <ele>373.5</ele>
        <time>2020-11-14T11:25:29Z</time>
      </trkpt>
      <trkpt lat="38.8538990" lon="-0.4057780">
        <ele>373.6</ele>
        <time>2020-11-14T11:25:30Z</time>
      </trkpt>
      <trkpt lat="38.8538840" lon="-0.4058070">
        <ele>373.8</ele>
        <time>2020-11-14T11:25:31Z</time>
      </trkpt>
      <trkpt lat="38.8538670" lon="-0.4058370">
        <ele>374.0</ele>
        <time>2020-11-14T11:25:32Z</time>
      </trkpt>
      <trkpt lat="38.8538500" lon="-0.4058660">
        <ele>374.2</ele>
        <time>2020-11-14T11:25:33Z</time>
      </trkpt>
      <trkpt lat="38.8538320" lon="-0.4058930">
        <ele>374.3</ele>
        <time>2020-11-14T11:25:34Z</time>
      </trkpt>
      <trkpt lat="38.8538130" lon="-0.4059190">
        <ele>374.5</ele>
        <time>2020-11-14T11:25:35Z</time>
      </trkpt>
      <trkpt lat="38.8537840" lon="-0.4059540">
        <ele>374.7</ele>
        <time>2020-11-14T11:25:36Z</time>
      </trkpt>
      <trkpt lat="38.8537730" lon="-0.4059650">
        <ele>374.8</ele>
        <time>2020-11-14T11:25:37Z</time>
      </trkpt>
      <trkpt lat="38.8537410" lon="-0.4059940">
        <ele>375.0</ele>
        <time>2020-11-14T11:25:38Z</time>
      </trkpt>
      <trkpt lat="38.8537290" lon="-0.4060020">
        <ele>375.1</ele>
        <time>2020-11-14T11:25:39Z</time>
      </trkpt>
      <trkpt lat="38.8537040" lon="-0.4060170">
        <ele>375.3</ele>
        <time>2020-11-14T11:25:40Z</time>
      </trkpt>
      <trkpt lat="38.8536790" lon="-0.4060300">
        <ele>375.4</ele>
        <time>2020-11-14T11:25:41Z</time>
      </trkpt>
      <trkpt lat="38.8536410" lon="-0.4060470">
        <ele>375.6</ele>
        <time>2020-11-14T11:25:42Z</time>
      </trkpt>
      <trkpt lat="38.8536280" lon="-0.4060510">
        <ele>375.7</ele>
        <time>2020-11-14T11:25:43Z</time>
      </trkpt>
      <trkpt lat="38.8535890" lon="-0.4060650">
        <ele>375.9</ele>
        <time>2020-11-14T11:25:44Z</time>
      </trkpt>
      <trkpt lat="38.8535760" lon="-0.4060700">
        <ele>375.9</ele>
        <time>2020-11-14T11:25:45Z</time>
      </trkpt>
      <trkpt lat="38.8535500" lon="-0.4060820">
        <ele>376.1</ele>
        <time>2020-11-14T11:25:46Z</time>
      </trkpt>
      <trkpt lat="38.8535240" lon="-0.4060940">
        <ele>376.2</ele>
        <time>2020-11-14T11:25:47Z</time>
      </trkpt>
      <trkpt lat="38.8534970" lon="-0.4061060">
        <ele>376.3</ele>
        <time>2020-11-14T11:25:48Z</time>
      </trkpt>
      <trkpt lat="38.8534710" lon="-0.4061160">
        <ele>376.5</ele>
        <time>2020-11-14T11:25:49Z</time>
      </trkpt>
      <trkpt lat="38.8534440" lon="-0.4061260">
        <ele>376.6</ele>
        <time>2020-11-14T11:25:50Z</time>
      </trkpt>
      <trkpt lat="38.8534170" lon="-0.4061340">
        <ele>376.7</ele>
        <time>2020-11-14T11:25:51Z</time>
      </trkpt>
      <trkpt lat="38.8533900" lon="-0.4061430">
        <ele>376.9</ele>
        <time>2020-11-14T11:25:52Z</time>
      </trkpt>
      <trkpt lat="38.8533640" lon="-0.4061520">
        <ele>377.0</ele>
        <time>2020-11-14T11:25:53Z</time>
      </trkpt>
      <trkpt lat="38.8533380" lon="-0.4061620">
        <ele>377.2</ele>
        <time>2020-11-14T11:25:54Z</time>
      </trkpt>
      <trkpt lat="38.8533110" lon="-0.4061710">
        <ele>377.3</ele>
        <time>2020-11-14T11:25:55Z</time>
      </trkpt>
      <trkpt lat="38.8532850" lon="-0.4061810">
        <ele>377.4</ele>
        <time>2020-11-14T11:25:56Z</time>
      </trkpt>
      <trkpt lat="38.8532590" lon="-0.4061920">
        <ele>377.6</ele>
        <time>2020-11-14T11:25:57Z</time>
      </trkpt>
      <trkpt lat="38.8532330" lon="-0.4062040">
        <ele>377.7</ele>
        <time>2020-11-14T11:25:58Z</time>
      </trkpt>
      <trkpt lat="38.8531980" lon="-0.4062280">
        <ele>377.9</ele>
        <time>2020-11-14T11:25:59Z</time>
      </trkpt>
      <trkpt lat="38.8531860" lon="-0.4062360">
        <ele>378.0</ele>
        <time>2020-11-14T11:26:00Z</time>
      </trkpt>
      <trkpt lat="38.8531510" lon="-0.4062600">
        <ele>378.2</ele>
        <time>2020-11-14T11:26:01Z</time>
      </trkpt>
      <trkpt lat="38.8531390" lon="-0.4062680">
        <ele>378.3</ele>
        <time>2020-11-14T11:26:02Z</time>
      </trkpt>
      <trkpt lat="38.8531050" lon="-0.4062930">
        <ele>378.5</ele>
        <time>2020-11-14T11:26:03Z</time>
      </trkpt>
      <trkpt lat="38.8530930" lon="-0.4063010">
        <ele>378.6</ele>
        <time>2020-11-14T11:26:04Z</time>
      </trkpt>
      <trkpt lat="38.8530600" lon="-0.4063290">
        <ele>378.8</ele>
        <time>2020-11-14T11:26:05Z</time>
      </trkpt>
      <trkpt lat="38.8530490" lon="-0.4063380">
        <ele>378.9</ele>
        <time>2020-11-14T11:26:06Z</time>
      </trkpt>
      <trkpt lat="38.8530270" lon="-0.4063590">
        <ele>379.1</ele>
        <time>2020-11-14T11:26:07Z</time>
      </trkpt>
      <trkpt lat="38.8529950" lon="-0.4063890">
        <ele>379.3</ele>
        <time>2020-11-14T11:26:08Z</time>
      </trkpt>
      <trkpt lat="38.8529840" lon="-0.4063990">
        <ele>379.4</ele>
        <time>2020-11-14T11:26:09Z</time>
      </trkpt>
      <trkpt lat="38.8529530" lon="-0.4064260">
        <ele>379.6</ele>
        <time>2020-11-14T11:26:10Z</time>
      </trkpt>
      <trkpt lat="38.8529420" lon="-0.4064340">
        <ele>379.7</ele>
        <time>2020-11-14T11:26:11Z</time>
      </trkpt>
      <trkpt lat="38.8529130" lon="-0.4064560">
        <ele>379.9</ele>
        <time>2020-11-14T11:26:12Z</time>
      </trkpt>
      <trkpt lat="38.8529040" lon="-0.4064630">
        <ele>380.0</ele>
        <time>2020-11-14T11:26:13Z</time>
      </trkpt>
      <trkpt lat="38.8528790" lon="-0.4064810">
        <ele>380.2</ele>
        <time>2020-11-14T11:26:14Z</time>
      </trkpt>
      <trkpt lat="38.8528710" lon="-0.4064860">
        <ele>380.2</ele>
        <time>2020-11-14T11:26:15Z</time>
      </trkpt>
      <trkpt lat="38.8528440" lon="-0.4065060">
        <ele>380.5</ele>
        <time>2020-11-14T11:26:16Z</time>
      </trkpt>
      <trkpt lat="38.8528340" lon="-0.4065140">
        <ele>380.5</ele>
        <time>2020-11-14T11:26:17Z</time>
      </trkpt>
      <trkpt lat="38.8528080" lon="-0.4065370">
        <ele>380.8</ele>
        <time>2020-11-14T11:26:18Z</time>
      </trkpt>
      <trkpt lat="38.8528000" lon="-0.4065440">
        <ele>380.8</ele>
        <time>2020-11-14T11:26:19Z</time>
      </trkpt>
      <trkpt lat="38.8527810" lon="-0.4065700">
        <ele>381.0</ele>
        <time>2020-11-14T11:26:20Z</time>
      </trkpt>
      <trkpt lat="38.8527740" lon="-0.4065790">
        <ele>381.1</ele>
        <time>2020-11-14T11:26:21Z</time>
      </trkpt>
      <trkpt lat="38.8527510" lon="-0.4066090">
        <ele>381.3</ele>
        <time>2020-11-14T11:26:22Z</time>
      </trkpt>
      <trkpt lat="38.8527430" lon="-0.4066190">
        <ele>381.4</ele>
        <time>2020-11-14T11:26:23Z</time>
      </trkpt>
      <trkpt lat="38.8527190" lon="-0.4066480">
        <ele>381.6</ele>
        <time>2020-11-14T11:26:24Z</time>
      </trkpt>
      <trkpt lat="38.8527100" lon="-0.4066570">
        <ele>381.7</ele>
        <time>2020-11-14T11:26:25Z</time>
      </trkpt>
      <trkpt lat="38.8526820" lon="-0.4066860">
        <ele>382.0</ele>
        <time>2020-11-14T11:26:26Z</time>
      </trkpt>
      <trkpt lat="38.8526720" lon="-0.4066950">
        <ele>382.1</ele>
        <time>2020-11-14T11:26:27Z</time>
      </trkpt>
      <trkpt lat="38.8526420" lon="-0.4067200">
        <ele>382.4</ele>
        <time>2020-11-14T11:26:28Z</time>
      </trkpt>
      <trkpt lat="38.8526320" lon="-0.4067280">
        <ele>382.5</ele>
        <time>2020-11-14T11:26:29Z</time>
      </trkpt>
      <trkpt lat="38.8526020" lon="-0.4067500">
        <ele>382.7</ele>
        <time>2020-11-14T11:26:30Z</time>
      </trkpt>
      <trkpt lat="38.8525920" lon="-0.4067560">
        <ele>382.8</ele>
        <time>2020-11-14T11:26:31Z</time>
      </trkpt>
      <trkpt lat="38.8525630" lon="-0.4067780">
        <ele>383.1</ele>
        <time>2020-11-14T11:26:32Z</time>
      </trkpt>
      <trkpt lat="38.8525540" lon="-0.4067860">
        <ele>383.2</ele>
        <time>2020-11-14T11:26:33Z</time>
      </trkpt>
      <trkpt lat="38.8525260" lon="-0.4068100">
        <ele>383.4</ele>
        <time>2020-11-14T11:26:34Z</time>
      </trkpt>
      <trkpt lat="38.8525170" lon="-0.4068170">
        <ele>383.5</ele>
        <time>2020-11-14T11:26:35Z</time>
      </trkpt>
      <trkpt lat="38.8524900" lon="-0.4068400">
        <ele>383.8</ele>
        <time>2020-11-14T11:26:36Z</time>
      </trkpt>
      <trkpt lat="38.8524800" lon="-0.4068470">
        <ele>383.9</ele>
        <time>2020-11-14T11:26:37Z</time>
      </trkpt>
      <trkpt lat="38.8524510" lon="-0.4068680">
        <ele>384.2</ele>
        <time>2020-11-14T11:26:38Z</time>
      </trkpt>
      <trkpt lat="38.8524410" lon="-0.4068750">
        <ele>384.3</ele>
        <time>2020-11-14T11:26:39Z</time>
      </trkpt>
      <trkpt lat="38.8524130" lon="-0.4068960">
        <ele>384.6</ele>
        <time>2020-11-14T11:26:40Z</time>
      </trkpt>
      <trkpt lat="38.8524040" lon="-0.4069030">
        <ele>384.7</ele>
        <time>2020-11-14T11:26:41Z</time>
      </trkpt>
      <trkpt lat="38.8523750" lon="-0.4069220">
        <ele>385.0</ele>
        <time>2020-11-14T11:26:42Z</time>
      </trkpt>
      <trkpt lat="38.8523650" lon="-0.4069280">
        <ele>385.1</ele>
        <time>2020-11-14T11:26:43Z</time>
      </trkpt>
      <trkpt lat="38.8523360" lon="-0.4069440">
        <ele>385.3</ele>
        <time>2020-11-14T11:26:44Z</time>
      </trkpt>
      <trkpt lat="38.8523260" lon="-0.4069490">
        <ele>385.5</ele>
        <time>2020-11-14T11:26:45Z</time>
      </trkpt>
      <trkpt lat="38.8522980" lon="-0.4069660">
        <ele>385.8</ele>
        <time>2020-11-14T11:26:46Z</time>
      </trkpt>
      <trkpt lat="38.8522890" lon="-0.4069710">
        <ele>385.9</ele>
        <time>2020-11-14T11:26:47Z</time>
      </trkpt>
      <trkpt lat="38.8522620" lon="-0.4069930">
        <ele>386.2</ele>
        <time>2020-11-14T11:26:48Z</time>
      </trkpt>
      <trkpt lat="38.8522520" lon="-0.4070000">
        <ele>386.3</ele>
        <time>2020-11-14T11:26:49Z</time>
      </trkpt>
      <trkpt lat="38.8522240" lon="-0.4070190">
        <ele>386.6</ele>
        <time>2020-11-14T11:26:50Z</time>
      </trkpt>
      <trkpt lat="38.8522140" lon="-0.4070250">
        <ele>386.7</ele>
        <time>2020-11-14T11:26:51Z</time>
      </trkpt>
      <trkpt lat="38.8521860" lon="-0.4070390">
        <ele>387.0</ele>
        <time>2020-11-14T11:26:52Z</time>
      </trkpt>
      <trkpt lat="38.8521760" lon="-0.4070430">
        <ele>387.1</ele>
        <time>2020-11-14T11:26:53Z</time>
      </trkpt>
      <trkpt lat="38.8521490" lon="-0.4070570">
        <ele>387.4</ele>
        <time>2020-11-14T11:26:54Z</time>
      </trkpt>
      <trkpt lat="38.8521390" lon="-0.4070610">
        <ele>387.5</ele>
        <time>2020-11-14T11:26:55Z</time>
      </trkpt>
      <trkpt lat="38.8521140" lon="-0.4070760">
        <ele>387.8</ele>
        <time>2020-11-14T11:26:56Z</time>
      </trkpt>
      <trkpt lat="38.8521050" lon="-0.4070820">
        <ele>387.9</ele>
        <time>2020-11-14T11:26:57Z</time>
      </trkpt>
      <trkpt lat="38.8520760" lon="-0.4070990">
        <ele>388.3</ele>
        <time>2020-11-14T11:26:58Z</time>
      </trkpt>
      <trkpt lat="38.8520670" lon="-0.4071040">
        <ele>388.4</ele>
        <time>2020-11-14T11:26:59Z</time>
      </trkpt>
      <trkpt lat="38.8520400" lon="-0.4071170">
        <ele>388.7</ele>
        <time>2020-11-14T11:27:00Z</time>
      </trkpt>
      <trkpt lat="38.8520300" lon="-0.4071200">
        <ele>388.8</ele>
        <time>2020-11-14T11:27:01Z</time>
      </trkpt>
      <trkpt lat="38.8520030" lon="-0.4071350">
        <ele>389.1</ele>
        <time>2020-11-14T11:27:02Z</time>
      </trkpt>
      <trkpt lat="38.8519940" lon="-0.4071400">
        <ele>389.2</ele>
        <time>2020-11-14T11:27:03Z</time>
      </trkpt>
      <trkpt lat="38.8519690" lon="-0.4071590">
        <ele>389.5</ele>
        <time>2020-11-14T11:27:04Z</time>
      </trkpt>
      <trkpt lat="38.8519610" lon="-0.4071650">
        <ele>389.6</ele>
        <time>2020-11-14T11:27:05Z</time>
      </trkpt>
      <trkpt lat="38.8519360" lon="-0.4071850">
        <ele>390.0</ele>
        <time>2020-11-14T11:27:06Z</time>
      </trkpt>
      <trkpt lat="38.8519270" lon="-0.4071910">
        <ele>390.1</ele>
        <time>2020-11-14T11:27:07Z</time>
      </trkpt>
      <trkpt lat="38.8519020" lon="-0.4072110">
        <ele>390.4</ele>
        <time>2020-11-14T11:27:08Z</time>
      </trkpt>
      <trkpt lat="38.8518940" lon="-0.4072180">
        <ele>390.5</ele>
        <time>2020-11-14T11:27:09Z</time>
      </trkpt>
      <trkpt lat="38.8518690" lon="-0.4072350">
        <ele>390.8</ele>
        <time>2020-11-14T11:27:10Z</time>
      </trkpt>
      <trkpt lat="38.8518600" lon="-0.4072390">
        <ele>390.9</ele>
        <time>2020-11-14T11:27:11Z</time>
      </trkpt>
      <trkpt lat="38.8518330" lon="-0.4072490">
        <ele>391.2</ele>
        <time>2020-11-14T11:27:12Z</time>
      </trkpt>
      <trkpt lat="38.8518240" lon="-0.4072520">
        <ele>391.3</ele>
        <time>2020-11-14T11:27:13Z</time>
      </trkpt>
      <trkpt lat="38.8518070" lon="-0.4072590">
        <ele>391.5</ele>
        <time>2020-11-14T11:27:14Z</time>
      </trkpt>
      <trkpt lat="38.8517900" lon="-0.4072670">
        <ele>391.7</ele>
        <time>2020-11-14T11:27:15Z</time>
      </trkpt>
      <trkpt lat="38.8517740" lon="-0.4072760">
        <ele>391.9</ele>
        <time>2020-11-14T11:27:16Z</time>
      </trkpt>
      <trkpt lat="38.8517580" lon="-0.4072860">
        <ele>392.1</ele>
        <time>2020-11-14T11:27:17Z</time>
      </trkpt>
      <trkpt lat="38.8517300" lon="-0.4073020">
        <ele>392.4</ele>
        <time>2020-11-14T11:27:18Z</time>
      </trkpt>
      <trkpt lat="38.8517200" lon="-0.4073070">
        <ele>392.5</ele>
        <time>2020-11-14T11:27:19Z</time>
      </trkpt>
      <trkpt lat="38.8516880" lon="-0.4073190">
        <ele>392.9</ele>
        <time>2020-11-14T11:27:20Z</time>
      </trkpt>
      <trkpt lat="38.8516770" lon="-0.4073230">
        <ele>393.0</ele>
        <time>2020-11-14T11:27:21Z</time>
      </trkpt>
      <trkpt lat="38.8516450" lon="-0.4073300">
        <ele>393.4</ele>
        <time>2020-11-14T11:27:22Z</time>
      </trkpt>
      <trkpt lat="38.8516340" lon="-0.4073310">
        <ele>393.5</ele>
        <time>2020-11-14T11:27:23Z</time>
      </trkpt>
      <trkpt lat="38.8516030" lon="-0.4073330">
        <ele>393.8</ele>
        <time>2020-11-14T11:27:24Z</time>
      </trkpt>
      <trkpt lat="38.8515920" lon="-0.4073340">
        <ele>394.0</ele>
        <time>2020-11-14T11:27:25Z</time>
      </trkpt>
      <trkpt lat="38.8515600" lon="-0.4073420">
        <ele>394.3</ele>
        <time>2020-11-14T11:27:26Z</time>
      </trkpt>
      <trkpt lat="38.8515490" lon="-0.4073450">
        <ele>394.4</ele>
        <time>2020-11-14T11:27:27Z</time>
      </trkpt>
      <trkpt lat="38.8515170" lon="-0.4073530">
        <ele>394.7</ele>
        <time>2020-11-14T11:27:28Z</time>
      </trkpt>
      <trkpt lat="38.8515070" lon="-0.4073550">
        <ele>394.8</ele>
        <time>2020-11-14T11:27:29Z</time>
      </trkpt>
      <trkpt lat="38.8514760" lon="-0.4073610">
        <ele>395.2</ele>
        <time>2020-11-14T11:27:30Z</time>
      </trkpt>
      <trkpt lat="38.8514650" lon="-0.4073620">
        <ele>395.3</ele>
        <time>2020-11-14T11:27:31Z</time>
      </trkpt>
      <trkpt lat="38.8514350" lon="-0.4073710">
        <ele>395.6</ele>
        <time>2020-11-14T11:27:32Z</time>
      </trkpt>
      <trkpt lat="38.8514250" lon="-0.4073740">
        <ele>395.7</ele>
        <time>2020-11-14T11:27:33Z</time>
      </trkpt>
      <trkpt lat="38.8513960" lon="-0.4073870">
        <ele>396.0</ele>
        <time>2020-11-14T11:27:34Z</time>
      </trkpt>
      <trkpt lat="38.8513860" lon="-0.4073910">
        <ele>396.1</ele>
        <time>2020-11-14T11:27:35Z</time>
      </trkpt>
      <trkpt lat="38.8513550" lon="-0.4073980">
        <ele>396.4</ele>
        <time>2020-11-14T11:27:36Z</time>
      </trkpt>
      <trkpt lat="38.8513450" lon="-0.4073990">
        <ele>396.5</ele>
        <time>2020-11-14T11:27:37Z</time>
      </trkpt>
      <trkpt lat="38.8513130" lon="-0.4073990">
        <ele>396.8</ele>
        <time>2020-11-14T11:27:38Z</time>
      </trkpt>
      <trkpt lat="38.8513020" lon="-0.4073990">
        <ele>396.9</ele>
        <time>2020-11-14T11:27:39Z</time>
      </trkpt>
      <trkpt lat="38.8512710" lon="-0.4073970">
        <ele>397.2</ele>
        <time>2020-11-14T11:27:40Z</time>
      </trkpt>
      <trkpt lat="38.8512600" lon="-0.4073970">
        <ele>397.3</ele>
        <time>2020-11-14T11:27:41Z</time>
      </trkpt>
      <trkpt lat="38.8512300" lon="-0.4074030">
        <ele>397.5</ele>
        <time>2020-11-14T11:27:42Z</time>
      </trkpt>
      <trkpt lat="38.8512200" lon="-0.4074050">
        <ele>397.6</ele>
        <time>2020-11-14T11:27:43Z</time>
      </trkpt>
      <trkpt lat="38.8511900" lon="-0.4074130">
        <ele>397.9</ele>
        <time>2020-11-14T11:27:44Z</time>
      </trkpt>
      <trkpt lat="38.8511810" lon="-0.4074160">
        <ele>398.0</ele>
        <time>2020-11-14T11:27:45Z</time>
      </trkpt>
      <trkpt lat="38.8511530" lon="-0.4074260">
        <ele>398.3</ele>
        <time>2020-11-14T11:27:46Z</time>
      </trkpt>
      <trkpt lat="38.8511430" lon="-0.4074290">
        <ele>398.3</ele>
        <time>2020-11-14T11:27:47Z</time>
      </trkpt>
      <trkpt lat="38.8511110" lon="-0.4074380">
        <ele>398.6</ele>
        <time>2020-11-14T11:27:48Z</time>
      </trkpt>
      <trkpt lat="38.8511000" lon="-0.4074400">
        <ele>398.7</ele>
        <time>2020-11-14T11:27:49Z</time>
      </trkpt>
      <trkpt lat="38.8510680" lon="-0.4074450">
        <ele>399.0</ele>
        <time>2020-11-14T11:27:50Z</time>
      </trkpt>
      <trkpt lat="38.8510580" lon="-0.4074470">
        <ele>399.1</ele>
        <time>2020-11-14T11:27:51Z</time>
      </trkpt>
      <trkpt lat="38.8510290" lon="-0.4074540">
        <ele>399.3</ele>
        <time>2020-11-14T11:27:52Z</time>
      </trkpt>
      <trkpt lat="38.8510190" lon="-0.4074570">
        <ele>399.4</ele>
        <time>2020-11-14T11:27:53Z</time>
      </trkpt>
      <trkpt lat="38.8509900" lon="-0.4074680">
        <ele>399.6</ele>
        <time>2020-11-14T11:27:54Z</time>
      </trkpt>
      <trkpt lat="38.8509800" lon="-0.4074710">
        <ele>399.7</ele>
        <time>2020-11-14T11:27:55Z</time>
      </trkpt>
      <trkpt lat="38.8509480" lon="-0.4074780">
        <ele>400.0</ele>
        <time>2020-11-14T11:27:56Z</time>
      </trkpt>
      <trkpt lat="38.8509370" lon="-0.4074800">
        <ele>400.1</ele>
        <time>2020-11-14T11:27:57Z</time>
      </trkpt>
      <trkpt lat="38.8509050" lon="-0.4074860">
        <ele>400.3</ele>
        <time>2020-11-14T11:27:58Z</time>
      </trkpt>
      <trkpt lat="38.8508940" lon="-0.4074880">
        <ele>400.4</ele>
        <time>2020-11-14T11:27:59Z</time>
      </trkpt>
      <trkpt lat="38.8508630" lon="-0.4074950">
        <ele>400.7</ele>
        <time>2020-11-14T11:28:00Z</time>
      </trkpt>
      <trkpt lat="38.8508520" lon="-0.4074970">
        <ele>400.8</ele>
        <time>2020-11-14T11:28:01Z</time>
      </trkpt>
      <trkpt lat="38.8508210" lon="-0.4075070">
        <ele>401.0</ele>
        <time>2020-11-14T11:28:02Z</time>
      </trkpt>
      <trkpt lat="38.8508100" lon="-0.4075110">
        <ele>401.1</ele>
        <time>2020-11-14T11:28:03Z</time>
      </trkpt>
      <trkpt lat="38.8507770" lon="-0.4075310">
        <ele>401.4</ele>
        <time>2020-11-14T11:28:04Z</time>
      </trkpt>
      <trkpt lat="38.8507660" lon="-0.4075370">
        <ele>401.5</ele>
        <time>2020-11-14T11:28:05Z</time>
      </trkpt>
      <trkpt lat="38.8507350" lon="-0.4075570">
        <ele>401.8</ele>
        <time>2020-11-14T11:28:06Z</time>
      </trkpt>
      <trkpt lat="38.8507240" lon="-0.4075620">
        <ele>401.9</ele>
        <time>2020-11-14T11:28:07Z</time>
      </trkpt>
      <trkpt lat="38.8506910" lon="-0.4075720">
        <ele>402.1</ele>
        <time>2020-11-14T11:28:08Z</time>
      </trkpt>
      <trkpt lat="38.8506790" lon="-0.4075750">
        <ele>402.2</ele>
        <time>2020-11-14T11:28:09Z</time>
      </trkpt>
      <trkpt lat="38.8506440" lon="-0.4075810">
        <ele>402.5</ele>
        <time>2020-11-14T11:28:10Z</time>
      </trkpt>
      <trkpt lat="38.8506310" lon="-0.4075830">
        <ele>402.6</ele>
        <time>2020-11-14T11:28:11Z</time>
      </trkpt>
      <trkpt lat="38.8505970" lon="-0.4075900">
        <ele>402.9</ele>
        <time>2020-11-14T11:28:12Z</time>
      </trkpt>
      <trkpt lat="38.8505860" lon="-0.4075920">
        <ele>402.9</ele>
        <time>2020-11-14T11:28:13Z</time>
      </trkpt>
      <trkpt lat="38.8505520" lon="-0.4076010">
        <ele>403.2</ele>
        <time>2020-11-14T11:28:14Z</time>
      </trkpt>
      <trkpt lat="38.8505400" lon="-0.4076040">
        <ele>403.3</ele>
        <time>2020-11-14T11:28:15Z</time>
      </trkpt>
      <trkpt lat="38.8505070" lon="-0.4076160">
        <ele>403.6</ele>
        <time>2020-11-14T11:28:16Z</time>
      </trkpt>
      <trkpt lat="38.8504960" lon="-0.4076200">
        <ele>403.7</ele>
        <time>2020-11-14T11:28:17Z</time>
      </trkpt>
      <trkpt lat="38.8504640" lon="-0.4076320">
        <ele>404.0</ele>
        <time>2020-11-14T11:28:18Z</time>
      </trkpt>
      <trkpt lat="38.8504530" lon="-0.4076360">
        <ele>404.0</ele>
        <time>2020-11-14T11:28:19Z</time>
      </trkpt>
      <trkpt lat="38.8504210" lon="-0.4076490">
        <ele>404.3</ele>
        <time>2020-11-14T11:28:20Z</time>
      </trkpt>
      <trkpt lat="38.8504100" lon="-0.4076530">
        <ele>404.4</ele>
        <time>2020-11-14T11:28:21Z</time>
      </trkpt>
      <trkpt lat="38.8503770" lon="-0.4076670">
        <ele>404.7</ele>
        <time>2020-11-14T11:28:22Z</time>
      </trkpt>
      <trkpt lat="38.8503660" lon="-0.4076720">
        <ele>404.7</ele>
        <time>2020-11-14T11:28:23Z</time>
      </trkpt>
      <trkpt lat="38.8503340" lon="-0.4076880">
        <ele>405.0</ele>
        <time>2020-11-14T11:28:24Z</time>
      </trkpt>
      <trkpt lat="38.8503230" lon="-0.4076930">
        <ele>405.1</ele>
        <time>2020-11-14T11:28:25Z</time>
      </trkpt>
      <trkpt lat="38.8502900" lon="-0.4077060">
        <ele>405.3</ele>
        <time>2020-11-14T11:28:26Z</time>
      </trkpt>
      <trkpt lat="38.8502790" lon="-0.4077100">
        <ele>405.4</ele>
        <time>2020-11-14T11:28:27Z</time>
      </trkpt>
      <trkpt lat="38.8502480" lon="-0.4077260">
        <ele>405.6</ele>
        <time>2020-11-14T11:28:28Z</time>
      </trkpt>
      <trkpt lat="38.8502390" lon="-0.4077330">
        <ele>405.7</ele>
        <time>2020-11-14T11:28:29Z</time>
      </trkpt>
      <trkpt lat="38.8502100" lon="-0.4077520">
        <ele>405.9</ele>
        <time>2020-11-14T11:28:30Z</time>
      </trkpt>
      <trkpt lat="38.8502000" lon="-0.4077580">
        <ele>406.0</ele>
        <time>2020-11-14T11:28:31Z</time>
      </trkpt>
      <trkpt lat="38.8501740" lon="-0.4077750">
        <ele>406.2</ele>
        <time>2020-11-14T11:28:32Z</time>
      </trkpt>
      <trkpt lat="38.8501650" lon="-0.4077790">
        <ele>406.3</ele>
        <time>2020-11-14T11:28:33Z</time>
      </trkpt>
      <trkpt lat="38.8501330" lon="-0.4077920">
        <ele>406.5</ele>
        <time>2020-11-14T11:28:34Z</time>
      </trkpt>
      <trkpt lat="38.8501220" lon="-0.4077960">
        <ele>406.6</ele>
        <time>2020-11-14T11:28:35Z</time>
      </trkpt>
      <trkpt lat="38.8500890" lon="-0.4078080">
        <ele>406.8</ele>
        <time>2020-11-14T11:28:36Z</time>
      </trkpt>
      <trkpt lat="38.8500770" lon="-0.4078110">
        <ele>406.9</ele>
        <time>2020-11-14T11:28:37Z</time>
      </trkpt>
      <trkpt lat="38.8500430" lon="-0.4078190">
        <ele>407.1</ele>
        <time>2020-11-14T11:28:38Z</time>
      </trkpt>
      <trkpt lat="38.8500310" lon="-0.4078210">
        <ele>407.2</ele>
        <time>2020-11-14T11:28:39Z</time>
      </trkpt>
      <trkpt lat="38.8499980" lon="-0.4078310">
        <ele>407.4</ele>
        <time>2020-11-14T11:28:40Z</time>
      </trkpt>
      <trkpt lat="38.8499860" lon="-0.4078350">
        <ele>407.5</ele>
        <time>2020-11-14T11:28:41Z</time>
      </trkpt>
      <trkpt lat="38.8499520" lon="-0.4078550">
        <ele>407.7</ele>
        <time>2020-11-14T11:28:42Z</time>
      </trkpt>
      <trkpt lat="38.8499400" lon="-0.4078610">
        <ele>407.8</ele>
        <time>2020-11-14T11:28:43Z</time>
      </trkpt>
      <trkpt lat="38.8499060" lon="-0.4078820">
        <ele>408.0</ele>
        <time>2020-11-14T11:28:44Z</time>
      </trkpt>
      <trkpt lat="38.8498940" lon="-0.4078890">
        <ele>408.1</ele>
        <time>2020-11-14T11:28:45Z</time>
      </trkpt>
      <trkpt lat="38.8498610" lon="-0.4079110">
        <ele>408.3</ele>
        <time>2020-11-14T11:28:46Z</time>
      </trkpt>
      <trkpt lat="38.8498490" lon="-0.4079180">
        <ele>408.4</ele>
        <time>2020-11-14T11:28:47Z</time>
      </trkpt>
      <trkpt lat="38.8498200" lon="-0.4079470">
        <ele>408.6</ele>
        <time>2020-11-14T11:28:48Z</time>
      </trkpt>
      <trkpt lat="38.8498100" lon="-0.4079580">
        <ele>408.7</ele>
        <time>2020-11-14T11:28:49Z</time>
      </trkpt>
      <trkpt lat="38.8497880" lon="-0.4080010">
        <ele>409.0</ele>
        <time>2020-11-14T11:28:50Z</time>
      </trkpt>
      <trkpt lat="38.8497810" lon="-0.4080170">
        <ele>409.0</ele>
        <time>2020-11-14T11:28:51Z</time>
      </trkpt>
      <trkpt lat="38.8497720" lon="-0.4080520">
        <ele>409.2</ele>
        <time>2020-11-14T11:28:52Z</time>
      </trkpt>
      <trkpt lat="38.8497650" lon="-0.4080890">
        <ele>409.2</ele>
        <time>2020-11-14T11:28:53Z</time>
      </trkpt>
      <trkpt lat="38.8497620" lon="-0.4081290">
        <ele>409.1</ele>
        <time>2020-11-14T11:28:54Z</time>
      </trkpt>
      <trkpt lat="38.8497630" lon="-0.4081740">
        <ele>409.0</ele>
        <time>2020-11-14T11:28:55Z</time>
      </trkpt>
      <trkpt lat="38.8497720" lon="-0.4082250">
        <ele>408.9</ele>
        <time>2020-11-14T11:28:56Z</time>
      </trkpt>
      <trkpt lat="38.8497890" lon="-0.4082780">
        <ele>408.8</ele>
        <time>2020-11-14T11:28:57Z</time>
      </trkpt>
      <trkpt lat="38.8498140" lon="-0.4083310">
        <ele>408.6</ele>
        <time>2020-11-14T11:28:58Z</time>
      </trkpt>
      <trkpt lat="38.8498460" lon="-0.4083810">
        <ele>408.4</ele>
        <time>2020-11-14T11:28:59Z</time>
      </trkpt>
      <trkpt lat="38.8498850" lon="-0.4084260">
        <ele>408.2</ele>
        <time>2020-11-14T11:29:00Z</time>
      </trkpt>
      <trkpt lat="38.8499310" lon="-0.4084700">
        <ele>408.0</ele>
        <time>2020-11-14T11:29:01Z</time>
      </trkpt>
      <trkpt lat="38.8499820" lon="-0.4085080">
        <ele>407.8</ele>
        <time>2020-11-14T11:29:02Z</time>
      </trkpt>
      <trkpt lat="38.8500340" lon="-0.4085470">
        <ele>407.6</ele>
        <time>2020-11-14T11:29:03Z</time>
      </trkpt>
      <trkpt lat="38.8500870" lon="-0.4085850">
        <ele>407.4</ele>
        <time>2020-11-14T11:29:04Z</time>
      </trkpt>
      <trkpt lat="38.8501680" lon="-0.4086130">
        <ele>407.0</ele>
        <time>2020-11-14T11:29:05Z</time>
      </trkpt>
      <trkpt lat="38.8502180" lon="-0.4086490">
        <ele>406.8</ele>
        <time>2020-11-14T11:29:06Z</time>
      </trkpt>
      <trkpt lat="38.8502720" lon="-0.4086870">
        <ele>406.5</ele>
        <time>2020-11-14T11:29:07Z</time>
      </trkpt>
      <trkpt lat="38.8503150" lon="-0.4087190">
        <ele>406.3</ele>
        <time>2020-11-14T11:29:08Z</time>
      </trkpt>
      <trkpt lat="38.8503800" lon="-0.4087460">
        <ele>406.0</ele>
        <time>2020-11-14T11:29:09Z</time>
      </trkpt>
      <trkpt lat="38.8504400" lon="-0.4087620">
        <ele>405.7</ele>
        <time>2020-11-14T11:29:10Z</time>
      </trkpt>
      <trkpt lat="38.8505030" lon="-0.4087820">
        <ele>405.4</ele>
        <time>2020-11-14T11:29:11Z</time>
      </trkpt>
      <trkpt lat="38.8505710" lon="-0.4087890">
        <ele>405.1</ele>
        <time>2020-11-14T11:29:12Z</time>
      </trkpt>
      <trkpt lat="38.8506420" lon="-0.4088020">
        <ele>404.7</ele>
        <time>2020-11-14T11:29:13Z</time>
      </trkpt>
      <trkpt lat="38.8507130" lon="-0.4088090">
        <ele>404.3</ele>
        <time>2020-11-14T11:29:14Z</time>
      </trkpt>
      <trkpt lat="38.8507870" lon="-0.4088140">
        <ele>403.9</ele>
        <time>2020-11-14T11:29:15Z</time>
      </trkpt>
      <trkpt lat="38.8508620" lon="-0.4088260">
        <ele>403.5</ele>
        <time>2020-11-14T11:29:16Z</time>
      </trkpt>
      <trkpt lat="38.8509380" lon="-0.4088410">
        <ele>403.0</ele>
        <time>2020-11-14T11:29:17Z</time>
      </trkpt>
      <trkpt lat="38.8510120" lon="-0.4088440">
        <ele>402.6</ele>
        <time>2020-11-14T11:29:18Z</time>
      </trkpt>
      <trkpt lat="38.8511020" lon="-0.4088560">
        <ele>402.0</ele>
        <time>2020-11-14T11:29:19Z</time>
      </trkpt>
      <trkpt lat="38.8511900" lon="-0.4088770">
        <ele>401.5</ele>
        <time>2020-11-14T11:29:20Z</time>
      </trkpt>
      <trkpt lat="38.8512740" lon="-0.4088920">
        <ele>401.1</ele>
        <time>2020-11-14T11:29:21Z</time>
      </trkpt>
      <trkpt lat="38.8513620" lon="-0.4089000">
        <ele>400.5</ele>
        <time>2020-11-14T11:29:22Z</time>
      </trkpt>
      <trkpt lat="38.8514520" lon="-0.4089140">
        <ele>399.9</ele>
        <time>2020-11-14T11:29:23Z</time>
      </trkpt>
      <trkpt lat="38.8515450" lon="-0.4089190">
        <ele>399.4</ele>
        <time>2020-11-14T11:29:24Z</time>
      </trkpt>
      <trkpt lat="38.8516390" lon="-0.4089340">
        <ele>398.9</ele>
        <time>2020-11-14T11:29:25Z</time>
      </trkpt>
      <trkpt lat="38.8517230" lon="-0.4089520">
        <ele>398.5</ele>
        <time>2020-11-14T11:29:26Z</time>
      </trkpt>
      <trkpt lat="38.8518020" lon="-0.4090040">
        <ele>398.1</ele>
        <time>2020-11-14T11:29:27Z</time>
      </trkpt>
      <trkpt lat="38.8518640" lon="-0.4090780">
        <ele>397.7</ele>
        <time>2020-11-14T11:29:28Z</time>
      </trkpt>
      <trkpt lat="38.8518990" lon="-0.4091670">
        <ele>397.4</ele>
        <time>2020-11-14T11:29:29Z</time>
      </trkpt>
      <trkpt lat="38.8518970" lon="-0.4092590">
        <ele>397.1</ele>
        <time>2020-11-14T11:29:30Z</time>
      </trkpt>
      <trkpt lat="38.8518730" lon="-0.4093550">
        <ele>396.8</ele>
        <time>2020-11-14T11:29:31Z</time>
      </trkpt>
      <trkpt lat="38.8518440" lon="-0.4094440">
        <ele>396.6</ele>
        <time>2020-11-14T11:29:32Z</time>
      </trkpt>
      <trkpt lat="38.8518040" lon="-0.4095320">
        <ele>396.3</ele>
        <time>2020-11-14T11:29:33Z</time>
      </trkpt>
      <trkpt lat="38.8517660" lon="-0.4096210">
        <ele>396.1</ele>
        <time>2020-11-14T11:29:34Z</time>
      </trkpt>
      <trkpt lat="38.8517240" lon="-0.4097120">
        <ele>395.8</ele>
        <time>2020-11-14T11:29:35Z</time>
      </trkpt>
      <trkpt lat="38.8516850" lon="-0.4098020">
        <ele>395.6</ele>
        <time>2020-11-14T11:29:36Z</time>
      </trkpt>
      <trkpt lat="38.8516450" lon="-0.4098870">
        <ele>395.4</ele>
        <time>2020-11-14T11:29:37Z</time>
      </trkpt>
      <trkpt lat="38.8516030" lon="-0.4099760">
        <ele>395.1</ele>
        <time>2020-11-14T11:29:38Z</time>
      </trkpt>
      <trkpt lat="38.8515620" lon="-0.4100620">
        <ele>394.9</ele>
        <time>2020-11-14T11:29:39Z</time>
      </trkpt>
      <trkpt lat="38.8515210" lon="-0.4101510">
        <ele>394.8</ele>
        <time>2020-11-14T11:29:40Z</time>
      </trkpt>
      <trkpt lat="38.8514790" lon="-0.4102400">
        <ele>394.6</ele>
        <time>2020-11-14T11:29:41Z</time>
      </trkpt>
      <trkpt lat="38.8514350" lon="-0.4103260">
        <ele>394.4</ele>
        <time>2020-11-14T11:29:42Z</time>
      </trkpt>
      <trkpt lat="38.8513970" lon="-0.4104160">
        <ele>394.3</ele>
        <time>2020-11-14T11:29:43Z</time>
      </trkpt>
      <trkpt lat="38.8513550" lon="-0.4105040">
        <ele>394.2</ele>
        <time>2020-11-14T11:29:44Z</time>
      </trkpt>
      <trkpt lat="38.8513150" lon="-0.4105910">
        <ele>394.0</ele>
        <time>2020-11-14T11:29:45Z</time>
      </trkpt>
      <trkpt lat="38.8512750" lon="-0.4106820">
        <ele>393.9</ele>
        <time>2020-11-14T11:29:46Z</time>
      </trkpt>
      <trkpt lat="38.8512410" lon="-0.4107550">
        <ele>393.8</ele>
        <time>2020-11-14T11:29:47Z</time>
      </trkpt>
      <trkpt lat="38.8512050" lon="-0.4108400">
        <ele>393.8</ele>
        <time>2020-11-14T11:29:48Z</time>
      </trkpt>
      <trkpt lat="38.8511670" lon="-0.4109260">
        <ele>393.7</ele>
        <time>2020-11-14T11:29:49Z</time>
      </trkpt>
      <trkpt lat="38.8511280" lon="-0.4110080">
        <ele>393.6</ele>
        <time>2020-11-14T11:29:50Z</time>
      </trkpt>
      <trkpt lat="38.8510930" lon="-0.4110950">
        <ele>393.5</ele>
        <time>2020-11-14T11:29:51Z</time>
      </trkpt>
      <trkpt lat="38.8510560" lon="-0.4111850">
        <ele>393.4</ele>
        <time>2020-11-14T11:29:52Z</time>
      </trkpt>
      <trkpt lat="38.8510230" lon="-0.4112830">
        <ele>393.3</ele>
        <time>2020-11-14T11:29:53Z</time>
      </trkpt>
      <trkpt lat="38.8509900" lon="-0.4113670">
        <ele>393.2</ele>
        <time>2020-11-14T11:29:54Z</time>
      </trkpt>
      <trkpt lat="38.8509570" lon="-0.4114640">
        <ele>393.1</ele>
        <time>2020-11-14T11:29:55Z</time>
      </trkpt>
      <trkpt lat="38.8509220" lon="-0.4115540">
        <ele>393.1</ele>
        <time>2020-11-14T11:29:56Z</time>
      </trkpt>
      <trkpt lat="38.8508900" lon="-0.4116400">
        <ele>393.0</ele>
        <time>2020-11-14T11:29:57Z</time>
      </trkpt>
      <trkpt lat="38.8508640" lon="-0.4117270">
        <ele>392.9</ele>
        <time>2020-11-14T11:29:58Z</time>
      </trkpt>
      <trkpt lat="38.8508230" lon="-0.4118230">
        <ele>392.8</ele>
        <time>2020-11-14T11:29:59Z</time>
      </trkpt>
      <trkpt lat="38.8507860" lon="-0.4119150">
        <ele>392.7</ele>
        <time>2020-11-14T11:30:00Z</time>
      </trkpt>
      <trkpt lat="38.8507430" lon="-0.4120070">
        <ele>392.6</ele>
        <time>2020-11-14T11:30:01Z</time>
      </trkpt>
      <trkpt lat="38.8507070" lon="-0.4120970">
        <ele>392.4</ele>
        <time>2020-11-14T11:30:02Z</time>
      </trkpt>
      <trkpt lat="38.8506700" lon="-0.4121920">
        <ele>392.2</ele>
        <time>2020-11-14T11:30:03Z</time>
      </trkpt>
      <trkpt lat="38.8506310" lon="-0.4122780">
        <ele>392.0</ele>
        <time>2020-11-14T11:30:04Z</time>
      </trkpt>
      <trkpt lat="38.8505900" lon="-0.4123640">
        <ele>391.8</ele>
        <time>2020-11-14T11:30:05Z</time>
      </trkpt>
      <trkpt lat="38.8505430" lon="-0.4124470">
        <ele>391.6</ele>
        <time>2020-11-14T11:30:06Z</time>
      </trkpt>
      <trkpt lat="38.8504950" lon="-0.4125330">
        <ele>391.3</ele>
        <time>2020-11-14T11:30:07Z</time>
      </trkpt>
      <trkpt lat="38.8504450" lon="-0.4126140">
        <ele>391.1</ele>
        <time>2020-11-14T11:30:08Z</time>
      </trkpt>
      <trkpt lat="38.8503890" lon="-0.4126960">
        <ele>390.8</ele>
        <time>2020-11-14T11:30:09Z</time>
      </trkpt>
      <trkpt lat="38.8503320" lon="-0.4127750">
        <ele>390.5</ele>
        <time>2020-11-14T11:30:10Z</time>
      </trkpt>
      <trkpt lat="38.8502750" lon="-0.4128520">
        <ele>390.3</ele>
        <time>2020-11-14T11:30:11Z</time>
      </trkpt>
      <trkpt lat="38.8502230" lon="-0.4129300">
        <ele>390.0</ele>
        <time>2020-11-14T11:30:12Z</time>
      </trkpt>
      <trkpt lat="38.8501780" lon="-0.4129990">
        <ele>389.7</ele>
        <time>2020-11-14T11:30:13Z</time>
      </trkpt>
      <trkpt lat="38.8501250" lon="-0.4130890">
        <ele>389.3</ele>
        <time>2020-11-14T11:30:14Z</time>
      </trkpt>
      <trkpt lat="38.8500750" lon="-0.4131760">
        <ele>389.0</ele>
        <time>2020-11-14T11:30:15Z</time>
      </trkpt>
      <trkpt lat="38.8500270" lon="-0.4132630">
        <ele>388.6</ele>
        <time>2020-11-14T11:30:16Z</time>
      </trkpt>
      <trkpt lat="38.8499910" lon="-0.4133580">
        <ele>388.2</ele>
        <time>2020-11-14T11:30:17Z</time>
      </trkpt>
      <trkpt lat="38.8499540" lon="-0.4134590">
        <ele>387.7</ele>
        <time>2020-11-14T11:30:18Z</time>
      </trkpt>
      <trkpt lat="38.8499170" lon="-0.4135390">
        <ele>387.3</ele>
        <time>2020-11-14T11:30:19Z</time>
      </trkpt>
      <trkpt lat="38.8498700" lon="-0.4136380">
        <ele>386.7</ele>
        <time>2020-11-14T11:30:20Z</time>
      </trkpt>
      <trkpt lat="38.8498300" lon="-0.4137300">
        <ele>386.2</ele>
        <time>2020-11-14T11:30:21Z</time>
      </trkpt>
      <trkpt lat="38.8497860" lon="-0.4138330">
        <ele>385.6</ele>
        <time>2020-11-14T11:30:22Z</time>
      </trkpt>
      <trkpt lat="38.8497290" lon="-0.4139360">
        <ele>384.9</ele>
        <time>2020-11-14T11:30:23Z</time>
      </trkpt>
      <trkpt lat="38.8496710" lon="-0.4140260">
        <ele>384.2</ele>
        <time>2020-11-14T11:30:24Z</time>
      </trkpt>
      <trkpt lat="38.8495890" lon="-0.4141030">
        <ele>383.5</ele>
        <time>2020-11-14T11:30:25Z</time>
      </trkpt>
      <trkpt lat="38.8495120" lon="-0.4141840">
        <ele>382.7</ele>
        <time>2020-11-14T11:30:26Z</time>
      </trkpt>
      <trkpt lat="38.8494200" lon="-0.4142410">
        <ele>382.0</ele>
        <time>2020-11-14T11:30:27Z</time>
      </trkpt>
      <trkpt lat="38.8493170" lon="-0.4143000">
        <ele>381.2</ele>
        <time>2020-11-14T11:30:28Z</time>
      </trkpt>
      <trkpt lat="38.8492150" lon="-0.4143710">
        <ele>380.4</ele>
        <time>2020-11-14T11:30:29Z</time>
      </trkpt>
      <trkpt lat="38.8491150" lon="-0.4144450">
        <ele>379.6</ele>
        <time>2020-11-14T11:30:30Z</time>
      </trkpt>
      <trkpt lat="38.8490100" lon="-0.4145200">
        <ele>378.7</ele>
        <time>2020-11-14T11:30:31Z</time>
      </trkpt>
      <trkpt lat="38.8489080" lon="-0.4145900">
        <ele>378.0</ele>
        <time>2020-11-14T11:30:32Z</time>
      </trkpt>
      <trkpt lat="38.8488040" lon="-0.4146630">
        <ele>377.3</ele>
        <time>2020-11-14T11:30:33Z</time>
      </trkpt>
      <trkpt lat="38.8487040" lon="-0.4147320">
        <ele>376.7</ele>
        <time>2020-11-14T11:30:34Z</time>
      </trkpt>
      <trkpt lat="38.8486020" lon="-0.4148030">
        <ele>376.2</ele>
        <time>2020-11-14T11:30:35Z</time>
      </trkpt>
      <trkpt lat="38.8484980" lon="-0.4148750">
        <ele>375.7</ele>
        <time>2020-11-14T11:30:36Z</time>
      </trkpt>
      <trkpt lat="38.8483970" lon="-0.4149360">
        <ele>375.3</ele>
        <time>2020-11-14T11:30:37Z</time>
      </trkpt>
      <trkpt lat="38.8482800" lon="-0.4149900">
        <ele>374.9</ele>
        <time>2020-11-14T11:30:38Z</time>
      </trkpt>
      <trkpt lat="38.8481870" lon="-0.4150750">
        <ele>374.7</ele>
        <time>2020-11-14T11:30:39Z</time>
      </trkpt>
      <trkpt lat="38.8481020" lon="-0.4151710">
        <ele>374.6</ele>
        <time>2020-11-14T11:30:40Z</time>
      </trkpt>
      <trkpt lat="38.8480170" lon="-0.4152740">
        <ele>374.6</ele>
        <time>2020-11-14T11:30:41Z</time>
      </trkpt>
      <trkpt lat="38.8479810" lon="-0.4154030">
        <ele>374.7</ele>
        <time>2020-11-14T11:30:42Z</time>
      </trkpt>
      <trkpt lat="38.8479470" lon="-0.4155370">
        <ele>374.8</ele>
        <time>2020-11-14T11:30:43Z</time>
      </trkpt>
      <trkpt lat="38.8479680" lon="-0.4156510">
        <ele>375.0</ele>
        <time>2020-11-14T11:30:44Z</time>
      </trkpt>
      <trkpt lat="38.8480140" lon="-0.4157440">
        <ele>375.3</ele>
        <time>2020-11-14T11:30:45Z</time>
      </trkpt>
      <trkpt lat="38.8480650" lon="-0.4158160">
        <ele>375.6</ele>
        <time>2020-11-14T11:30:46Z</time>
      </trkpt>
      <trkpt lat="38.8481330" lon="-0.4158550">
        <ele>375.9</ele>
        <time>2020-11-14T11:30:47Z</time>
      </trkpt>
      <trkpt lat="38.8482020" lon="-0.4158850">
        <ele>376.2</ele>
        <time>2020-11-14T11:30:48Z</time>
      </trkpt>
      <trkpt lat="38.8482660" lon="-0.4158570">
        <ele>376.5</ele>
        <time>2020-11-14T11:30:49Z</time>
      </trkpt>
      <trkpt lat="38.8483250" lon="-0.4158460">
        <ele>376.8</ele>
        <time>2020-11-14T11:30:50Z</time>
      </trkpt>
      <trkpt lat="38.8483750" lon="-0.4158350">
        <ele>376.9</ele>
        <time>2020-11-14T11:30:51Z</time>
      </trkpt>
      <trkpt lat="38.8484280" lon="-0.4158470">
        <ele>377.1</ele>
        <time>2020-11-14T11:30:52Z</time>
      </trkpt>
      <trkpt lat="38.8484840" lon="-0.4158520">
        <ele>377.3</ele>
        <time>2020-11-14T11:30:53Z</time>
      </trkpt>
      <trkpt lat="38.8485390" lon="-0.4158630">
        <ele>377.5</ele>
        <time>2020-11-14T11:30:54Z</time>
      </trkpt>
      <trkpt lat="38.8485900" lon="-0.4158860">
        <ele>377.7</ele>
        <time>2020-11-14T11:30:55Z</time>
      </trkpt>
      <trkpt lat="38.8486350" lon="-0.4159210">
        <ele>377.9</ele>
        <time>2020-11-14T11:30:56Z</time>
      </trkpt>
      <trkpt lat="38.8486770" lon="-0.4159670">
        <ele>378.1</ele>
        <time>2020-11-14T11:30:57Z</time>
      </trkpt>
      <trkpt lat="38.8487140" lon="-0.4160150">
        <ele>378.2</ele>
        <time>2020-11-14T11:30:58Z</time>
      </trkpt>
      <trkpt lat="38.8487530" lon="-0.4160540">
        <ele>378.4</ele>
        <time>2020-11-14T11:30:59Z</time>
      </trkpt>
      <trkpt lat="38.8487900" lon="-0.4160880">
        <ele>378.5</ele>
        <time>2020-11-14T11:31:00Z</time>
      </trkpt>
      <trkpt lat="38.8488140" lon="-0.4161150">
        <ele>378.6</ele>
        <time>2020-11-14T11:31:01Z</time>
      </trkpt>
      <trkpt lat="38.8488500" lon="-0.4161740">
        <ele>378.7</ele>
        <time>2020-11-14T11:31:02Z</time>
      </trkpt>
      <trkpt lat="38.8488870" lon="-0.4162150">
        <ele>378.8</ele>
        <time>2020-11-14T11:31:03Z</time>
      </trkpt>
      <trkpt lat="38.8489180" lon="-0.4162680">
        <ele>378.9</ele>
        <time>2020-11-14T11:31:04Z</time>
      </trkpt>
      <trkpt lat="38.8489510" lon="-0.4163000">
        <ele>379.0</ele>
        <time>2020-11-14T11:31:05Z</time>
      </trkpt>
      <trkpt lat="38.8489850" lon="-0.4163400">
        <ele>379.1</ele>
        <time>2020-11-14T11:31:06Z</time>
      </trkpt>
      <trkpt lat="38.8490120" lon="-0.4163840">
        <ele>379.2</ele>
        <time>2020-11-14T11:31:07Z</time>
      </trkpt>
      <trkpt lat="38.8490400" lon="-0.4164290">
        <ele>379.3</ele>
        <time>2020-11-14T11:31:08Z</time>
      </trkpt>
      <trkpt lat="38.8490700" lon="-0.4164690">
        <ele>379.4</ele>
        <time>2020-11-14T11:31:09Z</time>
      </trkpt>
      <trkpt lat="38.8491050" lon="-0.4165190">
        <ele>379.6</ele>
        <time>2020-11-14T11:31:10Z</time>
      </trkpt>
      <trkpt lat="38.8491370" lon="-0.4165620">
        <ele>379.7</ele>
        <time>2020-11-14T11:31:11Z</time>
      </trkpt>
      <trkpt lat="38.8491720" lon="-0.4166060">
        <ele>379.8</ele>
        <time>2020-11-14T11:31:12Z</time>
      </trkpt>
      <trkpt lat="38.8492040" lon="-0.4166580">
        <ele>379.9</ele>
        <time>2020-11-14T11:31:13Z</time>
      </trkpt>
      <trkpt lat="38.8492290" lon="-0.4167110">
        <ele>380.0</ele>
        <time>2020-11-14T11:31:14Z</time>
      </trkpt>
      <trkpt lat="38.8492580" lon="-0.4167460">
        <ele>380.1</ele>
        <time>2020-11-14T11:31:15Z</time>
      </trkpt>
      <trkpt lat="38.8492940" lon="-0.4167750">
        <ele>380.0</ele>
        <time>2020-11-14T11:31:16Z</time>
      </trkpt>
      <trkpt lat="38.8493250" lon="-0.4168070">
        <ele>379.7</ele>
        <time>2020-11-14T11:31:17Z</time>
      </trkpt>
      <trkpt lat="38.8493530" lon="-0.4168400">
        <ele>379.6</ele>
        <time>2020-11-14T11:31:18Z</time>
      </trkpt>
      <trkpt lat="38.8493780" lon="-0.4168810">
        <ele>379.6</ele>
        <time>2020-11-14T11:31:19Z</time>
      </trkpt>
      <trkpt lat="38.8493910" lon="-0.4169220">
        <ele>379.6</ele>
        <time>2020-11-14T11:31:20Z</time>
      </trkpt>
      <trkpt lat="38.8493940" lon="-0.4169880">
        <ele>379.8</ele>
        <time>2020-11-14T11:31:21Z</time>
      </trkpt>
      <trkpt lat="38.8493870" lon="-0.4170560">
        <ele>379.9</ele>
        <time>2020-11-14T11:31:22Z</time>
      </trkpt>
      <trkpt lat="38.8493660" lon="-0.4171120">
        <ele>380.0</ele>
        <time>2020-11-14T11:31:23Z</time>
      </trkpt>
      <trkpt lat="38.8493340" lon="-0.4171630">
        <ele>380.2</ele>
        <time>2020-11-14T11:31:24Z</time>
      </trkpt>
      <trkpt lat="38.8493030" lon="-0.4172070">
        <ele>380.1</ele>
        <time>2020-11-14T11:31:25Z</time>
      </trkpt>
      <trkpt lat="38.8492640" lon="-0.4172440">
        <ele>380.0</ele>
        <time>2020-11-14T11:31:26Z</time>
      </trkpt>
      <trkpt lat="38.8492180" lon="-0.4172880">
        <ele>380.0</ele>
        <time>2020-11-14T11:31:27Z</time>
      </trkpt>
      <trkpt lat="38.8491680" lon="-0.4173350">
        <ele>379.9</ele>
        <time>2020-11-14T11:31:28Z</time>
      </trkpt>
      <trkpt lat="38.8491230" lon="-0.4173640">
        <ele>379.8</ele>
        <time>2020-11-14T11:31:29Z</time>
      </trkpt>
      <trkpt lat="38.8490700" lon="-0.4174050">
        <ele>379.7</ele>
        <time>2020-11-14T11:31:30Z</time>
      </trkpt>
      <trkpt lat="38.8490180" lon="-0.4174470">
        <ele>379.7</ele>
        <time>2020-11-14T11:31:31Z</time>
      </trkpt>
      <trkpt lat="38.8489630" lon="-0.4174840">
        <ele>379.6</ele>
        <time>2020-11-14T11:31:32Z</time>
      </trkpt>
      <trkpt lat="38.8489080" lon="-0.4175230">
        <ele>379.6</ele>
        <time>2020-11-14T11:31:33Z</time>
      </trkpt>
      <trkpt lat="38.8488530" lon="-0.4175550">
        <ele>379.6</ele>
        <time>2020-11-14T11:31:34Z</time>
      </trkpt>
      <trkpt lat="38.8488020" lon="-0.4175890">
        <ele>379.5</ele>
        <time>2020-11-14T11:31:35Z</time>
      </trkpt>
      <trkpt lat="38.8487500" lon="-0.4176330">
        <ele>379.4</ele>
        <time>2020-11-14T11:31:36Z</time>
      </trkpt>
      <trkpt lat="38.8487000" lon="-0.4176730">
        <ele>379.3</ele>
        <time>2020-11-14T11:31:37Z</time>
      </trkpt>
      <trkpt lat="38.8486460" lon="-0.4177070">
        <ele>379.2</ele>
        <time>2020-11-14T11:31:38Z</time>
      </trkpt>
      <trkpt lat="38.8485980" lon="-0.4177490">
        <ele>379.1</ele>
        <time>2020-11-14T11:31:39Z</time>
      </trkpt>
      <trkpt lat="38.8485410" lon="-0.4177830">
        <ele>378.9</ele>
        <time>2020-11-14T11:31:40Z</time>
      </trkpt>
      <trkpt lat="38.8484930" lon="-0.4178240">
        <ele>378.8</ele>
        <time>2020-11-14T11:31:41Z</time>
      </trkpt>
      <trkpt lat="38.8484390" lon="-0.4178710">
        <ele>378.7</ele>
        <time>2020-11-14T11:31:42Z</time>
      </trkpt>
      <trkpt lat="38.8483830" lon="-0.4179150">
        <ele>378.6</ele>
        <time>2020-11-14T11:31:43Z</time>
      </trkpt>
      <trkpt lat="38.8483340" lon="-0.4179560">
        <ele>378.5</ele>
        <time>2020-11-14T11:31:44Z</time>
      </trkpt>
      <trkpt lat="38.8482800" lon="-0.4180000">
        <ele>378.3</ele>
        <time>2020-11-14T11:31:45Z</time>
      </trkpt>
      <trkpt lat="38.8482310" lon="-0.4180360">
        <ele>378.2</ele>
        <time>2020-11-14T11:31:46Z</time>
      </trkpt>
      <trkpt lat="38.8481890" lon="-0.4180750">
        <ele>378.2</ele>
        <time>2020-11-14T11:31:47Z</time>
      </trkpt>
      <trkpt lat="38.8481420" lon="-0.4181050">
        <ele>378.1</ele>
        <time>2020-11-14T11:31:48Z</time>
      </trkpt>
      <trkpt lat="38.8480950" lon="-0.4181440">
        <ele>378.0</ele>
        <time>2020-11-14T11:31:49Z</time>
      </trkpt>
      <trkpt lat="38.8480450" lon="-0.4181820">
        <ele>377.9</ele>
        <time>2020-11-14T11:31:50Z</time>
      </trkpt>
      <trkpt lat="38.8479960" lon="-0.4182360">
        <ele>377.8</ele>
        <time>2020-11-14T11:31:51Z</time>
      </trkpt>
      <trkpt lat="38.8479520" lon="-0.4182780">
        <ele>377.7</ele>
        <time>2020-11-14T11:31:52Z</time>
      </trkpt>
      <trkpt lat="38.8479080" lon="-0.4183080">
        <ele>377.6</ele>
        <time>2020-11-14T11:31:53Z</time>
      </trkpt>
      <trkpt lat="38.8478650" lon="-0.4183460">
        <ele>377.5</ele>
        <time>2020-11-14T11:31:54Z</time>
      </trkpt>
      <trkpt lat="38.8478160" lon="-0.4183750">
        <ele>377.4</ele>
        <time>2020-11-14T11:31:55Z</time>
      </trkpt>
      <trkpt lat="38.8477650" lon="-0.4184070">
        <ele>377.2</ele>
        <time>2020-11-14T11:31:56Z</time>
      </trkpt>
      <trkpt lat="38.8477110" lon="-0.4184370">
        <ele>377.1</ele>
        <time>2020-11-14T11:31:57Z</time>
      </trkpt>
      <trkpt lat="38.8476680" lon="-0.4184530">
        <ele>377.0</ele>
        <time>2020-11-14T11:31:58Z</time>
      </trkpt>
      <trkpt lat="38.8476230" lon="-0.4184700">
        <ele>376.9</ele>
        <time>2020-11-14T11:31:59Z</time>
      </trkpt>
      <trkpt lat="38.8475710" lon="-0.4184870">
        <ele>376.8</ele>
        <time>2020-11-14T11:32:00Z</time>
      </trkpt>
      <trkpt lat="38.8474960" lon="-0.4185170">
        <ele>376.6</ele>
        <time>2020-11-14T11:32:01Z</time>
      </trkpt>
      <trkpt lat="38.8474410" lon="-0.4185410">
        <ele>376.4</ele>
        <time>2020-11-14T11:32:02Z</time>
      </trkpt>
      <trkpt lat="38.8473760" lon="-0.4185590">
        <ele>376.3</ele>
        <time>2020-11-14T11:32:03Z</time>
      </trkpt>
      <trkpt lat="38.8473190" lon="-0.4185700">
        <ele>376.1</ele>
        <time>2020-11-14T11:32:04Z</time>
      </trkpt>
      <trkpt lat="38.8472590" lon="-0.4185870">
        <ele>376.0</ele>
        <time>2020-11-14T11:32:05Z</time>
      </trkpt>
      <trkpt lat="38.8472060" lon="-0.4186040">
        <ele>375.8</ele>
        <time>2020-11-14T11:32:06Z</time>
      </trkpt>
      <trkpt lat="38.8471440" lon="-0.4186210">
        <ele>375.7</ele>
        <time>2020-11-14T11:32:07Z</time>
      </trkpt>
      <trkpt lat="38.8470840" lon="-0.4186420">
        <ele>375.6</ele>
        <time>2020-11-14T11:32:08Z</time>
      </trkpt>
      <trkpt lat="38.8470230" lon="-0.4186560">
        <ele>375.4</ele>
        <time>2020-11-14T11:32:09Z</time>
      </trkpt>
      <trkpt lat="38.8469620" lon="-0.4186750">
        <ele>375.2</ele>
        <time>2020-11-14T11:32:10Z</time>
      </trkpt>
      <trkpt lat="38.8469020" lon="-0.4186880">
        <ele>375.1</ele>
        <time>2020-11-14T11:32:11Z</time>
      </trkpt>
      <trkpt lat="38.8468450" lon="-0.4187120">
        <ele>374.9</ele>
        <time>2020-11-14T11:32:12Z</time>
      </trkpt>
      <trkpt lat="38.8467830" lon="-0.4187500">
        <ele>374.7</ele>
        <time>2020-11-14T11:32:13Z</time>
      </trkpt>
      <trkpt lat="38.8467280" lon="-0.4187840">
        <ele>374.6</ele>
        <time>2020-11-14T11:32:14Z</time>
      </trkpt>
      <trkpt lat="38.8466800" lon="-0.4188130">
        <ele>374.4</ele>
        <time>2020-11-14T11:32:15Z</time>
      </trkpt>
      <trkpt lat="38.8466390" lon="-0.4188780">
        <ele>374.2</ele>
        <time>2020-11-14T11:32:16Z</time>
      </trkpt>
      <trkpt lat="38.8466150" lon="-0.4189590">
        <ele>374.1</ele>
        <time>2020-11-14T11:32:17Z</time>
      </trkpt>
      <trkpt lat="38.8465920" lon="-0.4190310">
        <ele>373.9</ele>
        <time>2020-11-14T11:32:18Z</time>
      </trkpt>
      <trkpt lat="38.8465710" lon="-0.4191130">
        <ele>373.7</ele>
        <time>2020-11-14T11:32:19Z</time>
      </trkpt>
      <trkpt lat="38.8465570" lon="-0.4192020">
        <ele>373.4</ele>
        <time>2020-11-14T11:32:20Z</time>
      </trkpt>
      <trkpt lat="38.8465390" lon="-0.4192920">
        <ele>373.1</ele>
        <time>2020-11-14T11:32:21Z</time>
      </trkpt>
      <trkpt lat="38.8465300" lon="-0.4193810">
        <ele>372.8</ele>
        <time>2020-11-14T11:32:22Z</time>
      </trkpt>
      <trkpt lat="38.8465330" lon="-0.4194740">
        <ele>372.5</ele>
        <time>2020-11-14T11:32:23Z</time>
      </trkpt>
      <trkpt lat="38.8465200" lon="-0.4195660">
        <ele>372.2</ele>
        <time>2020-11-14T11:32:24Z</time>
      </trkpt>
      <trkpt lat="38.8465180" lon="-0.4196620">
        <ele>371.9</ele>
        <time>2020-11-14T11:32:25Z</time>
      </trkpt>
      <trkpt lat="38.8465210" lon="-0.4197620">
        <ele>371.6</ele>
        <time>2020-11-14T11:32:26Z</time>
      </trkpt>
      <trkpt lat="38.8465170" lon="-0.4198570">
        <ele>371.4</ele>
        <time>2020-11-14T11:32:27Z</time>
      </trkpt>
      <trkpt lat="38.8465170" lon="-0.4199610">
        <ele>371.1</ele>
        <time>2020-11-14T11:32:28Z</time>
      </trkpt>
      <trkpt lat="38.8465120" lon="-0.4200630">
        <ele>370.8</ele>
        <time>2020-11-14T11:32:29Z</time>
      </trkpt>
      <trkpt lat="38.8465070" lon="-0.4201700">
        <ele>370.4</ele>
        <time>2020-11-14T11:32:30Z</time>
      </trkpt>
      <trkpt lat="38.8465050" lon="-0.4202690">
        <ele>370.1</ele>
        <time>2020-11-14T11:32:31Z</time>
      </trkpt>
      <trkpt lat="38.8465040" lon="-0.4203700">
        <ele>369.7</ele>
        <time>2020-11-14T11:32:32Z</time>
      </trkpt>
      <trkpt lat="38.8464840" lon="-0.4204680">
        <ele>369.4</ele>
        <time>2020-11-14T11:32:33Z</time>
      </trkpt>
      <trkpt lat="38.8464520" lon="-0.4205690">
        <ele>369.1</ele>
        <time>2020-11-14T11:32:34Z</time>
      </trkpt>
      <trkpt lat="38.8464120" lon="-0.4206660">
        <ele>368.8</ele>
        <time>2020-11-14T11:32:35Z</time>
      </trkpt>
      <trkpt lat="38.8463710" lon="-0.4207480">
        <ele>368.5</ele>
        <time>2020-11-14T11:32:36Z</time>
      </trkpt>
      <trkpt lat="38.8463160" lon="-0.4208340">
        <ele>368.1</ele>
        <time>2020-11-14T11:32:37Z</time>
      </trkpt>
      <trkpt lat="38.8462520" lon="-0.4209050">
        <ele>367.9</ele>
        <time>2020-11-14T11:32:38Z</time>
      </trkpt>
      <trkpt lat="38.8461890" lon="-0.4209690">
        <ele>367.6</ele>
        <time>2020-11-14T11:32:39Z</time>
      </trkpt>
      <trkpt lat="38.8461180" lon="-0.4210170">
        <ele>367.4</ele>
        <time>2020-11-14T11:32:40Z</time>
      </trkpt>
      <trkpt lat="38.8460480" lon="-0.4210610">
        <ele>367.2</ele>
        <time>2020-11-14T11:32:41Z</time>
      </trkpt>
      <trkpt lat="38.8459740" lon="-0.4211100">
        <ele>367.0</ele>
        <time>2020-11-14T11:32:42Z</time>
      </trkpt>
      <trkpt lat="38.8458980" lon="-0.4211610">
        <ele>366.8</ele>
        <time>2020-11-14T11:32:43Z</time>
      </trkpt>
      <trkpt lat="38.8458240" lon="-0.4211980">
        <ele>366.7</ele>
        <time>2020-11-14T11:32:44Z</time>
      </trkpt>
      <trkpt lat="38.8457430" lon="-0.4212390">
        <ele>366.5</ele>
        <time>2020-11-14T11:32:45Z</time>
      </trkpt>
      <trkpt lat="38.8456620" lon="-0.4212780">
        <ele>366.4</ele>
        <time>2020-11-14T11:32:46Z</time>
      </trkpt>
      <trkpt lat="38.8455810" lon="-0.4213120">
        <ele>366.3</ele>
        <time>2020-11-14T11:32:47Z</time>
      </trkpt>
      <trkpt lat="38.8455060" lon="-0.4213340">
        <ele>366.1</ele>
        <time>2020-11-14T11:32:48Z</time>
      </trkpt>
      <trkpt lat="38.8454330" lon="-0.4213490">
        <ele>366.1</ele>
        <time>2020-11-14T11:32:49Z</time>
      </trkpt>
      <trkpt lat="38.8453550" lon="-0.4213620">
        <ele>366.0</ele>
        <time>2020-11-14T11:32:50Z</time>
      </trkpt>
      <trkpt lat="38.8452410" lon="-0.4213290">
        <ele>365.9</ele>
        <time>2020-11-14T11:32:51Z</time>
      </trkpt>
      <trkpt lat="38.8451700" lon="-0.4213010">
        <ele>365.8</ele>
        <time>2020-11-14T11:32:52Z</time>
      </trkpt>
      <trkpt lat="38.8450800" lon="-0.4212630">
        <ele>365.8</ele>
        <time>2020-11-14T11:32:53Z</time>
      </trkpt>
      <trkpt lat="38.8450180" lon="-0.4212370">
        <ele>365.9</ele>
        <time>2020-11-14T11:32:54Z</time>
      </trkpt>
      <trkpt lat="38.8449560" lon="-0.4212110">
        <ele>365.9</ele>
        <time>2020-11-14T11:32:55Z</time>
      </trkpt>
      <trkpt lat="38.8448930" lon="-0.4211700">
        <ele>366.0</ele>
        <time>2020-11-14T11:32:56Z</time>
      </trkpt>
      <trkpt lat="38.8448290" lon="-0.4211440">
        <ele>366.1</ele>
        <time>2020-11-14T11:32:57Z</time>
      </trkpt>
      <trkpt lat="38.8447710" lon="-0.4211170">
        <ele>366.3</ele>
        <time>2020-11-14T11:32:58Z</time>
      </trkpt>
      <trkpt lat="38.8447180" lon="-0.4210900">
        <ele>366.4</ele>
        <time>2020-11-14T11:32:59Z</time>
      </trkpt>
      <trkpt lat="38.8446660" lon="-0.4210640">
        <ele>366.6</ele>
        <time>2020-11-14T11:33:00Z</time>
      </trkpt>
      <trkpt lat="38.8446060" lon="-0.4210370">
        <ele>366.8</ele>
        <time>2020-11-14T11:33:01Z</time>
      </trkpt>
      <trkpt lat="38.8445490" lon="-0.4210130">
        <ele>367.0</ele>
        <time>2020-11-14T11:33:02Z</time>
      </trkpt>
      <trkpt lat="38.8444980" lon="-0.4209920">
        <ele>367.2</ele>
        <time>2020-11-14T11:33:03Z</time>
      </trkpt>
      <trkpt lat="38.8444510" lon="-0.4209670">
        <ele>367.4</ele>
        <time>2020-11-14T11:33:04Z</time>
      </trkpt>
      <trkpt lat="38.8443970" lon="-0.4209490">
        <ele>367.6</ele>
        <time>2020-11-14T11:33:05Z</time>
      </trkpt>
      <trkpt lat="38.8443440" lon="-0.4209270">
        <ele>367.8</ele>
        <time>2020-11-14T11:33:06Z</time>
      </trkpt>
      <trkpt lat="38.8443020" lon="-0.4209130">
        <ele>367.9</ele>
        <time>2020-11-14T11:33:07Z</time>
      </trkpt>
      <trkpt lat="38.8442480" lon="-0.4209080">
        <ele>368.1</ele>
        <time>2020-11-14T11:33:08Z</time>
      </trkpt>
      <trkpt lat="38.8441980" lon="-0.4209130">
        <ele>368.3</ele>
        <time>2020-11-14T11:33:09Z</time>
      </trkpt>
      <trkpt lat="38.8441440" lon="-0.4209290">
        <ele>368.5</ele>
        <time>2020-11-14T11:33:10Z</time>
      </trkpt>
      <trkpt lat="38.8440960" lon="-0.4209570">
        <ele>368.7</ele>
        <time>2020-11-14T11:33:11Z</time>
      </trkpt>
      <trkpt lat="38.8440510" lon="-0.4209920">
        <ele>368.9</ele>
        <time>2020-11-14T11:33:12Z</time>
      </trkpt>
      <trkpt lat="38.8440030" lon="-0.4210390">
        <ele>369.1</ele>
        <time>2020-11-14T11:33:13Z</time>
      </trkpt>
      <trkpt lat="38.8439720" lon="-0.4210660">
        <ele>369.3</ele>
        <time>2020-11-14T11:33:14Z</time>
      </trkpt>
      <trkpt lat="38.8439420" lon="-0.4211160">
        <ele>369.5</ele>
        <time>2020-11-14T11:33:15Z</time>
      </trkpt>
      <trkpt lat="38.8439140" lon="-0.4211560">
        <ele>369.7</ele>
        <time>2020-11-14T11:33:16Z</time>
      </trkpt>
      <trkpt lat="38.8438980" lon="-0.4212030">
        <ele>369.9</ele>
        <time>2020-11-14T11:33:17Z</time>
      </trkpt>
      <trkpt lat="38.8438820" lon="-0.4212450">
        <ele>370.1</ele>
        <time>2020-11-14T11:33:18Z</time>
      </trkpt>
      <trkpt lat="38.8438650" lon="-0.4213070">
        <ele>370.3</ele>
        <time>2020-11-14T11:33:19Z</time>
      </trkpt>
      <trkpt lat="38.8438530" lon="-0.4213570">
        <ele>370.5</ele>
        <time>2020-11-14T11:33:20Z</time>
      </trkpt>
      <trkpt lat="38.8438300" lon="-0.4214010">
        <ele>370.6</ele>
        <time>2020-11-14T11:33:21Z</time>
      </trkpt>
      <trkpt lat="38.8438220" lon="-0.4214530">
        <ele>370.8</ele>
        <time>2020-11-14T11:33:22Z</time>
      </trkpt>
      <trkpt lat="38.8438120" lon="-0.4215060">
        <ele>371.0</ele>
        <time>2020-11-14T11:33:23Z</time>
      </trkpt>
      <trkpt lat="38.8438070" lon="-0.4215530">
        <ele>371.1</ele>
        <time>2020-11-14T11:33:24Z</time>
      </trkpt>
      <trkpt lat="38.8437960" lon="-0.4216020">
        <ele>371.2</ele>
        <time>2020-11-14T11:33:25Z</time>
      </trkpt>
      <trkpt lat="38.8437840" lon="-0.4216560">
        <ele>371.4</ele>
        <time>2020-11-14T11:33:26Z</time>
      </trkpt>
      <trkpt lat="38.8437730" lon="-0.4217100">
        <ele>371.5</ele>
        <time>2020-11-14T11:33:27Z</time>
      </trkpt>
      <trkpt lat="38.8437620" lon="-0.4217630">
        <ele>371.7</ele>
        <time>2020-11-14T11:33:28Z</time>
      </trkpt>
      <trkpt lat="38.8437520" lon="-0.4218160">
        <ele>371.8</ele>
        <time>2020-11-14T11:33:29Z</time>
      </trkpt>
      <trkpt lat="38.8437430" lon="-0.4218690">
        <ele>372.0</ele>
        <time>2020-11-14T11:33:30Z</time>
      </trkpt>
      <trkpt lat="38.8437320" lon="-0.4219220">
        <ele>372.1</ele>
        <time>2020-11-14T11:33:31Z</time>
      </trkpt>
      <trkpt lat="38.8437230" lon="-0.4219750">
        <ele>372.2</ele>
        <time>2020-11-14T11:33:32Z</time>
      </trkpt>
      <trkpt lat="38.8437140" lon="-0.4220250">
        <ele>372.3</ele>
        <time>2020-11-14T11:33:33Z</time>
      </trkpt>
      <trkpt lat="38.8437030" lon="-0.4220760">
        <ele>372.4</ele>
        <time>2020-11-14T11:33:34Z</time>
      </trkpt>
      <trkpt lat="38.8436920" lon="-0.4221230">
        <ele>372.4</ele>
        <time>2020-11-14T11:33:35Z</time>
      </trkpt>
      <trkpt lat="38.8436790" lon="-0.4221720">
        <ele>372.5</ele>
        <time>2020-11-14T11:33:36Z</time>
      </trkpt>
      <trkpt lat="38.8436610" lon="-0.4222240">
        <ele>372.6</ele>
        <time>2020-11-14T11:33:37Z</time>
      </trkpt>
      <trkpt lat="38.8436380" lon="-0.4222740">
        <ele>372.6</ele>
        <time>2020-11-14T11:33:38Z</time>
      </trkpt>
      <trkpt lat="38.8435970" lon="-0.4223060">
        <ele>372.5</ele>
        <time>2020-11-14T11:33:39Z</time>
      </trkpt>
      <trkpt lat="38.8435630" lon="-0.4223530">
        <ele>372.4</ele>
        <time>2020-11-14T11:33:40Z</time>
      </trkpt>
      <trkpt lat="38.8435210" lon="-0.4223940">
        <ele>372.3</ele>
        <time>2020-11-14T11:33:41Z</time>
      </trkpt>
      <trkpt lat="38.8434720" lon="-0.4224370">
        <ele>372.1</ele>
        <time>2020-11-14T11:33:42Z</time>
      </trkpt>
      <trkpt lat="38.8434280" lon="-0.4224810">
        <ele>371.8</ele>
        <time>2020-11-14T11:33:43Z</time>
      </trkpt>
      <trkpt lat="38.8433800" lon="-0.4225130">
        <ele>371.5</ele>
        <time>2020-11-14T11:33:44Z</time>
      </trkpt>
      <trkpt lat="38.8433230" lon="-0.4225490">
        <ele>371.1</ele>
        <time>2020-11-14T11:33:45Z</time>
      </trkpt>
      <trkpt lat="38.8432530" lon="-0.4225890">
        <ele>370.7</ele>
        <time>2020-11-14T11:33:46Z</time>
      </trkpt>
      <trkpt lat="38.8431850" lon="-0.4226310">
        <ele>370.2</ele>
        <time>2020-11-14T11:33:47Z</time>
      </trkpt>
      <trkpt lat="38.8431210" lon="-0.4226890">
        <ele>369.7</ele>
        <time>2020-11-14T11:33:48Z</time>
      </trkpt>
      <trkpt lat="38.8430580" lon="-0.4227580">
        <ele>369.3</ele>
        <time>2020-11-14T11:33:49Z</time>
      </trkpt>
      <trkpt lat="38.8430090" lon="-0.4228410">
        <ele>368.9</ele>
        <time>2020-11-14T11:33:50Z</time>
      </trkpt>
      <trkpt lat="38.8429640" lon="-0.4229290">
        <ele>368.5</ele>
        <time>2020-11-14T11:33:51Z</time>
      </trkpt>
      <trkpt lat="38.8429230" lon="-0.4230510">
        <ele>368.3</ele>
        <time>2020-11-14T11:33:52Z</time>
      </trkpt>
      <trkpt lat="38.8428960" lon="-0.4231600">
        <ele>368.1</ele>
        <time>2020-11-14T11:33:53Z</time>
      </trkpt>
      <trkpt lat="38.8428790" lon="-0.4232660">
        <ele>368.2</ele>
        <time>2020-11-14T11:33:54Z</time>
      </trkpt>
      <trkpt lat="38.8428710" lon="-0.4233660">
        <ele>368.3</ele>
        <time>2020-11-14T11:33:55Z</time>
      </trkpt>
      <trkpt lat="38.8428610" lon="-0.4234480">
        <ele>368.4</ele>
        <time>2020-11-14T11:33:56Z</time>
      </trkpt>
      <trkpt lat="38.8428420" lon="-0.4235410">
        <ele>368.5</ele>
        <time>2020-11-14T11:33:57Z</time>
      </trkpt>
      <trkpt lat="38.8428320" lon="-0.4236240">
        <ele>368.7</ele>
        <time>2020-11-14T11:33:58Z</time>
      </trkpt>
      <trkpt lat="38.8428480" lon="-0.4237210">
        <ele>368.9</ele>
        <time>2020-11-14T11:33:59Z</time>
      </trkpt>
      <trkpt lat="38.8428610" lon="-0.4238060">
        <ele>369.2</ele>
        <time>2020-11-14T11:34:00Z</time>
      </trkpt>
      <trkpt lat="38.8428720" lon="-0.4238730">
        <ele>369.5</ele>
        <time>2020-11-14T11:34:01Z</time>
      </trkpt>
      <trkpt lat="38.8428850" lon="-0.4239330">
        <ele>369.7</ele>
        <time>2020-11-14T11:34:02Z</time>
      </trkpt>
      <trkpt lat="38.8429060" lon="-0.4240010">
        <ele>370.1</ele>
        <time>2020-11-14T11:34:03Z</time>
      </trkpt>
      <trkpt lat="38.8429370" lon="-0.4240580">
        <ele>370.4</ele>
        <time>2020-11-14T11:34:04Z</time>
      </trkpt>
      <trkpt lat="38.8429600" lon="-0.4241010">
        <ele>370.7</ele>
        <time>2020-11-14T11:34:05Z</time>
      </trkpt>
      <trkpt lat="38.8429950" lon="-0.4241390">
        <ele>371.0</ele>
        <time>2020-11-14T11:34:06Z</time>
      </trkpt>
      <trkpt lat="38.8430350" lon="-0.4241850">
        <ele>371.4</ele>
        <time>2020-11-14T11:34:07Z</time>
      </trkpt>
      <trkpt lat="38.8430720" lon="-0.4242290">
        <ele>371.8</ele>
        <time>2020-11-14T11:34:08Z</time>
      </trkpt>
      <trkpt lat="38.8431040" lon="-0.4242590">
        <ele>372.0</ele>
        <time>2020-11-14T11:34:09Z</time>
      </trkpt>
      <trkpt lat="38.8431390" lon="-0.4242820">
        <ele>372.3</ele>
        <time>2020-11-14T11:34:10Z</time>
      </trkpt>
      <trkpt lat="38.8431800" lon="-0.4243070">
        <ele>372.6</ele>
        <time>2020-11-14T11:34:11Z</time>
      </trkpt>
      <trkpt lat="38.8432240" lon="-0.4243320">
        <ele>373.0</ele>
        <time>2020-11-14T11:34:12Z</time>
      </trkpt>
      <trkpt lat="38.8432560" lon="-0.4243400">
        <ele>373.2</ele>
        <time>2020-11-14T11:34:13Z</time>
      </trkpt>
      <trkpt lat="38.8432920" lon="-0.4243510">
        <ele>373.5</ele>
        <time>2020-11-14T11:34:14Z</time>
      </trkpt>
      <trkpt lat="38.8433320" lon="-0.4243610">
        <ele>373.8</ele>
        <time>2020-11-14T11:34:15Z</time>
      </trkpt>
      <trkpt lat="38.8433770" lon="-0.4243680">
        <ele>374.1</ele>
        <time>2020-11-14T11:34:16Z</time>
      </trkpt>
      <trkpt lat="38.8434150" lon="-0.4243840">
        <ele>374.4</ele>
        <time>2020-11-14T11:34:17Z</time>
      </trkpt>
      <trkpt lat="38.8434560" lon="-0.4244020">
        <ele>374.7</ele>
        <time>2020-11-14T11:34:18Z</time>
      </trkpt>
      <trkpt lat="38.8434950" lon="-0.4244160">
        <ele>374.9</ele>
        <time>2020-11-14T11:34:19Z</time>
      </trkpt>
      <trkpt lat="38.8435340" lon="-0.4244280">
        <ele>375.2</ele>
        <time>2020-11-14T11:34:20Z</time>
      </trkpt>
      <trkpt lat="38.8435740" lon="-0.4244410">
        <ele>375.5</ele>
        <time>2020-11-14T11:34:21Z</time>
      </trkpt>
      <trkpt lat="38.8436120" lon="-0.4244530">
        <ele>375.8</ele>
        <time>2020-11-14T11:34:22Z</time>
      </trkpt>
      <trkpt lat="38.8436550" lon="-0.4244640">
        <ele>376.1</ele>
        <time>2020-11-14T11:34:23Z</time>
      </trkpt>
      <trkpt lat="38.8436930" lon="-0.4244700">
        <ele>376.3</ele>
        <time>2020-11-14T11:34:24Z</time>
      </trkpt>
      <trkpt lat="38.8437330" lon="-0.4244790">
        <ele>376.6</ele>
        <time>2020-11-14T11:34:25Z</time>
      </trkpt>
      <trkpt lat="38.8437720" lon="-0.4244950">
        <ele>376.9</ele>
        <time>2020-11-14T11:34:26Z</time>
      </trkpt>
      <trkpt lat="38.8438060" lon="-0.4245130">
        <ele>377.1</ele>
        <time>2020-11-14T11:34:27Z</time>
      </trkpt>
      <trkpt lat="38.8438560" lon="-0.4245590">
        <ele>377.5</ele>
        <time>2020-11-14T11:34:28Z</time>
      </trkpt>
      <trkpt lat="38.8438970" lon="-0.4245840">
        <ele>377.7</ele>
        <time>2020-11-14T11:34:29Z</time>
      </trkpt>
      <trkpt lat="38.8439330" lon="-0.4246040">
        <ele>377.9</ele>
        <time>2020-11-14T11:34:30Z</time>
      </trkpt>
      <trkpt lat="38.8439670" lon="-0.4246120">
        <ele>378.1</ele>
        <time>2020-11-14T11:34:31Z</time>
      </trkpt>
      <trkpt lat="38.8439990" lon="-0.4246170">
        <ele>378.2</ele>
        <time>2020-11-14T11:34:32Z</time>
      </trkpt>
      <trkpt lat="38.8440330" lon="-0.4246200">
        <ele>378.4</ele>
        <time>2020-11-14T11:34:33Z</time>
      </trkpt>
      <trkpt lat="38.8440660" lon="-0.4246270">
        <ele>378.6</ele>
        <time>2020-11-14T11:34:34Z</time>
      </trkpt>
      <trkpt lat="38.8441010" lon="-0.4246370">
        <ele>378.7</ele>
        <time>2020-11-14T11:34:35Z</time>
      </trkpt>
      <trkpt lat="38.8441360" lon="-0.4246450">
        <ele>378.8</ele>
        <time>2020-11-14T11:34:36Z</time>
      </trkpt>
      <trkpt lat="38.8441670" lon="-0.4246580">
        <ele>379.0</ele>
        <time>2020-11-14T11:34:37Z</time>
      </trkpt>
      <trkpt lat="38.8442020" lon="-0.4246820">
        <ele>379.1</ele>
        <time>2020-11-14T11:34:38Z</time>
      </trkpt>
      <trkpt lat="38.8442390" lon="-0.4247080">
        <ele>379.2</ele>
        <time>2020-11-14T11:34:39Z</time>
      </trkpt>
      <trkpt lat="38.8442780" lon="-0.4247290">
        <ele>379.3</ele>
        <time>2020-11-14T11:34:40Z</time>
      </trkpt>
      <trkpt lat="38.8443100" lon="-0.4247470">
        <ele>379.4</ele>
        <time>2020-11-14T11:34:41Z</time>
      </trkpt>
      <trkpt lat="38.8443390" lon="-0.4247630">
        <ele>379.4</ele>
        <time>2020-11-14T11:34:42Z</time>
      </trkpt>
      <trkpt lat="38.8443660" lon="-0.4247800">
        <ele>379.4</ele>
        <time>2020-11-14T11:34:43Z</time>
      </trkpt>
      <trkpt lat="38.8443980" lon="-0.4248150">
        <ele>379.5</ele>
        <time>2020-11-14T11:34:44Z</time>
      </trkpt>
      <trkpt lat="38.8444320" lon="-0.4248610">
        <ele>379.5</ele>
        <time>2020-11-14T11:34:45Z</time>
      </trkpt>
      <trkpt lat="38.8444580" lon="-0.4249130">
        <ele>379.4</ele>
        <time>2020-11-14T11:34:46Z</time>
      </trkpt>
      <trkpt lat="38.8444760" lon="-0.4249980">
        <ele>379.4</ele>
        <time>2020-11-14T11:34:47Z</time>
      </trkpt>
      <trkpt lat="38.8444850" lon="-0.4250480">
        <ele>379.3</ele>
        <time>2020-11-14T11:34:48Z</time>
      </trkpt>
      <trkpt lat="38.8445150" lon="-0.4251260">
        <ele>379.2</ele>
        <time>2020-11-14T11:34:49Z</time>
      </trkpt>
      <trkpt lat="38.8445260" lon="-0.4251870">
        <ele>379.1</ele>
        <time>2020-11-14T11:34:50Z</time>
      </trkpt>
      <trkpt lat="38.8445380" lon="-0.4252370">
        <ele>379.1</ele>
        <time>2020-11-14T11:34:51Z</time>
      </trkpt>
      <trkpt lat="38.8445550" lon="-0.4252970">
        <ele>379.0</ele>
        <time>2020-11-14T11:34:52Z</time>
      </trkpt>
      <trkpt lat="38.8445670" lon="-0.4253670">
        <ele>378.9</ele>
        <time>2020-11-14T11:34:53Z</time>
      </trkpt>
      <trkpt lat="38.8445680" lon="-0.4254270">
        <ele>378.8</ele>
        <time>2020-11-14T11:34:54Z</time>
      </trkpt>
      <trkpt lat="38.8445550" lon="-0.4254800">
        <ele>378.7</ele>
        <time>2020-11-14T11:34:55Z</time>
      </trkpt>
      <trkpt lat="38.8445370" lon="-0.4255500">
        <ele>378.5</ele>
        <time>2020-11-14T11:34:56Z</time>
      </trkpt>
      <trkpt lat="38.8445160" lon="-0.4256200">
        <ele>378.4</ele>
        <time>2020-11-14T11:34:57Z</time>
      </trkpt>
      <trkpt lat="38.8444800" lon="-0.4256890">
        <ele>378.1</ele>
        <time>2020-11-14T11:34:58Z</time>
      </trkpt>
      <trkpt lat="38.8444390" lon="-0.4257430">
        <ele>377.9</ele>
        <time>2020-11-14T11:34:59Z</time>
      </trkpt>
      <trkpt lat="38.8443850" lon="-0.4257960">
        <ele>377.7</ele>
        <time>2020-11-14T11:35:00Z</time>
      </trkpt>
      <trkpt lat="38.8443170" lon="-0.4258380">
        <ele>377.4</ele>
        <time>2020-11-14T11:35:01Z</time>
      </trkpt>
      <trkpt lat="38.8442530" lon="-0.4258610">
        <ele>377.1</ele>
        <time>2020-11-14T11:35:02Z</time>
      </trkpt>
      <trkpt lat="38.8441850" lon="-0.4258810">
        <ele>376.8</ele>
        <time>2020-11-14T11:35:03Z</time>
      </trkpt>
      <trkpt lat="38.8441100" lon="-0.4259070">
        <ele>376.5</ele>
        <time>2020-11-14T11:35:04Z</time>
      </trkpt>
      <trkpt lat="38.8440370" lon="-0.4259100">
        <ele>376.2</ele>
        <time>2020-11-14T11:35:05Z</time>
      </trkpt>
      <trkpt lat="38.8439570" lon="-0.4259300">
        <ele>375.9</ele>
        <time>2020-11-14T11:35:06Z</time>
      </trkpt>
      <trkpt lat="38.8438550" lon="-0.4259580">
        <ele>375.5</ele>
        <time>2020-11-14T11:35:07Z</time>
      </trkpt>
      <trkpt lat="38.8437700" lon="-0.4259770">
        <ele>375.3</ele>
        <time>2020-11-14T11:35:08Z</time>
      </trkpt>
      <trkpt lat="38.8436990" lon="-0.4260000">
        <ele>375.1</ele>
        <time>2020-11-14T11:35:09Z</time>
      </trkpt>
      <trkpt lat="38.8436150" lon="-0.4260230">
        <ele>375.0</ele>
        <time>2020-11-14T11:35:10Z</time>
      </trkpt>
      <trkpt lat="38.8435350" lon="-0.4260530">
        <ele>374.9</ele>
        <time>2020-11-14T11:35:11Z</time>
      </trkpt>
      <trkpt lat="38.8434500" lon="-0.4261010">
        <ele>374.8</ele>
        <time>2020-11-14T11:35:12Z</time>
      </trkpt>
      <trkpt lat="38.8433830" lon="-0.4261510">
        <ele>374.7</ele>
        <time>2020-11-14T11:35:13Z</time>
      </trkpt>
      <trkpt lat="38.8433270" lon="-0.4262060">
        <ele>374.6</ele>
        <time>2020-11-14T11:35:14Z</time>
      </trkpt>
      <trkpt lat="38.8432840" lon="-0.4262760">
        <ele>374.5</ele>
        <time>2020-11-14T11:35:15Z</time>
      </trkpt>
      <trkpt lat="38.8432370" lon="-0.4263430">
        <ele>374.3</ele>
        <time>2020-11-14T11:35:16Z</time>
      </trkpt>
      <trkpt lat="38.8431880" lon="-0.4264090">
        <ele>374.2</ele>
        <time>2020-11-14T11:35:17Z</time>
      </trkpt>
      <trkpt lat="38.8431360" lon="-0.4264860">
        <ele>374.0</ele>
        <time>2020-11-14T11:35:18Z</time>
      </trkpt>
      <trkpt lat="38.8430810" lon="-0.4265590">
        <ele>373.8</ele>
        <time>2020-11-14T11:35:19Z</time>
      </trkpt>
      <trkpt lat="38.8430310" lon="-0.4266290">
        <ele>373.6</ele>
        <time>2020-11-14T11:35:20Z</time>
      </trkpt>
      <trkpt lat="38.8429790" lon="-0.4267090">
        <ele>373.4</ele>
        <time>2020-11-14T11:35:21Z</time>
      </trkpt>
      <trkpt lat="38.8429210" lon="-0.4267850">
        <ele>373.2</ele>
        <time>2020-11-14T11:35:22Z</time>
      </trkpt>
      <trkpt lat="38.8428640" lon="-0.4268630">
        <ele>373.0</ele>
        <time>2020-11-14T11:35:23Z</time>
      </trkpt>
      <trkpt lat="38.8428080" lon="-0.4269330">
        <ele>372.7</ele>
        <time>2020-11-14T11:35:24Z</time>
      </trkpt>
      <trkpt lat="38.8427450" lon="-0.4270110">
        <ele>372.5</ele>
        <time>2020-11-14T11:35:25Z</time>
      </trkpt>
      <trkpt lat="38.8426930" lon="-0.4270860">
        <ele>372.3</ele>
        <time>2020-11-14T11:35:26Z</time>
      </trkpt>
      <trkpt lat="38.8426380" lon="-0.4271450">
        <ele>372.0</ele>
        <time>2020-11-14T11:35:27Z</time>
      </trkpt>
      <trkpt lat="38.8425860" lon="-0.4272260">
        <ele>371.7</ele>
        <time>2020-11-14T11:35:28Z</time>
      </trkpt>
      <trkpt lat="38.8425220" lon="-0.4272990">
        <ele>371.3</ele>
        <time>2020-11-14T11:35:29Z</time>
      </trkpt>
      <trkpt lat="38.8424660" lon="-0.4273830">
        <ele>370.9</ele>
        <time>2020-11-14T11:35:30Z</time>
      </trkpt>
      <trkpt lat="38.8424130" lon="-0.4274690">
        <ele>370.4</ele>
        <time>2020-11-14T11:35:31Z</time>
      </trkpt>
      <trkpt lat="38.8423570" lon="-0.4275470">
        <ele>369.9</ele>
        <time>2020-11-14T11:35:32Z</time>
      </trkpt>
      <trkpt lat="38.8422920" lon="-0.4276370">
        <ele>369.4</ele>
        <time>2020-11-14T11:35:33Z</time>
      </trkpt>
      <trkpt lat="38.8422300" lon="-0.4277360">
        <ele>368.8</ele>
        <time>2020-11-14T11:35:34Z</time>
      </trkpt>
      <trkpt lat="38.8421790" lon="-0.4278330">
        <ele>368.4</ele>
        <time>2020-11-14T11:35:35Z</time>
      </trkpt>
      <trkpt lat="38.8421320" lon="-0.4279540">
        <ele>367.9</ele>
        <time>2020-11-14T11:35:36Z</time>
      </trkpt>
      <trkpt lat="38.8420970" lon="-0.4280790">
        <ele>367.6</ele>
        <time>2020-11-14T11:35:37Z</time>
      </trkpt>
      <trkpt lat="38.8420790" lon="-0.4282030">
        <ele>367.4</ele>
        <time>2020-11-14T11:35:38Z</time>
      </trkpt>
      <trkpt lat="38.8421160" lon="-0.4283420">
        <ele>367.4</ele>
        <time>2020-11-14T11:35:39Z</time>
      </trkpt>
      <trkpt lat="38.8421420" lon="-0.4284620">
        <ele>367.5</ele>
        <time>2020-11-14T11:35:40Z</time>
      </trkpt>
      <trkpt lat="38.8422000" lon="-0.4285490">
        <ele>367.3</ele>
        <time>2020-11-14T11:35:41Z</time>
      </trkpt>
      <trkpt lat="38.8423160" lon="-0.4285450">
        <ele>367.2</ele>
        <time>2020-11-14T11:35:42Z</time>
      </trkpt>
      <trkpt lat="38.8424010" lon="-0.4285550">
        <ele>367.3</ele>
        <time>2020-11-14T11:35:43Z</time>
      </trkpt>
      <trkpt lat="38.8424790" lon="-0.4285540">
        <ele>367.6</ele>
        <time>2020-11-14T11:35:44Z</time>
      </trkpt>
      <trkpt lat="38.8425320" lon="-0.4285530">
        <ele>367.8</ele>
        <time>2020-11-14T11:35:45Z</time>
      </trkpt>
      <trkpt lat="38.8426010" lon="-0.4285500">
        <ele>368.3</ele>
        <time>2020-11-14T11:35:46Z</time>
      </trkpt>
      <trkpt lat="38.8426480" lon="-0.4285310">
        <ele>368.6</ele>
        <time>2020-11-14T11:35:47Z</time>
      </trkpt>
      <trkpt lat="38.8427060" lon="-0.4285270">
        <ele>369.0</ele>
        <time>2020-11-14T11:35:48Z</time>
      </trkpt>
      <trkpt lat="38.8427530" lon="-0.4285440">
        <ele>369.3</ele>
        <time>2020-11-14T11:35:49Z</time>
      </trkpt>
      <trkpt lat="38.8428060" lon="-0.4285370">
        <ele>369.7</ele>
        <time>2020-11-14T11:35:50Z</time>
      </trkpt>
      <trkpt lat="38.8428700" lon="-0.4285650">
        <ele>370.2</ele>
        <time>2020-11-14T11:35:51Z</time>
      </trkpt>
      <trkpt lat="38.8429170" lon="-0.4285640">
        <ele>370.6</ele>
        <time>2020-11-14T11:35:52Z</time>
      </trkpt>
      <trkpt lat="38.8429870" lon="-0.4286180">
        <ele>371.2</ele>
        <time>2020-11-14T11:35:53Z</time>
      </trkpt>
      <trkpt lat="38.8430380" lon="-0.4286190">
        <ele>371.6</ele>
        <time>2020-11-14T11:35:54Z</time>
      </trkpt>
      <trkpt lat="38.8430840" lon="-0.4286270">
        <ele>372.0</ele>
        <time>2020-11-14T11:35:55Z</time>
      </trkpt>
      <trkpt lat="38.8431370" lon="-0.4286430">
        <ele>372.4</ele>
        <time>2020-11-14T11:35:56Z</time>
      </trkpt>
      <trkpt lat="38.8431800" lon="-0.4286600">
        <ele>372.8</ele>
        <time>2020-11-14T11:35:57Z</time>
      </trkpt>
      <trkpt lat="38.8432270" lon="-0.4286760">
        <ele>373.2</ele>
        <time>2020-11-14T11:35:58Z</time>
      </trkpt>
      <trkpt lat="38.8432730" lon="-0.4286970">
        <ele>373.6</ele>
        <time>2020-11-14T11:35:59Z</time>
      </trkpt>
      <trkpt lat="38.8433170" lon="-0.4287270">
        <ele>374.0</ele>
        <time>2020-11-14T11:36:00Z</time>
      </trkpt>
      <trkpt lat="38.8433510" lon="-0.4287590">
        <ele>374.3</ele>
        <time>2020-11-14T11:36:01Z</time>
      </trkpt>
      <trkpt lat="38.8433830" lon="-0.4287900">
        <ele>374.6</ele>
        <time>2020-11-14T11:36:02Z</time>
      </trkpt>
      <trkpt lat="38.8434100" lon="-0.4288510">
        <ele>375.0</ele>
        <time>2020-11-14T11:36:03Z</time>
      </trkpt>
      <trkpt lat="38.8434440" lon="-0.4288880">
        <ele>375.4</ele>
        <time>2020-11-14T11:36:04Z</time>
      </trkpt>
      <trkpt lat="38.8434690" lon="-0.4289190">
        <ele>375.6</ele>
        <time>2020-11-14T11:36:05Z</time>
      </trkpt>
      <trkpt lat="38.8434950" lon="-0.4289520">
        <ele>375.9</ele>
        <time>2020-11-14T11:36:06Z</time>
      </trkpt>
      <trkpt lat="38.8435220" lon="-0.4289820">
        <ele>376.2</ele>
        <time>2020-11-14T11:36:07Z</time>
      </trkpt>
      <trkpt lat="38.8435400" lon="-0.4290240">
        <ele>376.4</ele>
        <time>2020-11-14T11:36:08Z</time>
      </trkpt>
      <trkpt lat="38.8435470" lon="-0.4290350">
        <ele>376.5</ele>
        <time>2020-11-14T11:36:09Z</time>
      </trkpt>
      <trkpt lat="38.8435640" lon="-0.4290620">
        <ele>376.7</ele>
        <time>2020-11-14T11:36:10Z</time>
      </trkpt>
      <trkpt lat="38.8435930" lon="-0.4290860">
        <ele>377.0</ele>
        <time>2020-11-14T11:36:11Z</time>
      </trkpt>
      <trkpt lat="38.8436030" lon="-0.4290950">
        <ele>377.0</ele>
        <time>2020-11-14T11:36:12Z</time>
      </trkpt>
      <trkpt lat="38.8436190" lon="-0.4291400">
        <ele>377.3</ele>
        <time>2020-11-14T11:36:13Z</time>
      </trkpt>
      <trkpt lat="38.8436240" lon="-0.4291570">
        <ele>377.4</ele>
        <time>2020-11-14T11:36:14Z</time>
      </trkpt>
      <trkpt lat="38.8436350" lon="-0.4291910">
        <ele>377.6</ele>
        <time>2020-11-14T11:36:15Z</time>
      </trkpt>
      <trkpt lat="38.8436460" lon="-0.4292360">
        <ele>377.8</ele>
        <time>2020-11-14T11:36:16Z</time>
      </trkpt>
      <trkpt lat="38.8436490" lon="-0.4292510">
        <ele>377.8</ele>
        <time>2020-11-14T11:36:17Z</time>
      </trkpt>
      <trkpt lat="38.8436570" lon="-0.4292950">
        <ele>378.0</ele>
        <time>2020-11-14T11:36:18Z</time>
      </trkpt>
      <trkpt lat="38.8436600" lon="-0.4293110">
        <ele>378.1</ele>
        <time>2020-11-14T11:36:19Z</time>
      </trkpt>
      <trkpt lat="38.8436700" lon="-0.4293600">
        <ele>378.3</ele>
        <time>2020-11-14T11:36:20Z</time>
      </trkpt>
      <trkpt lat="38.8436730" lon="-0.4293760">
        <ele>378.3</ele>
        <time>2020-11-14T11:36:21Z</time>
      </trkpt>
      <trkpt lat="38.8436810" lon="-0.4294210">
        <ele>378.5</ele>
        <time>2020-11-14T11:36:22Z</time>
      </trkpt>
      <trkpt lat="38.8436830" lon="-0.4294370">
        <ele>378.5</ele>
        <time>2020-11-14T11:36:23Z</time>
      </trkpt>
      <trkpt lat="38.8436950" lon="-0.4294870">
        <ele>378.7</ele>
        <time>2020-11-14T11:36:24Z</time>
      </trkpt>
      <trkpt lat="38.8436990" lon="-0.4295040">
        <ele>378.7</ele>
        <time>2020-11-14T11:36:25Z</time>
      </trkpt>
      <trkpt lat="38.8437070" lon="-0.4295380">
        <ele>378.8</ele>
        <time>2020-11-14T11:36:26Z</time>
      </trkpt>
      <trkpt lat="38.8437150" lon="-0.4295760">
        <ele>378.9</ele>
        <time>2020-11-14T11:36:27Z</time>
      </trkpt>
      <trkpt lat="38.8437210" lon="-0.4296150">
        <ele>379.0</ele>
        <time>2020-11-14T11:36:28Z</time>
      </trkpt>
      <trkpt lat="38.8437250" lon="-0.4296580">
        <ele>379.1</ele>
        <time>2020-11-14T11:36:29Z</time>
      </trkpt>
      <trkpt lat="38.8437290" lon="-0.4297040">
        <ele>379.2</ele>
        <time>2020-11-14T11:36:30Z</time>
      </trkpt>
      <trkpt lat="38.8437340" lon="-0.4297500">
        <ele>379.3</ele>
        <time>2020-11-14T11:36:31Z</time>
      </trkpt>
      <trkpt lat="38.8437390" lon="-0.4297960">
        <ele>379.4</ele>
        <time>2020-11-14T11:36:32Z</time>
      </trkpt>
      <trkpt lat="38.8437440" lon="-0.4298410">
        <ele>379.5</ele>
        <time>2020-11-14T11:36:33Z</time>
      </trkpt>
      <trkpt lat="38.8437500" lon="-0.4298860">
        <ele>379.6</ele>
        <time>2020-11-14T11:36:34Z</time>
      </trkpt>
      <trkpt lat="38.8437560" lon="-0.4299310">
        <ele>379.6</ele>
        <time>2020-11-14T11:36:35Z</time>
      </trkpt>
      <trkpt lat="38.8437620" lon="-0.4299760">
        <ele>379.7</ele>
        <time>2020-11-14T11:36:36Z</time>
      </trkpt>
      <trkpt lat="38.8437700" lon="-0.4300240">
        <ele>379.8</ele>
        <time>2020-11-14T11:36:37Z</time>
      </trkpt>
      <trkpt lat="38.8437800" lon="-0.4300700">
        <ele>379.8</ele>
        <time>2020-11-14T11:36:38Z</time>
      </trkpt>
      <trkpt lat="38.8437880" lon="-0.4301170">
        <ele>379.8</ele>
        <time>2020-11-14T11:36:39Z</time>
      </trkpt>
      <trkpt lat="38.8437960" lon="-0.4301650">
        <ele>379.9</ele>
        <time>2020-11-14T11:36:40Z</time>
      </trkpt>
      <trkpt lat="38.8438010" lon="-0.4302160">
        <ele>379.9</ele>
        <time>2020-11-14T11:36:41Z</time>
      </trkpt>
      <trkpt lat="38.8438040" lon="-0.4302690">
        <ele>379.9</ele>
        <time>2020-11-14T11:36:42Z</time>
      </trkpt>
      <trkpt lat="38.8438010" lon="-0.4303240">
        <ele>379.8</ele>
        <time>2020-11-14T11:36:43Z</time>
      </trkpt>
      <trkpt lat="38.8437800" lon="-0.4303760">
        <ele>379.7</ele>
        <time>2020-11-14T11:36:44Z</time>
      </trkpt>
      <trkpt lat="38.8437650" lon="-0.4304370">
        <ele>379.5</ele>
        <time>2020-11-14T11:36:45Z</time>
      </trkpt>
      <trkpt lat="38.8437470" lon="-0.4305000">
        <ele>379.3</ele>
        <time>2020-11-14T11:36:46Z</time>
      </trkpt>
      <trkpt lat="38.8437180" lon="-0.4305590">
        <ele>379.1</ele>
        <time>2020-11-14T11:36:47Z</time>
      </trkpt>
      <trkpt lat="38.8436800" lon="-0.4306080">
        <ele>378.9</ele>
        <time>2020-11-14T11:36:48Z</time>
      </trkpt>
      <trkpt lat="38.8436320" lon="-0.4306570">
        <ele>378.7</ele>
        <time>2020-11-14T11:36:49Z</time>
      </trkpt>
      <trkpt lat="38.8435850" lon="-0.4306980">
        <ele>378.4</ele>
        <time>2020-11-14T11:36:50Z</time>
      </trkpt>
      <trkpt lat="38.8435270" lon="-0.4307390">
        <ele>378.1</ele>
        <time>2020-11-14T11:36:51Z</time>
      </trkpt>
      <trkpt lat="38.8434700" lon="-0.4307740">
        <ele>377.9</ele>
        <time>2020-11-14T11:36:52Z</time>
      </trkpt>
      <trkpt lat="38.8434120" lon="-0.4308050">
        <ele>377.6</ele>
        <time>2020-11-14T11:36:53Z</time>
      </trkpt>
      <trkpt lat="38.8433520" lon="-0.4308340">
        <ele>377.2</ele>
        <time>2020-11-14T11:36:54Z</time>
      </trkpt>
      <trkpt lat="38.8432850" lon="-0.4308700">
        <ele>376.9</ele>
        <time>2020-11-14T11:36:55Z</time>
      </trkpt>
      <trkpt lat="38.8432170" lon="-0.4309010">
        <ele>376.5</ele>
        <time>2020-11-14T11:36:56Z</time>
      </trkpt>
      <trkpt lat="38.8431470" lon="-0.4309420">
        <ele>376.1</ele>
        <time>2020-11-14T11:36:57Z</time>
      </trkpt>
      <trkpt lat="38.8430850" lon="-0.4309850">
        <ele>375.8</ele>
        <time>2020-11-14T11:36:58Z</time>
      </trkpt>
      <trkpt lat="38.8430230" lon="-0.4310300">
        <ele>375.4</ele>
        <time>2020-11-14T11:36:59Z</time>
      </trkpt>
      <trkpt lat="38.8429610" lon="-0.4310910">
        <ele>375.0</ele>
        <time>2020-11-14T11:37:00Z</time>
      </trkpt>
      <trkpt lat="38.8429070" lon="-0.4311670">
        <ele>374.6</ele>
        <time>2020-11-14T11:37:01Z</time>
      </trkpt>
      <trkpt lat="38.8428570" lon="-0.4312560">
        <ele>374.1</ele>
        <time>2020-11-14T11:37:02Z</time>
      </trkpt>
      <trkpt lat="38.8428260" lon="-0.4313640">
        <ele>373.7</ele>
        <time>2020-11-14T11:37:03Z</time>
      </trkpt>
      <trkpt lat="38.8427840" lon="-0.4314570">
        <ele>373.3</ele>
        <time>2020-11-14T11:37:04Z</time>
      </trkpt>
      <trkpt lat="38.8427310" lon="-0.4315550">
        <ele>372.8</ele>
        <time>2020-11-14T11:37:05Z</time>
      </trkpt>
      <trkpt lat="38.8426920" lon="-0.4316530">
        <ele>372.4</ele>
        <time>2020-11-14T11:37:06Z</time>
      </trkpt>
      <trkpt lat="38.8426460" lon="-0.4317520">
        <ele>372.0</ele>
        <time>2020-11-14T11:37:07Z</time>
      </trkpt>
      <trkpt lat="38.8426110" lon="-0.4318580">
        <ele>371.6</ele>
        <time>2020-11-14T11:37:08Z</time>
      </trkpt>
      <trkpt lat="38.8425690" lon="-0.4319620">
        <ele>371.2</ele>
        <time>2020-11-14T11:37:09Z</time>
      </trkpt>
      <trkpt lat="38.8425370" lon="-0.4320680">
        <ele>370.7</ele>
        <time>2020-11-14T11:37:10Z</time>
      </trkpt>
      <trkpt lat="38.8424920" lon="-0.4321830">
        <ele>370.2</ele>
        <time>2020-11-14T11:37:11Z</time>
      </trkpt>
      <trkpt lat="38.8424500" lon="-0.4322970">
        <ele>369.8</ele>
        <time>2020-11-14T11:37:12Z</time>
      </trkpt>
      <trkpt lat="38.8424410" lon="-0.4324170">
        <ele>369.3</ele>
        <time>2020-11-14T11:37:13Z</time>
      </trkpt>
      <trkpt lat="38.8424450" lon="-0.4325310">
        <ele>368.9</ele>
        <time>2020-11-14T11:37:14Z</time>
      </trkpt>
      <trkpt lat="38.8424650" lon="-0.4326440">
        <ele>368.5</ele>
        <time>2020-11-14T11:37:15Z</time>
      </trkpt>
      <trkpt lat="38.8424970" lon="-0.4327500">
        <ele>368.2</ele>
        <time>2020-11-14T11:37:16Z</time>
      </trkpt>
      <trkpt lat="38.8425690" lon="-0.4328380">
        <ele>367.8</ele>
        <time>2020-11-14T11:37:17Z</time>
      </trkpt>
      <trkpt lat="38.8426270" lon="-0.4329240">
        <ele>367.4</ele>
        <time>2020-11-14T11:37:18Z</time>
      </trkpt>
      <trkpt lat="38.8426790" lon="-0.4330190">
        <ele>367.0</ele>
        <time>2020-11-14T11:37:19Z</time>
      </trkpt>
      <trkpt lat="38.8427410" lon="-0.4331010">
        <ele>366.7</ele>
        <time>2020-11-14T11:37:20Z</time>
      </trkpt>
      <trkpt lat="38.8427970" lon="-0.4331900">
        <ele>366.4</ele>
        <time>2020-11-14T11:37:21Z</time>
      </trkpt>
      <trkpt lat="38.8428590" lon="-0.4332900">
        <ele>366.0</ele>
        <time>2020-11-14T11:37:22Z</time>
      </trkpt>
      <trkpt lat="38.8429020" lon="-0.4333900">
        <ele>365.7</ele>
        <time>2020-11-14T11:37:23Z</time>
      </trkpt>
      <trkpt lat="38.8429340" lon="-0.4335100">
        <ele>365.3</ele>
        <time>2020-11-14T11:37:24Z</time>
      </trkpt>
      <trkpt lat="38.8429410" lon="-0.4336220">
        <ele>365.0</ele>
        <time>2020-11-14T11:37:25Z</time>
      </trkpt>
      <trkpt lat="38.8429260" lon="-0.4337310">
        <ele>364.6</ele>
        <time>2020-11-14T11:37:26Z</time>
      </trkpt>
      <trkpt lat="38.8428910" lon="-0.4338430">
        <ele>364.1</ele>
        <time>2020-11-14T11:37:27Z</time>
      </trkpt>
      <trkpt lat="38.8428460" lon="-0.4339520">
        <ele>363.7</ele>
        <time>2020-11-14T11:37:28Z</time>
      </trkpt>
      <trkpt lat="38.8427950" lon="-0.4340500">
        <ele>363.1</ele>
        <time>2020-11-14T11:37:29Z</time>
      </trkpt>
      <trkpt lat="38.8427400" lon="-0.4341490">
        <ele>362.5</ele>
        <time>2020-11-14T11:37:30Z</time>
      </trkpt>
      <trkpt lat="38.8426900" lon="-0.4342390">
        <ele>362.0</ele>
        <time>2020-11-14T11:37:31Z</time>
      </trkpt>
      <trkpt lat="38.8426280" lon="-0.4343460">
        <ele>361.3</ele>
        <time>2020-11-14T11:37:32Z</time>
      </trkpt>
      <trkpt lat="38.8425560" lon="-0.4344550">
        <ele>360.5</ele>
        <time>2020-11-14T11:37:33Z</time>
      </trkpt>
      <trkpt lat="38.8425040" lon="-0.4345810">
        <ele>359.7</ele>
        <time>2020-11-14T11:37:34Z</time>
      </trkpt>
      <trkpt lat="38.8424650" lon="-0.4347140">
        <ele>359.0</ele>
        <time>2020-11-14T11:37:35Z</time>
      </trkpt>
      <trkpt lat="38.8424350" lon="-0.4348430">
        <ele>358.3</ele>
        <time>2020-11-14T11:37:36Z</time>
      </trkpt>
      <trkpt lat="38.8424330" lon="-0.4349870">
        <ele>357.6</ele>
        <time>2020-11-14T11:37:37Z</time>
      </trkpt>
      <trkpt lat="38.8424200" lon="-0.4351150">
        <ele>357.1</ele>
        <time>2020-11-14T11:37:38Z</time>
      </trkpt>
      <trkpt lat="38.8424370" lon="-0.4352620">
        <ele>356.6</ele>
        <time>2020-11-14T11:37:39Z</time>
      </trkpt>
      <trkpt lat="38.8424450" lon="-0.4353960">
        <ele>356.2</ele>
        <time>2020-11-14T11:37:40Z</time>
      </trkpt>
      <trkpt lat="38.8424440" lon="-0.4355310">
        <ele>355.8</ele>
        <time>2020-11-14T11:37:41Z</time>
      </trkpt>
      <trkpt lat="38.8424470" lon="-0.4356730">
        <ele>355.5</ele>
        <time>2020-11-14T11:37:42Z</time>
      </trkpt>
      <trkpt lat="38.8424500" lon="-0.4358100">
        <ele>355.3</ele>
        <time>2020-11-14T11:37:43Z</time>
      </trkpt>
      <trkpt lat="38.8424720" lon="-0.4359440">
        <ele>355.2</ele>
        <time>2020-11-14T11:37:44Z</time>
      </trkpt>
      <trkpt lat="38.8425400" lon="-0.4360420">
        <ele>355.3</ele>
        <time>2020-11-14T11:37:45Z</time>
      </trkpt>
      <trkpt lat="38.8425990" lon="-0.4361410">
        <ele>355.4</ele>
        <time>2020-11-14T11:37:46Z</time>
      </trkpt>
      <trkpt lat="38.8426750" lon="-0.4362190">
        <ele>355.6</ele>
        <time>2020-11-14T11:37:47Z</time>
      </trkpt>
      <trkpt lat="38.8427540" lon="-0.4362820">
        <ele>355.8</ele>
        <time>2020-11-14T11:37:48Z</time>
      </trkpt>
      <trkpt lat="38.8428460" lon="-0.4363260">
        <ele>356.2</ele>
        <time>2020-11-14T11:37:49Z</time>
      </trkpt>
      <trkpt lat="38.8429280" lon="-0.4363540">
        <ele>356.7</ele>
        <time>2020-11-14T11:37:50Z</time>
      </trkpt>
      <trkpt lat="38.8430240" lon="-0.4364150">
        <ele>357.3</ele>
        <time>2020-11-14T11:37:51Z</time>
      </trkpt>
      <trkpt lat="38.8431110" lon="-0.4364470">
        <ele>357.8</ele>
        <time>2020-11-14T11:37:52Z</time>
      </trkpt>
      <trkpt lat="38.8431900" lon="-0.4364810">
        <ele>358.2</ele>
        <time>2020-11-14T11:37:53Z</time>
      </trkpt>
      <trkpt lat="38.8432710" lon="-0.4365440">
        <ele>358.5</ele>
        <time>2020-11-14T11:37:54Z</time>
      </trkpt>
      <trkpt lat="38.8433440" lon="-0.4365920">
        <ele>358.7</ele>
        <time>2020-11-14T11:37:55Z</time>
      </trkpt>
      <trkpt lat="38.8433780" lon="-0.4366050">
        <ele>358.8</ele>
        <time>2020-11-14T11:37:56Z</time>
      </trkpt>
      <trkpt lat="38.8434030" lon="-0.4366210">
        <ele>358.9</ele>
        <time>2020-11-14T11:37:57Z</time>
      </trkpt>
      <trkpt lat="38.8434410" lon="-0.4366510">
        <ele>359.1</ele>
        <time>2020-11-14T11:37:58Z</time>
      </trkpt>
      <trkpt lat="38.8434780" lon="-0.4366540">
        <ele>359.2</ele>
        <time>2020-11-14T11:37:59Z</time>
      </trkpt>
      <trkpt lat="38.8435240" lon="-0.4366560">
        <ele>359.4</ele>
        <time>2020-11-14T11:38:00Z</time>
      </trkpt>
      <trkpt lat="38.8435770" lon="-0.4366690">
        <ele>359.6</ele>
        <time>2020-11-14T11:38:01Z</time>
      </trkpt>
      <trkpt lat="38.8436180" lon="-0.4366830">
        <ele>359.7</ele>
        <time>2020-11-14T11:38:02Z</time>
      </trkpt>
      <trkpt lat="38.8436620" lon="-0.4367040">
        <ele>359.9</ele>
        <time>2020-11-14T11:38:03Z</time>
      </trkpt>
      <trkpt lat="38.8437040" lon="-0.4367190">
        <ele>360.1</ele>
        <time>2020-11-14T11:38:04Z</time>
      </trkpt>
      <trkpt lat="38.8437520" lon="-0.4367380">
        <ele>360.2</ele>
        <time>2020-11-14T11:38:05Z</time>
      </trkpt>
      <trkpt lat="38.8437950" lon="-0.4367550">
        <ele>360.4</ele>
        <time>2020-11-14T11:38:06Z</time>
      </trkpt>
      <trkpt lat="38.8438360" lon="-0.4367470">
        <ele>360.5</ele>
        <time>2020-11-14T11:38:07Z</time>
      </trkpt>
      <trkpt lat="38.8438780" lon="-0.4367760">
        <ele>360.6</ele>
        <time>2020-11-14T11:38:08Z</time>
      </trkpt>
      <trkpt lat="38.8439250" lon="-0.4368010">
        <ele>360.7</ele>
        <time>2020-11-14T11:38:09Z</time>
      </trkpt>
      <trkpt lat="38.8439720" lon="-0.4368520">
        <ele>360.9</ele>
        <time>2020-11-14T11:38:10Z</time>
      </trkpt>
      <trkpt lat="38.8440040" lon="-0.4368560">
        <ele>360.9</ele>
        <time>2020-11-14T11:38:11Z</time>
      </trkpt>
      <trkpt lat="38.8440430" lon="-0.4368890">
        <ele>361.0</ele>
        <time>2020-11-14T11:38:12Z</time>
      </trkpt>
      <trkpt lat="38.8440860" lon="-0.4369350">
        <ele>361.1</ele>
        <time>2020-11-14T11:38:13Z</time>
      </trkpt>
      <trkpt lat="38.8441260" lon="-0.4369890">
        <ele>361.2</ele>
        <time>2020-11-14T11:38:14Z</time>
      </trkpt>
      <trkpt lat="38.8441630" lon="-0.4370370">
        <ele>361.3</ele>
        <time>2020-11-14T11:38:15Z</time>
      </trkpt>
      <trkpt lat="38.8441950" lon="-0.4371020">
        <ele>361.5</ele>
        <time>2020-11-14T11:38:16Z</time>
      </trkpt>
      <trkpt lat="38.8442250" lon="-0.4371780">
        <ele>361.6</ele>
        <time>2020-11-14T11:38:17Z</time>
      </trkpt>
      <trkpt lat="38.8442610" lon="-0.4372490">
        <ele>361.7</ele>
        <time>2020-11-14T11:38:18Z</time>
      </trkpt>
      <trkpt lat="38.8442910" lon="-0.4373190">
        <ele>361.8</ele>
        <time>2020-11-14T11:38:19Z</time>
      </trkpt>
      <trkpt lat="38.8443220" lon="-0.4373830">
        <ele>361.9</ele>
        <time>2020-11-14T11:38:20Z</time>
      </trkpt>
      <trkpt lat="38.8443540" lon="-0.4374340">
        <ele>362.0</ele>
        <time>2020-11-14T11:38:21Z</time>
      </trkpt>
      <trkpt lat="38.8443820" lon="-0.4374840">
        <ele>362.0</ele>
        <time>2020-11-14T11:38:22Z</time>
      </trkpt>
      <trkpt lat="38.8444130" lon="-0.4375350">
        <ele>362.1</ele>
        <time>2020-11-14T11:38:23Z</time>
      </trkpt>
      <trkpt lat="38.8444670" lon="-0.4375920">
        <ele>362.2</ele>
        <time>2020-11-14T11:38:24Z</time>
      </trkpt>
      <trkpt lat="38.8444980" lon="-0.4376410">
        <ele>362.2</ele>
        <time>2020-11-14T11:38:25Z</time>
      </trkpt>
      <trkpt lat="38.8445380" lon="-0.4376910">
        <ele>362.3</ele>
        <time>2020-11-14T11:38:26Z</time>
      </trkpt>
      <trkpt lat="38.8445760" lon="-0.4377680">
        <ele>362.4</ele>
        <time>2020-11-14T11:38:27Z</time>
      </trkpt>
      <trkpt lat="38.8446160" lon="-0.4378220">
        <ele>362.5</ele>
        <time>2020-11-14T11:38:28Z</time>
      </trkpt>
      <trkpt lat="38.8446580" lon="-0.4378740">
        <ele>362.6</ele>
        <time>2020-11-14T11:38:29Z</time>
      </trkpt>
      <trkpt lat="38.8447010" lon="-0.4379090">
        <ele>362.6</ele>
        <time>2020-11-14T11:38:30Z</time>
      </trkpt>
      <trkpt lat="38.8447400" lon="-0.4379510">
        <ele>362.7</ele>
        <time>2020-11-14T11:38:31Z</time>
      </trkpt>
      <trkpt lat="38.8447790" lon="-0.4379960">
        <ele>362.8</ele>
        <time>2020-11-14T11:38:32Z</time>
      </trkpt>
      <trkpt lat="38.8448090" lon="-0.4380440">
        <ele>362.9</ele>
        <time>2020-11-14T11:38:33Z</time>
      </trkpt>
      <trkpt lat="38.8448450" lon="-0.4380880">
        <ele>363.0</ele>
        <time>2020-11-14T11:38:34Z</time>
      </trkpt>
      <trkpt lat="38.8448890" lon="-0.4381370">
        <ele>363.1</ele>
        <time>2020-11-14T11:38:35Z</time>
      </trkpt>
      <trkpt lat="38.8449250" lon="-0.4381910">
        <ele>363.2</ele>
        <time>2020-11-14T11:38:36Z</time>
      </trkpt>
      <trkpt lat="38.8449530" lon="-0.4382380">
        <ele>363.2</ele>
        <time>2020-11-14T11:38:37Z</time>
      </trkpt>
      <trkpt lat="38.8449870" lon="-0.4382830">
        <ele>363.3</ele>
        <time>2020-11-14T11:38:38Z</time>
      </trkpt>
      <trkpt lat="38.8450210" lon="-0.4383340">
        <ele>363.4</ele>
        <time>2020-11-14T11:38:39Z</time>
      </trkpt>
      <trkpt lat="38.8450550" lon="-0.4383630">
        <ele>363.4</ele>
        <time>2020-11-14T11:38:40Z</time>
      </trkpt>
      <trkpt lat="38.8450850" lon="-0.4384130">
        <ele>363.4</ele>
        <time>2020-11-14T11:38:41Z</time>
      </trkpt>
      <trkpt lat="38.8451190" lon="-0.4384560">
        <ele>363.4</ele>
        <time>2020-11-14T11:38:42Z</time>
      </trkpt>
      <trkpt lat="38.8451600" lon="-0.4384760">
        <ele>363.4</ele>
        <time>2020-11-14T11:38:43Z</time>
      </trkpt>
      <trkpt lat="38.8452070" lon="-0.4385170">
        <ele>363.3</ele>
        <time>2020-11-14T11:38:44Z</time>
      </trkpt>
      <trkpt lat="38.8452540" lon="-0.4385440">
        <ele>363.2</ele>
        <time>2020-11-14T11:38:45Z</time>
      </trkpt>
      <trkpt lat="38.8453010" lon="-0.4385680">
        <ele>363.1</ele>
        <time>2020-11-14T11:38:46Z</time>
      </trkpt>
      <trkpt lat="38.8453490" lon="-0.4385840">
        <ele>362.9</ele>
        <time>2020-11-14T11:38:47Z</time>
      </trkpt>
      <trkpt lat="38.8454030" lon="-0.4385920">
        <ele>362.8</ele>
        <time>2020-11-14T11:38:48Z</time>
      </trkpt>
      <trkpt lat="38.8454530" lon="-0.4385980">
        <ele>362.6</ele>
        <time>2020-11-14T11:38:49Z</time>
      </trkpt>
      <trkpt lat="38.8455110" lon="-0.4386050">
        <ele>362.3</ele>
        <time>2020-11-14T11:38:50Z</time>
      </trkpt>
      <trkpt lat="38.8455730" lon="-0.4386060">
        <ele>362.1</ele>
        <time>2020-11-14T11:38:51Z</time>
      </trkpt>
      <trkpt lat="38.8456290" lon="-0.4386020">
        <ele>361.8</ele>
        <time>2020-11-14T11:38:52Z</time>
      </trkpt>
      <trkpt lat="38.8456820" lon="-0.4385970">
        <ele>361.6</ele>
        <time>2020-11-14T11:38:53Z</time>
      </trkpt>
      <trkpt lat="38.8457380" lon="-0.4385930">
        <ele>361.3</ele>
        <time>2020-11-14T11:38:54Z</time>
      </trkpt>
      <trkpt lat="38.8457970" lon="-0.4385940">
        <ele>361.0</ele>
        <time>2020-11-14T11:38:55Z</time>
      </trkpt>
      <trkpt lat="38.8458610" lon="-0.4385970">
        <ele>360.6</ele>
        <time>2020-11-14T11:38:56Z</time>
      </trkpt>
      <trkpt lat="38.8459270" lon="-0.4385990">
        <ele>360.3</ele>
        <time>2020-11-14T11:38:57Z</time>
      </trkpt>
      <trkpt lat="38.8459990" lon="-0.4386010">
        <ele>359.9</ele>
        <time>2020-11-14T11:38:58Z</time>
      </trkpt>
      <trkpt lat="38.8460710" lon="-0.4385990">
        <ele>359.5</ele>
        <time>2020-11-14T11:38:59Z</time>
      </trkpt>
      <trkpt lat="38.8461550" lon="-0.4385750">
        <ele>359.0</ele>
        <time>2020-11-14T11:39:00Z</time>
      </trkpt>
      <trkpt lat="38.8462340" lon="-0.4385690">
        <ele>358.5</ele>
        <time>2020-11-14T11:39:01Z</time>
      </trkpt>
      <trkpt lat="38.8463230" lon="-0.4385640">
        <ele>358.0</ele>
        <time>2020-11-14T11:39:02Z</time>
      </trkpt>
      <trkpt lat="38.8464070" lon="-0.4385570">
        <ele>357.5</ele>
        <time>2020-11-14T11:39:03Z</time>
      </trkpt>
      <trkpt lat="38.8465030" lon="-0.4385510">
        <ele>356.9</ele>
        <time>2020-11-14T11:39:04Z</time>
      </trkpt>
      <trkpt lat="38.8465810" lon="-0.4385470">
        <ele>356.4</ele>
        <time>2020-11-14T11:39:05Z</time>
      </trkpt>
      <trkpt lat="38.8466700" lon="-0.4385600">
        <ele>355.8</ele>
        <time>2020-11-14T11:39:06Z</time>
      </trkpt>
      <trkpt lat="38.8467680" lon="-0.4385730">
        <ele>355.1</ele>
        <time>2020-11-14T11:39:07Z</time>
      </trkpt>
      <trkpt lat="38.8468610" lon="-0.4385820">
        <ele>354.5</ele>
        <time>2020-11-14T11:39:08Z</time>
      </trkpt>
      <trkpt lat="38.8469600" lon="-0.4385990">
        <ele>353.9</ele>
        <time>2020-11-14T11:39:09Z</time>
      </trkpt>
      <trkpt lat="38.8470550" lon="-0.4386240">
        <ele>353.2</ele>
        <time>2020-11-14T11:39:10Z</time>
      </trkpt>
      <trkpt lat="38.8471520" lon="-0.4386440">
        <ele>352.5</ele>
        <time>2020-11-14T11:39:11Z</time>
      </trkpt>
      <trkpt lat="38.8472560" lon="-0.4386630">
        <ele>351.7</ele>
        <time>2020-11-14T11:39:12Z</time>
      </trkpt>
      <trkpt lat="38.8473580" lon="-0.4386810">
        <ele>351.0</ele>
        <time>2020-11-14T11:39:13Z</time>
      </trkpt>
      <trkpt lat="38.8474790" lon="-0.4386330">
        <ele>350.0</ele>
        <time>2020-11-14T11:39:14Z</time>
      </trkpt>
      <trkpt lat="38.8475850" lon="-0.4386270">
        <ele>349.3</ele>
        <time>2020-11-14T11:39:15Z</time>
      </trkpt>
      <trkpt lat="38.8476910" lon="-0.4386230">
        <ele>348.6</ele>
        <time>2020-11-14T11:39:16Z</time>
      </trkpt>
      <trkpt lat="38.8477960" lon="-0.4386130">
        <ele>348.0</ele>
        <time>2020-11-14T11:39:17Z</time>
      </trkpt>
      <trkpt lat="38.8479020" lon="-0.4386030">
        <ele>347.5</ele>
        <time>2020-11-14T11:39:18Z</time>
      </trkpt>
      <trkpt lat="38.8480110" lon="-0.4385970">
        <ele>347.0</ele>
        <time>2020-11-14T11:39:19Z</time>
      </trkpt>
      <trkpt lat="38.8481190" lon="-0.4385960">
        <ele>346.5</ele>
        <time>2020-11-14T11:39:20Z</time>
      </trkpt>
      <trkpt lat="38.8482220" lon="-0.4385790">
        <ele>346.1</ele>
        <time>2020-11-14T11:39:21Z</time>
      </trkpt>
      <trkpt lat="38.8483310" lon="-0.4385640">
        <ele>345.6</ele>
        <time>2020-11-14T11:39:22Z</time>
      </trkpt>
      <trkpt lat="38.8484350" lon="-0.4385440">
        <ele>345.2</ele>
        <time>2020-11-14T11:39:23Z</time>
      </trkpt>
      <trkpt lat="38.8485370" lon="-0.4385190">
        <ele>344.7</ele>
        <time>2020-11-14T11:39:24Z</time>
      </trkpt>
      <trkpt lat="38.8486370" lon="-0.4384950">
        <ele>344.3</ele>
        <time>2020-11-14T11:39:25Z</time>
      </trkpt>
      <trkpt lat="38.8487380" lon="-0.4384670">
        <ele>343.9</ele>
        <time>2020-11-14T11:39:26Z</time>
      </trkpt>
      <trkpt lat="38.8488390" lon="-0.4384340">
        <ele>343.5</ele>
        <time>2020-11-14T11:39:27Z</time>
      </trkpt>
      <trkpt lat="38.8489390" lon="-0.4384080">
        <ele>343.0</ele>
        <time>2020-11-14T11:39:28Z</time>
      </trkpt>
      <trkpt lat="38.8497930" lon="-0.4381280">
        <ele>341.0</ele>
        <time>2020-11-14T11:39:38Z</time>
      </trkpt>
      <trkpt lat="38.8493970" lon="-0.4387950">
        <ele>338.8</ele>
        <time>2020-11-14T11:39:50Z</time>
      </trkpt>
      <trkpt lat="38.8492810" lon="-0.4387720">
        <ele>338.3</ele>
        <time>2020-11-14T11:39:51Z</time>
      </trkpt>
      <trkpt lat="38.8492080" lon="-0.4387950">
        <ele>338.0</ele>
        <time>2020-11-14T11:39:52Z</time>
      </trkpt>
      <trkpt lat="38.8491430" lon="-0.4388190">
        <ele>337.7</ele>
        <time>2020-11-14T11:39:53Z</time>
      </trkpt>
      <trkpt lat="38.8490620" lon="-0.4388740">
        <ele>337.4</ele>
        <time>2020-11-14T11:39:54Z</time>
      </trkpt>
      <trkpt lat="38.8490120" lon="-0.4389240">
        <ele>337.2</ele>
        <time>2020-11-14T11:39:55Z</time>
      </trkpt>
      <trkpt lat="38.8489630" lon="-0.4389980">
        <ele>337.0</ele>
        <time>2020-11-14T11:39:56Z</time>
      </trkpt>
      <trkpt lat="38.8489190" lon="-0.4390820">
        <ele>336.8</ele>
        <time>2020-11-14T11:39:57Z</time>
      </trkpt>
      <trkpt lat="38.8489000" lon="-0.4391930">
        <ele>336.6</ele>
        <time>2020-11-14T11:39:58Z</time>
      </trkpt>
      <trkpt lat="38.8488910" lon="-0.4392940">
        <ele>336.5</ele>
        <time>2020-11-14T11:39:59Z</time>
      </trkpt>
      <trkpt lat="38.8488820" lon="-0.4393900">
        <ele>336.4</ele>
        <time>2020-11-14T11:40:00Z</time>
      </trkpt>
      <trkpt lat="38.8488780" lon="-0.4394890">
        <ele>336.4</ele>
        <time>2020-11-14T11:40:01Z</time>
      </trkpt>
      <trkpt lat="38.8488740" lon="-0.4395950">
        <ele>336.5</ele>
        <time>2020-11-14T11:40:02Z</time>
      </trkpt>
      <trkpt lat="38.8488650" lon="-0.4396880">
        <ele>336.5</ele>
        <time>2020-11-14T11:40:03Z</time>
      </trkpt>
      <trkpt lat="38.8488660" lon="-0.4397860">
        <ele>336.6</ele>
        <time>2020-11-14T11:40:04Z</time>
      </trkpt>
      <trkpt lat="38.8488740" lon="-0.4398870">
        <ele>336.8</ele>
        <time>2020-11-14T11:40:05Z</time>
      </trkpt>
      <trkpt lat="38.8488840" lon="-0.4399770">
        <ele>337.0</ele>
        <time>2020-11-14T11:40:06Z</time>
      </trkpt>
      <trkpt lat="38.8488940" lon="-0.4400600">
        <ele>337.1</ele>
        <time>2020-11-14T11:40:07Z</time>
      </trkpt>
      <trkpt lat="38.8489020" lon="-0.4401430">
        <ele>337.3</ele>
        <time>2020-11-14T11:40:08Z</time>
      </trkpt>
      <trkpt lat="38.8488990" lon="-0.4402100">
        <ele>337.5</ele>
        <time>2020-11-14T11:40:09Z</time>
      </trkpt>
      <trkpt lat="38.8489010" lon="-0.4402880">
        <ele>337.7</ele>
        <time>2020-11-14T11:40:10Z</time>
      </trkpt>
      <trkpt lat="38.8489060" lon="-0.4403610">
        <ele>337.8</ele>
        <time>2020-11-14T11:40:11Z</time>
      </trkpt>
      <trkpt lat="38.8489170" lon="-0.4404320">
        <ele>338.0</ele>
        <time>2020-11-14T11:40:12Z</time>
      </trkpt>
      <trkpt lat="38.8489320" lon="-0.4404960">
        <ele>338.2</ele>
        <time>2020-11-14T11:40:13Z</time>
      </trkpt>
      <trkpt lat="38.8489390" lon="-0.4405650">
        <ele>338.4</ele>
        <time>2020-11-14T11:40:14Z</time>
      </trkpt>
      <trkpt lat="38.8489480" lon="-0.4406420">
        <ele>338.6</ele>
        <time>2020-11-14T11:40:15Z</time>
      </trkpt>
      <trkpt lat="38.8489560" lon="-0.4407160">
        <ele>338.8</ele>
        <time>2020-11-14T11:40:16Z</time>
      </trkpt>
      <trkpt lat="38.8489670" lon="-0.4407890">
        <ele>339.0</ele>
        <time>2020-11-14T11:40:17Z</time>
      </trkpt>
      <trkpt lat="38.8489750" lon="-0.4408710">
        <ele>339.3</ele>
        <time>2020-11-14T11:40:18Z</time>
      </trkpt>
      <trkpt lat="38.8489830" lon="-0.4409380">
        <ele>339.4</ele>
        <time>2020-11-14T11:40:19Z</time>
      </trkpt>
      <trkpt lat="38.8489870" lon="-0.4410080">
        <ele>339.6</ele>
        <time>2020-11-14T11:40:20Z</time>
      </trkpt>
      <trkpt lat="38.8489920" lon="-0.4410790">
        <ele>339.8</ele>
        <time>2020-11-14T11:40:21Z</time>
      </trkpt>
      <trkpt lat="38.8489910" lon="-0.4411420">
        <ele>340.0</ele>
        <time>2020-11-14T11:40:22Z</time>
      </trkpt>
      <trkpt lat="38.8489890" lon="-0.4411980">
        <ele>340.2</ele>
        <time>2020-11-14T11:40:23Z</time>
      </trkpt>
      <trkpt lat="38.8489900" lon="-0.4412660">
        <ele>340.4</ele>
        <time>2020-11-14T11:40:24Z</time>
      </trkpt>
      <trkpt lat="38.8489840" lon="-0.4413290">
        <ele>340.6</ele>
        <time>2020-11-14T11:40:25Z</time>
      </trkpt>
      <trkpt lat="38.8489810" lon="-0.4413920">
        <ele>340.8</ele>
        <time>2020-11-14T11:40:26Z</time>
      </trkpt>
      <trkpt lat="38.8489790" lon="-0.4414600">
        <ele>341.0</ele>
        <time>2020-11-14T11:40:27Z</time>
      </trkpt>
      <trkpt lat="38.8489770" lon="-0.4415120">
        <ele>341.2</ele>
        <time>2020-11-14T11:40:28Z</time>
      </trkpt>
      <trkpt lat="38.8489760" lon="-0.4415740">
        <ele>341.4</ele>
        <time>2020-11-14T11:40:29Z</time>
      </trkpt>
      <trkpt lat="38.8489670" lon="-0.4416380">
        <ele>341.6</ele>
        <time>2020-11-14T11:40:30Z</time>
      </trkpt>
      <trkpt lat="38.8489610" lon="-0.4416990">
        <ele>341.8</ele>
        <time>2020-11-14T11:40:31Z</time>
      </trkpt>
      <trkpt lat="38.8489630" lon="-0.4417530">
        <ele>342.0</ele>
        <time>2020-11-14T11:40:32Z</time>
      </trkpt>
      <trkpt lat="38.8489630" lon="-0.4418170">
        <ele>342.2</ele>
        <time>2020-11-14T11:40:33Z</time>
      </trkpt>
      <trkpt lat="38.8489580" lon="-0.4418750">
        <ele>342.4</ele>
        <time>2020-11-14T11:40:34Z</time>
      </trkpt>
      <trkpt lat="38.8489440" lon="-0.4419300">
        <ele>342.6</ele>
        <time>2020-11-14T11:40:35Z</time>
      </trkpt>
      <trkpt lat="38.8489320" lon="-0.4419920">
        <ele>342.8</ele>
        <time>2020-11-14T11:40:36Z</time>
      </trkpt>
      <trkpt lat="38.8489350" lon="-0.4420410">
        <ele>343.0</ele>
        <time>2020-11-14T11:40:37Z</time>
      </trkpt>
      <trkpt lat="38.8489200" lon="-0.4421030">
        <ele>343.2</ele>
        <time>2020-11-14T11:40:38Z</time>
      </trkpt>
      <trkpt lat="38.8489100" lon="-0.4421570">
        <ele>343.5</ele>
        <time>2020-11-14T11:40:39Z</time>
      </trkpt>
      <trkpt lat="38.8489090" lon="-0.4422010">
        <ele>343.6</ele>
        <time>2020-11-14T11:40:40Z</time>
      </trkpt>
      <trkpt lat="38.8489080" lon="-0.4422430">
        <ele>343.8</ele>
        <time>2020-11-14T11:40:41Z</time>
      </trkpt>
      <trkpt lat="38.8489050" lon="-0.4422830">
        <ele>343.9</ele>
        <time>2020-11-14T11:40:42Z</time>
      </trkpt>
      <trkpt lat="38.8489060" lon="-0.4423230">
        <ele>344.1</ele>
        <time>2020-11-14T11:40:43Z</time>
      </trkpt>
      <trkpt lat="38.8489070" lon="-0.4423690">
        <ele>344.3</ele>
        <time>2020-11-14T11:40:44Z</time>
      </trkpt>
      <trkpt lat="38.8489040" lon="-0.4424080">
        <ele>344.4</ele>
        <time>2020-11-14T11:40:45Z</time>
      </trkpt>
      <trkpt lat="38.8488940" lon="-0.4424590">
        <ele>344.6</ele>
        <time>2020-11-14T11:40:46Z</time>
      </trkpt>
      <trkpt lat="38.8488910" lon="-0.4425110">
        <ele>344.8</ele>
        <time>2020-11-14T11:40:47Z</time>
      </trkpt>
      <trkpt lat="38.8488860" lon="-0.4425600">
        <ele>345.0</ele>
        <time>2020-11-14T11:40:48Z</time>
      </trkpt>
      <trkpt lat="38.8488830" lon="-0.4426070">
        <ele>345.2</ele>
        <time>2020-11-14T11:40:49Z</time>
      </trkpt>
      <trkpt lat="38.8488780" lon="-0.4426530">
        <ele>345.4</ele>
        <time>2020-11-14T11:40:50Z</time>
      </trkpt>
      <trkpt lat="38.8488740" lon="-0.4427040">
        <ele>345.6</ele>
        <time>2020-11-14T11:40:51Z</time>
      </trkpt>
      <trkpt lat="38.8488710" lon="-0.4427550">
        <ele>345.8</ele>
        <time>2020-11-14T11:40:52Z</time>
      </trkpt>
      <trkpt lat="38.8488670" lon="-0.4428060">
        <ele>345.9</ele>
        <time>2020-11-14T11:40:53Z</time>
      </trkpt>
      <trkpt lat="38.8488630" lon="-0.4428560">
        <ele>346.1</ele>
        <time>2020-11-14T11:40:54Z</time>
      </trkpt>
      <trkpt lat="38.8488610" lon="-0.4429070">
        <ele>346.3</ele>
        <time>2020-11-14T11:40:55Z</time>
      </trkpt>
      <trkpt lat="38.8488570" lon="-0.4429580">
        <ele>346.5</ele>
        <time>2020-11-14T11:40:56Z</time>
      </trkpt>
      <trkpt lat="38.8488520" lon="-0.4430070">
        <ele>346.6</ele>
        <time>2020-11-14T11:40:57Z</time>
      </trkpt>
      <trkpt lat="38.8488470" lon="-0.4430550">
        <ele>346.8</ele>
        <time>2020-11-14T11:40:58Z</time>
      </trkpt>
      <trkpt lat="38.8488430" lon="-0.4431020">
        <ele>346.9</ele>
        <time>2020-11-14T11:40:59Z</time>
      </trkpt>
      <trkpt lat="38.8488390" lon="-0.4431520">
        <ele>347.1</ele>
        <time>2020-11-14T11:41:00Z</time>
      </trkpt>
      <trkpt lat="38.8488330" lon="-0.4432030">
        <ele>347.3</ele>
        <time>2020-11-14T11:41:01Z</time>
      </trkpt>
      <trkpt lat="38.8488280" lon="-0.4432510">
        <ele>347.4</ele>
        <time>2020-11-14T11:41:02Z</time>
      </trkpt>
      <trkpt lat="38.8488200" lon="-0.4432980">
        <ele>347.6</ele>
        <time>2020-11-14T11:41:03Z</time>
      </trkpt>
      <trkpt lat="38.8488130" lon="-0.4433440">
        <ele>347.7</ele>
        <time>2020-11-14T11:41:04Z</time>
      </trkpt>
      <trkpt lat="38.8488070" lon="-0.4433930">
        <ele>347.9</ele>
        <time>2020-11-14T11:41:05Z</time>
      </trkpt>
      <trkpt lat="38.8488000" lon="-0.4434430">
        <ele>348.1</ele>
        <time>2020-11-14T11:41:06Z</time>
      </trkpt>
      <trkpt lat="38.8487910" lon="-0.4434950">
        <ele>348.2</ele>
        <time>2020-11-14T11:41:07Z</time>
      </trkpt>
      <trkpt lat="38.8487820" lon="-0.4435440">
        <ele>348.4</ele>
        <time>2020-11-14T11:41:08Z</time>
      </trkpt>
      <trkpt lat="38.8487710" lon="-0.4435910">
        <ele>348.6</ele>
        <time>2020-11-14T11:41:09Z</time>
      </trkpt>
      <trkpt lat="38.8487600" lon="-0.4436370">
        <ele>348.7</ele>
        <time>2020-11-14T11:41:10Z</time>
      </trkpt>
      <trkpt lat="38.8487490" lon="-0.4436830">
        <ele>348.9</ele>
        <time>2020-11-14T11:41:11Z</time>
      </trkpt>
      <trkpt lat="38.8487370" lon="-0.4437270">
        <ele>349.1</ele>
        <time>2020-11-14T11:41:12Z</time>
      </trkpt>
      <trkpt lat="38.8487220" lon="-0.4437690">
        <ele>349.3</ele>
        <time>2020-11-14T11:41:13Z</time>
      </trkpt>
      <trkpt lat="38.8487070" lon="-0.4438090">
        <ele>349.4</ele>
        <time>2020-11-14T11:41:14Z</time>
      </trkpt>
      <trkpt lat="38.8486910" lon="-0.4438510">
        <ele>349.6</ele>
        <time>2020-11-14T11:41:15Z</time>
      </trkpt>
      <trkpt lat="38.8486730" lon="-0.4438920">
        <ele>349.8</ele>
        <time>2020-11-14T11:41:16Z</time>
      </trkpt>
      <trkpt lat="38.8486550" lon="-0.4439330">
        <ele>350.0</ele>
        <time>2020-11-14T11:41:17Z</time>
      </trkpt>
      <trkpt lat="38.8486370" lon="-0.4439710">
        <ele>350.1</ele>
        <time>2020-11-14T11:41:18Z</time>
      </trkpt>
      <trkpt lat="38.8486150" lon="-0.4440100">
        <ele>350.3</ele>
        <time>2020-11-14T11:41:19Z</time>
      </trkpt>
      <trkpt lat="38.8485920" lon="-0.4440430">
        <ele>350.5</ele>
        <time>2020-11-14T11:41:20Z</time>
      </trkpt>
      <trkpt lat="38.8485680" lon="-0.4440720">
        <ele>350.6</ele>
        <time>2020-11-14T11:41:21Z</time>
      </trkpt>
      <trkpt lat="38.8485400" lon="-0.4441000">
        <ele>350.8</ele>
        <time>2020-11-14T11:41:22Z</time>
      </trkpt>
      <trkpt lat="38.8485110" lon="-0.4441260">
        <ele>351.0</ele>
        <time>2020-11-14T11:41:23Z</time>
      </trkpt>
      <trkpt lat="38.8484810" lon="-0.4441490">
        <ele>351.1</ele>
        <time>2020-11-14T11:41:24Z</time>
      </trkpt>
      <trkpt lat="38.8484500" lon="-0.4441720">
        <ele>351.3</ele>
        <time>2020-11-14T11:41:25Z</time>
      </trkpt>
      <trkpt lat="38.8484190" lon="-0.4441940">
        <ele>351.4</ele>
        <time>2020-11-14T11:41:26Z</time>
      </trkpt>
      <trkpt lat="38.8483860" lon="-0.4442120">
        <ele>351.6</ele>
        <time>2020-11-14T11:41:27Z</time>
      </trkpt>
      <trkpt lat="38.8483530" lon="-0.4442270">
        <ele>351.7</ele>
        <time>2020-11-14T11:41:28Z</time>
      </trkpt>
      <trkpt lat="38.8483170" lon="-0.4442440">
        <ele>351.8</ele>
        <time>2020-11-14T11:41:29Z</time>
      </trkpt>
      <trkpt lat="38.8482780" lon="-0.4442600">
        <ele>351.8</ele>
        <time>2020-11-14T11:41:30Z</time>
      </trkpt>
      <trkpt lat="38.8482400" lon="-0.4442730">
        <ele>351.9</ele>
        <time>2020-11-14T11:41:31Z</time>
      </trkpt>
      <trkpt lat="38.8482030" lon="-0.4442870">
        <ele>352.0</ele>
        <time>2020-11-14T11:41:32Z</time>
      </trkpt>
      <trkpt lat="38.8481650" lon="-0.4443040">
        <ele>352.1</ele>
        <time>2020-11-14T11:41:33Z</time>
      </trkpt>
      <trkpt lat="38.8481280" lon="-0.4443270">
        <ele>352.1</ele>
        <time>2020-11-14T11:41:34Z</time>
      </trkpt>
      <trkpt lat="38.8480910" lon="-0.4443520">
        <ele>352.2</ele>
        <time>2020-11-14T11:41:35Z</time>
      </trkpt>
      <trkpt lat="38.8480540" lon="-0.4443790">
        <ele>352.3</ele>
        <time>2020-11-14T11:41:36Z</time>
      </trkpt>
      <trkpt lat="38.8480090" lon="-0.4444000">
        <ele>352.3</ele>
        <time>2020-11-14T11:41:37Z</time>
      </trkpt>
      <trkpt lat="38.8479620" lon="-0.4444150">
        <ele>352.4</ele>
        <time>2020-11-14T11:41:38Z</time>
      </trkpt>
      <trkpt lat="38.8479130" lon="-0.4444250">
        <ele>352.5</ele>
        <time>2020-11-14T11:41:39Z</time>
      </trkpt>
      <trkpt lat="38.8478750" lon="-0.4444480">
        <ele>352.5</ele>
        <time>2020-11-14T11:41:40Z</time>
      </trkpt>
      <trkpt lat="38.8478300" lon="-0.4444640">
        <ele>352.6</ele>
        <time>2020-11-14T11:41:41Z</time>
      </trkpt>
      <trkpt lat="38.8477820" lon="-0.4444790">
        <ele>352.7</ele>
        <time>2020-11-14T11:41:42Z</time>
      </trkpt>
      <trkpt lat="38.8477350" lon="-0.4444940">
        <ele>352.8</ele>
        <time>2020-11-14T11:41:43Z</time>
      </trkpt>
      <trkpt lat="38.8476800" lon="-0.4445130">
        <ele>352.9</ele>
        <time>2020-11-14T11:41:44Z</time>
      </trkpt>
      <trkpt lat="38.8476310" lon="-0.4445280">
        <ele>352.9</ele>
        <time>2020-11-14T11:41:45Z</time>
      </trkpt>
      <trkpt lat="38.8475790" lon="-0.4445440">
        <ele>353.0</ele>
        <time>2020-11-14T11:41:46Z</time>
      </trkpt>
      <trkpt lat="38.8475360" lon="-0.4445530">
        <ele>353.1</ele>
        <time>2020-11-14T11:41:47Z</time>
      </trkpt>
      <trkpt lat="38.8474850" lon="-0.4445650">
        <ele>353.1</ele>
        <time>2020-11-14T11:41:48Z</time>
      </trkpt>
      <trkpt lat="38.8474380" lon="-0.4445860">
        <ele>353.2</ele>
        <time>2020-11-14T11:41:49Z</time>
      </trkpt>
      <trkpt lat="38.8473940" lon="-0.4446090">
        <ele>353.2</ele>
        <time>2020-11-14T11:41:50Z</time>
      </trkpt>
      <trkpt lat="38.8473370" lon="-0.4446270">
        <ele>353.3</ele>
        <time>2020-11-14T11:41:51Z</time>
      </trkpt>
      <trkpt lat="38.8472910" lon="-0.4446410">
        <ele>353.3</ele>
        <time>2020-11-14T11:41:52Z</time>
      </trkpt>
      <trkpt lat="38.8472440" lon="-0.4446510">
        <ele>353.3</ele>
        <time>2020-11-14T11:41:53Z</time>
      </trkpt>
      <trkpt lat="38.8471850" lon="-0.4446550">
        <ele>353.4</ele>
        <time>2020-11-14T11:41:54Z</time>
      </trkpt>
      <trkpt lat="38.8471370" lon="-0.4446770">
        <ele>353.4</ele>
        <time>2020-11-14T11:41:55Z</time>
      </trkpt>
      <trkpt lat="38.8470930" lon="-0.4446900">
        <ele>353.4</ele>
        <time>2020-11-14T11:41:56Z</time>
      </trkpt>
      <trkpt lat="38.8470390" lon="-0.4447110">
        <ele>353.5</ele>
        <time>2020-11-14T11:41:57Z</time>
      </trkpt>
      <trkpt lat="38.8469970" lon="-0.4447330">
        <ele>353.5</ele>
        <time>2020-11-14T11:41:58Z</time>
      </trkpt>
      <trkpt lat="38.8469450" lon="-0.4447550">
        <ele>353.5</ele>
        <time>2020-11-14T11:41:59Z</time>
      </trkpt>
      <trkpt lat="38.8468910" lon="-0.4447790">
        <ele>353.5</ele>
        <time>2020-11-14T11:42:00Z</time>
      </trkpt>
      <trkpt lat="38.8468340" lon="-0.4448030">
        <ele>353.5</ele>
        <time>2020-11-14T11:42:01Z</time>
      </trkpt>
      <trkpt lat="38.8467900" lon="-0.4448300">
        <ele>353.6</ele>
        <time>2020-11-14T11:42:02Z</time>
      </trkpt>
      <trkpt lat="38.8467370" lon="-0.4448530">
        <ele>353.6</ele>
        <time>2020-11-14T11:42:03Z</time>
      </trkpt>
      <trkpt lat="38.8466810" lon="-0.4448740">
        <ele>353.6</ele>
        <time>2020-11-14T11:42:04Z</time>
      </trkpt>
      <trkpt lat="38.8466210" lon="-0.4448920">
        <ele>353.6</ele>
        <time>2020-11-14T11:42:05Z</time>
      </trkpt>
      <trkpt lat="38.8465690" lon="-0.4449100">
        <ele>353.6</ele>
        <time>2020-11-14T11:42:06Z</time>
      </trkpt>
      <trkpt lat="38.8465180" lon="-0.4449370">
        <ele>353.6</ele>
        <time>2020-11-14T11:42:07Z</time>
      </trkpt>
      <trkpt lat="38.8464730" lon="-0.4449660">
        <ele>353.6</ele>
        <time>2020-11-14T11:42:08Z</time>
      </trkpt>
      <trkpt lat="38.8464260" lon="-0.4450070">
        <ele>353.6</ele>
        <time>2020-11-14T11:42:09Z</time>
      </trkpt>
      <trkpt lat="38.8463800" lon="-0.4450280">
        <ele>353.6</ele>
        <time>2020-11-14T11:42:10Z</time>
      </trkpt>
      <trkpt lat="38.8463370" lon="-0.4450730">
        <ele>353.5</ele>
        <time>2020-11-14T11:42:11Z</time>
      </trkpt>
      <trkpt lat="38.8462970" lon="-0.4451080">
        <ele>353.5</ele>
        <time>2020-11-14T11:42:12Z</time>
      </trkpt>
      <trkpt lat="38.8462620" lon="-0.4451480">
        <ele>353.4</ele>
        <time>2020-11-14T11:42:13Z</time>
      </trkpt>
      <trkpt lat="38.8462350" lon="-0.4451920">
        <ele>353.3</ele>
        <time>2020-11-14T11:42:14Z</time>
      </trkpt>
      <trkpt lat="38.8462010" lon="-0.4452490">
        <ele>353.1</ele>
        <time>2020-11-14T11:42:15Z</time>
      </trkpt>
      <trkpt lat="38.8461590" lon="-0.4453080">
        <ele>353.0</ele>
        <time>2020-11-14T11:42:16Z</time>
      </trkpt>
      <trkpt lat="38.8461200" lon="-0.4453680">
        <ele>352.8</ele>
        <time>2020-11-14T11:42:17Z</time>
      </trkpt>
      <trkpt lat="38.8460950" lon="-0.4454270">
        <ele>352.7</ele>
        <time>2020-11-14T11:42:18Z</time>
      </trkpt>
      <trkpt lat="38.8460690" lon="-0.4455030">
        <ele>352.5</ele>
        <time>2020-11-14T11:42:19Z</time>
      </trkpt>
      <trkpt lat="38.8460440" lon="-0.4455730">
        <ele>352.3</ele>
        <time>2020-11-14T11:42:20Z</time>
      </trkpt>
      <trkpt lat="38.8460180" lon="-0.4456470">
        <ele>352.2</ele>
        <time>2020-11-14T11:42:21Z</time>
      </trkpt>
      <trkpt lat="38.8459970" lon="-0.4457200">
        <ele>352.0</ele>
        <time>2020-11-14T11:42:22Z</time>
      </trkpt>
      <trkpt lat="38.8459630" lon="-0.4457880">
        <ele>351.9</ele>
        <time>2020-11-14T11:42:23Z</time>
      </trkpt>
      <trkpt lat="38.8459370" lon="-0.4458540">
        <ele>351.8</ele>
        <time>2020-11-14T11:42:24Z</time>
      </trkpt>
      <trkpt lat="38.8459000" lon="-0.4459240">
        <ele>351.6</ele>
        <time>2020-11-14T11:42:25Z</time>
      </trkpt>
      <trkpt lat="38.8458620" lon="-0.4459900">
        <ele>351.4</ele>
        <time>2020-11-14T11:42:26Z</time>
      </trkpt>
      <trkpt lat="38.8458270" lon="-0.4460700">
        <ele>351.2</ele>
        <time>2020-11-14T11:42:27Z</time>
      </trkpt>
      <trkpt lat="38.8458010" lon="-0.4461360">
        <ele>351.1</ele>
        <time>2020-11-14T11:42:28Z</time>
      </trkpt>
      <trkpt lat="38.8457680" lon="-0.4462140">
        <ele>350.9</ele>
        <time>2020-11-14T11:42:29Z</time>
      </trkpt>
      <trkpt lat="38.8457340" lon="-0.4462870">
        <ele>350.7</ele>
        <time>2020-11-14T11:42:30Z</time>
      </trkpt>
      <trkpt lat="38.8457060" lon="-0.4463650">
        <ele>350.5</ele>
        <time>2020-11-14T11:42:31Z</time>
      </trkpt>
      <trkpt lat="38.8456650" lon="-0.4464380">
        <ele>350.2</ele>
        <time>2020-11-14T11:42:32Z</time>
      </trkpt>
      <trkpt lat="38.8456060" lon="-0.4465140">
        <ele>350.0</ele>
        <time>2020-11-14T11:42:33Z</time>
      </trkpt>
      <trkpt lat="38.8455750" lon="-0.4465910">
        <ele>349.8</ele>
        <time>2020-11-14T11:42:34Z</time>
      </trkpt>
      <trkpt lat="38.8455360" lon="-0.4466710">
        <ele>349.5</ele>
        <time>2020-11-14T11:42:35Z</time>
      </trkpt>
      <trkpt lat="38.8455080" lon="-0.4467590">
        <ele>349.3</ele>
        <time>2020-11-14T11:42:36Z</time>
      </trkpt>
      <trkpt lat="38.8454810" lon="-0.4468460">
        <ele>349.1</ele>
        <time>2020-11-14T11:42:37Z</time>
      </trkpt>
      <trkpt lat="38.8454310" lon="-0.4469360">
        <ele>348.8</ele>
        <time>2020-11-14T11:42:38Z</time>
      </trkpt>
      <trkpt lat="38.8453920" lon="-0.4470240">
        <ele>348.6</ele>
        <time>2020-11-14T11:42:39Z</time>
      </trkpt>
      <trkpt lat="38.8453490" lon="-0.4471190">
        <ele>348.3</ele>
        <time>2020-11-14T11:42:40Z</time>
      </trkpt>
      <trkpt lat="38.8453100" lon="-0.4472110">
        <ele>348.1</ele>
        <time>2020-11-14T11:42:41Z</time>
      </trkpt>
      <trkpt lat="38.8452690" lon="-0.4472950">
        <ele>347.8</ele>
        <time>2020-11-14T11:42:42Z</time>
      </trkpt>
      <trkpt lat="38.8452210" lon="-0.4473790">
        <ele>347.6</ele>
        <time>2020-11-14T11:42:43Z</time>
      </trkpt>
      <trkpt lat="38.8451730" lon="-0.4474480">
        <ele>347.3</ele>
        <time>2020-11-14T11:42:44Z</time>
      </trkpt>
      <trkpt lat="38.8451240" lon="-0.4475050">
        <ele>347.1</ele>
        <time>2020-11-14T11:42:45Z</time>
      </trkpt>
      <trkpt lat="38.8450690" lon="-0.4475750">
        <ele>346.9</ele>
        <time>2020-11-14T11:42:46Z</time>
      </trkpt>
      <trkpt lat="38.8450160" lon="-0.4476340">
        <ele>346.7</ele>
        <time>2020-11-14T11:42:47Z</time>
      </trkpt>
      <trkpt lat="38.8449550" lon="-0.4476940">
        <ele>346.4</ele>
        <time>2020-11-14T11:42:48Z</time>
      </trkpt>
      <trkpt lat="38.8448970" lon="-0.4477450">
        <ele>346.2</ele>
        <time>2020-11-14T11:42:49Z</time>
      </trkpt>
      <trkpt lat="38.8448390" lon="-0.4478090">
        <ele>345.9</ele>
        <time>2020-11-14T11:42:50Z</time>
      </trkpt>
      <trkpt lat="38.8447710" lon="-0.4478610">
        <ele>345.7</ele>
        <time>2020-11-14T11:42:51Z</time>
      </trkpt>
      <trkpt lat="38.8447030" lon="-0.4479190">
        <ele>345.4</ele>
        <time>2020-11-14T11:42:52Z</time>
      </trkpt>
      <trkpt lat="38.8446360" lon="-0.4479810">
        <ele>345.2</ele>
        <time>2020-11-14T11:42:53Z</time>
      </trkpt>
      <trkpt lat="38.8445760" lon="-0.4480480">
        <ele>345.0</ele>
        <time>2020-11-14T11:42:54Z</time>
      </trkpt>
      <trkpt lat="38.8445130" lon="-0.4481280">
        <ele>344.8</ele>
        <time>2020-11-14T11:42:55Z</time>
      </trkpt>
      <trkpt lat="38.8444650" lon="-0.4482040">
        <ele>344.7</ele>
        <time>2020-11-14T11:42:56Z</time>
      </trkpt>
      <trkpt lat="38.8444230" lon="-0.4482830">
        <ele>344.6</ele>
        <time>2020-11-14T11:42:57Z</time>
      </trkpt>
      <trkpt lat="38.8443890" lon="-0.4483740">
        <ele>344.6</ele>
        <time>2020-11-14T11:42:58Z</time>
      </trkpt>
      <trkpt lat="38.8443630" lon="-0.4484560">
        <ele>344.6</ele>
        <time>2020-11-14T11:42:59Z</time>
      </trkpt>
      <trkpt lat="38.8443380" lon="-0.4485370">
        <ele>344.5</ele>
        <time>2020-11-14T11:43:00Z</time>
      </trkpt>
      <trkpt lat="38.8443160" lon="-0.4486160">
        <ele>344.4</ele>
        <time>2020-11-14T11:43:01Z</time>
      </trkpt>
      <trkpt lat="38.8442810" lon="-0.4486910">
        <ele>344.4</ele>
        <time>2020-11-14T11:43:02Z</time>
      </trkpt>
      <trkpt lat="38.8442510" lon="-0.4487710">
        <ele>344.4</ele>
        <time>2020-11-14T11:43:03Z</time>
      </trkpt>
      <trkpt lat="38.8442240" lon="-0.4488490">
        <ele>344.4</ele>
        <time>2020-11-14T11:43:04Z</time>
      </trkpt>
      <trkpt lat="38.8442010" lon="-0.4489310">
        <ele>344.4</ele>
        <time>2020-11-14T11:43:05Z</time>
      </trkpt>
      <trkpt lat="38.8441720" lon="-0.4490310">
        <ele>344.4</ele>
        <time>2020-11-14T11:43:06Z</time>
      </trkpt>
      <trkpt lat="38.8441680" lon="-0.4491110">
        <ele>344.4</ele>
        <time>2020-11-14T11:43:07Z</time>
      </trkpt>
      <trkpt lat="38.8441730" lon="-0.4491930">
        <ele>344.4</ele>
        <time>2020-11-14T11:43:08Z</time>
      </trkpt>
      <trkpt lat="38.8442020" lon="-0.4492590">
        <ele>344.4</ele>
        <time>2020-11-14T11:43:09Z</time>
      </trkpt>
      <trkpt lat="38.8442650" lon="-0.4493780">
        <ele>344.5</ele>
        <time>2020-11-14T11:43:10Z</time>
      </trkpt>
      <trkpt lat="38.8443160" lon="-0.4493870">
        <ele>344.5</ele>
        <time>2020-11-14T11:43:11Z</time>
      </trkpt>
      <trkpt lat="38.8443680" lon="-0.4494380">
        <ele>344.5</ele>
        <time>2020-11-14T11:43:12Z</time>
      </trkpt>
      <trkpt lat="38.8444490" lon="-0.4494800">
        <ele>344.6</ele>
        <time>2020-11-14T11:43:13Z</time>
      </trkpt>
      <trkpt lat="38.8445110" lon="-0.4495160">
        <ele>344.6</ele>
        <time>2020-11-14T11:43:14Z</time>
      </trkpt>
      <trkpt lat="38.8446080" lon="-0.4495620">
        <ele>344.6</ele>
        <time>2020-11-14T11:43:15Z</time>
      </trkpt>
      <trkpt lat="38.8446680" lon="-0.4496060">
        <ele>344.7</ele>
        <time>2020-11-14T11:43:16Z</time>
      </trkpt>
      <trkpt lat="38.8447320" lon="-0.4496880">
        <ele>344.8</ele>
        <time>2020-11-14T11:43:17Z</time>
      </trkpt>
      <trkpt lat="38.8447530" lon="-0.4497370">
        <ele>344.9</ele>
        <time>2020-11-14T11:43:18Z</time>
      </trkpt>
      <trkpt lat="38.8448000" lon="-0.4497950">
        <ele>345.0</ele>
        <time>2020-11-14T11:43:19Z</time>
      </trkpt>
      <trkpt lat="38.8448390" lon="-0.4498610">
        <ele>345.1</ele>
        <time>2020-11-14T11:43:20Z</time>
      </trkpt>
      <trkpt lat="38.8448910" lon="-0.4499590">
        <ele>345.2</ele>
        <time>2020-11-14T11:43:21Z</time>
      </trkpt>
      <trkpt lat="38.8449230" lon="-0.4500340">
        <ele>345.3</ele>
        <time>2020-11-14T11:43:22Z</time>
      </trkpt>
      <trkpt lat="38.8449460" lon="-0.4501010">
        <ele>345.4</ele>
        <time>2020-11-14T11:43:23Z</time>
      </trkpt>
      <trkpt lat="38.8449610" lon="-0.4501750">
        <ele>345.5</ele>
        <time>2020-11-14T11:43:24Z</time>
      </trkpt>
      <trkpt lat="38.8449850" lon="-0.4502520">
        <ele>345.6</ele>
        <time>2020-11-14T11:43:25Z</time>
      </trkpt>
      <trkpt lat="38.8450110" lon="-0.4503310">
        <ele>345.7</ele>
        <time>2020-11-14T11:43:26Z</time>
      </trkpt>
      <trkpt lat="38.8450350" lon="-0.4504220">
        <ele>345.8</ele>
        <time>2020-11-14T11:43:27Z</time>
      </trkpt>
      <trkpt lat="38.8450560" lon="-0.4505090">
        <ele>346.0</ele>
        <time>2020-11-14T11:43:28Z</time>
      </trkpt>
      <trkpt lat="38.8450750" lon="-0.4505850">
        <ele>346.0</ele>
        <time>2020-11-14T11:43:29Z</time>
      </trkpt>
      <trkpt lat="38.8450890" lon="-0.4506640">
        <ele>346.1</ele>
        <time>2020-11-14T11:43:30Z</time>
      </trkpt>
      <trkpt lat="38.8451000" lon="-0.4507370">
        <ele>346.2</ele>
        <time>2020-11-14T11:43:31Z</time>
      </trkpt>
      <trkpt lat="38.8451180" lon="-0.4508160">
        <ele>346.3</ele>
        <time>2020-11-14T11:43:32Z</time>
      </trkpt>
      <trkpt lat="38.8451270" lon="-0.4509030">
        <ele>346.4</ele>
        <time>2020-11-14T11:43:33Z</time>
      </trkpt>
      <trkpt lat="38.8451380" lon="-0.4509840">
        <ele>346.5</ele>
        <time>2020-11-14T11:43:34Z</time>
      </trkpt>
      <trkpt lat="38.8451460" lon="-0.4510620">
        <ele>346.5</ele>
        <time>2020-11-14T11:43:35Z</time>
      </trkpt>
      <trkpt lat="38.8451530" lon="-0.4511430">
        <ele>346.6</ele>
        <time>2020-11-14T11:43:36Z</time>
      </trkpt>
      <trkpt lat="38.8451550" lon="-0.4512280">
        <ele>346.7</ele>
        <time>2020-11-14T11:43:37Z</time>
      </trkpt>
      <trkpt lat="38.8451460" lon="-0.4513100">
        <ele>346.8</ele>
        <time>2020-11-14T11:43:38Z</time>
      </trkpt>
      <trkpt lat="38.8451360" lon="-0.4513940">
        <ele>346.9</ele>
        <time>2020-11-14T11:43:39Z</time>
      </trkpt>
      <trkpt lat="38.8451170" lon="-0.4514820">
        <ele>347.1</ele>
        <time>2020-11-14T11:43:40Z</time>
      </trkpt>
      <trkpt lat="38.8450960" lon="-0.4515550">
        <ele>347.1</ele>
        <time>2020-11-14T11:43:41Z</time>
      </trkpt>
      <trkpt lat="38.8450790" lon="-0.4516310">
        <ele>347.2</ele>
        <time>2020-11-14T11:43:42Z</time>
      </trkpt>
      <trkpt lat="38.8450410" lon="-0.4517140">
        <ele>347.3</ele>
        <time>2020-11-14T11:43:43Z</time>
      </trkpt>
      <trkpt lat="38.8450010" lon="-0.4517720">
        <ele>347.3</ele>
        <time>2020-11-14T11:43:44Z</time>
      </trkpt>
      <trkpt lat="38.8449660" lon="-0.4518350">
        <ele>347.3</ele>
        <time>2020-11-14T11:43:45Z</time>
      </trkpt>
      <trkpt lat="38.8449300" lon="-0.4518630">
        <ele>347.3</ele>
        <time>2020-11-14T11:43:46Z</time>
      </trkpt>
      <trkpt lat="38.8448940" lon="-0.4519310">
        <ele>347.2</ele>
        <time>2020-11-14T11:43:47Z</time>
      </trkpt>
      <trkpt lat="38.8448420" lon="-0.4519880">
        <ele>347.2</ele>
        <time>2020-11-14T11:43:48Z</time>
      </trkpt>
      <trkpt lat="38.8447910" lon="-0.4520360">
        <ele>347.2</ele>
        <time>2020-11-14T11:43:49Z</time>
      </trkpt>
      <trkpt lat="38.8447280" lon="-0.4520800">
        <ele>347.2</ele>
        <time>2020-11-14T11:43:50Z</time>
      </trkpt>
      <trkpt lat="38.8446620" lon="-0.4521160">
        <ele>347.2</ele>
        <time>2020-11-14T11:43:51Z</time>
      </trkpt>
      <trkpt lat="38.8445980" lon="-0.4521560">
        <ele>347.2</ele>
        <time>2020-11-14T11:43:52Z</time>
      </trkpt>
      <trkpt lat="38.8445210" lon="-0.4521960">
        <ele>347.2</ele>
        <time>2020-11-14T11:43:53Z</time>
      </trkpt>
      <trkpt lat="38.8444530" lon="-0.4522370">
        <ele>347.2</ele>
        <time>2020-11-14T11:43:54Z</time>
      </trkpt>
      <trkpt lat="38.8443820" lon="-0.4522770">
        <ele>347.2</ele>
        <time>2020-11-14T11:43:55Z</time>
      </trkpt>
      <trkpt lat="38.8443160" lon="-0.4523170">
        <ele>347.2</ele>
        <time>2020-11-14T11:43:56Z</time>
      </trkpt>
      <trkpt lat="38.8442580" lon="-0.4523590">
        <ele>347.3</ele>
        <time>2020-11-14T11:43:57Z</time>
      </trkpt>
      <trkpt lat="38.8441890" lon="-0.4523940">
        <ele>347.3</ele>
        <time>2020-11-14T11:43:58Z</time>
      </trkpt>
      <trkpt lat="38.8441260" lon="-0.4524410">
        <ele>347.4</ele>
        <time>2020-11-14T11:43:59Z</time>
      </trkpt>
      <trkpt lat="38.8440740" lon="-0.4524890">
        <ele>347.4</ele>
        <time>2020-11-14T11:44:00Z</time>
      </trkpt>
      <trkpt lat="38.8440200" lon="-0.4525500">
        <ele>347.5</ele>
        <time>2020-11-14T11:44:01Z</time>
      </trkpt>
      <trkpt lat="38.8439660" lon="-0.4526100">
        <ele>347.7</ele>
        <time>2020-11-14T11:44:02Z</time>
      </trkpt>
      <trkpt lat="38.8439160" lon="-0.4526690">
        <ele>347.8</ele>
        <time>2020-11-14T11:44:03Z</time>
      </trkpt>
      <trkpt lat="38.8438800" lon="-0.4527450">
        <ele>348.0</ele>
        <time>2020-11-14T11:44:04Z</time>
      </trkpt>
      <trkpt lat="38.8438360" lon="-0.4528190">
        <ele>348.1</ele>
        <time>2020-11-14T11:44:05Z</time>
      </trkpt>
      <trkpt lat="38.8438050" lon="-0.4528850">
        <ele>348.3</ele>
        <time>2020-11-14T11:44:06Z</time>
      </trkpt>
      <trkpt lat="38.8437500" lon="-0.4529510">
        <ele>348.4</ele>
        <time>2020-11-14T11:44:07Z</time>
      </trkpt>
      <trkpt lat="38.8437090" lon="-0.4530030">
        <ele>348.6</ele>
        <time>2020-11-14T11:44:08Z</time>
      </trkpt>
      <trkpt lat="38.8436790" lon="-0.4530570">
        <ele>348.7</ele>
        <time>2020-11-14T11:44:09Z</time>
      </trkpt>
      <trkpt lat="38.8436270" lon="-0.4531010">
        <ele>348.8</ele>
        <time>2020-11-14T11:44:10Z</time>
      </trkpt>
      <trkpt lat="38.8435940" lon="-0.4531700">
        <ele>349.0</ele>
        <time>2020-11-14T11:44:11Z</time>
      </trkpt>
      <trkpt lat="38.8435540" lon="-0.4532300">
        <ele>349.2</ele>
        <time>2020-11-14T11:44:12Z</time>
      </trkpt>
      <trkpt lat="38.8435140" lon="-0.4532950">
        <ele>349.3</ele>
        <time>2020-11-14T11:44:13Z</time>
      </trkpt>
      <trkpt lat="38.8434640" lon="-0.4533580">
        <ele>349.5</ele>
        <time>2020-11-14T11:44:14Z</time>
      </trkpt>
      <trkpt lat="38.8434150" lon="-0.4534240">
        <ele>349.7</ele>
        <time>2020-11-14T11:44:15Z</time>
      </trkpt>
      <trkpt lat="38.8433650" lon="-0.4534790">
        <ele>349.9</ele>
        <time>2020-11-14T11:44:16Z</time>
      </trkpt>
      <trkpt lat="38.8433260" lon="-0.4535330">
        <ele>350.1</ele>
        <time>2020-11-14T11:44:17Z</time>
      </trkpt>
      <trkpt lat="38.8432800" lon="-0.4535780">
        <ele>350.2</ele>
        <time>2020-11-14T11:44:18Z</time>
      </trkpt>
      <trkpt lat="38.8432420" lon="-0.4536220">
        <ele>350.4</ele>
        <time>2020-11-14T11:44:19Z</time>
      </trkpt>
      <trkpt lat="38.8431860" lon="-0.4536610">
        <ele>350.6</ele>
        <time>2020-11-14T11:44:20Z</time>
      </trkpt>
      <trkpt lat="38.8431420" lon="-0.4536930">
        <ele>350.7</ele>
        <time>2020-11-14T11:44:21Z</time>
      </trkpt>
      <trkpt lat="38.8430980" lon="-0.4537310">
        <ele>350.8</ele>
        <time>2020-11-14T11:44:22Z</time>
      </trkpt>
      <trkpt lat="38.8430420" lon="-0.4537680">
        <ele>351.0</ele>
        <time>2020-11-14T11:44:23Z</time>
      </trkpt>
      <trkpt lat="38.8429940" lon="-0.4538120">
        <ele>351.1</ele>
        <time>2020-11-14T11:44:24Z</time>
      </trkpt>
      <trkpt lat="38.8429420" lon="-0.4538470">
        <ele>351.2</ele>
        <time>2020-11-14T11:44:25Z</time>
      </trkpt>
      <trkpt lat="38.8428950" lon="-0.4538790">
        <ele>351.3</ele>
        <time>2020-11-14T11:44:26Z</time>
      </trkpt>
      <trkpt lat="38.8428410" lon="-0.4539180">
        <ele>351.4</ele>
        <time>2020-11-14T11:44:27Z</time>
      </trkpt>
      <trkpt lat="38.8427940" lon="-0.4539440">
        <ele>351.5</ele>
        <time>2020-11-14T11:44:28Z</time>
      </trkpt>
      <trkpt lat="38.8427460" lon="-0.4539800">
        <ele>351.6</ele>
        <time>2020-11-14T11:44:29Z</time>
      </trkpt>
      <trkpt lat="38.8426810" lon="-0.4540080">
        <ele>351.7</ele>
        <time>2020-11-14T11:44:30Z</time>
      </trkpt>
      <trkpt lat="38.8426350" lon="-0.4540370">
        <ele>351.8</ele>
        <time>2020-11-14T11:44:31Z</time>
      </trkpt>
      <trkpt lat="38.8425870" lon="-0.4540680">
        <ele>351.9</ele>
        <time>2020-11-14T11:44:32Z</time>
      </trkpt>
      <trkpt lat="38.8425480" lon="-0.4540970">
        <ele>352.0</ele>
        <time>2020-11-14T11:44:33Z</time>
      </trkpt>
      <trkpt lat="38.8425050" lon="-0.4541160">
        <ele>352.1</ele>
        <time>2020-11-14T11:44:34Z</time>
      </trkpt>
      <trkpt lat="38.8424620" lon="-0.4541460">
        <ele>352.2</ele>
        <time>2020-11-14T11:44:35Z</time>
      </trkpt>
      <trkpt lat="38.8424180" lon="-0.4541710">
        <ele>352.2</ele>
        <time>2020-11-14T11:44:36Z</time>
      </trkpt>
      <trkpt lat="38.8423670" lon="-0.4542030">
        <ele>352.3</ele>
        <time>2020-11-14T11:44:37Z</time>
      </trkpt>
      <trkpt lat="38.8423230" lon="-0.4542430">
        <ele>352.4</ele>
        <time>2020-11-14T11:44:38Z</time>
      </trkpt>
      <trkpt lat="38.8422710" lon="-0.4542630">
        <ele>352.4</ele>
        <time>2020-11-14T11:44:39Z</time>
      </trkpt>
      <trkpt lat="38.8422240" lon="-0.4542870">
        <ele>352.5</ele>
        <time>2020-11-14T11:44:40Z</time>
      </trkpt>
      <trkpt lat="38.8421780" lon="-0.4543090">
        <ele>352.5</ele>
        <time>2020-11-14T11:44:41Z</time>
      </trkpt>
      <trkpt lat="38.8421190" lon="-0.4543280">
        <ele>352.5</ele>
        <time>2020-11-14T11:44:42Z</time>
      </trkpt>
      <trkpt lat="38.8420680" lon="-0.4543430">
        <ele>352.5</ele>
        <time>2020-11-14T11:44:43Z</time>
      </trkpt>
      <trkpt lat="38.8420050" lon="-0.4543500">
        <ele>352.5</ele>
        <time>2020-11-14T11:44:44Z</time>
      </trkpt>
      <trkpt lat="38.8419510" lon="-0.4543740">
        <ele>352.5</ele>
        <time>2020-11-14T11:44:45Z</time>
      </trkpt>
      <trkpt lat="38.8418940" lon="-0.4543900">
        <ele>352.5</ele>
        <time>2020-11-14T11:44:46Z</time>
      </trkpt>
      <trkpt lat="38.8418290" lon="-0.4544120">
        <ele>352.5</ele>
        <time>2020-11-14T11:44:47Z</time>
      </trkpt>
      <trkpt lat="38.8417770" lon="-0.4544370">
        <ele>352.4</ele>
        <time>2020-11-14T11:44:48Z</time>
      </trkpt>
      <trkpt lat="38.8417140" lon="-0.4544650">
        <ele>352.4</ele>
        <time>2020-11-14T11:44:49Z</time>
      </trkpt>
      <trkpt lat="38.8416650" lon="-0.4544730">
        <ele>352.3</ele>
        <time>2020-11-14T11:44:50Z</time>
      </trkpt>
      <trkpt lat="38.8416060" lon="-0.4545080">
        <ele>352.2</ele>
        <time>2020-11-14T11:44:51Z</time>
      </trkpt>
      <trkpt lat="38.8415550" lon="-0.4545460">
        <ele>352.1</ele>
        <time>2020-11-14T11:44:52Z</time>
      </trkpt>
      <trkpt lat="38.8415000" lon="-0.4545980">
        <ele>352.0</ele>
        <time>2020-11-14T11:44:53Z</time>
      </trkpt>
      <trkpt lat="38.8414530" lon="-0.4546400">
        <ele>351.9</ele>
        <time>2020-11-14T11:44:54Z</time>
      </trkpt>
      <trkpt lat="38.8414050" lon="-0.4546910">
        <ele>351.8</ele>
        <time>2020-11-14T11:44:55Z</time>
      </trkpt>
      <trkpt lat="38.8413200" lon="-0.4547440">
        <ele>351.7</ele>
        <time>2020-11-14T11:44:56Z</time>
      </trkpt>
      <trkpt lat="38.8412730" lon="-0.4547830">
        <ele>351.6</ele>
        <time>2020-11-14T11:44:57Z</time>
      </trkpt>
      <trkpt lat="38.8412160" lon="-0.4548340">
        <ele>351.5</ele>
        <time>2020-11-14T11:44:58Z</time>
      </trkpt>
      <trkpt lat="38.8411690" lon="-0.4548980">
        <ele>351.4</ele>
        <time>2020-11-14T11:44:59Z</time>
      </trkpt>
      <trkpt lat="38.8411300" lon="-0.4549740">
        <ele>351.3</ele>
        <time>2020-11-14T11:45:00Z</time>
      </trkpt>
      <trkpt lat="38.8411020" lon="-0.4550500">
        <ele>351.2</ele>
        <time>2020-11-14T11:45:01Z</time>
      </trkpt>
      <trkpt lat="38.8410670" lon="-0.4551340">
        <ele>351.2</ele>
        <time>2020-11-14T11:45:02Z</time>
      </trkpt>
      <trkpt lat="38.8410470" lon="-0.4552300">
        <ele>351.1</ele>
        <time>2020-11-14T11:45:03Z</time>
      </trkpt>
      <trkpt lat="38.8410500" lon="-0.4553260">
        <ele>350.9</ele>
        <time>2020-11-14T11:45:04Z</time>
      </trkpt>
      <trkpt lat="38.8410620" lon="-0.4554350">
        <ele>350.7</ele>
        <time>2020-11-14T11:45:05Z</time>
      </trkpt>
      <trkpt lat="38.8411220" lon="-0.4555500">
        <ele>350.6</ele>
        <time>2020-11-14T11:45:06Z</time>
      </trkpt>
      <trkpt lat="38.8411690" lon="-0.4556280">
        <ele>350.5</ele>
        <time>2020-11-14T11:45:07Z</time>
      </trkpt>
      <trkpt lat="38.8412070" lon="-0.4557000">
        <ele>350.4</ele>
        <time>2020-11-14T11:45:08Z</time>
      </trkpt>
      <trkpt lat="38.8412440" lon="-0.4557540">
        <ele>350.4</ele>
        <time>2020-11-14T11:45:09Z</time>
      </trkpt>
      <trkpt lat="38.8412900" lon="-0.4558280">
        <ele>350.4</ele>
        <time>2020-11-14T11:45:10Z</time>
      </trkpt>
      <trkpt lat="38.8413370" lon="-0.4558920">
        <ele>350.4</ele>
        <time>2020-11-14T11:45:11Z</time>
      </trkpt>
      <trkpt lat="38.8413860" lon="-0.4559540">
        <ele>350.5</ele>
        <time>2020-11-14T11:45:12Z</time>
      </trkpt>
      <trkpt lat="38.8414270" lon="-0.4560210">
        <ele>350.5</ele>
        <time>2020-11-14T11:45:13Z</time>
      </trkpt>
      <trkpt lat="38.8414820" lon="-0.4560800">
        <ele>350.6</ele>
        <time>2020-11-14T11:45:14Z</time>
      </trkpt>
      <trkpt lat="38.8415350" lon="-0.4561620">
        <ele>350.6</ele>
        <time>2020-11-14T11:45:15Z</time>
      </trkpt>
      <trkpt lat="38.8415850" lon="-0.4562250">
        <ele>350.7</ele>
        <time>2020-11-14T11:45:16Z</time>
      </trkpt>
      <trkpt lat="38.8416350" lon="-0.4562850">
        <ele>350.7</ele>
        <time>2020-11-14T11:45:17Z</time>
      </trkpt>
      <trkpt lat="38.8416790" lon="-0.4563760">
        <ele>350.8</ele>
        <time>2020-11-14T11:45:18Z</time>
      </trkpt>
      <trkpt lat="38.8417240" lon="-0.4564410">
        <ele>350.8</ele>
        <time>2020-11-14T11:45:19Z</time>
      </trkpt>
      <trkpt lat="38.8417770" lon="-0.4565150">
        <ele>350.9</ele>
        <time>2020-11-14T11:45:20Z</time>
      </trkpt>
      <trkpt lat="38.8418200" lon="-0.4565790">
        <ele>351.0</ele>
        <time>2020-11-14T11:45:21Z</time>
      </trkpt>
      <trkpt lat="38.8418600" lon="-0.4566390">
        <ele>351.0</ele>
        <time>2020-11-14T11:45:22Z</time>
      </trkpt>
      <trkpt lat="38.8418970" lon="-0.4566900">
        <ele>351.1</ele>
        <time>2020-11-14T11:45:23Z</time>
      </trkpt>
      <trkpt lat="38.8419460" lon="-0.4567630">
        <ele>351.2</ele>
        <time>2020-11-14T11:45:24Z</time>
      </trkpt>
      <trkpt lat="38.8419970" lon="-0.4568410">
        <ele>351.3</ele>
        <time>2020-11-14T11:45:25Z</time>
      </trkpt>
      <trkpt lat="38.8420340" lon="-0.4569000">
        <ele>351.4</ele>
        <time>2020-11-14T11:45:26Z</time>
      </trkpt>
      <trkpt lat="38.8420620" lon="-0.4569540">
        <ele>351.5</ele>
        <time>2020-11-14T11:45:27Z</time>
      </trkpt>
      <trkpt lat="38.8421080" lon="-0.4570240">
        <ele>351.5</ele>
        <time>2020-11-14T11:45:28Z</time>
      </trkpt>
      <trkpt lat="38.8421550" lon="-0.4570830">
        <ele>351.6</ele>
        <time>2020-11-14T11:45:29Z</time>
      </trkpt>
      <trkpt lat="38.8421940" lon="-0.4571450">
        <ele>351.7</ele>
        <time>2020-11-14T11:45:30Z</time>
      </trkpt>
      <trkpt lat="38.8422410" lon="-0.4572070">
        <ele>351.8</ele>
        <time>2020-11-14T11:45:31Z</time>
      </trkpt>
      <trkpt lat="38.8422960" lon="-0.4572710">
        <ele>351.8</ele>
        <time>2020-11-14T11:45:32Z</time>
      </trkpt>
      <trkpt lat="38.8423340" lon="-0.4573360">
        <ele>351.9</ele>
        <time>2020-11-14T11:45:33Z</time>
      </trkpt>
      <trkpt lat="38.8423780" lon="-0.4573870">
        <ele>352.0</ele>
        <time>2020-11-14T11:45:34Z</time>
      </trkpt>
      <trkpt lat="38.8424160" lon="-0.4574370">
        <ele>352.1</ele>
        <time>2020-11-14T11:45:35Z</time>
      </trkpt>
      <trkpt lat="38.8424500" lon="-0.4575020">
        <ele>352.2</ele>
        <time>2020-11-14T11:45:36Z</time>
      </trkpt>
      <trkpt lat="38.8424820" lon="-0.4575640">
        <ele>352.3</ele>
        <time>2020-11-14T11:45:37Z</time>
      </trkpt>
      <trkpt lat="38.8425110" lon="-0.4576220">
        <ele>352.4</ele>
        <time>2020-11-14T11:45:38Z</time>
      </trkpt>
      <trkpt lat="38.8425370" lon="-0.4576920">
        <ele>352.5</ele>
        <time>2020-11-14T11:45:39Z</time>
      </trkpt>
      <trkpt lat="38.8425510" lon="-0.4577970">
        <ele>352.5</ele>
        <time>2020-11-14T11:45:40Z</time>
      </trkpt>
      <trkpt lat="38.8425550" lon="-0.4578630">
        <ele>352.5</ele>
        <time>2020-11-14T11:45:41Z</time>
      </trkpt>
      <trkpt lat="38.8425410" lon="-0.4579460">
        <ele>352.6</ele>
        <time>2020-11-14T11:45:42Z</time>
      </trkpt>
      <trkpt lat="38.8425280" lon="-0.4580300">
        <ele>352.6</ele>
        <time>2020-11-14T11:45:43Z</time>
      </trkpt>
      <trkpt lat="38.8425120" lon="-0.4580950">
        <ele>352.7</ele>
        <time>2020-11-14T11:45:44Z</time>
      </trkpt>
      <trkpt lat="38.8424880" lon="-0.4581820">
        <ele>352.7</ele>
        <time>2020-11-14T11:45:45Z</time>
      </trkpt>
      <trkpt lat="38.8424670" lon="-0.4582590">
        <ele>352.8</ele>
        <time>2020-11-14T11:45:46Z</time>
      </trkpt>
      <trkpt lat="38.8424510" lon="-0.4583380">
        <ele>352.9</ele>
        <time>2020-11-14T11:45:47Z</time>
      </trkpt>
      <trkpt lat="38.8424240" lon="-0.4584160">
        <ele>352.9</ele>
        <time>2020-11-14T11:45:48Z</time>
      </trkpt>
      <trkpt lat="38.8424040" lon="-0.4584850">
        <ele>353.0</ele>
        <time>2020-11-14T11:45:49Z</time>
      </trkpt>
      <trkpt lat="38.8423730" lon="-0.4585620">
        <ele>353.0</ele>
        <time>2020-11-14T11:45:50Z</time>
      </trkpt>
      <trkpt lat="38.8423380" lon="-0.4586300">
        <ele>353.1</ele>
        <time>2020-11-14T11:45:51Z</time>
      </trkpt>
      <trkpt lat="38.8422860" lon="-0.4586870">
        <ele>353.2</ele>
        <time>2020-11-14T11:45:52Z</time>
      </trkpt>
      <trkpt lat="38.8422350" lon="-0.4587340">
        <ele>353.3</ele>
        <time>2020-11-14T11:45:53Z</time>
      </trkpt>
      <trkpt lat="38.8421800" lon="-0.4587880">
        <ele>353.4</ele>
        <time>2020-11-14T11:45:54Z</time>
      </trkpt>
      <trkpt lat="38.8421190" lon="-0.4588120">
        <ele>353.5</ele>
        <time>2020-11-14T11:45:55Z</time>
      </trkpt>
      <trkpt lat="38.8420620" lon="-0.4588330">
        <ele>353.6</ele>
        <time>2020-11-14T11:45:56Z</time>
      </trkpt>
      <trkpt lat="38.8420050" lon="-0.4588480">
        <ele>353.7</ele>
        <time>2020-11-14T11:45:57Z</time>
      </trkpt>
      <trkpt lat="38.8419480" lon="-0.4588620">
        <ele>353.7</ele>
        <time>2020-11-14T11:45:58Z</time>
      </trkpt>
      <trkpt lat="38.8418870" lon="-0.4588700">
        <ele>353.8</ele>
        <time>2020-11-14T11:45:59Z</time>
      </trkpt>
      <trkpt lat="38.8418300" lon="-0.4588770">
        <ele>353.9</ele>
        <time>2020-11-14T11:46:00Z</time>
      </trkpt>
      <trkpt lat="38.8417740" lon="-0.4588770">
        <ele>353.9</ele>
        <time>2020-11-14T11:46:01Z</time>
      </trkpt>
      <trkpt lat="38.8417190" lon="-0.4588830">
        <ele>353.9</ele>
        <time>2020-11-14T11:46:02Z</time>
      </trkpt>
      <trkpt lat="38.8416600" lon="-0.4588800">
        <ele>353.9</ele>
        <time>2020-11-14T11:46:03Z</time>
      </trkpt>
      <trkpt lat="38.8415940" lon="-0.4588870">
        <ele>353.9</ele>
        <time>2020-11-14T11:46:04Z</time>
      </trkpt>
      <trkpt lat="38.8415330" lon="-0.4588860">
        <ele>353.8</ele>
        <time>2020-11-14T11:46:05Z</time>
      </trkpt>
      <trkpt lat="38.8414700" lon="-0.4588850">
        <ele>353.6</ele>
        <time>2020-11-14T11:46:06Z</time>
      </trkpt>
      <trkpt lat="38.8413980" lon="-0.4589080">
        <ele>353.4</ele>
        <time>2020-11-14T11:46:07Z</time>
      </trkpt>
      <trkpt lat="38.8413360" lon="-0.4589310">
        <ele>353.1</ele>
        <time>2020-11-14T11:46:08Z</time>
      </trkpt>
      <trkpt lat="38.8412740" lon="-0.4589620">
        <ele>352.8</ele>
        <time>2020-11-14T11:46:09Z</time>
      </trkpt>
      <trkpt lat="38.8412050" lon="-0.4589950">
        <ele>352.5</ele>
        <time>2020-11-14T11:46:10Z</time>
      </trkpt>
      <trkpt lat="38.8411410" lon="-0.4590360">
        <ele>352.1</ele>
        <time>2020-11-14T11:46:11Z</time>
      </trkpt>
      <trkpt lat="38.8410660" lon="-0.4590740">
        <ele>351.7</ele>
        <time>2020-11-14T11:46:12Z</time>
      </trkpt>
      <trkpt lat="38.8409990" lon="-0.4591180">
        <ele>351.3</ele>
        <time>2020-11-14T11:46:13Z</time>
      </trkpt>
      <trkpt lat="38.8409280" lon="-0.4591580">
        <ele>350.9</ele>
        <time>2020-11-14T11:46:14Z</time>
      </trkpt>
      <trkpt lat="38.8408570" lon="-0.4592130">
        <ele>350.4</ele>
        <time>2020-11-14T11:46:15Z</time>
      </trkpt>
      <trkpt lat="38.8407860" lon="-0.4592900">
        <ele>349.9</ele>
        <time>2020-11-14T11:46:16Z</time>
      </trkpt>
      <trkpt lat="38.8407390" lon="-0.4593870">
        <ele>349.4</ele>
        <time>2020-11-14T11:46:17Z</time>
      </trkpt>
      <trkpt lat="38.8406910" lon="-0.4594810">
        <ele>349.0</ele>
        <time>2020-11-14T11:46:18Z</time>
      </trkpt>
      <trkpt lat="38.8406830" lon="-0.4595970">
        <ele>348.6</ele>
        <time>2020-11-14T11:46:19Z</time>
      </trkpt>
      <trkpt lat="38.8406640" lon="-0.4597110">
        <ele>348.1</ele>
        <time>2020-11-14T11:46:20Z</time>
      </trkpt>
      <trkpt lat="38.8406570" lon="-0.4598260">
        <ele>347.7</ele>
        <time>2020-11-14T11:46:21Z</time>
      </trkpt>
      <trkpt lat="38.8407150" lon="-0.4599270">
        <ele>347.1</ele>
        <time>2020-11-14T11:46:22Z</time>
      </trkpt>
      <trkpt lat="38.8407360" lon="-0.4600370">
        <ele>346.6</ele>
        <time>2020-11-14T11:46:23Z</time>
      </trkpt>
      <trkpt lat="38.8408470" lon="-0.4601010">
        <ele>345.8</ele>
        <time>2020-11-14T11:46:24Z</time>
      </trkpt>
      <trkpt lat="38.8409080" lon="-0.4601960">
        <ele>345.2</ele>
        <time>2020-11-14T11:46:25Z</time>
      </trkpt>
      <trkpt lat="38.8409680" lon="-0.4603160">
        <ele>344.6</ele>
        <time>2020-11-14T11:46:26Z</time>
      </trkpt>
      <trkpt lat="38.8410260" lon="-0.4604230">
        <ele>344.1</ele>
        <time>2020-11-14T11:46:27Z</time>
      </trkpt>
      <trkpt lat="38.8410760" lon="-0.4605280">
        <ele>343.7</ele>
        <time>2020-11-14T11:46:28Z</time>
      </trkpt>
      <trkpt lat="38.8411170" lon="-0.4606320">
        <ele>343.2</ele>
        <time>2020-11-14T11:46:29Z</time>
      </trkpt>
      <trkpt lat="38.8411810" lon="-0.4607550">
        <ele>343.0</ele>
        <time>2020-11-14T11:46:30Z</time>
      </trkpt>
      <trkpt lat="38.8412390" lon="-0.4608690">
        <ele>342.9</ele>
        <time>2020-11-14T11:46:31Z</time>
      </trkpt>
      <trkpt lat="38.8412930" lon="-0.4609880">
        <ele>342.9</ele>
        <time>2020-11-14T11:46:32Z</time>
      </trkpt>
      <trkpt lat="38.8413500" lon="-0.4610930">
        <ele>342.9</ele>
        <time>2020-11-14T11:46:33Z</time>
      </trkpt>
      <trkpt lat="38.8414210" lon="-0.4611840">
        <ele>343.0</ele>
        <time>2020-11-14T11:46:34Z</time>
      </trkpt>
      <trkpt lat="38.8414810" lon="-0.4612670">
        <ele>343.0</ele>
        <time>2020-11-14T11:46:35Z</time>
      </trkpt>
      <trkpt lat="38.8415470" lon="-0.4613300">
        <ele>343.1</ele>
        <time>2020-11-14T11:46:36Z</time>
      </trkpt>
      <trkpt lat="38.8416180" lon="-0.4613640">
        <ele>343.4</ele>
        <time>2020-11-14T11:46:37Z</time>
      </trkpt>
      <trkpt lat="38.8416950" lon="-0.4613720">
        <ele>343.6</ele>
        <time>2020-11-14T11:46:38Z</time>
      </trkpt>
      <trkpt lat="38.8417710" lon="-0.4613510">
        <ele>343.8</ele>
        <time>2020-11-14T11:46:39Z</time>
      </trkpt>
      <trkpt lat="38.8418430" lon="-0.4613370">
        <ele>343.9</ele>
        <time>2020-11-14T11:46:40Z</time>
      </trkpt>
      <trkpt lat="38.8419170" lon="-0.4613170">
        <ele>344.1</ele>
        <time>2020-11-14T11:46:41Z</time>
      </trkpt>
      <trkpt lat="38.8419850" lon="-0.4613070">
        <ele>344.3</ele>
        <time>2020-11-14T11:46:42Z</time>
      </trkpt>
      <trkpt lat="38.8420510" lon="-0.4612970">
        <ele>344.5</ele>
        <time>2020-11-14T11:46:43Z</time>
      </trkpt>
      <trkpt lat="38.8421190" lon="-0.4612830">
        <ele>344.7</ele>
        <time>2020-11-14T11:46:44Z</time>
      </trkpt>
      <trkpt lat="38.8421890" lon="-0.4612600">
        <ele>344.8</ele>
        <time>2020-11-14T11:46:45Z</time>
      </trkpt>
      <trkpt lat="38.8422480" lon="-0.4612320">
        <ele>345.0</ele>
        <time>2020-11-14T11:46:46Z</time>
      </trkpt>
      <trkpt lat="38.8423100" lon="-0.4612190">
        <ele>345.1</ele>
        <time>2020-11-14T11:46:47Z</time>
      </trkpt>
      <trkpt lat="38.8423670" lon="-0.4612070">
        <ele>345.2</ele>
        <time>2020-11-14T11:46:48Z</time>
      </trkpt>
      <trkpt lat="38.8424260" lon="-0.4612170">
        <ele>345.4</ele>
        <time>2020-11-14T11:46:49Z</time>
      </trkpt>
      <trkpt lat="38.8424820" lon="-0.4612360">
        <ele>345.4</ele>
        <time>2020-11-14T11:46:50Z</time>
      </trkpt>
      <trkpt lat="38.8425380" lon="-0.4612700">
        <ele>345.6</ele>
        <time>2020-11-14T11:46:51Z</time>
      </trkpt>
      <trkpt lat="38.8425900" lon="-0.4613140">
        <ele>345.7</ele>
        <time>2020-11-14T11:46:52Z</time>
      </trkpt>
      <trkpt lat="38.8426390" lon="-0.4613690">
        <ele>345.8</ele>
        <time>2020-11-14T11:46:53Z</time>
      </trkpt>
      <trkpt lat="38.8426860" lon="-0.4614280">
        <ele>345.9</ele>
        <time>2020-11-14T11:46:54Z</time>
      </trkpt>
      <trkpt lat="38.8427220" lon="-0.4614920">
        <ele>346.0</ele>
        <time>2020-11-14T11:46:55Z</time>
      </trkpt>
      <trkpt lat="38.8427510" lon="-0.4615680">
        <ele>346.1</ele>
        <time>2020-11-14T11:46:56Z</time>
      </trkpt>
      <trkpt lat="38.8427730" lon="-0.4616470">
        <ele>346.3</ele>
        <time>2020-11-14T11:46:57Z</time>
      </trkpt>
      <trkpt lat="38.8427810" lon="-0.4617180">
        <ele>346.4</ele>
        <time>2020-11-14T11:46:58Z</time>
      </trkpt>
      <trkpt lat="38.8428010" lon="-0.4617980">
        <ele>346.5</ele>
        <time>2020-11-14T11:46:59Z</time>
      </trkpt>
      <trkpt lat="38.8428120" lon="-0.4618720">
        <ele>346.7</ele>
        <time>2020-11-14T11:47:00Z</time>
      </trkpt>
      <trkpt lat="38.8428250" lon="-0.4619580">
        <ele>346.8</ele>
        <time>2020-11-14T11:47:01Z</time>
      </trkpt>
      <trkpt lat="38.8428340" lon="-0.4620500">
        <ele>346.9</ele>
        <time>2020-11-14T11:47:02Z</time>
      </trkpt>
      <trkpt lat="38.8428430" lon="-0.4621280">
        <ele>347.0</ele>
        <time>2020-11-14T11:47:03Z</time>
      </trkpt>
      <trkpt lat="38.8428440" lon="-0.4622070">
        <ele>347.1</ele>
        <time>2020-11-14T11:47:04Z</time>
      </trkpt>
      <trkpt lat="38.8428390" lon="-0.4622800">
        <ele>347.2</ele>
        <time>2020-11-14T11:47:05Z</time>
      </trkpt>
      <trkpt lat="38.8428380" lon="-0.4623580">
        <ele>347.3</ele>
        <time>2020-11-14T11:47:06Z</time>
      </trkpt>
      <trkpt lat="38.8428490" lon="-0.4624320">
        <ele>347.4</ele>
        <time>2020-11-14T11:47:07Z</time>
      </trkpt>
      <trkpt lat="38.8428560" lon="-0.4625050">
        <ele>347.5</ele>
        <time>2020-11-14T11:47:08Z</time>
      </trkpt>
      <trkpt lat="38.8428620" lon="-0.4625810">
        <ele>347.6</ele>
        <time>2020-11-14T11:47:09Z</time>
      </trkpt>
      <trkpt lat="38.8428740" lon="-0.4626600">
        <ele>347.8</ele>
        <time>2020-11-14T11:47:10Z</time>
      </trkpt>
      <trkpt lat="38.8428870" lon="-0.4627320">
        <ele>347.9</ele>
        <time>2020-11-14T11:47:11Z</time>
      </trkpt>
      <trkpt lat="38.8428910" lon="-0.4628060">
        <ele>348.0</ele>
        <time>2020-11-14T11:47:12Z</time>
      </trkpt>
      <trkpt lat="38.8428950" lon="-0.4628860">
        <ele>348.2</ele>
        <time>2020-11-14T11:47:13Z</time>
      </trkpt>
      <trkpt lat="38.8428990" lon="-0.4629600">
        <ele>348.3</ele>
        <time>2020-11-14T11:47:14Z</time>
      </trkpt>
      <trkpt lat="38.8429020" lon="-0.4630480">
        <ele>348.5</ele>
        <time>2020-11-14T11:47:15Z</time>
      </trkpt>
      <trkpt lat="38.8428960" lon="-0.4631310">
        <ele>348.6</ele>
        <time>2020-11-14T11:47:16Z</time>
      </trkpt>
      <trkpt lat="38.8428890" lon="-0.4631970">
        <ele>348.7</ele>
        <time>2020-11-14T11:47:17Z</time>
      </trkpt>
      <trkpt lat="38.8428820" lon="-0.4632710">
        <ele>348.8</ele>
        <time>2020-11-14T11:47:18Z</time>
      </trkpt>
      <trkpt lat="38.8428740" lon="-0.4633440">
        <ele>348.8</ele>
        <time>2020-11-14T11:47:19Z</time>
      </trkpt>
      <trkpt lat="38.8428530" lon="-0.4634130">
        <ele>348.9</ele>
        <time>2020-11-14T11:47:20Z</time>
      </trkpt>
      <trkpt lat="38.8428420" lon="-0.4634810">
        <ele>349.0</ele>
        <time>2020-11-14T11:47:21Z</time>
      </trkpt>
      <trkpt lat="38.8428180" lon="-0.4635490">
        <ele>349.1</ele>
        <time>2020-11-14T11:47:22Z</time>
      </trkpt>
      <trkpt lat="38.8427900" lon="-0.4636140">
        <ele>349.2</ele>
        <time>2020-11-14T11:47:23Z</time>
      </trkpt>
      <trkpt lat="38.8427650" lon="-0.4636770">
        <ele>349.3</ele>
        <time>2020-11-14T11:47:24Z</time>
      </trkpt>
      <trkpt lat="38.8427360" lon="-0.4637380">
        <ele>349.4</ele>
        <time>2020-11-14T11:47:25Z</time>
      </trkpt>
      <trkpt lat="38.8427050" lon="-0.4637980">
        <ele>349.5</ele>
        <time>2020-11-14T11:47:26Z</time>
      </trkpt>
      <trkpt lat="38.8426760" lon="-0.4638580">
        <ele>349.5</ele>
        <time>2020-11-14T11:47:27Z</time>
      </trkpt>
      <trkpt lat="38.8426510" lon="-0.4639220">
        <ele>349.6</ele>
        <time>2020-11-14T11:47:28Z</time>
      </trkpt>
      <trkpt lat="38.8426170" lon="-0.4639820">
        <ele>349.6</ele>
        <time>2020-11-14T11:47:29Z</time>
      </trkpt>
      <trkpt lat="38.8425890" lon="-0.4640510">
        <ele>349.6</ele>
        <time>2020-11-14T11:47:30Z</time>
      </trkpt>
      <trkpt lat="38.8425520" lon="-0.4641160">
        <ele>349.6</ele>
        <time>2020-11-14T11:47:31Z</time>
      </trkpt>
      <trkpt lat="38.8425200" lon="-0.4641780">
        <ele>349.6</ele>
        <time>2020-11-14T11:47:32Z</time>
      </trkpt>
      <trkpt lat="38.8424880" lon="-0.4642400">
        <ele>349.5</ele>
        <time>2020-11-14T11:47:33Z</time>
      </trkpt>
      <trkpt lat="38.8424470" lon="-0.4643030">
        <ele>349.4</ele>
        <time>2020-11-14T11:47:34Z</time>
      </trkpt>
      <trkpt lat="38.8424150" lon="-0.4643650">
        <ele>349.3</ele>
        <time>2020-11-14T11:47:35Z</time>
      </trkpt>
      <trkpt lat="38.8423870" lon="-0.4644280">
        <ele>349.1</ele>
        <time>2020-11-14T11:47:36Z</time>
      </trkpt>
      <trkpt lat="38.8423630" lon="-0.4645000">
        <ele>348.9</ele>
        <time>2020-11-14T11:47:37Z</time>
      </trkpt>
      <trkpt lat="38.8423270" lon="-0.4645770">
        <ele>348.6</ele>
        <time>2020-11-14T11:47:38Z</time>
      </trkpt>
      <trkpt lat="38.8422930" lon="-0.4646520">
        <ele>348.3</ele>
        <time>2020-11-14T11:47:39Z</time>
      </trkpt>
      <trkpt lat="38.8422580" lon="-0.4647380">
        <ele>348.2</ele>
        <time>2020-11-14T11:47:40Z</time>
      </trkpt>
      <trkpt lat="38.8422160" lon="-0.4648220">
        <ele>347.7</ele>
        <time>2020-11-14T11:47:41Z</time>
      </trkpt>
      <trkpt lat="38.8421770" lon="-0.4649050">
        <ele>347.3</ele>
        <time>2020-11-14T11:47:42Z</time>
      </trkpt>
      <trkpt lat="38.8421380" lon="-0.4649820">
        <ele>346.9</ele>
        <time>2020-11-14T11:47:43Z</time>
      </trkpt>
      <trkpt lat="38.8420900" lon="-0.4650650">
        <ele>346.3</ele>
        <time>2020-11-14T11:47:44Z</time>
      </trkpt>
      <trkpt lat="38.8420460" lon="-0.4651640">
        <ele>345.7</ele>
        <time>2020-11-14T11:47:45Z</time>
      </trkpt>
      <trkpt lat="38.8419930" lon="-0.4652520">
        <ele>345.2</ele>
        <time>2020-11-14T11:47:46Z</time>
      </trkpt>
      <trkpt lat="38.8419430" lon="-0.4653420">
        <ele>344.6</ele>
        <time>2020-11-14T11:47:47Z</time>
      </trkpt>
      <trkpt lat="38.8419080" lon="-0.4654410">
        <ele>344.0</ele>
        <time>2020-11-14T11:47:48Z</time>
      </trkpt>
      <trkpt lat="38.8418610" lon="-0.4655510">
        <ele>343.4</ele>
        <time>2020-11-14T11:47:49Z</time>
      </trkpt>
      <trkpt lat="38.8418200" lon="-0.4656550">
        <ele>342.8</ele>
        <time>2020-11-14T11:47:50Z</time>
      </trkpt>
      <trkpt lat="38.8417820" lon="-0.4657560">
        <ele>342.2</ele>
        <time>2020-11-14T11:47:51Z</time>
      </trkpt>
      <trkpt lat="38.8417390" lon="-0.4658550">
        <ele>341.6</ele>
        <time>2020-11-14T11:47:52Z</time>
      </trkpt>
      <trkpt lat="38.8416850" lon="-0.4659530">
        <ele>341.0</ele>
        <time>2020-11-14T11:47:53Z</time>
      </trkpt>
      <trkpt lat="38.8416240" lon="-0.4660600">
        <ele>340.3</ele>
        <time>2020-11-14T11:47:54Z</time>
      </trkpt>
      <trkpt lat="38.8415810" lon="-0.4661670">
        <ele>339.6</ele>
        <time>2020-11-14T11:47:55Z</time>
      </trkpt>
      <trkpt lat="38.8415350" lon="-0.4662760">
        <ele>339.0</ele>
        <time>2020-11-14T11:47:56Z</time>
      </trkpt>
      <trkpt lat="38.8414870" lon="-0.4663880">
        <ele>338.4</ele>
        <time>2020-11-14T11:47:57Z</time>
      </trkpt>
      <trkpt lat="38.8414340" lon="-0.4665000">
        <ele>337.8</ele>
        <time>2020-11-14T11:47:58Z</time>
      </trkpt>
      <trkpt lat="38.8413920" lon="-0.4666110">
        <ele>337.3</ele>
        <time>2020-11-14T11:47:59Z</time>
      </trkpt>
      <trkpt lat="38.8413470" lon="-0.4667270">
        <ele>336.9</ele>
        <time>2020-11-14T11:48:00Z</time>
      </trkpt>
      <trkpt lat="38.8413110" lon="-0.4668400">
        <ele>336.5</ele>
        <time>2020-11-14T11:48:01Z</time>
      </trkpt>
      <trkpt lat="38.8412890" lon="-0.4669390">
        <ele>336.2</ele>
        <time>2020-11-14T11:48:02Z</time>
      </trkpt>
      <trkpt lat="38.8412720" lon="-0.4670570">
        <ele>336.0</ele>
        <time>2020-11-14T11:48:03Z</time>
      </trkpt>
      <trkpt lat="38.8412520" lon="-0.4671940">
        <ele>335.7</ele>
        <time>2020-11-14T11:48:04Z</time>
      </trkpt>
      <trkpt lat="38.8412390" lon="-0.4673340">
        <ele>335.5</ele>
        <time>2020-11-14T11:48:05Z</time>
      </trkpt>
      <trkpt lat="38.8412450" lon="-0.4674550">
        <ele>335.4</ele>
        <time>2020-11-14T11:48:06Z</time>
      </trkpt>
      <trkpt lat="38.8412330" lon="-0.4675750">
        <ele>335.2</ele>
        <time>2020-11-14T11:48:07Z</time>
      </trkpt>
      <trkpt lat="38.8412310" lon="-0.4676950">
        <ele>335.2</ele>
        <time>2020-11-14T11:48:08Z</time>
      </trkpt>
      <trkpt lat="38.8412400" lon="-0.4678200">
        <ele>335.1</ele>
        <time>2020-11-14T11:48:09Z</time>
      </trkpt>
      <trkpt lat="38.8412530" lon="-0.4679500">
        <ele>335.1</ele>
        <time>2020-11-14T11:48:10Z</time>
      </trkpt>
      <trkpt lat="38.8412640" lon="-0.4680620">
        <ele>335.1</ele>
        <time>2020-11-14T11:48:11Z</time>
      </trkpt>
      <trkpt lat="38.8412780" lon="-0.4681740">
        <ele>335.1</ele>
        <time>2020-11-14T11:48:12Z</time>
      </trkpt>
      <trkpt lat="38.8412840" lon="-0.4682790">
        <ele>335.2</ele>
        <time>2020-11-14T11:48:13Z</time>
      </trkpt>
      <trkpt lat="38.8413020" lon="-0.4683900">
        <ele>335.3</ele>
        <time>2020-11-14T11:48:14Z</time>
      </trkpt>
      <trkpt lat="38.8412860" lon="-0.4685370">
        <ele>335.4</ele>
        <time>2020-11-14T11:48:15Z</time>
      </trkpt>
      <trkpt lat="38.8412980" lon="-0.4686480">
        <ele>335.5</ele>
        <time>2020-11-14T11:48:16Z</time>
      </trkpt>
      <trkpt lat="38.8413070" lon="-0.4687630">
        <ele>335.5</ele>
        <time>2020-11-14T11:48:17Z</time>
      </trkpt>
      <trkpt lat="38.8413010" lon="-0.4688630">
        <ele>335.6</ele>
        <time>2020-11-14T11:48:18Z</time>
      </trkpt>
      <trkpt lat="38.8412890" lon="-0.4689580">
        <ele>335.7</ele>
        <time>2020-11-14T11:48:19Z</time>
      </trkpt>
      <trkpt lat="38.8412770" lon="-0.4690540">
        <ele>335.8</ele>
        <time>2020-11-14T11:48:20Z</time>
      </trkpt>
      <trkpt lat="38.8412230" lon="-0.4691620">
        <ele>335.9</ele>
        <time>2020-11-14T11:48:21Z</time>
      </trkpt>
      <trkpt lat="38.8411900" lon="-0.4692490">
        <ele>336.0</ele>
        <time>2020-11-14T11:48:22Z</time>
      </trkpt>
      <trkpt lat="38.8411630" lon="-0.4693290">
        <ele>336.1</ele>
        <time>2020-11-14T11:48:23Z</time>
      </trkpt>
      <trkpt lat="38.8411280" lon="-0.4694110">
        <ele>336.1</ele>
        <time>2020-11-14T11:48:24Z</time>
      </trkpt>
      <trkpt lat="38.8410890" lon="-0.4694900">
        <ele>336.1</ele>
        <time>2020-11-14T11:48:25Z</time>
      </trkpt>
      <trkpt lat="38.8410610" lon="-0.4695730">
        <ele>336.2</ele>
        <time>2020-11-14T11:48:26Z</time>
      </trkpt>
      <trkpt lat="38.8410370" lon="-0.4696600">
        <ele>336.2</ele>
        <time>2020-11-14T11:48:27Z</time>
      </trkpt>
      <trkpt lat="38.8410040" lon="-0.4697300">
        <ele>336.2</ele>
        <time>2020-11-14T11:48:28Z</time>
      </trkpt>
      <trkpt lat="38.8409790" lon="-0.4697980">
        <ele>336.2</ele>
        <time>2020-11-14T11:48:29Z</time>
      </trkpt>
      <trkpt lat="38.8409430" lon="-0.4698660">
        <ele>336.2</ele>
        <time>2020-11-14T11:48:30Z</time>
      </trkpt>
      <trkpt lat="38.8409170" lon="-0.4699460">
        <ele>336.2</ele>
        <time>2020-11-14T11:48:31Z</time>
      </trkpt>
      <trkpt lat="38.8408810" lon="-0.4700240">
        <ele>336.2</ele>
        <time>2020-11-14T11:48:32Z</time>
      </trkpt>
      <trkpt lat="38.8408480" lon="-0.4700950">
        <ele>336.2</ele>
        <time>2020-11-14T11:48:33Z</time>
      </trkpt>
      <trkpt lat="38.8408110" lon="-0.4701610">
        <ele>336.2</ele>
        <time>2020-11-14T11:48:34Z</time>
      </trkpt>
      <trkpt lat="38.8407810" lon="-0.4702350">
        <ele>336.3</ele>
        <time>2020-11-14T11:48:35Z</time>
      </trkpt>
      <trkpt lat="38.8407530" lon="-0.4703060">
        <ele>336.3</ele>
        <time>2020-11-14T11:48:36Z</time>
      </trkpt>
      <trkpt lat="38.8407200" lon="-0.4703760">
        <ele>336.3</ele>
        <time>2020-11-14T11:48:37Z</time>
      </trkpt>
      <trkpt lat="38.8406870" lon="-0.4704540">
        <ele>336.3</ele>
        <time>2020-11-14T11:48:38Z</time>
      </trkpt>
      <trkpt lat="38.8406550" lon="-0.4705230">
        <ele>336.3</ele>
        <time>2020-11-14T11:48:39Z</time>
      </trkpt>
      <trkpt lat="38.8406190" lon="-0.4706010">
        <ele>336.2</ele>
        <time>2020-11-14T11:48:40Z</time>
      </trkpt>
      <trkpt lat="38.8405850" lon="-0.4706760">
        <ele>336.2</ele>
        <time>2020-11-14T11:48:41Z</time>
      </trkpt>
      <trkpt lat="38.8405490" lon="-0.4707460">
        <ele>336.2</ele>
        <time>2020-11-14T11:48:42Z</time>
      </trkpt>
      <trkpt lat="38.8405140" lon="-0.4708180">
        <ele>336.2</ele>
        <time>2020-11-14T11:48:43Z</time>
      </trkpt>
      <trkpt lat="38.8404760" lon="-0.4708830">
        <ele>336.2</ele>
        <time>2020-11-14T11:48:44Z</time>
      </trkpt>
      <trkpt lat="38.8404370" lon="-0.4709540">
        <ele>336.2</ele>
        <time>2020-11-14T11:48:45Z</time>
      </trkpt>
      <trkpt lat="38.8404010" lon="-0.4710300">
        <ele>336.2</ele>
        <time>2020-11-14T11:48:46Z</time>
      </trkpt>
      <trkpt lat="38.8403630" lon="-0.4711030">
        <ele>336.2</ele>
        <time>2020-11-14T11:48:47Z</time>
      </trkpt>
      <trkpt lat="38.8403320" lon="-0.4711740">
        <ele>336.2</ele>
        <time>2020-11-14T11:48:48Z</time>
      </trkpt>
      <trkpt lat="38.8403010" lon="-0.4712520">
        <ele>336.2</ele>
        <time>2020-11-14T11:48:49Z</time>
      </trkpt>
      <trkpt lat="38.8402670" lon="-0.4713230">
        <ele>336.2</ele>
        <time>2020-11-14T11:48:50Z</time>
      </trkpt>
      <trkpt lat="38.8402310" lon="-0.4713800">
        <ele>336.1</ele>
        <time>2020-11-14T11:48:51Z</time>
      </trkpt>
      <trkpt lat="38.8401990" lon="-0.4714490">
        <ele>336.1</ele>
        <time>2020-11-14T11:48:52Z</time>
      </trkpt>
      <trkpt lat="38.8401800" lon="-0.4715180">
        <ele>336.1</ele>
        <time>2020-11-14T11:48:53Z</time>
      </trkpt>
      <trkpt lat="38.8401590" lon="-0.4715990">
        <ele>336.1</ele>
        <time>2020-11-14T11:48:54Z</time>
      </trkpt>
      <trkpt lat="38.8401280" lon="-0.4716720">
        <ele>336.1</ele>
        <time>2020-11-14T11:48:55Z</time>
      </trkpt>
      <trkpt lat="38.8400860" lon="-0.4717370">
        <ele>336.1</ele>
        <time>2020-11-14T11:48:56Z</time>
      </trkpt>
      <trkpt lat="38.8400690" lon="-0.4718310">
        <ele>336.1</ele>
        <time>2020-11-14T11:48:57Z</time>
      </trkpt>
      <trkpt lat="38.8400330" lon="-0.4719050">
        <ele>336.2</ele>
        <time>2020-11-14T11:48:58Z</time>
      </trkpt>
      <trkpt lat="38.8400140" lon="-0.4719550">
        <ele>336.2</ele>
        <time>2020-11-14T11:48:59Z</time>
      </trkpt>
      <trkpt lat="38.8400010" lon="-0.4720060">
        <ele>336.2</ele>
        <time>2020-11-14T11:49:00Z</time>
      </trkpt>
      <trkpt lat="38.8399700" lon="-0.4720570">
        <ele>336.3</ele>
        <time>2020-11-14T11:49:01Z</time>
      </trkpt>
      <trkpt lat="38.8399400" lon="-0.4721160">
        <ele>336.4</ele>
        <time>2020-11-14T11:49:02Z</time>
      </trkpt>
      <trkpt lat="38.8399080" lon="-0.4721810">
        <ele>336.4</ele>
        <time>2020-11-14T11:49:03Z</time>
      </trkpt>
      <trkpt lat="38.8398970" lon="-0.4722540">
        <ele>336.5</ele>
        <time>2020-11-14T11:49:04Z</time>
      </trkpt>
      <trkpt lat="38.8398870" lon="-0.4723260">
        <ele>336.5</ele>
        <time>2020-11-14T11:49:05Z</time>
      </trkpt>
      <trkpt lat="38.8398820" lon="-0.4724010">
        <ele>336.6</ele>
        <time>2020-11-14T11:49:06Z</time>
      </trkpt>
      <trkpt lat="38.8398940" lon="-0.4724790">
        <ele>336.6</ele>
        <time>2020-11-14T11:49:07Z</time>
      </trkpt>
      <trkpt lat="38.8399100" lon="-0.4725530">
        <ele>336.7</ele>
        <time>2020-11-14T11:49:08Z</time>
      </trkpt>
      <trkpt lat="38.8399360" lon="-0.4726150">
        <ele>336.7</ele>
        <time>2020-11-14T11:49:09Z</time>
      </trkpt>
      <trkpt lat="38.8399690" lon="-0.4726840">
        <ele>336.8</ele>
        <time>2020-11-14T11:49:10Z</time>
      </trkpt>
      <trkpt lat="38.8400110" lon="-0.4727280">
        <ele>336.8</ele>
        <time>2020-11-14T11:49:11Z</time>
      </trkpt>
      <trkpt lat="38.8400500" lon="-0.4727730">
        <ele>336.9</ele>
        <time>2020-11-14T11:49:12Z</time>
      </trkpt>
      <trkpt lat="38.8400800" lon="-0.4728090">
        <ele>337.0</ele>
        <time>2020-11-14T11:49:13Z</time>
      </trkpt>
      <trkpt lat="38.8401270" lon="-0.4728600">
        <ele>337.1</ele>
        <time>2020-11-14T11:49:14Z</time>
      </trkpt>
      <trkpt lat="38.8401650" lon="-0.4729080">
        <ele>337.2</ele>
        <time>2020-11-14T11:49:15Z</time>
      </trkpt>
      <trkpt lat="38.8401970" lon="-0.4729510">
        <ele>337.2</ele>
        <time>2020-11-14T11:49:16Z</time>
      </trkpt>
      <trkpt lat="38.8402250" lon="-0.4729920">
        <ele>337.3</ele>
        <time>2020-11-14T11:49:17Z</time>
      </trkpt>
      <trkpt lat="38.8402540" lon="-0.4730470">
        <ele>337.4</ele>
        <time>2020-11-14T11:49:18Z</time>
      </trkpt>
      <trkpt lat="38.8402780" lon="-0.4731040">
        <ele>337.5</ele>
        <time>2020-11-14T11:49:19Z</time>
      </trkpt>
      <trkpt lat="38.8402880" lon="-0.4731620">
        <ele>337.6</ele>
        <time>2020-11-14T11:49:20Z</time>
      </trkpt>
      <trkpt lat="38.8403010" lon="-0.4732360">
        <ele>337.7</ele>
        <time>2020-11-14T11:49:21Z</time>
      </trkpt>
      <trkpt lat="38.8403100" lon="-0.4733020">
        <ele>337.8</ele>
        <time>2020-11-14T11:49:22Z</time>
      </trkpt>
      <trkpt lat="38.8403210" lon="-0.4733700">
        <ele>337.9</ele>
        <time>2020-11-14T11:49:23Z</time>
      </trkpt>
      <trkpt lat="38.8403090" lon="-0.4734290">
        <ele>338.0</ele>
        <time>2020-11-14T11:49:24Z</time>
      </trkpt>
      <trkpt lat="38.8403070" lon="-0.4735120">
        <ele>338.1</ele>
        <time>2020-11-14T11:49:25Z</time>
      </trkpt>
      <trkpt lat="38.8402970" lon="-0.4735770">
        <ele>338.2</ele>
        <time>2020-11-14T11:49:26Z</time>
      </trkpt>
      <trkpt lat="38.8402830" lon="-0.4736470">
        <ele>338.3</ele>
        <time>2020-11-14T11:49:27Z</time>
      </trkpt>
      <trkpt lat="38.8402690" lon="-0.4737050">
        <ele>338.4</ele>
        <time>2020-11-14T11:49:28Z</time>
      </trkpt>
      <trkpt lat="38.8402480" lon="-0.4737660">
        <ele>338.5</ele>
        <time>2020-11-14T11:49:29Z</time>
      </trkpt>
      <trkpt lat="38.8402230" lon="-0.4738120">
        <ele>338.5</ele>
        <time>2020-11-14T11:49:30Z</time>
      </trkpt>
      <trkpt lat="38.8401900" lon="-0.4738730">
        <ele>338.6</ele>
        <time>2020-11-14T11:49:31Z</time>
      </trkpt>
      <trkpt lat="38.8401620" lon="-0.4739280">
        <ele>338.7</ele>
        <time>2020-11-14T11:49:32Z</time>
      </trkpt>
      <trkpt lat="38.8401400" lon="-0.4739950">
        <ele>338.8</ele>
        <time>2020-11-14T11:49:33Z</time>
      </trkpt>
      <trkpt lat="38.8401130" lon="-0.4740490">
        <ele>338.9</ele>
        <time>2020-11-14T11:49:34Z</time>
      </trkpt>
      <trkpt lat="38.8400790" lon="-0.4741030">
        <ele>338.9</ele>
        <time>2020-11-14T11:49:35Z</time>
      </trkpt>
      <trkpt lat="38.8400520" lon="-0.4741400">
        <ele>339.0</ele>
        <time>2020-11-14T11:49:36Z</time>
      </trkpt>
      <trkpt lat="38.8400190" lon="-0.4741820">
        <ele>339.1</ele>
        <time>2020-11-14T11:49:37Z</time>
      </trkpt>
      <trkpt lat="38.8399950" lon="-0.4742360">
        <ele>339.2</ele>
        <time>2020-11-14T11:49:38Z</time>
      </trkpt>
      <trkpt lat="38.8399720" lon="-0.4742900">
        <ele>339.3</ele>
        <time>2020-11-14T11:49:39Z</time>
      </trkpt>
      <trkpt lat="38.8399630" lon="-0.4743470">
        <ele>339.3</ele>
        <time>2020-11-14T11:49:40Z</time>
      </trkpt>
      <trkpt lat="38.8399610" lon="-0.4744150">
        <ele>339.4</ele>
        <time>2020-11-14T11:49:41Z</time>
      </trkpt>
      <trkpt lat="38.8399570" lon="-0.4744710">
        <ele>339.5</ele>
        <time>2020-11-14T11:49:42Z</time>
      </trkpt>
      <trkpt lat="38.8399540" lon="-0.4745300">
        <ele>339.6</ele>
        <time>2020-11-14T11:49:43Z</time>
      </trkpt>
      <trkpt lat="38.8399530" lon="-0.4745810">
        <ele>339.7</ele>
        <time>2020-11-14T11:49:44Z</time>
      </trkpt>
      <trkpt lat="38.8399380" lon="-0.4746350">
        <ele>339.8</ele>
        <time>2020-11-14T11:49:45Z</time>
      </trkpt>
      <trkpt lat="38.8399200" lon="-0.4746850">
        <ele>339.9</ele>
        <time>2020-11-14T11:49:46Z</time>
      </trkpt>
      <trkpt lat="38.8399000" lon="-0.4747370">
        <ele>340.0</ele>
        <time>2020-11-14T11:49:47Z</time>
      </trkpt>
      <trkpt lat="38.8398850" lon="-0.4747870">
        <ele>340.1</ele>
        <time>2020-11-14T11:49:48Z</time>
      </trkpt>
      <trkpt lat="38.8398660" lon="-0.4748410">
        <ele>340.3</ele>
        <time>2020-11-14T11:49:49Z</time>
      </trkpt>
      <trkpt lat="38.8398470" lon="-0.4749000">
        <ele>340.5</ele>
        <time>2020-11-14T11:49:50Z</time>
      </trkpt>
      <trkpt lat="38.8398300" lon="-0.4749460">
        <ele>340.6</ele>
        <time>2020-11-14T11:49:51Z</time>
      </trkpt>
      <trkpt lat="38.8398210" lon="-0.4749900">
        <ele>340.8</ele>
        <time>2020-11-14T11:49:52Z</time>
      </trkpt>
      <trkpt lat="38.8397960" lon="-0.4750370">
        <ele>341.0</ele>
        <time>2020-11-14T11:49:53Z</time>
      </trkpt>
      <trkpt lat="38.8397760" lon="-0.4750840">
        <ele>341.1</ele>
        <time>2020-11-14T11:49:54Z</time>
      </trkpt>
      <trkpt lat="38.8397490" lon="-0.4751300">
        <ele>341.3</ele>
        <time>2020-11-14T11:49:55Z</time>
      </trkpt>
      <trkpt lat="38.8397270" lon="-0.4751700">
        <ele>341.5</ele>
        <time>2020-11-14T11:49:56Z</time>
      </trkpt>
      <trkpt lat="38.8397090" lon="-0.4752100">
        <ele>341.6</ele>
        <time>2020-11-14T11:49:57Z</time>
      </trkpt>
      <trkpt lat="38.8396880" lon="-0.4752530">
        <ele>341.8</ele>
        <time>2020-11-14T11:49:58Z</time>
      </trkpt>
      <trkpt lat="38.8396710" lon="-0.4752940">
        <ele>342.0</ele>
        <time>2020-11-14T11:49:59Z</time>
      </trkpt>
      <trkpt lat="38.8396560" lon="-0.4753350">
        <ele>342.1</ele>
        <time>2020-11-14T11:50:00Z</time>
      </trkpt>
      <trkpt lat="38.8396390" lon="-0.4753780">
        <ele>342.3</ele>
        <time>2020-11-14T11:50:01Z</time>
      </trkpt>
      <trkpt lat="38.8396190" lon="-0.4754230">
        <ele>342.4</ele>
        <time>2020-11-14T11:50:02Z</time>
      </trkpt>
      <trkpt lat="38.8396000" lon="-0.4754640">
        <ele>342.6</ele>
        <time>2020-11-14T11:50:03Z</time>
      </trkpt>
      <trkpt lat="38.8395800" lon="-0.4755050">
        <ele>342.8</ele>
        <time>2020-11-14T11:50:04Z</time>
      </trkpt>
      <trkpt lat="38.8395610" lon="-0.4755470">
        <ele>342.9</ele>
        <time>2020-11-14T11:50:05Z</time>
      </trkpt>
      <trkpt lat="38.8395440" lon="-0.4755890">
        <ele>343.1</ele>
        <time>2020-11-14T11:50:06Z</time>
      </trkpt>
      <trkpt lat="38.8395270" lon="-0.4756330">
        <ele>343.3</ele>
        <time>2020-11-14T11:50:07Z</time>
      </trkpt>
      <trkpt lat="38.8395090" lon="-0.4756760">
        <ele>343.4</ele>
        <time>2020-11-14T11:50:08Z</time>
      </trkpt>
      <trkpt lat="38.8394910" lon="-0.4757190">
        <ele>343.6</ele>
        <time>2020-11-14T11:50:09Z</time>
      </trkpt>
      <trkpt lat="38.8394730" lon="-0.4757620">
        <ele>343.7</ele>
        <time>2020-11-14T11:50:10Z</time>
      </trkpt>
      <trkpt lat="38.8394560" lon="-0.4758060">
        <ele>343.9</ele>
        <time>2020-11-14T11:50:11Z</time>
      </trkpt>
      <trkpt lat="38.8394370" lon="-0.4758490">
        <ele>344.1</ele>
        <time>2020-11-14T11:50:12Z</time>
      </trkpt>
      <trkpt lat="38.8394160" lon="-0.4758910">
        <ele>344.3</ele>
        <time>2020-11-14T11:50:13Z</time>
      </trkpt>
      <trkpt lat="38.8393950" lon="-0.4759330">
        <ele>344.4</ele>
        <time>2020-11-14T11:50:14Z</time>
      </trkpt>
      <trkpt lat="38.8393750" lon="-0.4759750">
        <ele>344.6</ele>
        <time>2020-11-14T11:50:15Z</time>
      </trkpt>
      <trkpt lat="38.8393530" lon="-0.4760220">
        <ele>344.8</ele>
        <time>2020-11-14T11:50:16Z</time>
      </trkpt>
      <trkpt lat="38.8393320" lon="-0.4760690">
        <ele>345.0</ele>
        <time>2020-11-14T11:50:17Z</time>
      </trkpt>
      <trkpt lat="38.8393120" lon="-0.4761100">
        <ele>345.3</ele>
        <time>2020-11-14T11:50:18Z</time>
      </trkpt>
      <trkpt lat="38.8392950" lon="-0.4761460">
        <ele>345.4</ele>
        <time>2020-11-14T11:50:19Z</time>
      </trkpt>
      <trkpt lat="38.8392770" lon="-0.4761800">
        <ele>345.6</ele>
        <time>2020-11-14T11:50:20Z</time>
      </trkpt>
      <trkpt lat="38.8392610" lon="-0.4762120">
        <ele>345.8</ele>
        <time>2020-11-14T11:50:21Z</time>
      </trkpt>
      <trkpt lat="38.8392480" lon="-0.4762490">
        <ele>346.0</ele>
        <time>2020-11-14T11:50:22Z</time>
      </trkpt>
      <trkpt lat="38.8392360" lon="-0.4762880">
        <ele>346.1</ele>
        <time>2020-11-14T11:50:23Z</time>
      </trkpt>
      <trkpt lat="38.8392240" lon="-0.4763220">
        <ele>346.3</ele>
        <time>2020-11-14T11:50:24Z</time>
      </trkpt>
      <trkpt lat="38.8392110" lon="-0.4763560">
        <ele>346.5</ele>
        <time>2020-11-14T11:50:25Z</time>
      </trkpt>
      <trkpt lat="38.8391960" lon="-0.4763880">
        <ele>346.7</ele>
        <time>2020-11-14T11:50:26Z</time>
      </trkpt>
      <trkpt lat="38.8391810" lon="-0.4764200">
        <ele>346.8</ele>
        <time>2020-11-14T11:50:27Z</time>
      </trkpt>
      <trkpt lat="38.8391640" lon="-0.4764510">
        <ele>347.0</ele>
        <time>2020-11-14T11:50:28Z</time>
      </trkpt>
      <trkpt lat="38.8391470" lon="-0.4764820">
        <ele>347.2</ele>
        <time>2020-11-14T11:50:29Z</time>
      </trkpt>
      <trkpt lat="38.8391300" lon="-0.4765140">
        <ele>347.4</ele>
        <time>2020-11-14T11:50:30Z</time>
      </trkpt>
      <trkpt lat="38.8391140" lon="-0.4765450">
        <ele>347.6</ele>
        <time>2020-11-14T11:50:31Z</time>
      </trkpt>
      <trkpt lat="38.8390990" lon="-0.4765760">
        <ele>347.8</ele>
        <time>2020-11-14T11:50:32Z</time>
      </trkpt>
      <trkpt lat="38.8390840" lon="-0.4766070">
        <ele>348.0</ele>
        <time>2020-11-14T11:50:33Z</time>
      </trkpt>
      <trkpt lat="38.8390670" lon="-0.4766360">
        <ele>348.2</ele>
        <time>2020-11-14T11:50:34Z</time>
      </trkpt>
      <trkpt lat="38.8390520" lon="-0.4766660">
        <ele>348.4</ele>
        <time>2020-11-14T11:50:35Z</time>
      </trkpt>
      <trkpt lat="38.8390370" lon="-0.4766990">
        <ele>348.6</ele>
        <time>2020-11-14T11:50:36Z</time>
      </trkpt>
      <trkpt lat="38.8390230" lon="-0.4767320">
        <ele>348.8</ele>
        <time>2020-11-14T11:50:37Z</time>
      </trkpt>
      <trkpt lat="38.8390070" lon="-0.4767630">
        <ele>349.1</ele>
        <time>2020-11-14T11:50:38Z</time>
      </trkpt>
      <trkpt lat="38.8389920" lon="-0.4767930">
        <ele>349.3</ele>
        <time>2020-11-14T11:50:39Z</time>
      </trkpt>
      <trkpt lat="38.8389770" lon="-0.4768230">
        <ele>349.4</ele>
        <time>2020-11-14T11:50:40Z</time>
      </trkpt>
      <trkpt lat="38.8389610" lon="-0.4768550">
        <ele>349.6</ele>
        <time>2020-11-14T11:50:41Z</time>
      </trkpt>
      <trkpt lat="38.8389440" lon="-0.4768860">
        <ele>349.8</ele>
        <time>2020-11-14T11:50:42Z</time>
      </trkpt>
      <trkpt lat="38.8389260" lon="-0.4769150">
        <ele>350.0</ele>
        <time>2020-11-14T11:50:43Z</time>
      </trkpt>
      <trkpt lat="38.8389090" lon="-0.4769430">
        <ele>350.2</ele>
        <time>2020-11-14T11:50:44Z</time>
      </trkpt>
      <trkpt lat="38.8388930" lon="-0.4769730">
        <ele>350.4</ele>
        <time>2020-11-14T11:50:45Z</time>
      </trkpt>
      <trkpt lat="38.8388790" lon="-0.4770030">
        <ele>350.5</ele>
        <time>2020-11-14T11:50:46Z</time>
      </trkpt>
      <trkpt lat="38.8388640" lon="-0.4770330">
        <ele>350.7</ele>
        <time>2020-11-14T11:50:47Z</time>
      </trkpt>
      <trkpt lat="38.8388500" lon="-0.4770640">
        <ele>350.9</ele>
        <time>2020-11-14T11:50:48Z</time>
      </trkpt>
      <trkpt lat="38.8388380" lon="-0.4770980">
        <ele>351.1</ele>
        <time>2020-11-14T11:50:49Z</time>
      </trkpt>
      <trkpt lat="38.8388300" lon="-0.4771360">
        <ele>351.3</ele>
        <time>2020-11-14T11:50:50Z</time>
      </trkpt>
      <trkpt lat="38.8388230" lon="-0.4771740">
        <ele>351.4</ele>
        <time>2020-11-14T11:50:51Z</time>
      </trkpt>
      <trkpt lat="38.8388170" lon="-0.4772110">
        <ele>351.6</ele>
        <time>2020-11-14T11:50:52Z</time>
      </trkpt>
      <trkpt lat="38.8388090" lon="-0.4772490">
        <ele>351.8</ele>
        <time>2020-11-14T11:50:53Z</time>
      </trkpt>
      <trkpt lat="38.8388010" lon="-0.4772890">
        <ele>351.9</ele>
        <time>2020-11-14T11:50:54Z</time>
      </trkpt>
      <trkpt lat="38.8387960" lon="-0.4773320">
        <ele>352.1</ele>
        <time>2020-11-14T11:50:55Z</time>
      </trkpt>
      <trkpt lat="38.8387910" lon="-0.4773750">
        <ele>352.3</ele>
        <time>2020-11-14T11:50:56Z</time>
      </trkpt>
      <trkpt lat="38.8387860" lon="-0.4774170">
        <ele>352.5</ele>
        <time>2020-11-14T11:50:57Z</time>
      </trkpt>
      <trkpt lat="38.8387820" lon="-0.4774630">
        <ele>352.7</ele>
        <time>2020-11-14T11:50:58Z</time>
      </trkpt>
      <trkpt lat="38.8387770" lon="-0.4775060">
        <ele>352.8</ele>
        <time>2020-11-14T11:50:59Z</time>
      </trkpt>
      <trkpt lat="38.8387740" lon="-0.4775470">
        <ele>353.0</ele>
        <time>2020-11-14T11:51:00Z</time>
      </trkpt>
      <trkpt lat="38.8387710" lon="-0.4775840">
        <ele>353.1</ele>
        <time>2020-11-14T11:51:01Z</time>
      </trkpt>
      <trkpt lat="38.8387630" lon="-0.4776200">
        <ele>353.3</ele>
        <time>2020-11-14T11:51:02Z</time>
      </trkpt>
      <trkpt lat="38.8387540" lon="-0.4776560">
        <ele>353.4</ele>
        <time>2020-11-14T11:51:03Z</time>
      </trkpt>
      <trkpt lat="38.8387460" lon="-0.4776900">
        <ele>353.5</ele>
        <time>2020-11-14T11:51:04Z</time>
      </trkpt>
      <trkpt lat="38.8387390" lon="-0.4777260">
        <ele>353.7</ele>
        <time>2020-11-14T11:51:05Z</time>
      </trkpt>
      <trkpt lat="38.8387310" lon="-0.4777650">
        <ele>353.8</ele>
        <time>2020-11-14T11:51:06Z</time>
      </trkpt>
      <trkpt lat="38.8387210" lon="-0.4778040">
        <ele>353.9</ele>
        <time>2020-11-14T11:51:07Z</time>
      </trkpt>
      <trkpt lat="38.8387090" lon="-0.4778430">
        <ele>354.1</ele>
        <time>2020-11-14T11:51:08Z</time>
      </trkpt>
      <trkpt lat="38.8386950" lon="-0.4778820">
        <ele>354.2</ele>
        <time>2020-11-14T11:51:09Z</time>
      </trkpt>
      <trkpt lat="38.8386800" lon="-0.4779210">
        <ele>354.4</ele>
        <time>2020-11-14T11:51:10Z</time>
      </trkpt>
      <trkpt lat="38.8386630" lon="-0.4779600">
        <ele>354.6</ele>
        <time>2020-11-14T11:51:11Z</time>
      </trkpt>
      <trkpt lat="38.8386440" lon="-0.4779950">
        <ele>354.7</ele>
        <time>2020-11-14T11:51:12Z</time>
      </trkpt>
      <trkpt lat="38.8386230" lon="-0.4780250">
        <ele>354.9</ele>
        <time>2020-11-14T11:51:13Z</time>
      </trkpt>
      <trkpt lat="38.8385990" lon="-0.4780540">
        <ele>355.0</ele>
        <time>2020-11-14T11:51:14Z</time>
      </trkpt>
      <trkpt lat="38.8385740" lon="-0.4780820">
        <ele>355.2</ele>
        <time>2020-11-14T11:51:15Z</time>
      </trkpt>
      <trkpt lat="38.8385520" lon="-0.4781090">
        <ele>355.3</ele>
        <time>2020-11-14T11:51:16Z</time>
      </trkpt>
      <trkpt lat="38.8385300" lon="-0.4781340">
        <ele>355.5</ele>
        <time>2020-11-14T11:51:17Z</time>
      </trkpt>
      <trkpt lat="38.8385000" lon="-0.4781680">
        <ele>355.7</ele>
        <time>2020-11-14T11:51:18Z</time>
      </trkpt>
      <trkpt lat="38.8384890" lon="-0.4781780">
        <ele>355.8</ele>
        <time>2020-11-14T11:51:19Z</time>
      </trkpt>
      <trkpt lat="38.8384650" lon="-0.4782020">
        <ele>355.9</ele>
        <time>2020-11-14T11:51:20Z</time>
      </trkpt>
      <trkpt lat="38.8384420" lon="-0.4782250">
        <ele>356.1</ele>
        <time>2020-11-14T11:51:21Z</time>
      </trkpt>
      <trkpt lat="38.8384190" lon="-0.4782470">
        <ele>356.2</ele>
        <time>2020-11-14T11:51:22Z</time>
      </trkpt>
      <trkpt lat="38.8383920" lon="-0.4782740">
        <ele>356.4</ele>
        <time>2020-11-14T11:51:23Z</time>
      </trkpt>
      <trkpt lat="38.8383690" lon="-0.4783010">
        <ele>356.5</ele>
        <time>2020-11-14T11:51:24Z</time>
      </trkpt>
      <trkpt lat="38.8383470" lon="-0.4783270">
        <ele>356.7</ele>
        <time>2020-11-14T11:51:25Z</time>
      </trkpt>
      <trkpt lat="38.8383260" lon="-0.4783520">
        <ele>356.8</ele>
        <time>2020-11-14T11:51:26Z</time>
      </trkpt>
      <trkpt lat="38.8383060" lon="-0.4783780">
        <ele>356.9</ele>
        <time>2020-11-14T11:51:27Z</time>
      </trkpt>
      <trkpt lat="38.8382840" lon="-0.4784060">
        <ele>357.1</ele>
        <time>2020-11-14T11:51:28Z</time>
      </trkpt>
      <trkpt lat="38.8382630" lon="-0.4784360">
        <ele>357.2</ele>
        <time>2020-11-14T11:51:29Z</time>
      </trkpt>
      <trkpt lat="38.8382430" lon="-0.4784660">
        <ele>357.4</ele>
        <time>2020-11-14T11:51:30Z</time>
      </trkpt>
      <trkpt lat="38.8382230" lon="-0.4784940">
        <ele>357.5</ele>
        <time>2020-11-14T11:51:31Z</time>
      </trkpt>
      <trkpt lat="38.8382020" lon="-0.4785220">
        <ele>357.6</ele>
        <time>2020-11-14T11:51:32Z</time>
      </trkpt>
      <trkpt lat="38.8381810" lon="-0.4785510">
        <ele>357.8</ele>
        <time>2020-11-14T11:51:33Z</time>
      </trkpt>
      <trkpt lat="38.8381610" lon="-0.4785790">
        <ele>357.9</ele>
        <time>2020-11-14T11:51:34Z</time>
      </trkpt>
      <trkpt lat="38.8381420" lon="-0.4786070">
        <ele>358.0</ele>
        <time>2020-11-14T11:51:35Z</time>
      </trkpt>
      <trkpt lat="38.8381240" lon="-0.4786350">
        <ele>358.2</ele>
        <time>2020-11-14T11:51:36Z</time>
      </trkpt>
      <trkpt lat="38.8381050" lon="-0.4786630">
        <ele>358.3</ele>
        <time>2020-11-14T11:51:37Z</time>
      </trkpt>
      <trkpt lat="38.8380870" lon="-0.4786950">
        <ele>358.4</ele>
        <time>2020-11-14T11:51:38Z</time>
      </trkpt>
      <trkpt lat="38.8380690" lon="-0.4787290">
        <ele>358.5</ele>
        <time>2020-11-14T11:51:39Z</time>
      </trkpt>
      <trkpt lat="38.8380490" lon="-0.4787610">
        <ele>358.6</ele>
        <time>2020-11-14T11:51:40Z</time>
      </trkpt>
      <trkpt lat="38.8380320" lon="-0.4787920">
        <ele>358.7</ele>
        <time>2020-11-14T11:51:41Z</time>
      </trkpt>
      <trkpt lat="38.8380170" lon="-0.4788250">
        <ele>358.8</ele>
        <time>2020-11-14T11:51:42Z</time>
      </trkpt>
      <trkpt lat="38.8380020" lon="-0.4788620">
        <ele>358.9</ele>
        <time>2020-11-14T11:51:43Z</time>
      </trkpt>
      <trkpt lat="38.8379850" lon="-0.4789000">
        <ele>359.0</ele>
        <time>2020-11-14T11:51:44Z</time>
      </trkpt>
      <trkpt lat="38.8379660" lon="-0.4789380">
        <ele>359.1</ele>
        <time>2020-11-14T11:51:45Z</time>
      </trkpt>
      <trkpt lat="38.8379470" lon="-0.4789730">
        <ele>359.2</ele>
        <time>2020-11-14T11:51:46Z</time>
      </trkpt>
      <trkpt lat="38.8379270" lon="-0.4790110">
        <ele>359.2</ele>
        <time>2020-11-14T11:51:47Z</time>
      </trkpt>
      <trkpt lat="38.8379090" lon="-0.4790480">
        <ele>359.3</ele>
        <time>2020-11-14T11:51:48Z</time>
      </trkpt>
      <trkpt lat="38.8378890" lon="-0.4790860">
        <ele>359.3</ele>
        <time>2020-11-14T11:51:49Z</time>
      </trkpt>
      <trkpt lat="38.8378650" lon="-0.4791260">
        <ele>359.4</ele>
        <time>2020-11-14T11:51:50Z</time>
      </trkpt>
      <trkpt lat="38.8378390" lon="-0.4791670">
        <ele>359.4</ele>
        <time>2020-11-14T11:51:51Z</time>
      </trkpt>
      <trkpt lat="38.8378140" lon="-0.4792060">
        <ele>359.5</ele>
        <time>2020-11-14T11:51:52Z</time>
      </trkpt>
      <trkpt lat="38.8377880" lon="-0.4792440">
        <ele>359.5</ele>
        <time>2020-11-14T11:51:53Z</time>
      </trkpt>
      <trkpt lat="38.8377660" lon="-0.4792770">
        <ele>359.6</ele>
        <time>2020-11-14T11:51:54Z</time>
      </trkpt>
      <trkpt lat="38.8377450" lon="-0.4793100">
        <ele>359.6</ele>
        <time>2020-11-14T11:51:55Z</time>
      </trkpt>
      <trkpt lat="38.8377220" lon="-0.4793510">
        <ele>359.7</ele>
        <time>2020-11-14T11:51:56Z</time>
      </trkpt>
      <trkpt lat="38.8376980" lon="-0.4794070">
        <ele>359.7</ele>
        <time>2020-11-14T11:51:57Z</time>
      </trkpt>
      <trkpt lat="38.8376800" lon="-0.4794590">
        <ele>359.8</ele>
        <time>2020-11-14T11:51:58Z</time>
      </trkpt>
      <trkpt lat="38.8376750" lon="-0.4795100">
        <ele>359.9</ele>
        <time>2020-11-14T11:51:59Z</time>
      </trkpt>
      <trkpt lat="38.8376710" lon="-0.4795670">
        <ele>360.0</ele>
        <time>2020-11-14T11:52:00Z</time>
      </trkpt>
      <trkpt lat="38.8376760" lon="-0.4796260">
        <ele>360.1</ele>
        <time>2020-11-14T11:52:01Z</time>
      </trkpt>
      <trkpt lat="38.8376830" lon="-0.4796750">
        <ele>360.2</ele>
        <time>2020-11-14T11:52:02Z</time>
      </trkpt>
      <trkpt lat="38.8376960" lon="-0.4797240">
        <ele>360.3</ele>
        <time>2020-11-14T11:52:03Z</time>
      </trkpt>
      <trkpt lat="38.8377060" lon="-0.4797640">
        <ele>360.5</ele>
        <time>2020-11-14T11:52:04Z</time>
      </trkpt>
      <trkpt lat="38.8377210" lon="-0.4797970">
        <ele>360.6</ele>
        <time>2020-11-14T11:52:05Z</time>
      </trkpt>
      <trkpt lat="38.8377270" lon="-0.4798370">
        <ele>360.7</ele>
        <time>2020-11-14T11:52:06Z</time>
      </trkpt>
      <trkpt lat="38.8377370" lon="-0.4798870">
        <ele>360.9</ele>
        <time>2020-11-14T11:52:07Z</time>
      </trkpt>
      <trkpt lat="38.8377550" lon="-0.4799340">
        <ele>361.0</ele>
        <time>2020-11-14T11:52:08Z</time>
      </trkpt>
      <trkpt lat="38.8377700" lon="-0.4799750">
        <ele>361.2</ele>
        <time>2020-11-14T11:52:09Z</time>
      </trkpt>
      <trkpt lat="38.8377820" lon="-0.4800140">
        <ele>361.3</ele>
        <time>2020-11-14T11:52:10Z</time>
      </trkpt>
      <trkpt lat="38.8377950" lon="-0.4800550">
        <ele>361.4</ele>
        <time>2020-11-14T11:52:11Z</time>
      </trkpt>
      <trkpt lat="38.8378060" lon="-0.4800950">
        <ele>361.6</ele>
        <time>2020-11-14T11:52:12Z</time>
      </trkpt>
      <trkpt lat="38.8378180" lon="-0.4801360">
        <ele>361.8</ele>
        <time>2020-11-14T11:52:13Z</time>
      </trkpt>
      <trkpt lat="38.8378280" lon="-0.4801780">
        <ele>362.0</ele>
        <time>2020-11-14T11:52:14Z</time>
      </trkpt>
      <trkpt lat="38.8378370" lon="-0.4802220">
        <ele>362.2</ele>
        <time>2020-11-14T11:52:15Z</time>
      </trkpt>
      <trkpt lat="38.8378440" lon="-0.4802660">
        <ele>362.4</ele>
        <time>2020-11-14T11:52:16Z</time>
      </trkpt>
      <trkpt lat="38.8378500" lon="-0.4803080">
        <ele>362.6</ele>
        <time>2020-11-14T11:52:17Z</time>
      </trkpt>
      <trkpt lat="38.8378550" lon="-0.4803450">
        <ele>362.7</ele>
        <time>2020-11-14T11:52:18Z</time>
      </trkpt>
      <trkpt lat="38.8378600" lon="-0.4803810">
        <ele>362.9</ele>
        <time>2020-11-14T11:52:19Z</time>
      </trkpt>
      <trkpt lat="38.8378650" lon="-0.4804160">
        <ele>363.1</ele>
        <time>2020-11-14T11:52:20Z</time>
      </trkpt>
      <trkpt lat="38.8378710" lon="-0.4804550">
        <ele>363.3</ele>
        <time>2020-11-14T11:52:21Z</time>
      </trkpt>
      <trkpt lat="38.8378770" lon="-0.4804970">
        <ele>363.4</ele>
        <time>2020-11-14T11:52:22Z</time>
      </trkpt>
      <trkpt lat="38.8378830" lon="-0.4805390">
        <ele>363.6</ele>
        <time>2020-11-14T11:52:23Z</time>
      </trkpt>
      <trkpt lat="38.8378890" lon="-0.4805830">
        <ele>363.8</ele>
        <time>2020-11-14T11:52:24Z</time>
      </trkpt>
      <trkpt lat="38.8378960" lon="-0.4806290">
        <ele>363.9</ele>
        <time>2020-11-14T11:52:25Z</time>
      </trkpt>
      <trkpt lat="38.8379040" lon="-0.4806770">
        <ele>364.1</ele>
        <time>2020-11-14T11:52:26Z</time>
      </trkpt>
      <trkpt lat="38.8379140" lon="-0.4807260">
        <ele>364.2</ele>
        <time>2020-11-14T11:52:27Z</time>
      </trkpt>
      <trkpt lat="38.8379220" lon="-0.4807750">
        <ele>364.3</ele>
        <time>2020-11-14T11:52:28Z</time>
      </trkpt>
      <trkpt lat="38.8379320" lon="-0.4808250">
        <ele>364.4</ele>
        <time>2020-11-14T11:52:29Z</time>
      </trkpt>
      <trkpt lat="38.8379410" lon="-0.4808770">
        <ele>364.5</ele>
        <time>2020-11-14T11:52:30Z</time>
      </trkpt>
      <trkpt lat="38.8379480" lon="-0.4809320">
        <ele>364.6</ele>
        <time>2020-11-14T11:52:31Z</time>
      </trkpt>
      <trkpt lat="38.8379500" lon="-0.4810020">
        <ele>364.7</ele>
        <time>2020-11-14T11:52:32Z</time>
      </trkpt>
      <trkpt lat="38.8379490" lon="-0.4810530">
        <ele>364.8</ele>
        <time>2020-11-14T11:52:33Z</time>
      </trkpt>
      <trkpt lat="38.8379540" lon="-0.4811140">
        <ele>364.8</ele>
        <time>2020-11-14T11:52:34Z</time>
      </trkpt>
      <trkpt lat="38.8379450" lon="-0.4811760">
        <ele>364.9</ele>
        <time>2020-11-14T11:52:35Z</time>
      </trkpt>
      <trkpt lat="38.8379370" lon="-0.4812320">
        <ele>364.9</ele>
        <time>2020-11-14T11:52:36Z</time>
      </trkpt>
      <trkpt lat="38.8379360" lon="-0.4812890">
        <ele>364.9</ele>
        <time>2020-11-14T11:52:37Z</time>
      </trkpt>
      <trkpt lat="38.8379330" lon="-0.4813470">
        <ele>365.0</ele>
        <time>2020-11-14T11:52:38Z</time>
      </trkpt>
      <trkpt lat="38.8379260" lon="-0.4814050">
        <ele>365.0</ele>
        <time>2020-11-14T11:52:39Z</time>
      </trkpt>
      <trkpt lat="38.8379290" lon="-0.4814670">
        <ele>365.0</ele>
        <time>2020-11-14T11:52:40Z</time>
      </trkpt>
      <trkpt lat="38.8379180" lon="-0.4815240">
        <ele>365.0</ele>
        <time>2020-11-14T11:52:41Z</time>
      </trkpt>
      <trkpt lat="38.8379120" lon="-0.4815800">
        <ele>365.1</ele>
        <time>2020-11-14T11:52:42Z</time>
      </trkpt>
      <trkpt lat="38.8378960" lon="-0.4816380">
        <ele>365.1</ele>
        <time>2020-11-14T11:52:43Z</time>
      </trkpt>
      <trkpt lat="38.8378930" lon="-0.4817000">
        <ele>365.1</ele>
        <time>2020-11-14T11:52:44Z</time>
      </trkpt>
      <trkpt lat="38.8378980" lon="-0.4817620">
        <ele>365.1</ele>
        <time>2020-11-14T11:52:45Z</time>
      </trkpt>
      <trkpt lat="38.8378890" lon="-0.4818320">
        <ele>365.1</ele>
        <time>2020-11-14T11:52:46Z</time>
      </trkpt>
      <trkpt lat="38.8378840" lon="-0.4818890">
        <ele>365.2</ele>
        <time>2020-11-14T11:52:47Z</time>
      </trkpt>
      <trkpt lat="38.8378830" lon="-0.4819470">
        <ele>365.3</ele>
        <time>2020-11-14T11:52:48Z</time>
      </trkpt>
      <trkpt lat="38.8378650" lon="-0.4820070">
        <ele>365.4</ele>
        <time>2020-11-14T11:52:49Z</time>
      </trkpt>
      <trkpt lat="38.8378600" lon="-0.4820690">
        <ele>365.4</ele>
        <time>2020-11-14T11:52:50Z</time>
      </trkpt>
      <trkpt lat="38.8378560" lon="-0.4821400">
        <ele>365.6</ele>
        <time>2020-11-14T11:52:51Z</time>
      </trkpt>
      <trkpt lat="38.8378510" lon="-0.4821940">
        <ele>365.7</ele>
        <time>2020-11-14T11:52:52Z</time>
      </trkpt>
      <trkpt lat="38.8378480" lon="-0.4822550">
        <ele>365.8</ele>
        <time>2020-11-14T11:52:53Z</time>
      </trkpt>
      <trkpt lat="38.8378400" lon="-0.4823090">
        <ele>365.9</ele>
        <time>2020-11-14T11:52:54Z</time>
      </trkpt>
      <trkpt lat="38.8378290" lon="-0.4823650">
        <ele>366.1</ele>
        <time>2020-11-14T11:52:55Z</time>
      </trkpt>
      <trkpt lat="38.8378180" lon="-0.4824210">
        <ele>366.2</ele>
        <time>2020-11-14T11:52:56Z</time>
      </trkpt>
      <trkpt lat="38.8378060" lon="-0.4824760">
        <ele>366.4</ele>
        <time>2020-11-14T11:52:57Z</time>
      </trkpt>
      <trkpt lat="38.8377920" lon="-0.4825220">
        <ele>366.5</ele>
        <time>2020-11-14T11:52:58Z</time>
      </trkpt>
      <trkpt lat="38.8377750" lon="-0.4825750">
        <ele>366.7</ele>
        <time>2020-11-14T11:52:59Z</time>
      </trkpt>
      <trkpt lat="38.8377580" lon="-0.4826230">
        <ele>366.9</ele>
        <time>2020-11-14T11:53:00Z</time>
      </trkpt>
      <trkpt lat="38.8377410" lon="-0.4826780">
        <ele>367.2</ele>
        <time>2020-11-14T11:53:01Z</time>
      </trkpt>
      <trkpt lat="38.8377310" lon="-0.4827350">
        <ele>367.4</ele>
        <time>2020-11-14T11:53:02Z</time>
      </trkpt>
      <trkpt lat="38.8377230" lon="-0.4827920">
        <ele>367.7</ele>
        <time>2020-11-14T11:53:03Z</time>
      </trkpt>
      <trkpt lat="38.8377110" lon="-0.4828380">
        <ele>367.9</ele>
        <time>2020-11-14T11:53:04Z</time>
      </trkpt>
      <trkpt lat="38.8376920" lon="-0.4828850">
        <ele>368.1</ele>
        <time>2020-11-14T11:53:05Z</time>
      </trkpt>
      <trkpt lat="38.8376750" lon="-0.4829400">
        <ele>368.3</ele>
        <time>2020-11-14T11:53:06Z</time>
      </trkpt>
      <trkpt lat="38.8376640" lon="-0.4829950">
        <ele>368.6</ele>
        <time>2020-11-14T11:53:07Z</time>
      </trkpt>
      <trkpt lat="38.8376540" lon="-0.4830420">
        <ele>368.8</ele>
        <time>2020-11-14T11:53:08Z</time>
      </trkpt>
      <trkpt lat="38.8376360" lon="-0.4830830">
        <ele>369.0</ele>
        <time>2020-11-14T11:53:09Z</time>
      </trkpt>
      <trkpt lat="38.8376190" lon="-0.4831230">
        <ele>369.1</ele>
        <time>2020-11-14T11:53:10Z</time>
      </trkpt>
      <trkpt lat="38.8376040" lon="-0.4831630">
        <ele>369.3</ele>
        <time>2020-11-14T11:53:11Z</time>
      </trkpt>
      <trkpt lat="38.8375880" lon="-0.4832000">
        <ele>369.5</ele>
        <time>2020-11-14T11:53:12Z</time>
      </trkpt>
      <trkpt lat="38.8375720" lon="-0.4832380">
        <ele>369.6</ele>
        <time>2020-11-14T11:53:13Z</time>
      </trkpt>
      <trkpt lat="38.8375570" lon="-0.4832780">
        <ele>369.8</ele>
        <time>2020-11-14T11:53:14Z</time>
      </trkpt>
      <trkpt lat="38.8375380" lon="-0.4833180">
        <ele>369.9</ele>
        <time>2020-11-14T11:53:15Z</time>
      </trkpt>
      <trkpt lat="38.8375270" lon="-0.4833620">
        <ele>370.1</ele>
        <time>2020-11-14T11:53:16Z</time>
      </trkpt>
      <trkpt lat="38.8375120" lon="-0.4834070">
        <ele>370.2</ele>
        <time>2020-11-14T11:53:17Z</time>
      </trkpt>
      <trkpt lat="38.8374950" lon="-0.4834510">
        <ele>370.4</ele>
        <time>2020-11-14T11:53:18Z</time>
      </trkpt>
      <trkpt lat="38.8374810" lon="-0.4834960">
        <ele>370.5</ele>
        <time>2020-11-14T11:53:19Z</time>
      </trkpt>
      <trkpt lat="38.8374660" lon="-0.4835400">
        <ele>370.6</ele>
        <time>2020-11-14T11:53:20Z</time>
      </trkpt>
      <trkpt lat="38.8374510" lon="-0.4835870">
        <ele>370.7</ele>
        <time>2020-11-14T11:53:21Z</time>
      </trkpt>
      <trkpt lat="38.8374350" lon="-0.4836350">
        <ele>370.8</ele>
        <time>2020-11-14T11:53:22Z</time>
      </trkpt>
      <trkpt lat="38.8374200" lon="-0.4836830">
        <ele>370.9</ele>
        <time>2020-11-14T11:53:23Z</time>
      </trkpt>
      <trkpt lat="38.8374050" lon="-0.4837320">
        <ele>371.0</ele>
        <time>2020-11-14T11:53:24Z</time>
      </trkpt>
      <trkpt lat="38.8373880" lon="-0.4837820">
        <ele>371.1</ele>
        <time>2020-11-14T11:53:25Z</time>
      </trkpt>
      <trkpt lat="38.8373720" lon="-0.4838320">
        <ele>371.2</ele>
        <time>2020-11-14T11:53:26Z</time>
      </trkpt>
      <trkpt lat="38.8373550" lon="-0.4838830">
        <ele>371.2</ele>
        <time>2020-11-14T11:53:27Z</time>
      </trkpt>
      <trkpt lat="38.8373370" lon="-0.4839330">
        <ele>371.3</ele>
        <time>2020-11-14T11:53:28Z</time>
      </trkpt>
      <trkpt lat="38.8373190" lon="-0.4839840">
        <ele>371.3</ele>
        <time>2020-11-14T11:53:29Z</time>
      </trkpt>
      <trkpt lat="38.8373010" lon="-0.4840360">
        <ele>371.4</ele>
        <time>2020-11-14T11:53:30Z</time>
      </trkpt>
      <trkpt lat="38.8372840" lon="-0.4840890">
        <ele>371.4</ele>
        <time>2020-11-14T11:53:31Z</time>
      </trkpt>
      <trkpt lat="38.8372670" lon="-0.4841490">
        <ele>371.5</ele>
        <time>2020-11-14T11:53:32Z</time>
      </trkpt>
      <trkpt lat="38.8372500" lon="-0.4842020">
        <ele>371.5</ele>
        <time>2020-11-14T11:53:33Z</time>
      </trkpt>
      <trkpt lat="38.8372280" lon="-0.4842570">
        <ele>371.6</ele>
        <time>2020-11-14T11:53:34Z</time>
      </trkpt>
      <trkpt lat="38.8372040" lon="-0.4843080">
        <ele>371.6</ele>
        <time>2020-11-14T11:53:35Z</time>
      </trkpt>
      <trkpt lat="38.8371770" lon="-0.4843610">
        <ele>371.6</ele>
        <time>2020-11-14T11:53:36Z</time>
      </trkpt>
      <trkpt lat="38.8371450" lon="-0.4844070">
        <ele>371.6</ele>
        <time>2020-11-14T11:53:37Z</time>
      </trkpt>
      <trkpt lat="38.8371060" lon="-0.4844490">
        <ele>371.6</ele>
        <time>2020-11-14T11:53:38Z</time>
      </trkpt>
      <trkpt lat="38.8370650" lon="-0.4844920">
        <ele>371.6</ele>
        <time>2020-11-14T11:53:39Z</time>
      </trkpt>
      <trkpt lat="38.8370210" lon="-0.4845320">
        <ele>371.6</ele>
        <time>2020-11-14T11:53:40Z</time>
      </trkpt>
      <trkpt lat="38.8369790" lon="-0.4845710">
        <ele>371.6</ele>
        <time>2020-11-14T11:53:41Z</time>
      </trkpt>
      <trkpt lat="38.8369360" lon="-0.4846170">
        <ele>371.6</ele>
        <time>2020-11-14T11:53:42Z</time>
      </trkpt>
      <trkpt lat="38.8368900" lon="-0.4846630">
        <ele>371.6</ele>
        <time>2020-11-14T11:53:43Z</time>
      </trkpt>
      <trkpt lat="38.8368550" lon="-0.4847150">
        <ele>371.6</ele>
        <time>2020-11-14T11:53:44Z</time>
      </trkpt>
      <trkpt lat="38.8368220" lon="-0.4847710">
        <ele>371.6</ele>
        <time>2020-11-14T11:53:45Z</time>
      </trkpt>
      <trkpt lat="38.8367930" lon="-0.4848340">
        <ele>371.6</ele>
        <time>2020-11-14T11:53:46Z</time>
      </trkpt>
      <trkpt lat="38.8367700" lon="-0.4849050">
        <ele>371.6</ele>
        <time>2020-11-14T11:53:47Z</time>
      </trkpt>
      <trkpt lat="38.8367570" lon="-0.4849810">
        <ele>371.6</ele>
        <time>2020-11-14T11:53:48Z</time>
      </trkpt>
      <trkpt lat="38.8367560" lon="-0.4850550">
        <ele>371.7</ele>
        <time>2020-11-14T11:53:49Z</time>
      </trkpt>
      <trkpt lat="38.8367610" lon="-0.4851280">
        <ele>371.8</ele>
        <time>2020-11-14T11:53:50Z</time>
      </trkpt>
      <trkpt lat="38.8367670" lon="-0.4852000">
        <ele>371.9</ele>
        <time>2020-11-14T11:53:51Z</time>
      </trkpt>
      <trkpt lat="38.8367730" lon="-0.4852750">
        <ele>372.1</ele>
        <time>2020-11-14T11:53:52Z</time>
      </trkpt>
      <trkpt lat="38.8367730" lon="-0.4853510">
        <ele>372.2</ele>
        <time>2020-11-14T11:53:53Z</time>
      </trkpt>
      <trkpt lat="38.8367710" lon="-0.4854240">
        <ele>372.3</ele>
        <time>2020-11-14T11:53:54Z</time>
      </trkpt>
      <trkpt lat="38.8367630" lon="-0.4854940">
        <ele>372.5</ele>
        <time>2020-11-14T11:53:55Z</time>
      </trkpt>
      <trkpt lat="38.8367560" lon="-0.4855620">
        <ele>372.6</ele>
        <time>2020-11-14T11:53:56Z</time>
      </trkpt>
      <trkpt lat="38.8367490" lon="-0.4856240">
        <ele>372.7</ele>
        <time>2020-11-14T11:53:57Z</time>
      </trkpt>
      <trkpt lat="38.8367390" lon="-0.4856820">
        <ele>372.8</ele>
        <time>2020-11-14T11:53:58Z</time>
      </trkpt>
      <trkpt lat="38.8367330" lon="-0.4857430">
        <ele>373.0</ele>
        <time>2020-11-14T11:53:59Z</time>
      </trkpt>
      <trkpt lat="38.8367250" lon="-0.4858000">
        <ele>373.1</ele>
        <time>2020-11-14T11:54:00Z</time>
      </trkpt>
      <trkpt lat="38.8367150" lon="-0.4858520">
        <ele>373.2</ele>
        <time>2020-11-14T11:54:01Z</time>
      </trkpt>
      <trkpt lat="38.8367060" lon="-0.4859020">
        <ele>373.4</ele>
        <time>2020-11-14T11:54:02Z</time>
      </trkpt>
      <trkpt lat="38.8366960" lon="-0.4859550">
        <ele>373.5</ele>
        <time>2020-11-14T11:54:03Z</time>
      </trkpt>
      <trkpt lat="38.8366870" lon="-0.4860100">
        <ele>373.7</ele>
        <time>2020-11-14T11:54:04Z</time>
      </trkpt>
      <trkpt lat="38.8366780" lon="-0.4860640">
        <ele>373.8</ele>
        <time>2020-11-14T11:54:05Z</time>
      </trkpt>
      <trkpt lat="38.8366650" lon="-0.4861130">
        <ele>374.0</ele>
        <time>2020-11-14T11:54:06Z</time>
      </trkpt>
      <trkpt lat="38.8366510" lon="-0.4861610">
        <ele>374.2</ele>
        <time>2020-11-14T11:54:07Z</time>
      </trkpt>
      <trkpt lat="38.8366370" lon="-0.4862080">
        <ele>374.3</ele>
        <time>2020-11-14T11:54:08Z</time>
      </trkpt>
      <trkpt lat="38.8366260" lon="-0.4862560">
        <ele>374.5</ele>
        <time>2020-11-14T11:54:09Z</time>
      </trkpt>
      <trkpt lat="38.8366150" lon="-0.4862990">
        <ele>374.6</ele>
        <time>2020-11-14T11:54:10Z</time>
      </trkpt>
      <trkpt lat="38.8366020" lon="-0.4863440">
        <ele>374.8</ele>
        <time>2020-11-14T11:54:11Z</time>
      </trkpt>
      <trkpt lat="38.8365870" lon="-0.4863860">
        <ele>374.9</ele>
        <time>2020-11-14T11:54:12Z</time>
      </trkpt>
      <trkpt lat="38.8365700" lon="-0.4864280">
        <ele>375.0</ele>
        <time>2020-11-14T11:54:13Z</time>
      </trkpt>
      <trkpt lat="38.8365520" lon="-0.4864690">
        <ele>375.1</ele>
        <time>2020-11-14T11:54:14Z</time>
      </trkpt>
      <trkpt lat="38.8365330" lon="-0.4865090">
        <ele>375.2</ele>
        <time>2020-11-14T11:54:15Z</time>
      </trkpt>
      <trkpt lat="38.8365120" lon="-0.4865510">
        <ele>375.3</ele>
        <time>2020-11-14T11:54:16Z</time>
      </trkpt>
      <trkpt lat="38.8364910" lon="-0.4865930">
        <ele>375.4</ele>
        <time>2020-11-14T11:54:17Z</time>
      </trkpt>
      <trkpt lat="38.8364690" lon="-0.4866390">
        <ele>375.5</ele>
        <time>2020-11-14T11:54:18Z</time>
      </trkpt>
      <trkpt lat="38.8364490" lon="-0.4866870">
        <ele>375.5</ele>
        <time>2020-11-14T11:54:19Z</time>
      </trkpt>
      <trkpt lat="38.8364300" lon="-0.4867370">
        <ele>375.6</ele>
        <time>2020-11-14T11:54:20Z</time>
      </trkpt>
      <trkpt lat="38.8364130" lon="-0.4867890">
        <ele>375.7</ele>
        <time>2020-11-14T11:54:21Z</time>
      </trkpt>
      <trkpt lat="38.8364060" lon="-0.4868510">
        <ele>375.7</ele>
        <time>2020-11-14T11:54:22Z</time>
      </trkpt>
      <trkpt lat="38.8363910" lon="-0.4869080">
        <ele>375.8</ele>
        <time>2020-11-14T11:54:23Z</time>
      </trkpt>
      <trkpt lat="38.8363800" lon="-0.4869680">
        <ele>375.8</ele>
        <time>2020-11-14T11:54:24Z</time>
      </trkpt>
      <trkpt lat="38.8363670" lon="-0.4870220">
        <ele>375.8</ele>
        <time>2020-11-14T11:54:25Z</time>
      </trkpt>
      <trkpt lat="38.8363540" lon="-0.4870810">
        <ele>375.9</ele>
        <time>2020-11-14T11:54:26Z</time>
      </trkpt>
      <trkpt lat="38.8363400" lon="-0.4871400">
        <ele>375.9</ele>
        <time>2020-11-14T11:54:27Z</time>
      </trkpt>
      <trkpt lat="38.8363250" lon="-0.4872030">
        <ele>375.9</ele>
        <time>2020-11-14T11:54:28Z</time>
      </trkpt>
      <trkpt lat="38.8363140" lon="-0.4872680">
        <ele>375.9</ele>
        <time>2020-11-14T11:54:29Z</time>
      </trkpt>
      <trkpt lat="38.8363080" lon="-0.4873310">
        <ele>375.9</ele>
        <time>2020-11-14T11:54:30Z</time>
      </trkpt>
      <trkpt lat="38.8363090" lon="-0.4873930">
        <ele>375.9</ele>
        <time>2020-11-14T11:54:31Z</time>
      </trkpt>
      <trkpt lat="38.8363220" lon="-0.4874580">
        <ele>375.9</ele>
        <time>2020-11-14T11:54:32Z</time>
      </trkpt>
      <trkpt lat="38.8363420" lon="-0.4875120">
        <ele>375.9</ele>
        <time>2020-11-14T11:54:33Z</time>
      </trkpt>
      <trkpt lat="38.8363750" lon="-0.4875560">
        <ele>375.9</ele>
        <time>2020-11-14T11:54:34Z</time>
      </trkpt>
      <trkpt lat="38.8364100" lon="-0.4875970">
        <ele>375.8</ele>
        <time>2020-11-14T11:54:35Z</time>
      </trkpt>
      <trkpt lat="38.8364490" lon="-0.4876300">
        <ele>375.8</ele>
        <time>2020-11-14T11:54:36Z</time>
      </trkpt>
      <trkpt lat="38.8364920" lon="-0.4876680">
        <ele>375.8</ele>
        <time>2020-11-14T11:54:37Z</time>
      </trkpt>
      <trkpt lat="38.8365360" lon="-0.4877050">
        <ele>375.8</ele>
        <time>2020-11-14T11:54:38Z</time>
      </trkpt>
      <trkpt lat="38.8365830" lon="-0.4877410">
        <ele>375.8</ele>
        <time>2020-11-14T11:54:39Z</time>
      </trkpt>
      <trkpt lat="38.8366300" lon="-0.4877820">
        <ele>375.8</ele>
        <time>2020-11-14T11:54:40Z</time>
      </trkpt>
      <trkpt lat="38.8366720" lon="-0.4878180">
        <ele>375.8</ele>
        <time>2020-11-14T11:54:41Z</time>
      </trkpt>
      <trkpt lat="38.8367140" lon="-0.4878590">
        <ele>375.8</ele>
        <time>2020-11-14T11:54:42Z</time>
      </trkpt>
      <trkpt lat="38.8367520" lon="-0.4879150">
        <ele>375.8</ele>
        <time>2020-11-14T11:54:43Z</time>
      </trkpt>
      <trkpt lat="38.8367840" lon="-0.4879780">
        <ele>375.8</ele>
        <time>2020-11-14T11:54:44Z</time>
      </trkpt>
      <trkpt lat="38.8368120" lon="-0.4880500">
        <ele>375.8</ele>
        <time>2020-11-14T11:54:45Z</time>
      </trkpt>
      <trkpt lat="38.8368270" lon="-0.4881150">
        <ele>375.8</ele>
        <time>2020-11-14T11:54:46Z</time>
      </trkpt>
      <trkpt lat="38.8368390" lon="-0.4881890">
        <ele>375.8</ele>
        <time>2020-11-14T11:54:47Z</time>
      </trkpt>
      <trkpt lat="38.8368490" lon="-0.4882590">
        <ele>375.8</ele>
        <time>2020-11-14T11:54:48Z</time>
      </trkpt>
      <trkpt lat="38.8368520" lon="-0.4883280">
        <ele>375.8</ele>
        <time>2020-11-14T11:54:49Z</time>
      </trkpt>
      <trkpt lat="38.8368600" lon="-0.4884030">
        <ele>375.8</ele>
        <time>2020-11-14T11:54:50Z</time>
      </trkpt>
      <trkpt lat="38.8368700" lon="-0.4884880">
        <ele>375.8</ele>
        <time>2020-11-14T11:54:51Z</time>
      </trkpt>
      <trkpt lat="38.8368760" lon="-0.4885620">
        <ele>375.8</ele>
        <time>2020-11-14T11:54:52Z</time>
      </trkpt>
      <trkpt lat="38.8368790" lon="-0.4886320">
        <ele>375.8</ele>
        <time>2020-11-14T11:54:53Z</time>
      </trkpt>
      <trkpt lat="38.8368800" lon="-0.4887000">
        <ele>375.7</ele>
        <time>2020-11-14T11:54:54Z</time>
      </trkpt>
      <trkpt lat="38.8368870" lon="-0.4887680">
        <ele>375.7</ele>
        <time>2020-11-14T11:54:55Z</time>
      </trkpt>
      <trkpt lat="38.8368920" lon="-0.4888440">
        <ele>375.7</ele>
        <time>2020-11-14T11:54:56Z</time>
      </trkpt>
      <trkpt lat="38.8368960" lon="-0.4889160">
        <ele>375.7</ele>
        <time>2020-11-14T11:54:57Z</time>
      </trkpt>
      <trkpt lat="38.8369030" lon="-0.4889920">
        <ele>375.7</ele>
        <time>2020-11-14T11:54:58Z</time>
      </trkpt>
      <trkpt lat="38.8369070" lon="-0.4890660">
        <ele>375.7</ele>
        <time>2020-11-14T11:54:59Z</time>
      </trkpt>
      <trkpt lat="38.8369120" lon="-0.4891400">
        <ele>375.7</ele>
        <time>2020-11-14T11:55:00Z</time>
      </trkpt>
      <trkpt lat="38.8369130" lon="-0.4892200">
        <ele>375.7</ele>
        <time>2020-11-14T11:55:01Z</time>
      </trkpt>
      <trkpt lat="38.8369110" lon="-0.4892950">
        <ele>375.7</ele>
        <time>2020-11-14T11:55:02Z</time>
      </trkpt>
      <trkpt lat="38.8369050" lon="-0.4893730">
        <ele>375.7</ele>
        <time>2020-11-14T11:55:03Z</time>
      </trkpt>
      <trkpt lat="38.8368970" lon="-0.4894480">
        <ele>375.7</ele>
        <time>2020-11-14T11:55:04Z</time>
      </trkpt>
      <trkpt lat="38.8368890" lon="-0.4895280">
        <ele>375.7</ele>
        <time>2020-11-14T11:55:05Z</time>
      </trkpt>
      <trkpt lat="38.8368760" lon="-0.4896030">
        <ele>375.6</ele>
        <time>2020-11-14T11:55:06Z</time>
      </trkpt>
      <trkpt lat="38.8368620" lon="-0.4896810">
        <ele>375.5</ele>
        <time>2020-11-14T11:55:07Z</time>
      </trkpt>
      <trkpt lat="38.8368490" lon="-0.4897570">
        <ele>375.5</ele>
        <time>2020-11-14T11:55:08Z</time>
      </trkpt>
      <trkpt lat="38.8368310" lon="-0.4898320">
        <ele>375.4</ele>
        <time>2020-11-14T11:55:09Z</time>
      </trkpt>
      <trkpt lat="38.8368090" lon="-0.4899060">
        <ele>375.4</ele>
        <time>2020-11-14T11:55:10Z</time>
      </trkpt>
      <trkpt lat="38.8367930" lon="-0.4899860">
        <ele>375.3</ele>
        <time>2020-11-14T11:55:11Z</time>
      </trkpt>
      <trkpt lat="38.8367770" lon="-0.4900620">
        <ele>375.2</ele>
        <time>2020-11-14T11:55:12Z</time>
      </trkpt>
      <trkpt lat="38.8367570" lon="-0.4901410">
        <ele>375.2</ele>
        <time>2020-11-14T11:55:13Z</time>
      </trkpt>
      <trkpt lat="38.8367330" lon="-0.4902200">
        <ele>375.2</ele>
        <time>2020-11-14T11:55:14Z</time>
      </trkpt>
      <trkpt lat="38.8367150" lon="-0.4902990">
        <ele>375.1</ele>
        <time>2020-11-14T11:55:15Z</time>
      </trkpt>
      <trkpt lat="38.8366950" lon="-0.4903790">
        <ele>375.1</ele>
        <time>2020-11-14T11:55:16Z</time>
      </trkpt>
      <trkpt lat="38.8366710" lon="-0.4904600">
        <ele>375.0</ele>
        <time>2020-11-14T11:55:17Z</time>
      </trkpt>
      <trkpt lat="38.8366490" lon="-0.4905380">
        <ele>375.0</ele>
        <time>2020-11-14T11:55:18Z</time>
      </trkpt>
      <trkpt lat="38.8366300" lon="-0.4906180">
        <ele>375.0</ele>
        <time>2020-11-14T11:55:19Z</time>
      </trkpt>
      <trkpt lat="38.8366130" lon="-0.4906920">
        <ele>374.9</ele>
        <time>2020-11-14T11:55:20Z</time>
      </trkpt>
      <trkpt lat="38.8365900" lon="-0.4907700">
        <ele>374.9</ele>
        <time>2020-11-14T11:55:21Z</time>
      </trkpt>
      <trkpt lat="38.8365720" lon="-0.4908500">
        <ele>374.8</ele>
        <time>2020-11-14T11:55:22Z</time>
      </trkpt>
      <trkpt lat="38.8365510" lon="-0.4909270">
        <ele>374.8</ele>
        <time>2020-11-14T11:55:23Z</time>
      </trkpt>
      <trkpt lat="38.8365280" lon="-0.4910040">
        <ele>374.8</ele>
        <time>2020-11-14T11:55:24Z</time>
      </trkpt>
      <trkpt lat="38.8365120" lon="-0.4910830">
        <ele>374.7</ele>
        <time>2020-11-14T11:55:25Z</time>
      </trkpt>
      <trkpt lat="38.8364910" lon="-0.4911570">
        <ele>374.7</ele>
        <time>2020-11-14T11:55:26Z</time>
      </trkpt>
      <trkpt lat="38.8364690" lon="-0.4912380">
        <ele>374.7</ele>
        <time>2020-11-14T11:55:27Z</time>
      </trkpt>
      <trkpt lat="38.8364440" lon="-0.4913180">
        <ele>374.8</ele>
        <time>2020-11-14T11:55:28Z</time>
      </trkpt>
      <trkpt lat="38.8364220" lon="-0.4914000">
        <ele>374.8</ele>
        <time>2020-11-14T11:55:29Z</time>
      </trkpt>
      <trkpt lat="38.8364040" lon="-0.4914740">
        <ele>374.8</ele>
        <time>2020-11-14T11:55:30Z</time>
      </trkpt>
      <trkpt lat="38.8363830" lon="-0.4915560">
        <ele>374.8</ele>
        <time>2020-11-14T11:55:31Z</time>
      </trkpt>
      <trkpt lat="38.8363570" lon="-0.4916360">
        <ele>374.8</ele>
        <time>2020-11-14T11:55:32Z</time>
      </trkpt>
      <trkpt lat="38.8363360" lon="-0.4917160">
        <ele>374.8</ele>
        <time>2020-11-14T11:55:33Z</time>
      </trkpt>
      <trkpt lat="38.8363190" lon="-0.4918010">
        <ele>374.8</ele>
        <time>2020-11-14T11:55:34Z</time>
      </trkpt>
      <trkpt lat="38.8363000" lon="-0.4918770">
        <ele>374.8</ele>
        <time>2020-11-14T11:55:35Z</time>
      </trkpt>
      <trkpt lat="38.8362770" lon="-0.4919610">
        <ele>374.9</ele>
        <time>2020-11-14T11:55:36Z</time>
      </trkpt>
      <trkpt lat="38.8362640" lon="-0.4920490">
        <ele>374.9</ele>
        <time>2020-11-14T11:55:37Z</time>
      </trkpt>
      <trkpt lat="38.8362520" lon="-0.4921280">
        <ele>375.0</ele>
        <time>2020-11-14T11:55:38Z</time>
      </trkpt>
      <trkpt lat="38.8362580" lon="-0.4922070">
        <ele>375.2</ele>
        <time>2020-11-14T11:55:39Z</time>
      </trkpt>
      <trkpt lat="38.8362660" lon="-0.4922830">
        <ele>375.3</ele>
        <time>2020-11-14T11:55:40Z</time>
      </trkpt>
      <trkpt lat="38.8362820" lon="-0.4923630">
        <ele>375.6</ele>
        <time>2020-11-14T11:55:41Z</time>
      </trkpt>
      <trkpt lat="38.8363050" lon="-0.4924470">
        <ele>375.9</ele>
        <time>2020-11-14T11:55:42Z</time>
      </trkpt>
      <trkpt lat="38.8363120" lon="-0.4925200">
        <ele>376.1</ele>
        <time>2020-11-14T11:55:43Z</time>
      </trkpt>
      <trkpt lat="38.8363220" lon="-0.4925750">
        <ele>376.4</ele>
        <time>2020-11-14T11:55:44Z</time>
      </trkpt>
      <trkpt lat="38.8363320" lon="-0.4926320">
        <ele>376.6</ele>
        <time>2020-11-14T11:55:45Z</time>
      </trkpt>
      <trkpt lat="38.8363470" lon="-0.4927000">
        <ele>376.9</ele>
        <time>2020-11-14T11:55:46Z</time>
      </trkpt>
      <trkpt lat="38.8363500" lon="-0.4927570">
        <ele>377.1</ele>
        <time>2020-11-14T11:55:47Z</time>
      </trkpt>
      <trkpt lat="38.8363640" lon="-0.4928170">
        <ele>377.4</ele>
        <time>2020-11-14T11:55:48Z</time>
      </trkpt>
      <trkpt lat="38.8363780" lon="-0.4928620">
        <ele>377.6</ele>
        <time>2020-11-14T11:55:49Z</time>
      </trkpt>
      <trkpt lat="38.8363810" lon="-0.4929100">
        <ele>377.8</ele>
        <time>2020-11-14T11:55:50Z</time>
      </trkpt>
      <trkpt lat="38.8363730" lon="-0.4929630">
        <ele>378.0</ele>
        <time>2020-11-14T11:55:51Z</time>
      </trkpt>
      <trkpt lat="38.8363670" lon="-0.4930140">
        <ele>378.3</ele>
        <time>2020-11-14T11:55:52Z</time>
      </trkpt>
      <trkpt lat="38.8363620" lon="-0.4930620">
        <ele>378.5</ele>
        <time>2020-11-14T11:55:53Z</time>
      </trkpt>
      <trkpt lat="38.8363450" lon="-0.4931050">
        <ele>378.7</ele>
        <time>2020-11-14T11:55:54Z</time>
      </trkpt>
      <trkpt lat="38.8363400" lon="-0.4931520">
        <ele>378.9</ele>
        <time>2020-11-14T11:55:55Z</time>
      </trkpt>
      <trkpt lat="38.8363160" lon="-0.4931930">
        <ele>379.1</ele>
        <time>2020-11-14T11:55:56Z</time>
      </trkpt>
      <trkpt lat="38.8362930" lon="-0.4932290">
        <ele>379.3</ele>
        <time>2020-11-14T11:55:57Z</time>
      </trkpt>
      <trkpt lat="38.8362670" lon="-0.4932570">
        <ele>379.5</ele>
        <time>2020-11-14T11:55:58Z</time>
      </trkpt>
      <trkpt lat="38.8362410" lon="-0.4932850">
        <ele>379.6</ele>
        <time>2020-11-14T11:55:59Z</time>
      </trkpt>
      <trkpt lat="38.8362150" lon="-0.4933110">
        <ele>379.8</ele>
        <time>2020-11-14T11:56:00Z</time>
      </trkpt>
      <trkpt lat="38.8361890" lon="-0.4933340">
        <ele>379.9</ele>
        <time>2020-11-14T11:56:01Z</time>
      </trkpt>
      <trkpt lat="38.8361640" lon="-0.4933550">
        <ele>380.0</ele>
        <time>2020-11-14T11:56:02Z</time>
      </trkpt>
      <trkpt lat="38.8361400" lon="-0.4933750">
        <ele>380.2</ele>
        <time>2020-11-14T11:56:03Z</time>
      </trkpt>
      <trkpt lat="38.8361150" lon="-0.4933930">
        <ele>380.3</ele>
        <time>2020-11-14T11:56:04Z</time>
      </trkpt>
      <trkpt lat="38.8360900" lon="-0.4934120">
        <ele>380.4</ele>
        <time>2020-11-14T11:56:05Z</time>
      </trkpt>
      <trkpt lat="38.8360660" lon="-0.4934350">
        <ele>380.5</ele>
        <time>2020-11-14T11:56:06Z</time>
      </trkpt>
      <trkpt lat="38.8360420" lon="-0.4934570">
        <ele>380.7</ele>
        <time>2020-11-14T11:56:07Z</time>
      </trkpt>
      <trkpt lat="38.8360180" lon="-0.4934800">
        <ele>380.8</ele>
        <time>2020-11-14T11:56:08Z</time>
      </trkpt>
      <trkpt lat="38.8359920" lon="-0.4935050">
        <ele>380.9</ele>
        <time>2020-11-14T11:56:09Z</time>
      </trkpt>
      <trkpt lat="38.8359690" lon="-0.4935300">
        <ele>381.1</ele>
        <time>2020-11-14T11:56:10Z</time>
      </trkpt>
      <trkpt lat="38.8359480" lon="-0.4935540">
        <ele>381.2</ele>
        <time>2020-11-14T11:56:11Z</time>
      </trkpt>
      <trkpt lat="38.8359140" lon="-0.4935850">
        <ele>381.4</ele>
        <time>2020-11-14T11:56:12Z</time>
      </trkpt>
      <trkpt lat="38.8359010" lon="-0.4935940">
        <ele>381.5</ele>
        <time>2020-11-14T11:56:13Z</time>
      </trkpt>
      <trkpt lat="38.8358740" lon="-0.4936080">
        <ele>381.6</ele>
        <time>2020-11-14T11:56:14Z</time>
      </trkpt>
      <trkpt lat="38.8358480" lon="-0.4936230">
        <ele>381.8</ele>
        <time>2020-11-14T11:56:15Z</time>
      </trkpt>
      <trkpt lat="38.8358210" lon="-0.4936410">
        <ele>381.9</ele>
        <time>2020-11-14T11:56:16Z</time>
      </trkpt>
      <trkpt lat="38.8357950" lon="-0.4936610">
        <ele>382.1</ele>
        <time>2020-11-14T11:56:17Z</time>
      </trkpt>
      <trkpt lat="38.8357700" lon="-0.4936810">
        <ele>382.2</ele>
        <time>2020-11-14T11:56:18Z</time>
      </trkpt>
      <trkpt lat="38.8357460" lon="-0.4937030">
        <ele>382.4</ele>
        <time>2020-11-14T11:56:19Z</time>
      </trkpt>
      <trkpt lat="38.8357230" lon="-0.4937270">
        <ele>382.5</ele>
        <time>2020-11-14T11:56:20Z</time>
      </trkpt>
      <trkpt lat="38.8357000" lon="-0.4937540">
        <ele>382.6</ele>
        <time>2020-11-14T11:56:21Z</time>
      </trkpt>
      <trkpt lat="38.8356780" lon="-0.4937800">
        <ele>382.8</ele>
        <time>2020-11-14T11:56:22Z</time>
      </trkpt>
      <trkpt lat="38.8356540" lon="-0.4938040">
        <ele>383.0</ele>
        <time>2020-11-14T11:56:23Z</time>
      </trkpt>
      <trkpt lat="38.8356310" lon="-0.4938290">
        <ele>383.1</ele>
        <time>2020-11-14T11:56:24Z</time>
      </trkpt>
      <trkpt lat="38.8356100" lon="-0.4938560">
        <ele>383.3</ele>
        <time>2020-11-14T11:56:25Z</time>
      </trkpt>
      <trkpt lat="38.8355890" lon="-0.4938840">
        <ele>383.4</ele>
        <time>2020-11-14T11:56:26Z</time>
      </trkpt>
      <trkpt lat="38.8355670" lon="-0.4939120">
        <ele>383.6</ele>
        <time>2020-11-14T11:56:27Z</time>
      </trkpt>
      <trkpt lat="38.8355430" lon="-0.4939400">
        <ele>383.8</ele>
        <time>2020-11-14T11:56:28Z</time>
      </trkpt>
      <trkpt lat="38.8355200" lon="-0.4939680">
        <ele>383.9</ele>
        <time>2020-11-14T11:56:29Z</time>
      </trkpt>
      <trkpt lat="38.8354980" lon="-0.4939980">
        <ele>384.1</ele>
        <time>2020-11-14T11:56:30Z</time>
      </trkpt>
      <trkpt lat="38.8354770" lon="-0.4940290">
        <ele>384.2</ele>
        <time>2020-11-14T11:56:31Z</time>
      </trkpt>
      <trkpt lat="38.8354560" lon="-0.4940580">
        <ele>384.4</ele>
        <time>2020-11-14T11:56:32Z</time>
      </trkpt>
      <trkpt lat="38.8354340" lon="-0.4940870">
        <ele>384.5</ele>
        <time>2020-11-14T11:56:33Z</time>
      </trkpt>
      <trkpt lat="38.8354100" lon="-0.4941130">
        <ele>384.7</ele>
        <time>2020-11-14T11:56:34Z</time>
      </trkpt>
      <trkpt lat="38.8353850" lon="-0.4941380">
        <ele>384.8</ele>
        <time>2020-11-14T11:56:35Z</time>
      </trkpt>
      <trkpt lat="38.8353600" lon="-0.4941640">
        <ele>385.0</ele>
        <time>2020-11-14T11:56:36Z</time>
      </trkpt>
      <trkpt lat="38.8353370" lon="-0.4941920">
        <ele>385.1</ele>
        <time>2020-11-14T11:56:37Z</time>
      </trkpt>
      <trkpt lat="38.8353150" lon="-0.4942200">
        <ele>385.3</ele>
        <time>2020-11-14T11:56:38Z</time>
      </trkpt>
      <trkpt lat="38.8352930" lon="-0.4942480">
        <ele>385.4</ele>
        <time>2020-11-14T11:56:39Z</time>
      </trkpt>
      <trkpt lat="38.8352700" lon="-0.4942800">
        <ele>385.6</ele>
        <time>2020-11-14T11:56:40Z</time>
      </trkpt>
      <trkpt lat="38.8352480" lon="-0.4943100">
        <ele>385.8</ele>
        <time>2020-11-14T11:56:41Z</time>
      </trkpt>
      <trkpt lat="38.8352240" lon="-0.4943420">
        <ele>385.9</ele>
        <time>2020-11-14T11:56:42Z</time>
      </trkpt>
      <trkpt lat="38.8351990" lon="-0.4943740">
        <ele>386.1</ele>
        <time>2020-11-14T11:56:43Z</time>
      </trkpt>
      <trkpt lat="38.8351740" lon="-0.4944020">
        <ele>386.3</ele>
        <time>2020-11-14T11:56:44Z</time>
      </trkpt>
      <trkpt lat="38.8351500" lon="-0.4944280">
        <ele>386.5</ele>
        <time>2020-11-14T11:56:45Z</time>
      </trkpt>
      <trkpt lat="38.8351260" lon="-0.4944560">
        <ele>386.7</ele>
        <time>2020-11-14T11:56:46Z</time>
      </trkpt>
      <trkpt lat="38.8351000" lon="-0.4944870">
        <ele>386.9</ele>
        <time>2020-11-14T11:56:47Z</time>
      </trkpt>
      <trkpt lat="38.8350750" lon="-0.4945180">
        <ele>387.0</ele>
        <time>2020-11-14T11:56:48Z</time>
      </trkpt>
      <trkpt lat="38.8350530" lon="-0.4945440">
        <ele>387.2</ele>
        <time>2020-11-14T11:56:49Z</time>
      </trkpt>
      <trkpt lat="38.8350300" lon="-0.4945710">
        <ele>387.4</ele>
        <time>2020-11-14T11:56:50Z</time>
      </trkpt>
      <trkpt lat="38.8350070" lon="-0.4945960">
        <ele>387.5</ele>
        <time>2020-11-14T11:56:51Z</time>
      </trkpt>
      <trkpt lat="38.8349850" lon="-0.4946220">
        <ele>387.7</ele>
        <time>2020-11-14T11:56:52Z</time>
      </trkpt>
      <trkpt lat="38.8349630" lon="-0.4946500">
        <ele>387.8</ele>
        <time>2020-11-14T11:56:53Z</time>
      </trkpt>
      <trkpt lat="38.8349400" lon="-0.4946760">
        <ele>388.0</ele>
        <time>2020-11-14T11:56:54Z</time>
      </trkpt>
      <trkpt lat="38.8349170" lon="-0.4947050">
        <ele>388.2</ele>
        <time>2020-11-14T11:56:55Z</time>
      </trkpt>
      <trkpt lat="38.8348880" lon="-0.4947390">
        <ele>388.4</ele>
        <time>2020-11-14T11:56:56Z</time>
      </trkpt>
      <trkpt lat="38.8348790" lon="-0.4947500">
        <ele>388.5</ele>
        <time>2020-11-14T11:56:57Z</time>
      </trkpt>
      <trkpt lat="38.8348560" lon="-0.4947750">
        <ele>388.7</ele>
        <time>2020-11-14T11:56:58Z</time>
      </trkpt>
      <trkpt lat="38.8348330" lon="-0.4947990">
        <ele>388.8</ele>
        <time>2020-11-14T11:56:59Z</time>
      </trkpt>
      <trkpt lat="38.8348090" lon="-0.4948230">
        <ele>389.0</ele>
        <time>2020-11-14T11:57:00Z</time>
      </trkpt>
      <trkpt lat="38.8347850" lon="-0.4948470">
        <ele>389.2</ele>
        <time>2020-11-14T11:57:01Z</time>
      </trkpt>
      <trkpt lat="38.8347590" lon="-0.4948690">
        <ele>389.3</ele>
        <time>2020-11-14T11:57:02Z</time>
      </trkpt>
      <trkpt lat="38.8347290" lon="-0.4948880">
        <ele>389.5</ele>
        <time>2020-11-14T11:57:03Z</time>
      </trkpt>
      <trkpt lat="38.8347030" lon="-0.4949040">
        <ele>389.7</ele>
        <time>2020-11-14T11:57:04Z</time>
      </trkpt>
      <trkpt lat="38.8346780" lon="-0.4949240">
        <ele>389.8</ele>
        <time>2020-11-14T11:57:05Z</time>
      </trkpt>
      <trkpt lat="38.8346560" lon="-0.4949470">
        <ele>390.0</ele>
        <time>2020-11-14T11:57:06Z</time>
      </trkpt>
      <trkpt lat="38.8346310" lon="-0.4949690">
        <ele>390.1</ele>
        <time>2020-11-14T11:57:07Z</time>
      </trkpt>
      <trkpt lat="38.8346040" lon="-0.4949920">
        <ele>390.3</ele>
        <time>2020-11-14T11:57:08Z</time>
      </trkpt>
      <trkpt lat="38.8345760" lon="-0.4950140">
        <ele>390.5</ele>
        <time>2020-11-14T11:57:09Z</time>
      </trkpt>
      <trkpt lat="38.8345490" lon="-0.4950370">
        <ele>390.6</ele>
        <time>2020-11-14T11:57:10Z</time>
      </trkpt>
      <trkpt lat="38.8345240" lon="-0.4950590">
        <ele>390.8</ele>
        <time>2020-11-14T11:57:11Z</time>
      </trkpt>
      <trkpt lat="38.8345010" lon="-0.4950810">
        <ele>390.9</ele>
        <time>2020-11-14T11:57:12Z</time>
      </trkpt>
      <trkpt lat="38.8344760" lon="-0.4951040">
        <ele>391.1</ele>
        <time>2020-11-14T11:57:13Z</time>
      </trkpt>
      <trkpt lat="38.8344480" lon="-0.4951290">
        <ele>391.2</ele>
        <time>2020-11-14T11:57:14Z</time>
      </trkpt>
      <trkpt lat="38.8344220" lon="-0.4951510">
        <ele>391.4</ele>
        <time>2020-11-14T11:57:15Z</time>
      </trkpt>
      <trkpt lat="38.8343980" lon="-0.4951690">
        <ele>391.5</ele>
        <time>2020-11-14T11:57:16Z</time>
      </trkpt>
      <trkpt lat="38.8343730" lon="-0.4951890">
        <ele>391.7</ele>
        <time>2020-11-14T11:57:17Z</time>
      </trkpt>
      <trkpt lat="38.8343470" lon="-0.4952110">
        <ele>391.8</ele>
        <time>2020-11-14T11:57:18Z</time>
      </trkpt>
      <trkpt lat="38.8343220" lon="-0.4952320">
        <ele>391.9</ele>
        <time>2020-11-14T11:57:19Z</time>
      </trkpt>
      <trkpt lat="38.8342950" lon="-0.4952500">
        <ele>392.1</ele>
        <time>2020-11-14T11:57:20Z</time>
      </trkpt>
      <trkpt lat="38.8342700" lon="-0.4952660">
        <ele>392.2</ele>
        <time>2020-11-14T11:57:21Z</time>
      </trkpt>
      <trkpt lat="38.8342330" lon="-0.4952890">
        <ele>392.4</ele>
        <time>2020-11-14T11:57:22Z</time>
      </trkpt>
      <trkpt lat="38.8342210" lon="-0.4952970">
        <ele>392.4</ele>
        <time>2020-11-14T11:57:23Z</time>
      </trkpt>
      <trkpt lat="38.8341960" lon="-0.4953180">
        <ele>392.6</ele>
        <time>2020-11-14T11:57:24Z</time>
      </trkpt>
      <trkpt lat="38.8341700" lon="-0.4953440">
        <ele>392.7</ele>
        <time>2020-11-14T11:57:25Z</time>
      </trkpt>
      <trkpt lat="38.8341470" lon="-0.4953720">
        <ele>392.9</ele>
        <time>2020-11-14T11:57:26Z</time>
      </trkpt>
      <trkpt lat="38.8341250" lon="-0.4954030">
        <ele>393.0</ele>
        <time>2020-11-14T11:57:27Z</time>
      </trkpt>
      <trkpt lat="38.8341030" lon="-0.4954350">
        <ele>393.2</ele>
        <time>2020-11-14T11:57:28Z</time>
      </trkpt>
      <trkpt lat="38.8340810" lon="-0.4954640">
        <ele>393.3</ele>
        <time>2020-11-14T11:57:29Z</time>
      </trkpt>
      <trkpt lat="38.8340580" lon="-0.4954920">
        <ele>393.5</ele>
        <time>2020-11-14T11:57:30Z</time>
      </trkpt>
      <trkpt lat="38.8340350" lon="-0.4955180">
        <ele>393.6</ele>
        <time>2020-11-14T11:57:31Z</time>
      </trkpt>
      <trkpt lat="38.8340120" lon="-0.4955400">
        <ele>393.8</ele>
        <time>2020-11-14T11:57:32Z</time>
      </trkpt>
      <trkpt lat="38.8339860" lon="-0.4955620">
        <ele>393.9</ele>
        <time>2020-11-14T11:57:33Z</time>
      </trkpt>
      <trkpt lat="38.8339600" lon="-0.4955860">
        <ele>394.0</ele>
        <time>2020-11-14T11:57:34Z</time>
      </trkpt>
      <trkpt lat="38.8339350" lon="-0.4956120">
        <ele>394.1</ele>
        <time>2020-11-14T11:57:35Z</time>
      </trkpt>
      <trkpt lat="38.8339100" lon="-0.4956360">
        <ele>394.3</ele>
        <time>2020-11-14T11:57:36Z</time>
      </trkpt>
      <trkpt lat="38.8338840" lon="-0.4956590">
        <ele>394.4</ele>
        <time>2020-11-14T11:57:37Z</time>
      </trkpt>
      <trkpt lat="38.8338560" lon="-0.4956840">
        <ele>394.5</ele>
        <time>2020-11-14T11:57:38Z</time>
      </trkpt>
      <trkpt lat="38.8338280" lon="-0.4957080">
        <ele>394.6</ele>
        <time>2020-11-14T11:57:39Z</time>
      </trkpt>
      <trkpt lat="38.8338010" lon="-0.4957330">
        <ele>394.8</ele>
        <time>2020-11-14T11:57:40Z</time>
      </trkpt>
      <trkpt lat="38.8337720" lon="-0.4957580">
        <ele>394.9</ele>
        <time>2020-11-14T11:57:41Z</time>
      </trkpt>
      <trkpt lat="38.8337440" lon="-0.4957810">
        <ele>395.0</ele>
        <time>2020-11-14T11:57:42Z</time>
      </trkpt>
      <trkpt lat="38.8337150" lon="-0.4958050">
        <ele>395.1</ele>
        <time>2020-11-14T11:57:43Z</time>
      </trkpt>
      <trkpt lat="38.8336900" lon="-0.4958280">
        <ele>395.2</ele>
        <time>2020-11-14T11:57:44Z</time>
      </trkpt>
      <trkpt lat="38.8336640" lon="-0.4958510">
        <ele>395.4</ele>
        <time>2020-11-14T11:57:45Z</time>
      </trkpt>
      <trkpt lat="38.8336360" lon="-0.4958760">
        <ele>395.5</ele>
        <time>2020-11-14T11:57:46Z</time>
      </trkpt>
      <trkpt lat="38.8336120" lon="-0.4959010">
        <ele>395.6</ele>
        <time>2020-11-14T11:57:47Z</time>
      </trkpt>
      <trkpt lat="38.8335860" lon="-0.4959260">
        <ele>395.7</ele>
        <time>2020-11-14T11:57:48Z</time>
      </trkpt>
      <trkpt lat="38.8335570" lon="-0.4959510">
        <ele>395.8</ele>
        <time>2020-11-14T11:57:49Z</time>
      </trkpt>
      <trkpt lat="38.8335280" lon="-0.4959720">
        <ele>395.9</ele>
        <time>2020-11-14T11:57:50Z</time>
      </trkpt>
      <trkpt lat="38.8334980" lon="-0.4959910">
        <ele>396.1</ele>
        <time>2020-11-14T11:57:51Z</time>
      </trkpt>
      <trkpt lat="38.8334660" lon="-0.4960120">
        <ele>396.2</ele>
        <time>2020-11-14T11:57:52Z</time>
      </trkpt>
      <trkpt lat="38.8334350" lon="-0.4960300">
        <ele>396.3</ele>
        <time>2020-11-14T11:57:53Z</time>
      </trkpt>
      <trkpt lat="38.8334040" lon="-0.4960480">
        <ele>396.4</ele>
        <time>2020-11-14T11:57:54Z</time>
      </trkpt>
      <trkpt lat="38.8333730" lon="-0.4960650">
        <ele>396.5</ele>
        <time>2020-11-14T11:57:55Z</time>
      </trkpt>
      <trkpt lat="38.8333410" lon="-0.4960810">
        <ele>396.6</ele>
        <time>2020-11-14T11:57:56Z</time>
      </trkpt>
      <trkpt lat="38.8333070" lon="-0.4960970">
        <ele>396.7</ele>
        <time>2020-11-14T11:57:57Z</time>
      </trkpt>
      <trkpt lat="38.8332730" lon="-0.4961130">
        <ele>396.8</ele>
        <time>2020-11-14T11:57:58Z</time>
      </trkpt>
      <trkpt lat="38.8332410" lon="-0.4961290">
        <ele>396.9</ele>
        <time>2020-11-14T11:57:59Z</time>
      </trkpt>
      <trkpt lat="38.8332080" lon="-0.4961460">
        <ele>397.0</ele>
        <time>2020-11-14T11:58:00Z</time>
      </trkpt>
      <trkpt lat="38.8331760" lon="-0.4961660">
        <ele>397.1</ele>
        <time>2020-11-14T11:58:01Z</time>
      </trkpt>
      <trkpt lat="38.8331440" lon="-0.4961860">
        <ele>397.2</ele>
        <time>2020-11-14T11:58:02Z</time>
      </trkpt>
      <trkpt lat="38.8331130" lon="-0.4962080">
        <ele>397.3</ele>
        <time>2020-11-14T11:58:03Z</time>
      </trkpt>
      <trkpt lat="38.8330830" lon="-0.4962300">
        <ele>397.4</ele>
        <time>2020-11-14T11:58:04Z</time>
      </trkpt>
      <trkpt lat="38.8330540" lon="-0.4962550">
        <ele>397.5</ele>
        <time>2020-11-14T11:58:05Z</time>
      </trkpt>
      <trkpt lat="38.8330260" lon="-0.4962830">
        <ele>397.6</ele>
        <time>2020-11-14T11:58:06Z</time>
      </trkpt>
      <trkpt lat="38.8329970" lon="-0.4963120">
        <ele>397.7</ele>
        <time>2020-11-14T11:58:07Z</time>
      </trkpt>
      <trkpt lat="38.8329690" lon="-0.4963410">
        <ele>397.8</ele>
        <time>2020-11-14T11:58:08Z</time>
      </trkpt>
      <trkpt lat="38.8329380" lon="-0.4963720">
        <ele>397.8</ele>
        <time>2020-11-14T11:58:09Z</time>
      </trkpt>
      <trkpt lat="38.8329030" lon="-0.4964060">
        <ele>397.9</ele>
        <time>2020-11-14T11:58:10Z</time>
      </trkpt>
      <trkpt lat="38.8328720" lon="-0.4964410">
        <ele>398.0</ele>
        <time>2020-11-14T11:58:11Z</time>
      </trkpt>
      <trkpt lat="38.8328420" lon="-0.4964790">
        <ele>398.0</ele>
        <time>2020-11-14T11:58:12Z</time>
      </trkpt>
      <trkpt lat="38.8328110" lon="-0.4965180">
        <ele>398.0</ele>
        <time>2020-11-14T11:58:13Z</time>
      </trkpt>
      <trkpt lat="38.8327860" lon="-0.4965600">
        <ele>398.1</ele>
        <time>2020-11-14T11:58:14Z</time>
      </trkpt>
      <trkpt lat="38.8327640" lon="-0.4966060">
        <ele>398.1</ele>
        <time>2020-11-14T11:58:15Z</time>
      </trkpt>
      <trkpt lat="38.8327480" lon="-0.4966580">
        <ele>398.1</ele>
        <time>2020-11-14T11:58:16Z</time>
      </trkpt>
      <trkpt lat="38.8327390" lon="-0.4967130">
        <ele>398.2</ele>
        <time>2020-11-14T11:58:17Z</time>
      </trkpt>
      <trkpt lat="38.8327540" lon="-0.4967870">
        <ele>398.2</ele>
        <time>2020-11-14T11:58:18Z</time>
      </trkpt>
      <trkpt lat="38.8327350" lon="-0.4968420">
        <ele>398.3</ele>
        <time>2020-11-14T11:58:19Z</time>
      </trkpt>
      <trkpt lat="38.8327140" lon="-0.4968960">
        <ele>398.3</ele>
        <time>2020-11-14T11:58:20Z</time>
      </trkpt>
      <trkpt lat="38.8326850" lon="-0.4969440">
        <ele>398.4</ele>
        <time>2020-11-14T11:58:21Z</time>
      </trkpt>
      <trkpt lat="38.8326480" lon="-0.4969580">
        <ele>398.3</ele>
        <time>2020-11-14T11:58:22Z</time>
      </trkpt>
      <trkpt lat="38.8326030" lon="-0.4969670">
        <ele>398.3</ele>
        <time>2020-11-14T11:58:23Z</time>
      </trkpt>
      <trkpt lat="38.8325690" lon="-0.4969670">
        <ele>398.3</ele>
        <time>2020-11-14T11:58:24Z</time>
      </trkpt>
      <trkpt lat="38.8325230" lon="-0.4969590">
        <ele>398.3</ele>
        <time>2020-11-14T11:58:25Z</time>
      </trkpt>
      <trkpt lat="38.8324800" lon="-0.4969490">
        <ele>398.3</ele>
        <time>2020-11-14T11:58:26Z</time>
      </trkpt>
      <trkpt lat="38.8324400" lon="-0.4969500">
        <ele>398.3</ele>
        <time>2020-11-14T11:58:27Z</time>
      </trkpt>
      <trkpt lat="38.8323980" lon="-0.4969460">
        <ele>398.4</ele>
        <time>2020-11-14T11:58:28Z</time>
      </trkpt>
      <trkpt lat="38.8323580" lon="-0.4969460">
        <ele>398.4</ele>
        <time>2020-11-14T11:58:29Z</time>
      </trkpt>
      <trkpt lat="38.8323190" lon="-0.4969420">
        <ele>398.5</ele>
        <time>2020-11-14T11:58:30Z</time>
      </trkpt>
      <trkpt lat="38.8322790" lon="-0.4969320">
        <ele>398.6</ele>
        <time>2020-11-14T11:58:31Z</time>
      </trkpt>
      <trkpt lat="38.8322380" lon="-0.4969200">
        <ele>398.7</ele>
        <time>2020-11-14T11:58:32Z</time>
      </trkpt>
      <trkpt lat="38.8322080" lon="-0.4969160">
        <ele>398.7</ele>
        <time>2020-11-14T11:58:33Z</time>
      </trkpt>
      <trkpt lat="38.8321730" lon="-0.4969070">
        <ele>398.8</ele>
        <time>2020-11-14T11:58:34Z</time>
      </trkpt>
      <trkpt lat="38.8321410" lon="-0.4968970">
        <ele>399.0</ele>
        <time>2020-11-14T11:58:35Z</time>
      </trkpt>
      <trkpt lat="38.8321050" lon="-0.4968930">
        <ele>399.1</ele>
        <time>2020-11-14T11:58:36Z</time>
      </trkpt>
      <trkpt lat="38.8320690" lon="-0.4968920">
        <ele>399.2</ele>
        <time>2020-11-14T11:58:37Z</time>
      </trkpt>
      <trkpt lat="38.8320370" lon="-0.4968900">
        <ele>399.4</ele>
        <time>2020-11-14T11:58:38Z</time>
      </trkpt>
      <trkpt lat="38.8320040" lon="-0.4968870">
        <ele>399.6</ele>
        <time>2020-11-14T11:58:39Z</time>
      </trkpt>
      <trkpt lat="38.8319730" lon="-0.4968820">
        <ele>399.7</ele>
        <time>2020-11-14T11:58:40Z</time>
      </trkpt>
      <trkpt lat="38.8319440" lon="-0.4968770">
        <ele>399.9</ele>
        <time>2020-11-14T11:58:41Z</time>
      </trkpt>
      <trkpt lat="38.8319150" lon="-0.4968730">
        <ele>400.1</ele>
        <time>2020-11-14T11:58:42Z</time>
      </trkpt>
      <trkpt lat="38.8318830" lon="-0.4968680">
        <ele>400.2</ele>
        <time>2020-11-14T11:58:43Z</time>
      </trkpt>
      <trkpt lat="38.8318470" lon="-0.4968650">
        <ele>400.4</ele>
        <time>2020-11-14T11:58:44Z</time>
      </trkpt>
      <trkpt lat="38.8318130" lon="-0.4968630">
        <ele>400.7</ele>
        <time>2020-11-14T11:58:45Z</time>
      </trkpt>
      <trkpt lat="38.8317820" lon="-0.4968600">
        <ele>400.9</ele>
        <time>2020-11-14T11:58:46Z</time>
      </trkpt>
      <trkpt lat="38.8317510" lon="-0.4968530">
        <ele>401.1</ele>
        <time>2020-11-14T11:58:47Z</time>
      </trkpt>
      <trkpt lat="38.8317180" lon="-0.4968480">
        <ele>401.3</ele>
        <time>2020-11-14T11:58:48Z</time>
      </trkpt>
      <trkpt lat="38.8316870" lon="-0.4968480">
        <ele>401.7</ele>
        <time>2020-11-14T11:58:49Z</time>
      </trkpt>
      <trkpt lat="38.8316570" lon="-0.4968470">
        <ele>402.0</ele>
        <time>2020-11-14T11:58:50Z</time>
      </trkpt>
      <trkpt lat="38.8316270" lon="-0.4968430">
        <ele>402.3</ele>
        <time>2020-11-14T11:58:51Z</time>
      </trkpt>
      <trkpt lat="38.8315990" lon="-0.4968400">
        <ele>402.6</ele>
        <time>2020-11-14T11:58:52Z</time>
      </trkpt>
      <trkpt lat="38.8315720" lon="-0.4968400">
        <ele>402.9</ele>
        <time>2020-11-14T11:58:53Z</time>
      </trkpt>
      <trkpt lat="38.8315440" lon="-0.4968410">
        <ele>403.2</ele>
        <time>2020-11-14T11:58:54Z</time>
      </trkpt>
      <trkpt lat="38.8315070" lon="-0.4968410">
        <ele>403.6</ele>
        <time>2020-11-14T11:58:55Z</time>
      </trkpt>
      <trkpt lat="38.8314950" lon="-0.4968410">
        <ele>403.7</ele>
        <time>2020-11-14T11:58:56Z</time>
      </trkpt>
      <trkpt lat="38.8314590" lon="-0.4968320">
        <ele>404.1</ele>
        <time>2020-11-14T11:58:57Z</time>
      </trkpt>
      <trkpt lat="38.8314470" lon="-0.4968290">
        <ele>404.2</ele>
        <time>2020-11-14T11:58:58Z</time>
      </trkpt>
      <trkpt lat="38.8314110" lon="-0.4968370">
        <ele>404.6</ele>
        <time>2020-11-14T11:58:59Z</time>
      </trkpt>
      <trkpt lat="38.8313990" lon="-0.4968420">
        <ele>404.7</ele>
        <time>2020-11-14T11:59:00Z</time>
      </trkpt>
      <trkpt lat="38.8313690" lon="-0.4968650">
        <ele>405.1</ele>
        <time>2020-11-14T11:59:01Z</time>
      </trkpt>
      <trkpt lat="38.8313590" lon="-0.4968720">
        <ele>405.2</ele>
        <time>2020-11-14T11:59:02Z</time>
      </trkpt>
      <trkpt lat="38.8313300" lon="-0.4968870">
        <ele>405.5</ele>
        <time>2020-11-14T11:59:03Z</time>
      </trkpt>
      <trkpt lat="38.8313190" lon="-0.4968900">
        <ele>405.7</ele>
        <time>2020-11-14T11:59:04Z</time>
      </trkpt>
      <trkpt lat="38.8312860" lon="-0.4968940">
        <ele>406.0</ele>
        <time>2020-11-14T11:59:05Z</time>
      </trkpt>
      <trkpt lat="38.8312760" lon="-0.4968940">
        <ele>406.1</ele>
        <time>2020-11-14T11:59:06Z</time>
      </trkpt>
      <trkpt lat="38.8312450" lon="-0.4968990">
        <ele>406.4</ele>
        <time>2020-11-14T11:59:07Z</time>
      </trkpt>
      <trkpt lat="38.8312330" lon="-0.4969010">
        <ele>406.5</ele>
        <time>2020-11-14T11:59:08Z</time>
      </trkpt>
      <trkpt lat="38.8311990" lon="-0.4969040">
        <ele>406.8</ele>
        <time>2020-11-14T11:59:09Z</time>
      </trkpt>
      <trkpt lat="38.8311870" lon="-0.4969030">
        <ele>406.9</ele>
        <time>2020-11-14T11:59:10Z</time>
      </trkpt>
      <trkpt lat="38.8311520" lon="-0.4968960">
        <ele>407.1</ele>
        <time>2020-11-14T11:59:11Z</time>
      </trkpt>
      <trkpt lat="38.8311400" lon="-0.4968930">
        <ele>407.2</ele>
        <time>2020-11-14T11:59:12Z</time>
      </trkpt>
      <trkpt lat="38.8311080" lon="-0.4968880">
        <ele>407.4</ele>
        <time>2020-11-14T11:59:13Z</time>
      </trkpt>
      <trkpt lat="38.8310970" lon="-0.4968870">
        <ele>407.4</ele>
        <time>2020-11-14T11:59:14Z</time>
      </trkpt>
      <trkpt lat="38.8310630" lon="-0.4968830">
        <ele>407.6</ele>
        <time>2020-11-14T11:59:15Z</time>
      </trkpt>
      <trkpt lat="38.8310510" lon="-0.4968810">
        <ele>407.7</ele>
        <time>2020-11-14T11:59:16Z</time>
      </trkpt>
      <trkpt lat="38.8310160" lon="-0.4968770">
        <ele>408.0</ele>
        <time>2020-11-14T11:59:17Z</time>
      </trkpt>
      <trkpt lat="38.8310040" lon="-0.4968770">
        <ele>408.0</ele>
        <time>2020-11-14T11:59:18Z</time>
      </trkpt>
      <trkpt lat="38.8309660" lon="-0.4968780">
        <ele>408.3</ele>
        <time>2020-11-14T11:59:19Z</time>
      </trkpt>
      <trkpt lat="38.8309540" lon="-0.4968780">
        <ele>408.4</ele>
        <time>2020-11-14T11:59:20Z</time>
      </trkpt>
      <trkpt lat="38.8309180" lon="-0.4968770">
        <ele>408.6</ele>
        <time>2020-11-14T11:59:21Z</time>
      </trkpt>
      <trkpt lat="38.8309060" lon="-0.4968770">
        <ele>408.7</ele>
        <time>2020-11-14T11:59:22Z</time>
      </trkpt>
      <trkpt lat="38.8308730" lon="-0.4968860">
        <ele>408.9</ele>
        <time>2020-11-14T11:59:23Z</time>
      </trkpt>
      <trkpt lat="38.8308610" lon="-0.4968900">
        <ele>409.0</ele>
        <time>2020-11-14T11:59:24Z</time>
      </trkpt>
      <trkpt lat="38.8308260" lon="-0.4969030">
        <ele>409.2</ele>
        <time>2020-11-14T11:59:25Z</time>
      </trkpt>
      <trkpt lat="38.8308140" lon="-0.4969070">
        <ele>409.2</ele>
        <time>2020-11-14T11:59:26Z</time>
      </trkpt>
      <trkpt lat="38.8307760" lon="-0.4969140">
        <ele>409.3</ele>
        <time>2020-11-14T11:59:27Z</time>
      </trkpt>
      <trkpt lat="38.8307640" lon="-0.4969140">
        <ele>409.4</ele>
        <time>2020-11-14T11:59:28Z</time>
      </trkpt>
      <trkpt lat="38.8307260" lon="-0.4969110">
        <ele>409.5</ele>
        <time>2020-11-14T11:59:29Z</time>
      </trkpt>
      <trkpt lat="38.8307130" lon="-0.4969100">
        <ele>409.5</ele>
        <time>2020-11-14T11:59:30Z</time>
      </trkpt>
      <trkpt lat="38.8306860" lon="-0.4969090">
        <ele>409.7</ele>
        <time>2020-11-14T11:59:31Z</time>
      </trkpt>
      <trkpt lat="38.8306460" lon="-0.4969110">
        <ele>409.9</ele>
        <time>2020-11-14T11:59:32Z</time>
      </trkpt>
      <trkpt lat="38.8306320" lon="-0.4969120">
        <ele>410.0</ele>
        <time>2020-11-14T11:59:33Z</time>
      </trkpt>
      <trkpt lat="38.8305920" lon="-0.4969180">
        <ele>410.3</ele>
        <time>2020-11-14T11:59:34Z</time>
      </trkpt>
      <trkpt lat="38.8305790" lon="-0.4969200">
        <ele>410.4</ele>
        <time>2020-11-14T11:59:35Z</time>
      </trkpt>
      <trkpt lat="38.8305400" lon="-0.4969250">
        <ele>410.6</ele>
        <time>2020-11-14T11:59:36Z</time>
      </trkpt>
      <trkpt lat="38.8305270" lon="-0.4969270">
        <ele>410.7</ele>
        <time>2020-11-14T11:59:37Z</time>
      </trkpt>
      <trkpt lat="38.8304890" lon="-0.4969330">
        <ele>410.9</ele>
        <time>2020-11-14T11:59:38Z</time>
      </trkpt>
      <trkpt lat="38.8304760" lon="-0.4969350">
        <ele>411.0</ele>
        <time>2020-11-14T11:59:39Z</time>
      </trkpt>
      <trkpt lat="38.8304390" lon="-0.4969400">
        <ele>411.2</ele>
        <time>2020-11-14T11:59:40Z</time>
      </trkpt>
      <trkpt lat="38.8304260" lon="-0.4969410">
        <ele>411.3</ele>
        <time>2020-11-14T11:59:41Z</time>
      </trkpt>
      <trkpt lat="38.8303910" lon="-0.4969520">
        <ele>411.6</ele>
        <time>2020-11-14T11:59:42Z</time>
      </trkpt>
      <trkpt lat="38.8303790" lon="-0.4969570">
        <ele>411.6</ele>
        <time>2020-11-14T11:59:43Z</time>
      </trkpt>
      <trkpt lat="38.8303460" lon="-0.4969760">
        <ele>411.9</ele>
        <time>2020-11-14T11:59:44Z</time>
      </trkpt>
      <trkpt lat="38.8303350" lon="-0.4969820">
        <ele>412.0</ele>
        <time>2020-11-14T11:59:45Z</time>
      </trkpt>
      <trkpt lat="38.8303050" lon="-0.4970060">
        <ele>412.2</ele>
        <time>2020-11-14T11:59:46Z</time>
      </trkpt>
      <trkpt lat="38.8302960" lon="-0.4970150">
        <ele>412.3</ele>
        <time>2020-11-14T11:59:47Z</time>
      </trkpt>
      <trkpt lat="38.8302750" lon="-0.4970540">
        <ele>412.7</ele>
        <time>2020-11-14T11:59:48Z</time>
      </trkpt>
      <trkpt lat="38.8302690" lon="-0.4970680">
        <ele>412.8</ele>
        <time>2020-11-14T11:59:49Z</time>
      </trkpt>
      <trkpt lat="38.8302620" lon="-0.4971040">
        <ele>412.9</ele>
        <time>2020-11-14T11:59:50Z</time>
      </trkpt>
      <trkpt lat="38.8302600" lon="-0.4971420">
        <ele>413.0</ele>
        <time>2020-11-14T11:59:51Z</time>
      </trkpt>
      <trkpt lat="38.8302590" lon="-0.4971800">
        <ele>413.0</ele>
        <time>2020-11-14T11:59:52Z</time>
      </trkpt>
      <trkpt lat="38.8302590" lon="-0.4972170">
        <ele>413.1</ele>
        <time>2020-11-14T11:59:53Z</time>
      </trkpt>
      <trkpt lat="38.8302600" lon="-0.4972540">
        <ele>413.2</ele>
        <time>2020-11-14T11:59:54Z</time>
      </trkpt>
      <trkpt lat="38.8302620" lon="-0.4972950">
        <ele>413.3</ele>
        <time>2020-11-14T11:59:55Z</time>
      </trkpt>
      <trkpt lat="38.8302640" lon="-0.4973390">
        <ele>413.4</ele>
        <time>2020-11-14T11:59:56Z</time>
      </trkpt>
      <trkpt lat="38.8302670" lon="-0.4973800">
        <ele>413.4</ele>
        <time>2020-11-14T11:59:57Z</time>
      </trkpt>
      <trkpt lat="38.8302700" lon="-0.4974190">
        <ele>413.5</ele>
        <time>2020-11-14T11:59:58Z</time>
      </trkpt>
      <trkpt lat="38.8302740" lon="-0.4974610">
        <ele>413.6</ele>
        <time>2020-11-14T11:59:59Z</time>
      </trkpt>
      <trkpt lat="38.8302790" lon="-0.4975040">
        <ele>413.6</ele>
        <time>2020-11-14T12:00:00Z</time>
      </trkpt>
      <trkpt lat="38.8302820" lon="-0.4975470">
        <ele>413.6</ele>
        <time>2020-11-14T12:00:01Z</time>
      </trkpt>
      <trkpt lat="38.8302830" lon="-0.4975910">
        <ele>413.7</ele>
        <time>2020-11-14T12:00:02Z</time>
      </trkpt>
      <trkpt lat="38.8302850" lon="-0.4976340">
        <ele>413.7</ele>
        <time>2020-11-14T12:00:03Z</time>
      </trkpt>
      <trkpt lat="38.8302880" lon="-0.4976780">
        <ele>413.7</ele>
        <time>2020-11-14T12:00:04Z</time>
      </trkpt>
      <trkpt lat="38.8302890" lon="-0.4977230">
        <ele>413.7</ele>
        <time>2020-11-14T12:00:05Z</time>
      </trkpt>
      <trkpt lat="38.8302910" lon="-0.4977700">
        <ele>413.7</ele>
        <time>2020-11-14T12:00:06Z</time>
      </trkpt>
      <trkpt lat="38.8302910" lon="-0.4978170">
        <ele>413.7</ele>
        <time>2020-11-14T12:00:07Z</time>
      </trkpt>
      <trkpt lat="38.8302930" lon="-0.4978670">
        <ele>413.7</ele>
        <time>2020-11-14T12:00:08Z</time>
      </trkpt>
      <trkpt lat="38.8302980" lon="-0.4979210">
        <ele>413.7</ele>
        <time>2020-11-14T12:00:09Z</time>
      </trkpt>
      <trkpt lat="38.8303040" lon="-0.4979770">
        <ele>413.6</ele>
        <time>2020-11-14T12:00:10Z</time>
      </trkpt>
      <trkpt lat="38.8303090" lon="-0.4980340">
        <ele>413.6</ele>
        <time>2020-11-14T12:00:11Z</time>
      </trkpt>
      <trkpt lat="38.8303180" lon="-0.4980930">
        <ele>413.5</ele>
        <time>2020-11-14T12:00:12Z</time>
      </trkpt>
      <trkpt lat="38.8303310" lon="-0.4981540">
        <ele>413.5</ele>
        <time>2020-11-14T12:00:13Z</time>
      </trkpt>
      <trkpt lat="38.8303330" lon="-0.4982150">
        <ele>413.5</ele>
        <time>2020-11-14T12:00:14Z</time>
      </trkpt>
      <trkpt lat="38.8303460" lon="-0.4982820">
        <ele>413.4</ele>
        <time>2020-11-14T12:00:15Z</time>
      </trkpt>
      <trkpt lat="38.8303480" lon="-0.4983490">
        <ele>413.4</ele>
        <time>2020-11-14T12:00:16Z</time>
      </trkpt>
      <trkpt lat="38.8303460" lon="-0.4984120">
        <ele>413.3</ele>
        <time>2020-11-14T12:00:17Z</time>
      </trkpt>
      <trkpt lat="38.8303530" lon="-0.4984780">
        <ele>413.2</ele>
        <time>2020-11-14T12:00:18Z</time>
      </trkpt>
      <trkpt lat="38.8303550" lon="-0.4985470">
        <ele>413.1</ele>
        <time>2020-11-14T12:00:19Z</time>
      </trkpt>
      <trkpt lat="38.8303580" lon="-0.4986090">
        <ele>413.0</ele>
        <time>2020-11-14T12:00:20Z</time>
      </trkpt>
      <trkpt lat="38.8303610" lon="-0.4986700">
        <ele>412.9</ele>
        <time>2020-11-14T12:00:21Z</time>
      </trkpt>
      <trkpt lat="38.8303620" lon="-0.4987330">
        <ele>412.7</ele>
        <time>2020-11-14T12:00:22Z</time>
      </trkpt>
      <trkpt lat="38.8303560" lon="-0.4987960">
        <ele>412.6</ele>
        <time>2020-11-14T12:00:23Z</time>
      </trkpt>
      <trkpt lat="38.8303590" lon="-0.4988560">
        <ele>412.5</ele>
        <time>2020-11-14T12:00:24Z</time>
      </trkpt>
      <trkpt lat="38.8303610" lon="-0.4989120">
        <ele>412.5</ele>
        <time>2020-11-14T12:00:25Z</time>
      </trkpt>
      <trkpt lat="38.8303600" lon="-0.4989670">
        <ele>412.4</ele>
        <time>2020-11-14T12:00:26Z</time>
      </trkpt>
      <trkpt lat="38.8303650" lon="-0.4990280">
        <ele>412.3</ele>
        <time>2020-11-14T12:00:27Z</time>
      </trkpt>
      <trkpt lat="38.8303660" lon="-0.4990850">
        <ele>412.3</ele>
        <time>2020-11-14T12:00:28Z</time>
      </trkpt>
      <trkpt lat="38.8303670" lon="-0.4991430">
        <ele>412.2</ele>
        <time>2020-11-14T12:00:29Z</time>
      </trkpt>
      <trkpt lat="38.8303720" lon="-0.4992000">
        <ele>412.2</ele>
        <time>2020-11-14T12:00:30Z</time>
      </trkpt>
      <trkpt lat="38.8303780" lon="-0.4992530">
        <ele>412.2</ele>
        <time>2020-11-14T12:00:31Z</time>
      </trkpt>
      <trkpt lat="38.8303820" lon="-0.4993020">
        <ele>412.1</ele>
        <time>2020-11-14T12:00:32Z</time>
      </trkpt>
      <trkpt lat="38.8303910" lon="-0.4993610">
        <ele>412.1</ele>
        <time>2020-11-14T12:00:33Z</time>
      </trkpt>
      <trkpt lat="38.8303980" lon="-0.4994210">
        <ele>412.1</ele>
        <time>2020-11-14T12:00:34Z</time>
      </trkpt>
      <trkpt lat="38.8304030" lon="-0.4994890">
        <ele>412.0</ele>
        <time>2020-11-14T12:00:35Z</time>
      </trkpt>
      <trkpt lat="38.8303990" lon="-0.4995640">
        <ele>411.7</ele>
        <time>2020-11-14T12:00:36Z</time>
      </trkpt>
      <trkpt lat="38.8303770" lon="-0.4996350">
        <ele>411.6</ele>
        <time>2020-11-14T12:00:37Z</time>
      </trkpt>
      <trkpt lat="38.8303460" lon="-0.4997000">
        <ele>411.7</ele>
        <time>2020-11-14T12:00:38Z</time>
      </trkpt>
      <trkpt lat="38.8303190" lon="-0.4997610">
        <ele>411.8</ele>
        <time>2020-11-14T12:00:39Z</time>
      </trkpt>
      <trkpt lat="38.8302910" lon="-0.4998230">
        <ele>411.9</ele>
        <time>2020-11-14T12:00:40Z</time>
      </trkpt>
      <trkpt lat="38.8302640" lon="-0.4998850">
        <ele>412.0</ele>
        <time>2020-11-14T12:00:41Z</time>
      </trkpt>
      <trkpt lat="38.8302460" lon="-0.4999460">
        <ele>412.1</ele>
        <time>2020-11-14T12:00:42Z</time>
      </trkpt>
      <trkpt lat="38.8302280" lon="-0.5000080">
        <ele>412.2</ele>
        <time>2020-11-14T12:00:43Z</time>
      </trkpt>
      <trkpt lat="38.8302120" lon="-0.5000660">
        <ele>412.3</ele>
        <time>2020-11-14T12:00:44Z</time>
      </trkpt>
      <trkpt lat="38.8301950" lon="-0.5001220">
        <ele>412.4</ele>
        <time>2020-11-14T12:00:45Z</time>
      </trkpt>
      <trkpt lat="38.8301770" lon="-0.5001760">
        <ele>412.5</ele>
        <time>2020-11-14T12:00:46Z</time>
      </trkpt>
      <trkpt lat="38.8301590" lon="-0.5002300">
        <ele>412.6</ele>
        <time>2020-11-14T12:00:47Z</time>
      </trkpt>
      <trkpt lat="38.8301460" lon="-0.5002940">
        <ele>412.6</ele>
        <time>2020-11-14T12:00:48Z</time>
      </trkpt>
      <trkpt lat="38.8301320" lon="-0.5003520">
        <ele>412.7</ele>
        <time>2020-11-14T12:00:49Z</time>
      </trkpt>
      <trkpt lat="38.8301220" lon="-0.5004110">
        <ele>412.8</ele>
        <time>2020-11-14T12:00:50Z</time>
      </trkpt>
      <trkpt lat="38.8301110" lon="-0.5004670">
        <ele>412.9</ele>
        <time>2020-11-14T12:00:51Z</time>
      </trkpt>
      <trkpt lat="38.8301050" lon="-0.5005290">
        <ele>413.0</ele>
        <time>2020-11-14T12:00:52Z</time>
      </trkpt>
      <trkpt lat="38.8300940" lon="-0.5005900">
        <ele>413.1</ele>
        <time>2020-11-14T12:00:53Z</time>
      </trkpt>
      <trkpt lat="38.8300850" lon="-0.5006500">
        <ele>413.3</ele>
        <time>2020-11-14T12:00:54Z</time>
      </trkpt>
      <trkpt lat="38.8300780" lon="-0.5007150">
        <ele>413.3</ele>
        <time>2020-11-14T12:00:55Z</time>
      </trkpt>
      <trkpt lat="38.8300660" lon="-0.5007810">
        <ele>413.4</ele>
        <time>2020-11-14T12:00:56Z</time>
      </trkpt>
      <trkpt lat="38.8300610" lon="-0.5008450">
        <ele>413.5</ele>
        <time>2020-11-14T12:00:57Z</time>
      </trkpt>
      <trkpt lat="38.8300570" lon="-0.5009140">
        <ele>413.6</ele>
        <time>2020-11-14T12:00:58Z</time>
      </trkpt>
      <trkpt lat="38.8300520" lon="-0.5009810">
        <ele>413.7</ele>
        <time>2020-11-14T12:00:59Z</time>
      </trkpt>
      <trkpt lat="38.8300430" lon="-0.5010430">
        <ele>413.8</ele>
        <time>2020-11-14T12:01:00Z</time>
      </trkpt>
      <trkpt lat="38.8300400" lon="-0.5011060">
        <ele>413.8</ele>
        <time>2020-11-14T12:01:01Z</time>
      </trkpt>
      <trkpt lat="38.8300430" lon="-0.5011690">
        <ele>413.9</ele>
        <time>2020-11-14T12:01:02Z</time>
      </trkpt>
      <trkpt lat="38.8300370" lon="-0.5012310">
        <ele>413.9</ele>
        <time>2020-11-14T12:01:03Z</time>
      </trkpt>
      <trkpt lat="38.8300230" lon="-0.5012910">
        <ele>413.9</ele>
        <time>2020-11-14T12:01:04Z</time>
      </trkpt>
      <trkpt lat="38.8300180" lon="-0.5013570">
        <ele>413.9</ele>
        <time>2020-11-14T12:01:05Z</time>
      </trkpt>
      <trkpt lat="38.8300010" lon="-0.5014220">
        <ele>413.8</ele>
        <time>2020-11-14T12:01:06Z</time>
      </trkpt>
      <trkpt lat="38.8299930" lon="-0.5014870">
        <ele>413.8</ele>
        <time>2020-11-14T12:01:07Z</time>
      </trkpt>
      <trkpt lat="38.8299840" lon="-0.5015540">
        <ele>413.7</ele>
        <time>2020-11-14T12:01:08Z</time>
      </trkpt>
      <trkpt lat="38.8299750" lon="-0.5016160">
        <ele>413.6</ele>
        <time>2020-11-14T12:01:09Z</time>
      </trkpt>
      <trkpt lat="38.8299730" lon="-0.5016830">
        <ele>413.4</ele>
        <time>2020-11-14T12:01:10Z</time>
      </trkpt>
      <trkpt lat="38.8299720" lon="-0.5017590">
        <ele>413.2</ele>
        <time>2020-11-14T12:01:11Z</time>
      </trkpt>
      <trkpt lat="38.8299580" lon="-0.5018300">
        <ele>413.0</ele>
        <time>2020-11-14T12:01:12Z</time>
      </trkpt>
      <trkpt lat="38.8299640" lon="-0.5018910">
        <ele>412.8</ele>
        <time>2020-11-14T12:01:13Z</time>
      </trkpt>
      <trkpt lat="38.8299580" lon="-0.5019650">
        <ele>412.6</ele>
        <time>2020-11-14T12:01:14Z</time>
      </trkpt>
      <trkpt lat="38.8299550" lon="-0.5020430">
        <ele>412.3</ele>
        <time>2020-11-14T12:01:15Z</time>
      </trkpt>
      <trkpt lat="38.8299530" lon="-0.5021210">
        <ele>412.1</ele>
        <time>2020-11-14T12:01:16Z</time>
      </trkpt>
      <trkpt lat="38.8299610" lon="-0.5021910">
        <ele>412.0</ele>
        <time>2020-11-14T12:01:17Z</time>
      </trkpt>
      <trkpt lat="38.8299660" lon="-0.5022750">
        <ele>411.8</ele>
        <time>2020-11-14T12:01:18Z</time>
      </trkpt>
      <trkpt lat="38.8299610" lon="-0.5023570">
        <ele>411.6</ele>
        <time>2020-11-14T12:01:19Z</time>
      </trkpt>
      <trkpt lat="38.8299730" lon="-0.5024510">
        <ele>411.4</ele>
        <time>2020-11-14T12:01:20Z</time>
      </trkpt>
      <trkpt lat="38.8299800" lon="-0.5025430">
        <ele>411.2</ele>
        <time>2020-11-14T12:01:21Z</time>
      </trkpt>
      <trkpt lat="38.8299940" lon="-0.5026440">
        <ele>411.0</ele>
        <time>2020-11-14T12:01:22Z</time>
      </trkpt>
      <trkpt lat="38.8300100" lon="-0.5027410">
        <ele>410.9</ele>
        <time>2020-11-14T12:01:23Z</time>
      </trkpt>
      <trkpt lat="38.8300470" lon="-0.5028320">
        <ele>410.8</ele>
        <time>2020-11-14T12:01:24Z</time>
      </trkpt>
      <trkpt lat="38.8300960" lon="-0.5029210">
        <ele>410.6</ele>
        <time>2020-11-14T12:01:25Z</time>
      </trkpt>
      <trkpt lat="38.8301510" lon="-0.5030190">
        <ele>410.0</ele>
        <time>2020-11-14T12:01:26Z</time>
      </trkpt>
      <trkpt lat="38.8301850" lon="-0.5031060">
        <ele>409.5</ele>
        <time>2020-11-14T12:01:27Z</time>
      </trkpt>
      <trkpt lat="38.8302000" lon="-0.5031950">
        <ele>409.1</ele>
        <time>2020-11-14T12:01:28Z</time>
      </trkpt>
      <trkpt lat="38.8302020" lon="-0.5032950">
        <ele>408.9</ele>
        <time>2020-11-14T12:01:29Z</time>
      </trkpt>
      <trkpt lat="38.8301900" lon="-0.5033890">
        <ele>408.6</ele>
        <time>2020-11-14T12:01:30Z</time>
      </trkpt>
      <trkpt lat="38.8301830" lon="-0.5034890">
        <ele>408.3</ele>
        <time>2020-11-14T12:01:31Z</time>
      </trkpt>
      <trkpt lat="38.8301720" lon="-0.5035860">
        <ele>408.0</ele>
        <time>2020-11-14T12:01:32Z</time>
      </trkpt>
      <trkpt lat="38.8301630" lon="-0.5036860">
        <ele>407.7</ele>
        <time>2020-11-14T12:01:33Z</time>
      </trkpt>
      <trkpt lat="38.8301510" lon="-0.5037900">
        <ele>407.4</ele>
        <time>2020-11-14T12:01:34Z</time>
      </trkpt>
      <trkpt lat="38.8301380" lon="-0.5038980">
        <ele>407.0</ele>
        <time>2020-11-14T12:01:35Z</time>
      </trkpt>
      <trkpt lat="38.8301240" lon="-0.5040170">
        <ele>406.6</ele>
        <time>2020-11-14T12:01:36Z</time>
      </trkpt>
      <trkpt lat="38.8301120" lon="-0.5041360">
        <ele>406.0</ele>
        <time>2020-11-14T12:01:37Z</time>
      </trkpt>
      <trkpt lat="38.8300870" lon="-0.5042610">
        <ele>405.4</ele>
        <time>2020-11-14T12:01:38Z</time>
      </trkpt>
      <trkpt lat="38.8300700" lon="-0.5043860">
        <ele>404.7</ele>
        <time>2020-11-14T12:01:39Z</time>
      </trkpt>
      <trkpt lat="38.8300440" lon="-0.5045170">
        <ele>404.0</ele>
        <time>2020-11-14T12:01:40Z</time>
      </trkpt>
      <trkpt lat="38.8300230" lon="-0.5046460">
        <ele>403.3</ele>
        <time>2020-11-14T12:01:41Z</time>
      </trkpt>
      <trkpt lat="38.8299990" lon="-0.5047730">
        <ele>402.6</ele>
        <time>2020-11-14T12:01:42Z</time>
      </trkpt>
      <trkpt lat="38.8299730" lon="-0.5049010">
        <ele>401.8</ele>
        <time>2020-11-14T12:01:43Z</time>
      </trkpt>
      <trkpt lat="38.8299500" lon="-0.5050380">
        <ele>401.0</ele>
        <time>2020-11-14T12:01:44Z</time>
      </trkpt>
      <trkpt lat="38.8299280" lon="-0.5051750">
        <ele>400.2</ele>
        <time>2020-11-14T12:01:45Z</time>
      </trkpt>
      <trkpt lat="38.8299030" lon="-0.5053170">
        <ele>399.4</ele>
        <time>2020-11-14T12:01:46Z</time>
      </trkpt>
      <trkpt lat="38.8298800" lon="-0.5054680">
        <ele>398.6</ele>
        <time>2020-11-14T12:01:47Z</time>
      </trkpt>
      <trkpt lat="38.8298520" lon="-0.5056030">
        <ele>397.9</ele>
        <time>2020-11-14T12:01:48Z</time>
      </trkpt>
      <trkpt lat="38.8298270" lon="-0.5057450">
        <ele>397.3</ele>
        <time>2020-11-14T12:01:49Z</time>
      </trkpt>
      <trkpt lat="38.8297590" lon="-0.5058720">
        <ele>396.9</ele>
        <time>2020-11-14T12:01:50Z</time>
      </trkpt>
      <trkpt lat="38.8297090" lon="-0.5060140">
        <ele>396.4</ele>
        <time>2020-11-14T12:01:51Z</time>
      </trkpt>
      <trkpt lat="38.8296620" lon="-0.5061490">
        <ele>396.0</ele>
        <time>2020-11-14T12:01:52Z</time>
      </trkpt>
      <trkpt lat="38.8296160" lon="-0.5062890">
        <ele>395.7</ele>
        <time>2020-11-14T12:01:53Z</time>
      </trkpt>
      <trkpt lat="38.8295690" lon="-0.5064230">
        <ele>395.3</ele>
        <time>2020-11-14T12:01:54Z</time>
      </trkpt>
      <trkpt lat="38.8295250" lon="-0.5065430">
        <ele>395.0</ele>
        <time>2020-11-14T12:01:55Z</time>
      </trkpt>
      <trkpt lat="38.8294790" lon="-0.5066620">
        <ele>394.7</ele>
        <time>2020-11-14T12:01:56Z</time>
      </trkpt>
      <trkpt lat="38.8294630" lon="-0.5067770">
        <ele>394.4</ele>
        <time>2020-11-14T12:01:57Z</time>
      </trkpt>
      <trkpt lat="38.8294570" lon="-0.5068920">
        <ele>394.2</ele>
        <time>2020-11-14T12:01:58Z</time>
      </trkpt>
      <trkpt lat="38.8294090" lon="-0.5069890">
        <ele>394.0</ele>
        <time>2020-11-14T12:01:59Z</time>
      </trkpt>
      <trkpt lat="38.8293710" lon="-0.5070800">
        <ele>393.8</ele>
        <time>2020-11-14T12:02:00Z</time>
      </trkpt>
      <trkpt lat="38.8293330" lon="-0.5071630">
        <ele>393.6</ele>
        <time>2020-11-14T12:02:01Z</time>
      </trkpt>
      <trkpt lat="38.8292950" lon="-0.5072390">
        <ele>393.4</ele>
        <time>2020-11-14T12:02:02Z</time>
      </trkpt>
      <trkpt lat="38.8292410" lon="-0.5073150">
        <ele>393.2</ele>
        <time>2020-11-14T12:02:03Z</time>
      </trkpt>
      <trkpt lat="38.8291890" lon="-0.5073790">
        <ele>393.0</ele>
        <time>2020-11-14T12:02:04Z</time>
      </trkpt>
      <trkpt lat="38.8291300" lon="-0.5074450">
        <ele>392.8</ele>
        <time>2020-11-14T12:02:05Z</time>
      </trkpt>
      <trkpt lat="38.8290680" lon="-0.5075140">
        <ele>392.6</ele>
        <time>2020-11-14T12:02:06Z</time>
      </trkpt>
      <trkpt lat="38.8289990" lon="-0.5075820">
        <ele>392.3</ele>
        <time>2020-11-14T12:02:07Z</time>
      </trkpt>
      <trkpt lat="38.8289390" lon="-0.5076560">
        <ele>392.1</ele>
        <time>2020-11-14T12:02:08Z</time>
      </trkpt>
      <trkpt lat="38.8288760" lon="-0.5077300">
        <ele>391.9</ele>
        <time>2020-11-14T12:02:09Z</time>
      </trkpt>
      <trkpt lat="38.8288230" lon="-0.5078120">
        <ele>391.6</ele>
        <time>2020-11-14T12:02:10Z</time>
      </trkpt>
      <trkpt lat="38.8287670" lon="-0.5078930">
        <ele>391.4</ele>
        <time>2020-11-14T12:02:11Z</time>
      </trkpt>
      <trkpt lat="38.8287160" lon="-0.5079830">
        <ele>391.2</ele>
        <time>2020-11-14T12:02:12Z</time>
      </trkpt>
      <trkpt lat="38.8286620" lon="-0.5080640">
        <ele>391.0</ele>
        <time>2020-11-14T12:02:13Z</time>
      </trkpt>
      <trkpt lat="38.8286080" lon="-0.5081510">
        <ele>390.8</ele>
        <time>2020-11-14T12:02:14Z</time>
      </trkpt>
      <trkpt lat="38.8285590" lon="-0.5082380">
        <ele>390.6</ele>
        <time>2020-11-14T12:02:15Z</time>
      </trkpt>
      <trkpt lat="38.8285030" lon="-0.5083290">
        <ele>390.3</ele>
        <time>2020-11-14T12:02:16Z</time>
      </trkpt>
      <trkpt lat="38.8284450" lon="-0.5084110">
        <ele>390.1</ele>
        <time>2020-11-14T12:02:17Z</time>
      </trkpt>
      <trkpt lat="38.8283810" lon="-0.5085000">
        <ele>390.0</ele>
        <time>2020-11-14T12:02:18Z</time>
      </trkpt>
      <trkpt lat="38.8283100" lon="-0.5085810">
        <ele>389.9</ele>
        <time>2020-11-14T12:02:19Z</time>
      </trkpt>
      <trkpt lat="38.8282410" lon="-0.5086590">
        <ele>389.8</ele>
        <time>2020-11-14T12:02:20Z</time>
      </trkpt>
      <trkpt lat="38.8281490" lon="-0.5087280">
        <ele>389.7</ele>
        <time>2020-11-14T12:02:21Z</time>
      </trkpt>
      <trkpt lat="38.8280740" lon="-0.5087910">
        <ele>389.7</ele>
        <time>2020-11-14T12:02:22Z</time>
      </trkpt>
      <trkpt lat="38.8280040" lon="-0.5088600">
        <ele>389.6</ele>
        <time>2020-11-14T12:02:23Z</time>
      </trkpt>
      <trkpt lat="38.8279440" lon="-0.5089220">
        <ele>389.6</ele>
        <time>2020-11-14T12:02:24Z</time>
      </trkpt>
      <trkpt lat="38.8278720" lon="-0.5089770">
        <ele>389.6</ele>
        <time>2020-11-14T12:02:25Z</time>
      </trkpt>
      <trkpt lat="38.8277890" lon="-0.5090280">
        <ele>389.6</ele>
        <time>2020-11-14T12:02:26Z</time>
      </trkpt>
      <trkpt lat="38.8277060" lon="-0.5090780">
        <ele>389.6</ele>
        <time>2020-11-14T12:02:27Z</time>
      </trkpt>
      <trkpt lat="38.8276330" lon="-0.5091070">
        <ele>389.6</ele>
        <time>2020-11-14T12:02:28Z</time>
      </trkpt>
      <trkpt lat="38.8275610" lon="-0.5091440">
        <ele>389.7</ele>
        <time>2020-11-14T12:02:29Z</time>
      </trkpt>
      <trkpt lat="38.8274990" lon="-0.5091730">
        <ele>389.7</ele>
        <time>2020-11-14T12:02:30Z</time>
      </trkpt>
      <trkpt lat="38.8274370" lon="-0.5092140">
        <ele>389.8</ele>
        <time>2020-11-14T12:02:31Z</time>
      </trkpt>
      <trkpt lat="38.8273880" lon="-0.5092630">
        <ele>389.8</ele>
        <time>2020-11-14T12:02:32Z</time>
      </trkpt>
      <trkpt lat="38.8273430" lon="-0.5093280">
        <ele>389.7</ele>
        <time>2020-11-14T12:02:33Z</time>
      </trkpt>
      <trkpt lat="38.8273140" lon="-0.5093980">
        <ele>389.6</ele>
        <time>2020-11-14T12:02:34Z</time>
      </trkpt>
      <trkpt lat="38.8272840" lon="-0.5094710">
        <ele>389.5</ele>
        <time>2020-11-14T12:02:35Z</time>
      </trkpt>
      <trkpt lat="38.8273090" lon="-0.5095550">
        <ele>389.3</ele>
        <time>2020-11-14T12:02:36Z</time>
      </trkpt>
      <trkpt lat="38.8273840" lon="-0.5095870">
        <ele>389.1</ele>
        <time>2020-11-14T12:02:37Z</time>
      </trkpt>
      <trkpt lat="38.8274340" lon="-0.5096320">
        <ele>389.0</ele>
        <time>2020-11-14T12:02:38Z</time>
      </trkpt>
      <trkpt lat="38.8274890" lon="-0.5096890">
        <ele>389.0</ele>
        <time>2020-11-14T12:02:39Z</time>
      </trkpt>
      <trkpt lat="38.8275180" lon="-0.5097460">
        <ele>389.0</ele>
        <time>2020-11-14T12:02:40Z</time>
      </trkpt>
      <trkpt lat="38.8275540" lon="-0.5098210">
        <ele>389.0</ele>
        <time>2020-11-14T12:02:41Z</time>
      </trkpt>
      <trkpt lat="38.8275860" lon="-0.5098970">
        <ele>389.0</ele>
        <time>2020-11-14T12:02:42Z</time>
      </trkpt>
      <trkpt lat="38.8276100" lon="-0.5099810">
        <ele>389.0</ele>
        <time>2020-11-14T12:02:43Z</time>
      </trkpt>
      <trkpt lat="38.8276170" lon="-0.5100640">
        <ele>389.1</ele>
        <time>2020-11-14T12:02:44Z</time>
      </trkpt>
      <trkpt lat="38.8276250" lon="-0.5101590">
        <ele>389.1</ele>
        <time>2020-11-14T12:02:45Z</time>
      </trkpt>
      <trkpt lat="38.8276310" lon="-0.5102600">
        <ele>389.2</ele>
        <time>2020-11-14T12:02:46Z</time>
      </trkpt>
      <trkpt lat="38.8276290" lon="-0.5103500">
        <ele>389.3</ele>
        <time>2020-11-14T12:02:47Z</time>
      </trkpt>
      <trkpt lat="38.8276190" lon="-0.5104330">
        <ele>389.4</ele>
        <time>2020-11-14T12:02:48Z</time>
      </trkpt>
      <trkpt lat="38.8276010" lon="-0.5105080">
        <ele>389.4</ele>
        <time>2020-11-14T12:02:49Z</time>
      </trkpt>
      <trkpt lat="38.8275950" lon="-0.5105900">
        <ele>389.4</ele>
        <time>2020-11-14T12:02:50Z</time>
      </trkpt>
      <trkpt lat="38.8275950" lon="-0.5106770">
        <ele>389.5</ele>
        <time>2020-11-14T12:02:51Z</time>
      </trkpt>
      <trkpt lat="38.8276280" lon="-0.5107490">
        <ele>389.5</ele>
        <time>2020-11-14T12:02:52Z</time>
      </trkpt>
      <trkpt lat="38.8276760" lon="-0.5108130">
        <ele>389.5</ele>
        <time>2020-11-14T12:02:53Z</time>
      </trkpt>
      <trkpt lat="38.8277270" lon="-0.5108810">
        <ele>389.5</ele>
        <time>2020-11-14T12:02:54Z</time>
      </trkpt>
      <trkpt lat="38.8277830" lon="-0.5109320">
        <ele>389.5</ele>
        <time>2020-11-14T12:02:55Z</time>
      </trkpt>
      <trkpt lat="38.8278480" lon="-0.5109830">
        <ele>389.4</ele>
        <time>2020-11-14T12:02:56Z</time>
      </trkpt>
      <trkpt lat="38.8279210" lon="-0.5110480">
        <ele>389.2</ele>
        <time>2020-11-14T12:02:57Z</time>
      </trkpt>
      <trkpt lat="38.8279910" lon="-0.5110980">
        <ele>388.8</ele>
        <time>2020-11-14T12:02:58Z</time>
      </trkpt>
      <trkpt lat="38.8280720" lon="-0.5111670">
        <ele>388.5</ele>
        <time>2020-11-14T12:02:59Z</time>
      </trkpt>
      <trkpt lat="38.8281260" lon="-0.5112290">
        <ele>388.2</ele>
        <time>2020-11-14T12:03:00Z</time>
      </trkpt>
      <trkpt lat="38.8281990" lon="-0.5112950">
        <ele>387.8</ele>
        <time>2020-11-14T12:03:01Z</time>
      </trkpt>
      <trkpt lat="38.8282680" lon="-0.5113600">
        <ele>387.4</ele>
        <time>2020-11-14T12:03:02Z</time>
      </trkpt>
      <trkpt lat="38.8283330" lon="-0.5114140">
        <ele>387.1</ele>
        <time>2020-11-14T12:03:03Z</time>
      </trkpt>
      <trkpt lat="38.8283920" lon="-0.5114640">
        <ele>386.7</ele>
        <time>2020-11-14T12:03:04Z</time>
      </trkpt>
      <trkpt lat="38.8284820" lon="-0.5114970">
        <ele>386.1</ele>
        <time>2020-11-14T12:03:05Z</time>
      </trkpt>
      <trkpt lat="38.8285700" lon="-0.5115180">
        <ele>385.5</ele>
        <time>2020-11-14T12:03:06Z</time>
      </trkpt>
      <trkpt lat="38.8286590" lon="-0.5115300">
        <ele>384.9</ele>
        <time>2020-11-14T12:03:07Z</time>
      </trkpt>
      <trkpt lat="38.8287530" lon="-0.5115540">
        <ele>384.3</ele>
        <time>2020-11-14T12:03:08Z</time>
      </trkpt>
      <trkpt lat="38.8288480" lon="-0.5115520">
        <ele>383.6</ele>
        <time>2020-11-14T12:03:09Z</time>
      </trkpt>
      <trkpt lat="38.8289470" lon="-0.5115660">
        <ele>382.8</ele>
        <time>2020-11-14T12:03:10Z</time>
      </trkpt>
      <trkpt lat="38.8290440" lon="-0.5115840">
        <ele>382.1</ele>
        <time>2020-11-14T12:03:11Z</time>
      </trkpt>
      <trkpt lat="38.8291580" lon="-0.5116260">
        <ele>381.2</ele>
        <time>2020-11-14T12:03:12Z</time>
      </trkpt>
      <trkpt lat="38.8292570" lon="-0.5116600">
        <ele>380.4</ele>
        <time>2020-11-14T12:03:13Z</time>
      </trkpt>
      <trkpt lat="38.8293700" lon="-0.5117350">
        <ele>379.5</ele>
        <time>2020-11-14T12:03:14Z</time>
      </trkpt>
      <trkpt lat="38.8294580" lon="-0.5117760">
        <ele>378.8</ele>
        <time>2020-11-14T12:03:15Z</time>
      </trkpt>
      <trkpt lat="38.8295700" lon="-0.5118500">
        <ele>377.9</ele>
        <time>2020-11-14T12:03:16Z</time>
      </trkpt>
      <trkpt lat="38.8296610" lon="-0.5119050">
        <ele>377.3</ele>
        <time>2020-11-14T12:03:17Z</time>
      </trkpt>
      <trkpt lat="38.8297570" lon="-0.5119680">
        <ele>376.7</ele>
        <time>2020-11-14T12:03:18Z</time>
      </trkpt>
      <trkpt lat="38.8298570" lon="-0.5120420">
        <ele>376.1</ele>
        <time>2020-11-14T12:03:19Z</time>
      </trkpt>
      <trkpt lat="38.8299540" lon="-0.5121130">
        <ele>375.7</ele>
        <time>2020-11-14T12:03:20Z</time>
      </trkpt>
      <trkpt lat="38.8300450" lon="-0.5121750">
        <ele>375.4</ele>
        <time>2020-11-14T12:03:21Z</time>
      </trkpt>
      <trkpt lat="38.8301440" lon="-0.5122440">
        <ele>375.0</ele>
        <time>2020-11-14T12:03:22Z</time>
      </trkpt>
      <trkpt lat="38.8302550" lon="-0.5123130">
        <ele>374.5</ele>
        <time>2020-11-14T12:03:23Z</time>
      </trkpt>
      <trkpt lat="38.8303540" lon="-0.5123400">
        <ele>373.9</ele>
        <time>2020-11-14T12:03:24Z</time>
      </trkpt>
      <trkpt lat="38.8304520" lon="-0.5123520">
        <ele>373.4</ele>
        <time>2020-11-14T12:03:25Z</time>
      </trkpt>
      <trkpt lat="38.8305380" lon="-0.5123570">
        <ele>372.9</ele>
        <time>2020-11-14T12:03:26Z</time>
      </trkpt>
      <trkpt lat="38.8306160" lon="-0.5123170">
        <ele>372.5</ele>
        <time>2020-11-14T12:03:27Z</time>
      </trkpt>
      <trkpt lat="38.8306940" lon="-0.5122710">
        <ele>372.7</ele>
        <time>2020-11-14T12:03:28Z</time>
      </trkpt>
      <trkpt lat="38.8307720" lon="-0.5122560">
        <ele>372.5</ele>
        <time>2020-11-14T12:03:29Z</time>
      </trkpt>
      <trkpt lat="38.8308500" lon="-0.5122390">
        <ele>372.2</ele>
        <time>2020-11-14T12:03:30Z</time>
      </trkpt>
      <trkpt lat="38.8309170" lon="-0.5122380">
        <ele>372.0</ele>
        <time>2020-11-14T12:03:31Z</time>
      </trkpt>
      <trkpt lat="38.8309920" lon="-0.5123220">
        <ele>371.7</ele>
        <time>2020-11-14T12:03:32Z</time>
      </trkpt>
      <trkpt lat="38.8310380" lon="-0.5123970">
        <ele>371.5</ele>
        <time>2020-11-14T12:03:33Z</time>
      </trkpt>
      <trkpt lat="38.8310800" lon="-0.5124780">
        <ele>371.4</ele>
        <time>2020-11-14T12:03:34Z</time>
      </trkpt>
      <trkpt lat="38.8311270" lon="-0.5125660">
        <ele>371.3</ele>
        <time>2020-11-14T12:03:35Z</time>
      </trkpt>
      <trkpt lat="38.8311820" lon="-0.5126500">
        <ele>371.2</ele>
        <time>2020-11-14T12:03:36Z</time>
      </trkpt>
      <trkpt lat="38.8312350" lon="-0.5127340">
        <ele>371.1</ele>
        <time>2020-11-14T12:03:37Z</time>
      </trkpt>
      <trkpt lat="38.8312980" lon="-0.5127980">
        <ele>371.1</ele>
        <time>2020-11-14T12:03:38Z</time>
      </trkpt>
      <trkpt lat="38.8313620" lon="-0.5128770">
        <ele>370.6</ele>
        <time>2020-11-14T12:03:39Z</time>
      </trkpt>
      <trkpt lat="38.8314360" lon="-0.5129510">
        <ele>370.0</ele>
        <time>2020-11-14T12:03:40Z</time>
      </trkpt>
      <trkpt lat="38.8315240" lon="-0.5129900">
        <ele>369.4</ele>
        <time>2020-11-14T12:03:41Z</time>
      </trkpt>
      <trkpt lat="38.8316180" lon="-0.5130240">
        <ele>368.8</ele>
        <time>2020-11-14T12:03:42Z</time>
      </trkpt>
      <trkpt lat="38.8317220" lon="-0.5130410">
        <ele>368.4</ele>
        <time>2020-11-14T12:03:43Z</time>
      </trkpt>
      <trkpt lat="38.8318290" lon="-0.5130430">
        <ele>368.1</ele>
        <time>2020-11-14T12:03:44Z</time>
      </trkpt>
      <trkpt lat="38.8319350" lon="-0.5130420">
        <ele>367.6</ele>
        <time>2020-11-14T12:03:45Z</time>
      </trkpt>
      <trkpt lat="38.8320450" lon="-0.5130330">
        <ele>367.0</ele>
        <time>2020-11-14T12:03:46Z</time>
      </trkpt>
      <trkpt lat="38.8321530" lon="-0.5130280">
        <ele>366.4</ele>
        <time>2020-11-14T12:03:47Z</time>
      </trkpt>
      <trkpt lat="38.8322650" lon="-0.5130050">
        <ele>365.8</ele>
        <time>2020-11-14T12:03:48Z</time>
      </trkpt>
      <trkpt lat="38.8323750" lon="-0.5129680">
        <ele>365.7</ele>
        <time>2020-11-14T12:03:49Z</time>
      </trkpt>
      <trkpt lat="38.8324780" lon="-0.5129000">
        <ele>365.3</ele>
        <time>2020-11-14T12:03:50Z</time>
      </trkpt>
      <trkpt lat="38.8325680" lon="-0.5128190">
        <ele>364.9</ele>
        <time>2020-11-14T12:03:51Z</time>
      </trkpt>
      <trkpt lat="38.8326520" lon="-0.5127360">
        <ele>364.6</ele>
        <time>2020-11-14T12:03:52Z</time>
      </trkpt>
      <trkpt lat="38.8327360" lon="-0.5126480">
        <ele>364.3</ele>
        <time>2020-11-14T12:03:53Z</time>
      </trkpt>
      <trkpt lat="38.8328220" lon="-0.5125600">
        <ele>364.0</ele>
        <time>2020-11-14T12:03:54Z</time>
      </trkpt>
      <trkpt lat="38.8329060" lon="-0.5124740">
        <ele>363.8</ele>
        <time>2020-11-14T12:03:55Z</time>
      </trkpt>
      <trkpt lat="38.8329810" lon="-0.5124010">
        <ele>363.6</ele>
        <time>2020-11-14T12:03:56Z</time>
      </trkpt>
      <trkpt lat="38.8330620" lon="-0.5123190">
        <ele>363.4</ele>
        <time>2020-11-14T12:03:57Z</time>
      </trkpt>
      <trkpt lat="38.8331490" lon="-0.5122460">
        <ele>363.1</ele>
        <time>2020-11-14T12:03:58Z</time>
      </trkpt>
      <trkpt lat="38.8332250" lon="-0.5121620">
        <ele>363.0</ele>
        <time>2020-11-14T12:03:59Z</time>
      </trkpt>
      <trkpt lat="38.8333050" lon="-0.5120790">
        <ele>362.8</ele>
        <time>2020-11-14T12:04:00Z</time>
      </trkpt>
      <trkpt lat="38.8333760" lon="-0.5120110">
        <ele>362.6</ele>
        <time>2020-11-14T12:04:01Z</time>
      </trkpt>
      <trkpt lat="38.8334570" lon="-0.5119350">
        <ele>362.4</ele>
        <time>2020-11-14T12:04:02Z</time>
      </trkpt>
      <trkpt lat="38.8335340" lon="-0.5118590">
        <ele>362.2</ele>
        <time>2020-11-14T12:04:03Z</time>
      </trkpt>
      <trkpt lat="38.8336150" lon="-0.5117960">
        <ele>361.9</ele>
        <time>2020-11-14T12:04:04Z</time>
      </trkpt>
      <trkpt lat="38.8336980" lon="-0.5117530">
        <ele>361.7</ele>
        <time>2020-11-14T12:04:05Z</time>
      </trkpt>
      <trkpt lat="38.8337870" lon="-0.5117210">
        <ele>361.4</ele>
        <time>2020-11-14T12:04:06Z</time>
      </trkpt>
      <trkpt lat="38.8338750" lon="-0.5116870">
        <ele>361.0</ele>
        <time>2020-11-14T12:04:07Z</time>
      </trkpt>
      <trkpt lat="38.8339680" lon="-0.5116590">
        <ele>360.7</ele>
        <time>2020-11-14T12:04:08Z</time>
      </trkpt>
      <trkpt lat="38.8340630" lon="-0.5116420">
        <ele>360.2</ele>
        <time>2020-11-14T12:04:09Z</time>
      </trkpt>
      <trkpt lat="38.8341660" lon="-0.5116540">
        <ele>359.7</ele>
        <time>2020-11-14T12:04:10Z</time>
      </trkpt>
      <trkpt lat="38.8342680" lon="-0.5116490">
        <ele>359.2</ele>
        <time>2020-11-14T12:04:11Z</time>
      </trkpt>
      <trkpt lat="38.8343710" lon="-0.5116400">
        <ele>358.6</ele>
        <time>2020-11-14T12:04:12Z</time>
      </trkpt>
      <trkpt lat="38.8344730" lon="-0.5116310">
        <ele>358.0</ele>
        <time>2020-11-14T12:04:13Z</time>
      </trkpt>
      <trkpt lat="38.8345760" lon="-0.5116110">
        <ele>357.3</ele>
        <time>2020-11-14T12:04:14Z</time>
      </trkpt>
      <trkpt lat="38.8346850" lon="-0.5115760">
        <ele>356.6</ele>
        <time>2020-11-14T12:04:15Z</time>
      </trkpt>
      <trkpt lat="38.8347990" lon="-0.5115480">
        <ele>355.9</ele>
        <time>2020-11-14T12:04:16Z</time>
      </trkpt>
      <trkpt lat="38.8349180" lon="-0.5115350">
        <ele>355.2</ele>
        <time>2020-11-14T12:04:17Z</time>
      </trkpt>
      <trkpt lat="38.8350400" lon="-0.5115440">
        <ele>354.4</ele>
        <time>2020-11-14T12:04:18Z</time>
      </trkpt>
      <trkpt lat="38.8351470" lon="-0.5115460">
        <ele>353.8</ele>
        <time>2020-11-14T12:04:19Z</time>
      </trkpt>
      <trkpt lat="38.8352480" lon="-0.5115950">
        <ele>353.2</ele>
        <time>2020-11-14T12:04:20Z</time>
      </trkpt>
      <trkpt lat="38.8353370" lon="-0.5116750">
        <ele>352.7</ele>
        <time>2020-11-14T12:04:21Z</time>
      </trkpt>
      <trkpt lat="38.8354150" lon="-0.5117880">
        <ele>352.1</ele>
        <time>2020-11-14T12:04:22Z</time>
      </trkpt>
      <trkpt lat="38.8354610" lon="-0.5119170">
        <ele>351.5</ele>
        <time>2020-11-14T12:04:23Z</time>
      </trkpt>
      <trkpt lat="38.8354920" lon="-0.5120420">
        <ele>351.1</ele>
        <time>2020-11-14T12:04:24Z</time>
      </trkpt>
      <trkpt lat="38.8355110" lon="-0.5121780">
        <ele>350.6</ele>
        <time>2020-11-14T12:04:25Z</time>
      </trkpt>
      <trkpt lat="38.8355320" lon="-0.5123190">
        <ele>350.2</ele>
        <time>2020-11-14T12:04:26Z</time>
      </trkpt>
      <trkpt lat="38.8355610" lon="-0.5124780">
        <ele>349.7</ele>
        <time>2020-11-14T12:04:27Z</time>
      </trkpt>
      <trkpt lat="38.8355830" lon="-0.5126140">
        <ele>349.3</ele>
        <time>2020-11-14T12:04:28Z</time>
      </trkpt>
      <trkpt lat="38.8356020" lon="-0.5127490">
        <ele>348.9</ele>
        <time>2020-11-14T12:04:29Z</time>
      </trkpt>
      <trkpt lat="38.8356240" lon="-0.5128900">
        <ele>348.5</ele>
        <time>2020-11-14T12:04:30Z</time>
      </trkpt>
      <trkpt lat="38.8356420" lon="-0.5130280">
        <ele>348.1</ele>
        <time>2020-11-14T12:04:31Z</time>
      </trkpt>
      <trkpt lat="38.8356590" lon="-0.5131630">
        <ele>347.7</ele>
        <time>2020-11-14T12:04:32Z</time>
      </trkpt>
      <trkpt lat="38.8356770" lon="-0.5132850">
        <ele>347.4</ele>
        <time>2020-11-14T12:04:33Z</time>
      </trkpt>
      <trkpt lat="38.8356810" lon="-0.5134180">
        <ele>347.2</ele>
        <time>2020-11-14T12:04:34Z</time>
      </trkpt>
      <trkpt lat="38.8357010" lon="-0.5135610">
        <ele>346.9</ele>
        <time>2020-11-14T12:04:35Z</time>
      </trkpt>
      <trkpt lat="38.8357210" lon="-0.5137060">
        <ele>346.2</ele>
        <time>2020-11-14T12:04:36Z</time>
      </trkpt>
      <trkpt lat="38.8357300" lon="-0.5138480">
        <ele>345.6</ele>
        <time>2020-11-14T12:04:37Z</time>
      </trkpt>
      <trkpt lat="38.8357390" lon="-0.5139890">
        <ele>345.0</ele>
        <time>2020-11-14T12:04:38Z</time>
      </trkpt>
      <trkpt lat="38.8357490" lon="-0.5141320">
        <ele>344.4</ele>
        <time>2020-11-14T12:04:39Z</time>
      </trkpt>
      <trkpt lat="38.8357460" lon="-0.5142660">
        <ele>343.8</ele>
        <time>2020-11-14T12:04:40Z</time>
      </trkpt>
      <trkpt lat="38.8357460" lon="-0.5144200">
        <ele>343.2</ele>
        <time>2020-11-14T12:04:41Z</time>
      </trkpt>
      <trkpt lat="38.8357320" lon="-0.5145670">
        <ele>342.6</ele>
        <time>2020-11-14T12:04:42Z</time>
      </trkpt>
      <trkpt lat="38.8357220" lon="-0.5147150">
        <ele>342.0</ele>
        <time>2020-11-14T12:04:43Z</time>
      </trkpt>
      <trkpt lat="38.8357170" lon="-0.5148610">
        <ele>341.4</ele>
        <time>2020-11-14T12:04:44Z</time>
      </trkpt>
      <trkpt lat="38.8357060" lon="-0.5150100">
        <ele>340.8</ele>
        <time>2020-11-14T12:04:45Z</time>
      </trkpt>
      <trkpt lat="38.8356940" lon="-0.5151490">
        <ele>340.3</ele>
        <time>2020-11-14T12:04:46Z</time>
      </trkpt>
      <trkpt lat="38.8356950" lon="-0.5152930">
        <ele>339.7</ele>
        <time>2020-11-14T12:04:47Z</time>
      </trkpt>
      <trkpt lat="38.8357160" lon="-0.5154300">
        <ele>339.1</ele>
        <time>2020-11-14T12:04:48Z</time>
      </trkpt>
      <trkpt lat="38.8357430" lon="-0.5155690">
        <ele>338.5</ele>
        <time>2020-11-14T12:04:49Z</time>
      </trkpt>
      <trkpt lat="38.8357510" lon="-0.5157050">
        <ele>337.8</ele>
        <time>2020-11-14T12:04:50Z</time>
      </trkpt>
      <trkpt lat="38.8357410" lon="-0.5158330">
        <ele>337.3</ele>
        <time>2020-11-14T12:04:51Z</time>
      </trkpt>
      <trkpt lat="38.8357440" lon="-0.5159690">
        <ele>336.8</ele>
        <time>2020-11-14T12:04:52Z</time>
      </trkpt>
      <trkpt lat="38.8357550" lon="-0.5161080">
        <ele>336.3</ele>
        <time>2020-11-14T12:04:53Z</time>
      </trkpt>
      <trkpt lat="38.8357680" lon="-0.5162490">
        <ele>335.9</ele>
        <time>2020-11-14T12:04:54Z</time>
      </trkpt>
      <trkpt lat="38.8357930" lon="-0.5163970">
        <ele>335.5</ele>
        <time>2020-11-14T12:04:55Z</time>
      </trkpt>
      <trkpt lat="38.8358180" lon="-0.5165320">
        <ele>334.9</ele>
        <time>2020-11-14T12:04:56Z</time>
      </trkpt>
      <trkpt lat="38.8358360" lon="-0.5166790">
        <ele>334.3</ele>
        <time>2020-11-14T12:04:57Z</time>
      </trkpt>
      <trkpt lat="38.8358740" lon="-0.5168010">
        <ele>333.7</ele>
        <time>2020-11-14T12:04:58Z</time>
      </trkpt>
      <trkpt lat="38.8359090" lon="-0.5169320">
        <ele>333.1</ele>
        <time>2020-11-14T12:04:59Z</time>
      </trkpt>
      <trkpt lat="38.8359620" lon="-0.5170450">
        <ele>332.5</ele>
        <time>2020-11-14T12:05:00Z</time>
      </trkpt>
      <trkpt lat="38.8360110" lon="-0.5171630">
        <ele>331.9</ele>
        <time>2020-11-14T12:05:01Z</time>
      </trkpt>
      <trkpt lat="38.8360760" lon="-0.5172880">
        <ele>331.4</ele>
        <time>2020-11-14T12:05:02Z</time>
      </trkpt>
      <trkpt lat="38.8361410" lon="-0.5174100">
        <ele>330.8</ele>
        <time>2020-11-14T12:05:03Z</time>
      </trkpt>
      <trkpt lat="38.8362050" lon="-0.5175170">
        <ele>330.3</ele>
        <time>2020-11-14T12:05:04Z</time>
      </trkpt>
      <trkpt lat="38.8362760" lon="-0.5176190">
        <ele>329.8</ele>
        <time>2020-11-14T12:05:05Z</time>
      </trkpt>
      <trkpt lat="38.8363540" lon="-0.5177350">
        <ele>329.1</ele>
        <time>2020-11-14T12:05:06Z</time>
      </trkpt>
      <trkpt lat="38.8364370" lon="-0.5178450">
        <ele>328.4</ele>
        <time>2020-11-14T12:05:07Z</time>
      </trkpt>
      <trkpt lat="38.8365150" lon="-0.5179420">
        <ele>327.7</ele>
        <time>2020-11-14T12:05:08Z</time>
      </trkpt>
      <trkpt lat="38.8365870" lon="-0.5180480">
        <ele>327.1</ele>
        <time>2020-11-14T12:05:09Z</time>
      </trkpt>
      <trkpt lat="38.8366740" lon="-0.5181450">
        <ele>326.6</ele>
        <time>2020-11-14T12:05:10Z</time>
      </trkpt>
      <trkpt lat="38.8367640" lon="-0.5182540">
        <ele>326.2</ele>
        <time>2020-11-14T12:05:11Z</time>
      </trkpt>
      <trkpt lat="38.8368410" lon="-0.5183510">
        <ele>325.9</ele>
        <time>2020-11-14T12:05:12Z</time>
      </trkpt>
      <trkpt lat="38.8369250" lon="-0.5184350">
        <ele>325.6</ele>
        <time>2020-11-14T12:05:13Z</time>
      </trkpt>
      <trkpt lat="38.8370050" lon="-0.5184980">
        <ele>325.4</ele>
        <time>2020-11-14T12:05:14Z</time>
      </trkpt>
      <trkpt lat="38.8370820" lon="-0.5185540">
        <ele>325.2</ele>
        <time>2020-11-14T12:05:15Z</time>
      </trkpt>
      <trkpt lat="38.8371530" lon="-0.5186240">
        <ele>325.0</ele>
        <time>2020-11-14T12:05:16Z</time>
      </trkpt>
      <trkpt lat="38.8372140" lon="-0.5187100">
        <ele>324.8</ele>
        <time>2020-11-14T12:05:17Z</time>
      </trkpt>
      <trkpt lat="38.8372630" lon="-0.5187970">
        <ele>325.0</ele>
        <time>2020-11-14T12:05:18Z</time>
      </trkpt>
      <trkpt lat="38.8373010" lon="-0.5188930">
        <ele>325.1</ele>
        <time>2020-11-14T12:05:19Z</time>
      </trkpt>
      <trkpt lat="38.8373390" lon="-0.5189790">
        <ele>325.3</ele>
        <time>2020-11-14T12:05:20Z</time>
      </trkpt>
      <trkpt lat="38.8373720" lon="-0.5190560">
        <ele>325.5</ele>
        <time>2020-11-14T12:05:21Z</time>
      </trkpt>
      <trkpt lat="38.8374340" lon="-0.5191030">
        <ele>325.6</ele>
        <time>2020-11-14T12:05:22Z</time>
      </trkpt>
      <trkpt lat="38.8374840" lon="-0.5191620">
        <ele>325.8</ele>
        <time>2020-11-14T12:05:23Z</time>
      </trkpt>
      <trkpt lat="38.8375360" lon="-0.5192230">
        <ele>325.9</ele>
        <time>2020-11-14T12:05:24Z</time>
      </trkpt>
      <trkpt lat="38.8375810" lon="-0.5192760">
        <ele>326.1</ele>
        <time>2020-11-14T12:05:25Z</time>
      </trkpt>
      <trkpt lat="38.8376330" lon="-0.5193260">
        <ele>326.2</ele>
        <time>2020-11-14T12:05:26Z</time>
      </trkpt>
      <trkpt lat="38.8376840" lon="-0.5193810">
        <ele>326.3</ele>
        <time>2020-11-14T12:05:27Z</time>
      </trkpt>
      <trkpt lat="38.8377320" lon="-0.5194340">
        <ele>326.4</ele>
        <time>2020-11-14T12:05:28Z</time>
      </trkpt>
      <trkpt lat="38.8377790" lon="-0.5194900">
        <ele>326.6</ele>
        <time>2020-11-14T12:05:29Z</time>
      </trkpt>
      <trkpt lat="38.8378280" lon="-0.5195510">
        <ele>326.7</ele>
        <time>2020-11-14T12:05:30Z</time>
      </trkpt>
      <trkpt lat="38.8378780" lon="-0.5196030">
        <ele>326.8</ele>
        <time>2020-11-14T12:05:31Z</time>
      </trkpt>
      <trkpt lat="38.8379250" lon="-0.5196450">
        <ele>326.8</ele>
        <time>2020-11-14T12:05:32Z</time>
      </trkpt>
      <trkpt lat="38.8379760" lon="-0.5196810">
        <ele>326.9</ele>
        <time>2020-11-14T12:05:33Z</time>
      </trkpt>
      <trkpt lat="38.8380240" lon="-0.5197280">
        <ele>327.0</ele>
        <time>2020-11-14T12:05:34Z</time>
      </trkpt>
      <trkpt lat="38.8380660" lon="-0.5197800">
        <ele>327.0</ele>
        <time>2020-11-14T12:05:35Z</time>
      </trkpt>
      <trkpt lat="38.8381110" lon="-0.5198370">
        <ele>327.0</ele>
        <time>2020-11-14T12:05:36Z</time>
      </trkpt>
      <trkpt lat="38.8381490" lon="-0.5198950">
        <ele>327.1</ele>
        <time>2020-11-14T12:05:37Z</time>
      </trkpt>
      <trkpt lat="38.8381760" lon="-0.5199480">
        <ele>327.1</ele>
        <time>2020-11-14T12:05:38Z</time>
      </trkpt>
      <trkpt lat="38.8382190" lon="-0.5200210">
        <ele>327.2</ele>
        <time>2020-11-14T12:05:39Z</time>
      </trkpt>
      <trkpt lat="38.8382450" lon="-0.5200910">
        <ele>327.2</ele>
        <time>2020-11-14T12:05:40Z</time>
      </trkpt>
      <trkpt lat="38.8382860" lon="-0.5201550">
        <ele>327.2</ele>
        <time>2020-11-14T12:05:41Z</time>
      </trkpt>
      <trkpt lat="38.8383210" lon="-0.5202060">
        <ele>327.3</ele>
        <time>2020-11-14T12:05:42Z</time>
      </trkpt>
      <trkpt lat="38.8383460" lon="-0.5202760">
        <ele>327.3</ele>
        <time>2020-11-14T12:05:43Z</time>
      </trkpt>
      <trkpt lat="38.8383690" lon="-0.5203390">
        <ele>327.3</ele>
        <time>2020-11-14T12:05:44Z</time>
      </trkpt>
      <trkpt lat="38.8383920" lon="-0.5204080">
        <ele>327.3</ele>
        <time>2020-11-14T12:05:45Z</time>
      </trkpt>
      <trkpt lat="38.8384190" lon="-0.5204810">
        <ele>327.3</ele>
        <time>2020-11-14T12:05:46Z</time>
      </trkpt>
      <trkpt lat="38.8384350" lon="-0.5205600">
        <ele>327.3</ele>
        <time>2020-11-14T12:05:47Z</time>
      </trkpt>
      <trkpt lat="38.8384570" lon="-0.5206330">
        <ele>327.3</ele>
        <time>2020-11-14T12:05:48Z</time>
      </trkpt>
      <trkpt lat="38.8384830" lon="-0.5207050">
        <ele>327.3</ele>
        <time>2020-11-14T12:05:49Z</time>
      </trkpt>
      <trkpt lat="38.8385060" lon="-0.5207670">
        <ele>327.4</ele>
        <time>2020-11-14T12:05:50Z</time>
      </trkpt>
      <trkpt lat="38.8385290" lon="-0.5208410">
        <ele>327.4</ele>
        <time>2020-11-14T12:05:51Z</time>
      </trkpt>
      <trkpt lat="38.8385660" lon="-0.5209240">
        <ele>327.4</ele>
        <time>2020-11-14T12:05:52Z</time>
      </trkpt>
      <trkpt lat="38.8385880" lon="-0.5209970">
        <ele>327.4</ele>
        <time>2020-11-14T12:05:53Z</time>
      </trkpt>
      <trkpt lat="38.8386180" lon="-0.5210690">
        <ele>327.3</ele>
        <time>2020-11-14T12:05:54Z</time>
      </trkpt>
      <trkpt lat="38.8386410" lon="-0.5211410">
        <ele>327.3</ele>
        <time>2020-11-14T12:05:55Z</time>
      </trkpt>
      <trkpt lat="38.8386550" lon="-0.5212230">
        <ele>327.3</ele>
        <time>2020-11-14T12:05:56Z</time>
      </trkpt>
      <trkpt lat="38.8386830" lon="-0.5213020">
        <ele>327.2</ele>
        <time>2020-11-14T12:05:57Z</time>
      </trkpt>
      <trkpt lat="38.8387050" lon="-0.5213800">
        <ele>327.2</ele>
        <time>2020-11-14T12:05:58Z</time>
      </trkpt>
      <trkpt lat="38.8387240" lon="-0.5214540">
        <ele>327.1</ele>
        <time>2020-11-14T12:05:59Z</time>
      </trkpt>
      <trkpt lat="38.8387690" lon="-0.5215250">
        <ele>327.0</ele>
        <time>2020-11-14T12:06:00Z</time>
      </trkpt>
      <trkpt lat="38.8387970" lon="-0.5216000">
        <ele>326.8</ele>
        <time>2020-11-14T12:06:01Z</time>
      </trkpt>
      <trkpt lat="38.8388160" lon="-0.5216900">
        <ele>326.5</ele>
        <time>2020-11-14T12:06:02Z</time>
      </trkpt>
      <trkpt lat="38.8388310" lon="-0.5217820">
        <ele>326.4</ele>
        <time>2020-11-14T12:06:03Z</time>
      </trkpt>
      <trkpt lat="38.8388250" lon="-0.5218640">
        <ele>326.2</ele>
        <time>2020-11-14T12:06:04Z</time>
      </trkpt>
      <trkpt lat="38.8387940" lon="-0.5219320">
        <ele>325.5</ele>
        <time>2020-11-14T12:06:05Z</time>
      </trkpt>
      <trkpt lat="38.8387520" lon="-0.5219710">
        <ele>325.4</ele>
        <time>2020-11-14T12:06:06Z</time>
      </trkpt>
      <trkpt lat="38.8387020" lon="-0.5219970">
        <ele>325.5</ele>
        <time>2020-11-14T12:06:07Z</time>
      </trkpt>
      <trkpt lat="38.8386490" lon="-0.5220230">
        <ele>325.8</ele>
        <time>2020-11-14T12:06:08Z</time>
      </trkpt>
      <trkpt lat="38.8385900" lon="-0.5220520">
        <ele>326.1</ele>
        <time>2020-11-14T12:06:09Z</time>
      </trkpt>
      <trkpt lat="38.8385330" lon="-0.5220830">
        <ele>326.4</ele>
        <time>2020-11-14T12:06:10Z</time>
      </trkpt>
      <trkpt lat="38.8384940" lon="-0.5221220">
        <ele>326.6</ele>
        <time>2020-11-14T12:06:11Z</time>
      </trkpt>
      <trkpt lat="38.8384370" lon="-0.5221510">
        <ele>326.7</ele>
        <time>2020-11-14T12:06:12Z</time>
      </trkpt>
      <trkpt lat="38.8383490" lon="-0.5221780">
        <ele>326.7</ele>
        <time>2020-11-14T12:06:13Z</time>
      </trkpt>
      <trkpt lat="38.8383010" lon="-0.5222130">
        <ele>326.8</ele>
        <time>2020-11-14T12:06:14Z</time>
      </trkpt>
      <trkpt lat="38.8382580" lon="-0.5222530">
        <ele>326.8</ele>
        <time>2020-11-14T12:06:15Z</time>
      </trkpt>
      <trkpt lat="38.8381970" lon="-0.5222680">
        <ele>326.9</ele>
        <time>2020-11-14T12:06:16Z</time>
      </trkpt>
      <trkpt lat="38.8381400" lon="-0.5223110">
        <ele>326.9</ele>
        <time>2020-11-14T12:06:17Z</time>
      </trkpt>
      <trkpt lat="38.8380760" lon="-0.5223450">
        <ele>327.0</ele>
        <time>2020-11-14T12:06:18Z</time>
      </trkpt>
      <trkpt lat="38.8380310" lon="-0.5223800">
        <ele>327.0</ele>
        <time>2020-11-14T12:06:19Z</time>
      </trkpt>
      <trkpt lat="38.8379680" lon="-0.5223940">
        <ele>327.1</ele>
        <time>2020-11-14T12:06:20Z</time>
      </trkpt>
      <trkpt lat="38.8379130" lon="-0.5224250">
        <ele>327.2</ele>
        <time>2020-11-14T12:06:21Z</time>
      </trkpt>
      <trkpt lat="38.8378550" lon="-0.5224580">
        <ele>327.2</ele>
        <time>2020-11-14T12:06:22Z</time>
      </trkpt>
      <trkpt lat="38.8378160" lon="-0.5225070">
        <ele>327.2</ele>
        <time>2020-11-14T12:06:23Z</time>
      </trkpt>
      <trkpt lat="38.8377600" lon="-0.5225410">
        <ele>327.3</ele>
        <time>2020-11-14T12:06:24Z</time>
      </trkpt>
      <trkpt lat="38.8377100" lon="-0.5225800">
        <ele>327.3</ele>
        <time>2020-11-14T12:06:25Z</time>
      </trkpt>
      <trkpt lat="38.8376670" lon="-0.5225900">
        <ele>327.3</ele>
        <time>2020-11-14T12:06:26Z</time>
      </trkpt>
      <trkpt lat="38.8376320" lon="-0.5226330">
        <ele>327.4</ele>
        <time>2020-11-14T12:06:27Z</time>
      </trkpt>
      <trkpt lat="38.8375850" lon="-0.5226720">
        <ele>327.4</ele>
        <time>2020-11-14T12:06:28Z</time>
      </trkpt>
      <trkpt lat="38.8375340" lon="-0.5227040">
        <ele>327.4</ele>
        <time>2020-11-14T12:06:29Z</time>
      </trkpt>
      <trkpt lat="38.8375120" lon="-0.5227480">
        <ele>327.5</ele>
        <time>2020-11-14T12:06:30Z</time>
      </trkpt>
      <trkpt lat="38.8374690" lon="-0.5227880">
        <ele>327.5</ele>
        <time>2020-11-14T12:06:31Z</time>
      </trkpt>
      <trkpt lat="38.8374220" lon="-0.5228260">
        <ele>327.6</ele>
        <time>2020-11-14T12:06:32Z</time>
      </trkpt>
      <trkpt lat="38.8373740" lon="-0.5228800">
        <ele>327.6</ele>
        <time>2020-11-14T12:06:33Z</time>
      </trkpt>
      <trkpt lat="38.8373230" lon="-0.5229210">
        <ele>327.7</ele>
        <time>2020-11-14T12:06:34Z</time>
      </trkpt>
      <trkpt lat="38.8372710" lon="-0.5229690">
        <ele>327.7</ele>
        <time>2020-11-14T12:06:35Z</time>
      </trkpt>
      <trkpt lat="38.8372250" lon="-0.5230170">
        <ele>327.8</ele>
        <time>2020-11-14T12:06:36Z</time>
      </trkpt>
      <trkpt lat="38.8371860" lon="-0.5230770">
        <ele>327.8</ele>
        <time>2020-11-14T12:06:37Z</time>
      </trkpt>
      <trkpt lat="38.8371430" lon="-0.5231260">
        <ele>327.9</ele>
        <time>2020-11-14T12:06:38Z</time>
      </trkpt>
      <trkpt lat="38.8370940" lon="-0.5231740">
        <ele>328.0</ele>
        <time>2020-11-14T12:06:39Z</time>
      </trkpt>
      <trkpt lat="38.8370560" lon="-0.5232270">
        <ele>328.0</ele>
        <time>2020-11-14T12:06:40Z</time>
      </trkpt>
      <trkpt lat="38.8370120" lon="-0.5232820">
        <ele>328.1</ele>
        <time>2020-11-14T12:06:41Z</time>
      </trkpt>
      <trkpt lat="38.8369710" lon="-0.5233350">
        <ele>328.2</ele>
        <time>2020-11-14T12:06:42Z</time>
      </trkpt>
      <trkpt lat="38.8369230" lon="-0.5233940">
        <ele>328.2</ele>
        <time>2020-11-14T12:06:43Z</time>
      </trkpt>
      <trkpt lat="38.8368760" lon="-0.5234540">
        <ele>328.3</ele>
        <time>2020-11-14T12:06:44Z</time>
      </trkpt>
      <trkpt lat="38.8368210" lon="-0.5235170">
        <ele>328.3</ele>
        <time>2020-11-14T12:06:45Z</time>
      </trkpt>
      <trkpt lat="38.8367810" lon="-0.5235720">
        <ele>328.4</ele>
        <time>2020-11-14T12:06:46Z</time>
      </trkpt>
      <trkpt lat="38.8367290" lon="-0.5236290">
        <ele>328.5</ele>
        <time>2020-11-14T12:06:47Z</time>
      </trkpt>
      <trkpt lat="38.8366840" lon="-0.5236720">
        <ele>328.6</ele>
        <time>2020-11-14T12:06:48Z</time>
      </trkpt>
      <trkpt lat="38.8366390" lon="-0.5237240">
        <ele>328.7</ele>
        <time>2020-11-14T12:06:49Z</time>
      </trkpt>
      <trkpt lat="38.8365930" lon="-0.5237790">
        <ele>328.8</ele>
        <time>2020-11-14T12:06:50Z</time>
      </trkpt>
      <trkpt lat="38.8365350" lon="-0.5238290">
        <ele>328.9</ele>
        <time>2020-11-14T12:06:51Z</time>
      </trkpt>
      <trkpt lat="38.8364910" lon="-0.5238810">
        <ele>329.0</ele>
        <time>2020-11-14T12:06:52Z</time>
      </trkpt>
      <trkpt lat="38.8364460" lon="-0.5239390">
        <ele>329.1</ele>
        <time>2020-11-14T12:06:53Z</time>
      </trkpt>
      <trkpt lat="38.8364020" lon="-0.5239930">
        <ele>329.2</ele>
        <time>2020-11-14T12:06:54Z</time>
      </trkpt>
      <trkpt lat="38.8363610" lon="-0.5240410">
        <ele>329.3</ele>
        <time>2020-11-14T12:06:55Z</time>
      </trkpt>
      <trkpt lat="38.8363160" lon="-0.5240970">
        <ele>329.4</ele>
        <time>2020-11-14T12:06:56Z</time>
      </trkpt>
      <trkpt lat="38.8362810" lon="-0.5241440">
        <ele>329.5</ele>
        <time>2020-11-14T12:06:57Z</time>
      </trkpt>
      <trkpt lat="38.8362350" lon="-0.5241900">
        <ele>329.6</ele>
        <time>2020-11-14T12:06:58Z</time>
      </trkpt>
      <trkpt lat="38.8361970" lon="-0.5242350">
        <ele>329.6</ele>
        <time>2020-11-14T12:06:59Z</time>
      </trkpt>
      <trkpt lat="38.8361630" lon="-0.5242840">
        <ele>329.7</ele>
        <time>2020-11-14T12:07:00Z</time>
      </trkpt>
      <trkpt lat="38.8361180" lon="-0.5243430">
        <ele>329.8</ele>
        <time>2020-11-14T12:07:01Z</time>
      </trkpt>
      <trkpt lat="38.8360850" lon="-0.5243840">
        <ele>329.8</ele>
        <time>2020-11-14T12:07:02Z</time>
      </trkpt>
      <trkpt lat="38.8360400" lon="-0.5244370">
        <ele>329.8</ele>
        <time>2020-11-14T12:07:03Z</time>
      </trkpt>
      <trkpt lat="38.8359950" lon="-0.5244920">
        <ele>329.9</ele>
        <time>2020-11-14T12:07:04Z</time>
      </trkpt>
      <trkpt lat="38.8359540" lon="-0.5245500">
        <ele>329.9</ele>
        <time>2020-11-14T12:07:05Z</time>
      </trkpt>
      <trkpt lat="38.8359140" lon="-0.5246020">
        <ele>329.9</ele>
        <time>2020-11-14T12:07:06Z</time>
      </trkpt>
      <trkpt lat="38.8358780" lon="-0.5246590">
        <ele>330.0</ele>
        <time>2020-11-14T12:07:07Z</time>
      </trkpt>
      <trkpt lat="38.8358410" lon="-0.5247100">
        <ele>329.9</ele>
        <time>2020-11-14T12:07:08Z</time>
      </trkpt>
      <trkpt lat="38.8358090" lon="-0.5247690">
        <ele>329.8</ele>
        <time>2020-11-14T12:07:09Z</time>
      </trkpt>
      <trkpt lat="38.8357680" lon="-0.5248200">
        <ele>329.8</ele>
        <time>2020-11-14T12:07:10Z</time>
      </trkpt>
      <trkpt lat="38.8357140" lon="-0.5248810">
        <ele>329.8</ele>
        <time>2020-11-14T12:07:11Z</time>
      </trkpt>
      <trkpt lat="38.8356790" lon="-0.5249370">
        <ele>329.9</ele>
        <time>2020-11-14T12:07:12Z</time>
      </trkpt>
      <trkpt lat="38.8356340" lon="-0.5249810">
        <ele>329.9</ele>
        <time>2020-11-14T12:07:13Z</time>
      </trkpt>
      <trkpt lat="38.8355810" lon="-0.5250240">
        <ele>329.9</ele>
        <time>2020-11-14T12:07:14Z</time>
      </trkpt>
      <trkpt lat="38.8355260" lon="-0.5250680">
        <ele>329.9</ele>
        <time>2020-11-14T12:07:15Z</time>
      </trkpt>
      <trkpt lat="38.8354600" lon="-0.5251110">
        <ele>329.9</ele>
        <time>2020-11-14T12:07:16Z</time>
      </trkpt>
      <trkpt lat="38.8354100" lon="-0.5251680">
        <ele>329.9</ele>
        <time>2020-11-14T12:07:17Z</time>
      </trkpt>
      <trkpt lat="38.8353600" lon="-0.5252260">
        <ele>329.8</ele>
        <time>2020-11-14T12:07:18Z</time>
      </trkpt>
      <trkpt lat="38.8353080" lon="-0.5252860">
        <ele>329.8</ele>
        <time>2020-11-14T12:07:19Z</time>
      </trkpt>
      <trkpt lat="38.8352600" lon="-0.5253500">
        <ele>329.7</ele>
        <time>2020-11-14T12:07:20Z</time>
      </trkpt>
      <trkpt lat="38.8352080" lon="-0.5254100">
        <ele>329.6</ele>
        <time>2020-11-14T12:07:21Z</time>
      </trkpt>
      <trkpt lat="38.8351540" lon="-0.5254810">
        <ele>329.5</ele>
        <time>2020-11-14T12:07:22Z</time>
      </trkpt>
      <trkpt lat="38.8351060" lon="-0.5255380">
        <ele>329.4</ele>
        <time>2020-11-14T12:07:23Z</time>
      </trkpt>
      <trkpt lat="38.8350520" lon="-0.5255980">
        <ele>329.3</ele>
        <time>2020-11-14T12:07:24Z</time>
      </trkpt>
      <trkpt lat="38.8349990" lon="-0.5256570">
        <ele>329.2</ele>
        <time>2020-11-14T12:07:25Z</time>
      </trkpt>
      <trkpt lat="38.8349460" lon="-0.5257200">
        <ele>329.1</ele>
        <time>2020-11-14T12:07:26Z</time>
      </trkpt>
      <trkpt lat="38.8348940" lon="-0.5257830">
        <ele>329.0</ele>
        <time>2020-11-14T12:07:27Z</time>
      </trkpt>
      <trkpt lat="38.8348380" lon="-0.5258520">
        <ele>328.9</ele>
        <time>2020-11-14T12:07:28Z</time>
      </trkpt>
      <trkpt lat="38.8347820" lon="-0.5259170">
        <ele>328.8</ele>
        <time>2020-11-14T12:07:29Z</time>
      </trkpt>
      <trkpt lat="38.8347290" lon="-0.5259850">
        <ele>328.7</ele>
        <time>2020-11-14T12:07:30Z</time>
      </trkpt>
      <trkpt lat="38.8346740" lon="-0.5260540">
        <ele>328.6</ele>
        <time>2020-11-14T12:07:31Z</time>
      </trkpt>
      <trkpt lat="38.8346230" lon="-0.5261240">
        <ele>328.5</ele>
        <time>2020-11-14T12:07:32Z</time>
      </trkpt>
      <trkpt lat="38.8345670" lon="-0.5261830">
        <ele>328.4</ele>
        <time>2020-11-14T12:07:33Z</time>
      </trkpt>
      <trkpt lat="38.8345150" lon="-0.5262500">
        <ele>328.3</ele>
        <time>2020-11-14T12:07:34Z</time>
      </trkpt>
      <trkpt lat="38.8344600" lon="-0.5263140">
        <ele>328.3</ele>
        <time>2020-11-14T12:07:35Z</time>
      </trkpt>
      <trkpt lat="38.8344080" lon="-0.5263680">
        <ele>328.2</ele>
        <time>2020-11-14T12:07:36Z</time>
      </trkpt>
      <trkpt lat="38.8343590" lon="-0.5264300">
        <ele>328.1</ele>
        <time>2020-11-14T12:07:37Z</time>
      </trkpt>
      <trkpt lat="38.8343080" lon="-0.5264950">
        <ele>328.0</ele>
        <time>2020-11-14T12:07:38Z</time>
      </trkpt>
      <trkpt lat="38.8342590" lon="-0.5265650">
        <ele>327.9</ele>
        <time>2020-11-14T12:07:39Z</time>
      </trkpt>
      <trkpt lat="38.8342040" lon="-0.5266340">
        <ele>327.8</ele>
        <time>2020-11-14T12:07:40Z</time>
      </trkpt>
      <trkpt lat="38.8341430" lon="-0.5266940">
        <ele>327.7</ele>
        <time>2020-11-14T12:07:41Z</time>
      </trkpt>
      <trkpt lat="38.8340870" lon="-0.5267590">
        <ele>327.6</ele>
        <time>2020-11-14T12:07:42Z</time>
      </trkpt>
      <trkpt lat="38.8340360" lon="-0.5268250">
        <ele>327.5</ele>
        <time>2020-11-14T12:07:43Z</time>
      </trkpt>
      <trkpt lat="38.8339800" lon="-0.5268930">
        <ele>327.4</ele>
        <time>2020-11-14T12:07:44Z</time>
      </trkpt>
      <trkpt lat="38.8339280" lon="-0.5269660">
        <ele>327.3</ele>
        <time>2020-11-14T12:07:45Z</time>
      </trkpt>
      <trkpt lat="38.8338660" lon="-0.5270370">
        <ele>327.1</ele>
        <time>2020-11-14T12:07:46Z</time>
      </trkpt>
      <trkpt lat="38.8338090" lon="-0.5271050">
        <ele>327.0</ele>
        <time>2020-11-14T12:07:47Z</time>
      </trkpt>
      <trkpt lat="38.8337560" lon="-0.5271670">
        <ele>326.8</ele>
        <time>2020-11-14T12:07:48Z</time>
      </trkpt>
      <trkpt lat="38.8337060" lon="-0.5272350">
        <ele>326.7</ele>
        <time>2020-11-14T12:07:49Z</time>
      </trkpt>
      <trkpt lat="38.8336560" lon="-0.5273040">
        <ele>326.5</ele>
        <time>2020-11-14T12:07:50Z</time>
      </trkpt>
      <trkpt lat="38.8335910" lon="-0.5273690">
        <ele>326.3</ele>
        <time>2020-11-14T12:07:51Z</time>
      </trkpt>
      <trkpt lat="38.8335360" lon="-0.5274310">
        <ele>326.2</ele>
        <time>2020-11-14T12:07:52Z</time>
      </trkpt>
      <trkpt lat="38.8334890" lon="-0.5275020">
        <ele>326.0</ele>
        <time>2020-11-14T12:07:53Z</time>
      </trkpt>
      <trkpt lat="38.8334440" lon="-0.5275770">
        <ele>325.9</ele>
        <time>2020-11-14T12:07:54Z</time>
      </trkpt>
      <trkpt lat="38.8334090" lon="-0.5276580">
        <ele>325.7</ele>
        <time>2020-11-14T12:07:55Z</time>
      </trkpt>
      <trkpt lat="38.8333790" lon="-0.5277500">
        <ele>325.5</ele>
        <time>2020-11-14T12:07:56Z</time>
      </trkpt>
      <trkpt lat="38.8333710" lon="-0.5278450">
        <ele>325.4</ele>
        <time>2020-11-14T12:07:57Z</time>
      </trkpt>
      <trkpt lat="38.8333820" lon="-0.5279430">
        <ele>325.2</ele>
        <time>2020-11-14T12:07:58Z</time>
      </trkpt>
      <trkpt lat="38.8334030" lon="-0.5280190">
        <ele>325.1</ele>
        <time>2020-11-14T12:07:59Z</time>
      </trkpt>
      <trkpt lat="38.8334660" lon="-0.5281050">
        <ele>324.9</ele>
        <time>2020-11-14T12:08:00Z</time>
      </trkpt>
      <trkpt lat="38.8335140" lon="-0.5281850">
        <ele>324.7</ele>
        <time>2020-11-14T12:08:01Z</time>
      </trkpt>
      <trkpt lat="38.8335750" lon="-0.5282720">
        <ele>324.6</ele>
        <time>2020-11-14T12:08:02Z</time>
      </trkpt>
      <trkpt lat="38.8336090" lon="-0.5283640">
        <ele>323.7</ele>
        <time>2020-11-14T12:08:03Z</time>
      </trkpt>
      <trkpt lat="38.8336620" lon="-0.5284410">
        <ele>323.1</ele>
        <time>2020-11-14T12:08:04Z</time>
      </trkpt>
      <trkpt lat="38.8337350" lon="-0.5285300">
        <ele>322.3</ele>
        <time>2020-11-14T12:08:05Z</time>
      </trkpt>
      <trkpt lat="38.8338020" lon="-0.5286070">
        <ele>321.7</ele>
        <time>2020-11-14T12:08:06Z</time>
      </trkpt>
      <trkpt lat="38.8338880" lon="-0.5286910">
        <ele>321.2</ele>
        <time>2020-11-14T12:08:07Z</time>
      </trkpt>
      <trkpt lat="38.8339650" lon="-0.5287630">
        <ele>320.8</ele>
        <time>2020-11-14T12:08:08Z</time>
      </trkpt>
      <trkpt lat="38.8340510" lon="-0.5288310">
        <ele>320.3</ele>
        <time>2020-11-14T12:08:09Z</time>
      </trkpt>
      <trkpt lat="38.8341460" lon="-0.5288950">
        <ele>319.9</ele>
        <time>2020-11-14T12:08:10Z</time>
      </trkpt>
      <trkpt lat="38.8342140" lon="-0.5289960">
        <ele>319.6</ele>
        <time>2020-11-14T12:08:11Z</time>
      </trkpt>
      <trkpt lat="38.8342940" lon="-0.5290740">
        <ele>319.3</ele>
        <time>2020-11-14T12:08:12Z</time>
      </trkpt>
      <trkpt lat="38.8343910" lon="-0.5291630">
        <ele>319.1</ele>
        <time>2020-11-14T12:08:13Z</time>
      </trkpt>
      <trkpt lat="38.8344780" lon="-0.5292430">
        <ele>319.1</ele>
        <time>2020-11-14T12:08:14Z</time>
      </trkpt>
      <trkpt lat="38.8345690" lon="-0.5293160">
        <ele>319.1</ele>
        <time>2020-11-14T12:08:15Z</time>
      </trkpt>
      <trkpt lat="38.8346530" lon="-0.5293780">
        <ele>319.1</ele>
        <time>2020-11-14T12:08:16Z</time>
      </trkpt>
      <trkpt lat="38.8347290" lon="-0.5294400">
        <ele>319.2</ele>
        <time>2020-11-14T12:08:17Z</time>
      </trkpt>
      <trkpt lat="38.8348170" lon="-0.5295020">
        <ele>319.3</ele>
        <time>2020-11-14T12:08:18Z</time>
      </trkpt>
      <trkpt lat="38.8348920" lon="-0.5295710">
        <ele>319.4</ele>
        <time>2020-11-14T12:08:19Z</time>
      </trkpt>
      <trkpt lat="38.8349760" lon="-0.5296370">
        <ele>319.7</ele>
        <time>2020-11-14T12:08:20Z</time>
      </trkpt>
      <trkpt lat="38.8350460" lon="-0.5296930">
        <ele>320.1</ele>
        <time>2020-11-14T12:08:21Z</time>
      </trkpt>
      <trkpt lat="38.8351110" lon="-0.5297700">
        <ele>320.5</ele>
        <time>2020-11-14T12:08:22Z</time>
      </trkpt>
      <trkpt lat="38.8351820" lon="-0.5298310">
        <ele>320.9</ele>
        <time>2020-11-14T12:08:23Z</time>
      </trkpt>
      <trkpt lat="38.8352420" lon="-0.5298470">
        <ele>321.2</ele>
        <time>2020-11-14T12:08:24Z</time>
      </trkpt>
      <trkpt lat="38.8353010" lon="-0.5298830">
        <ele>321.5</ele>
        <time>2020-11-14T12:08:25Z</time>
      </trkpt>
      <trkpt lat="38.8353580" lon="-0.5299380">
        <ele>321.9</ele>
        <time>2020-11-14T12:08:26Z</time>
      </trkpt>
      <trkpt lat="38.8354160" lon="-0.5299820">
        <ele>322.2</ele>
        <time>2020-11-14T12:08:27Z</time>
      </trkpt>
      <trkpt lat="38.8354760" lon="-0.5300270">
        <ele>322.6</ele>
        <time>2020-11-14T12:08:28Z</time>
      </trkpt>
      <trkpt lat="38.8355220" lon="-0.5300600">
        <ele>322.9</ele>
        <time>2020-11-14T12:08:29Z</time>
      </trkpt>
      <trkpt lat="38.8355750" lon="-0.5301030">
        <ele>323.2</ele>
        <time>2020-11-14T12:08:30Z</time>
      </trkpt>
      <trkpt lat="38.8356210" lon="-0.5301300">
        <ele>323.5</ele>
        <time>2020-11-14T12:08:31Z</time>
      </trkpt>
      <trkpt lat="38.8356800" lon="-0.5301640">
        <ele>323.9</ele>
        <time>2020-11-14T12:08:32Z</time>
      </trkpt>
      <trkpt lat="38.8357240" lon="-0.5302080">
        <ele>324.2</ele>
        <time>2020-11-14T12:08:33Z</time>
      </trkpt>
      <trkpt lat="38.8357740" lon="-0.5302420">
        <ele>324.6</ele>
        <time>2020-11-14T12:08:34Z</time>
      </trkpt>
      <trkpt lat="38.8358230" lon="-0.5302860">
        <ele>325.0</ele>
        <time>2020-11-14T12:08:35Z</time>
      </trkpt>
      <trkpt lat="38.8358670" lon="-0.5303300">
        <ele>325.3</ele>
        <time>2020-11-14T12:08:36Z</time>
      </trkpt>
      <trkpt lat="38.8358940" lon="-0.5303750">
        <ele>325.5</ele>
        <time>2020-11-14T12:08:37Z</time>
      </trkpt>
      <trkpt lat="38.8359490" lon="-0.5304160">
        <ele>325.8</ele>
        <time>2020-11-14T12:08:38Z</time>
      </trkpt>
      <trkpt lat="38.8360020" lon="-0.5304610">
        <ele>326.1</ele>
        <time>2020-11-14T12:08:39Z</time>
      </trkpt>
      <trkpt lat="38.8360400" lon="-0.5305090">
        <ele>326.3</ele>
        <time>2020-11-14T12:08:40Z</time>
      </trkpt>
      <trkpt lat="38.8360760" lon="-0.5305570">
        <ele>326.5</ele>
        <time>2020-11-14T12:08:41Z</time>
      </trkpt>
      <trkpt lat="38.8361060" lon="-0.5306290">
        <ele>326.7</ele>
        <time>2020-11-14T12:08:42Z</time>
      </trkpt>
      <trkpt lat="38.8361370" lon="-0.5306860">
        <ele>326.8</ele>
        <time>2020-11-14T12:08:43Z</time>
      </trkpt>
      <trkpt lat="38.8361490" lon="-0.5307500">
        <ele>327.0</ele>
        <time>2020-11-14T12:08:44Z</time>
      </trkpt>
      <trkpt lat="38.8361710" lon="-0.5307960">
        <ele>327.1</ele>
        <time>2020-11-14T12:08:45Z</time>
      </trkpt>
      <trkpt lat="38.8361730" lon="-0.5308520">
        <ele>327.2</ele>
        <time>2020-11-14T12:08:46Z</time>
      </trkpt>
      <trkpt lat="38.8361750" lon="-0.5309230">
        <ele>327.3</ele>
        <time>2020-11-14T12:08:47Z</time>
      </trkpt>
      <trkpt lat="38.8361800" lon="-0.5310060">
        <ele>327.4</ele>
        <time>2020-11-14T12:08:48Z</time>
      </trkpt>
      <trkpt lat="38.8361740" lon="-0.5310790">
        <ele>327.5</ele>
        <time>2020-11-14T12:08:49Z</time>
      </trkpt>
      <trkpt lat="38.8361620" lon="-0.5311460">
        <ele>327.6</ele>
        <time>2020-11-14T12:08:50Z</time>
      </trkpt>
      <trkpt lat="38.8361520" lon="-0.5312030">
        <ele>327.7</ele>
        <time>2020-11-14T12:08:51Z</time>
      </trkpt>
      <trkpt lat="38.8361370" lon="-0.5312540">
        <ele>327.7</ele>
        <time>2020-11-14T12:08:52Z</time>
      </trkpt>
      <trkpt lat="38.8361130" lon="-0.5313060">
        <ele>327.8</ele>
        <time>2020-11-14T12:08:53Z</time>
      </trkpt>
      <trkpt lat="38.8360850" lon="-0.5313580">
        <ele>327.9</ele>
        <time>2020-11-14T12:08:54Z</time>
      </trkpt>
      <trkpt lat="38.8360680" lon="-0.5314250">
        <ele>327.9</ele>
        <time>2020-11-14T12:08:55Z</time>
      </trkpt>
      <trkpt lat="38.8360380" lon="-0.5314800">
        <ele>328.0</ele>
        <time>2020-11-14T12:08:56Z</time>
      </trkpt>
      <trkpt lat="38.8360100" lon="-0.5315350">
        <ele>328.0</ele>
        <time>2020-11-14T12:08:57Z</time>
      </trkpt>
      <trkpt lat="38.8359740" lon="-0.5315900">
        <ele>328.1</ele>
        <time>2020-11-14T12:08:58Z</time>
      </trkpt>
      <trkpt lat="38.8359360" lon="-0.5316440">
        <ele>328.2</ele>
        <time>2020-11-14T12:08:59Z</time>
      </trkpt>
      <trkpt lat="38.8359030" lon="-0.5317000">
        <ele>328.2</ele>
        <time>2020-11-14T12:09:00Z</time>
      </trkpt>
      <trkpt lat="38.8358730" lon="-0.5317550">
        <ele>328.2</ele>
        <time>2020-11-14T12:09:01Z</time>
      </trkpt>
      <trkpt lat="38.8358340" lon="-0.5318120">
        <ele>328.3</ele>
        <time>2020-11-14T12:09:02Z</time>
      </trkpt>
      <trkpt lat="38.8358020" lon="-0.5318740">
        <ele>328.3</ele>
        <time>2020-11-14T12:09:03Z</time>
      </trkpt>
      <trkpt lat="38.8357610" lon="-0.5319290">
        <ele>328.3</ele>
        <time>2020-11-14T12:09:04Z</time>
      </trkpt>
      <trkpt lat="38.8357230" lon="-0.5319840">
        <ele>328.3</ele>
        <time>2020-11-14T12:09:05Z</time>
      </trkpt>
      <trkpt lat="38.8356840" lon="-0.5320370">
        <ele>328.4</ele>
        <time>2020-11-14T12:09:06Z</time>
      </trkpt>
      <trkpt lat="38.8356510" lon="-0.5320900">
        <ele>328.4</ele>
        <time>2020-11-14T12:09:07Z</time>
      </trkpt>
      <trkpt lat="38.8356110" lon="-0.5321450">
        <ele>328.4</ele>
        <time>2020-11-14T12:09:08Z</time>
      </trkpt>
      <trkpt lat="38.8355780" lon="-0.5322050">
        <ele>328.4</ele>
        <time>2020-11-14T12:09:09Z</time>
      </trkpt>
      <trkpt lat="38.8355380" lon="-0.5322590">
        <ele>328.4</ele>
        <time>2020-11-14T12:09:10Z</time>
      </trkpt>
      <trkpt lat="38.8354920" lon="-0.5323150">
        <ele>328.5</ele>
        <time>2020-11-14T12:09:11Z</time>
      </trkpt>
      <trkpt lat="38.8354570" lon="-0.5323770">
        <ele>328.5</ele>
        <time>2020-11-14T12:09:12Z</time>
      </trkpt>
      <trkpt lat="38.8354230" lon="-0.5324380">
        <ele>328.5</ele>
        <time>2020-11-14T12:09:13Z</time>
      </trkpt>
      <trkpt lat="38.8353850" lon="-0.5325050">
        <ele>328.5</ele>
        <time>2020-11-14T12:09:14Z</time>
      </trkpt>
      <trkpt lat="38.8353450" lon="-0.5325700">
        <ele>328.5</ele>
        <time>2020-11-14T12:09:15Z</time>
      </trkpt>
      <trkpt lat="38.8353060" lon="-0.5326080">
        <ele>328.5</ele>
        <time>2020-11-14T12:09:16Z</time>
      </trkpt>
      <trkpt lat="38.8352670" lon="-0.5326770">
        <ele>328.5</ele>
        <time>2020-11-14T12:09:17Z</time>
      </trkpt>
      <trkpt lat="38.8352180" lon="-0.5327390">
        <ele>328.4</ele>
        <time>2020-11-14T12:09:18Z</time>
      </trkpt>
      <trkpt lat="38.8351790" lon="-0.5328060">
        <ele>328.4</ele>
        <time>2020-11-14T12:09:19Z</time>
      </trkpt>
      <trkpt lat="38.8351240" lon="-0.5328700">
        <ele>328.4</ele>
        <time>2020-11-14T12:09:20Z</time>
      </trkpt>
      <trkpt lat="38.8350910" lon="-0.5329390">
        <ele>328.4</ele>
        <time>2020-11-14T12:09:21Z</time>
      </trkpt>
      <trkpt lat="38.8350460" lon="-0.5330020">
        <ele>328.4</ele>
        <time>2020-11-14T12:09:22Z</time>
      </trkpt>
      <trkpt lat="38.8349980" lon="-0.5330690">
        <ele>328.4</ele>
        <time>2020-11-14T12:09:23Z</time>
      </trkpt>
      <trkpt lat="38.8349570" lon="-0.5331410">
        <ele>328.4</ele>
        <time>2020-11-14T12:09:24Z</time>
      </trkpt>
      <trkpt lat="38.8349150" lon="-0.5332130">
        <ele>328.5</ele>
        <time>2020-11-14T12:09:25Z</time>
      </trkpt>
      <trkpt lat="38.8348550" lon="-0.5332840">
        <ele>328.5</ele>
        <time>2020-11-14T12:09:26Z</time>
      </trkpt>
      <trkpt lat="38.8348150" lon="-0.5333540">
        <ele>328.4</ele>
        <time>2020-11-14T12:09:27Z</time>
      </trkpt>
      <trkpt lat="38.8347730" lon="-0.5334130">
        <ele>328.4</ele>
        <time>2020-11-14T12:09:28Z</time>
      </trkpt>
      <trkpt lat="38.8347370" lon="-0.5334930">
        <ele>328.4</ele>
        <time>2020-11-14T12:09:29Z</time>
      </trkpt>
      <trkpt lat="38.8346910" lon="-0.5335720">
        <ele>328.4</ele>
        <time>2020-11-14T12:09:30Z</time>
      </trkpt>
      <trkpt lat="38.8346380" lon="-0.5336460">
        <ele>328.4</ele>
        <time>2020-11-14T12:09:31Z</time>
      </trkpt>
      <trkpt lat="38.8345950" lon="-0.5337190">
        <ele>328.4</ele>
        <time>2020-11-14T12:09:32Z</time>
      </trkpt>
      <trkpt lat="38.8345470" lon="-0.5337840">
        <ele>328.4</ele>
        <time>2020-11-14T12:09:33Z</time>
      </trkpt>
      <trkpt lat="38.8344970" lon="-0.5338580">
        <ele>328.4</ele>
        <time>2020-11-14T12:09:34Z</time>
      </trkpt>
      <trkpt lat="38.8344570" lon="-0.5339250">
        <ele>328.4</ele>
        <time>2020-11-14T12:09:35Z</time>
      </trkpt>
      <trkpt lat="38.8344120" lon="-0.5339970">
        <ele>328.4</ele>
        <time>2020-11-14T12:09:36Z</time>
      </trkpt>
      <trkpt lat="38.8343670" lon="-0.5340670">
        <ele>328.4</ele>
        <time>2020-11-14T12:09:37Z</time>
      </trkpt>
      <trkpt lat="38.8343130" lon="-0.5341430">
        <ele>328.4</ele>
        <time>2020-11-14T12:09:38Z</time>
      </trkpt>
      <trkpt lat="38.8342670" lon="-0.5342110">
        <ele>328.4</ele>
        <time>2020-11-14T12:09:39Z</time>
      </trkpt>
      <trkpt lat="38.8342270" lon="-0.5342820">
        <ele>328.4</ele>
        <time>2020-11-14T12:09:40Z</time>
      </trkpt>
      <trkpt lat="38.8341800" lon="-0.5343550">
        <ele>328.4</ele>
        <time>2020-11-14T12:09:41Z</time>
      </trkpt>
      <trkpt lat="38.8341360" lon="-0.5344300">
        <ele>328.3</ele>
        <time>2020-11-14T12:09:42Z</time>
      </trkpt>
      <trkpt lat="38.8340920" lon="-0.5345030">
        <ele>328.3</ele>
        <time>2020-11-14T12:09:43Z</time>
      </trkpt>
      <trkpt lat="38.8340440" lon="-0.5345790">
        <ele>328.3</ele>
        <time>2020-11-14T12:09:44Z</time>
      </trkpt>
      <trkpt lat="38.8339960" lon="-0.5346580">
        <ele>328.3</ele>
        <time>2020-11-14T12:09:45Z</time>
      </trkpt>
      <trkpt lat="38.8339450" lon="-0.5347310">
        <ele>328.3</ele>
        <time>2020-11-14T12:09:46Z</time>
      </trkpt>
      <trkpt lat="38.8338980" lon="-0.5347990">
        <ele>328.2</ele>
        <time>2020-11-14T12:09:47Z</time>
      </trkpt>
      <trkpt lat="38.8338450" lon="-0.5348760">
        <ele>328.2</ele>
        <time>2020-11-14T12:09:48Z</time>
      </trkpt>
      <trkpt lat="38.8338010" lon="-0.5349530">
        <ele>328.2</ele>
        <time>2020-11-14T12:09:49Z</time>
      </trkpt>
      <trkpt lat="38.8337530" lon="-0.5350260">
        <ele>328.2</ele>
        <time>2020-11-14T12:09:50Z</time>
      </trkpt>
      <trkpt lat="38.8337070" lon="-0.5351000">
        <ele>328.2</ele>
        <time>2020-11-14T12:09:51Z</time>
      </trkpt>
      <trkpt lat="38.8336490" lon="-0.5351700">
        <ele>328.2</ele>
        <time>2020-11-14T12:09:52Z</time>
      </trkpt>
      <trkpt lat="38.8335990" lon="-0.5352500">
        <ele>328.2</ele>
        <time>2020-11-14T12:09:53Z</time>
      </trkpt>
      <trkpt lat="38.8335520" lon="-0.5353250">
        <ele>328.2</ele>
        <time>2020-11-14T12:09:54Z</time>
      </trkpt>
      <trkpt lat="38.8335050" lon="-0.5353950">
        <ele>328.2</ele>
        <time>2020-11-14T12:09:55Z</time>
      </trkpt>
      <trkpt lat="38.8334580" lon="-0.5354600">
        <ele>328.2</ele>
        <time>2020-11-14T12:09:56Z</time>
      </trkpt>
      <trkpt lat="38.8334140" lon="-0.5355350">
        <ele>328.2</ele>
        <time>2020-11-14T12:09:57Z</time>
      </trkpt>
      <trkpt lat="38.8333710" lon="-0.5356120">
        <ele>328.2</ele>
        <time>2020-11-14T12:09:58Z</time>
      </trkpt>
      <trkpt lat="38.8333260" lon="-0.5356820">
        <ele>328.2</ele>
        <time>2020-11-14T12:09:59Z</time>
      </trkpt>
      <trkpt lat="38.8332790" lon="-0.5357470">
        <ele>328.2</ele>
        <time>2020-11-14T12:10:00Z</time>
      </trkpt>
      <trkpt lat="38.8332390" lon="-0.5358110">
        <ele>328.2</ele>
        <time>2020-11-14T12:10:01Z</time>
      </trkpt>
      <trkpt lat="38.8331890" lon="-0.5358830">
        <ele>328.2</ele>
        <time>2020-11-14T12:10:02Z</time>
      </trkpt>
      <trkpt lat="38.8331420" lon="-0.5359500">
        <ele>328.2</ele>
        <time>2020-11-14T12:10:03Z</time>
      </trkpt>
      <trkpt lat="38.8330980" lon="-0.5360220">
        <ele>328.2</ele>
        <time>2020-11-14T12:10:04Z</time>
      </trkpt>
      <trkpt lat="38.8330530" lon="-0.5360940">
        <ele>328.2</ele>
        <time>2020-11-14T12:10:05Z</time>
      </trkpt>
      <trkpt lat="38.8330140" lon="-0.5361680">
        <ele>328.2</ele>
        <time>2020-11-14T12:10:06Z</time>
      </trkpt>
      <trkpt lat="38.8329720" lon="-0.5362330">
        <ele>328.1</ele>
        <time>2020-11-14T12:10:07Z</time>
      </trkpt>
      <trkpt lat="38.8329260" lon="-0.5362990">
        <ele>328.1</ele>
        <time>2020-11-14T12:10:08Z</time>
      </trkpt>
      <trkpt lat="38.8328920" lon="-0.5363760">
        <ele>328.1</ele>
        <time>2020-11-14T12:10:09Z</time>
      </trkpt>
      <trkpt lat="38.8328490" lon="-0.5364510">
        <ele>328.0</ele>
        <time>2020-11-14T12:10:10Z</time>
      </trkpt>
      <trkpt lat="38.8327990" lon="-0.5365220">
        <ele>327.9</ele>
        <time>2020-11-14T12:10:11Z</time>
      </trkpt>
      <trkpt lat="38.8327490" lon="-0.5365870">
        <ele>327.9</ele>
        <time>2020-11-14T12:10:12Z</time>
      </trkpt>
      <trkpt lat="38.8326870" lon="-0.5366440">
        <ele>327.8</ele>
        <time>2020-11-14T12:10:13Z</time>
      </trkpt>
      <trkpt lat="38.8326290" lon="-0.5366950">
        <ele>327.7</ele>
        <time>2020-11-14T12:10:14Z</time>
      </trkpt>
      <trkpt lat="38.8325700" lon="-0.5367480">
        <ele>327.7</ele>
        <time>2020-11-14T12:10:15Z</time>
      </trkpt>
      <trkpt lat="38.8325080" lon="-0.5367890">
        <ele>327.6</ele>
        <time>2020-11-14T12:10:16Z</time>
      </trkpt>
      <trkpt lat="38.8324540" lon="-0.5368250">
        <ele>327.5</ele>
        <time>2020-11-14T12:10:17Z</time>
      </trkpt>
      <trkpt lat="38.8323760" lon="-0.5368460">
        <ele>327.3</ele>
        <time>2020-11-14T12:10:18Z</time>
      </trkpt>
      <trkpt lat="38.8323040" lon="-0.5368660">
        <ele>327.1</ele>
        <time>2020-11-14T12:10:19Z</time>
      </trkpt>
      <trkpt lat="38.8322320" lon="-0.5368820">
        <ele>326.9</ele>
        <time>2020-11-14T12:10:20Z</time>
      </trkpt>
      <trkpt lat="38.8321570" lon="-0.5368910">
        <ele>326.7</ele>
        <time>2020-11-14T12:10:21Z</time>
      </trkpt>
      <trkpt lat="38.8320720" lon="-0.5369050">
        <ele>326.4</ele>
        <time>2020-11-14T12:10:22Z</time>
      </trkpt>
      <trkpt lat="38.8319910" lon="-0.5369150">
        <ele>326.2</ele>
        <time>2020-11-14T12:10:23Z</time>
      </trkpt>
      <trkpt lat="38.8319270" lon="-0.5369000">
        <ele>325.9</ele>
        <time>2020-11-14T12:10:24Z</time>
      </trkpt>
      <trkpt lat="38.8318440" lon="-0.5368980">
        <ele>325.6</ele>
        <time>2020-11-14T12:10:25Z</time>
      </trkpt>
      <trkpt lat="38.8317600" lon="-0.5368980">
        <ele>325.3</ele>
        <time>2020-11-14T12:10:26Z</time>
      </trkpt>
      <trkpt lat="38.8316750" lon="-0.5369040">
        <ele>325.0</ele>
        <time>2020-11-14T12:10:27Z</time>
      </trkpt>
      <trkpt lat="38.8315820" lon="-0.5369090">
        <ele>324.7</ele>
        <time>2020-11-14T12:10:28Z</time>
      </trkpt>
      <trkpt lat="38.8315030" lon="-0.5369200">
        <ele>324.4</ele>
        <time>2020-11-14T12:10:29Z</time>
      </trkpt>
      <trkpt lat="38.8314230" lon="-0.5369430">
        <ele>324.2</ele>
        <time>2020-11-14T12:10:30Z</time>
      </trkpt>
      <trkpt lat="38.8313400" lon="-0.5369820">
        <ele>324.0</ele>
        <time>2020-11-14T12:10:31Z</time>
      </trkpt>
      <trkpt lat="38.8312580" lon="-0.5370330">
        <ele>323.8</ele>
        <time>2020-11-14T12:10:32Z</time>
      </trkpt>
      <trkpt lat="38.8311950" lon="-0.5371190">
        <ele>323.6</ele>
        <time>2020-11-14T12:10:33Z</time>
      </trkpt>
      <trkpt lat="38.8311430" lon="-0.5372070">
        <ele>323.5</ele>
        <time>2020-11-14T12:10:34Z</time>
      </trkpt>
      <trkpt lat="38.8311040" lon="-0.5373020">
        <ele>323.3</ele>
        <time>2020-11-14T12:10:35Z</time>
      </trkpt>
      <trkpt lat="38.8310650" lon="-0.5374030">
        <ele>323.2</ele>
        <time>2020-11-14T12:10:36Z</time>
      </trkpt>
      <trkpt lat="38.8310230" lon="-0.5374950">
        <ele>323.1</ele>
        <time>2020-11-14T12:10:37Z</time>
      </trkpt>
      <trkpt lat="38.8309970" lon="-0.5375850">
        <ele>323.0</ele>
        <time>2020-11-14T12:10:38Z</time>
      </trkpt>
      <trkpt lat="38.8309610" lon="-0.5376690">
        <ele>323.0</ele>
        <time>2020-11-14T12:10:39Z</time>
      </trkpt>
      <trkpt lat="38.8309290" lon="-0.5377620">
        <ele>323.2</ele>
        <time>2020-11-14T12:10:40Z</time>
      </trkpt>
      <trkpt lat="38.8308950" lon="-0.5378420">
        <ele>323.4</ele>
        <time>2020-11-14T12:10:41Z</time>
      </trkpt>
      <trkpt lat="38.8308630" lon="-0.5379130">
        <ele>323.7</ele>
        <time>2020-11-14T12:10:42Z</time>
      </trkpt>
      <trkpt lat="38.8308290" lon="-0.5379760">
        <ele>324.0</ele>
        <time>2020-11-14T12:10:43Z</time>
      </trkpt>
      <trkpt lat="38.8308010" lon="-0.5380280">
        <ele>324.3</ele>
        <time>2020-11-14T12:10:44Z</time>
      </trkpt>
      <trkpt lat="38.8307810" lon="-0.5380780">
        <ele>324.6</ele>
        <time>2020-11-14T12:10:45Z</time>
      </trkpt>
      <trkpt lat="38.8307620" lon="-0.5381200">
        <ele>324.8</ele>
        <time>2020-11-14T12:10:46Z</time>
      </trkpt>
      <trkpt lat="38.8307470" lon="-0.5381560">
        <ele>325.1</ele>
        <time>2020-11-14T12:10:47Z</time>
      </trkpt>
      <trkpt lat="38.8307340" lon="-0.5381920">
        <ele>325.3</ele>
        <time>2020-11-14T12:10:48Z</time>
      </trkpt>
      <trkpt lat="38.8307240" lon="-0.5382270">
        <ele>325.6</ele>
        <time>2020-11-14T12:10:49Z</time>
      </trkpt>
      <trkpt lat="38.8307270" lon="-0.5382610">
        <ele>325.8</ele>
        <time>2020-11-14T12:10:50Z</time>
      </trkpt>
      <trkpt lat="38.8307190" lon="-0.5382840">
        <ele>326.0</ele>
        <time>2020-11-14T12:10:51Z</time>
      </trkpt>
      <trkpt lat="38.8307180" lon="-0.5383030">
        <ele>326.1</ele>
        <time>2020-11-14T12:10:52Z</time>
      </trkpt>
      <trkpt lat="38.8306950" lon="-0.5383460">
        <ele>326.5</ele>
        <time>2020-11-14T12:10:53Z</time>
      </trkpt>
      <trkpt lat="38.8306830" lon="-0.5383820">
        <ele>326.8</ele>
        <time>2020-11-14T12:10:54Z</time>
      </trkpt>
      <trkpt lat="38.8306610" lon="-0.5384140">
        <ele>327.2</ele>
        <time>2020-11-14T12:10:55Z</time>
      </trkpt>
      <trkpt lat="38.8306460" lon="-0.5384550">
        <ele>327.5</ele>
        <time>2020-11-14T12:10:56Z</time>
      </trkpt>
      <trkpt lat="38.8306410" lon="-0.5384690">
        <ele>327.7</ele>
        <time>2020-11-14T12:10:57Z</time>
      </trkpt>
      <trkpt lat="38.8306260" lon="-0.5385150">
        <ele>328.1</ele>
        <time>2020-11-14T12:10:58Z</time>
      </trkpt>
      <trkpt lat="38.8306210" lon="-0.5385300">
        <ele>328.3</ele>
        <time>2020-11-14T12:10:59Z</time>
      </trkpt>
      <trkpt lat="38.8306060" lon="-0.5385760">
        <ele>328.7</ele>
        <time>2020-11-14T12:11:00Z</time>
      </trkpt>
      <trkpt lat="38.8306010" lon="-0.5385910">
        <ele>328.9</ele>
        <time>2020-11-14T12:11:01Z</time>
      </trkpt>
      <trkpt lat="38.8305850" lon="-0.5386380">
        <ele>329.3</ele>
        <time>2020-11-14T12:11:02Z</time>
      </trkpt>
      <trkpt lat="38.8305790" lon="-0.5386530">
        <ele>329.5</ele>
        <time>2020-11-14T12:11:03Z</time>
      </trkpt>
      <trkpt lat="38.8305670" lon="-0.5386840">
        <ele>329.8</ele>
        <time>2020-11-14T12:11:04Z</time>
      </trkpt>
      <trkpt lat="38.8305580" lon="-0.5387200">
        <ele>330.1</ele>
        <time>2020-11-14T12:11:05Z</time>
      </trkpt>
      <trkpt lat="38.8305510" lon="-0.5387540">
        <ele>330.4</ele>
        <time>2020-11-14T12:11:06Z</time>
      </trkpt>
      <trkpt lat="38.8305500" lon="-0.5388050">
        <ele>330.8</ele>
        <time>2020-11-14T12:11:07Z</time>
      </trkpt>
      <trkpt lat="38.8305510" lon="-0.5388230">
        <ele>330.9</ele>
        <time>2020-11-14T12:11:08Z</time>
      </trkpt>
      <trkpt lat="38.8305550" lon="-0.5388600">
        <ele>331.2</ele>
        <time>2020-11-14T12:11:09Z</time>
      </trkpt>
      <trkpt lat="38.8305620" lon="-0.5388980">
        <ele>331.5</ele>
        <time>2020-11-14T12:11:10Z</time>
      </trkpt>
      <trkpt lat="38.8305720" lon="-0.5389350">
        <ele>331.8</ele>
        <time>2020-11-14T12:11:11Z</time>
      </trkpt>
      <trkpt lat="38.8305830" lon="-0.5389690">
        <ele>332.1</ele>
        <time>2020-11-14T12:11:12Z</time>
      </trkpt>
      <trkpt lat="38.8305950" lon="-0.5390030">
        <ele>332.4</ele>
        <time>2020-11-14T12:11:13Z</time>
      </trkpt>
      <trkpt lat="38.8306080" lon="-0.5390360">
        <ele>332.6</ele>
        <time>2020-11-14T12:11:14Z</time>
      </trkpt>
      <trkpt lat="38.8306250" lon="-0.5390680">
        <ele>332.8</ele>
        <time>2020-11-14T12:11:15Z</time>
      </trkpt>
      <trkpt lat="38.8306440" lon="-0.5391000">
        <ele>332.9</ele>
        <time>2020-11-14T12:11:16Z</time>
      </trkpt>
      <trkpt lat="38.8306630" lon="-0.5391310">
        <ele>333.0</ele>
        <time>2020-11-14T12:11:17Z</time>
      </trkpt>
      <trkpt lat="38.8306820" lon="-0.5391600">
        <ele>333.1</ele>
        <time>2020-11-14T12:11:18Z</time>
      </trkpt>
      <trkpt lat="38.8307000" lon="-0.5391890">
        <ele>333.2</ele>
        <time>2020-11-14T12:11:19Z</time>
      </trkpt>
      <trkpt lat="38.8307170" lon="-0.5392170">
        <ele>333.2</ele>
        <time>2020-11-14T12:11:20Z</time>
      </trkpt>
      <trkpt lat="38.8307340" lon="-0.5392470">
        <ele>333.3</ele>
        <time>2020-11-14T12:11:21Z</time>
      </trkpt>
      <trkpt lat="38.8307500" lon="-0.5392770">
        <ele>333.4</ele>
        <time>2020-11-14T12:11:22Z</time>
      </trkpt>
      <trkpt lat="38.8307660" lon="-0.5393070">
        <ele>333.6</ele>
        <time>2020-11-14T12:11:23Z</time>
      </trkpt>
      <trkpt lat="38.8307830" lon="-0.5393380">
        <ele>333.9</ele>
        <time>2020-11-14T12:11:24Z</time>
      </trkpt>
      <trkpt lat="38.8307990" lon="-0.5393670">
        <ele>334.1</ele>
        <time>2020-11-14T12:11:25Z</time>
      </trkpt>
      <trkpt lat="38.8308160" lon="-0.5393950">
        <ele>334.4</ele>
        <time>2020-11-14T12:11:26Z</time>
      </trkpt>
      <trkpt lat="38.8308340" lon="-0.5394240">
        <ele>334.6</ele>
        <time>2020-11-14T12:11:27Z</time>
      </trkpt>
      <trkpt lat="38.8308520" lon="-0.5394530">
        <ele>334.9</ele>
        <time>2020-11-14T12:11:28Z</time>
      </trkpt>
      <trkpt lat="38.8308700" lon="-0.5394830">
        <ele>335.2</ele>
        <time>2020-11-14T12:11:29Z</time>
      </trkpt>
      <trkpt lat="38.8308860" lon="-0.5395120">
        <ele>335.4</ele>
        <time>2020-11-14T12:11:30Z</time>
      </trkpt>
      <trkpt lat="38.8309030" lon="-0.5395420">
        <ele>335.7</ele>
        <time>2020-11-14T12:11:31Z</time>
      </trkpt>
      <trkpt lat="38.8309190" lon="-0.5395710">
        <ele>335.9</ele>
        <time>2020-11-14T12:11:32Z</time>
      </trkpt>
      <trkpt lat="38.8309430" lon="-0.5396120">
        <ele>336.3</ele>
        <time>2020-11-14T12:11:33Z</time>
      </trkpt>
      <trkpt lat="38.8309500" lon="-0.5396260">
        <ele>336.4</ele>
        <time>2020-11-14T12:11:34Z</time>
      </trkpt>
      <trkpt lat="38.8309750" lon="-0.5396630">
        <ele>336.7</ele>
        <time>2020-11-14T12:11:35Z</time>
      </trkpt>
      <trkpt lat="38.8309830" lon="-0.5396750">
        <ele>336.8</ele>
        <time>2020-11-14T12:11:36Z</time>
      </trkpt>
      <trkpt lat="38.8310090" lon="-0.5397120">
        <ele>337.2</ele>
        <time>2020-11-14T12:11:37Z</time>
      </trkpt>
      <trkpt lat="38.8310170" lon="-0.5397250">
        <ele>337.3</ele>
        <time>2020-11-14T12:11:38Z</time>
      </trkpt>
      <trkpt lat="38.8310410" lon="-0.5397630">
        <ele>337.6</ele>
        <time>2020-11-14T12:11:39Z</time>
      </trkpt>
      <trkpt lat="38.8310490" lon="-0.5397760">
        <ele>337.7</ele>
        <time>2020-11-14T12:11:40Z</time>
      </trkpt>
      <trkpt lat="38.8310720" lon="-0.5398160">
        <ele>338.0</ele>
        <time>2020-11-14T12:11:41Z</time>
      </trkpt>
      <trkpt lat="38.8310790" lon="-0.5398300">
        <ele>338.1</ele>
        <time>2020-11-14T12:11:42Z</time>
      </trkpt>
      <trkpt lat="38.8311010" lon="-0.5398690">
        <ele>338.5</ele>
        <time>2020-11-14T12:11:43Z</time>
      </trkpt>
      <trkpt lat="38.8311080" lon="-0.5398830">
        <ele>338.6</ele>
        <time>2020-11-14T12:11:44Z</time>
      </trkpt>
      <trkpt lat="38.8311310" lon="-0.5399230">
        <ele>338.9</ele>
        <time>2020-11-14T12:11:45Z</time>
      </trkpt>
      <trkpt lat="38.8311380" lon="-0.5399360">
        <ele>339.0</ele>
        <time>2020-11-14T12:11:46Z</time>
      </trkpt>
      <trkpt lat="38.8311580" lon="-0.5399720">
        <ele>339.2</ele>
        <time>2020-11-14T12:11:47Z</time>
      </trkpt>
      <trkpt lat="38.8311640" lon="-0.5399840">
        <ele>339.3</ele>
        <time>2020-11-14T12:11:48Z</time>
      </trkpt>
      <trkpt lat="38.8311760" lon="-0.5400280">
        <ele>339.6</ele>
        <time>2020-11-14T12:11:49Z</time>
      </trkpt>
      <trkpt lat="38.8311780" lon="-0.5400450">
        <ele>339.7</ele>
        <time>2020-11-14T12:11:50Z</time>
      </trkpt>
      <trkpt lat="38.8311790" lon="-0.5400820">
        <ele>339.9</ele>
        <time>2020-11-14T12:11:51Z</time>
      </trkpt>
      <trkpt lat="38.8311810" lon="-0.5401200">
        <ele>340.1</ele>
        <time>2020-11-14T12:11:52Z</time>
      </trkpt>
      <trkpt lat="38.8311850" lon="-0.5401580">
        <ele>340.3</ele>
        <time>2020-11-14T12:11:53Z</time>
      </trkpt>
      <trkpt lat="38.8311930" lon="-0.5401960">
        <ele>340.5</ele>
        <time>2020-11-14T12:11:54Z</time>
      </trkpt>
      <trkpt lat="38.8312020" lon="-0.5402360">
        <ele>340.7</ele>
        <time>2020-11-14T12:11:55Z</time>
      </trkpt>
      <trkpt lat="38.8312100" lon="-0.5402770">
        <ele>340.9</ele>
        <time>2020-11-14T12:11:56Z</time>
      </trkpt>
      <trkpt lat="38.8312170" lon="-0.5403200">
        <ele>341.1</ele>
        <time>2020-11-14T12:11:57Z</time>
      </trkpt>
      <trkpt lat="38.8312210" lon="-0.5403640">
        <ele>341.2</ele>
        <time>2020-11-14T12:11:58Z</time>
      </trkpt>
      <trkpt lat="38.8312220" lon="-0.5404090">
        <ele>341.4</ele>
        <time>2020-11-14T12:11:59Z</time>
      </trkpt>
      <trkpt lat="38.8312150" lon="-0.5404550">
        <ele>341.6</ele>
        <time>2020-11-14T12:12:00Z</time>
      </trkpt>
      <trkpt lat="38.8312000" lon="-0.5404990">
        <ele>341.7</ele>
        <time>2020-11-14T12:12:01Z</time>
      </trkpt>
      <trkpt lat="38.8311780" lon="-0.5405400">
        <ele>341.8</ele>
        <time>2020-11-14T12:12:02Z</time>
      </trkpt>
      <trkpt lat="38.8311520" lon="-0.5405750">
        <ele>341.8</ele>
        <time>2020-11-14T12:12:03Z</time>
      </trkpt>
      <trkpt lat="38.8311240" lon="-0.5406030">
        <ele>341.9</ele>
        <time>2020-11-14T12:12:04Z</time>
      </trkpt>
      <trkpt lat="38.8310960" lon="-0.5406270">
        <ele>342.0</ele>
        <time>2020-11-14T12:12:05Z</time>
      </trkpt>
      <trkpt lat="38.8310680" lon="-0.5406450">
        <ele>342.1</ele>
        <time>2020-11-14T12:12:06Z</time>
      </trkpt>
      <trkpt lat="38.8310420" lon="-0.5406610">
        <ele>342.1</ele>
        <time>2020-11-14T12:12:07Z</time>
      </trkpt>
      <trkpt lat="38.8310170" lon="-0.5406760">
        <ele>342.2</ele>
        <time>2020-11-14T12:12:08Z</time>
      </trkpt>
      <trkpt lat="38.8309930" lon="-0.5406920">
        <ele>342.3</ele>
        <time>2020-11-14T12:12:09Z</time>
      </trkpt>
      <trkpt lat="38.8309590" lon="-0.5407180">
        <ele>342.5</ele>
        <time>2020-11-14T12:12:10Z</time>
      </trkpt>
      <trkpt lat="38.8309470" lon="-0.5407270">
        <ele>342.7</ele>
        <time>2020-11-14T12:12:11Z</time>
      </trkpt>
      <trkpt lat="38.8309170" lon="-0.5407570">
        <ele>343.0</ele>
        <time>2020-11-14T12:12:12Z</time>
      </trkpt>
      <trkpt lat="38.8309070" lon="-0.5407670">
        <ele>343.2</ele>
        <time>2020-11-14T12:12:13Z</time>
      </trkpt>
      <trkpt lat="38.8308780" lon="-0.5408020">
        <ele>343.6</ele>
        <time>2020-11-14T12:12:14Z</time>
      </trkpt>
      <trkpt lat="38.8308680" lon="-0.5408130">
        <ele>343.7</ele>
        <time>2020-11-14T12:12:15Z</time>
      </trkpt>
      <trkpt lat="38.8308380" lon="-0.5408430">
        <ele>344.2</ele>
        <time>2020-11-14T12:12:16Z</time>
      </trkpt>
      <trkpt lat="38.8308270" lon="-0.5408520">
        <ele>344.3</ele>
        <time>2020-11-14T12:12:17Z</time>
      </trkpt>
      <trkpt lat="38.8307950" lon="-0.5408820">
        <ele>344.8</ele>
        <time>2020-11-14T12:12:18Z</time>
      </trkpt>
      <trkpt lat="38.8307840" lon="-0.5408920">
        <ele>344.9</ele>
        <time>2020-11-14T12:12:19Z</time>
      </trkpt>
      <trkpt lat="38.8307510" lon="-0.5409230">
        <ele>345.2</ele>
        <time>2020-11-14T12:12:20Z</time>
      </trkpt>
      <trkpt lat="38.8307400" lon="-0.5409330">
        <ele>345.3</ele>
        <time>2020-11-14T12:12:21Z</time>
      </trkpt>
      <trkpt lat="38.8307070" lon="-0.5409620">
        <ele>345.6</ele>
        <time>2020-11-14T12:12:22Z</time>
      </trkpt>
      <trkpt lat="38.8306960" lon="-0.5409720">
        <ele>345.7</ele>
        <time>2020-11-14T12:12:23Z</time>
      </trkpt>
      <trkpt lat="38.8306650" lon="-0.5410030">
        <ele>345.9</ele>
        <time>2020-11-14T12:12:24Z</time>
      </trkpt>
      <trkpt lat="38.8306540" lon="-0.5410130">
        <ele>346.0</ele>
        <time>2020-11-14T12:12:25Z</time>
      </trkpt>
      <trkpt lat="38.8306230" lon="-0.5410450">
        <ele>346.3</ele>
        <time>2020-11-14T12:12:26Z</time>
      </trkpt>
      <trkpt lat="38.8306130" lon="-0.5410550">
        <ele>346.4</ele>
        <time>2020-11-14T12:12:27Z</time>
      </trkpt>
      <trkpt lat="38.8305810" lon="-0.5410880">
        <ele>346.6</ele>
        <time>2020-11-14T12:12:28Z</time>
      </trkpt>
      <trkpt lat="38.8305700" lon="-0.5410980">
        <ele>346.7</ele>
        <time>2020-11-14T12:12:29Z</time>
      </trkpt>
      <trkpt lat="38.8305390" lon="-0.5411300">
        <ele>347.0</ele>
        <time>2020-11-14T12:12:30Z</time>
      </trkpt>
      <trkpt lat="38.8305290" lon="-0.5411400">
        <ele>347.1</ele>
        <time>2020-11-14T12:12:31Z</time>
      </trkpt>
      <trkpt lat="38.8304980" lon="-0.5411720">
        <ele>347.4</ele>
        <time>2020-11-14T12:12:32Z</time>
      </trkpt>
      <trkpt lat="38.8304880" lon="-0.5411820">
        <ele>347.5</ele>
        <time>2020-11-14T12:12:33Z</time>
      </trkpt>
      <trkpt lat="38.8304560" lon="-0.5412140">
        <ele>347.8</ele>
        <time>2020-11-14T12:12:34Z</time>
      </trkpt>
      <trkpt lat="38.8304450" lon="-0.5412240">
        <ele>347.8</ele>
        <time>2020-11-14T12:12:35Z</time>
      </trkpt>
      <trkpt lat="38.8304140" lon="-0.5412540">
        <ele>348.1</ele>
        <time>2020-11-14T12:12:36Z</time>
      </trkpt>
      <trkpt lat="38.8304030" lon="-0.5412630">
        <ele>348.2</ele>
        <time>2020-11-14T12:12:37Z</time>
      </trkpt>
      <trkpt lat="38.8303720" lon="-0.5412920">
        <ele>348.5</ele>
        <time>2020-11-14T12:12:38Z</time>
      </trkpt>
      <trkpt lat="38.8303620" lon="-0.5413020">
        <ele>348.6</ele>
        <time>2020-11-14T12:12:39Z</time>
      </trkpt>
      <trkpt lat="38.8303310" lon="-0.5413310">
        <ele>348.9</ele>
        <time>2020-11-14T12:12:40Z</time>
      </trkpt>
      <trkpt lat="38.8303210" lon="-0.5413400">
        <ele>348.9</ele>
        <time>2020-11-14T12:12:41Z</time>
      </trkpt>
      <trkpt lat="38.8302910" lon="-0.5413680">
        <ele>349.2</ele>
        <time>2020-11-14T12:12:42Z</time>
      </trkpt>
      <trkpt lat="38.8302810" lon="-0.5413770">
        <ele>349.3</ele>
        <time>2020-11-14T12:12:43Z</time>
      </trkpt>
      <trkpt lat="38.8302530" lon="-0.5414050">
        <ele>349.6</ele>
        <time>2020-11-14T12:12:44Z</time>
      </trkpt>
      <trkpt lat="38.8302430" lon="-0.5414140">
        <ele>349.6</ele>
        <time>2020-11-14T12:12:45Z</time>
      </trkpt>
      <trkpt lat="38.8302140" lon="-0.5414430">
        <ele>349.9</ele>
        <time>2020-11-14T12:12:46Z</time>
      </trkpt>
      <trkpt lat="38.8302040" lon="-0.5414520">
        <ele>349.9</ele>
        <time>2020-11-14T12:12:47Z</time>
      </trkpt>
      <trkpt lat="38.8301770" lon="-0.5414790">
        <ele>350.1</ele>
        <time>2020-11-14T12:12:48Z</time>
      </trkpt>
      <trkpt lat="38.8301670" lon="-0.5414880">
        <ele>350.2</ele>
        <time>2020-11-14T12:12:49Z</time>
      </trkpt>
      <trkpt lat="38.8301350" lon="-0.5415140">
        <ele>350.4</ele>
        <time>2020-11-14T12:12:50Z</time>
      </trkpt>
      <trkpt lat="38.8301240" lon="-0.5415220">
        <ele>350.5</ele>
        <time>2020-11-14T12:12:51Z</time>
      </trkpt>
      <trkpt lat="38.8300910" lon="-0.5415450">
        <ele>350.7</ele>
        <time>2020-11-14T12:12:52Z</time>
      </trkpt>
      <trkpt lat="38.8300800" lon="-0.5415520">
        <ele>350.8</ele>
        <time>2020-11-14T12:12:53Z</time>
      </trkpt>
      <trkpt lat="38.8300480" lon="-0.5415730">
        <ele>351.0</ele>
        <time>2020-11-14T12:12:54Z</time>
      </trkpt>
      <trkpt lat="38.8300370" lon="-0.5415790">
        <ele>351.1</ele>
        <time>2020-11-14T12:12:55Z</time>
      </trkpt>
      <trkpt lat="38.8300040" lon="-0.5415990">
        <ele>351.3</ele>
        <time>2020-11-14T12:12:56Z</time>
      </trkpt>
      <trkpt lat="38.8299920" lon="-0.5416050">
        <ele>351.4</ele>
        <time>2020-11-14T12:12:57Z</time>
      </trkpt>
      <trkpt lat="38.8299560" lon="-0.5416220">
        <ele>351.6</ele>
        <time>2020-11-14T12:12:58Z</time>
      </trkpt>
      <trkpt lat="38.8299440" lon="-0.5416280">
        <ele>351.7</ele>
        <time>2020-11-14T12:12:59Z</time>
      </trkpt>
      <trkpt lat="38.8299080" lon="-0.5416500">
        <ele>351.9</ele>
        <time>2020-11-14T12:13:00Z</time>
      </trkpt>
      <trkpt lat="38.8298960" lon="-0.5416570">
        <ele>352.0</ele>
        <time>2020-11-14T12:13:01Z</time>
      </trkpt>
      <trkpt lat="38.8298620" lon="-0.5416800">
        <ele>352.3</ele>
        <time>2020-11-14T12:13:02Z</time>
      </trkpt>
      <trkpt lat="38.8298500" lon="-0.5416870">
        <ele>352.3</ele>
        <time>2020-11-14T12:13:03Z</time>
      </trkpt>
      <trkpt lat="38.8298150" lon="-0.5417080">
        <ele>352.6</ele>
        <time>2020-11-14T12:13:04Z</time>
      </trkpt>
      <trkpt lat="38.8298030" lon="-0.5417150">
        <ele>352.6</ele>
        <time>2020-11-14T12:13:05Z</time>
      </trkpt>
      <trkpt lat="38.8297670" lon="-0.5417330">
        <ele>352.9</ele>
        <time>2020-11-14T12:13:06Z</time>
      </trkpt>
      <trkpt lat="38.8297540" lon="-0.5417380">
        <ele>353.0</ele>
        <time>2020-11-14T12:13:07Z</time>
      </trkpt>
      <trkpt lat="38.8297170" lon="-0.5417540">
        <ele>353.1</ele>
        <time>2020-11-14T12:13:08Z</time>
      </trkpt>
      <trkpt lat="38.8297040" lon="-0.5417590">
        <ele>353.2</ele>
        <time>2020-11-14T12:13:09Z</time>
      </trkpt>
      <trkpt lat="38.8296670" lon="-0.5417750">
        <ele>353.4</ele>
        <time>2020-11-14T12:13:10Z</time>
      </trkpt>
      <trkpt lat="38.8296540" lon="-0.5417800">
        <ele>353.5</ele>
        <time>2020-11-14T12:13:11Z</time>
      </trkpt>
      <trkpt lat="38.8296280" lon="-0.5417920">
        <ele>353.6</ele>
        <time>2020-11-14T12:13:12Z</time>
      </trkpt>
      <trkpt lat="38.8296010" lon="-0.5418030">
        <ele>353.8</ele>
        <time>2020-11-14T12:13:13Z</time>
      </trkpt>
      <trkpt lat="38.8295750" lon="-0.5418160">
        <ele>353.9</ele>
        <time>2020-11-14T12:13:14Z</time>
      </trkpt>
      <trkpt lat="38.8295500" lon="-0.5418290">
        <ele>354.1</ele>
        <time>2020-11-14T12:13:15Z</time>
      </trkpt>
      <trkpt lat="38.8295240" lon="-0.5418430">
        <ele>354.2</ele>
        <time>2020-11-14T12:13:16Z</time>
      </trkpt>
      <trkpt lat="38.8294970" lon="-0.5418560">
        <ele>354.3</ele>
        <time>2020-11-14T12:13:17Z</time>
      </trkpt>
      <trkpt lat="38.8294700" lon="-0.5418690">
        <ele>354.5</ele>
        <time>2020-11-14T12:13:18Z</time>
      </trkpt>
      <trkpt lat="38.8294420" lon="-0.5418830">
        <ele>354.6</ele>
        <time>2020-11-14T12:13:19Z</time>
      </trkpt>
      <trkpt lat="38.8294130" lon="-0.5418970">
        <ele>354.7</ele>
        <time>2020-11-14T12:13:20Z</time>
      </trkpt>
      <trkpt lat="38.8293830" lon="-0.5419120">
        <ele>354.9</ele>
        <time>2020-11-14T12:13:21Z</time>
      </trkpt>
      <trkpt lat="38.8293510" lon="-0.5419280">
        <ele>355.0</ele>
        <time>2020-11-14T12:13:22Z</time>
      </trkpt>
      <trkpt lat="38.8293180" lon="-0.5419430">
        <ele>355.1</ele>
        <time>2020-11-14T12:13:23Z</time>
      </trkpt>
      <trkpt lat="38.8292850" lon="-0.5419580">
        <ele>355.2</ele>
        <time>2020-11-14T12:13:24Z</time>
      </trkpt>
      <trkpt lat="38.8292510" lon="-0.5419740">
        <ele>355.4</ele>
        <time>2020-11-14T12:13:25Z</time>
      </trkpt>
      <trkpt lat="38.8292160" lon="-0.5419900">
        <ele>355.5</ele>
        <time>2020-11-14T12:13:26Z</time>
      </trkpt>
      <trkpt lat="38.8291820" lon="-0.5420090">
        <ele>355.7</ele>
        <time>2020-11-14T12:13:27Z</time>
      </trkpt>
      <trkpt lat="38.8291490" lon="-0.5420280">
        <ele>355.8</ele>
        <time>2020-11-14T12:13:28Z</time>
      </trkpt>
      <trkpt lat="38.8291150" lon="-0.5420470">
        <ele>355.9</ele>
        <time>2020-11-14T12:13:29Z</time>
      </trkpt>
      <trkpt lat="38.8290820" lon="-0.5420680">
        <ele>356.1</ele>
        <time>2020-11-14T12:13:30Z</time>
      </trkpt>
      <trkpt lat="38.8290480" lon="-0.5420890">
        <ele>356.2</ele>
        <time>2020-11-14T12:13:31Z</time>
      </trkpt>
      <trkpt lat="38.8290150" lon="-0.5421110">
        <ele>356.4</ele>
        <time>2020-11-14T12:13:32Z</time>
      </trkpt>
      <trkpt lat="38.8289830" lon="-0.5421320">
        <ele>356.6</ele>
        <time>2020-11-14T12:13:33Z</time>
      </trkpt>
      <trkpt lat="38.8289520" lon="-0.5421520">
        <ele>356.7</ele>
        <time>2020-11-14T12:13:34Z</time>
      </trkpt>
      <trkpt lat="38.8289220" lon="-0.5421720">
        <ele>356.9</ele>
        <time>2020-11-14T12:13:35Z</time>
      </trkpt>
      <trkpt lat="38.8288920" lon="-0.5421930">
        <ele>357.1</ele>
        <time>2020-11-14T12:13:36Z</time>
      </trkpt>
      <trkpt lat="38.8288630" lon="-0.5422160">
        <ele>357.2</ele>
        <time>2020-11-14T12:13:37Z</time>
      </trkpt>
      <trkpt lat="38.8288350" lon="-0.5422400">
        <ele>357.4</ele>
        <time>2020-11-14T12:13:38Z</time>
      </trkpt>
      <trkpt lat="38.8288050" lon="-0.5422650">
        <ele>357.6</ele>
        <time>2020-11-14T12:13:39Z</time>
      </trkpt>
      <trkpt lat="38.8287760" lon="-0.5422870">
        <ele>357.7</ele>
        <time>2020-11-14T12:13:40Z</time>
      </trkpt>
      <trkpt lat="38.8287460" lon="-0.5423070">
        <ele>357.9</ele>
        <time>2020-11-14T12:13:41Z</time>
      </trkpt>
      <trkpt lat="38.8287160" lon="-0.5423260">
        <ele>358.1</ele>
        <time>2020-11-14T12:13:42Z</time>
      </trkpt>
      <trkpt lat="38.8286860" lon="-0.5423450">
        <ele>358.3</ele>
        <time>2020-11-14T12:13:43Z</time>
      </trkpt>
      <trkpt lat="38.8286570" lon="-0.5423640">
        <ele>358.5</ele>
        <time>2020-11-14T12:13:44Z</time>
      </trkpt>
      <trkpt lat="38.8286280" lon="-0.5423810">
        <ele>358.7</ele>
        <time>2020-11-14T12:13:45Z</time>
      </trkpt>
      <trkpt lat="38.8285990" lon="-0.5423970">
        <ele>358.9</ele>
        <time>2020-11-14T12:13:46Z</time>
      </trkpt>
      <trkpt lat="38.8285680" lon="-0.5424100">
        <ele>359.1</ele>
        <time>2020-11-14T12:13:47Z</time>
      </trkpt>
      <trkpt lat="38.8285360" lon="-0.5424200">
        <ele>359.3</ele>
        <time>2020-11-14T12:13:48Z</time>
      </trkpt>
      <trkpt lat="38.8285030" lon="-0.5424270">
        <ele>359.5</ele>
        <time>2020-11-14T12:13:49Z</time>
      </trkpt>
      <trkpt lat="38.8284700" lon="-0.5424330">
        <ele>359.7</ele>
        <time>2020-11-14T12:13:50Z</time>
      </trkpt>
      <trkpt lat="38.8284360" lon="-0.5424370">
        <ele>359.9</ele>
        <time>2020-11-14T12:13:51Z</time>
      </trkpt>
      <trkpt lat="38.8284030" lon="-0.5424390">
        <ele>360.1</ele>
        <time>2020-11-14T12:13:52Z</time>
      </trkpt>
      <trkpt lat="38.8283710" lon="-0.5424400">
        <ele>360.4</ele>
        <time>2020-11-14T12:13:53Z</time>
      </trkpt>
      <trkpt lat="38.8283380" lon="-0.5424390">
        <ele>360.6</ele>
        <time>2020-11-14T12:13:54Z</time>
      </trkpt>
      <trkpt lat="38.8283060" lon="-0.5424380">
        <ele>360.8</ele>
        <time>2020-11-14T12:13:55Z</time>
      </trkpt>
      <trkpt lat="38.8282730" lon="-0.5424380">
        <ele>361.0</ele>
        <time>2020-11-14T12:13:56Z</time>
      </trkpt>
      <trkpt lat="38.8282420" lon="-0.5424400">
        <ele>361.2</ele>
        <time>2020-11-14T12:13:57Z</time>
      </trkpt>
      <trkpt lat="38.8282110" lon="-0.5424420">
        <ele>361.4</ele>
        <time>2020-11-14T12:13:58Z</time>
      </trkpt>
      <trkpt lat="38.8281800" lon="-0.5424440">
        <ele>361.6</ele>
        <time>2020-11-14T12:13:59Z</time>
      </trkpt>
      <trkpt lat="38.8281500" lon="-0.5424470">
        <ele>361.8</ele>
        <time>2020-11-14T12:14:00Z</time>
      </trkpt>
      <trkpt lat="38.8281200" lon="-0.5424510">
        <ele>362.0</ele>
        <time>2020-11-14T12:14:01Z</time>
      </trkpt>
      <trkpt lat="38.8280910" lon="-0.5424560">
        <ele>362.2</ele>
        <time>2020-11-14T12:14:02Z</time>
      </trkpt>
      <trkpt lat="38.8280630" lon="-0.5424620">
        <ele>362.4</ele>
        <time>2020-11-14T12:14:03Z</time>
      </trkpt>
      <trkpt lat="38.8280360" lon="-0.5424680">
        <ele>362.6</ele>
        <time>2020-11-14T12:14:04Z</time>
      </trkpt>
      <trkpt lat="38.8280080" lon="-0.5424750">
        <ele>362.8</ele>
        <time>2020-11-14T12:14:05Z</time>
      </trkpt>
      <trkpt lat="38.8279810" lon="-0.5424830">
        <ele>363.0</ele>
        <time>2020-11-14T12:14:06Z</time>
      </trkpt>
      <trkpt lat="38.8279540" lon="-0.5424920">
        <ele>363.2</ele>
        <time>2020-11-14T12:14:07Z</time>
      </trkpt>
      <trkpt lat="38.8279280" lon="-0.5425050">
        <ele>363.3</ele>
        <time>2020-11-14T12:14:08Z</time>
      </trkpt>
      <trkpt lat="38.8279030" lon="-0.5425210">
        <ele>363.5</ele>
        <time>2020-11-14T12:14:09Z</time>
      </trkpt>
      <trkpt lat="38.8278790" lon="-0.5425410">
        <ele>363.7</ele>
        <time>2020-11-14T12:14:10Z</time>
      </trkpt>
      <trkpt lat="38.8278570" lon="-0.5425650">
        <ele>363.9</ele>
        <time>2020-11-14T12:14:11Z</time>
      </trkpt>
      <trkpt lat="38.8278370" lon="-0.5425910">
        <ele>364.1</ele>
        <time>2020-11-14T12:14:12Z</time>
      </trkpt>
      <trkpt lat="38.8278160" lon="-0.5426180">
        <ele>364.3</ele>
        <time>2020-11-14T12:14:13Z</time>
      </trkpt>
      <trkpt lat="38.8277950" lon="-0.5426450">
        <ele>364.5</ele>
        <time>2020-11-14T12:14:14Z</time>
      </trkpt>
      <trkpt lat="38.8277740" lon="-0.5426700">
        <ele>364.7</ele>
        <time>2020-11-14T12:14:15Z</time>
      </trkpt>
      <trkpt lat="38.8277550" lon="-0.5426950">
        <ele>364.9</ele>
        <time>2020-11-14T12:14:16Z</time>
      </trkpt>
      <trkpt lat="38.8277300" lon="-0.5427350">
        <ele>365.2</ele>
        <time>2020-11-14T12:14:17Z</time>
      </trkpt>
      <trkpt lat="38.8277220" lon="-0.5427480">
        <ele>365.3</ele>
        <time>2020-11-14T12:14:18Z</time>
      </trkpt>
      <trkpt lat="38.8276990" lon="-0.5427860">
        <ele>365.6</ele>
        <time>2020-11-14T12:14:19Z</time>
      </trkpt>
      <trkpt lat="38.8276900" lon="-0.5427980">
        <ele>365.7</ele>
        <time>2020-11-14T12:14:20Z</time>
      </trkpt>
      <trkpt lat="38.8276660" lon="-0.5428310">
        <ele>365.9</ele>
        <time>2020-11-14T12:14:21Z</time>
      </trkpt>
      <trkpt lat="38.8276580" lon="-0.5428420">
        <ele>366.0</ele>
        <time>2020-11-14T12:14:22Z</time>
      </trkpt>
      <trkpt lat="38.8276370" lon="-0.5428830">
        <ele>366.3</ele>
        <time>2020-11-14T12:14:23Z</time>
      </trkpt>
      <trkpt lat="38.8276300" lon="-0.5428970">
        <ele>366.4</ele>
        <time>2020-11-14T12:14:24Z</time>
      </trkpt>
      <trkpt lat="38.8276100" lon="-0.5429370">
        <ele>366.7</ele>
        <time>2020-11-14T12:14:25Z</time>
      </trkpt>
      <trkpt lat="38.8276020" lon="-0.5429500">
        <ele>366.8</ele>
        <time>2020-11-14T12:14:26Z</time>
      </trkpt>
      <trkpt lat="38.8275770" lon="-0.5429860">
        <ele>367.1</ele>
        <time>2020-11-14T12:14:27Z</time>
      </trkpt>
      <trkpt lat="38.8275680" lon="-0.5429970">
        <ele>367.2</ele>
        <time>2020-11-14T12:14:28Z</time>
      </trkpt>
      <trkpt lat="38.8275410" lon="-0.5430290">
        <ele>367.4</ele>
        <time>2020-11-14T12:14:29Z</time>
      </trkpt>
      <trkpt lat="38.8275320" lon="-0.5430400">
        <ele>367.5</ele>
        <time>2020-11-14T12:14:30Z</time>
      </trkpt>
      <trkpt lat="38.8275060" lon="-0.5430750">
        <ele>367.8</ele>
        <time>2020-11-14T12:14:31Z</time>
      </trkpt>
      <trkpt lat="38.8274970" lon="-0.5430860">
        <ele>367.9</ele>
        <time>2020-11-14T12:14:32Z</time>
      </trkpt>
      <trkpt lat="38.8274700" lon="-0.5431210">
        <ele>368.2</ele>
        <time>2020-11-14T12:14:33Z</time>
      </trkpt>
      <trkpt lat="38.8274610" lon="-0.5431310">
        <ele>368.3</ele>
        <time>2020-11-14T12:14:34Z</time>
      </trkpt>
      <trkpt lat="38.8274330" lon="-0.5431640">
        <ele>368.6</ele>
        <time>2020-11-14T12:14:35Z</time>
      </trkpt>
      <trkpt lat="38.8274240" lon="-0.5431740">
        <ele>368.7</ele>
        <time>2020-11-14T12:14:36Z</time>
      </trkpt>
      <trkpt lat="38.8273980" lon="-0.5432070">
        <ele>369.0</ele>
        <time>2020-11-14T12:14:37Z</time>
      </trkpt>
      <trkpt lat="38.8273890" lon="-0.5432180">
        <ele>369.1</ele>
        <time>2020-11-14T12:14:38Z</time>
      </trkpt>
      <trkpt lat="38.8273640" lon="-0.5432530">
        <ele>369.4</ele>
        <time>2020-11-14T12:14:39Z</time>
      </trkpt>
      <trkpt lat="38.8273560" lon="-0.5432640">
        <ele>369.5</ele>
        <time>2020-11-14T12:14:40Z</time>
      </trkpt>
      <trkpt lat="38.8273290" lon="-0.5432970">
        <ele>369.8</ele>
        <time>2020-11-14T12:14:41Z</time>
      </trkpt>
      <trkpt lat="38.8273200" lon="-0.5433070">
        <ele>369.9</ele>
        <time>2020-11-14T12:14:42Z</time>
      </trkpt>
      <trkpt lat="38.8272940" lon="-0.5433390">
        <ele>370.2</ele>
        <time>2020-11-14T12:14:43Z</time>
      </trkpt>
      <trkpt lat="38.8272850" lon="-0.5433490">
        <ele>370.3</ele>
        <time>2020-11-14T12:14:44Z</time>
      </trkpt>
      <trkpt lat="38.8272580" lon="-0.5433790">
        <ele>370.6</ele>
        <time>2020-11-14T12:14:45Z</time>
      </trkpt>
      <trkpt lat="38.8272490" lon="-0.5433880">
        <ele>370.7</ele>
        <time>2020-11-14T12:14:46Z</time>
      </trkpt>
      <trkpt lat="38.8272230" lon="-0.5434180">
        <ele>371.0</ele>
        <time>2020-11-14T12:14:47Z</time>
      </trkpt>
      <trkpt lat="38.8272140" lon="-0.5434280">
        <ele>371.1</ele>
        <time>2020-11-14T12:14:48Z</time>
      </trkpt>
      <trkpt lat="38.8271890" lon="-0.5434590">
        <ele>371.4</ele>
        <time>2020-11-14T12:14:49Z</time>
      </trkpt>
      <trkpt lat="38.8271810" lon="-0.5434690">
        <ele>371.5</ele>
        <time>2020-11-14T12:14:50Z</time>
      </trkpt>
      <trkpt lat="38.8271590" lon="-0.5435020">
        <ele>371.7</ele>
        <time>2020-11-14T12:14:51Z</time>
      </trkpt>
      <trkpt lat="38.8271520" lon="-0.5435130">
        <ele>371.8</ele>
        <time>2020-11-14T12:14:52Z</time>
      </trkpt>
      <trkpt lat="38.8271300" lon="-0.5435480">
        <ele>372.1</ele>
        <time>2020-11-14T12:14:53Z</time>
      </trkpt>
      <trkpt lat="38.8271220" lon="-0.5435590">
        <ele>372.2</ele>
        <time>2020-11-14T12:14:54Z</time>
      </trkpt>
      <trkpt lat="38.8270980" lon="-0.5435900">
        <ele>372.5</ele>
        <time>2020-11-14T12:14:55Z</time>
      </trkpt>
      <trkpt lat="38.8270900" lon="-0.5436010">
        <ele>372.6</ele>
        <time>2020-11-14T12:14:56Z</time>
      </trkpt>
      <trkpt lat="38.8270690" lon="-0.5436350">
        <ele>372.9</ele>
        <time>2020-11-14T12:14:57Z</time>
      </trkpt>
      <trkpt lat="38.8270610" lon="-0.5436460">
        <ele>373.0</ele>
        <time>2020-11-14T12:14:58Z</time>
      </trkpt>
      <trkpt lat="38.8270370" lon="-0.5436800">
        <ele>373.3</ele>
        <time>2020-11-14T12:14:59Z</time>
      </trkpt>
      <trkpt lat="38.8270290" lon="-0.5436910">
        <ele>373.4</ele>
        <time>2020-11-14T12:15:00Z</time>
      </trkpt>
      <trkpt lat="38.8270050" lon="-0.5437250">
        <ele>373.7</ele>
        <time>2020-11-14T12:15:01Z</time>
      </trkpt>
      <trkpt lat="38.8269970" lon="-0.5437350">
        <ele>373.8</ele>
        <time>2020-11-14T12:15:02Z</time>
      </trkpt>
      <trkpt lat="38.8269750" lon="-0.5437720">
        <ele>374.1</ele>
        <time>2020-11-14T12:15:03Z</time>
      </trkpt>
      <trkpt lat="38.8269670" lon="-0.5437840">
        <ele>374.2</ele>
        <time>2020-11-14T12:15:04Z</time>
      </trkpt>
      <trkpt lat="38.8269450" lon="-0.5438210">
        <ele>374.5</ele>
        <time>2020-11-14T12:15:05Z</time>
      </trkpt>
      <trkpt lat="38.8269380" lon="-0.5438330">
        <ele>374.6</ele>
        <time>2020-11-14T12:15:06Z</time>
      </trkpt>
      <trkpt lat="38.8269190" lon="-0.5438690">
        <ele>374.9</ele>
        <time>2020-11-14T12:15:07Z</time>
      </trkpt>
      <trkpt lat="38.8269120" lon="-0.5438810">
        <ele>375.0</ele>
        <time>2020-11-14T12:15:08Z</time>
      </trkpt>
      <trkpt lat="38.8268900" lon="-0.5439190">
        <ele>375.3</ele>
        <time>2020-11-14T12:15:09Z</time>
      </trkpt>
      <trkpt lat="38.8268820" lon="-0.5439300">
        <ele>375.4</ele>
        <time>2020-11-14T12:15:10Z</time>
      </trkpt>
      <trkpt lat="38.8268580" lon="-0.5439650">
        <ele>375.7</ele>
        <time>2020-11-14T12:15:11Z</time>
      </trkpt>
      <trkpt lat="38.8268490" lon="-0.5439760">
        <ele>375.8</ele>
        <time>2020-11-14T12:15:12Z</time>
      </trkpt>
      <trkpt lat="38.8268250" lon="-0.5440100">
        <ele>376.1</ele>
        <time>2020-11-14T12:15:13Z</time>
      </trkpt>
      <trkpt lat="38.8268170" lon="-0.5440210">
        <ele>376.1</ele>
        <time>2020-11-14T12:15:14Z</time>
      </trkpt>
      <trkpt lat="38.8267940" lon="-0.5440530">
        <ele>376.4</ele>
        <time>2020-11-14T12:15:15Z</time>
      </trkpt>
      <trkpt lat="38.8267860" lon="-0.5440630">
        <ele>376.5</ele>
        <time>2020-11-14T12:15:16Z</time>
      </trkpt>
      <trkpt lat="38.8267620" lon="-0.5440970">
        <ele>376.8</ele>
        <time>2020-11-14T12:15:17Z</time>
      </trkpt>
      <trkpt lat="38.8267530" lon="-0.5441070">
        <ele>376.9</ele>
        <time>2020-11-14T12:15:18Z</time>
      </trkpt>
      <trkpt lat="38.8267260" lon="-0.5441400">
        <ele>377.2</ele>
        <time>2020-11-14T12:15:19Z</time>
      </trkpt>
      <trkpt lat="38.8267170" lon="-0.5441500">
        <ele>377.2</ele>
        <time>2020-11-14T12:15:20Z</time>
      </trkpt>
      <trkpt lat="38.8266960" lon="-0.5441730">
        <ele>377.4</ele>
        <time>2020-11-14T12:15:21Z</time>
      </trkpt>
      <trkpt lat="38.8266730" lon="-0.5441970">
        <ele>377.7</ele>
        <time>2020-11-14T12:15:22Z</time>
      </trkpt>
      <trkpt lat="38.8266450" lon="-0.5442290">
        <ele>377.9</ele>
        <time>2020-11-14T12:15:23Z</time>
      </trkpt>
      <trkpt lat="38.8266360" lon="-0.5442390">
        <ele>378.0</ele>
        <time>2020-11-14T12:15:24Z</time>
      </trkpt>
      <trkpt lat="38.8266100" lon="-0.5442690">
        <ele>378.3</ele>
        <time>2020-11-14T12:15:25Z</time>
      </trkpt>
      <trkpt lat="38.8266010" lon="-0.5442790">
        <ele>378.4</ele>
        <time>2020-11-14T12:15:26Z</time>
      </trkpt>
      <trkpt lat="38.8265750" lon="-0.5443090">
        <ele>378.7</ele>
        <time>2020-11-14T12:15:27Z</time>
      </trkpt>
      <trkpt lat="38.8265660" lon="-0.5443180">
        <ele>378.7</ele>
        <time>2020-11-14T12:15:28Z</time>
      </trkpt>
      <trkpt lat="38.8265420" lon="-0.5443520">
        <ele>379.0</ele>
        <time>2020-11-14T12:15:29Z</time>
      </trkpt>
      <trkpt lat="38.8265340" lon="-0.5443640">
        <ele>379.1</ele>
        <time>2020-11-14T12:15:30Z</time>
      </trkpt>
      <trkpt lat="38.8265110" lon="-0.5444000">
        <ele>379.4</ele>
        <time>2020-11-14T12:15:31Z</time>
      </trkpt>
      <trkpt lat="38.8265030" lon="-0.5444120">
        <ele>379.4</ele>
        <time>2020-11-14T12:15:32Z</time>
      </trkpt>
      <trkpt lat="38.8264790" lon="-0.5444460">
        <ele>379.7</ele>
        <time>2020-11-14T12:15:33Z</time>
      </trkpt>
      <trkpt lat="38.8264710" lon="-0.5444560">
        <ele>379.8</ele>
        <time>2020-11-14T12:15:34Z</time>
      </trkpt>
      <trkpt lat="38.8264460" lon="-0.5444910">
        <ele>380.1</ele>
        <time>2020-11-14T12:15:35Z</time>
      </trkpt>
      <trkpt lat="38.8264370" lon="-0.5445020">
        <ele>380.1</ele>
        <time>2020-11-14T12:15:36Z</time>
      </trkpt>
      <trkpt lat="38.8264100" lon="-0.5445360">
        <ele>380.4</ele>
        <time>2020-11-14T12:15:37Z</time>
      </trkpt>
      <trkpt lat="38.8264010" lon="-0.5445460">
        <ele>380.5</ele>
        <time>2020-11-14T12:15:38Z</time>
      </trkpt>
      <trkpt lat="38.8263750" lon="-0.5445780">
        <ele>380.7</ele>
        <time>2020-11-14T12:15:39Z</time>
      </trkpt>
      <trkpt lat="38.8263650" lon="-0.5445890">
        <ele>380.8</ele>
        <time>2020-11-14T12:15:40Z</time>
      </trkpt>
      <trkpt lat="38.8263400" lon="-0.5446210">
        <ele>381.1</ele>
        <time>2020-11-14T12:15:41Z</time>
      </trkpt>
      <trkpt lat="38.8263310" lon="-0.5446320">
        <ele>381.2</ele>
        <time>2020-11-14T12:15:42Z</time>
      </trkpt>
      <trkpt lat="38.8263070" lon="-0.5446670">
        <ele>381.4</ele>
        <time>2020-11-14T12:15:43Z</time>
      </trkpt>
      <trkpt lat="38.8262990" lon="-0.5446780">
        <ele>381.5</ele>
        <time>2020-11-14T12:15:44Z</time>
      </trkpt>
      <trkpt lat="38.8262740" lon="-0.5447150">
        <ele>381.8</ele>
        <time>2020-11-14T12:15:45Z</time>
      </trkpt>
      <trkpt lat="38.8262650" lon="-0.5447260">
        <ele>381.9</ele>
        <time>2020-11-14T12:15:46Z</time>
      </trkpt>
      <trkpt lat="38.8262390" lon="-0.5447610">
        <ele>382.1</ele>
        <time>2020-11-14T12:15:47Z</time>
      </trkpt>
      <trkpt lat="38.8262300" lon="-0.5447720">
        <ele>382.2</ele>
        <time>2020-11-14T12:15:48Z</time>
      </trkpt>
      <trkpt lat="38.8262030" lon="-0.5448050">
        <ele>382.5</ele>
        <time>2020-11-14T12:15:49Z</time>
      </trkpt>
      <trkpt lat="38.8261940" lon="-0.5448150">
        <ele>382.6</ele>
        <time>2020-11-14T12:15:50Z</time>
      </trkpt>
      <trkpt lat="38.8261670" lon="-0.5448470">
        <ele>382.8</ele>
        <time>2020-11-14T12:15:51Z</time>
      </trkpt>
      <trkpt lat="38.8261580" lon="-0.5448570">
        <ele>382.9</ele>
        <time>2020-11-14T12:15:52Z</time>
      </trkpt>
      <trkpt lat="38.8261310" lon="-0.5448890">
        <ele>383.2</ele>
        <time>2020-11-14T12:15:53Z</time>
      </trkpt>
      <trkpt lat="38.8261230" lon="-0.5448990">
        <ele>383.3</ele>
        <time>2020-11-14T12:15:54Z</time>
      </trkpt>
      <trkpt lat="38.8261060" lon="-0.5449310">
        <ele>383.5</ele>
        <time>2020-11-14T12:15:55Z</time>
      </trkpt>
      <trkpt lat="38.8260990" lon="-0.5449420">
        <ele>383.6</ele>
        <time>2020-11-14T12:15:56Z</time>
      </trkpt>
      <trkpt lat="38.8260720" lon="-0.5449760">
        <ele>383.8</ele>
        <time>2020-11-14T12:15:57Z</time>
      </trkpt>
      <trkpt lat="38.8260620" lon="-0.5449870">
        <ele>383.9</ele>
        <time>2020-11-14T12:15:58Z</time>
      </trkpt>
      <trkpt lat="38.8260350" lon="-0.5450180">
        <ele>384.2</ele>
        <time>2020-11-14T12:15:59Z</time>
      </trkpt>
      <trkpt lat="38.8260260" lon="-0.5450280">
        <ele>384.3</ele>
        <time>2020-11-14T12:16:00Z</time>
      </trkpt>
      <trkpt lat="38.8260010" lon="-0.5450610">
        <ele>384.5</ele>
        <time>2020-11-14T12:16:01Z</time>
      </trkpt>
      <trkpt lat="38.8259920" lon="-0.5450720">
        <ele>384.6</ele>
        <time>2020-11-14T12:16:02Z</time>
      </trkpt>
      <trkpt lat="38.8259660" lon="-0.5451090">
        <ele>384.8</ele>
        <time>2020-11-14T12:16:03Z</time>
      </trkpt>
      <trkpt lat="38.8259580" lon="-0.5451210">
        <ele>384.9</ele>
        <time>2020-11-14T12:16:04Z</time>
      </trkpt>
      <trkpt lat="38.8259350" lon="-0.5451590">
        <ele>385.2</ele>
        <time>2020-11-14T12:16:05Z</time>
      </trkpt>
      <trkpt lat="38.8259270" lon="-0.5451700">
        <ele>385.3</ele>
        <time>2020-11-14T12:16:06Z</time>
      </trkpt>
      <trkpt lat="38.8259020" lon="-0.5452030">
        <ele>385.5</ele>
        <time>2020-11-14T12:16:07Z</time>
      </trkpt>
      <trkpt lat="38.8258930" lon="-0.5452140">
        <ele>385.6</ele>
        <time>2020-11-14T12:16:08Z</time>
      </trkpt>
      <trkpt lat="38.8258630" lon="-0.5452430">
        <ele>385.8</ele>
        <time>2020-11-14T12:16:09Z</time>
      </trkpt>
      <trkpt lat="38.8258520" lon="-0.5452520">
        <ele>385.9</ele>
        <time>2020-11-14T12:16:10Z</time>
      </trkpt>
      <trkpt lat="38.8258180" lon="-0.5452780">
        <ele>386.2</ele>
        <time>2020-11-14T12:16:11Z</time>
      </trkpt>
      <trkpt lat="38.8258060" lon="-0.5452860">
        <ele>386.3</ele>
        <time>2020-11-14T12:16:12Z</time>
      </trkpt>
      <trkpt lat="38.8257830" lon="-0.5453030">
        <ele>386.4</ele>
        <time>2020-11-14T12:16:13Z</time>
      </trkpt>
      <trkpt lat="38.8257590" lon="-0.5453210">
        <ele>386.6</ele>
        <time>2020-11-14T12:16:14Z</time>
      </trkpt>
      <trkpt lat="38.8257260" lon="-0.5453480">
        <ele>386.8</ele>
        <time>2020-11-14T12:16:15Z</time>
      </trkpt>
      <trkpt lat="38.8257150" lon="-0.5453560">
        <ele>386.9</ele>
        <time>2020-11-14T12:16:16Z</time>
      </trkpt>
      <trkpt lat="38.8256840" lon="-0.5453820">
        <ele>387.2</ele>
        <time>2020-11-14T12:16:17Z</time>
      </trkpt>
      <trkpt lat="38.8256730" lon="-0.5453900">
        <ele>387.2</ele>
        <time>2020-11-14T12:16:18Z</time>
      </trkpt>
      <trkpt lat="38.8256430" lon="-0.5454170">
        <ele>387.5</ele>
        <time>2020-11-14T12:16:19Z</time>
      </trkpt>
      <trkpt lat="38.8256330" lon="-0.5454250">
        <ele>387.5</ele>
        <time>2020-11-14T12:16:20Z</time>
      </trkpt>
      <trkpt lat="38.8256030" lon="-0.5454490">
        <ele>387.7</ele>
        <time>2020-11-14T12:16:21Z</time>
      </trkpt>
      <trkpt lat="38.8255930" lon="-0.5454560">
        <ele>387.8</ele>
        <time>2020-11-14T12:16:22Z</time>
      </trkpt>
      <trkpt lat="38.8255640" lon="-0.5454800">
        <ele>388.0</ele>
        <time>2020-11-14T12:16:23Z</time>
      </trkpt>
      <trkpt lat="38.8255540" lon="-0.5454880">
        <ele>388.1</ele>
        <time>2020-11-14T12:16:24Z</time>
      </trkpt>
      <trkpt lat="38.8255290" lon="-0.5455140">
        <ele>388.2</ele>
        <time>2020-11-14T12:16:25Z</time>
      </trkpt>
      <trkpt lat="38.8255190" lon="-0.5455220">
        <ele>388.3</ele>
        <time>2020-11-14T12:16:26Z</time>
      </trkpt>
      <trkpt lat="38.8254880" lon="-0.5455520">
        <ele>388.5</ele>
        <time>2020-11-14T12:16:27Z</time>
      </trkpt>
      <trkpt lat="38.8254780" lon="-0.5455620">
        <ele>388.6</ele>
        <time>2020-11-14T12:16:28Z</time>
      </trkpt>
      <trkpt lat="38.8254510" lon="-0.5455950">
        <ele>388.6</ele>
        <time>2020-11-14T12:16:29Z</time>
      </trkpt>
      <trkpt lat="38.8254420" lon="-0.5456060">
        <ele>388.6</ele>
        <time>2020-11-14T12:16:30Z</time>
      </trkpt>
      <trkpt lat="38.8254210" lon="-0.5456440">
        <ele>388.7</ele>
        <time>2020-11-14T12:16:31Z</time>
      </trkpt>
      <trkpt lat="38.8254140" lon="-0.5456570">
        <ele>388.7</ele>
        <time>2020-11-14T12:16:32Z</time>
      </trkpt>
      <trkpt lat="38.8253960" lon="-0.5456960">
        <ele>388.7</ele>
        <time>2020-11-14T12:16:33Z</time>
      </trkpt>
      <trkpt lat="38.8253900" lon="-0.5457090">
        <ele>388.7</ele>
        <time>2020-11-14T12:16:34Z</time>
      </trkpt>
      <trkpt lat="38.8253760" lon="-0.5457460">
        <ele>388.8</ele>
        <time>2020-11-14T12:16:35Z</time>
      </trkpt>
      <trkpt lat="38.8253730" lon="-0.5457570">
        <ele>388.8</ele>
        <time>2020-11-14T12:16:36Z</time>
      </trkpt>
      <trkpt lat="38.8253730" lon="-0.5457570">
        <ele>388.8</ele>
        <time>2020-11-14T12:16:37Z</time>
      </trkpt>
      <trkpt lat="38.8253730" lon="-0.5457570">
        <ele>388.8</ele>
        <time>2020-11-14T12:16:38Z</time>
      </trkpt>
      <trkpt lat="38.8253730" lon="-0.5457570">
        <ele>388.8</ele>
        <time>2020-11-14T12:16:39Z</time>
      </trkpt>
      <trkpt lat="38.8253730" lon="-0.5457570">
        <ele>388.8</ele>
        <time>2020-11-14T12:16:40Z</time>
      </trkpt>
      <trkpt lat="38.8253780" lon="-0.5457550">
        <ele>388.8</ele>
        <time>2020-11-14T12:16:41Z</time>
      </trkpt>
      <trkpt lat="38.8253780" lon="-0.5457550">
        <ele>388.8</ele>
        <time>2020-11-14T12:16:42Z</time>
      </trkpt>
      <trkpt lat="38.8253750" lon="-0.5457500">
        <ele>388.8</ele>
        <time>2020-11-14T12:16:43Z</time>
      </trkpt>
      <trkpt lat="38.8253710" lon="-0.5457500">
        <ele>388.8</ele>
        <time>2020-11-14T12:16:44Z</time>
      </trkpt>
      <trkpt lat="38.8253670" lon="-0.5457520">
        <ele>388.8</ele>
        <time>2020-11-14T12:16:45Z</time>
      </trkpt>
      <trkpt lat="38.8253650" lon="-0.5457530">
        <ele>388.8</ele>
        <time>2020-11-14T12:16:46Z</time>
      </trkpt>
    </trkseg>
  </trk>
</gpx>
